<?xml version="1.0" encoding="UTF-8" standalone="no" ?>
<gpx xmlns="http://www.topografix.com/GPX/1/1" xmlns:xsi="http://www.w3.org/2001/XMLSchema-instance" xsi:schemaLocation="http://www.topografix.com/GPX/1/1 http://www.topografix.com/GPX/1/1/gpx.xsd" version="1.1" creator="VisuGPX - https://www.visugpx.com">
  <metadata>
    <name>Grand Tour de la Tarentause</name>
    <desc><![CDATA[Grand Tour de la Tarentaise du 25/06 au 01/07]]></desc>
  </metadata>
  <trk>
    <name><![CDATA[8803312-Grand Tour de la Tarentaise]]></name>
    <trkseg>
      <trkpt lat="45.61848" lon="6.77115">
        <ele>816</ele>
        <time>2018-06-21T18:38:26Z</time>
      </trkpt>
      <trkpt lat="45.61853" lon="6.77067">
        <ele>819</ele>
        <time>2018-06-21T18:39:26Z</time>
      </trkpt>
      <trkpt lat="45.61849" lon="6.77005">
        <ele>821</ele>
        <time>2018-06-21T18:40:26Z</time>
      </trkpt>
      <trkpt lat="45.61842" lon="6.76953">
        <ele>825</ele>
        <time>2018-06-21T18:41:26Z</time>
      </trkpt>
      <trkpt lat="45.61848" lon="6.76917">
        <ele>826</ele>
        <time>2018-06-21T18:42:26Z</time>
      </trkpt>
      <trkpt lat="45.61873" lon="6.76891">
        <ele>829</ele>
        <time>2018-06-21T18:43:26Z</time>
      </trkpt>
      <trkpt lat="45.61965" lon="6.76907">
        <ele>829</ele>
        <time>2018-06-21T18:44:26Z</time>
      </trkpt>
      <trkpt lat="45.62011" lon="6.76916">
        <ele>828</ele>
        <time>2018-06-21T18:45:26Z</time>
      </trkpt>
      <trkpt lat="45.62092" lon="6.76938">
        <ele>824</ele>
        <time>2018-06-21T18:46:26Z</time>
      </trkpt>
      <trkpt lat="45.62168" lon="6.7696">
        <ele>825</ele>
        <time>2018-06-21T18:47:26Z</time>
      </trkpt>
      <trkpt lat="45.62199" lon="6.76968">
        <ele>825</ele>
        <time>2018-06-21T18:48:26Z</time>
      </trkpt>
      <trkpt lat="45.62227" lon="6.76995">
        <ele>824</ele>
        <time>2018-06-21T18:49:26Z</time>
      </trkpt>
      <trkpt lat="45.62263" lon="6.77035">
        <ele>825</ele>
        <time>2018-06-21T18:50:26Z</time>
      </trkpt>
      <trkpt lat="45.62296" lon="6.7707">
        <ele>826</ele>
        <time>2018-06-21T18:51:26Z</time>
      </trkpt>
      <trkpt lat="45.62319" lon="6.77109">
        <ele>826</ele>
        <time>2018-06-21T18:52:26Z</time>
      </trkpt>
      <trkpt lat="45.62327" lon="6.77117">
        <ele>826</ele>
        <time>2018-06-21T18:53:26Z</time>
      </trkpt>
      <trkpt lat="45.62354" lon="6.77107">
        <ele>842</ele>
        <time>2018-06-21T18:54:26Z</time>
      </trkpt>
      <trkpt lat="45.62363" lon="6.7713">
        <ele>845</ele>
        <time>2018-06-21T18:55:26Z</time>
      </trkpt>
      <trkpt lat="45.62403" lon="6.77178">
        <ele>853</ele>
        <time>2018-06-21T18:56:26Z</time>
      </trkpt>
      <trkpt lat="45.62413" lon="6.77134">
        <ele>854</ele>
        <time>2018-06-21T18:57:26Z</time>
      </trkpt>
      <trkpt lat="45.62419" lon="6.77102">
        <ele>877</ele>
        <time>2018-06-21T18:58:26Z</time>
      </trkpt>
      <trkpt lat="45.62438" lon="6.77092">
        <ele>881</ele>
        <time>2018-06-21T18:59:26Z</time>
      </trkpt>
      <trkpt lat="45.62457" lon="6.77074">
        <ele>886</ele>
        <time>2018-06-21T19:00:26Z</time>
      </trkpt>
      <trkpt lat="45.62483" lon="6.77076">
        <ele>898</ele>
        <time>2018-06-21T19:01:26Z</time>
      </trkpt>
      <trkpt lat="45.62514" lon="6.77079">
        <ele>924</ele>
        <time>2018-06-21T19:02:26Z</time>
      </trkpt>
      <trkpt lat="45.62544" lon="6.77019">
        <ele>937</ele>
        <time>2018-06-21T19:03:26Z</time>
      </trkpt>
      <trkpt lat="45.62551" lon="6.77033">
        <ele>939</ele>
        <time>2018-06-21T19:04:26Z</time>
      </trkpt>
      <trkpt lat="45.62571" lon="6.77097">
        <ele>950</ele>
        <time>2018-06-21T19:05:26Z</time>
      </trkpt>
      <trkpt lat="45.62601" lon="6.77155">
        <ele>973</ele>
        <time>2018-06-21T19:06:26Z</time>
      </trkpt>
      <trkpt lat="45.62639" lon="6.77246">
        <ele>985</ele>
        <time>2018-06-21T19:07:26Z</time>
      </trkpt>
      <trkpt lat="45.62661" lon="6.77298">
        <ele>981</ele>
        <time>2018-06-21T19:08:26Z</time>
      </trkpt>
      <trkpt lat="45.62675" lon="6.77278">
        <ele>1014</ele>
        <time>2018-06-21T19:09:26Z</time>
      </trkpt>
      <trkpt lat="45.62682" lon="6.77303">
        <ele>1013</ele>
        <time>2018-06-21T19:10:26Z</time>
      </trkpt>
      <trkpt lat="45.62692" lon="6.77275">
        <ele>1018</ele>
        <time>2018-06-21T19:11:26Z</time>
      </trkpt>
      <trkpt lat="45.62745" lon="6.77324">
        <ele>1033</ele>
        <time>2018-06-21T19:12:26Z</time>
      </trkpt>
      <trkpt lat="45.62739" lon="6.77293">
        <ele>1029</ele>
        <time>2018-06-21T19:13:26Z</time>
      </trkpt>
      <trkpt lat="45.62745" lon="6.77215">
        <ele>1038</ele>
        <time>2018-06-21T19:14:26Z</time>
      </trkpt>
      <trkpt lat="45.62755" lon="6.7718">
        <ele>1062</ele>
        <time>2018-06-21T19:15:26Z</time>
      </trkpt>
      <trkpt lat="45.62788" lon="6.7716">
        <ele>1075</ele>
        <time>2018-06-21T19:16:26Z</time>
      </trkpt>
      <trkpt lat="45.62789" lon="6.77131">
        <ele>1076</ele>
        <time>2018-06-21T19:17:26Z</time>
      </trkpt>
      <trkpt lat="45.62805" lon="6.77092">
        <ele>1083</ele>
        <time>2018-06-21T19:18:26Z</time>
      </trkpt>
      <trkpt lat="45.62835" lon="6.77143">
        <ele>1107</ele>
        <time>2018-06-21T19:19:26Z</time>
      </trkpt>
      <trkpt lat="45.62853" lon="6.77141">
        <ele>1111</ele>
        <time>2018-06-21T19:20:26Z</time>
      </trkpt>
      <trkpt lat="45.62862" lon="6.77175">
        <ele>1107</ele>
        <time>2018-06-21T19:21:26Z</time>
      </trkpt>
      <trkpt lat="45.62869" lon="6.77146">
        <ele>1115</ele>
        <time>2018-06-21T19:22:26Z</time>
      </trkpt>
      <trkpt lat="45.6288" lon="6.77162">
        <ele>1119</ele>
        <time>2018-06-21T19:23:26Z</time>
      </trkpt>
      <trkpt lat="45.62882" lon="6.7715">
        <ele>1120</ele>
        <time>2018-06-21T19:24:26Z</time>
      </trkpt>
      <trkpt lat="45.62892" lon="6.77125">
        <ele>1123</ele>
        <time>2018-06-21T19:25:26Z</time>
      </trkpt>
      <trkpt lat="45.62907" lon="6.77079">
        <ele>1138</ele>
        <time>2018-06-21T19:26:26Z</time>
      </trkpt>
      <trkpt lat="45.62928" lon="6.7712">
        <ele>1156</ele>
        <time>2018-06-21T19:27:26Z</time>
      </trkpt>
      <trkpt lat="45.62945" lon="6.77182">
        <ele>1150</ele>
        <time>2018-06-21T19:28:26Z</time>
      </trkpt>
      <trkpt lat="45.62968" lon="6.77238">
        <ele>1155</ele>
        <time>2018-06-21T19:29:26Z</time>
      </trkpt>
      <trkpt lat="45.63007" lon="6.77292">
        <ele>1170</ele>
        <time>2018-06-21T19:30:26Z</time>
      </trkpt>
      <trkpt lat="45.63032" lon="6.7728">
        <ele>1174</ele>
        <time>2018-06-21T19:31:26Z</time>
      </trkpt>
      <trkpt lat="45.63055" lon="6.7725">
        <ele>1189</ele>
        <time>2018-06-21T19:32:26Z</time>
      </trkpt>
      <trkpt lat="45.63079" lon="6.77243">
        <ele>1194</ele>
        <time>2018-06-21T19:33:26Z</time>
      </trkpt>
      <trkpt lat="45.63136" lon="6.773">
        <ele>1203</ele>
        <time>2018-06-21T19:34:26Z</time>
      </trkpt>
      <trkpt lat="45.63139" lon="6.77279">
        <ele>1206</ele>
        <time>2018-06-21T19:35:26Z</time>
      </trkpt>
      <trkpt lat="45.63097" lon="6.77213">
        <ele>1212</ele>
        <time>2018-06-21T19:36:26Z</time>
      </trkpt>
      <trkpt lat="45.63061" lon="6.77162">
        <ele>1205</ele>
        <time>2018-06-21T19:37:26Z</time>
      </trkpt>
      <trkpt lat="45.63039" lon="6.77099">
        <ele>1204</ele>
        <time>2018-06-21T19:38:26Z</time>
      </trkpt>
      <trkpt lat="45.6305" lon="6.77086">
        <ele>1208</ele>
        <time>2018-06-21T19:39:26Z</time>
      </trkpt>
      <trkpt lat="45.63067" lon="6.77126">
        <ele>1207</ele>
        <time>2018-06-21T19:40:26Z</time>
      </trkpt>
      <trkpt lat="45.63092" lon="6.77145">
        <ele>1223</ele>
        <time>2018-06-21T19:41:26Z</time>
      </trkpt>
      <trkpt lat="45.63132" lon="6.77177">
        <ele>1221</ele>
        <time>2018-06-21T19:42:26Z</time>
      </trkpt>
      <trkpt lat="45.63172" lon="6.77229">
        <ele>1232</ele>
        <time>2018-06-21T19:43:26Z</time>
      </trkpt>
      <trkpt lat="45.63212" lon="6.77233">
        <ele>1238</ele>
        <time>2018-06-21T19:44:26Z</time>
      </trkpt>
      <trkpt lat="45.63236" lon="6.77308">
        <ele>1232</ele>
        <time>2018-06-21T19:45:26Z</time>
      </trkpt>
      <trkpt lat="45.63251" lon="6.77284">
        <ele>1249</ele>
        <time>2018-06-21T19:46:26Z</time>
      </trkpt>
      <trkpt lat="45.63231" lon="6.77186">
        <ele>1244</ele>
        <time>2018-06-21T19:47:26Z</time>
      </trkpt>
      <trkpt lat="45.63206" lon="6.77149">
        <ele>1252</ele>
        <time>2018-06-21T19:48:26Z</time>
      </trkpt>
      <trkpt lat="45.63191" lon="6.77121">
        <ele>1253</ele>
        <time>2018-06-21T19:49:26Z</time>
      </trkpt>
      <trkpt lat="45.63176" lon="6.77049">
        <ele>1262</ele>
        <time>2018-06-21T19:50:26Z</time>
      </trkpt>
      <trkpt lat="45.63212" lon="6.76969">
        <ele>1274</ele>
        <time>2018-06-21T19:51:26Z</time>
      </trkpt>
      <trkpt lat="45.63219" lon="6.76901">
        <ele>1279</ele>
        <time>2018-06-21T19:52:26Z</time>
      </trkpt>
      <trkpt lat="45.6323" lon="6.76844">
        <ele>1282</ele>
        <time>2018-06-21T19:53:26Z</time>
      </trkpt>
      <trkpt lat="45.63249" lon="6.76799">
        <ele>1282</ele>
        <time>2018-06-21T19:54:26Z</time>
      </trkpt>
      <trkpt lat="45.63258" lon="6.76753">
        <ele>1293</ele>
        <time>2018-06-21T19:55:26Z</time>
      </trkpt>
      <trkpt lat="45.63288" lon="6.76715">
        <ele>1302</ele>
        <time>2018-06-21T19:56:26Z</time>
      </trkpt>
      <trkpt lat="45.633" lon="6.7669">
        <ele>1304</ele>
        <time>2018-06-21T19:57:26Z</time>
      </trkpt>
      <trkpt lat="45.63319" lon="6.76645">
        <ele>1312</ele>
        <time>2018-06-21T19:58:26Z</time>
      </trkpt>
      <trkpt lat="45.63337" lon="6.76612">
        <ele>1331</ele>
        <time>2018-06-21T19:59:26Z</time>
      </trkpt>
      <trkpt lat="45.6335" lon="6.76554">
        <ele>1337</ele>
        <time>2018-06-21T20:00:26Z</time>
      </trkpt>
      <trkpt lat="45.63369" lon="6.76517">
        <ele>1341</ele>
        <time>2018-06-21T20:01:26Z</time>
      </trkpt>
      <trkpt lat="45.63384" lon="6.7648">
        <ele>1348</ele>
        <time>2018-06-21T20:02:26Z</time>
      </trkpt>
      <trkpt lat="45.63425" lon="6.76442">
        <ele>1371</ele>
        <time>2018-06-21T20:03:26Z</time>
      </trkpt>
      <trkpt lat="45.63426" lon="6.76399">
        <ele>1373</ele>
        <time>2018-06-21T20:04:26Z</time>
      </trkpt>
      <trkpt lat="45.63459" lon="6.76386">
        <ele>1380</ele>
        <time>2018-06-21T20:05:26Z</time>
      </trkpt>
      <trkpt lat="45.63497" lon="6.76336">
        <ele>1394</ele>
        <time>2018-06-21T20:06:26Z</time>
      </trkpt>
      <trkpt lat="45.63536" lon="6.76276">
        <ele>1407</ele>
        <time>2018-06-21T20:07:26Z</time>
      </trkpt>
      <trkpt lat="45.63592" lon="6.76207">
        <ele>1430</ele>
        <time>2018-06-21T20:08:26Z</time>
      </trkpt>
      <trkpt lat="45.63601" lon="6.76176">
        <ele>1426</ele>
        <time>2018-06-21T20:09:26Z</time>
      </trkpt>
      <trkpt lat="45.6364" lon="6.76126">
        <ele>1426</ele>
        <time>2018-06-21T20:10:26Z</time>
      </trkpt>
      <trkpt lat="45.63664" lon="6.76061">
        <ele>1418</ele>
        <time>2018-06-21T20:11:26Z</time>
      </trkpt>
      <trkpt lat="45.6369" lon="6.7607">
        <ele>1448</ele>
        <time>2018-06-21T20:12:26Z</time>
      </trkpt>
      <trkpt lat="45.63715" lon="6.76025">
        <ele>1452</ele>
        <time>2018-06-21T20:13:26Z</time>
      </trkpt>
      <trkpt lat="45.63722" lon="6.75975">
        <ele>1441</ele>
        <time>2018-06-21T20:14:26Z</time>
      </trkpt>
      <trkpt lat="45.63738" lon="6.75919">
        <ele>1445</ele>
        <time>2018-06-21T20:15:26Z</time>
      </trkpt>
      <trkpt lat="45.63775" lon="6.75867">
        <ele>1456</ele>
        <time>2018-06-21T20:16:26Z</time>
      </trkpt>
      <trkpt lat="45.63823" lon="6.75821">
        <ele>1455</ele>
        <time>2018-06-21T20:17:26Z</time>
      </trkpt>
      <trkpt lat="45.63866" lon="6.75757">
        <ele>1475</ele>
        <time>2018-06-21T20:18:26Z</time>
      </trkpt>
      <trkpt lat="45.63872" lon="6.75673">
        <ele>1465</ele>
        <time>2018-06-21T20:19:26Z</time>
      </trkpt>
      <trkpt lat="45.639" lon="6.75619">
        <ele>1460</ele>
        <time>2018-06-21T20:20:26Z</time>
      </trkpt>
      <trkpt lat="45.63958" lon="6.75571">
        <ele>1478</ele>
        <time>2018-06-21T20:21:26Z</time>
      </trkpt>
      <trkpt lat="45.64" lon="6.75495">
        <ele>1487</ele>
        <time>2018-06-21T20:22:26Z</time>
      </trkpt>
      <trkpt lat="45.64027" lon="6.75484">
        <ele>1499</ele>
        <time>2018-06-21T20:23:26Z</time>
      </trkpt>
      <trkpt lat="45.64024" lon="6.75458">
        <ele>1501</ele>
        <time>2018-06-21T20:24:26Z</time>
      </trkpt>
      <trkpt lat="45.63951" lon="6.75433">
        <ele>1486</ele>
        <time>2018-06-21T20:25:26Z</time>
      </trkpt>
      <trkpt lat="45.63934" lon="6.75386">
        <ele>1503</ele>
        <time>2018-06-21T20:26:26Z</time>
      </trkpt>
      <trkpt lat="45.63908" lon="6.75361">
        <ele>1513</ele>
        <time>2018-06-21T20:27:26Z</time>
      </trkpt>
      <trkpt lat="45.63908" lon="6.75349">
        <ele>1513</ele>
        <time>2018-06-21T20:28:26Z</time>
      </trkpt>
      <trkpt lat="45.63933" lon="6.75354">
        <ele>1508</ele>
        <time>2018-06-21T20:29:26Z</time>
      </trkpt>
      <trkpt lat="45.63977" lon="6.75391">
        <ele>1506</ele>
        <time>2018-06-21T20:30:26Z</time>
      </trkpt>
      <trkpt lat="45.63994" lon="6.75387">
        <ele>1507</ele>
        <time>2018-06-21T20:31:26Z</time>
      </trkpt>
      <trkpt lat="45.63951" lon="6.75331">
        <ele>1527</ele>
        <time>2018-06-21T20:32:26Z</time>
      </trkpt>
      <trkpt lat="45.63933" lon="6.75293">
        <ele>1533</ele>
        <time>2018-06-21T20:33:26Z</time>
      </trkpt>
      <trkpt lat="45.63972" lon="6.75326">
        <ele>1530</ele>
        <time>2018-06-21T20:34:26Z</time>
      </trkpt>
      <trkpt lat="45.64005" lon="6.75342">
        <ele>1525</ele>
        <time>2018-06-21T20:35:26Z</time>
      </trkpt>
      <trkpt lat="45.6398" lon="6.75288">
        <ele>1535</ele>
        <time>2018-06-21T20:36:26Z</time>
      </trkpt>
      <trkpt lat="45.64035" lon="6.75337">
        <ele>1524</ele>
        <time>2018-06-21T20:37:26Z</time>
      </trkpt>
      <trkpt lat="45.64066" lon="6.75337">
        <ele>1530</ele>
        <time>2018-06-21T20:38:26Z</time>
      </trkpt>
      <trkpt lat="45.64116" lon="6.75337">
        <ele>1535</ele>
        <time>2018-06-21T20:39:26Z</time>
      </trkpt>
      <trkpt lat="45.64122" lon="6.75322">
        <ele>1547</ele>
        <time>2018-06-21T20:40:26Z</time>
      </trkpt>
      <trkpt lat="45.64069" lon="6.75288">
        <ele>1546</ele>
        <time>2018-06-21T20:41:26Z</time>
      </trkpt>
      <trkpt lat="45.64033" lon="6.7524">
        <ele>1559</ele>
        <time>2018-06-21T20:42:26Z</time>
      </trkpt>
      <trkpt lat="45.6409" lon="6.75252">
        <ele>1559</ele>
        <time>2018-06-21T20:43:26Z</time>
      </trkpt>
      <trkpt lat="45.64146" lon="6.75216">
        <ele>1568</ele>
        <time>2018-06-21T20:44:26Z</time>
      </trkpt>
      <trkpt lat="45.64142" lon="6.75162">
        <ele>1581</ele>
        <time>2018-06-21T20:45:26Z</time>
      </trkpt>
      <trkpt lat="45.64183" lon="6.75102">
        <ele>1584</ele>
        <time>2018-06-21T20:46:26Z</time>
      </trkpt>
      <trkpt lat="45.64218" lon="6.75027">
        <ele>1596</ele>
        <time>2018-06-21T20:47:26Z</time>
      </trkpt>
      <trkpt lat="45.64258" lon="6.74993">
        <ele>1600</ele>
        <time>2018-06-21T20:48:26Z</time>
      </trkpt>
      <trkpt lat="45.64292" lon="6.74921">
        <ele>1606</ele>
        <time>2018-06-21T20:49:26Z</time>
      </trkpt>
      <trkpt lat="45.6433" lon="6.74842">
        <ele>1612</ele>
        <time>2018-06-21T20:50:26Z</time>
      </trkpt>
      <trkpt lat="45.64356" lon="6.74744">
        <ele>1617</ele>
        <time>2018-06-21T20:51:26Z</time>
      </trkpt>
      <trkpt lat="45.64359" lon="6.74701">
        <ele>1618</ele>
        <time>2018-06-21T20:52:26Z</time>
      </trkpt>
      <trkpt lat="45.64369" lon="6.74619">
        <ele>1623</ele>
        <time>2018-06-21T20:53:26Z</time>
      </trkpt>
      <trkpt lat="45.64443" lon="6.74501">
        <ele>1628</ele>
        <time>2018-06-21T20:54:26Z</time>
      </trkpt>
      <trkpt lat="45.64487" lon="6.74469">
        <ele>1635</ele>
        <time>2018-06-21T20:55:26Z</time>
      </trkpt>
      <trkpt lat="45.64547" lon="6.74367">
        <ele>1646</ele>
        <time>2018-06-21T20:56:26Z</time>
      </trkpt>
      <trkpt lat="45.64616" lon="6.74275">
        <ele>1654</ele>
        <time>2018-06-21T20:57:26Z</time>
      </trkpt>
      <trkpt lat="45.64657" lon="6.74178">
        <ele>1655</ele>
        <time>2018-06-21T20:58:26Z</time>
      </trkpt>
      <trkpt lat="45.64701" lon="6.74059">
        <ele>1663</ele>
        <time>2018-06-21T20:59:26Z</time>
      </trkpt>
      <trkpt lat="45.64737" lon="6.74043">
        <ele>1661</ele>
        <time>2018-06-21T21:00:26Z</time>
      </trkpt>
      <trkpt lat="45.64764" lon="6.74059">
        <ele>1656</ele>
        <time>2018-06-21T21:01:26Z</time>
      </trkpt>
      <trkpt lat="45.64824" lon="6.74011">
        <ele>1661</ele>
        <time>2018-06-21T21:02:26Z</time>
      </trkpt>
      <trkpt lat="45.64869" lon="6.73938">
        <ele>1674</ele>
        <time>2018-06-21T21:03:26Z</time>
      </trkpt>
      <trkpt lat="45.64926" lon="6.73856">
        <ele>1690</ele>
        <time>2018-06-21T21:04:26Z</time>
      </trkpt>
      <trkpt lat="45.64966" lon="6.73776">
        <ele>1703</ele>
        <time>2018-06-21T21:05:26Z</time>
      </trkpt>
      <trkpt lat="45.65012" lon="6.73704">
        <ele>1718</ele>
        <time>2018-06-21T21:06:26Z</time>
      </trkpt>
      <trkpt lat="45.65043" lon="6.73666">
        <ele>1729</ele>
        <time>2018-06-21T21:07:26Z</time>
      </trkpt>
      <trkpt lat="45.65068" lon="6.73601">
        <ele>1734</ele>
        <time>2018-06-21T21:08:26Z</time>
      </trkpt>
      <trkpt lat="45.65116" lon="6.73589">
        <ele>1733</ele>
        <time>2018-06-21T21:09:26Z</time>
      </trkpt>
      <trkpt lat="45.65148" lon="6.73621">
        <ele>1734</ele>
        <time>2018-06-21T21:10:26Z</time>
      </trkpt>
      <trkpt lat="45.65182" lon="6.73618">
        <ele>1748</ele>
        <time>2018-06-21T21:11:26Z</time>
      </trkpt>
      <trkpt lat="45.65211" lon="6.73551">
        <ele>1761</ele>
        <time>2018-06-21T21:12:26Z</time>
      </trkpt>
      <trkpt lat="45.65237" lon="6.73454">
        <ele>1782</ele>
        <time>2018-06-21T21:13:26Z</time>
      </trkpt>
      <trkpt lat="45.65258" lon="6.73368">
        <ele>1810</ele>
        <time>2018-06-21T21:14:26Z</time>
      </trkpt>
      <trkpt lat="45.65289" lon="6.73308">
        <ele>1824</ele>
        <time>2018-06-21T21:15:26Z</time>
      </trkpt>
      <trkpt lat="45.65326" lon="6.73254">
        <ele>1827</ele>
        <time>2018-06-21T21:16:26Z</time>
      </trkpt>
      <trkpt lat="45.65346" lon="6.73236">
        <ele>1837</ele>
        <time>2018-06-21T21:17:26Z</time>
      </trkpt>
      <trkpt lat="45.65388" lon="6.73122">
        <ele>1850</ele>
        <time>2018-06-21T21:18:26Z</time>
      </trkpt>
      <trkpt lat="45.65391" lon="6.73094">
        <ele>1851</ele>
        <time>2018-06-21T21:19:26Z</time>
      </trkpt>
      <trkpt lat="45.65411" lon="6.7312">
        <ele>1851</ele>
        <time>2018-06-21T21:20:26Z</time>
      </trkpt>
      <trkpt lat="45.65414" lon="6.73038">
        <ele>1859</ele>
        <time>2018-06-21T21:21:26Z</time>
      </trkpt>
      <trkpt lat="45.65445" lon="6.72914">
        <ele>1880</ele>
        <time>2018-06-21T21:22:26Z</time>
      </trkpt>
      <trkpt lat="45.65423" lon="6.72861">
        <ele>1884</ele>
        <time>2018-06-21T21:23:26Z</time>
      </trkpt>
      <trkpt lat="45.65443" lon="6.72853">
        <ele>1886</ele>
        <time>2018-06-21T21:24:26Z</time>
      </trkpt>
      <trkpt lat="45.65453" lon="6.72832">
        <ele>1896</ele>
        <time>2018-06-21T21:25:26Z</time>
      </trkpt>
      <trkpt lat="45.65474" lon="6.72792">
        <ele>1901</ele>
        <time>2018-06-21T21:26:26Z</time>
      </trkpt>
      <trkpt lat="45.65477" lon="6.7275">
        <ele>1908</ele>
        <time>2018-06-21T21:27:26Z</time>
      </trkpt>
      <trkpt lat="45.65489" lon="6.7273">
        <ele>1912</ele>
        <time>2018-06-21T21:28:26Z</time>
      </trkpt>
      <trkpt lat="45.65488" lon="6.72692">
        <ele>1915</ele>
        <time>2018-06-21T21:29:26Z</time>
      </trkpt>
      <trkpt lat="45.65489" lon="6.72651">
        <ele>1924</ele>
        <time>2018-06-21T21:30:26Z</time>
      </trkpt>
      <trkpt lat="45.655" lon="6.72618">
        <ele>1940</ele>
        <time>2018-06-21T21:31:26Z</time>
      </trkpt>
      <trkpt lat="45.65518" lon="6.72538">
        <ele>1949</ele>
        <time>2018-06-21T21:32:26Z</time>
      </trkpt>
      <trkpt lat="45.65524" lon="6.72509">
        <ele>1951</ele>
        <time>2018-06-21T21:33:26Z</time>
      </trkpt>
      <trkpt lat="45.65512" lon="6.72468">
        <ele>1960</ele>
        <time>2018-06-21T21:34:26Z</time>
      </trkpt>
      <trkpt lat="45.65545" lon="6.72495">
        <ele>1962</ele>
        <time>2018-06-21T21:35:26Z</time>
      </trkpt>
      <trkpt lat="45.65568" lon="6.72507">
        <ele>1960</ele>
        <time>2018-06-21T21:36:26Z</time>
      </trkpt>
      <trkpt lat="45.65584" lon="6.72527">
        <ele>1983</ele>
        <time>2018-06-21T21:37:26Z</time>
      </trkpt>
      <trkpt lat="45.65547" lon="6.72415">
        <ele>1976</ele>
        <time>2018-06-21T21:38:26Z</time>
      </trkpt>
      <trkpt lat="45.65602" lon="6.72465">
        <ele>1988</ele>
        <time>2018-06-21T21:39:26Z</time>
      </trkpt>
      <trkpt lat="45.65629" lon="6.72501">
        <ele>1996</ele>
        <time>2018-06-21T21:40:26Z</time>
      </trkpt>
      <trkpt lat="45.65609" lon="6.72416">
        <ele>1992</ele>
        <time>2018-06-21T21:41:26Z</time>
      </trkpt>
      <trkpt lat="45.65594" lon="6.72363">
        <ele>1994</ele>
        <time>2018-06-21T21:42:26Z</time>
      </trkpt>
      <trkpt lat="45.65596" lon="6.72321">
        <ele>1995</ele>
        <time>2018-06-21T21:43:26Z</time>
      </trkpt>
      <trkpt lat="45.65616" lon="6.72266">
        <ele>2002</ele>
        <time>2018-06-21T21:44:26Z</time>
      </trkpt>
      <trkpt lat="45.65634" lon="6.72164">
        <ele>2014</ele>
        <time>2018-06-21T21:45:26Z</time>
      </trkpt>
      <trkpt lat="45.65654" lon="6.72107">
        <ele>2016</ele>
        <time>2018-06-21T21:46:26Z</time>
      </trkpt>
      <trkpt lat="45.65707" lon="6.72031">
        <ele>2027</ele>
        <time>2018-06-21T21:47:26Z</time>
      </trkpt>
      <trkpt lat="45.65737" lon="6.71988">
        <ele>2029</ele>
        <time>2018-06-21T21:48:26Z</time>
      </trkpt>
      <trkpt lat="45.65776" lon="6.71891">
        <ele>2046</ele>
        <time>2018-06-21T21:49:26Z</time>
      </trkpt>
      <trkpt lat="45.65817" lon="6.7182">
        <ele>2061</ele>
        <time>2018-06-21T21:50:26Z</time>
      </trkpt>
      <trkpt lat="45.6585" lon="6.71753">
        <ele>2075</ele>
        <time>2018-06-21T21:51:26Z</time>
      </trkpt>
      <trkpt lat="45.65881" lon="6.71691">
        <ele>2087</ele>
        <time>2018-06-21T21:52:26Z</time>
      </trkpt>
      <trkpt lat="45.65909" lon="6.71618">
        <ele>2099</ele>
        <time>2018-06-21T21:53:26Z</time>
      </trkpt>
      <trkpt lat="45.65947" lon="6.71583">
        <ele>2116</ele>
        <time>2018-06-21T21:54:26Z</time>
      </trkpt>
      <trkpt lat="45.6598" lon="6.71509">
        <ele>2123</ele>
        <time>2018-06-21T21:55:26Z</time>
      </trkpt>
      <trkpt lat="45.66004" lon="6.7145">
        <ele>2139</ele>
        <time>2018-06-21T21:56:26Z</time>
      </trkpt>
      <trkpt lat="45.66028" lon="6.71398">
        <ele>2145</ele>
        <time>2018-06-21T21:57:26Z</time>
      </trkpt>
      <trkpt lat="45.66063" lon="6.71362">
        <ele>2151</ele>
        <time>2018-06-21T21:58:26Z</time>
      </trkpt>
      <trkpt lat="45.66065" lon="6.71318">
        <ele>2158</ele>
        <time>2018-06-21T21:59:26Z</time>
      </trkpt>
      <trkpt lat="45.66113" lon="6.71268">
        <ele>2177</ele>
        <time>2018-06-21T22:00:26Z</time>
      </trkpt>
      <trkpt lat="45.66126" lon="6.71204">
        <ele>2186</ele>
        <time>2018-06-21T22:01:26Z</time>
      </trkpt>
      <trkpt lat="45.66134" lon="6.71145">
        <ele>2198</ele>
        <time>2018-06-21T22:02:26Z</time>
      </trkpt>
      <trkpt lat="45.6611" lon="6.71128">
        <ele>2197</ele>
        <time>2018-06-21T22:03:26Z</time>
      </trkpt>
      <trkpt lat="45.66125" lon="6.71117">
        <ele>2199</ele>
        <time>2018-06-21T22:04:26Z</time>
      </trkpt>
      <trkpt lat="45.66118" lon="6.71031">
        <ele>2219</ele>
        <time>2018-06-21T22:05:26Z</time>
      </trkpt>
      <trkpt lat="45.66152" lon="6.70961">
        <ele>2239</ele>
        <time>2018-06-21T22:06:26Z</time>
      </trkpt>
      <trkpt lat="45.66173" lon="6.70872">
        <ele>2260</ele>
        <time>2018-06-21T22:07:26Z</time>
      </trkpt>
      <trkpt lat="45.66198" lon="6.70779">
        <ele>2276</ele>
        <time>2018-06-21T22:08:26Z</time>
      </trkpt>
      <trkpt lat="45.66222" lon="6.70787">
        <ele>2279</ele>
        <time>2018-06-21T22:09:26Z</time>
      </trkpt>
      <trkpt lat="45.66221" lon="6.70715">
        <ele>2291</ele>
        <time>2018-06-21T22:10:26Z</time>
      </trkpt>
      <trkpt lat="45.66219" lon="6.70647">
        <ele>2307</ele>
        <time>2018-06-21T22:11:26Z</time>
      </trkpt>
      <trkpt lat="45.66252" lon="6.70646">
        <ele>2317</ele>
        <time>2018-06-21T22:12:26Z</time>
      </trkpt>
      <trkpt lat="45.66302" lon="6.70609">
        <ele>2329</ele>
        <time>2018-06-21T22:13:26Z</time>
      </trkpt>
      <trkpt lat="45.66317" lon="6.70656">
        <ele>2334</ele>
        <time>2018-06-21T22:14:26Z</time>
      </trkpt>
      <trkpt lat="45.66328" lon="6.70642">
        <ele>2334</ele>
        <time>2018-06-21T22:15:26Z</time>
      </trkpt>
      <trkpt lat="45.66348" lon="6.7069">
        <ele>2359</ele>
        <time>2018-06-21T22:16:26Z</time>
      </trkpt>
      <trkpt lat="45.66364" lon="6.70747">
        <ele>2361</ele>
        <time>2018-06-21T22:17:26Z</time>
      </trkpt>
      <trkpt lat="45.66381" lon="6.70718">
        <ele>2370</ele>
        <time>2018-06-21T22:18:26Z</time>
      </trkpt>
      <trkpt lat="45.66398" lon="6.70759">
        <ele>2375</ele>
        <time>2018-06-21T22:19:26Z</time>
      </trkpt>
      <trkpt lat="45.66426" lon="6.70815">
        <ele>2411</ele>
        <time>2018-06-21T22:20:26Z</time>
      </trkpt>
      <trkpt lat="45.66432" lon="6.70847">
        <ele>2406</ele>
        <time>2018-06-21T22:21:26Z</time>
      </trkpt>
      <trkpt lat="45.66443" lon="6.70917">
        <ele>2400</ele>
        <time>2018-06-21T22:22:26Z</time>
      </trkpt>
      <trkpt lat="45.66466" lon="6.70947">
        <ele>2413</ele>
        <time>2018-06-21T22:23:26Z</time>
      </trkpt>
      <trkpt lat="45.66465" lon="6.70973">
        <ele>2412</ele>
        <time>2018-06-21T22:24:26Z</time>
      </trkpt>
      <trkpt lat="45.66474" lon="6.71026">
        <ele>2412</ele>
        <time>2018-06-21T22:25:26Z</time>
      </trkpt>
      <trkpt lat="45.66528" lon="6.71089">
        <ele>2444</ele>
        <time>2018-06-21T22:26:26Z</time>
      </trkpt>
      <trkpt lat="45.66563" lon="6.71105">
        <ele>2453</ele>
        <time>2018-06-21T22:27:26Z</time>
      </trkpt>
      <trkpt lat="45.66594" lon="6.71139">
        <ele>2476</ele>
        <time>2018-06-21T22:28:26Z</time>
      </trkpt>
      <trkpt lat="45.66618" lon="6.71105">
        <ele>2480</ele>
        <time>2018-06-21T22:29:26Z</time>
      </trkpt>
      <trkpt lat="45.6667" lon="6.7106">
        <ele>2506</ele>
        <time>2018-06-21T22:30:26Z</time>
      </trkpt>
      <trkpt lat="45.66694" lon="6.7114">
        <ele>2511</ele>
        <time>2018-06-21T22:31:26Z</time>
      </trkpt>
      <trkpt lat="45.66733" lon="6.71151">
        <ele>2519</ele>
        <time>2018-06-21T22:32:26Z</time>
      </trkpt>
      <trkpt lat="45.66792" lon="6.71208">
        <ele>2536</ele>
        <time>2018-06-21T22:33:26Z</time>
      </trkpt>
      <trkpt lat="45.66843" lon="6.71234">
        <ele>2543</ele>
        <time>2018-06-21T22:34:26Z</time>
      </trkpt>
      <trkpt lat="45.66873" lon="6.71242">
        <ele>2543</ele>
        <time>2018-06-21T22:35:26Z</time>
      </trkpt>
      <trkpt lat="45.66868" lon="6.71216">
        <ele>2542</ele>
        <time>2018-06-21T22:36:26Z</time>
      </trkpt>
      <trkpt lat="45.66882" lon="6.71224">
        <ele>2542</ele>
        <time>2018-06-21T22:37:26Z</time>
      </trkpt>
      <trkpt lat="45.66907" lon="6.71196">
        <ele>2535</ele>
        <time>2018-06-21T22:38:26Z</time>
      </trkpt>
      <trkpt lat="45.66942" lon="6.71211">
        <ele>2528</ele>
        <time>2018-06-21T22:39:26Z</time>
      </trkpt>
      <trkpt lat="45.66992" lon="6.71202">
        <ele>2518</ele>
        <time>2018-06-21T22:40:26Z</time>
      </trkpt>
      <trkpt lat="45.66975" lon="6.71157">
        <ele>2478</ele>
        <time>2018-06-21T22:41:26Z</time>
      </trkpt>
      <trkpt lat="45.6698" lon="6.71126">
        <ele>2470</ele>
        <time>2018-06-21T22:42:26Z</time>
      </trkpt>
      <trkpt lat="45.66965" lon="6.71101">
        <ele>2466</ele>
        <time>2018-06-21T22:43:26Z</time>
      </trkpt>
      <trkpt lat="45.67013" lon="6.7106">
        <ele>2424</ele>
        <time>2018-06-21T22:44:26Z</time>
      </trkpt>
      <trkpt lat="45.67014" lon="6.70998">
        <ele>2397</ele>
        <time>2018-06-21T22:45:26Z</time>
      </trkpt>
      <trkpt lat="45.67015" lon="6.70955">
        <ele>2390</ele>
        <time>2018-06-21T22:46:26Z</time>
      </trkpt>
      <trkpt lat="45.67012" lon="6.70878">
        <ele>2368</ele>
        <time>2018-06-21T22:47:26Z</time>
      </trkpt>
      <trkpt lat="45.67025" lon="6.70822">
        <ele>2346</ele>
        <time>2018-06-21T22:48:26Z</time>
      </trkpt>
      <trkpt lat="45.67047" lon="6.70817">
        <ele>2342</ele>
        <time>2018-06-21T22:49:26Z</time>
      </trkpt>
      <trkpt lat="45.67053" lon="6.70773">
        <ele>2333</ele>
        <time>2018-06-21T22:50:26Z</time>
      </trkpt>
      <trkpt lat="45.67039" lon="6.70735">
        <ele>2314</ele>
        <time>2018-06-21T22:51:26Z</time>
      </trkpt>
      <trkpt lat="45.67105" lon="6.70746">
        <ele>2295</ele>
        <time>2018-06-21T22:52:26Z</time>
      </trkpt>
      <trkpt lat="45.67137" lon="6.70711">
        <ele>2282</ele>
        <time>2018-06-21T22:53:26Z</time>
      </trkpt>
      <trkpt lat="45.67177" lon="6.70702">
        <ele>2262</ele>
        <time>2018-06-21T22:54:26Z</time>
      </trkpt>
      <trkpt lat="45.67169" lon="6.70677">
        <ele>2255</ele>
        <time>2018-06-21T22:55:26Z</time>
      </trkpt>
      <trkpt lat="45.67205" lon="6.70659">
        <ele>2229</ele>
        <time>2018-06-21T22:56:26Z</time>
      </trkpt>
      <trkpt lat="45.67237" lon="6.70676">
        <ele>2244</ele>
        <time>2018-06-21T22:57:26Z</time>
      </trkpt>
      <trkpt lat="45.67277" lon="6.7065">
        <ele>2210</ele>
        <time>2018-06-21T22:58:26Z</time>
      </trkpt>
      <trkpt lat="45.67315" lon="6.70655">
        <ele>2203</ele>
        <time>2018-06-21T22:59:26Z</time>
      </trkpt>
      <trkpt lat="45.67365" lon="6.70611">
        <ele>2185</ele>
        <time>2018-06-21T23:00:26Z</time>
      </trkpt>
      <trkpt lat="45.6743" lon="6.70573">
        <ele>2165</ele>
        <time>2018-06-21T23:01:26Z</time>
      </trkpt>
      <trkpt lat="45.67467" lon="6.70547">
        <ele>2155</ele>
        <time>2018-06-21T23:02:26Z</time>
      </trkpt>
      <trkpt lat="45.67536" lon="6.70558">
        <ele>2144</ele>
        <time>2018-06-21T23:03:26Z</time>
      </trkpt>
      <trkpt lat="45.67558" lon="6.70545">
        <ele>2142</ele>
        <time>2018-06-21T23:04:26Z</time>
      </trkpt>
      <trkpt lat="45.67619" lon="6.70558">
        <ele>2134</ele>
        <time>2018-06-21T23:05:26Z</time>
      </trkpt>
      <trkpt lat="45.67654" lon="6.70541">
        <ele>2132</ele>
        <time>2018-06-21T23:06:26Z</time>
      </trkpt>
      <trkpt lat="45.67697" lon="6.70579">
        <ele>2125</ele>
        <time>2018-06-21T23:07:26Z</time>
      </trkpt>
      <trkpt lat="45.67742" lon="6.70547">
        <ele>2121</ele>
        <time>2018-06-21T23:08:26Z</time>
      </trkpt>
      <trkpt lat="45.67768" lon="6.70564">
        <ele>2113</ele>
        <time>2018-06-21T23:09:26Z</time>
      </trkpt>
      <trkpt lat="45.67825" lon="6.70536">
        <ele>2108</ele>
        <time>2018-06-21T23:10:26Z</time>
      </trkpt>
      <trkpt lat="45.67834" lon="6.70548">
        <ele>2109</ele>
        <time>2018-06-21T23:11:26Z</time>
      </trkpt>
      <trkpt lat="45.67865" lon="6.70545">
        <ele>2110</ele>
        <time>2018-06-21T23:12:26Z</time>
      </trkpt>
      <trkpt lat="45.67867" lon="6.70506">
        <ele>2107</ele>
        <time>2018-06-21T23:13:26Z</time>
      </trkpt>
      <trkpt lat="45.67882" lon="6.70488">
        <ele>2097</ele>
        <time>2018-06-21T23:14:26Z</time>
      </trkpt>
      <trkpt lat="45.67899" lon="6.70412">
        <ele>2075</ele>
        <time>2018-06-21T23:15:26Z</time>
      </trkpt>
      <trkpt lat="45.67894" lon="6.70366">
        <ele>2066</ele>
        <time>2018-06-21T23:16:26Z</time>
      </trkpt>
      <trkpt lat="45.67881" lon="6.70351">
        <ele>2065</ele>
        <time>2018-06-21T23:17:26Z</time>
      </trkpt>
      <trkpt lat="45.67862" lon="6.70316">
        <ele>2052</ele>
        <time>2018-06-21T23:18:26Z</time>
      </trkpt>
      <trkpt lat="45.6791" lon="6.70307">
        <ele>2046</ele>
        <time>2018-06-21T23:19:26Z</time>
      </trkpt>
      <trkpt lat="45.67908" lon="6.70293">
        <ele>2044</ele>
        <time>2018-06-21T23:20:26Z</time>
      </trkpt>
      <trkpt lat="45.67934" lon="6.70287">
        <ele>2028</ele>
        <time>2018-06-21T23:21:26Z</time>
      </trkpt>
      <trkpt lat="45.67936" lon="6.7026">
        <ele>2025</ele>
        <time>2018-06-21T23:22:26Z</time>
      </trkpt>
      <trkpt lat="45.67921" lon="6.70181">
        <ele>2025</ele>
        <time>2018-06-21T23:23:26Z</time>
      </trkpt>
      <trkpt lat="45.67859" lon="6.70102">
        <ele>2038</ele>
        <time>2018-06-21T23:24:26Z</time>
      </trkpt>
      <trkpt lat="45.67759" lon="6.70036">
        <ele>2045</ele>
        <time>2018-06-21T23:25:26Z</time>
      </trkpt>
      <trkpt lat="45.6771" lon="6.69984">
        <ele>2051</ele>
        <time>2018-06-21T23:26:26Z</time>
      </trkpt>
      <trkpt lat="45.67675" lon="6.69923">
        <ele>2051</ele>
        <time>2018-06-21T23:27:26Z</time>
      </trkpt>
      <trkpt lat="45.6761" lon="6.69881">
        <ele>2063</ele>
        <time>2018-06-21T23:28:26Z</time>
      </trkpt>
      <trkpt lat="45.67618" lon="6.69846">
        <ele>2062</ele>
        <time>2018-06-21T23:29:26Z</time>
      </trkpt>
      <trkpt lat="45.67557" lon="6.69779">
        <ele>2077</ele>
        <time>2018-06-21T23:30:26Z</time>
      </trkpt>
      <trkpt lat="45.67507" lon="6.69726">
        <ele>2084</ele>
        <time>2018-06-21T23:31:26Z</time>
      </trkpt>
      <trkpt lat="45.67433" lon="6.69661">
        <ele>2105</ele>
        <time>2018-06-21T23:32:26Z</time>
      </trkpt>
      <trkpt lat="45.67411" lon="6.69606">
        <ele>2121</ele>
        <time>2018-06-21T23:33:26Z</time>
      </trkpt>
      <trkpt lat="45.67336" lon="6.69568">
        <ele>2136</ele>
        <time>2018-06-21T23:34:26Z</time>
      </trkpt>
      <trkpt lat="45.67251" lon="6.69477">
        <ele>2160</ele>
        <time>2018-06-21T23:35:26Z</time>
      </trkpt>
      <trkpt lat="45.67155" lon="6.69376">
        <ele>2182</ele>
        <time>2018-06-21T23:36:26Z</time>
      </trkpt>
      <trkpt lat="45.67089" lon="6.69336">
        <ele>2182</ele>
        <time>2018-06-21T23:37:26Z</time>
      </trkpt>
      <trkpt lat="45.66984" lon="6.693">
        <ele>2194</ele>
        <time>2018-06-21T23:38:26Z</time>
      </trkpt>
      <trkpt lat="45.66941" lon="6.69291">
        <ele>2197</ele>
        <time>2018-06-21T23:39:26Z</time>
      </trkpt>
      <trkpt lat="45.66904" lon="6.69239">
        <ele>2208</ele>
        <time>2018-06-21T23:40:26Z</time>
      </trkpt>
      <trkpt lat="45.66878" lon="6.69169">
        <ele>2214</ele>
        <time>2018-06-21T23:41:26Z</time>
      </trkpt>
      <trkpt lat="45.66855" lon="6.69101">
        <ele>2218</ele>
        <time>2018-06-21T23:42:26Z</time>
      </trkpt>
      <trkpt lat="45.66825" lon="6.69084">
        <ele>2225</ele>
        <time>2018-06-21T23:43:26Z</time>
      </trkpt>
      <trkpt lat="45.66773" lon="6.68969">
        <ele>2244</ele>
        <time>2018-06-21T23:44:26Z</time>
      </trkpt>
      <trkpt lat="45.66715" lon="6.68905">
        <ele>2258</ele>
        <time>2018-06-21T23:45:26Z</time>
      </trkpt>
      <trkpt lat="45.66638" lon="6.68854">
        <ele>2273</ele>
        <time>2018-06-21T23:46:26Z</time>
      </trkpt>
      <trkpt lat="45.66564" lon="6.6881">
        <ele>2288</ele>
        <time>2018-06-21T23:47:26Z</time>
      </trkpt>
      <trkpt lat="45.66495" lon="6.68784">
        <ele>2296</ele>
        <time>2018-06-21T23:48:26Z</time>
      </trkpt>
      <trkpt lat="45.66461" lon="6.68732">
        <ele>2303</ele>
        <time>2018-06-21T23:49:26Z</time>
      </trkpt>
      <trkpt lat="45.66442" lon="6.68668">
        <ele>2307</ele>
        <time>2018-06-21T23:50:26Z</time>
      </trkpt>
      <trkpt lat="45.66407" lon="6.68588">
        <ele>2317</ele>
        <time>2018-06-21T23:51:26Z</time>
      </trkpt>
      <trkpt lat="45.6637" lon="6.68546">
        <ele>2318</ele>
        <time>2018-06-21T23:52:26Z</time>
      </trkpt>
      <trkpt lat="45.66333" lon="6.68479">
        <ele>2325</ele>
        <time>2018-06-21T23:53:26Z</time>
      </trkpt>
      <trkpt lat="45.66274" lon="6.68388">
        <ele>2336</ele>
        <time>2018-06-21T23:54:26Z</time>
      </trkpt>
      <trkpt lat="45.66253" lon="6.68388">
        <ele>2335</ele>
        <time>2018-06-21T23:55:26Z</time>
      </trkpt>
      <trkpt lat="45.66244" lon="6.68364">
        <ele>2333</ele>
        <time>2018-06-21T23:56:26Z</time>
      </trkpt>
      <trkpt lat="45.66257" lon="6.68288">
        <ele>2352</ele>
        <time>2018-06-21T23:57:26Z</time>
      </trkpt>
      <trkpt lat="45.66241" lon="6.6825">
        <ele>2353</ele>
        <time>2018-06-21T23:58:26Z</time>
      </trkpt>
      <trkpt lat="45.66207" lon="6.68183">
        <ele>2360</ele>
        <time>2018-06-21T23:59:26Z</time>
      </trkpt>
      <trkpt lat="45.66188" lon="6.68131">
        <ele>2376</ele>
        <time>2018-06-22T00:00:26Z</time>
      </trkpt>
      <trkpt lat="45.66155" lon="6.68095">
        <ele>2372</ele>
        <time>2018-06-22T00:01:26Z</time>
      </trkpt>
      <trkpt lat="45.66153" lon="6.68069">
        <ele>2386</ele>
        <time>2018-06-22T00:02:26Z</time>
      </trkpt>
      <trkpt lat="45.6613" lon="6.68054">
        <ele>2386</ele>
        <time>2018-06-22T00:03:26Z</time>
      </trkpt>
      <trkpt lat="45.66092" lon="6.68019">
        <ele>2388</ele>
        <time>2018-06-22T00:04:26Z</time>
      </trkpt>
      <trkpt lat="45.66056" lon="6.67977">
        <ele>2395</ele>
        <time>2018-06-22T00:05:26Z</time>
      </trkpt>
      <trkpt lat="45.66001" lon="6.67908">
        <ele>2409</ele>
        <time>2018-06-22T00:06:26Z</time>
      </trkpt>
      <trkpt lat="45.65955" lon="6.67845">
        <ele>2411</ele>
        <time>2018-06-22T00:07:26Z</time>
      </trkpt>
      <trkpt lat="45.65902" lon="6.67731">
        <ele>2430</ele>
        <time>2018-06-22T00:08:26Z</time>
      </trkpt>
      <trkpt lat="45.65906" lon="6.67664">
        <ele>2434</ele>
        <time>2018-06-22T00:09:26Z</time>
      </trkpt>
      <trkpt lat="45.65934" lon="6.67579">
        <ele>2444</ele>
        <time>2018-06-22T00:10:26Z</time>
      </trkpt>
      <trkpt lat="45.65925" lon="6.67505">
        <ele>2441</ele>
        <time>2018-06-22T00:11:26Z</time>
      </trkpt>
      <trkpt lat="45.65929" lon="6.67467">
        <ele>2452</ele>
        <time>2018-06-22T00:12:26Z</time>
      </trkpt>
      <trkpt lat="45.65933" lon="6.67421">
        <ele>2452</ele>
        <time>2018-06-22T00:13:26Z</time>
      </trkpt>
      <trkpt lat="45.6594" lon="6.67362">
        <ele>2469</ele>
        <time>2018-06-22T00:14:26Z</time>
      </trkpt>
      <trkpt lat="45.65931" lon="6.67301">
        <ele>2479</ele>
        <time>2018-06-22T00:15:26Z</time>
      </trkpt>
      <trkpt lat="45.65927" lon="6.67254">
        <ele>2479</ele>
        <time>2018-06-22T00:16:26Z</time>
      </trkpt>
      <trkpt lat="45.65905" lon="6.67142">
        <ele>2501</ele>
        <time>2018-06-22T00:17:26Z</time>
      </trkpt>
      <trkpt lat="45.65876" lon="6.67048">
        <ele>2521</ele>
        <time>2018-06-22T00:18:26Z</time>
      </trkpt>
      <trkpt lat="45.65819" lon="6.66986">
        <ele>2535</ele>
        <time>2018-06-22T00:19:26Z</time>
      </trkpt>
      <trkpt lat="45.65799" lon="6.66937">
        <ele>2543</ele>
        <time>2018-06-22T00:20:26Z</time>
      </trkpt>
      <trkpt lat="45.65687" lon="6.66921">
        <ele>2551</ele>
        <time>2018-06-22T00:21:26Z</time>
      </trkpt>
      <trkpt lat="45.6563" lon="6.66823">
        <ele>2596</ele>
        <time>2018-06-22T00:22:26Z</time>
      </trkpt>
      <trkpt lat="45.65553" lon="6.66743">
        <ele>2635</ele>
        <time>2018-06-22T00:23:26Z</time>
      </trkpt>
      <trkpt lat="45.65495" lon="6.66693">
        <ele>2658</ele>
        <time>2018-06-22T00:24:26Z</time>
      </trkpt>
      <trkpt lat="45.65477" lon="6.6671">
        <ele>2655</ele>
        <time>2018-06-22T00:25:26Z</time>
      </trkpt>
      <trkpt lat="45.65449" lon="6.66693">
        <ele>2662</ele>
        <time>2018-06-22T00:26:26Z</time>
      </trkpt>
      <trkpt lat="45.65415" lon="6.66682">
        <ele>2665</ele>
        <time>2018-06-22T00:27:26Z</time>
      </trkpt>
      <trkpt lat="45.65385" lon="6.66691">
        <ele>2652</ele>
        <time>2018-06-22T00:28:26Z</time>
      </trkpt>
      <trkpt lat="45.65367" lon="6.66635">
        <ele>2642</ele>
        <time>2018-06-22T00:29:26Z</time>
      </trkpt>
      <trkpt lat="45.65347" lon="6.66661">
        <ele>2629</ele>
        <time>2018-06-22T00:30:26Z</time>
      </trkpt>
      <trkpt lat="45.6533" lon="6.66632">
        <ele>2621</ele>
        <time>2018-06-22T00:31:26Z</time>
      </trkpt>
      <trkpt lat="45.65313" lon="6.66643">
        <ele>2615</ele>
        <time>2018-06-22T00:32:26Z</time>
      </trkpt>
      <trkpt lat="45.65253" lon="6.66655">
        <ele>2594</ele>
        <time>2018-06-22T00:33:26Z</time>
      </trkpt>
      <trkpt lat="45.65187" lon="6.66641">
        <ele>2552</ele>
        <time>2018-06-22T00:34:26Z</time>
      </trkpt>
      <trkpt lat="45.65151" lon="6.66638">
        <ele>2547</ele>
        <time>2018-06-22T00:35:26Z</time>
      </trkpt>
      <trkpt lat="45.65103" lon="6.66637">
        <ele>2546</ele>
        <time>2018-06-22T00:36:26Z</time>
      </trkpt>
      <trkpt lat="45.65074" lon="6.66602">
        <ele>2533</ele>
        <time>2018-06-22T00:37:26Z</time>
      </trkpt>
      <trkpt lat="45.65035" lon="6.66626">
        <ele>2531</ele>
        <time>2018-06-22T00:38:26Z</time>
      </trkpt>
      <trkpt lat="45.64992" lon="6.66641">
        <ele>2520</ele>
        <time>2018-06-22T00:39:26Z</time>
      </trkpt>
      <trkpt lat="45.64939" lon="6.66608">
        <ele>2514</ele>
        <time>2018-06-22T00:40:26Z</time>
      </trkpt>
      <trkpt lat="45.64882" lon="6.6654">
        <ele>2499</ele>
        <time>2018-06-22T00:41:26Z</time>
      </trkpt>
      <trkpt lat="45.64875" lon="6.66509">
        <ele>2498</ele>
        <time>2018-06-22T00:42:26Z</time>
      </trkpt>
      <trkpt lat="45.64861" lon="6.66449">
        <ele>2495</ele>
        <time>2018-06-22T00:43:26Z</time>
      </trkpt>
      <trkpt lat="45.64858" lon="6.66393">
        <ele>2495</ele>
        <time>2018-06-22T00:44:26Z</time>
      </trkpt>
      <trkpt lat="45.6484" lon="6.66352">
        <ele>2491</ele>
        <time>2018-06-22T00:45:26Z</time>
      </trkpt>
      <trkpt lat="45.64834" lon="6.66326">
        <ele>2487</ele>
        <time>2018-06-22T00:46:26Z</time>
      </trkpt>
      <trkpt lat="45.64858" lon="6.66235">
        <ele>2497</ele>
        <time>2018-06-22T00:47:26Z</time>
      </trkpt>
      <trkpt lat="45.64823" lon="6.66154">
        <ele>2480</ele>
        <time>2018-06-22T00:48:26Z</time>
      </trkpt>
      <trkpt lat="45.64769" lon="6.66126">
        <ele>2468</ele>
        <time>2018-06-22T00:49:26Z</time>
      </trkpt>
      <trkpt lat="45.64751" lon="6.66082">
        <ele>2461</ele>
        <time>2018-06-22T00:50:26Z</time>
      </trkpt>
      <trkpt lat="45.64698" lon="6.66045">
        <ele>2447</ele>
        <time>2018-06-22T00:51:26Z</time>
      </trkpt>
      <trkpt lat="45.64666" lon="6.65962">
        <ele>2442</ele>
        <time>2018-06-22T00:52:26Z</time>
      </trkpt>
      <trkpt lat="45.64605" lon="6.65851">
        <ele>2458</ele>
        <time>2018-06-22T00:53:26Z</time>
      </trkpt>
      <trkpt lat="45.64585" lon="6.65784">
        <ele>2483</ele>
        <time>2018-06-22T00:54:26Z</time>
      </trkpt>
      <trkpt lat="45.64533" lon="6.65749">
        <ele>2470</ele>
        <time>2018-06-22T00:55:26Z</time>
      </trkpt>
      <trkpt lat="45.6451" lon="6.65702">
        <ele>2473</ele>
        <time>2018-06-22T00:56:26Z</time>
      </trkpt>
      <trkpt lat="45.64499" lon="6.65648">
        <ele>2467</ele>
        <time>2018-06-22T00:57:26Z</time>
      </trkpt>
      <trkpt lat="45.64486" lon="6.65594">
        <ele>2458</ele>
        <time>2018-06-22T00:58:26Z</time>
      </trkpt>
      <trkpt lat="45.64506" lon="6.65573">
        <ele>2451</ele>
        <time>2018-06-22T00:59:26Z</time>
      </trkpt>
      <trkpt lat="45.64522" lon="6.65532">
        <ele>2446</ele>
        <time>2018-06-22T01:00:26Z</time>
      </trkpt>
      <trkpt lat="45.64534" lon="6.65458">
        <ele>2416</ele>
        <time>2018-06-22T01:01:26Z</time>
      </trkpt>
      <trkpt lat="45.64515" lon="6.65435">
        <ele>2408</ele>
        <time>2018-06-22T01:02:26Z</time>
      </trkpt>
      <trkpt lat="45.64494" lon="6.65428">
        <ele>2403</ele>
        <time>2018-06-22T01:03:26Z</time>
      </trkpt>
      <trkpt lat="45.64501" lon="6.65397">
        <ele>2390</ele>
        <time>2018-06-22T01:04:26Z</time>
      </trkpt>
      <trkpt lat="45.64552" lon="6.65382">
        <ele>2384</ele>
        <time>2018-06-22T01:05:26Z</time>
      </trkpt>
      <trkpt lat="45.64603" lon="6.65368">
        <ele>2375</ele>
        <time>2018-06-22T01:06:26Z</time>
      </trkpt>
      <trkpt lat="45.64618" lon="6.65303">
        <ele>2345</ele>
        <time>2018-06-22T01:07:26Z</time>
      </trkpt>
      <trkpt lat="45.64637" lon="6.65255">
        <ele>2338</ele>
        <time>2018-06-22T01:08:26Z</time>
      </trkpt>
      <trkpt lat="45.64642" lon="6.652">
        <ele>2327</ele>
        <time>2018-06-22T01:09:26Z</time>
      </trkpt>
      <trkpt lat="45.64669" lon="6.65157">
        <ele>2298</ele>
        <time>2018-06-22T01:10:26Z</time>
      </trkpt>
      <trkpt lat="45.64707" lon="6.65115">
        <ele>2285</ele>
        <time>2018-06-22T01:11:26Z</time>
      </trkpt>
      <trkpt lat="45.64711" lon="6.65047">
        <ele>2267</ele>
        <time>2018-06-22T01:12:26Z</time>
      </trkpt>
      <trkpt lat="45.64721" lon="6.64977">
        <ele>2245</ele>
        <time>2018-06-22T01:13:26Z</time>
      </trkpt>
      <trkpt lat="45.6469" lon="6.64919">
        <ele>2241</ele>
        <time>2018-06-22T01:14:26Z</time>
      </trkpt>
      <trkpt lat="45.64652" lon="6.64857">
        <ele>2227</ele>
        <time>2018-06-22T01:15:26Z</time>
      </trkpt>
      <trkpt lat="45.64609" lon="6.64781">
        <ele>2204</ele>
        <time>2018-06-22T01:16:26Z</time>
      </trkpt>
      <trkpt lat="45.64635" lon="6.64761">
        <ele>2197</ele>
        <time>2018-06-22T01:17:26Z</time>
      </trkpt>
      <trkpt lat="45.6465" lon="6.64725">
        <ele>2179</ele>
        <time>2018-06-22T01:18:26Z</time>
      </trkpt>
      <trkpt lat="45.64707" lon="6.64689">
        <ele>2160</ele>
        <time>2018-06-22T01:19:26Z</time>
      </trkpt>
      <trkpt lat="45.64753" lon="6.64719">
        <ele>2150</ele>
        <time>2018-06-22T01:20:26Z</time>
      </trkpt>
      <trkpt lat="45.64767" lon="6.64686">
        <ele>2144</ele>
        <time>2018-06-22T01:21:26Z</time>
      </trkpt>
      <trkpt lat="45.64821" lon="6.64663">
        <ele>2129</ele>
        <time>2018-06-22T01:22:26Z</time>
      </trkpt>
      <trkpt lat="45.64848" lon="6.6464">
        <ele>2118</ele>
        <time>2018-06-22T01:23:26Z</time>
      </trkpt>
      <trkpt lat="45.6487" lon="6.64592">
        <ele>2111</ele>
        <time>2018-06-22T01:24:26Z</time>
      </trkpt>
      <trkpt lat="45.64853" lon="6.64572">
        <ele>2100</ele>
        <time>2018-06-22T01:25:26Z</time>
      </trkpt>
      <trkpt lat="45.64849" lon="6.64535">
        <ele>2094</ele>
        <time>2018-06-22T01:26:26Z</time>
      </trkpt>
      <trkpt lat="45.64833" lon="6.64497">
        <ele>2095</ele>
        <time>2018-06-22T01:27:26Z</time>
      </trkpt>
      <trkpt lat="45.64807" lon="6.64449">
        <ele>2090</ele>
        <time>2018-06-22T01:28:26Z</time>
      </trkpt>
      <trkpt lat="45.6481" lon="6.64372">
        <ele>2064</ele>
        <time>2018-06-22T01:29:26Z</time>
      </trkpt>
      <trkpt lat="45.64785" lon="6.64326">
        <ele>2050</ele>
        <time>2018-06-22T01:30:26Z</time>
      </trkpt>
      <trkpt lat="45.64793" lon="6.64291">
        <ele>2045</ele>
        <time>2018-06-22T01:31:26Z</time>
      </trkpt>
      <trkpt lat="45.64835" lon="6.64264">
        <ele>2025</ele>
        <time>2018-06-22T01:32:26Z</time>
      </trkpt>
      <trkpt lat="45.64868" lon="6.64243">
        <ele>2016</ele>
        <time>2018-06-22T01:33:26Z</time>
      </trkpt>
      <trkpt lat="45.64914" lon="6.64226">
        <ele>2011</ele>
        <time>2018-06-22T01:34:26Z</time>
      </trkpt>
      <trkpt lat="45.64774" lon="6.6413">
        <ele>2025</ele>
        <time>2018-06-22T01:35:26Z</time>
      </trkpt>
      <trkpt lat="45.64744" lon="6.64088">
        <ele>2029</ele>
        <time>2018-06-22T01:36:26Z</time>
      </trkpt>
      <trkpt lat="45.64726" lon="6.64047">
        <ele>2029</ele>
        <time>2018-06-22T01:37:26Z</time>
      </trkpt>
      <trkpt lat="45.64709" lon="6.6402">
        <ele>2029</ele>
        <time>2018-06-22T01:38:26Z</time>
      </trkpt>
      <trkpt lat="45.64694" lon="6.63977">
        <ele>2033</ele>
        <time>2018-06-22T01:39:26Z</time>
      </trkpt>
      <trkpt lat="45.64756" lon="6.63894">
        <ele>2040</ele>
        <time>2018-06-22T01:40:26Z</time>
      </trkpt>
      <trkpt lat="45.64758" lon="6.63839">
        <ele>2047</ele>
        <time>2018-06-22T01:41:26Z</time>
      </trkpt>
      <trkpt lat="45.64791" lon="6.63845">
        <ele>2044</ele>
        <time>2018-06-22T01:42:26Z</time>
      </trkpt>
      <trkpt lat="45.64851" lon="6.63786">
        <ele>2053</ele>
        <time>2018-06-22T01:43:26Z</time>
      </trkpt>
      <trkpt lat="45.64786" lon="6.63721">
        <ele>2070</ele>
        <time>2018-06-22T01:44:26Z</time>
      </trkpt>
      <trkpt lat="45.64708" lon="6.6368">
        <ele>2070</ele>
        <time>2018-06-22T01:45:26Z</time>
      </trkpt>
      <trkpt lat="45.64635" lon="6.63561">
        <ele>2093</ele>
        <time>2018-06-22T01:46:26Z</time>
      </trkpt>
      <trkpt lat="45.64568" lon="6.63493">
        <ele>2104</ele>
        <time>2018-06-22T01:47:26Z</time>
      </trkpt>
      <trkpt lat="45.64565" lon="6.63476">
        <ele>2106</ele>
        <time>2018-06-22T01:48:26Z</time>
      </trkpt>
      <trkpt lat="45.64517" lon="6.63413">
        <ele>2116</ele>
        <time>2018-06-22T01:49:26Z</time>
      </trkpt>
      <trkpt lat="45.64478" lon="6.63438">
        <ele>2113</ele>
        <time>2018-06-22T01:50:26Z</time>
      </trkpt>
      <trkpt lat="45.64415" lon="6.63438">
        <ele>2119</ele>
        <time>2018-06-22T01:51:26Z</time>
      </trkpt>
      <trkpt lat="45.6435" lon="6.63452">
        <ele>2120</ele>
        <time>2018-06-22T01:52:26Z</time>
      </trkpt>
      <trkpt lat="45.64289" lon="6.63448">
        <ele>2125</ele>
        <time>2018-06-22T01:53:26Z</time>
      </trkpt>
      <trkpt lat="45.6421" lon="6.63427">
        <ele>2128</ele>
        <time>2018-06-22T01:54:26Z</time>
      </trkpt>
      <trkpt lat="45.64177" lon="6.63398">
        <ele>2137</ele>
        <time>2018-06-22T01:55:26Z</time>
      </trkpt>
      <trkpt lat="45.64169" lon="6.63378">
        <ele>2139</ele>
        <time>2018-06-22T01:56:26Z</time>
      </trkpt>
      <trkpt lat="45.64124" lon="6.63345">
        <ele>2137</ele>
        <time>2018-06-22T01:57:26Z</time>
      </trkpt>
      <trkpt lat="45.64063" lon="6.63288">
        <ele>2142</ele>
        <time>2018-06-22T01:58:26Z</time>
      </trkpt>
      <trkpt lat="45.64011" lon="6.6325">
        <ele>2142</ele>
        <time>2018-06-22T01:59:26Z</time>
      </trkpt>
      <trkpt lat="45.63975" lon="6.63248">
        <ele>2145</ele>
        <time>2018-06-22T02:00:26Z</time>
      </trkpt>
      <trkpt lat="45.63942" lon="6.6321">
        <ele>2146</ele>
        <time>2018-06-22T02:01:26Z</time>
      </trkpt>
      <trkpt lat="45.63876" lon="6.63152">
        <ele>2152</ele>
        <time>2018-06-22T02:02:26Z</time>
      </trkpt>
      <trkpt lat="45.6385" lon="6.63066">
        <ele>2164</ele>
        <time>2018-06-22T02:03:26Z</time>
      </trkpt>
      <trkpt lat="45.638" lon="6.62972">
        <ele>2179</ele>
        <time>2018-06-22T02:04:26Z</time>
      </trkpt>
      <trkpt lat="45.63747" lon="6.62925">
        <ele>2190</ele>
        <time>2018-06-22T02:05:26Z</time>
      </trkpt>
      <trkpt lat="45.63734" lon="6.62968">
        <ele>2189</ele>
        <time>2018-06-22T02:06:26Z</time>
      </trkpt>
      <trkpt lat="45.63699" lon="6.62961">
        <ele>2191</ele>
        <time>2018-06-22T02:07:26Z</time>
      </trkpt>
      <trkpt lat="45.63647" lon="6.62944">
        <ele>2197</ele>
        <time>2018-06-22T02:08:26Z</time>
      </trkpt>
      <trkpt lat="45.63555" lon="6.62917">
        <ele>2207</ele>
        <time>2018-06-22T02:09:26Z</time>
      </trkpt>
      <trkpt lat="45.63518" lon="6.6288">
        <ele>2222</ele>
        <time>2018-06-22T02:10:26Z</time>
      </trkpt>
      <trkpt lat="45.63482" lon="6.62855">
        <ele>2230</ele>
        <time>2018-06-22T02:11:26Z</time>
      </trkpt>
      <trkpt lat="45.63447" lon="6.62801">
        <ele>2242</ele>
        <time>2018-06-22T02:12:26Z</time>
      </trkpt>
      <trkpt lat="45.63413" lon="6.62773">
        <ele>2246</ele>
        <time>2018-06-22T02:13:26Z</time>
      </trkpt>
      <trkpt lat="45.63383" lon="6.62711">
        <ele>2259</ele>
        <time>2018-06-22T02:14:26Z</time>
      </trkpt>
      <trkpt lat="45.63296" lon="6.62648">
        <ele>2284</ele>
        <time>2018-06-22T02:15:26Z</time>
      </trkpt>
      <trkpt lat="45.63266" lon="6.62633">
        <ele>2287</ele>
        <time>2018-06-22T02:16:26Z</time>
      </trkpt>
      <trkpt lat="45.6323" lon="6.62591">
        <ele>2296</ele>
        <time>2018-06-22T02:17:26Z</time>
      </trkpt>
      <trkpt lat="45.63146" lon="6.62528">
        <ele>2328</ele>
        <time>2018-06-22T02:18:26Z</time>
      </trkpt>
      <trkpt lat="45.63122" lon="6.62535">
        <ele>2332</ele>
        <time>2018-06-22T02:19:26Z</time>
      </trkpt>
      <trkpt lat="45.63059" lon="6.62585">
        <ele>2353</ele>
        <time>2018-06-22T02:20:26Z</time>
      </trkpt>
      <trkpt lat="45.6305" lon="6.62561">
        <ele>2364</ele>
        <time>2018-06-22T02:21:26Z</time>
      </trkpt>
      <trkpt lat="45.63059" lon="6.62519">
        <ele>2366</ele>
        <time>2018-06-22T02:22:26Z</time>
      </trkpt>
      <trkpt lat="45.63023" lon="6.62543">
        <ele>2372</ele>
        <time>2018-06-22T02:23:26Z</time>
      </trkpt>
      <trkpt lat="45.62997" lon="6.62527">
        <ele>2383</ele>
        <time>2018-06-22T02:24:26Z</time>
      </trkpt>
      <trkpt lat="45.62997" lon="6.62452">
        <ele>2376</ele>
        <time>2018-06-22T02:25:26Z</time>
      </trkpt>
      <trkpt lat="45.62967" lon="6.62507">
        <ele>2379</ele>
        <time>2018-06-22T02:26:26Z</time>
      </trkpt>
      <trkpt lat="45.62929" lon="6.62527">
        <ele>2374</ele>
        <time>2018-06-22T02:27:26Z</time>
      </trkpt>
      <trkpt lat="45.62901" lon="6.62516">
        <ele>2358</ele>
        <time>2018-06-22T02:28:26Z</time>
      </trkpt>
      <trkpt lat="45.6287" lon="6.62516">
        <ele>2353</ele>
        <time>2018-06-22T02:29:26Z</time>
      </trkpt>
      <trkpt lat="45.62907" lon="6.6241">
        <ele>2339</ele>
        <time>2018-06-22T02:30:26Z</time>
      </trkpt>
      <trkpt lat="45.62825" lon="6.62367">
        <ele>2303</ele>
        <time>2018-06-22T02:31:26Z</time>
      </trkpt>
      <trkpt lat="45.62784" lon="6.6235">
        <ele>2297</ele>
        <time>2018-06-22T02:32:26Z</time>
      </trkpt>
      <trkpt lat="45.62736" lon="6.6232">
        <ele>2279</ele>
        <time>2018-06-22T02:33:26Z</time>
      </trkpt>
      <trkpt lat="45.62728" lon="6.6227">
        <ele>2279</ele>
        <time>2018-06-22T02:34:26Z</time>
      </trkpt>
      <trkpt lat="45.62651" lon="6.62187">
        <ele>2257</ele>
        <time>2018-06-22T02:35:26Z</time>
      </trkpt>
      <trkpt lat="45.62617" lon="6.62099">
        <ele>2258</ele>
        <time>2018-06-22T02:36:26Z</time>
      </trkpt>
      <trkpt lat="45.62518" lon="6.6198">
        <ele>2248</ele>
        <time>2018-06-22T02:37:26Z</time>
      </trkpt>
      <trkpt lat="45.62446" lon="6.61863">
        <ele>2232</ele>
        <time>2018-06-22T02:38:26Z</time>
      </trkpt>
      <trkpt lat="45.62417" lon="6.61753">
        <ele>2220</ele>
        <time>2018-06-22T02:39:26Z</time>
      </trkpt>
      <trkpt lat="45.62399" lon="6.61722">
        <ele>2200</ele>
        <time>2018-06-22T02:40:26Z</time>
      </trkpt>
      <trkpt lat="45.62404" lon="6.61637">
        <ele>2186</ele>
        <time>2018-06-22T02:41:26Z</time>
      </trkpt>
      <trkpt lat="45.624" lon="6.61543">
        <ele>2176</ele>
        <time>2018-06-22T02:42:26Z</time>
      </trkpt>
      <trkpt lat="45.62379" lon="6.6147">
        <ele>2167</ele>
        <time>2018-06-22T02:43:26Z</time>
      </trkpt>
      <trkpt lat="45.62393" lon="6.61448">
        <ele>2169</ele>
        <time>2018-06-22T02:44:26Z</time>
      </trkpt>
      <trkpt lat="45.62389" lon="6.61348">
        <ele>2165</ele>
        <time>2018-06-22T02:45:26Z</time>
      </trkpt>
      <trkpt lat="45.62369" lon="6.61335">
        <ele>2161</ele>
        <time>2018-06-22T02:46:26Z</time>
      </trkpt>
      <trkpt lat="45.62314" lon="6.6136">
        <ele>2138</ele>
        <time>2018-06-22T02:47:26Z</time>
      </trkpt>
      <trkpt lat="45.6227" lon="6.61326">
        <ele>2135</ele>
        <time>2018-06-22T02:48:26Z</time>
      </trkpt>
      <trkpt lat="45.62224" lon="6.61311">
        <ele>2115</ele>
        <time>2018-06-22T02:49:26Z</time>
      </trkpt>
      <trkpt lat="45.62214" lon="6.61268">
        <ele>2116</ele>
        <time>2018-06-22T02:50:26Z</time>
      </trkpt>
      <trkpt lat="45.62145" lon="6.6114">
        <ele>2114</ele>
        <time>2018-06-22T02:51:26Z</time>
      </trkpt>
      <trkpt lat="45.62074" lon="6.61101">
        <ele>2085</ele>
        <time>2018-06-22T02:52:26Z</time>
      </trkpt>
      <trkpt lat="45.6196" lon="6.60981">
        <ele>2076</ele>
        <time>2018-06-22T02:53:26Z</time>
      </trkpt>
      <trkpt lat="45.61863" lon="6.6082">
        <ele>2074</ele>
        <time>2018-06-22T02:54:26Z</time>
      </trkpt>
      <trkpt lat="45.61848" lon="6.6082">
        <ele>2071</ele>
        <time>2018-06-22T02:55:26Z</time>
      </trkpt>
      <trkpt lat="45.61755" lon="6.60786">
        <ele>2073</ele>
        <time>2018-06-22T02:56:26Z</time>
      </trkpt>
      <trkpt lat="45.61819" lon="6.6071">
        <ele>2085</ele>
        <time>2018-06-22T02:57:26Z</time>
      </trkpt>
      <trkpt lat="45.61843" lon="6.60569">
        <ele>2107</ele>
        <time>2018-06-22T02:58:26Z</time>
      </trkpt>
      <trkpt lat="45.61794" lon="6.60511">
        <ele>2102</ele>
        <time>2018-06-22T02:59:26Z</time>
      </trkpt>
      <trkpt lat="45.61776" lon="6.60451">
        <ele>2104</ele>
        <time>2018-06-22T03:00:26Z</time>
      </trkpt>
      <trkpt lat="45.61743" lon="6.6038">
        <ele>2104</ele>
        <time>2018-06-22T03:01:26Z</time>
      </trkpt>
      <trkpt lat="45.6173" lon="6.60281">
        <ele>2103</ele>
        <time>2018-06-22T03:02:26Z</time>
      </trkpt>
      <trkpt lat="45.61634" lon="6.60353">
        <ele>2107</ele>
        <time>2018-06-22T03:03:26Z</time>
      </trkpt>
      <trkpt lat="45.61559" lon="6.60401">
        <ele>2118</ele>
        <time>2018-06-22T03:04:26Z</time>
      </trkpt>
      <trkpt lat="45.6148" lon="6.60346">
        <ele>2124</ele>
        <time>2018-06-22T03:05:26Z</time>
      </trkpt>
      <trkpt lat="45.61422" lon="6.60301">
        <ele>2127</ele>
        <time>2018-06-22T03:06:26Z</time>
      </trkpt>
      <trkpt lat="45.61366" lon="6.60241">
        <ele>2141</ele>
        <time>2018-06-22T03:07:26Z</time>
      </trkpt>
      <trkpt lat="45.61368" lon="6.60193">
        <ele>2141</ele>
        <time>2018-06-22T03:08:26Z</time>
      </trkpt>
      <trkpt lat="45.61332" lon="6.60148">
        <ele>2153</ele>
        <time>2018-06-22T03:09:26Z</time>
      </trkpt>
      <trkpt lat="45.61302" lon="6.60088">
        <ele>2158</ele>
        <time>2018-06-22T03:10:26Z</time>
      </trkpt>
      <trkpt lat="45.61239" lon="6.60043">
        <ele>2179</ele>
        <time>2018-06-22T03:11:26Z</time>
      </trkpt>
      <trkpt lat="45.61194" lon="6.59994">
        <ele>2193</ele>
        <time>2018-06-22T03:12:26Z</time>
      </trkpt>
      <trkpt lat="45.61152" lon="6.59893">
        <ele>2207</ele>
        <time>2018-06-22T03:13:26Z</time>
      </trkpt>
      <trkpt lat="45.61161" lon="6.59863">
        <ele>2210</ele>
        <time>2018-06-22T03:14:26Z</time>
      </trkpt>
      <trkpt lat="45.61129" lon="6.59799">
        <ele>2223</ele>
        <time>2018-06-22T03:15:26Z</time>
      </trkpt>
      <trkpt lat="45.61077" lon="6.59696">
        <ele>2240</ele>
        <time>2018-06-22T03:16:26Z</time>
      </trkpt>
      <trkpt lat="45.61096" lon="6.59638">
        <ele>2259</ele>
        <time>2018-06-22T03:17:26Z</time>
      </trkpt>
      <trkpt lat="45.61122" lon="6.59573">
        <ele>2273</ele>
        <time>2018-06-22T03:18:26Z</time>
      </trkpt>
      <trkpt lat="45.61152" lon="6.59535">
        <ele>2276</ele>
        <time>2018-06-22T03:19:26Z</time>
      </trkpt>
      <trkpt lat="45.61182" lon="6.59468">
        <ele>2276</ele>
        <time>2018-06-22T03:20:26Z</time>
      </trkpt>
      <trkpt lat="45.61171" lon="6.59421">
        <ele>2284</ele>
        <time>2018-06-22T03:21:26Z</time>
      </trkpt>
      <trkpt lat="45.61189" lon="6.59406">
        <ele>2285</ele>
        <time>2018-06-22T03:22:26Z</time>
      </trkpt>
      <trkpt lat="45.61149" lon="6.59288">
        <ele>2307</ele>
        <time>2018-06-22T03:23:26Z</time>
      </trkpt>
      <trkpt lat="45.61099" lon="6.59316">
        <ele>2308</ele>
        <time>2018-06-22T03:24:26Z</time>
      </trkpt>
      <trkpt lat="45.61075" lon="6.59247">
        <ele>2320</ele>
        <time>2018-06-22T03:25:26Z</time>
      </trkpt>
      <trkpt lat="45.60988" lon="6.59221">
        <ele>2336</ele>
        <time>2018-06-22T03:26:26Z</time>
      </trkpt>
      <trkpt lat="45.60979" lon="6.59178">
        <ele>2340</ele>
        <time>2018-06-22T03:27:26Z</time>
      </trkpt>
      <trkpt lat="45.60892" lon="6.59142">
        <ele>2345</ele>
        <time>2018-06-22T03:28:26Z</time>
      </trkpt>
      <trkpt lat="45.60813" lon="6.59088">
        <ele>2341</ele>
        <time>2018-06-22T03:29:26Z</time>
      </trkpt>
      <trkpt lat="45.60707" lon="6.5902">
        <ele>2346</ele>
        <time>2018-06-22T03:30:26Z</time>
      </trkpt>
      <trkpt lat="45.60607" lon="6.58953">
        <ele>2351</ele>
        <time>2018-06-22T03:31:26Z</time>
      </trkpt>
      <trkpt lat="45.60539" lon="6.5899">
        <ele>2348</ele>
        <time>2018-06-22T03:32:26Z</time>
      </trkpt>
      <trkpt lat="45.60371" lon="6.58979">
        <ele>2340</ele>
        <time>2018-06-22T03:33:26Z</time>
      </trkpt>
      <trkpt lat="45.60248" lon="6.58887">
        <ele>2332</ele>
        <time>2018-06-22T03:34:26Z</time>
      </trkpt>
      <trkpt lat="45.60191" lon="6.58831">
        <ele>2321</ele>
        <time>2018-06-22T03:35:26Z</time>
      </trkpt>
      <trkpt lat="45.60125" lon="6.58756">
        <ele>2326</ele>
        <time>2018-06-22T03:36:26Z</time>
      </trkpt>
      <trkpt lat="45.60042" lon="6.58668">
        <ele>2327</ele>
        <time>2018-06-22T03:37:26Z</time>
      </trkpt>
      <trkpt lat="45.59999" lon="6.5856">
        <ele>2331</ele>
        <time>2018-06-22T03:38:26Z</time>
      </trkpt>
      <trkpt lat="45.5994" lon="6.58522">
        <ele>2338</ele>
        <time>2018-06-22T03:39:26Z</time>
      </trkpt>
      <trkpt lat="45.59868" lon="6.58466">
        <ele>2346</ele>
        <time>2018-06-22T03:40:26Z</time>
      </trkpt>
      <trkpt lat="45.59804" lon="6.58389">
        <ele>2352</ele>
        <time>2018-06-22T03:41:26Z</time>
      </trkpt>
      <trkpt lat="45.59748" lon="6.58251">
        <ele>2357</ele>
        <time>2018-06-22T03:42:26Z</time>
      </trkpt>
      <trkpt lat="45.59712" lon="6.58245">
        <ele>2353</ele>
        <time>2018-06-22T03:43:26Z</time>
      </trkpt>
      <trkpt lat="45.59682" lon="6.58221">
        <ele>2350</ele>
        <time>2018-06-22T03:44:26Z</time>
      </trkpt>
      <trkpt lat="45.59607" lon="6.58163">
        <ele>2340</ele>
        <time>2018-06-22T03:45:26Z</time>
      </trkpt>
      <trkpt lat="45.59544" lon="6.58099">
        <ele>2324</ele>
        <time>2018-06-22T03:46:26Z</time>
      </trkpt>
      <trkpt lat="45.59514" lon="6.5802">
        <ele>2319</ele>
        <time>2018-06-22T03:47:26Z</time>
      </trkpt>
      <trkpt lat="45.59499" lon="6.57959">
        <ele>2306</ele>
        <time>2018-06-22T03:48:26Z</time>
      </trkpt>
      <trkpt lat="45.59499" lon="6.57893">
        <ele>2304</ele>
        <time>2018-06-22T03:49:26Z</time>
      </trkpt>
      <trkpt lat="45.59514" lon="6.57824">
        <ele>2288</ele>
        <time>2018-06-22T03:50:26Z</time>
      </trkpt>
      <trkpt lat="45.59487" lon="6.57745">
        <ele>2284</ele>
        <time>2018-06-22T03:51:26Z</time>
      </trkpt>
      <trkpt lat="45.5946" lon="6.5765">
        <ele>2264</ele>
        <time>2018-06-22T03:52:26Z</time>
      </trkpt>
      <trkpt lat="45.59428" lon="6.57546">
        <ele>2248</ele>
        <time>2018-06-22T03:53:26Z</time>
      </trkpt>
      <trkpt lat="45.59357" lon="6.57469">
        <ele>2243</ele>
        <time>2018-06-22T03:54:26Z</time>
      </trkpt>
      <trkpt lat="45.59232" lon="6.57451">
        <ele>2249</ele>
        <time>2018-06-22T03:55:26Z</time>
      </trkpt>
      <trkpt lat="45.59207" lon="6.57408">
        <ele>2238</ele>
        <time>2018-06-22T03:56:26Z</time>
      </trkpt>
      <trkpt lat="45.59123" lon="6.57298">
        <ele>2238</ele>
        <time>2018-06-22T03:57:26Z</time>
      </trkpt>
      <trkpt lat="45.59093" lon="6.5716">
        <ele>2229</ele>
        <time>2018-06-22T03:58:26Z</time>
      </trkpt>
      <trkpt lat="45.59107" lon="6.57053">
        <ele>2230</ele>
        <time>2018-06-22T03:59:26Z</time>
      </trkpt>
      <trkpt lat="45.59132" lon="6.56992">
        <ele>2231</ele>
        <time>2018-06-22T04:00:26Z</time>
      </trkpt>
      <trkpt lat="45.59107" lon="6.56877">
        <ele>2235</ele>
        <time>2018-06-22T04:01:26Z</time>
      </trkpt>
      <trkpt lat="45.59055" lon="6.56809">
        <ele>2234</ele>
        <time>2018-06-22T04:02:26Z</time>
      </trkpt>
      <trkpt lat="45.59054" lon="6.56766">
        <ele>2235</ele>
        <time>2018-06-22T04:03:26Z</time>
      </trkpt>
      <trkpt lat="45.59003" lon="6.56693">
        <ele>2223</ele>
        <time>2018-06-22T04:04:26Z</time>
      </trkpt>
      <trkpt lat="45.58997" lon="6.56705">
        <ele>2213</ele>
        <time>2018-06-22T04:05:26Z</time>
      </trkpt>
      <trkpt lat="45.58988" lon="6.56692">
        <ele>2212</ele>
        <time>2018-06-22T04:06:26Z</time>
      </trkpt>
      <trkpt lat="45.5898" lon="6.56709">
        <ele>2212</ele>
        <time>2018-06-22T04:07:26Z</time>
      </trkpt>
      <trkpt lat="45.58974" lon="6.56696">
        <ele>2211</ele>
        <time>2018-06-22T04:08:26Z</time>
      </trkpt>
      <trkpt lat="45.58969" lon="6.56726">
        <ele>2212</ele>
        <time>2018-06-22T04:09:26Z</time>
      </trkpt>
      <trkpt lat="45.58938" lon="6.56699">
        <ele>2207</ele>
        <time>2018-06-22T04:10:26Z</time>
      </trkpt>
      <trkpt lat="45.58901" lon="6.56648">
        <ele>2190</ele>
        <time>2018-06-22T04:11:26Z</time>
      </trkpt>
      <trkpt lat="45.58851" lon="6.56562">
        <ele>2178</ele>
        <time>2018-06-22T04:12:26Z</time>
      </trkpt>
      <trkpt lat="45.5882" lon="6.5659">
        <ele>2177</ele>
        <time>2018-06-22T04:13:26Z</time>
      </trkpt>
      <trkpt lat="45.58745" lon="6.56602">
        <ele>2171</ele>
        <time>2018-06-22T04:14:26Z</time>
      </trkpt>
      <trkpt lat="45.58679" lon="6.56539">
        <ele>2160</ele>
        <time>2018-06-22T04:15:26Z</time>
      </trkpt>
      <trkpt lat="45.58632" lon="6.56505">
        <ele>2154</ele>
        <time>2018-06-22T04:16:26Z</time>
      </trkpt>
      <trkpt lat="45.58537" lon="6.56431">
        <ele>2136</ele>
        <time>2018-06-22T04:17:26Z</time>
      </trkpt>
      <trkpt lat="45.58501" lon="6.56417">
        <ele>2128</ele>
        <time>2018-06-22T04:18:26Z</time>
      </trkpt>
      <trkpt lat="45.58459" lon="6.56409">
        <ele>2119</ele>
        <time>2018-06-22T04:19:26Z</time>
      </trkpt>
      <trkpt lat="45.58427" lon="6.56457">
        <ele>2125</ele>
        <time>2018-06-22T04:20:26Z</time>
      </trkpt>
      <trkpt lat="45.58392" lon="6.56414">
        <ele>2111</ele>
        <time>2018-06-22T04:21:26Z</time>
      </trkpt>
      <trkpt lat="45.58349" lon="6.56349">
        <ele>2103</ele>
        <time>2018-06-22T04:22:26Z</time>
      </trkpt>
      <trkpt lat="45.58334" lon="6.56276">
        <ele>2092</ele>
        <time>2018-06-22T04:23:26Z</time>
      </trkpt>
      <trkpt lat="45.58379" lon="6.56245">
        <ele>2088</ele>
        <time>2018-06-22T04:24:26Z</time>
      </trkpt>
      <trkpt lat="45.58429" lon="6.56225">
        <ele>2096</ele>
        <time>2018-06-22T04:25:26Z</time>
      </trkpt>
      <trkpt lat="45.58418" lon="6.56198">
        <ele>2096</ele>
        <time>2018-06-22T04:26:26Z</time>
      </trkpt>
      <trkpt lat="45.58352" lon="6.56134">
        <ele>2084</ele>
        <time>2018-06-22T04:27:26Z</time>
      </trkpt>
      <trkpt lat="45.58334" lon="6.56104">
        <ele>2083</ele>
        <time>2018-06-22T04:28:26Z</time>
      </trkpt>
      <trkpt lat="45.58302" lon="6.56096">
        <ele>2075</ele>
        <time>2018-06-22T04:29:26Z</time>
      </trkpt>
      <trkpt lat="45.58236" lon="6.56008">
        <ele>2067</ele>
        <time>2018-06-22T04:30:26Z</time>
      </trkpt>
      <trkpt lat="45.58075" lon="6.55959">
        <ele>2038</ele>
        <time>2018-06-22T04:31:26Z</time>
      </trkpt>
      <trkpt lat="45.58057" lon="6.55896">
        <ele>2031</ele>
        <time>2018-06-22T04:32:26Z</time>
      </trkpt>
      <trkpt lat="45.58071" lon="6.55861">
        <ele>2030</ele>
        <time>2018-06-22T04:33:26Z</time>
      </trkpt>
      <trkpt lat="45.58028" lon="6.55761">
        <ele>2020</ele>
        <time>2018-06-22T04:34:26Z</time>
      </trkpt>
      <trkpt lat="45.58039" lon="6.5571">
        <ele>2016</ele>
        <time>2018-06-22T04:35:26Z</time>
      </trkpt>
      <trkpt lat="45.58032" lon="6.55673">
        <ele>2014</ele>
        <time>2018-06-22T04:36:26Z</time>
      </trkpt>
      <trkpt lat="45.57994" lon="6.55618">
        <ele>2003</ele>
        <time>2018-06-22T04:37:26Z</time>
      </trkpt>
      <trkpt lat="45.57977" lon="6.55553">
        <ele>1993</ele>
        <time>2018-06-22T04:38:26Z</time>
      </trkpt>
      <trkpt lat="45.57944" lon="6.55523">
        <ele>1991</ele>
        <time>2018-06-22T04:39:26Z</time>
      </trkpt>
      <trkpt lat="45.57914" lon="6.55538">
        <ele>1991</ele>
        <time>2018-06-22T04:40:26Z</time>
      </trkpt>
      <trkpt lat="45.57863" lon="6.55449">
        <ele>1974</ele>
        <time>2018-06-22T04:41:26Z</time>
      </trkpt>
      <trkpt lat="45.57829" lon="6.55381">
        <ele>1952</ele>
        <time>2018-06-22T04:42:26Z</time>
      </trkpt>
      <trkpt lat="45.57795" lon="6.55371">
        <ele>1949</ele>
        <time>2018-06-22T04:43:26Z</time>
      </trkpt>
      <trkpt lat="45.57775" lon="6.55399">
        <ele>1951</ele>
        <time>2018-06-22T04:44:26Z</time>
      </trkpt>
      <trkpt lat="45.57724" lon="6.55458">
        <ele>1961</ele>
        <time>2018-06-22T04:45:26Z</time>
      </trkpt>
      <trkpt lat="45.57719" lon="6.55357">
        <ele>1941</ele>
        <time>2018-06-22T04:46:26Z</time>
      </trkpt>
      <trkpt lat="45.57698" lon="6.55365">
        <ele>1942</ele>
        <time>2018-06-22T04:47:26Z</time>
      </trkpt>
      <trkpt lat="45.57669" lon="6.55347">
        <ele>1937</ele>
        <time>2018-06-22T04:48:26Z</time>
      </trkpt>
      <trkpt lat="45.57639" lon="6.55316">
        <ele>1932</ele>
        <time>2018-06-22T04:49:26Z</time>
      </trkpt>
      <trkpt lat="45.57643" lon="6.55247">
        <ele>1915</ele>
        <time>2018-06-22T04:50:26Z</time>
      </trkpt>
      <trkpt lat="45.57621" lon="6.55207">
        <ele>1913</ele>
        <time>2018-06-22T04:51:26Z</time>
      </trkpt>
      <trkpt lat="45.57584" lon="6.55208">
        <ele>1914</ele>
        <time>2018-06-22T04:52:26Z</time>
      </trkpt>
      <trkpt lat="45.57594" lon="6.55189">
        <ele>1910</ele>
        <time>2018-06-22T04:53:26Z</time>
      </trkpt>
      <trkpt lat="45.57597" lon="6.55141">
        <ele>1897</ele>
        <time>2018-06-22T04:54:26Z</time>
      </trkpt>
      <trkpt lat="45.57534" lon="6.55065">
        <ele>1880</ele>
        <time>2018-06-22T04:55:26Z</time>
      </trkpt>
      <trkpt lat="45.57491" lon="6.54966">
        <ele>1863</ele>
        <time>2018-06-22T04:56:26Z</time>
      </trkpt>
      <trkpt lat="45.57451" lon="6.54865">
        <ele>1841</ele>
        <time>2018-06-22T04:57:26Z</time>
      </trkpt>
      <trkpt lat="45.57413" lon="6.54837">
        <ele>1835</ele>
        <time>2018-06-22T04:58:26Z</time>
      </trkpt>
      <trkpt lat="45.57449" lon="6.5482">
        <ele>1826</ele>
        <time>2018-06-22T04:59:26Z</time>
      </trkpt>
      <trkpt lat="45.57484" lon="6.54788">
        <ele>1823</ele>
        <time>2018-06-22T05:00:26Z</time>
      </trkpt>
      <trkpt lat="45.57442" lon="6.54754">
        <ele>1820</ele>
        <time>2018-06-22T05:01:26Z</time>
      </trkpt>
      <trkpt lat="45.57396" lon="6.54663">
        <ele>1800</ele>
        <time>2018-06-22T05:02:26Z</time>
      </trkpt>
      <trkpt lat="45.5738" lon="6.54597">
        <ele>1796</ele>
        <time>2018-06-22T05:03:26Z</time>
      </trkpt>
      <trkpt lat="45.5731" lon="6.54563">
        <ele>1788</ele>
        <time>2018-06-22T05:04:26Z</time>
      </trkpt>
      <trkpt lat="45.57255" lon="6.54558">
        <ele>1790</ele>
        <time>2018-06-22T05:05:26Z</time>
      </trkpt>
      <trkpt lat="45.57193" lon="6.54479">
        <ele>1775</ele>
        <time>2018-06-22T05:06:26Z</time>
      </trkpt>
      <trkpt lat="45.57186" lon="6.54449">
        <ele>1772</ele>
        <time>2018-06-22T05:07:26Z</time>
      </trkpt>
      <trkpt lat="45.57129" lon="6.54401">
        <ele>1756</ele>
        <time>2018-06-22T05:08:26Z</time>
      </trkpt>
      <trkpt lat="45.5706" lon="6.54335">
        <ele>1743</ele>
        <time>2018-06-22T05:09:26Z</time>
      </trkpt>
      <trkpt lat="45.57009" lon="6.54276">
        <ele>1722</ele>
        <time>2018-06-22T05:10:26Z</time>
      </trkpt>
      <trkpt lat="45.56947" lon="6.54265">
        <ele>1711</ele>
        <time>2018-06-22T05:11:26Z</time>
      </trkpt>
      <trkpt lat="45.56908" lon="6.54236">
        <ele>1696</ele>
        <time>2018-06-22T05:12:26Z</time>
      </trkpt>
      <trkpt lat="45.56874" lon="6.54218">
        <ele>1690</ele>
        <time>2018-06-22T05:13:26Z</time>
      </trkpt>
      <trkpt lat="45.56836" lon="6.54187">
        <ele>1685</ele>
        <time>2018-06-22T05:14:26Z</time>
      </trkpt>
      <trkpt lat="45.56796" lon="6.5411">
        <ele>1667</ele>
        <time>2018-06-22T05:15:26Z</time>
      </trkpt>
      <trkpt lat="45.56752" lon="6.54119">
        <ele>1665</ele>
        <time>2018-06-22T05:16:26Z</time>
      </trkpt>
      <trkpt lat="45.56736" lon="6.54089">
        <ele>1657</ele>
        <time>2018-06-22T05:17:26Z</time>
      </trkpt>
      <trkpt lat="45.56707" lon="6.54043">
        <ele>1647</ele>
        <time>2018-06-22T05:18:26Z</time>
      </trkpt>
      <trkpt lat="45.56685" lon="6.53987">
        <ele>1634</ele>
        <time>2018-06-22T05:19:26Z</time>
      </trkpt>
      <trkpt lat="45.56667" lon="6.53935">
        <ele>1624</ele>
        <time>2018-06-22T05:20:26Z</time>
      </trkpt>
      <trkpt lat="45.56625" lon="6.53905">
        <ele>1609</ele>
        <time>2018-06-22T05:21:26Z</time>
      </trkpt>
      <trkpt lat="45.56544" lon="6.53854">
        <ele>1603</ele>
        <time>2018-06-22T05:22:26Z</time>
      </trkpt>
      <trkpt lat="45.56516" lon="6.53861">
        <ele>1603</ele>
        <time>2018-06-22T05:23:26Z</time>
      </trkpt>
      <trkpt lat="45.56479" lon="6.53733">
        <ele>1567</ele>
        <time>2018-06-22T05:24:26Z</time>
      </trkpt>
      <trkpt lat="45.56463" lon="6.53677">
        <ele>1563</ele>
        <time>2018-06-22T05:25:26Z</time>
      </trkpt>
      <trkpt lat="45.56468" lon="6.53646">
        <ele>1549</ele>
        <time>2018-06-22T05:26:26Z</time>
      </trkpt>
      <trkpt lat="45.56461" lon="6.53552">
        <ele>1531</ele>
        <time>2018-06-22T05:27:26Z</time>
      </trkpt>
      <trkpt lat="45.5642" lon="6.53447">
        <ele>1513</ele>
        <time>2018-06-22T05:28:26Z</time>
      </trkpt>
      <trkpt lat="45.56418" lon="6.53429">
        <ele>1511</ele>
        <time>2018-06-22T05:29:26Z</time>
      </trkpt>
      <trkpt lat="45.56396" lon="6.53408">
        <ele>1511</ele>
        <time>2018-06-22T05:30:26Z</time>
      </trkpt>
      <trkpt lat="45.5639" lon="6.53365">
        <ele>1508</ele>
        <time>2018-06-22T05:31:26Z</time>
      </trkpt>
      <trkpt lat="45.56379" lon="6.53252">
        <ele>1490</ele>
        <time>2018-06-22T05:32:26Z</time>
      </trkpt>
      <trkpt lat="45.56343" lon="6.53185">
        <ele>1474</ele>
        <time>2018-06-22T05:33:26Z</time>
      </trkpt>
      <trkpt lat="45.56345" lon="6.53157">
        <ele>1464</ele>
        <time>2018-06-22T05:34:26Z</time>
      </trkpt>
      <trkpt lat="45.56303" lon="6.53095">
        <ele>1464</ele>
        <time>2018-06-22T05:35:26Z</time>
      </trkpt>
      <trkpt lat="45.56251" lon="6.53053">
        <ele>1449</ele>
        <time>2018-06-22T05:36:26Z</time>
      </trkpt>
      <trkpt lat="45.56221" lon="6.52992">
        <ele>1436</ele>
        <time>2018-06-22T05:37:26Z</time>
      </trkpt>
      <trkpt lat="45.56191" lon="6.52925">
        <ele>1429</ele>
        <time>2018-06-22T05:38:26Z</time>
      </trkpt>
      <trkpt lat="45.56151" lon="6.52869">
        <ele>1412</ele>
        <time>2018-06-22T05:39:26Z</time>
      </trkpt>
      <trkpt lat="45.56118" lon="6.5283">
        <ele>1395</ele>
        <time>2018-06-22T05:40:26Z</time>
      </trkpt>
      <trkpt lat="45.5609" lon="6.52765">
        <ele>1387</ele>
        <time>2018-06-22T05:41:26Z</time>
      </trkpt>
      <trkpt lat="45.56036" lon="6.52684">
        <ele>1379</ele>
        <time>2018-06-22T05:42:26Z</time>
      </trkpt>
      <trkpt lat="45.55997" lon="6.52639">
        <ele>1371</ele>
        <time>2018-06-22T05:43:26Z</time>
      </trkpt>
      <trkpt lat="45.55977" lon="6.526">
        <ele>1365</ele>
        <time>2018-06-22T05:44:26Z</time>
      </trkpt>
      <trkpt lat="45.55928" lon="6.52494">
        <ele>1341</ele>
        <time>2018-06-22T05:45:26Z</time>
      </trkpt>
      <trkpt lat="45.55913" lon="6.52407">
        <ele>1330</ele>
        <time>2018-06-22T05:46:26Z</time>
      </trkpt>
      <trkpt lat="45.55901" lon="6.52395">
        <ele>1329</ele>
        <time>2018-06-22T05:47:26Z</time>
      </trkpt>
      <trkpt lat="45.55909" lon="6.52352">
        <ele>1325</ele>
        <time>2018-06-22T05:48:26Z</time>
      </trkpt>
      <trkpt lat="45.55933" lon="6.52339">
        <ele>1325</ele>
        <time>2018-06-22T05:49:26Z</time>
      </trkpt>
      <trkpt lat="45.55941" lon="6.52323">
        <ele>1324</ele>
        <time>2018-06-22T05:50:26Z</time>
      </trkpt>
      <trkpt lat="45.559" lon="6.52292">
        <ele>1318</ele>
        <time>2018-06-22T05:51:26Z</time>
      </trkpt>
      <trkpt lat="45.55882" lon="6.52258">
        <ele>1317</ele>
        <time>2018-06-22T05:52:26Z</time>
      </trkpt>
      <trkpt lat="45.55886" lon="6.52214">
        <ele>1312</ele>
        <time>2018-06-22T05:53:26Z</time>
      </trkpt>
      <trkpt lat="45.55837" lon="6.52187">
        <ele>1308</ele>
        <time>2018-06-22T05:54:26Z</time>
      </trkpt>
      <trkpt lat="45.55798" lon="6.5217">
        <ele>1309</ele>
        <time>2018-06-22T05:55:26Z</time>
      </trkpt>
      <trkpt lat="45.55789" lon="6.52151">
        <ele>1302</ele>
        <time>2018-06-22T05:56:26Z</time>
      </trkpt>
      <trkpt lat="45.55795" lon="6.52136">
        <ele>1301</ele>
        <time>2018-06-22T05:57:26Z</time>
      </trkpt>
      <trkpt lat="45.55771" lon="6.52045">
        <ele>1291</ele>
        <time>2018-06-22T05:58:26Z</time>
      </trkpt>
      <trkpt lat="45.55752" lon="6.52028">
        <ele>1289</ele>
        <time>2018-06-22T05:59:26Z</time>
      </trkpt>
      <trkpt lat="45.55729" lon="6.51905">
        <ele>1276</ele>
        <time>2018-06-22T06:00:26Z</time>
      </trkpt>
      <trkpt lat="45.55711" lon="6.51888">
        <ele>1276</ele>
        <time>2018-06-22T06:01:26Z</time>
      </trkpt>
      <trkpt lat="45.55689" lon="6.51823">
        <ele>1271</ele>
        <time>2018-06-22T06:02:26Z</time>
      </trkpt>
      <trkpt lat="45.55699" lon="6.51772">
        <ele>1268</ele>
        <time>2018-06-22T06:03:26Z</time>
      </trkpt>
      <trkpt lat="45.55687" lon="6.51716">
        <ele>1263</ele>
        <time>2018-06-22T06:04:26Z</time>
      </trkpt>
      <trkpt lat="45.55629" lon="6.51671">
        <ele>1268</ele>
        <time>2018-06-22T06:05:26Z</time>
      </trkpt>
      <trkpt lat="45.55605" lon="6.51625">
        <ele>1260</ele>
        <time>2018-06-22T06:06:26Z</time>
      </trkpt>
      <trkpt lat="45.55563" lon="6.51562">
        <ele>1256</ele>
        <time>2018-06-22T06:07:26Z</time>
      </trkpt>
      <trkpt lat="45.555" lon="6.51507">
        <ele>1253</ele>
        <time>2018-06-22T06:08:26Z</time>
      </trkpt>
      <trkpt lat="45.55442" lon="6.51445">
        <ele>1249</ele>
        <time>2018-06-22T06:09:26Z</time>
      </trkpt>
      <trkpt lat="45.5541" lon="6.51358">
        <ele>1239</ele>
        <time>2018-06-22T06:10:26Z</time>
      </trkpt>
      <trkpt lat="45.55367" lon="6.51338">
        <ele>1241</ele>
        <time>2018-06-22T06:11:26Z</time>
      </trkpt>
      <trkpt lat="45.55342" lon="6.51243">
        <ele>1222</ele>
        <time>2018-06-22T06:12:26Z</time>
      </trkpt>
      <trkpt lat="45.55313" lon="6.51297">
        <ele>1224</ele>
        <time>2018-06-22T06:13:26Z</time>
      </trkpt>
      <trkpt lat="45.5527" lon="6.51315">
        <ele>1219</ele>
        <time>2018-06-22T06:14:26Z</time>
      </trkpt>
      <trkpt lat="45.55209" lon="6.51388">
        <ele>1214</ele>
        <time>2018-06-22T06:15:26Z</time>
      </trkpt>
      <trkpt lat="45.55174" lon="6.51461">
        <ele>1225</ele>
        <time>2018-06-22T06:16:26Z</time>
      </trkpt>
      <trkpt lat="45.55206" lon="6.51349">
        <ele>1210</ele>
        <time>2018-06-22T06:17:26Z</time>
      </trkpt>
      <trkpt lat="45.55238" lon="6.5125">
        <ele>1199</ele>
        <time>2018-06-22T06:18:26Z</time>
      </trkpt>
      <trkpt lat="45.55262" lon="6.51154">
        <ele>1192</ele>
        <time>2018-06-22T06:19:26Z</time>
      </trkpt>
      <trkpt lat="45.55179" lon="6.51175">
        <ele>1184</ele>
        <time>2018-06-22T06:20:26Z</time>
      </trkpt>
      <trkpt lat="45.55203" lon="6.51059">
        <ele>1170</ele>
        <time>2018-06-22T06:21:26Z</time>
      </trkpt>
      <trkpt lat="45.55227" lon="6.51051">
        <ele>1170</ele>
        <time>2018-06-22T06:22:26Z</time>
      </trkpt>
      <trkpt lat="45.55294" lon="6.51037">
        <ele>1173</ele>
        <time>2018-06-22T06:23:26Z</time>
      </trkpt>
      <trkpt lat="45.55385" lon="6.51027">
        <ele>1185</ele>
        <time>2018-06-22T06:24:26Z</time>
      </trkpt>
      <trkpt lat="45.55351" lon="6.50924">
        <ele>1182</ele>
        <time>2018-06-22T06:25:26Z</time>
      </trkpt>
      <trkpt lat="45.55314" lon="6.50837">
        <ele>1181</ele>
        <time>2018-06-22T06:26:26Z</time>
      </trkpt>
      <trkpt lat="45.55292" lon="6.50792">
        <ele>1184</ele>
        <time>2018-06-22T06:27:26Z</time>
      </trkpt>
      <trkpt lat="45.55291" lon="6.50709">
        <ele>1193</ele>
        <time>2018-06-22T06:28:26Z</time>
      </trkpt>
      <trkpt lat="45.55283" lon="6.5065">
        <ele>1199</ele>
        <time>2018-06-22T06:29:26Z</time>
      </trkpt>
      <trkpt lat="45.5528" lon="6.50558">
        <ele>1213</ele>
        <time>2018-06-22T06:30:26Z</time>
      </trkpt>
      <trkpt lat="45.55249" lon="6.5045">
        <ele>1215</ele>
        <time>2018-06-22T06:31:26Z</time>
      </trkpt>
      <trkpt lat="45.55179" lon="6.50451">
        <ele>1210</ele>
        <time>2018-06-22T06:32:26Z</time>
      </trkpt>
      <trkpt lat="45.55155" lon="6.50391">
        <ele>1208</ele>
        <time>2018-06-22T06:33:26Z</time>
      </trkpt>
      <trkpt lat="45.55113" lon="6.50341">
        <ele>1205</ele>
        <time>2018-06-22T06:34:26Z</time>
      </trkpt>
      <trkpt lat="45.55077" lon="6.50338">
        <ele>1198</ele>
        <time>2018-06-22T06:35:26Z</time>
      </trkpt>
      <trkpt lat="45.55043" lon="6.5027">
        <ele>1199</ele>
        <time>2018-06-22T06:36:26Z</time>
      </trkpt>
      <trkpt lat="45.54963" lon="6.50227">
        <ele>1192</ele>
        <time>2018-06-22T06:37:26Z</time>
      </trkpt>
      <trkpt lat="45.54903" lon="6.50154">
        <ele>1177</ele>
        <time>2018-06-22T06:38:26Z</time>
      </trkpt>
      <trkpt lat="45.54841" lon="6.50053">
        <ele>1174</ele>
        <time>2018-06-22T06:39:26Z</time>
      </trkpt>
      <trkpt lat="45.54806" lon="6.50014">
        <ele>1152</ele>
        <time>2018-06-22T06:40:26Z</time>
      </trkpt>
      <trkpt lat="45.54773" lon="6.49935">
        <ele>1155</ele>
        <time>2018-06-22T06:41:26Z</time>
      </trkpt>
      <trkpt lat="45.54738" lon="6.49884">
        <ele>1146</ele>
        <time>2018-06-22T06:42:26Z</time>
      </trkpt>
      <trkpt lat="45.54704" lon="6.49858">
        <ele>1145</ele>
        <time>2018-06-22T06:43:26Z</time>
      </trkpt>
      <trkpt lat="45.54636" lon="6.49858">
        <ele>1128</ele>
        <time>2018-06-22T06:44:26Z</time>
      </trkpt>
      <trkpt lat="45.54566" lon="6.49843">
        <ele>1121</ele>
        <time>2018-06-22T06:45:26Z</time>
      </trkpt>
      <trkpt lat="45.54497" lon="6.49846">
        <ele>1109</ele>
        <time>2018-06-22T06:46:26Z</time>
      </trkpt>
      <trkpt lat="45.54447" lon="6.49854">
        <ele>1096</ele>
        <time>2018-06-22T06:47:26Z</time>
      </trkpt>
      <trkpt lat="45.54409" lon="6.49807">
        <ele>1092</ele>
        <time>2018-06-22T06:48:26Z</time>
      </trkpt>
      <trkpt lat="45.54353" lon="6.49777">
        <ele>1086</ele>
        <time>2018-06-22T06:49:26Z</time>
      </trkpt>
      <trkpt lat="45.54291" lon="6.49732">
        <ele>1069</ele>
        <time>2018-06-22T06:50:26Z</time>
      </trkpt>
      <trkpt lat="45.54212" lon="6.49645">
        <ele>1046</ele>
        <time>2018-06-22T06:51:26Z</time>
      </trkpt>
      <trkpt lat="45.5414" lon="6.4956">
        <ele>1024</ele>
        <time>2018-06-22T06:52:26Z</time>
      </trkpt>
      <trkpt lat="45.54085" lon="6.49483">
        <ele>1022</ele>
        <time>2018-06-22T06:53:26Z</time>
      </trkpt>
      <trkpt lat="45.54014" lon="6.49429">
        <ele>1009</ele>
        <time>2018-06-22T06:54:26Z</time>
      </trkpt>
      <trkpt lat="45.53968" lon="6.49348">
        <ele>1008</ele>
        <time>2018-06-22T06:55:26Z</time>
      </trkpt>
      <trkpt lat="45.53962" lon="6.49307">
        <ele>1016</ele>
        <time>2018-06-22T06:56:26Z</time>
      </trkpt>
      <trkpt lat="45.53947" lon="6.49214">
        <ele>1037</ele>
        <time>2018-06-22T06:57:26Z</time>
      </trkpt>
      <trkpt lat="45.53925" lon="6.49142">
        <ele>1064</ele>
        <time>2018-06-22T06:58:26Z</time>
      </trkpt>
      <trkpt lat="45.53858" lon="6.4908">
        <ele>1076</ele>
        <time>2018-06-22T06:59:26Z</time>
      </trkpt>
      <trkpt lat="45.53764" lon="6.4899">
        <ele>1094</ele>
        <time>2018-06-22T07:00:26Z</time>
      </trkpt>
      <trkpt lat="45.53726" lon="6.48921">
        <ele>1091</ele>
        <time>2018-06-22T07:01:26Z</time>
      </trkpt>
      <trkpt lat="45.53667" lon="6.48756">
        <ele>1128</ele>
        <time>2018-06-22T07:02:26Z</time>
      </trkpt>
      <trkpt lat="45.53635" lon="6.48656">
        <ele>1137</ele>
        <time>2018-06-22T07:03:26Z</time>
      </trkpt>
      <trkpt lat="45.53605" lon="6.4854">
        <ele>1146</ele>
        <time>2018-06-22T07:04:26Z</time>
      </trkpt>
      <trkpt lat="45.5362" lon="6.48504">
        <ele>1151</ele>
        <time>2018-06-22T07:05:26Z</time>
      </trkpt>
      <trkpt lat="45.53632" lon="6.48458">
        <ele>1149</ele>
        <time>2018-06-22T07:06:26Z</time>
      </trkpt>
      <trkpt lat="45.53662" lon="6.48467">
        <ele>1157</ele>
        <time>2018-06-22T07:07:26Z</time>
      </trkpt>
      <trkpt lat="45.53677" lon="6.48454">
        <ele>1176</ele>
        <time>2018-06-22T07:08:26Z</time>
      </trkpt>
      <trkpt lat="45.53685" lon="6.48402">
        <ele>1160</ele>
        <time>2018-06-22T07:09:26Z</time>
      </trkpt>
      <trkpt lat="45.53681" lon="6.48363">
        <ele>1154</ele>
        <time>2018-06-22T07:10:26Z</time>
      </trkpt>
      <trkpt lat="45.53751" lon="6.48385">
        <ele>1164</ele>
        <time>2018-06-22T07:11:26Z</time>
      </trkpt>
      <trkpt lat="45.53781" lon="6.48357">
        <ele>1157</ele>
        <time>2018-06-22T07:12:26Z</time>
      </trkpt>
      <trkpt lat="45.53745" lon="6.48322">
        <ele>1136</ele>
        <time>2018-06-22T07:13:26Z</time>
      </trkpt>
      <trkpt lat="45.53745" lon="6.48322">
        <ele>1136</ele>
        <time>2018-06-22T07:14:26Z</time>
      </trkpt>
      <trkpt lat="45.53736" lon="6.48313">
        <ele>1130</ele>
        <time>2018-06-22T07:15:26Z</time>
      </trkpt>
      <trkpt lat="45.53777" lon="6.48297">
        <ele>1122</ele>
        <time>2018-06-22T07:16:26Z</time>
      </trkpt>
      <trkpt lat="45.53707" lon="6.48272">
        <ele>1116</ele>
        <time>2018-06-22T07:17:26Z</time>
      </trkpt>
      <trkpt lat="45.53729" lon="6.48255">
        <ele>1111</ele>
        <time>2018-06-22T07:18:26Z</time>
      </trkpt>
      <trkpt lat="45.53661" lon="6.48252">
        <ele>1096</ele>
        <time>2018-06-22T07:19:26Z</time>
      </trkpt>
      <trkpt lat="45.53736" lon="6.48219">
        <ele>1075</ele>
        <time>2018-06-22T07:20:26Z</time>
      </trkpt>
      <trkpt lat="45.53709" lon="6.48199">
        <ele>1065</ele>
        <time>2018-06-22T07:21:26Z</time>
      </trkpt>
      <trkpt lat="45.53827" lon="6.48212">
        <ele>1067</ele>
        <time>2018-06-22T07:22:26Z</time>
      </trkpt>
      <trkpt lat="45.53821" lon="6.48196">
        <ele>1060</ele>
        <time>2018-06-22T07:23:26Z</time>
      </trkpt>
      <trkpt lat="45.53887" lon="6.48174">
        <ele>1044</ele>
        <time>2018-06-22T07:24:26Z</time>
      </trkpt>
      <trkpt lat="45.53792" lon="6.48116">
        <ele>1009</ele>
        <time>2018-06-22T07:25:26Z</time>
      </trkpt>
      <trkpt lat="45.53827" lon="6.48107">
        <ele>1000</ele>
        <time>2018-06-22T07:26:26Z</time>
      </trkpt>
      <trkpt lat="45.53686" lon="6.48026">
        <ele>963</ele>
        <time>2018-06-22T07:27:26Z</time>
      </trkpt>
      <trkpt lat="45.536" lon="6.48032">
        <ele>935</ele>
        <time>2018-06-22T07:28:26Z</time>
      </trkpt>
      <trkpt lat="45.53659" lon="6.47967">
        <ele>920</ele>
        <time>2018-06-22T07:29:26Z</time>
      </trkpt>
      <trkpt lat="45.53722" lon="6.4796">
        <ele>922</ele>
        <time>2018-06-22T07:30:26Z</time>
      </trkpt>
      <trkpt lat="45.53707" lon="6.47937">
        <ele>916</ele>
        <time>2018-06-22T07:31:26Z</time>
      </trkpt>
      <trkpt lat="45.53947" lon="6.47965">
        <ele>879</ele>
        <time>2018-06-22T07:32:26Z</time>
      </trkpt>
      <trkpt lat="45.53998" lon="6.47942">
        <ele>863</ele>
        <time>2018-06-22T07:33:26Z</time>
      </trkpt>
      <trkpt lat="45.53929" lon="6.47877">
        <ele>831</ele>
        <time>2018-06-22T07:34:26Z</time>
      </trkpt>
      <trkpt lat="45.53876" lon="6.47843">
        <ele>834</ele>
        <time>2018-06-22T07:35:26Z</time>
      </trkpt>
      <trkpt lat="45.5382" lon="6.47813">
        <ele>817</ele>
        <time>2018-06-22T07:36:26Z</time>
      </trkpt>
      <trkpt lat="45.5374" lon="6.47797">
        <ele>818</ele>
        <time>2018-06-22T07:37:26Z</time>
      </trkpt>
      <trkpt lat="45.53745" lon="6.47771">
        <ele>805</ele>
        <time>2018-06-22T07:38:26Z</time>
      </trkpt>
      <trkpt lat="45.5369" lon="6.47781">
        <ele>808</ele>
        <time>2018-06-22T07:39:26Z</time>
      </trkpt>
      <trkpt lat="45.53692" lon="6.4777">
        <ele>804</ele>
        <time>2018-06-22T07:40:26Z</time>
      </trkpt>
      <trkpt lat="45.53678" lon="6.47762">
        <ele>794</ele>
        <time>2018-06-22T07:41:26Z</time>
      </trkpt>
      <trkpt lat="45.53693" lon="6.47754">
        <ele>799</ele>
        <time>2018-06-22T07:42:26Z</time>
      </trkpt>
      <trkpt lat="45.53675" lon="6.47741">
        <ele>765</ele>
        <time>2018-06-22T07:43:26Z</time>
      </trkpt>
      <trkpt lat="45.5369" lon="6.47729">
        <ele>757</ele>
        <time>2018-06-22T07:44:26Z</time>
      </trkpt>
      <trkpt lat="45.53624" lon="6.4771">
        <ele>736</ele>
        <time>2018-06-22T07:45:26Z</time>
      </trkpt>
      <trkpt lat="45.53656" lon="6.47675">
        <ele>723</ele>
        <time>2018-06-22T07:46:26Z</time>
      </trkpt>
      <trkpt lat="45.53626" lon="6.47664">
        <ele>694</ele>
        <time>2018-06-22T07:47:26Z</time>
      </trkpt>
      <trkpt lat="45.53654" lon="6.47627">
        <ele>692</ele>
        <time>2018-06-22T07:48:26Z</time>
      </trkpt>
      <trkpt lat="45.53635" lon="6.47629">
        <ele>690</ele>
        <time>2018-06-22T07:49:26Z</time>
      </trkpt>
      <trkpt lat="45.53671" lon="6.47569">
        <ele>679</ele>
        <time>2018-06-22T07:50:26Z</time>
      </trkpt>
      <trkpt lat="45.53693" lon="6.47564">
        <ele>677</ele>
        <time>2018-06-22T07:51:26Z</time>
      </trkpt>
      <trkpt lat="45.53692" lon="6.47537">
        <ele>674</ele>
        <time>2018-06-22T07:52:26Z</time>
      </trkpt>
      <trkpt lat="45.53661" lon="6.47519">
        <ele>658</ele>
        <time>2018-06-22T07:53:26Z</time>
      </trkpt>
      <trkpt lat="45.53606" lon="6.47539">
        <ele>648</ele>
        <time>2018-06-22T07:54:26Z</time>
      </trkpt>
      <trkpt lat="45.53606" lon="6.47524">
        <ele>644</ele>
        <time>2018-06-22T07:55:26Z</time>
      </trkpt>
      <trkpt lat="45.5353" lon="6.47553">
        <ele>607</ele>
        <time>2018-06-22T07:56:26Z</time>
      </trkpt>
      <trkpt lat="45.53484" lon="6.47579">
        <ele>583</ele>
        <time>2018-06-22T07:57:26Z</time>
      </trkpt>
      <trkpt lat="45.53442" lon="6.47584">
        <ele>586</ele>
        <time>2018-06-22T07:58:26Z</time>
      </trkpt>
      <trkpt lat="45.53407" lon="6.47631">
        <ele>567</ele>
        <time>2018-06-22T07:59:26Z</time>
      </trkpt>
      <trkpt lat="45.53366" lon="6.47656">
        <ele>564</ele>
        <time>2018-06-22T08:00:26Z</time>
      </trkpt>
      <trkpt lat="45.53375" lon="6.47629">
        <ele>560</ele>
        <time>2018-06-22T08:01:26Z</time>
      </trkpt>
      <trkpt lat="45.53306" lon="6.47625">
        <ele>530</ele>
        <time>2018-06-22T08:02:26Z</time>
      </trkpt>
      <trkpt lat="45.53327" lon="6.476">
        <ele>525</ele>
        <time>2018-06-22T08:03:26Z</time>
      </trkpt>
      <trkpt lat="45.53291" lon="6.47592">
        <ele>521</ele>
        <time>2018-06-22T08:04:26Z</time>
      </trkpt>
      <trkpt lat="45.533" lon="6.47567">
        <ele>496</ele>
        <time>2018-06-22T08:05:26Z</time>
      </trkpt>
      <trkpt lat="45.5327" lon="6.4757">
        <ele>492</ele>
        <time>2018-06-22T08:06:26Z</time>
      </trkpt>
      <trkpt lat="45.53197" lon="6.47596">
        <ele>487</ele>
        <time>2018-06-22T08:07:26Z</time>
      </trkpt>
      <trkpt lat="45.53211" lon="6.47547">
        <ele>466</ele>
        <time>2018-06-22T08:08:26Z</time>
      </trkpt>
      <trkpt lat="45.53194" lon="6.47552">
        <ele>464</ele>
        <time>2018-06-22T08:09:26Z</time>
      </trkpt>
      <trkpt lat="45.53141" lon="6.47603">
        <ele>463</ele>
        <time>2018-06-22T08:10:26Z</time>
      </trkpt>
      <trkpt lat="45.53092" lon="6.47631">
        <ele>459</ele>
        <time>2018-06-22T08:11:26Z</time>
      </trkpt>
      <trkpt lat="45.53049" lon="6.47647">
        <ele>445</ele>
        <time>2018-06-22T08:12:26Z</time>
      </trkpt>
      <trkpt lat="45.53115" lon="6.47564">
        <ele>444</ele>
        <time>2018-06-22T08:13:26Z</time>
      </trkpt>
      <trkpt lat="45.53156" lon="6.47514">
        <ele>442</ele>
        <time>2018-06-22T08:14:26Z</time>
      </trkpt>
      <trkpt lat="45.53211" lon="6.47458">
        <ele>442</ele>
        <time>2018-06-22T08:15:26Z</time>
      </trkpt>
      <trkpt lat="45.53201" lon="6.47387">
        <ele>441</ele>
        <time>2018-06-22T08:16:26Z</time>
      </trkpt>
      <trkpt lat="45.53236" lon="6.47381">
        <ele>440</ele>
        <time>2018-06-22T08:17:26Z</time>
      </trkpt>
      <trkpt lat="45.53247" lon="6.47329">
        <ele>446</ele>
        <time>2018-06-22T08:18:26Z</time>
      </trkpt>
      <trkpt lat="45.53266" lon="6.47324">
        <ele>444</ele>
        <time>2018-06-22T08:19:26Z</time>
      </trkpt>
      <trkpt lat="45.53285" lon="6.47344">
        <ele>438</ele>
        <time>2018-06-22T08:20:26Z</time>
      </trkpt>
      <trkpt lat="45.53318" lon="6.47348">
        <ele>437</ele>
        <time>2018-06-22T08:21:26Z</time>
      </trkpt>
      <trkpt lat="45.53343" lon="6.47314">
        <ele>434</ele>
        <time>2018-06-22T08:22:26Z</time>
      </trkpt>
      <trkpt lat="45.53365" lon="6.47224">
        <ele>437</ele>
        <time>2018-06-22T08:23:26Z</time>
      </trkpt>
      <trkpt lat="45.53336" lon="6.47143">
        <ele>445</ele>
        <time>2018-06-22T08:24:26Z</time>
      </trkpt>
      <trkpt lat="45.5333" lon="6.47076">
        <ele>461</ele>
        <time>2018-06-22T08:25:26Z</time>
      </trkpt>
      <trkpt lat="45.5331" lon="6.47064">
        <ele>480</ele>
        <time>2018-06-22T08:26:26Z</time>
      </trkpt>
      <trkpt lat="45.53297" lon="6.47019">
        <ele>491</ele>
        <time>2018-06-22T08:27:26Z</time>
      </trkpt>
      <trkpt lat="45.53317" lon="6.46962">
        <ele>501</ele>
        <time>2018-06-22T08:28:26Z</time>
      </trkpt>
      <trkpt lat="45.53288" lon="6.46949">
        <ele>515</ele>
        <time>2018-06-22T08:29:26Z</time>
      </trkpt>
      <trkpt lat="45.53302" lon="6.46913">
        <ele>524</ele>
        <time>2018-06-22T08:30:26Z</time>
      </trkpt>
      <trkpt lat="45.53272" lon="6.46933">
        <ele>527</ele>
        <time>2018-06-22T08:31:26Z</time>
      </trkpt>
      <trkpt lat="45.5329" lon="6.46813">
        <ele>559</ele>
        <time>2018-06-22T08:32:26Z</time>
      </trkpt>
      <trkpt lat="45.53224" lon="6.46906">
        <ele>585</ele>
        <time>2018-06-22T08:33:26Z</time>
      </trkpt>
      <trkpt lat="45.53222" lon="6.46855">
        <ele>593</ele>
        <time>2018-06-22T08:34:26Z</time>
      </trkpt>
      <trkpt lat="45.5321" lon="6.46886">
        <ele>595</ele>
        <time>2018-06-22T08:35:26Z</time>
      </trkpt>
      <trkpt lat="45.53209" lon="6.46855">
        <ele>598</ele>
        <time>2018-06-22T08:36:26Z</time>
      </trkpt>
      <trkpt lat="45.53197" lon="6.46818">
        <ele>620</ele>
        <time>2018-06-22T08:37:26Z</time>
      </trkpt>
      <trkpt lat="45.53214" lon="6.46781">
        <ele>620</ele>
        <time>2018-06-22T08:38:26Z</time>
      </trkpt>
      <trkpt lat="45.5317" lon="6.46788">
        <ele>630</ele>
        <time>2018-06-22T08:39:26Z</time>
      </trkpt>
      <trkpt lat="45.5318" lon="6.4686">
        <ele>609</ele>
        <time>2018-06-22T08:40:26Z</time>
      </trkpt>
      <trkpt lat="45.53152" lon="6.46851">
        <ele>640</ele>
        <time>2018-06-22T08:41:26Z</time>
      </trkpt>
      <trkpt lat="45.53142" lon="6.46872">
        <ele>642</ele>
        <time>2018-06-22T08:42:26Z</time>
      </trkpt>
      <trkpt lat="45.53117" lon="6.46913">
        <ele>645</ele>
        <time>2018-06-22T08:43:26Z</time>
      </trkpt>
      <trkpt lat="45.53077" lon="6.46919">
        <ele>652</ele>
        <time>2018-06-22T08:44:26Z</time>
      </trkpt>
      <trkpt lat="45.5304" lon="6.4693">
        <ele>641</ele>
        <time>2018-06-22T08:45:26Z</time>
      </trkpt>
      <trkpt lat="45.53068" lon="6.46887">
        <ele>661</ele>
        <time>2018-06-22T08:46:26Z</time>
      </trkpt>
      <trkpt lat="45.5305" lon="6.46857">
        <ele>664</ele>
        <time>2018-06-22T08:47:26Z</time>
      </trkpt>
      <trkpt lat="45.53061" lon="6.468">
        <ele>684</ele>
        <time>2018-06-22T08:48:26Z</time>
      </trkpt>
      <trkpt lat="45.53075" lon="6.4679">
        <ele>685</ele>
        <time>2018-06-22T08:49:26Z</time>
      </trkpt>
      <trkpt lat="45.53101" lon="6.46743">
        <ele>692</ele>
        <time>2018-06-22T08:50:26Z</time>
      </trkpt>
      <trkpt lat="45.53127" lon="6.46686">
        <ele>698</ele>
        <time>2018-06-22T08:51:26Z</time>
      </trkpt>
      <trkpt lat="45.53099" lon="6.46694">
        <ele>703</ele>
        <time>2018-06-22T08:52:26Z</time>
      </trkpt>
      <trkpt lat="45.53064" lon="6.46712">
        <ele>714</ele>
        <time>2018-06-22T08:53:26Z</time>
      </trkpt>
      <trkpt lat="45.53051" lon="6.46704">
        <ele>717</ele>
        <time>2018-06-22T08:54:26Z</time>
      </trkpt>
      <trkpt lat="45.53023" lon="6.46716">
        <ele>717</ele>
        <time>2018-06-22T08:55:26Z</time>
      </trkpt>
      <trkpt lat="45.52982" lon="6.46696">
        <ele>721</ele>
        <time>2018-06-22T08:56:26Z</time>
      </trkpt>
      <trkpt lat="45.52932" lon="6.46636">
        <ele>743</ele>
        <time>2018-06-22T08:57:26Z</time>
      </trkpt>
      <trkpt lat="45.52864" lon="6.46501">
        <ele>755</ele>
        <time>2018-06-22T08:58:26Z</time>
      </trkpt>
      <trkpt lat="45.52831" lon="6.46437">
        <ele>766</ele>
        <time>2018-06-22T08:59:26Z</time>
      </trkpt>
      <trkpt lat="45.5274" lon="6.4629">
        <ele>802</ele>
        <time>2018-06-22T09:00:26Z</time>
      </trkpt>
      <trkpt lat="45.52656" lon="6.46172">
        <ele>826</ele>
        <time>2018-06-22T09:01:26Z</time>
      </trkpt>
      <trkpt lat="45.5261" lon="6.4613">
        <ele>845</ele>
        <time>2018-06-22T09:02:26Z</time>
      </trkpt>
      <trkpt lat="45.52544" lon="6.46079">
        <ele>878</ele>
        <time>2018-06-22T09:03:26Z</time>
      </trkpt>
      <trkpt lat="45.52492" lon="6.46068">
        <ele>870</ele>
        <time>2018-06-22T09:04:26Z</time>
      </trkpt>
      <trkpt lat="45.52448" lon="6.46034">
        <ele>879</ele>
        <time>2018-06-22T09:05:26Z</time>
      </trkpt>
      <trkpt lat="45.52419" lon="6.45983">
        <ele>902</ele>
        <time>2018-06-22T09:06:26Z</time>
      </trkpt>
      <trkpt lat="45.5239" lon="6.45919">
        <ele>904</ele>
        <time>2018-06-22T09:07:26Z</time>
      </trkpt>
      <trkpt lat="45.5235" lon="6.45897">
        <ele>920</ele>
        <time>2018-06-22T09:08:26Z</time>
      </trkpt>
      <trkpt lat="45.52281" lon="6.45837">
        <ele>913</ele>
        <time>2018-06-22T09:09:26Z</time>
      </trkpt>
      <trkpt lat="45.52256" lon="6.45791">
        <ele>937</ele>
        <time>2018-06-22T09:10:26Z</time>
      </trkpt>
      <trkpt lat="45.52261" lon="6.45779">
        <ele>940</ele>
        <time>2018-06-22T09:11:26Z</time>
      </trkpt>
      <trkpt lat="45.52247" lon="6.45737">
        <ele>943</ele>
        <time>2018-06-22T09:12:26Z</time>
      </trkpt>
      <trkpt lat="45.52194" lon="6.45669">
        <ele>948</ele>
        <time>2018-06-22T09:13:26Z</time>
      </trkpt>
      <trkpt lat="45.52192" lon="6.45646">
        <ele>972</ele>
        <time>2018-06-22T09:14:26Z</time>
      </trkpt>
      <trkpt lat="45.52162" lon="6.45615">
        <ele>963</ele>
        <time>2018-06-22T09:15:26Z</time>
      </trkpt>
      <trkpt lat="45.52132" lon="6.45577">
        <ele>982</ele>
        <time>2018-06-22T09:16:26Z</time>
      </trkpt>
      <trkpt lat="45.52099" lon="6.45536">
        <ele>979</ele>
        <time>2018-06-22T09:17:26Z</time>
      </trkpt>
      <trkpt lat="45.52094" lon="6.45507">
        <ele>979</ele>
        <time>2018-06-22T09:18:26Z</time>
      </trkpt>
      <trkpt lat="45.5208" lon="6.45488">
        <ele>974</ele>
        <time>2018-06-22T09:19:26Z</time>
      </trkpt>
      <trkpt lat="45.52071" lon="6.45479">
        <ele>973</ele>
        <time>2018-06-22T09:20:26Z</time>
      </trkpt>
      <trkpt lat="45.52062" lon="6.45473">
        <ele>973</ele>
        <time>2018-06-22T09:21:26Z</time>
      </trkpt>
      <trkpt lat="45.52048" lon="6.45468">
        <ele>971</ele>
        <time>2018-06-22T09:22:26Z</time>
      </trkpt>
      <trkpt lat="45.52039" lon="6.45469">
        <ele>968</ele>
        <time>2018-06-22T09:23:26Z</time>
      </trkpt>
      <trkpt lat="45.52028" lon="6.4547">
        <ele>966</ele>
        <time>2018-06-22T09:24:26Z</time>
      </trkpt>
      <trkpt lat="45.52017" lon="6.45469">
        <ele>963</ele>
        <time>2018-06-22T09:25:26Z</time>
      </trkpt>
      <trkpt lat="45.52009" lon="6.45463">
        <ele>964</ele>
        <time>2018-06-22T09:26:26Z</time>
      </trkpt>
      <trkpt lat="45.51997" lon="6.45449">
        <ele>950</ele>
        <time>2018-06-22T09:27:26Z</time>
      </trkpt>
      <trkpt lat="45.51991" lon="6.45444">
        <ele>951</ele>
        <time>2018-06-22T09:28:26Z</time>
      </trkpt>
      <trkpt lat="45.51983" lon="6.45437">
        <ele>952</ele>
        <time>2018-06-22T09:29:26Z</time>
      </trkpt>
      <trkpt lat="45.51977" lon="6.45417">
        <ele>954</ele>
        <time>2018-06-22T09:30:26Z</time>
      </trkpt>
      <trkpt lat="45.51968" lon="6.45382">
        <ele>970</ele>
        <time>2018-06-22T09:31:26Z</time>
      </trkpt>
      <trkpt lat="45.51963" lon="6.45351">
        <ele>974</ele>
        <time>2018-06-22T09:32:26Z</time>
      </trkpt>
      <trkpt lat="45.5196" lon="6.45315">
        <ele>993</ele>
        <time>2018-06-22T09:33:26Z</time>
      </trkpt>
      <trkpt lat="45.51956" lon="6.45306">
        <ele>994</ele>
        <time>2018-06-22T09:34:26Z</time>
      </trkpt>
      <trkpt lat="45.51952" lon="6.45298">
        <ele>995</ele>
        <time>2018-06-22T09:35:26Z</time>
      </trkpt>
      <trkpt lat="45.51938" lon="6.45291">
        <ele>996</ele>
        <time>2018-06-22T09:36:26Z</time>
      </trkpt>
      <trkpt lat="45.51932" lon="6.45278">
        <ele>999</ele>
        <time>2018-06-22T09:37:26Z</time>
      </trkpt>
      <trkpt lat="45.51926" lon="6.45279">
        <ele>999</ele>
        <time>2018-06-22T09:38:26Z</time>
      </trkpt>
      <trkpt lat="45.5191" lon="6.45301">
        <ele>991</ele>
        <time>2018-06-22T09:39:26Z</time>
      </trkpt>
      <trkpt lat="45.51897" lon="6.45323">
        <ele>986</ele>
        <time>2018-06-22T09:40:26Z</time>
      </trkpt>
      <trkpt lat="45.5189" lon="6.45344">
        <ele>971</ele>
        <time>2018-06-22T09:41:26Z</time>
      </trkpt>
      <trkpt lat="45.51881" lon="6.45363">
        <ele>969</ele>
        <time>2018-06-22T09:42:26Z</time>
      </trkpt>
      <trkpt lat="45.51873" lon="6.45383">
        <ele>967</ele>
        <time>2018-06-22T09:43:26Z</time>
      </trkpt>
      <trkpt lat="45.51867" lon="6.4539">
        <ele>967</ele>
        <time>2018-06-22T09:44:26Z</time>
      </trkpt>
      <trkpt lat="45.51858" lon="6.45386">
        <ele>968</ele>
        <time>2018-06-22T09:45:26Z</time>
      </trkpt>
      <trkpt lat="45.51848" lon="6.45376">
        <ele>970</ele>
        <time>2018-06-22T09:46:26Z</time>
      </trkpt>
      <trkpt lat="45.51837" lon="6.4536">
        <ele>974</ele>
        <time>2018-06-22T09:47:26Z</time>
      </trkpt>
      <trkpt lat="45.51836" lon="6.45353">
        <ele>977</ele>
        <time>2018-06-22T09:48:26Z</time>
      </trkpt>
      <trkpt lat="45.51831" lon="6.45348">
        <ele>976</ele>
        <time>2018-06-22T09:49:26Z</time>
      </trkpt>
      <trkpt lat="45.51824" lon="6.45345">
        <ele>976</ele>
        <time>2018-06-22T09:50:26Z</time>
      </trkpt>
      <trkpt lat="45.51817" lon="6.45344">
        <ele>973</ele>
        <time>2018-06-22T09:51:26Z</time>
      </trkpt>
      <trkpt lat="45.51808" lon="6.45345">
        <ele>970</ele>
        <time>2018-06-22T09:52:26Z</time>
      </trkpt>
      <trkpt lat="45.51799" lon="6.45327">
        <ele>982</ele>
        <time>2018-06-22T09:53:26Z</time>
      </trkpt>
      <trkpt lat="45.51791" lon="6.45318">
        <ele>981</ele>
        <time>2018-06-22T09:54:26Z</time>
      </trkpt>
      <trkpt lat="45.51785" lon="6.45296">
        <ele>982</ele>
        <time>2018-06-22T09:55:26Z</time>
      </trkpt>
      <trkpt lat="45.51781" lon="6.45259">
        <ele>985</ele>
        <time>2018-06-22T09:56:26Z</time>
      </trkpt>
      <trkpt lat="45.51777" lon="6.45251">
        <ele>984</ele>
        <time>2018-06-22T09:57:26Z</time>
      </trkpt>
      <trkpt lat="45.51771" lon="6.45244">
        <ele>998</ele>
        <time>2018-06-22T09:58:26Z</time>
      </trkpt>
      <trkpt lat="45.51763" lon="6.45243">
        <ele>994</ele>
        <time>2018-06-22T09:59:26Z</time>
      </trkpt>
      <trkpt lat="45.51748" lon="6.4524">
        <ele>982</ele>
        <time>2018-06-22T10:00:26Z</time>
      </trkpt>
      <trkpt lat="45.51731" lon="6.45232">
        <ele>986</ele>
        <time>2018-06-22T10:01:26Z</time>
      </trkpt>
      <trkpt lat="45.51722" lon="6.45226">
        <ele>987</ele>
        <time>2018-06-22T10:02:26Z</time>
      </trkpt>
      <trkpt lat="45.51714" lon="6.45217">
        <ele>989</ele>
        <time>2018-06-22T10:03:26Z</time>
      </trkpt>
      <trkpt lat="45.51706" lon="6.45215">
        <ele>988</ele>
        <time>2018-06-22T10:04:26Z</time>
      </trkpt>
      <trkpt lat="45.51704" lon="6.45215">
        <ele>988</ele>
        <time>2018-06-22T10:05:26Z</time>
      </trkpt>
      <trkpt lat="45.51702" lon="6.45218">
        <ele>987</ele>
        <time>2018-06-22T10:06:26Z</time>
      </trkpt>
      <trkpt lat="45.51699" lon="6.45199">
        <ele>991</ele>
        <time>2018-06-22T10:07:26Z</time>
      </trkpt>
      <trkpt lat="45.51702" lon="6.4519">
        <ele>994</ele>
        <time>2018-06-22T10:08:26Z</time>
      </trkpt>
      <trkpt lat="45.51709" lon="6.45188">
        <ele>995</ele>
        <time>2018-06-22T10:09:26Z</time>
      </trkpt>
      <trkpt lat="45.51699" lon="6.45173">
        <ele>996</ele>
        <time>2018-06-22T10:10:26Z</time>
      </trkpt>
      <trkpt lat="45.51691" lon="6.45156">
        <ele>1021</ele>
        <time>2018-06-22T10:11:26Z</time>
      </trkpt>
      <trkpt lat="45.5168" lon="6.45126">
        <ele>1030</ele>
        <time>2018-06-22T10:12:26Z</time>
      </trkpt>
      <trkpt lat="45.51665" lon="6.45088">
        <ele>1041</ele>
        <time>2018-06-22T10:13:26Z</time>
      </trkpt>
      <trkpt lat="45.51644" lon="6.4504">
        <ele>1054</ele>
        <time>2018-06-22T10:14:26Z</time>
      </trkpt>
      <trkpt lat="45.51627" lon="6.44999">
        <ele>1078</ele>
        <time>2018-06-22T10:15:26Z</time>
      </trkpt>
      <trkpt lat="45.51611" lon="6.44957">
        <ele>1079</ele>
        <time>2018-06-22T10:16:26Z</time>
      </trkpt>
      <trkpt lat="45.51594" lon="6.44916">
        <ele>1089</ele>
        <time>2018-06-22T10:17:26Z</time>
      </trkpt>
      <trkpt lat="45.51577" lon="6.44878">
        <ele>1081</ele>
        <time>2018-06-22T10:18:26Z</time>
      </trkpt>
      <trkpt lat="45.51561" lon="6.44825">
        <ele>1107</ele>
        <time>2018-06-22T10:19:26Z</time>
      </trkpt>
      <trkpt lat="45.51529" lon="6.44724">
        <ele>1128</ele>
        <time>2018-06-22T10:20:26Z</time>
      </trkpt>
      <trkpt lat="45.51519" lon="6.44681">
        <ele>1130</ele>
        <time>2018-06-22T10:21:26Z</time>
      </trkpt>
      <trkpt lat="45.51516" lon="6.4466">
        <ele>1139</ele>
        <time>2018-06-22T10:22:26Z</time>
      </trkpt>
      <trkpt lat="45.51515" lon="6.44617">
        <ele>1149</ele>
        <time>2018-06-22T10:23:26Z</time>
      </trkpt>
      <trkpt lat="45.51517" lon="6.44519">
        <ele>1160</ele>
        <time>2018-06-22T10:24:26Z</time>
      </trkpt>
      <trkpt lat="45.51519" lon="6.4444">
        <ele>1175</ele>
        <time>2018-06-22T10:25:26Z</time>
      </trkpt>
      <trkpt lat="45.51523" lon="6.44379">
        <ele>1192</ele>
        <time>2018-06-22T10:26:26Z</time>
      </trkpt>
      <trkpt lat="45.51532" lon="6.44292">
        <ele>1203</ele>
        <time>2018-06-22T10:27:26Z</time>
      </trkpt>
      <trkpt lat="45.51544" lon="6.4426">
        <ele>1209</ele>
        <time>2018-06-22T10:28:26Z</time>
      </trkpt>
      <trkpt lat="45.51556" lon="6.44213">
        <ele>1215</ele>
        <time>2018-06-22T10:29:26Z</time>
      </trkpt>
      <trkpt lat="45.51563" lon="6.44169">
        <ele>1223</ele>
        <time>2018-06-22T10:30:26Z</time>
      </trkpt>
      <trkpt lat="45.51561" lon="6.44152">
        <ele>1225</ele>
        <time>2018-06-22T10:31:26Z</time>
      </trkpt>
      <trkpt lat="45.51558" lon="6.44141">
        <ele>1222</ele>
        <time>2018-06-22T10:32:26Z</time>
      </trkpt>
      <trkpt lat="45.51554" lon="6.44131">
        <ele>1221</ele>
        <time>2018-06-22T10:33:26Z</time>
      </trkpt>
      <trkpt lat="45.51551" lon="6.44122">
        <ele>1220</ele>
        <time>2018-06-22T10:34:26Z</time>
      </trkpt>
      <trkpt lat="45.51549" lon="6.44108">
        <ele>1221</ele>
        <time>2018-06-22T10:35:26Z</time>
      </trkpt>
      <trkpt lat="45.51549" lon="6.44103">
        <ele>1221</ele>
        <time>2018-06-22T10:36:26Z</time>
      </trkpt>
      <trkpt lat="45.51549" lon="6.44094">
        <ele>1222</ele>
        <time>2018-06-22T10:37:26Z</time>
      </trkpt>
      <trkpt lat="45.51551" lon="6.4409">
        <ele>1224</ele>
        <time>2018-06-22T10:38:26Z</time>
      </trkpt>
      <trkpt lat="45.51551" lon="6.44084">
        <ele>1224</ele>
        <time>2018-06-22T10:39:26Z</time>
      </trkpt>
      <trkpt lat="45.51553" lon="6.4407">
        <ele>1229</ele>
        <time>2018-06-22T10:40:26Z</time>
      </trkpt>
      <trkpt lat="45.51553" lon="6.44057">
        <ele>1228</ele>
        <time>2018-06-22T10:41:26Z</time>
      </trkpt>
      <trkpt lat="45.51553" lon="6.44041">
        <ele>1228</ele>
        <time>2018-06-22T10:42:26Z</time>
      </trkpt>
      <trkpt lat="45.51557" lon="6.44037">
        <ele>1230</ele>
        <time>2018-06-22T10:43:26Z</time>
      </trkpt>
      <trkpt lat="45.51561" lon="6.44029">
        <ele>1232</ele>
        <time>2018-06-22T10:44:26Z</time>
      </trkpt>
      <trkpt lat="45.51563" lon="6.4402">
        <ele>1234</ele>
        <time>2018-06-22T10:45:26Z</time>
      </trkpt>
      <trkpt lat="45.51571" lon="6.4399">
        <ele>1243</ele>
        <time>2018-06-22T10:46:26Z</time>
      </trkpt>
      <trkpt lat="45.51581" lon="6.43946">
        <ele>1243</ele>
        <time>2018-06-22T10:47:26Z</time>
      </trkpt>
      <trkpt lat="45.51586" lon="6.43918">
        <ele>1266</ele>
        <time>2018-06-22T10:48:26Z</time>
      </trkpt>
      <trkpt lat="45.51586" lon="6.4391">
        <ele>1271</ele>
        <time>2018-06-22T10:49:26Z</time>
      </trkpt>
      <trkpt lat="45.51586" lon="6.43897">
        <ele>1280</ele>
        <time>2018-06-22T10:50:26Z</time>
      </trkpt>
      <trkpt lat="45.51585" lon="6.43889">
        <ele>1283</ele>
        <time>2018-06-22T10:51:26Z</time>
      </trkpt>
      <trkpt lat="45.51583" lon="6.43883">
        <ele>1248</ele>
        <time>2018-06-22T10:52:26Z</time>
      </trkpt>
      <trkpt lat="45.51583" lon="6.43879">
        <ele>1248</ele>
        <time>2018-06-22T10:53:26Z</time>
      </trkpt>
      <trkpt lat="45.51583" lon="6.43872">
        <ele>1249</ele>
        <time>2018-06-22T10:54:26Z</time>
      </trkpt>
      <trkpt lat="45.51585" lon="6.43863">
        <ele>1284</ele>
        <time>2018-06-22T10:55:26Z</time>
      </trkpt>
      <trkpt lat="45.51587" lon="6.43837">
        <ele>1273</ele>
        <time>2018-06-22T10:56:26Z</time>
      </trkpt>
      <trkpt lat="45.51591" lon="6.43823">
        <ele>1281</ele>
        <time>2018-06-22T10:57:26Z</time>
      </trkpt>
      <trkpt lat="45.51592" lon="6.43816">
        <ele>1285</ele>
        <time>2018-06-22T10:58:26Z</time>
      </trkpt>
      <trkpt lat="45.51593" lon="6.43807">
        <ele>1289</ele>
        <time>2018-06-22T10:59:26Z</time>
      </trkpt>
      <trkpt lat="45.51593" lon="6.4379">
        <ele>1291</ele>
        <time>2018-06-22T11:00:26Z</time>
      </trkpt>
      <trkpt lat="45.51595" lon="6.43777">
        <ele>1291</ele>
        <time>2018-06-22T11:01:26Z</time>
      </trkpt>
      <trkpt lat="45.51598" lon="6.43755">
        <ele>1286</ele>
        <time>2018-06-22T11:02:26Z</time>
      </trkpt>
      <trkpt lat="45.51602" lon="6.43747">
        <ele>1293</ele>
        <time>2018-06-22T11:03:26Z</time>
      </trkpt>
      <trkpt lat="45.51605" lon="6.43741">
        <ele>1296</ele>
        <time>2018-06-22T11:04:26Z</time>
      </trkpt>
      <trkpt lat="45.51609" lon="6.43736">
        <ele>1300</ele>
        <time>2018-06-22T11:05:26Z</time>
      </trkpt>
      <trkpt lat="45.51619" lon="6.43725">
        <ele>1306</ele>
        <time>2018-06-22T11:06:26Z</time>
      </trkpt>
      <trkpt lat="45.51621" lon="6.4372">
        <ele>1307</ele>
        <time>2018-06-22T11:07:26Z</time>
      </trkpt>
      <trkpt lat="45.51622" lon="6.43712">
        <ele>1308</ele>
        <time>2018-06-22T11:08:26Z</time>
      </trkpt>
      <trkpt lat="45.51622" lon="6.43706">
        <ele>1309</ele>
        <time>2018-06-22T11:09:26Z</time>
      </trkpt>
      <trkpt lat="45.51619" lon="6.43698">
        <ele>1308</ele>
        <time>2018-06-22T11:10:26Z</time>
      </trkpt>
      <trkpt lat="45.51616" lon="6.43694">
        <ele>1308</ele>
        <time>2018-06-22T11:11:26Z</time>
      </trkpt>
      <trkpt lat="45.51609" lon="6.43685">
        <ele>1305</ele>
        <time>2018-06-22T11:12:26Z</time>
      </trkpt>
      <trkpt lat="45.51607" lon="6.43677">
        <ele>1304</ele>
        <time>2018-06-22T11:13:26Z</time>
      </trkpt>
      <trkpt lat="45.51601" lon="6.43671">
        <ele>1300</ele>
        <time>2018-06-22T11:14:26Z</time>
      </trkpt>
      <trkpt lat="45.51597" lon="6.43665">
        <ele>1303</ele>
        <time>2018-06-22T11:15:26Z</time>
      </trkpt>
      <trkpt lat="45.51592" lon="6.43655">
        <ele>1303</ele>
        <time>2018-06-22T11:16:26Z</time>
      </trkpt>
      <trkpt lat="45.51586" lon="6.43639">
        <ele>1308</ele>
        <time>2018-06-22T11:17:26Z</time>
      </trkpt>
      <trkpt lat="45.51574" lon="6.43605">
        <ele>1281</ele>
        <time>2018-06-22T11:18:26Z</time>
      </trkpt>
      <trkpt lat="45.51558" lon="6.43581">
        <ele>1286</ele>
        <time>2018-06-22T11:19:26Z</time>
      </trkpt>
      <trkpt lat="45.51547" lon="6.43562">
        <ele>1283</ele>
        <time>2018-06-22T11:20:26Z</time>
      </trkpt>
      <trkpt lat="45.51541" lon="6.43542">
        <ele>1284</ele>
        <time>2018-06-22T11:21:26Z</time>
      </trkpt>
      <trkpt lat="45.51537" lon="6.43522">
        <ele>1284</ele>
        <time>2018-06-22T11:22:26Z</time>
      </trkpt>
      <trkpt lat="45.51534" lon="6.43514">
        <ele>1284</ele>
        <time>2018-06-22T11:23:26Z</time>
      </trkpt>
      <trkpt lat="45.5153" lon="6.4351">
        <ele>1283</ele>
        <time>2018-06-22T11:24:26Z</time>
      </trkpt>
      <trkpt lat="45.51519" lon="6.43509">
        <ele>1280</ele>
        <time>2018-06-22T11:25:26Z</time>
      </trkpt>
      <trkpt lat="45.51507" lon="6.4351">
        <ele>1277</ele>
        <time>2018-06-22T11:26:26Z</time>
      </trkpt>
      <trkpt lat="45.51494" lon="6.43509">
        <ele>1272</ele>
        <time>2018-06-22T11:27:26Z</time>
      </trkpt>
      <trkpt lat="45.51473" lon="6.43511">
        <ele>1272</ele>
        <time>2018-06-22T11:28:26Z</time>
      </trkpt>
      <trkpt lat="45.51462" lon="6.43515">
        <ele>1272</ele>
        <time>2018-06-22T11:29:26Z</time>
      </trkpt>
      <trkpt lat="45.51461" lon="6.43516">
        <ele>1272</ele>
        <time>2018-06-22T11:30:26Z</time>
      </trkpt>
      <trkpt lat="45.51456" lon="6.43504">
        <ele>1273</ele>
        <time>2018-06-22T11:31:26Z</time>
      </trkpt>
      <trkpt lat="45.51448" lon="6.43495">
        <ele>1289</ele>
        <time>2018-06-22T11:32:26Z</time>
      </trkpt>
      <trkpt lat="45.51438" lon="6.43493">
        <ele>1289</ele>
        <time>2018-06-22T11:33:26Z</time>
      </trkpt>
      <trkpt lat="45.5143" lon="6.43493">
        <ele>1288</ele>
        <time>2018-06-22T11:34:26Z</time>
      </trkpt>
      <trkpt lat="45.51426" lon="6.4349">
        <ele>1288</ele>
        <time>2018-06-22T11:35:26Z</time>
      </trkpt>
      <trkpt lat="45.51426" lon="6.43486">
        <ele>1289</ele>
        <time>2018-06-22T11:36:26Z</time>
      </trkpt>
      <trkpt lat="45.5143" lon="6.4348">
        <ele>1290</ele>
        <time>2018-06-22T11:37:26Z</time>
      </trkpt>
      <trkpt lat="45.51429" lon="6.43476">
        <ele>1291</ele>
        <time>2018-06-22T11:38:26Z</time>
      </trkpt>
      <trkpt lat="45.51422" lon="6.43473">
        <ele>1292</ele>
        <time>2018-06-22T11:39:26Z</time>
      </trkpt>
      <trkpt lat="45.51418" lon="6.4347">
        <ele>1292</ele>
        <time>2018-06-22T11:40:26Z</time>
      </trkpt>
      <trkpt lat="45.5141" lon="6.43468">
        <ele>1317</ele>
        <time>2018-06-22T11:41:26Z</time>
      </trkpt>
      <trkpt lat="45.51406" lon="6.43476">
        <ele>1315</ele>
        <time>2018-06-22T11:42:26Z</time>
      </trkpt>
      <trkpt lat="45.51396" lon="6.43486">
        <ele>1315</ele>
        <time>2018-06-22T11:43:26Z</time>
      </trkpt>
      <trkpt lat="45.51389" lon="6.43495">
        <ele>1318</ele>
        <time>2018-06-22T11:44:26Z</time>
      </trkpt>
      <trkpt lat="45.51382" lon="6.4351">
        <ele>1309</ele>
        <time>2018-06-22T11:45:26Z</time>
      </trkpt>
      <trkpt lat="45.51363" lon="6.43533">
        <ele>1316</ele>
        <time>2018-06-22T11:46:26Z</time>
      </trkpt>
      <trkpt lat="45.51358" lon="6.43547">
        <ele>1316</ele>
        <time>2018-06-22T11:47:26Z</time>
      </trkpt>
      <trkpt lat="45.51347" lon="6.43574">
        <ele>1320</ele>
        <time>2018-06-22T11:48:26Z</time>
      </trkpt>
      <trkpt lat="45.5135" lon="6.4358">
        <ele>1319</ele>
        <time>2018-06-22T11:49:26Z</time>
      </trkpt>
      <trkpt lat="45.51344" lon="6.43589">
        <ele>1312</ele>
        <time>2018-06-22T11:50:26Z</time>
      </trkpt>
      <trkpt lat="45.51339" lon="6.43603">
        <ele>1306</ele>
        <time>2018-06-22T11:51:26Z</time>
      </trkpt>
      <trkpt lat="45.51336" lon="6.43625">
        <ele>1297</ele>
        <time>2018-06-22T11:52:26Z</time>
      </trkpt>
      <trkpt lat="45.51326" lon="6.43656">
        <ele>1318</ele>
        <time>2018-06-22T11:53:26Z</time>
      </trkpt>
      <trkpt lat="45.51322" lon="6.43666">
        <ele>1317</ele>
        <time>2018-06-22T11:54:26Z</time>
      </trkpt>
      <trkpt lat="45.513" lon="6.43716">
        <ele>1310</ele>
        <time>2018-06-22T11:55:26Z</time>
      </trkpt>
      <trkpt lat="45.51299" lon="6.4373">
        <ele>1308</ele>
        <time>2018-06-22T11:56:26Z</time>
      </trkpt>
      <trkpt lat="45.51297" lon="6.43752">
        <ele>1289</ele>
        <time>2018-06-22T11:57:26Z</time>
      </trkpt>
      <trkpt lat="45.51291" lon="6.43765">
        <ele>1290</ele>
        <time>2018-06-22T11:58:26Z</time>
      </trkpt>
      <trkpt lat="45.51283" lon="6.43776">
        <ele>1291</ele>
        <time>2018-06-22T11:59:26Z</time>
      </trkpt>
      <trkpt lat="45.51273" lon="6.43774">
        <ele>1295</ele>
        <time>2018-06-22T12:00:26Z</time>
      </trkpt>
      <trkpt lat="45.51264" lon="6.4378">
        <ele>1296</ele>
        <time>2018-06-22T12:01:26Z</time>
      </trkpt>
      <trkpt lat="45.51255" lon="6.43795">
        <ele>1293</ele>
        <time>2018-06-22T12:02:26Z</time>
      </trkpt>
      <trkpt lat="45.51243" lon="6.43808">
        <ele>1321</ele>
        <time>2018-06-22T12:03:26Z</time>
      </trkpt>
      <trkpt lat="45.51238" lon="6.43817">
        <ele>1318</ele>
        <time>2018-06-22T12:04:26Z</time>
      </trkpt>
      <trkpt lat="45.51235" lon="6.43825">
        <ele>1316</ele>
        <time>2018-06-22T12:05:26Z</time>
      </trkpt>
      <trkpt lat="45.51223" lon="6.43834">
        <ele>1304</ele>
        <time>2018-06-22T12:06:26Z</time>
      </trkpt>
      <trkpt lat="45.51204" lon="6.43846">
        <ele>1311</ele>
        <time>2018-06-22T12:07:26Z</time>
      </trkpt>
      <trkpt lat="45.51185" lon="6.43854">
        <ele>1318</ele>
        <time>2018-06-22T12:08:26Z</time>
      </trkpt>
      <trkpt lat="45.51172" lon="6.43853">
        <ele>1324</ele>
        <time>2018-06-22T12:09:26Z</time>
      </trkpt>
      <trkpt lat="45.51161" lon="6.4387">
        <ele>1345</ele>
        <time>2018-06-22T12:10:26Z</time>
      </trkpt>
      <trkpt lat="45.51155" lon="6.43879">
        <ele>1343</ele>
        <time>2018-06-22T12:11:26Z</time>
      </trkpt>
      <trkpt lat="45.51146" lon="6.43896">
        <ele>1339</ele>
        <time>2018-06-22T12:12:26Z</time>
      </trkpt>
      <trkpt lat="45.51136" lon="6.43916">
        <ele>1339</ele>
        <time>2018-06-22T12:13:26Z</time>
      </trkpt>
      <trkpt lat="45.51126" lon="6.43924">
        <ele>1320</ele>
        <time>2018-06-22T12:14:26Z</time>
      </trkpt>
      <trkpt lat="45.51106" lon="6.43935">
        <ele>1326</ele>
        <time>2018-06-22T12:15:26Z</time>
      </trkpt>
      <trkpt lat="45.51096" lon="6.43942">
        <ele>1327</ele>
        <time>2018-06-22T12:16:26Z</time>
      </trkpt>
      <trkpt lat="45.51092" lon="6.43947">
        <ele>1325</ele>
        <time>2018-06-22T12:17:26Z</time>
      </trkpt>
      <trkpt lat="45.51087" lon="6.43957">
        <ele>1322</ele>
        <time>2018-06-22T12:18:26Z</time>
      </trkpt>
      <trkpt lat="45.51081" lon="6.43964">
        <ele>1336</ele>
        <time>2018-06-22T12:19:26Z</time>
      </trkpt>
      <trkpt lat="45.51067" lon="6.43974">
        <ele>1334</ele>
        <time>2018-06-22T12:20:26Z</time>
      </trkpt>
      <trkpt lat="45.51044" lon="6.43991">
        <ele>1334</ele>
        <time>2018-06-22T12:21:26Z</time>
      </trkpt>
      <trkpt lat="45.51033" lon="6.44001">
        <ele>1311</ele>
        <time>2018-06-22T12:22:26Z</time>
      </trkpt>
      <trkpt lat="45.51015" lon="6.44015">
        <ele>1314</ele>
        <time>2018-06-22T12:23:26Z</time>
      </trkpt>
      <trkpt lat="45.51001" lon="6.44024">
        <ele>1312</ele>
        <time>2018-06-22T12:24:26Z</time>
      </trkpt>
      <trkpt lat="45.50984" lon="6.44029">
        <ele>1311</ele>
        <time>2018-06-22T12:25:26Z</time>
      </trkpt>
      <trkpt lat="45.50957" lon="6.4402">
        <ele>1310</ele>
        <time>2018-06-22T12:26:26Z</time>
      </trkpt>
      <trkpt lat="45.50937" lon="6.44005">
        <ele>1313</ele>
        <time>2018-06-22T12:27:26Z</time>
      </trkpt>
      <trkpt lat="45.50895" lon="6.43981">
        <ele>1324</ele>
        <time>2018-06-22T12:28:26Z</time>
      </trkpt>
      <trkpt lat="45.50886" lon="6.43969">
        <ele>1326</ele>
        <time>2018-06-22T12:29:26Z</time>
      </trkpt>
      <trkpt lat="45.50868" lon="6.43949">
        <ele>1328</ele>
        <time>2018-06-22T12:30:26Z</time>
      </trkpt>
      <trkpt lat="45.5085" lon="6.43932">
        <ele>1330</ele>
        <time>2018-06-22T12:31:26Z</time>
      </trkpt>
      <trkpt lat="45.50819" lon="6.43898">
        <ele>1339</ele>
        <time>2018-06-22T12:32:26Z</time>
      </trkpt>
      <trkpt lat="45.50807" lon="6.43889">
        <ele>1340</ele>
        <time>2018-06-22T12:33:26Z</time>
      </trkpt>
      <trkpt lat="45.50799" lon="6.43877">
        <ele>1341</ele>
        <time>2018-06-22T12:34:26Z</time>
      </trkpt>
      <trkpt lat="45.50798" lon="6.4387">
        <ele>1343</ele>
        <time>2018-06-22T12:35:26Z</time>
      </trkpt>
      <trkpt lat="45.50802" lon="6.43863">
        <ele>1345</ele>
        <time>2018-06-22T12:36:26Z</time>
      </trkpt>
      <trkpt lat="45.5081" lon="6.43861">
        <ele>1347</ele>
        <time>2018-06-22T12:37:26Z</time>
      </trkpt>
      <trkpt lat="45.5084" lon="6.43852">
        <ele>1368</ele>
        <time>2018-06-22T12:38:26Z</time>
      </trkpt>
      <trkpt lat="45.50854" lon="6.43851">
        <ele>1369</ele>
        <time>2018-06-22T12:39:26Z</time>
      </trkpt>
      <trkpt lat="45.50865" lon="6.43855">
        <ele>1369</ele>
        <time>2018-06-22T12:40:26Z</time>
      </trkpt>
      <trkpt lat="45.50861" lon="6.43848">
        <ele>1370</ele>
        <time>2018-06-22T12:41:26Z</time>
      </trkpt>
      <trkpt lat="45.50838" lon="6.43814">
        <ele>1390</ele>
        <time>2018-06-22T12:42:26Z</time>
      </trkpt>
      <trkpt lat="45.50803" lon="6.43775">
        <ele>1378</ele>
        <time>2018-06-22T12:43:26Z</time>
      </trkpt>
      <trkpt lat="45.508" lon="6.4377">
        <ele>1378</ele>
        <time>2018-06-22T12:44:26Z</time>
      </trkpt>
      <trkpt lat="45.50785" lon="6.43768">
        <ele>1373</ele>
        <time>2018-06-22T12:45:26Z</time>
      </trkpt>
      <trkpt lat="45.50777" lon="6.43752">
        <ele>1372</ele>
        <time>2018-06-22T12:46:26Z</time>
      </trkpt>
      <trkpt lat="45.50772" lon="6.43726">
        <ele>1389</ele>
        <time>2018-06-22T12:47:26Z</time>
      </trkpt>
      <trkpt lat="45.50766" lon="6.43715">
        <ele>1391</ele>
        <time>2018-06-22T12:48:26Z</time>
      </trkpt>
      <trkpt lat="45.50744" lon="6.43757">
        <ele>1355</ele>
        <time>2018-06-22T12:49:26Z</time>
      </trkpt>
      <trkpt lat="45.50748" lon="6.43809">
        <ele>1337</ele>
        <time>2018-06-22T12:50:26Z</time>
      </trkpt>
      <trkpt lat="45.5074" lon="6.43835">
        <ele>1328</ele>
        <time>2018-06-22T12:51:26Z</time>
      </trkpt>
      <trkpt lat="45.50713" lon="6.43855">
        <ele>1309</ele>
        <time>2018-06-22T12:52:26Z</time>
      </trkpt>
      <trkpt lat="45.50695" lon="6.43867">
        <ele>1302</ele>
        <time>2018-06-22T12:53:26Z</time>
      </trkpt>
      <trkpt lat="45.50673" lon="6.43852">
        <ele>1300</ele>
        <time>2018-06-22T12:54:26Z</time>
      </trkpt>
      <trkpt lat="45.50653" lon="6.43852">
        <ele>1278</ele>
        <time>2018-06-22T12:55:26Z</time>
      </trkpt>
      <trkpt lat="45.50644" lon="6.43791">
        <ele>1303</ele>
        <time>2018-06-22T12:56:26Z</time>
      </trkpt>
      <trkpt lat="45.50632" lon="6.43744">
        <ele>1332</ele>
        <time>2018-06-22T12:57:26Z</time>
      </trkpt>
      <trkpt lat="45.50616" lon="6.43705">
        <ele>1339</ele>
        <time>2018-06-22T12:58:26Z</time>
      </trkpt>
      <trkpt lat="45.50579" lon="6.43672">
        <ele>1351</ele>
        <time>2018-06-22T12:59:26Z</time>
      </trkpt>
      <trkpt lat="45.50554" lon="6.43668">
        <ele>1339</ele>
        <time>2018-06-22T13:00:26Z</time>
      </trkpt>
      <trkpt lat="45.50534" lon="6.4372">
        <ele>1323</ele>
        <time>2018-06-22T13:01:26Z</time>
      </trkpt>
      <trkpt lat="45.50519" lon="6.43759">
        <ele>1291</ele>
        <time>2018-06-22T13:02:26Z</time>
      </trkpt>
      <trkpt lat="45.5051" lon="6.43773">
        <ele>1288</ele>
        <time>2018-06-22T13:03:26Z</time>
      </trkpt>
      <trkpt lat="45.50498" lon="6.43773">
        <ele>1277</ele>
        <time>2018-06-22T13:04:26Z</time>
      </trkpt>
      <trkpt lat="45.50484" lon="6.43775">
        <ele>1273</ele>
        <time>2018-06-22T13:05:26Z</time>
      </trkpt>
      <trkpt lat="45.50482" lon="6.43766">
        <ele>1276</ele>
        <time>2018-06-22T13:06:26Z</time>
      </trkpt>
      <trkpt lat="45.50467" lon="6.43739">
        <ele>1300</ele>
        <time>2018-06-22T13:07:26Z</time>
      </trkpt>
      <trkpt lat="45.5046" lon="6.4373">
        <ele>1300</ele>
        <time>2018-06-22T13:08:26Z</time>
      </trkpt>
      <trkpt lat="45.50457" lon="6.43731">
        <ele>1299</ele>
        <time>2018-06-22T13:09:26Z</time>
      </trkpt>
      <trkpt lat="45.50454" lon="6.43739">
        <ele>1297</ele>
        <time>2018-06-22T13:10:26Z</time>
      </trkpt>
      <trkpt lat="45.50448" lon="6.43742">
        <ele>1295</ele>
        <time>2018-06-22T13:11:26Z</time>
      </trkpt>
      <trkpt lat="45.50441" lon="6.43737">
        <ele>1293</ele>
        <time>2018-06-22T13:12:26Z</time>
      </trkpt>
      <trkpt lat="45.50437" lon="6.43728">
        <ele>1295</ele>
        <time>2018-06-22T13:13:26Z</time>
      </trkpt>
      <trkpt lat="45.5043" lon="6.43709">
        <ele>1301</ele>
        <time>2018-06-22T13:14:26Z</time>
      </trkpt>
      <trkpt lat="45.50415" lon="6.43685">
        <ele>1295</ele>
        <time>2018-06-22T13:15:26Z</time>
      </trkpt>
      <trkpt lat="45.50406" lon="6.43672">
        <ele>1300</ele>
        <time>2018-06-22T13:16:26Z</time>
      </trkpt>
      <trkpt lat="45.50381" lon="6.43659">
        <ele>1314</ele>
        <time>2018-06-22T13:17:26Z</time>
      </trkpt>
      <trkpt lat="45.50374" lon="6.4364">
        <ele>1316</ele>
        <time>2018-06-22T13:18:26Z</time>
      </trkpt>
      <trkpt lat="45.50364" lon="6.43635">
        <ele>1315</ele>
        <time>2018-06-22T13:19:26Z</time>
      </trkpt>
      <trkpt lat="45.50352" lon="6.43625">
        <ele>1316</ele>
        <time>2018-06-22T13:20:26Z</time>
      </trkpt>
      <trkpt lat="45.50334" lon="6.43606">
        <ele>1320</ele>
        <time>2018-06-22T13:21:26Z</time>
      </trkpt>
      <trkpt lat="45.50321" lon="6.43593">
        <ele>1308</ele>
        <time>2018-06-22T13:22:26Z</time>
      </trkpt>
      <trkpt lat="45.5031" lon="6.43585">
        <ele>1303</ele>
        <time>2018-06-22T13:23:26Z</time>
      </trkpt>
      <trkpt lat="45.50288" lon="6.43568">
        <ele>1313</ele>
        <time>2018-06-22T13:24:26Z</time>
      </trkpt>
      <trkpt lat="45.5028" lon="6.4356">
        <ele>1312</ele>
        <time>2018-06-22T13:25:26Z</time>
      </trkpt>
      <trkpt lat="45.50263" lon="6.4354">
        <ele>1313</ele>
        <time>2018-06-22T13:26:26Z</time>
      </trkpt>
      <trkpt lat="45.50253" lon="6.43526">
        <ele>1314</ele>
        <time>2018-06-22T13:27:26Z</time>
      </trkpt>
      <trkpt lat="45.50244" lon="6.43516">
        <ele>1298</ele>
        <time>2018-06-22T13:28:26Z</time>
      </trkpt>
      <trkpt lat="45.50239" lon="6.43504">
        <ele>1301</ele>
        <time>2018-06-22T13:29:26Z</time>
      </trkpt>
      <trkpt lat="45.50228" lon="6.43488">
        <ele>1310</ele>
        <time>2018-06-22T13:30:26Z</time>
      </trkpt>
      <trkpt lat="45.50218" lon="6.43476">
        <ele>1309</ele>
        <time>2018-06-22T13:31:26Z</time>
      </trkpt>
      <trkpt lat="45.50206" lon="6.43467">
        <ele>1307</ele>
        <time>2018-06-22T13:32:26Z</time>
      </trkpt>
      <trkpt lat="45.50199" lon="6.4346">
        <ele>1307</ele>
        <time>2018-06-22T13:33:26Z</time>
      </trkpt>
      <trkpt lat="45.50196" lon="6.43457">
        <ele>1307</ele>
        <time>2018-06-22T13:34:26Z</time>
      </trkpt>
      <trkpt lat="45.50192" lon="6.4345">
        <ele>1307</ele>
        <time>2018-06-22T13:35:26Z</time>
      </trkpt>
      <trkpt lat="45.50188" lon="6.43441">
        <ele>1308</ele>
        <time>2018-06-22T13:36:26Z</time>
      </trkpt>
      <trkpt lat="45.50184" lon="6.43428">
        <ele>1308</ele>
        <time>2018-06-22T13:37:26Z</time>
      </trkpt>
      <trkpt lat="45.5018" lon="6.43415">
        <ele>1319</ele>
        <time>2018-06-22T13:38:26Z</time>
      </trkpt>
      <trkpt lat="45.50173" lon="6.43407">
        <ele>1317</ele>
        <time>2018-06-22T13:39:26Z</time>
      </trkpt>
      <trkpt lat="45.50165" lon="6.43401">
        <ele>1302</ele>
        <time>2018-06-22T13:40:26Z</time>
      </trkpt>
      <trkpt lat="45.5015" lon="6.43395">
        <ele>1300</ele>
        <time>2018-06-22T13:41:26Z</time>
      </trkpt>
      <trkpt lat="45.50141" lon="6.43389">
        <ele>1298</ele>
        <time>2018-06-22T13:42:26Z</time>
      </trkpt>
      <trkpt lat="45.5013" lon="6.43377">
        <ele>1297</ele>
        <time>2018-06-22T13:43:26Z</time>
      </trkpt>
      <trkpt lat="45.50126" lon="6.4337">
        <ele>1297</ele>
        <time>2018-06-22T13:44:26Z</time>
      </trkpt>
      <trkpt lat="45.50119" lon="6.43348">
        <ele>1298</ele>
        <time>2018-06-22T13:45:26Z</time>
      </trkpt>
      <trkpt lat="45.50115" lon="6.43339">
        <ele>1298</ele>
        <time>2018-06-22T13:46:26Z</time>
      </trkpt>
      <trkpt lat="45.50109" lon="6.43333">
        <ele>1313</ele>
        <time>2018-06-22T13:47:26Z</time>
      </trkpt>
      <trkpt lat="45.50099" lon="6.43326">
        <ele>1307</ele>
        <time>2018-06-22T13:48:26Z</time>
      </trkpt>
      <trkpt lat="45.50093" lon="6.43316">
        <ele>1309</ele>
        <time>2018-06-22T13:49:26Z</time>
      </trkpt>
      <trkpt lat="45.50074" lon="6.43277">
        <ele>1294</ele>
        <time>2018-06-22T13:50:26Z</time>
      </trkpt>
      <trkpt lat="45.50058" lon="6.43257">
        <ele>1295</ele>
        <time>2018-06-22T13:51:26Z</time>
      </trkpt>
      <trkpt lat="45.50043" lon="6.43238">
        <ele>1307</ele>
        <time>2018-06-22T13:52:26Z</time>
      </trkpt>
      <trkpt lat="45.50043" lon="6.43215">
        <ele>1309</ele>
        <time>2018-06-22T13:53:26Z</time>
      </trkpt>
      <trkpt lat="45.50038" lon="6.43206">
        <ele>1310</ele>
        <time>2018-06-22T13:54:26Z</time>
      </trkpt>
      <trkpt lat="45.50019" lon="6.43201">
        <ele>1307</ele>
        <time>2018-06-22T13:55:26Z</time>
      </trkpt>
      <trkpt lat="45.50002" lon="6.43191">
        <ele>1306</ele>
        <time>2018-06-22T13:56:26Z</time>
      </trkpt>
      <trkpt lat="45.49997" lon="6.43178">
        <ele>1296</ele>
        <time>2018-06-22T13:57:26Z</time>
      </trkpt>
      <trkpt lat="45.49989" lon="6.43183">
        <ele>1291</ele>
        <time>2018-06-22T13:58:26Z</time>
      </trkpt>
      <trkpt lat="45.49985" lon="6.43182">
        <ele>1290</ele>
        <time>2018-06-22T13:59:26Z</time>
      </trkpt>
      <trkpt lat="45.49975" lon="6.4317">
        <ele>1288</ele>
        <time>2018-06-22T14:00:26Z</time>
      </trkpt>
      <trkpt lat="45.49965" lon="6.43158">
        <ele>1303</ele>
        <time>2018-06-22T14:01:26Z</time>
      </trkpt>
      <trkpt lat="45.49961" lon="6.43149">
        <ele>1303</ele>
        <time>2018-06-22T14:02:26Z</time>
      </trkpt>
      <trkpt lat="45.49942" lon="6.43122">
        <ele>1304</ele>
        <time>2018-06-22T14:03:26Z</time>
      </trkpt>
      <trkpt lat="45.49939" lon="6.43108">
        <ele>1306</ele>
        <time>2018-06-22T14:04:26Z</time>
      </trkpt>
      <trkpt lat="45.49914" lon="6.43053">
        <ele>1298</ele>
        <time>2018-06-22T14:05:26Z</time>
      </trkpt>
      <trkpt lat="45.49909" lon="6.43039">
        <ele>1299</ele>
        <time>2018-06-22T14:06:26Z</time>
      </trkpt>
      <trkpt lat="45.49898" lon="6.42994">
        <ele>1312</ele>
        <time>2018-06-22T14:07:26Z</time>
      </trkpt>
      <trkpt lat="45.49899" lon="6.42993">
        <ele>1313</ele>
        <time>2018-06-22T14:08:26Z</time>
      </trkpt>
      <trkpt lat="45.49901" lon="6.4299">
        <ele>1313</ele>
        <time>2018-06-22T14:09:26Z</time>
      </trkpt>
      <trkpt lat="45.49901" lon="6.42986">
        <ele>1312</ele>
        <time>2018-06-22T14:10:26Z</time>
      </trkpt>
      <trkpt lat="45.49901" lon="6.4298">
        <ele>1311</ele>
        <time>2018-06-22T14:11:26Z</time>
      </trkpt>
      <trkpt lat="45.49896" lon="6.42949">
        <ele>1310</ele>
        <time>2018-06-22T14:12:26Z</time>
      </trkpt>
      <trkpt lat="45.49895" lon="6.42908">
        <ele>1319</ele>
        <time>2018-06-22T14:13:26Z</time>
      </trkpt>
      <trkpt lat="45.49894" lon="6.42899">
        <ele>1318</ele>
        <time>2018-06-22T14:14:26Z</time>
      </trkpt>
      <trkpt lat="45.49893" lon="6.4289">
        <ele>1317</ele>
        <time>2018-06-22T14:15:26Z</time>
      </trkpt>
      <trkpt lat="45.4989" lon="6.42879">
        <ele>1316</ele>
        <time>2018-06-22T14:16:26Z</time>
      </trkpt>
      <trkpt lat="45.4988" lon="6.42849">
        <ele>1315</ele>
        <time>2018-06-22T14:17:26Z</time>
      </trkpt>
      <trkpt lat="45.49875" lon="6.42829">
        <ele>1319</ele>
        <time>2018-06-22T14:18:26Z</time>
      </trkpt>
      <trkpt lat="45.49871" lon="6.42805">
        <ele>1318</ele>
        <time>2018-06-22T14:19:26Z</time>
      </trkpt>
      <trkpt lat="45.49871" lon="6.42798">
        <ele>1319</ele>
        <time>2018-06-22T14:20:26Z</time>
      </trkpt>
      <trkpt lat="45.49882" lon="6.4275">
        <ele>1327</ele>
        <time>2018-06-22T14:21:26Z</time>
      </trkpt>
      <trkpt lat="45.49884" lon="6.42738">
        <ele>1332</ele>
        <time>2018-06-22T14:22:26Z</time>
      </trkpt>
      <trkpt lat="45.49886" lon="6.42735">
        <ele>1333</ele>
        <time>2018-06-22T14:23:26Z</time>
      </trkpt>
      <trkpt lat="45.49881" lon="6.42722">
        <ele>1329</ele>
        <time>2018-06-22T14:24:26Z</time>
      </trkpt>
      <trkpt lat="45.49876" lon="6.42701">
        <ele>1327</ele>
        <time>2018-06-22T14:25:26Z</time>
      </trkpt>
      <trkpt lat="45.49875" lon="6.42692">
        <ele>1326</ele>
        <time>2018-06-22T14:26:26Z</time>
      </trkpt>
      <trkpt lat="45.49875" lon="6.42682">
        <ele>1326</ele>
        <time>2018-06-22T14:27:26Z</time>
      </trkpt>
      <trkpt lat="45.49875" lon="6.42634">
        <ele>1316</ele>
        <time>2018-06-22T14:28:26Z</time>
      </trkpt>
      <trkpt lat="45.4988" lon="6.4262">
        <ele>1316</ele>
        <time>2018-06-22T14:29:26Z</time>
      </trkpt>
      <trkpt lat="45.49885" lon="6.42603">
        <ele>1317</ele>
        <time>2018-06-22T14:30:26Z</time>
      </trkpt>
      <trkpt lat="45.49886" lon="6.42595">
        <ele>1318</ele>
        <time>2018-06-22T14:31:26Z</time>
      </trkpt>
      <trkpt lat="45.49886" lon="6.42578">
        <ele>1310</ele>
        <time>2018-06-22T14:32:26Z</time>
      </trkpt>
      <trkpt lat="45.49887" lon="6.42573">
        <ele>1310</ele>
        <time>2018-06-22T14:33:26Z</time>
      </trkpt>
      <trkpt lat="45.49893" lon="6.42548">
        <ele>1311</ele>
        <time>2018-06-22T14:34:26Z</time>
      </trkpt>
      <trkpt lat="45.49893" lon="6.42532">
        <ele>1312</ele>
        <time>2018-06-22T14:35:26Z</time>
      </trkpt>
      <trkpt lat="45.49893" lon="6.42514">
        <ele>1317</ele>
        <time>2018-06-22T14:36:26Z</time>
      </trkpt>
      <trkpt lat="45.49897" lon="6.42502">
        <ele>1324</ele>
        <time>2018-06-22T14:37:26Z</time>
      </trkpt>
      <trkpt lat="45.499" lon="6.42497">
        <ele>1323</ele>
        <time>2018-06-22T14:38:26Z</time>
      </trkpt>
      <trkpt lat="45.49904" lon="6.42493">
        <ele>1327</ele>
        <time>2018-06-22T14:39:26Z</time>
      </trkpt>
      <trkpt lat="45.49913" lon="6.42488">
        <ele>1331</ele>
        <time>2018-06-22T14:40:26Z</time>
      </trkpt>
      <trkpt lat="45.49921" lon="6.42483">
        <ele>1369</ele>
        <time>2018-06-22T14:41:26Z</time>
      </trkpt>
      <trkpt lat="45.49932" lon="6.42471">
        <ele>1375</ele>
        <time>2018-06-22T14:42:26Z</time>
      </trkpt>
      <trkpt lat="45.49936" lon="6.42459">
        <ele>1375</ele>
        <time>2018-06-22T14:43:26Z</time>
      </trkpt>
      <trkpt lat="45.49945" lon="6.42433">
        <ele>1373</ele>
        <time>2018-06-22T14:44:26Z</time>
      </trkpt>
      <trkpt lat="45.49952" lon="6.42425">
        <ele>1378</ele>
        <time>2018-06-22T14:45:26Z</time>
      </trkpt>
      <trkpt lat="45.49958" lon="6.42417">
        <ele>1382</ele>
        <time>2018-06-22T14:46:26Z</time>
      </trkpt>
      <trkpt lat="45.49958" lon="6.42412">
        <ele>1383</ele>
        <time>2018-06-22T14:47:26Z</time>
      </trkpt>
      <trkpt lat="45.49956" lon="6.42399">
        <ele>1383</ele>
        <time>2018-06-22T14:48:26Z</time>
      </trkpt>
      <trkpt lat="45.49953" lon="6.42393">
        <ele>1382</ele>
        <time>2018-06-22T14:49:26Z</time>
      </trkpt>
      <trkpt lat="45.4995" lon="6.4239">
        <ele>1380</ele>
        <time>2018-06-22T14:50:26Z</time>
      </trkpt>
      <trkpt lat="45.49936" lon="6.4238">
        <ele>1375</ele>
        <time>2018-06-22T14:51:26Z</time>
      </trkpt>
      <trkpt lat="45.49929" lon="6.4237">
        <ele>1374</ele>
        <time>2018-06-22T14:52:26Z</time>
      </trkpt>
      <trkpt lat="45.49916" lon="6.42356">
        <ele>1325</ele>
        <time>2018-06-22T14:53:26Z</time>
      </trkpt>
      <trkpt lat="45.49913" lon="6.42348">
        <ele>1331</ele>
        <time>2018-06-22T14:54:26Z</time>
      </trkpt>
      <trkpt lat="45.49913" lon="6.42343">
        <ele>1337</ele>
        <time>2018-06-22T14:55:26Z</time>
      </trkpt>
      <trkpt lat="45.49914" lon="6.4232">
        <ele>1346</ele>
        <time>2018-06-22T14:56:26Z</time>
      </trkpt>
      <trkpt lat="45.49913" lon="6.42312">
        <ele>1343</ele>
        <time>2018-06-22T14:57:26Z</time>
      </trkpt>
      <trkpt lat="45.49907" lon="6.42289">
        <ele>1343</ele>
        <time>2018-06-22T14:58:26Z</time>
      </trkpt>
      <trkpt lat="45.49908" lon="6.42272">
        <ele>1351</ele>
        <time>2018-06-22T14:59:26Z</time>
      </trkpt>
      <trkpt lat="45.49911" lon="6.42251">
        <ele>1371</ele>
        <time>2018-06-22T15:00:26Z</time>
      </trkpt>
      <trkpt lat="45.49911" lon="6.42232">
        <ele>1364</ele>
        <time>2018-06-22T15:01:26Z</time>
      </trkpt>
      <trkpt lat="45.49912" lon="6.42228">
        <ele>1363</ele>
        <time>2018-06-22T15:02:26Z</time>
      </trkpt>
      <trkpt lat="45.4992" lon="6.42207">
        <ele>1406</ele>
        <time>2018-06-22T15:03:26Z</time>
      </trkpt>
      <trkpt lat="45.49921" lon="6.422">
        <ele>1406</ele>
        <time>2018-06-22T15:04:26Z</time>
      </trkpt>
      <trkpt lat="45.49921" lon="6.42192">
        <ele>1404</ele>
        <time>2018-06-22T15:05:26Z</time>
      </trkpt>
      <trkpt lat="45.49917" lon="6.42172">
        <ele>1390</ele>
        <time>2018-06-22T15:06:26Z</time>
      </trkpt>
      <trkpt lat="45.49917" lon="6.42163">
        <ele>1388</ele>
        <time>2018-06-22T15:07:26Z</time>
      </trkpt>
      <trkpt lat="45.49918" lon="6.42156">
        <ele>1396</ele>
        <time>2018-06-22T15:08:26Z</time>
      </trkpt>
      <trkpt lat="45.49921" lon="6.42132">
        <ele>1408</ele>
        <time>2018-06-22T15:09:26Z</time>
      </trkpt>
      <trkpt lat="45.49921" lon="6.42123">
        <ele>1409</ele>
        <time>2018-06-22T15:10:26Z</time>
      </trkpt>
      <trkpt lat="45.4992" lon="6.42113">
        <ele>1408</ele>
        <time>2018-06-22T15:11:26Z</time>
      </trkpt>
      <trkpt lat="45.4991" lon="6.42074">
        <ele>1386</ele>
        <time>2018-06-22T15:12:26Z</time>
      </trkpt>
      <trkpt lat="45.4991" lon="6.42065">
        <ele>1382</ele>
        <time>2018-06-22T15:13:26Z</time>
      </trkpt>
      <trkpt lat="45.49909" lon="6.42044">
        <ele>1379</ele>
        <time>2018-06-22T15:14:26Z</time>
      </trkpt>
      <trkpt lat="45.49911" lon="6.41985">
        <ele>1388</ele>
        <time>2018-06-22T15:15:26Z</time>
      </trkpt>
      <trkpt lat="45.49913" lon="6.41967">
        <ele>1382</ele>
        <time>2018-06-22T15:16:26Z</time>
      </trkpt>
      <trkpt lat="45.49914" lon="6.41948">
        <ele>1382</ele>
        <time>2018-06-22T15:17:26Z</time>
      </trkpt>
      <trkpt lat="45.49916" lon="6.41935">
        <ele>1386</ele>
        <time>2018-06-22T15:18:26Z</time>
      </trkpt>
      <trkpt lat="45.49919" lon="6.41922">
        <ele>1404</ele>
        <time>2018-06-22T15:19:26Z</time>
      </trkpt>
      <trkpt lat="45.49927" lon="6.4188">
        <ele>1416</ele>
        <time>2018-06-22T15:20:26Z</time>
      </trkpt>
      <trkpt lat="45.49934" lon="6.41813">
        <ele>1411</ele>
        <time>2018-06-22T15:21:26Z</time>
      </trkpt>
      <trkpt lat="45.49937" lon="6.41801">
        <ele>1412</ele>
        <time>2018-06-22T15:22:26Z</time>
      </trkpt>
      <trkpt lat="45.4994" lon="6.41789">
        <ele>1412</ele>
        <time>2018-06-22T15:23:26Z</time>
      </trkpt>
      <trkpt lat="45.49943" lon="6.41781">
        <ele>1412</ele>
        <time>2018-06-22T15:24:26Z</time>
      </trkpt>
      <trkpt lat="45.49958" lon="6.41758">
        <ele>1415</ele>
        <time>2018-06-22T15:25:26Z</time>
      </trkpt>
      <trkpt lat="45.49966" lon="6.41752">
        <ele>1419</ele>
        <time>2018-06-22T15:26:26Z</time>
      </trkpt>
      <trkpt lat="45.49973" lon="6.41747">
        <ele>1415</ele>
        <time>2018-06-22T15:27:26Z</time>
      </trkpt>
      <trkpt lat="45.49978" lon="6.41741">
        <ele>1418</ele>
        <time>2018-06-22T15:28:26Z</time>
      </trkpt>
      <trkpt lat="45.49985" lon="6.41726">
        <ele>1417</ele>
        <time>2018-06-22T15:29:26Z</time>
      </trkpt>
      <trkpt lat="45.49994" lon="6.4171">
        <ele>1415</ele>
        <time>2018-06-22T15:30:26Z</time>
      </trkpt>
      <trkpt lat="45.49997" lon="6.41706">
        <ele>1415</ele>
        <time>2018-06-22T15:31:26Z</time>
      </trkpt>
      <trkpt lat="45.5" lon="6.41702">
        <ele>1433</ele>
        <time>2018-06-22T15:32:26Z</time>
      </trkpt>
      <trkpt lat="45.50002" lon="6.41697">
        <ele>1451</ele>
        <time>2018-06-22T15:33:26Z</time>
      </trkpt>
      <trkpt lat="45.50007" lon="6.41661">
        <ele>1435</ele>
        <time>2018-06-22T15:34:26Z</time>
      </trkpt>
      <trkpt lat="45.50017" lon="6.41631">
        <ele>1446</ele>
        <time>2018-06-22T15:35:26Z</time>
      </trkpt>
      <trkpt lat="45.50019" lon="6.41609">
        <ele>1444</ele>
        <time>2018-06-22T15:36:26Z</time>
      </trkpt>
      <trkpt lat="45.50029" lon="6.41569">
        <ele>1442</ele>
        <time>2018-06-22T15:37:26Z</time>
      </trkpt>
      <trkpt lat="45.50031" lon="6.41551">
        <ele>1444</ele>
        <time>2018-06-22T15:38:26Z</time>
      </trkpt>
      <trkpt lat="45.50039" lon="6.41513">
        <ele>1446</ele>
        <time>2018-06-22T15:39:26Z</time>
      </trkpt>
      <trkpt lat="45.50046" lon="6.41496">
        <ele>1448</ele>
        <time>2018-06-22T15:40:26Z</time>
      </trkpt>
      <trkpt lat="45.50054" lon="6.41484">
        <ele>1451</ele>
        <time>2018-06-22T15:41:26Z</time>
      </trkpt>
      <trkpt lat="45.5006" lon="6.41471">
        <ele>1452</ele>
        <time>2018-06-22T15:42:26Z</time>
      </trkpt>
      <trkpt lat="45.50067" lon="6.41458">
        <ele>1452</ele>
        <time>2018-06-22T15:43:26Z</time>
      </trkpt>
      <trkpt lat="45.50073" lon="6.4143">
        <ele>1454</ele>
        <time>2018-06-22T15:44:26Z</time>
      </trkpt>
      <trkpt lat="45.50081" lon="6.41414">
        <ele>1459</ele>
        <time>2018-06-22T15:45:26Z</time>
      </trkpt>
      <trkpt lat="45.50085" lon="6.41397">
        <ele>1470</ele>
        <time>2018-06-22T15:46:26Z</time>
      </trkpt>
      <trkpt lat="45.5009" lon="6.41389">
        <ele>1472</ele>
        <time>2018-06-22T15:47:26Z</time>
      </trkpt>
      <trkpt lat="45.50103" lon="6.41371">
        <ele>1474</ele>
        <time>2018-06-22T15:48:26Z</time>
      </trkpt>
      <trkpt lat="45.50114" lon="6.41346">
        <ele>1474</ele>
        <time>2018-06-22T15:49:26Z</time>
      </trkpt>
      <trkpt lat="45.50135" lon="6.41289">
        <ele>1474</ele>
        <time>2018-06-22T15:50:26Z</time>
      </trkpt>
      <trkpt lat="45.50143" lon="6.41275">
        <ele>1475</ele>
        <time>2018-06-22T15:51:26Z</time>
      </trkpt>
      <trkpt lat="45.50151" lon="6.41264">
        <ele>1477</ele>
        <time>2018-06-22T15:52:26Z</time>
      </trkpt>
      <trkpt lat="45.50154" lon="6.41254">
        <ele>1479</ele>
        <time>2018-06-22T15:53:26Z</time>
      </trkpt>
      <trkpt lat="45.50159" lon="6.41237">
        <ele>1481</ele>
        <time>2018-06-22T15:54:26Z</time>
      </trkpt>
      <trkpt lat="45.50164" lon="6.41226">
        <ele>1481</ele>
        <time>2018-06-22T15:55:26Z</time>
      </trkpt>
      <trkpt lat="45.50174" lon="6.41195">
        <ele>1504</ele>
        <time>2018-06-22T15:56:26Z</time>
      </trkpt>
      <trkpt lat="45.5018" lon="6.41166">
        <ele>1501</ele>
        <time>2018-06-22T15:57:26Z</time>
      </trkpt>
      <trkpt lat="45.50181" lon="6.4115">
        <ele>1506</ele>
        <time>2018-06-22T15:58:26Z</time>
      </trkpt>
      <trkpt lat="45.50184" lon="6.4114">
        <ele>1509</ele>
        <time>2018-06-22T15:59:26Z</time>
      </trkpt>
      <trkpt lat="45.50188" lon="6.41126">
        <ele>1511</ele>
        <time>2018-06-22T16:00:26Z</time>
      </trkpt>
      <trkpt lat="45.5019" lon="6.41113">
        <ele>1511</ele>
        <time>2018-06-22T16:01:26Z</time>
      </trkpt>
      <trkpt lat="45.50192" lon="6.41089">
        <ele>1509</ele>
        <time>2018-06-22T16:02:26Z</time>
      </trkpt>
      <trkpt lat="45.50197" lon="6.4107">
        <ele>1514</ele>
        <time>2018-06-22T16:03:26Z</time>
      </trkpt>
      <trkpt lat="45.50197" lon="6.41057">
        <ele>1515</ele>
        <time>2018-06-22T16:04:26Z</time>
      </trkpt>
      <trkpt lat="45.50198" lon="6.41049">
        <ele>1516</ele>
        <time>2018-06-22T16:05:26Z</time>
      </trkpt>
      <trkpt lat="45.50197" lon="6.41044">
        <ele>1516</ele>
        <time>2018-06-22T16:06:26Z</time>
      </trkpt>
      <trkpt lat="45.50197" lon="6.41036">
        <ele>1517</ele>
        <time>2018-06-22T16:07:26Z</time>
      </trkpt>
      <trkpt lat="45.50198" lon="6.4103">
        <ele>1517</ele>
        <time>2018-06-22T16:08:26Z</time>
      </trkpt>
      <trkpt lat="45.50206" lon="6.41021">
        <ele>1519</ele>
        <time>2018-06-22T16:09:26Z</time>
      </trkpt>
      <trkpt lat="45.50221" lon="6.41008">
        <ele>1523</ele>
        <time>2018-06-22T16:10:26Z</time>
      </trkpt>
      <trkpt lat="45.50228" lon="6.40985">
        <ele>1528</ele>
        <time>2018-06-22T16:11:26Z</time>
      </trkpt>
      <trkpt lat="45.50236" lon="6.40969">
        <ele>1529</ele>
        <time>2018-06-22T16:12:26Z</time>
      </trkpt>
      <trkpt lat="45.50243" lon="6.4095">
        <ele>1529</ele>
        <time>2018-06-22T16:13:26Z</time>
      </trkpt>
      <trkpt lat="45.50251" lon="6.4093">
        <ele>1544</ele>
        <time>2018-06-22T16:14:26Z</time>
      </trkpt>
      <trkpt lat="45.50257" lon="6.40917">
        <ele>1541</ele>
        <time>2018-06-22T16:15:26Z</time>
      </trkpt>
      <trkpt lat="45.50266" lon="6.40898">
        <ele>1550</ele>
        <time>2018-06-22T16:16:26Z</time>
      </trkpt>
      <trkpt lat="45.50271" lon="6.40881">
        <ele>1554</ele>
        <time>2018-06-22T16:17:26Z</time>
      </trkpt>
      <trkpt lat="45.50276" lon="6.40866">
        <ele>1555</ele>
        <time>2018-06-22T16:18:26Z</time>
      </trkpt>
      <trkpt lat="45.50279" lon="6.40853">
        <ele>1555</ele>
        <time>2018-06-22T16:19:26Z</time>
      </trkpt>
      <trkpt lat="45.50284" lon="6.40826">
        <ele>1558</ele>
        <time>2018-06-22T16:20:26Z</time>
      </trkpt>
      <trkpt lat="45.50289" lon="6.40812">
        <ele>1560</ele>
        <time>2018-06-22T16:21:26Z</time>
      </trkpt>
      <trkpt lat="45.50297" lon="6.40801">
        <ele>1563</ele>
        <time>2018-06-22T16:22:26Z</time>
      </trkpt>
      <trkpt lat="45.50314" lon="6.40779">
        <ele>1567</ele>
        <time>2018-06-22T16:23:26Z</time>
      </trkpt>
      <trkpt lat="45.50328" lon="6.40757">
        <ele>1575</ele>
        <time>2018-06-22T16:24:26Z</time>
      </trkpt>
      <trkpt lat="45.50348" lon="6.40735">
        <ele>1595</ele>
        <time>2018-06-22T16:25:26Z</time>
      </trkpt>
      <trkpt lat="45.50366" lon="6.40717">
        <ele>1604</ele>
        <time>2018-06-22T16:26:26Z</time>
      </trkpt>
      <trkpt lat="45.50384" lon="6.407">
        <ele>1609</ele>
        <time>2018-06-22T16:27:26Z</time>
      </trkpt>
      <trkpt lat="45.50406" lon="6.40682">
        <ele>1618</ele>
        <time>2018-06-22T16:28:26Z</time>
      </trkpt>
      <trkpt lat="45.5042" lon="6.40669">
        <ele>1635</ele>
        <time>2018-06-22T16:29:26Z</time>
      </trkpt>
      <trkpt lat="45.50421" lon="6.40667">
        <ele>1635</ele>
        <time>2018-06-22T16:30:26Z</time>
      </trkpt>
      <trkpt lat="45.5042" lon="6.40669">
        <ele>1635</ele>
        <time>2018-06-22T16:31:26Z</time>
      </trkpt>
      <trkpt lat="45.50406" lon="6.40682">
        <ele>1618</ele>
        <time>2018-06-22T16:32:26Z</time>
      </trkpt>
      <trkpt lat="45.50384" lon="6.407">
        <ele>1609</ele>
        <time>2018-06-22T16:33:26Z</time>
      </trkpt>
      <trkpt lat="45.50366" lon="6.40717">
        <ele>1604</ele>
        <time>2018-06-22T16:34:26Z</time>
      </trkpt>
      <trkpt lat="45.50348" lon="6.40735">
        <ele>1595</ele>
        <time>2018-06-22T16:35:26Z</time>
      </trkpt>
      <trkpt lat="45.50328" lon="6.40757">
        <ele>1575</ele>
        <time>2018-06-22T16:36:26Z</time>
      </trkpt>
      <trkpt lat="45.50314" lon="6.40779">
        <ele>1567</ele>
        <time>2018-06-22T16:37:26Z</time>
      </trkpt>
      <trkpt lat="45.50297" lon="6.40801">
        <ele>1563</ele>
        <time>2018-06-22T16:38:26Z</time>
      </trkpt>
      <trkpt lat="45.50289" lon="6.40812">
        <ele>1560</ele>
        <time>2018-06-22T16:39:26Z</time>
      </trkpt>
      <trkpt lat="45.50284" lon="6.40826">
        <ele>1558</ele>
        <time>2018-06-22T16:40:26Z</time>
      </trkpt>
      <trkpt lat="45.50276" lon="6.40866">
        <ele>1555</ele>
        <time>2018-06-22T16:41:26Z</time>
      </trkpt>
      <trkpt lat="45.50271" lon="6.40881">
        <ele>1554</ele>
        <time>2018-06-22T16:42:26Z</time>
      </trkpt>
      <trkpt lat="45.50266" lon="6.40898">
        <ele>1550</ele>
        <time>2018-06-22T16:43:26Z</time>
      </trkpt>
      <trkpt lat="45.50257" lon="6.40917">
        <ele>1541</ele>
        <time>2018-06-22T16:44:26Z</time>
      </trkpt>
      <trkpt lat="45.50251" lon="6.4093">
        <ele>1544</ele>
        <time>2018-06-22T16:45:26Z</time>
      </trkpt>
      <trkpt lat="45.50243" lon="6.4095">
        <ele>1529</ele>
        <time>2018-06-22T16:46:26Z</time>
      </trkpt>
      <trkpt lat="45.50236" lon="6.40969">
        <ele>1529</ele>
        <time>2018-06-22T16:47:26Z</time>
      </trkpt>
      <trkpt lat="45.50228" lon="6.40985">
        <ele>1528</ele>
        <time>2018-06-22T16:48:26Z</time>
      </trkpt>
      <trkpt lat="45.50221" lon="6.41008">
        <ele>1523</ele>
        <time>2018-06-22T16:49:26Z</time>
      </trkpt>
      <trkpt lat="45.50213" lon="6.41016">
        <ele>1521</ele>
        <time>2018-06-22T16:50:26Z</time>
      </trkpt>
      <trkpt lat="45.50198" lon="6.4103">
        <ele>1517</ele>
        <time>2018-06-22T16:51:26Z</time>
      </trkpt>
      <trkpt lat="45.50197" lon="6.41036">
        <ele>1517</ele>
        <time>2018-06-22T16:52:26Z</time>
      </trkpt>
      <trkpt lat="45.50198" lon="6.41049">
        <ele>1516</ele>
        <time>2018-06-22T16:53:26Z</time>
      </trkpt>
      <trkpt lat="45.50197" lon="6.41057">
        <ele>1515</ele>
        <time>2018-06-22T16:54:26Z</time>
      </trkpt>
      <trkpt lat="45.50197" lon="6.4107">
        <ele>1514</ele>
        <time>2018-06-22T16:55:26Z</time>
      </trkpt>
      <trkpt lat="45.50192" lon="6.41089">
        <ele>1509</ele>
        <time>2018-06-22T16:56:26Z</time>
      </trkpt>
      <trkpt lat="45.5019" lon="6.41113">
        <ele>1511</ele>
        <time>2018-06-22T16:57:26Z</time>
      </trkpt>
      <trkpt lat="45.50188" lon="6.41126">
        <ele>1511</ele>
        <time>2018-06-22T16:58:26Z</time>
      </trkpt>
      <trkpt lat="45.50181" lon="6.4115">
        <ele>1506</ele>
        <time>2018-06-22T16:59:26Z</time>
      </trkpt>
      <trkpt lat="45.5018" lon="6.41166">
        <ele>1501</ele>
        <time>2018-06-22T17:00:26Z</time>
      </trkpt>
      <trkpt lat="45.50174" lon="6.41195">
        <ele>1504</ele>
        <time>2018-06-22T17:01:26Z</time>
      </trkpt>
      <trkpt lat="45.50171" lon="6.41203">
        <ele>1504</ele>
        <time>2018-06-22T17:02:26Z</time>
      </trkpt>
      <trkpt lat="45.50168" lon="6.41188">
        <ele>1502</ele>
        <time>2018-06-22T17:03:26Z</time>
      </trkpt>
      <trkpt lat="45.50155" lon="6.41186">
        <ele>1484</ele>
        <time>2018-06-22T17:04:26Z</time>
      </trkpt>
      <trkpt lat="45.50152" lon="6.41188">
        <ele>1483</ele>
        <time>2018-06-22T17:05:26Z</time>
      </trkpt>
      <trkpt lat="45.50145" lon="6.41196">
        <ele>1482</ele>
        <time>2018-06-22T17:06:26Z</time>
      </trkpt>
      <trkpt lat="45.50142" lon="6.41198">
        <ele>1481</ele>
        <time>2018-06-22T17:07:26Z</time>
      </trkpt>
      <trkpt lat="45.50136" lon="6.41198">
        <ele>1481</ele>
        <time>2018-06-22T17:08:26Z</time>
      </trkpt>
      <trkpt lat="45.50133" lon="6.41198">
        <ele>1481</ele>
        <time>2018-06-22T17:09:26Z</time>
      </trkpt>
      <trkpt lat="45.50131" lon="6.41203">
        <ele>1480</ele>
        <time>2018-06-22T17:10:26Z</time>
      </trkpt>
      <trkpt lat="45.50132" lon="6.41213">
        <ele>1479</ele>
        <time>2018-06-22T17:11:26Z</time>
      </trkpt>
      <trkpt lat="45.50131" lon="6.41217">
        <ele>1479</ele>
        <time>2018-06-22T17:12:26Z</time>
      </trkpt>
      <trkpt lat="45.50123" lon="6.41229">
        <ele>1477</ele>
        <time>2018-06-22T17:13:26Z</time>
      </trkpt>
      <trkpt lat="45.5012" lon="6.41237">
        <ele>1476</ele>
        <time>2018-06-22T17:14:26Z</time>
      </trkpt>
      <trkpt lat="45.50119" lon="6.41242">
        <ele>1475</ele>
        <time>2018-06-22T17:15:26Z</time>
      </trkpt>
      <trkpt lat="45.50116" lon="6.41245">
        <ele>1474</ele>
        <time>2018-06-22T17:16:26Z</time>
      </trkpt>
      <trkpt lat="45.50113" lon="6.41251">
        <ele>1469</ele>
        <time>2018-06-22T17:17:26Z</time>
      </trkpt>
      <trkpt lat="45.50113" lon="6.41258">
        <ele>1469</ele>
        <time>2018-06-22T17:18:26Z</time>
      </trkpt>
      <trkpt lat="45.50112" lon="6.41263">
        <ele>1469</ele>
        <time>2018-06-22T17:19:26Z</time>
      </trkpt>
      <trkpt lat="45.50109" lon="6.41265">
        <ele>1468</ele>
        <time>2018-06-22T17:20:26Z</time>
      </trkpt>
      <trkpt lat="45.50105" lon="6.41271">
        <ele>1468</ele>
        <time>2018-06-22T17:21:26Z</time>
      </trkpt>
      <trkpt lat="45.50103" lon="6.41284">
        <ele>1468</ele>
        <time>2018-06-22T17:22:26Z</time>
      </trkpt>
      <trkpt lat="45.501" lon="6.4129">
        <ele>1468</ele>
        <time>2018-06-22T17:23:26Z</time>
      </trkpt>
      <trkpt lat="45.50096" lon="6.41295">
        <ele>1467</ele>
        <time>2018-06-22T17:24:26Z</time>
      </trkpt>
      <trkpt lat="45.50085" lon="6.41315">
        <ele>1462</ele>
        <time>2018-06-22T17:25:26Z</time>
      </trkpt>
      <trkpt lat="45.5008" lon="6.41319">
        <ele>1456</ele>
        <time>2018-06-22T17:26:26Z</time>
      </trkpt>
      <trkpt lat="45.50072" lon="6.41323">
        <ele>1456</ele>
        <time>2018-06-22T17:27:26Z</time>
      </trkpt>
      <trkpt lat="45.50071" lon="6.41328">
        <ele>1456</ele>
        <time>2018-06-22T17:28:26Z</time>
      </trkpt>
      <trkpt lat="45.50072" lon="6.41331">
        <ele>1455</ele>
        <time>2018-06-22T17:29:26Z</time>
      </trkpt>
      <trkpt lat="45.50077" lon="6.41337">
        <ele>1452</ele>
        <time>2018-06-22T17:30:26Z</time>
      </trkpt>
      <trkpt lat="45.50076" lon="6.41338">
        <ele>1452</ele>
        <time>2018-06-22T17:31:26Z</time>
      </trkpt>
      <trkpt lat="45.50077" lon="6.41343">
        <ele>1451</ele>
        <time>2018-06-22T17:32:26Z</time>
      </trkpt>
      <trkpt lat="45.50076" lon="6.41343">
        <ele>1451</ele>
        <time>2018-06-22T17:33:26Z</time>
      </trkpt>
      <trkpt lat="45.50074" lon="6.41345">
        <ele>1451</ele>
        <time>2018-06-22T17:34:26Z</time>
      </trkpt>
      <trkpt lat="45.50074" lon="6.41347">
        <ele>1451</ele>
        <time>2018-06-22T17:35:26Z</time>
      </trkpt>
      <trkpt lat="45.50072" lon="6.41352">
        <ele>1451</ele>
        <time>2018-06-22T17:36:26Z</time>
      </trkpt>
      <trkpt lat="45.50067" lon="6.41358">
        <ele>1451</ele>
        <time>2018-06-22T17:37:26Z</time>
      </trkpt>
      <trkpt lat="45.5006" lon="6.41364">
        <ele>1451</ele>
        <time>2018-06-22T17:38:26Z</time>
      </trkpt>
      <trkpt lat="45.50055" lon="6.4137">
        <ele>1450</ele>
        <time>2018-06-22T17:39:26Z</time>
      </trkpt>
      <trkpt lat="45.50042" lon="6.41383">
        <ele>1449</ele>
        <time>2018-06-22T17:40:26Z</time>
      </trkpt>
      <trkpt lat="45.50041" lon="6.41388">
        <ele>1448</ele>
        <time>2018-06-22T17:41:26Z</time>
      </trkpt>
      <trkpt lat="45.5004" lon="6.41392">
        <ele>1448</ele>
        <time>2018-06-22T17:42:26Z</time>
      </trkpt>
      <trkpt lat="45.50037" lon="6.41395">
        <ele>1447</ele>
        <time>2018-06-22T17:43:26Z</time>
      </trkpt>
      <trkpt lat="45.50035" lon="6.41396">
        <ele>1447</ele>
        <time>2018-06-22T17:44:26Z</time>
      </trkpt>
      <trkpt lat="45.50034" lon="6.41401">
        <ele>1446</ele>
        <time>2018-06-22T17:45:26Z</time>
      </trkpt>
      <trkpt lat="45.50032" lon="6.41408">
        <ele>1445</ele>
        <time>2018-06-22T17:46:26Z</time>
      </trkpt>
      <trkpt lat="45.50029" lon="6.41412">
        <ele>1444</ele>
        <time>2018-06-22T17:47:26Z</time>
      </trkpt>
      <trkpt lat="45.50025" lon="6.41414">
        <ele>1443</ele>
        <time>2018-06-22T17:48:26Z</time>
      </trkpt>
      <trkpt lat="45.50022" lon="6.41415">
        <ele>1442</ele>
        <time>2018-06-22T17:49:26Z</time>
      </trkpt>
      <trkpt lat="45.50018" lon="6.41418">
        <ele>1438</ele>
        <time>2018-06-22T17:50:26Z</time>
      </trkpt>
      <trkpt lat="45.50014" lon="6.41426">
        <ele>1437</ele>
        <time>2018-06-22T17:51:26Z</time>
      </trkpt>
      <trkpt lat="45.50011" lon="6.4143">
        <ele>1437</ele>
        <time>2018-06-22T17:52:26Z</time>
      </trkpt>
      <trkpt lat="45.50007" lon="6.41432">
        <ele>1437</ele>
        <time>2018-06-22T17:53:26Z</time>
      </trkpt>
      <trkpt lat="45.50001" lon="6.4144">
        <ele>1437</ele>
        <time>2018-06-22T17:54:26Z</time>
      </trkpt>
      <trkpt lat="45.49997" lon="6.41443">
        <ele>1430</ele>
        <time>2018-06-22T17:55:26Z</time>
      </trkpt>
      <trkpt lat="45.49992" lon="6.41451">
        <ele>1429</ele>
        <time>2018-06-22T17:56:26Z</time>
      </trkpt>
      <trkpt lat="45.4998" lon="6.41486">
        <ele>1425</ele>
        <time>2018-06-22T17:57:26Z</time>
      </trkpt>
      <trkpt lat="45.49974" lon="6.41495">
        <ele>1425</ele>
        <time>2018-06-22T17:58:26Z</time>
      </trkpt>
      <trkpt lat="45.49969" lon="6.41503">
        <ele>1414</ele>
        <time>2018-06-22T17:59:26Z</time>
      </trkpt>
      <trkpt lat="45.49964" lon="6.4152">
        <ele>1414</ele>
        <time>2018-06-22T18:00:26Z</time>
      </trkpt>
      <trkpt lat="45.49948" lon="6.41542">
        <ele>1412</ele>
        <time>2018-06-22T18:01:26Z</time>
      </trkpt>
      <trkpt lat="45.49909" lon="6.41591">
        <ele>1393</ele>
        <time>2018-06-22T18:02:26Z</time>
      </trkpt>
      <trkpt lat="45.49909" lon="6.41598">
        <ele>1393</ele>
        <time>2018-06-22T18:03:26Z</time>
      </trkpt>
      <trkpt lat="45.49913" lon="6.41602">
        <ele>1392</ele>
        <time>2018-06-22T18:04:26Z</time>
      </trkpt>
      <trkpt lat="45.49918" lon="6.41605">
        <ele>1396</ele>
        <time>2018-06-22T18:05:26Z</time>
      </trkpt>
      <trkpt lat="45.49922" lon="6.41606">
        <ele>1397</ele>
        <time>2018-06-22T18:06:26Z</time>
      </trkpt>
      <trkpt lat="45.49925" lon="6.41609">
        <ele>1397</ele>
        <time>2018-06-22T18:07:26Z</time>
      </trkpt>
      <trkpt lat="45.49924" lon="6.41612">
        <ele>1397</ele>
        <time>2018-06-22T18:08:26Z</time>
      </trkpt>
      <trkpt lat="45.4992" lon="6.41621">
        <ele>1396</ele>
        <time>2018-06-22T18:09:26Z</time>
      </trkpt>
      <trkpt lat="45.49912" lon="6.41629">
        <ele>1388</ele>
        <time>2018-06-22T18:10:26Z</time>
      </trkpt>
      <trkpt lat="45.49898" lon="6.41654">
        <ele>1384</ele>
        <time>2018-06-22T18:11:26Z</time>
      </trkpt>
      <trkpt lat="45.49895" lon="6.41658">
        <ele>1384</ele>
        <time>2018-06-22T18:12:26Z</time>
      </trkpt>
      <trkpt lat="45.49889" lon="6.41662">
        <ele>1385</ele>
        <time>2018-06-22T18:13:26Z</time>
      </trkpt>
      <trkpt lat="45.49882" lon="6.41673">
        <ele>1374</ele>
        <time>2018-06-22T18:14:26Z</time>
      </trkpt>
      <trkpt lat="45.4988" lon="6.41677">
        <ele>1374</ele>
        <time>2018-06-22T18:15:26Z</time>
      </trkpt>
      <trkpt lat="45.49866" lon="6.41695">
        <ele>1374</ele>
        <time>2018-06-22T18:16:26Z</time>
      </trkpt>
      <trkpt lat="45.4986" lon="6.41711">
        <ele>1372</ele>
        <time>2018-06-22T18:17:26Z</time>
      </trkpt>
      <trkpt lat="45.49848" lon="6.41736">
        <ele>1365</ele>
        <time>2018-06-22T18:18:26Z</time>
      </trkpt>
      <trkpt lat="45.49843" lon="6.41744">
        <ele>1362</ele>
        <time>2018-06-22T18:19:26Z</time>
      </trkpt>
      <trkpt lat="45.49838" lon="6.41748">
        <ele>1358</ele>
        <time>2018-06-22T18:20:26Z</time>
      </trkpt>
      <trkpt lat="45.49828" lon="6.41747">
        <ele>1363</ele>
        <time>2018-06-22T18:21:26Z</time>
      </trkpt>
      <trkpt lat="45.49826" lon="6.41748">
        <ele>1364</ele>
        <time>2018-06-22T18:22:26Z</time>
      </trkpt>
      <trkpt lat="45.4982" lon="6.41761">
        <ele>1360</ele>
        <time>2018-06-22T18:23:26Z</time>
      </trkpt>
      <trkpt lat="45.49817" lon="6.4177">
        <ele>1361</ele>
        <time>2018-06-22T18:24:26Z</time>
      </trkpt>
      <trkpt lat="45.49813" lon="6.41774">
        <ele>1362</ele>
        <time>2018-06-22T18:25:26Z</time>
      </trkpt>
      <trkpt lat="45.49808" lon="6.41777">
        <ele>1363</ele>
        <time>2018-06-22T18:26:26Z</time>
      </trkpt>
      <trkpt lat="45.49789" lon="6.41793">
        <ele>1365</ele>
        <time>2018-06-22T18:27:26Z</time>
      </trkpt>
      <trkpt lat="45.49788" lon="6.41796">
        <ele>1364</ele>
        <time>2018-06-22T18:28:26Z</time>
      </trkpt>
      <trkpt lat="45.49787" lon="6.41806">
        <ele>1363</ele>
        <time>2018-06-22T18:29:26Z</time>
      </trkpt>
      <trkpt lat="45.49781" lon="6.41823">
        <ele>1361</ele>
        <time>2018-06-22T18:30:26Z</time>
      </trkpt>
      <trkpt lat="45.49771" lon="6.41843">
        <ele>1347</ele>
        <time>2018-06-22T18:31:26Z</time>
      </trkpt>
      <trkpt lat="45.49769" lon="6.41852">
        <ele>1346</ele>
        <time>2018-06-22T18:32:26Z</time>
      </trkpt>
      <trkpt lat="45.49768" lon="6.41857">
        <ele>1345</ele>
        <time>2018-06-22T18:33:26Z</time>
      </trkpt>
      <trkpt lat="45.49765" lon="6.41863">
        <ele>1344</ele>
        <time>2018-06-22T18:34:26Z</time>
      </trkpt>
      <trkpt lat="45.4975" lon="6.41893">
        <ele>1336</ele>
        <time>2018-06-22T18:35:26Z</time>
      </trkpt>
      <trkpt lat="45.4975" lon="6.41897">
        <ele>1335</ele>
        <time>2018-06-22T18:36:26Z</time>
      </trkpt>
      <trkpt lat="45.4975" lon="6.41908">
        <ele>1331</ele>
        <time>2018-06-22T18:37:26Z</time>
      </trkpt>
      <trkpt lat="45.49752" lon="6.41912">
        <ele>1329</ele>
        <time>2018-06-22T18:38:26Z</time>
      </trkpt>
      <trkpt lat="45.49754" lon="6.41913">
        <ele>1329</ele>
        <time>2018-06-22T18:39:26Z</time>
      </trkpt>
      <trkpt lat="45.49754" lon="6.41916">
        <ele>1328</ele>
        <time>2018-06-22T18:40:26Z</time>
      </trkpt>
      <trkpt lat="45.49753" lon="6.41919">
        <ele>1326</ele>
        <time>2018-06-22T18:41:26Z</time>
      </trkpt>
      <trkpt lat="45.49751" lon="6.41923">
        <ele>1326</ele>
        <time>2018-06-22T18:42:26Z</time>
      </trkpt>
      <trkpt lat="45.49746" lon="6.41928">
        <ele>1333</ele>
        <time>2018-06-22T18:43:26Z</time>
      </trkpt>
      <trkpt lat="45.4974" lon="6.41931">
        <ele>1335</ele>
        <time>2018-06-22T18:44:26Z</time>
      </trkpt>
      <trkpt lat="45.49735" lon="6.4194">
        <ele>1337</ele>
        <time>2018-06-22T18:45:26Z</time>
      </trkpt>
      <trkpt lat="45.49744" lon="6.41946">
        <ele>1335</ele>
        <time>2018-06-22T18:46:26Z</time>
      </trkpt>
      <trkpt lat="45.49747" lon="6.41954">
        <ele>1334</ele>
        <time>2018-06-22T18:47:26Z</time>
      </trkpt>
      <trkpt lat="45.49751" lon="6.41958">
        <ele>1324</ele>
        <time>2018-06-22T18:48:26Z</time>
      </trkpt>
      <trkpt lat="45.49754" lon="6.41962">
        <ele>1323</ele>
        <time>2018-06-22T18:49:26Z</time>
      </trkpt>
      <trkpt lat="45.49759" lon="6.41972">
        <ele>1322</ele>
        <time>2018-06-22T18:50:26Z</time>
      </trkpt>
      <trkpt lat="45.49761" lon="6.4198">
        <ele>1320</ele>
        <time>2018-06-22T18:51:26Z</time>
      </trkpt>
      <trkpt lat="45.4976" lon="6.41994">
        <ele>1314</ele>
        <time>2018-06-22T18:52:26Z</time>
      </trkpt>
      <trkpt lat="45.49759" lon="6.41998">
        <ele>1313</ele>
        <time>2018-06-22T18:53:26Z</time>
      </trkpt>
      <trkpt lat="45.49755" lon="6.42006">
        <ele>1308</ele>
        <time>2018-06-22T18:54:26Z</time>
      </trkpt>
      <trkpt lat="45.49754" lon="6.42012">
        <ele>1310</ele>
        <time>2018-06-22T18:55:26Z</time>
      </trkpt>
      <trkpt lat="45.49751" lon="6.42021">
        <ele>1311</ele>
        <time>2018-06-22T18:56:26Z</time>
      </trkpt>
      <trkpt lat="45.49748" lon="6.42025">
        <ele>1311</ele>
        <time>2018-06-22T18:57:26Z</time>
      </trkpt>
      <trkpt lat="45.49745" lon="6.42028">
        <ele>1311</ele>
        <time>2018-06-22T18:58:26Z</time>
      </trkpt>
      <trkpt lat="45.49741" lon="6.42036">
        <ele>1311</ele>
        <time>2018-06-22T18:59:26Z</time>
      </trkpt>
      <trkpt lat="45.49742" lon="6.42044">
        <ele>1310</ele>
        <time>2018-06-22T19:00:26Z</time>
      </trkpt>
      <trkpt lat="45.49744" lon="6.42056">
        <ele>1306</ele>
        <time>2018-06-22T19:01:26Z</time>
      </trkpt>
      <trkpt lat="45.49744" lon="6.42069">
        <ele>1300</ele>
        <time>2018-06-22T19:02:26Z</time>
      </trkpt>
      <trkpt lat="45.49742" lon="6.42074">
        <ele>1298</ele>
        <time>2018-06-22T19:03:26Z</time>
      </trkpt>
      <trkpt lat="45.49735" lon="6.42091">
        <ele>1291</ele>
        <time>2018-06-22T19:04:26Z</time>
      </trkpt>
      <trkpt lat="45.49733" lon="6.42102">
        <ele>1291</ele>
        <time>2018-06-22T19:05:26Z</time>
      </trkpt>
      <trkpt lat="45.49731" lon="6.42123">
        <ele>1290</ele>
        <time>2018-06-22T19:06:26Z</time>
      </trkpt>
      <trkpt lat="45.49729" lon="6.42155">
        <ele>1283</ele>
        <time>2018-06-22T19:07:26Z</time>
      </trkpt>
      <trkpt lat="45.49726" lon="6.42158">
        <ele>1283</ele>
        <time>2018-06-22T19:08:26Z</time>
      </trkpt>
      <trkpt lat="45.49717" lon="6.42183">
        <ele>1268</ele>
        <time>2018-06-22T19:09:26Z</time>
      </trkpt>
      <trkpt lat="45.49714" lon="6.42194">
        <ele>1268</ele>
        <time>2018-06-22T19:10:26Z</time>
      </trkpt>
      <trkpt lat="45.49712" lon="6.42208">
        <ele>1266</ele>
        <time>2018-06-22T19:11:26Z</time>
      </trkpt>
      <trkpt lat="45.49701" lon="6.4225">
        <ele>1246</ele>
        <time>2018-06-22T19:12:26Z</time>
      </trkpt>
      <trkpt lat="45.49688" lon="6.42279">
        <ele>1246</ele>
        <time>2018-06-22T19:13:26Z</time>
      </trkpt>
      <trkpt lat="45.49682" lon="6.42297">
        <ele>1243</ele>
        <time>2018-06-22T19:14:26Z</time>
      </trkpt>
      <trkpt lat="45.49682" lon="6.42302">
        <ele>1243</ele>
        <time>2018-06-22T19:15:26Z</time>
      </trkpt>
      <trkpt lat="45.49682" lon="6.42321">
        <ele>1241</ele>
        <time>2018-06-22T19:16:26Z</time>
      </trkpt>
      <trkpt lat="45.49681" lon="6.4233">
        <ele>1242</ele>
        <time>2018-06-22T19:17:26Z</time>
      </trkpt>
      <trkpt lat="45.49674" lon="6.42348">
        <ele>1231</ele>
        <time>2018-06-22T19:18:26Z</time>
      </trkpt>
      <trkpt lat="45.49667" lon="6.42364">
        <ele>1225</ele>
        <time>2018-06-22T19:19:26Z</time>
      </trkpt>
      <trkpt lat="45.49658" lon="6.42377">
        <ele>1247</ele>
        <time>2018-06-22T19:20:26Z</time>
      </trkpt>
      <trkpt lat="45.49645" lon="6.4239">
        <ele>1247</ele>
        <time>2018-06-22T19:21:26Z</time>
      </trkpt>
      <trkpt lat="45.49641" lon="6.42396">
        <ele>1247</ele>
        <time>2018-06-22T19:22:26Z</time>
      </trkpt>
      <trkpt lat="45.49637" lon="6.4241">
        <ele>1245</ele>
        <time>2018-06-22T19:23:26Z</time>
      </trkpt>
      <trkpt lat="45.49635" lon="6.42421">
        <ele>1228</ele>
        <time>2018-06-22T19:24:26Z</time>
      </trkpt>
      <trkpt lat="45.49632" lon="6.42431">
        <ele>1229</ele>
        <time>2018-06-22T19:25:26Z</time>
      </trkpt>
      <trkpt lat="45.49616" lon="6.42465">
        <ele>1229</ele>
        <time>2018-06-22T19:26:26Z</time>
      </trkpt>
      <trkpt lat="45.49608" lon="6.42492">
        <ele>1229</ele>
        <time>2018-06-22T19:27:26Z</time>
      </trkpt>
      <trkpt lat="45.49604" lon="6.42501">
        <ele>1218</ele>
        <time>2018-06-22T19:28:26Z</time>
      </trkpt>
      <trkpt lat="45.49599" lon="6.42507">
        <ele>1221</ele>
        <time>2018-06-22T19:29:26Z</time>
      </trkpt>
      <trkpt lat="45.49595" lon="6.42516">
        <ele>1219</ele>
        <time>2018-06-22T19:30:26Z</time>
      </trkpt>
      <trkpt lat="45.49589" lon="6.42532">
        <ele>1214</ele>
        <time>2018-06-22T19:31:26Z</time>
      </trkpt>
      <trkpt lat="45.49575" lon="6.42568">
        <ele>1240</ele>
        <time>2018-06-22T19:32:26Z</time>
      </trkpt>
      <trkpt lat="45.49574" lon="6.4258">
        <ele>1233</ele>
        <time>2018-06-22T19:33:26Z</time>
      </trkpt>
      <trkpt lat="45.49572" lon="6.42601">
        <ele>1228</ele>
        <time>2018-06-22T19:34:26Z</time>
      </trkpt>
      <trkpt lat="45.4957" lon="6.4261">
        <ele>1229</ele>
        <time>2018-06-22T19:35:26Z</time>
      </trkpt>
      <trkpt lat="45.49566" lon="6.4262">
        <ele>1229</ele>
        <time>2018-06-22T19:36:26Z</time>
      </trkpt>
      <trkpt lat="45.49564" lon="6.42629">
        <ele>1228</ele>
        <time>2018-06-22T19:37:26Z</time>
      </trkpt>
      <trkpt lat="45.49563" lon="6.42649">
        <ele>1223</ele>
        <time>2018-06-22T19:38:26Z</time>
      </trkpt>
      <trkpt lat="45.4956" lon="6.42676">
        <ele>1206</ele>
        <time>2018-06-22T19:39:26Z</time>
      </trkpt>
      <trkpt lat="45.49557" lon="6.42687">
        <ele>1207</ele>
        <time>2018-06-22T19:40:26Z</time>
      </trkpt>
      <trkpt lat="45.49551" lon="6.42697">
        <ele>1207</ele>
        <time>2018-06-22T19:41:26Z</time>
      </trkpt>
      <trkpt lat="45.49536" lon="6.42719">
        <ele>1207</ele>
        <time>2018-06-22T19:42:26Z</time>
      </trkpt>
      <trkpt lat="45.49504" lon="6.42736">
        <ele>1210</ele>
        <time>2018-06-22T19:43:26Z</time>
      </trkpt>
      <trkpt lat="45.49497" lon="6.42741">
        <ele>1224</ele>
        <time>2018-06-22T19:44:26Z</time>
      </trkpt>
      <trkpt lat="45.49487" lon="6.4276">
        <ele>1210</ele>
        <time>2018-06-22T19:45:26Z</time>
      </trkpt>
      <trkpt lat="45.4948" lon="6.42765">
        <ele>1210</ele>
        <time>2018-06-22T19:46:26Z</time>
      </trkpt>
      <trkpt lat="45.49481" lon="6.4275">
        <ele>1211</ele>
        <time>2018-06-22T19:47:26Z</time>
      </trkpt>
      <trkpt lat="45.49482" lon="6.42733">
        <ele>1236</ele>
        <time>2018-06-22T19:48:26Z</time>
      </trkpt>
      <trkpt lat="45.49486" lon="6.42719">
        <ele>1241</ele>
        <time>2018-06-22T19:49:26Z</time>
      </trkpt>
      <trkpt lat="45.49495" lon="6.42704">
        <ele>1244</ele>
        <time>2018-06-22T19:50:26Z</time>
      </trkpt>
      <trkpt lat="45.4951" lon="6.42688">
        <ele>1222</ele>
        <time>2018-06-22T19:51:26Z</time>
      </trkpt>
      <trkpt lat="45.49517" lon="6.42678">
        <ele>1224</ele>
        <time>2018-06-22T19:52:26Z</time>
      </trkpt>
      <trkpt lat="45.4952" lon="6.42669">
        <ele>1224</ele>
        <time>2018-06-22T19:53:26Z</time>
      </trkpt>
      <trkpt lat="45.49522" lon="6.42658">
        <ele>1238</ele>
        <time>2018-06-22T19:54:26Z</time>
      </trkpt>
      <trkpt lat="45.49523" lon="6.42648">
        <ele>1238</ele>
        <time>2018-06-22T19:55:26Z</time>
      </trkpt>
      <trkpt lat="45.4952" lon="6.42632">
        <ele>1241</ele>
        <time>2018-06-22T19:56:26Z</time>
      </trkpt>
      <trkpt lat="45.49517" lon="6.42617">
        <ele>1246</ele>
        <time>2018-06-22T19:57:26Z</time>
      </trkpt>
      <trkpt lat="45.49517" lon="6.42605">
        <ele>1251</ele>
        <time>2018-06-22T19:58:26Z</time>
      </trkpt>
      <trkpt lat="45.49519" lon="6.42586">
        <ele>1257</ele>
        <time>2018-06-22T19:59:26Z</time>
      </trkpt>
      <trkpt lat="45.49526" lon="6.42538">
        <ele>1271</ele>
        <time>2018-06-22T20:00:26Z</time>
      </trkpt>
      <trkpt lat="45.4953" lon="6.42527">
        <ele>1272</ele>
        <time>2018-06-22T20:01:26Z</time>
      </trkpt>
      <trkpt lat="45.49534" lon="6.42516">
        <ele>1272</ele>
        <time>2018-06-22T20:02:26Z</time>
      </trkpt>
      <trkpt lat="45.49543" lon="6.42485">
        <ele>1287</ele>
        <time>2018-06-22T20:03:26Z</time>
      </trkpt>
      <trkpt lat="45.49548" lon="6.42474">
        <ele>1286</ele>
        <time>2018-06-22T20:04:26Z</time>
      </trkpt>
      <trkpt lat="45.49558" lon="6.4245">
        <ele>1286</ele>
        <time>2018-06-22T20:05:26Z</time>
      </trkpt>
      <trkpt lat="45.4956" lon="6.42442">
        <ele>1286</ele>
        <time>2018-06-22T20:06:26Z</time>
      </trkpt>
      <trkpt lat="45.49561" lon="6.42427">
        <ele>1286</ele>
        <time>2018-06-22T20:07:26Z</time>
      </trkpt>
      <trkpt lat="45.49564" lon="6.4242">
        <ele>1284</ele>
        <time>2018-06-22T20:08:26Z</time>
      </trkpt>
      <trkpt lat="45.49568" lon="6.42413">
        <ele>1295</ele>
        <time>2018-06-22T20:09:26Z</time>
      </trkpt>
      <trkpt lat="45.4957" lon="6.42403">
        <ele>1298</ele>
        <time>2018-06-22T20:10:26Z</time>
      </trkpt>
      <trkpt lat="45.49571" lon="6.42394">
        <ele>1302</ele>
        <time>2018-06-22T20:11:26Z</time>
      </trkpt>
      <trkpt lat="45.4957" lon="6.42361">
        <ele>1312</ele>
        <time>2018-06-22T20:12:26Z</time>
      </trkpt>
      <trkpt lat="45.49568" lon="6.42355">
        <ele>1312</ele>
        <time>2018-06-22T20:13:26Z</time>
      </trkpt>
      <trkpt lat="45.49564" lon="6.42358">
        <ele>1314</ele>
        <time>2018-06-22T20:14:26Z</time>
      </trkpt>
      <trkpt lat="45.49559" lon="6.42368">
        <ele>1315</ele>
        <time>2018-06-22T20:15:26Z</time>
      </trkpt>
      <trkpt lat="45.49557" lon="6.42365">
        <ele>1316</ele>
        <time>2018-06-22T20:16:26Z</time>
      </trkpt>
      <trkpt lat="45.49558" lon="6.42357">
        <ele>1316</ele>
        <time>2018-06-22T20:17:26Z</time>
      </trkpt>
      <trkpt lat="45.49563" lon="6.42342">
        <ele>1314</ele>
        <time>2018-06-22T20:18:26Z</time>
      </trkpt>
      <trkpt lat="45.49566" lon="6.42338">
        <ele>1312</ele>
        <time>2018-06-22T20:19:26Z</time>
      </trkpt>
      <trkpt lat="45.49566" lon="6.42334">
        <ele>1312</ele>
        <time>2018-06-22T20:20:26Z</time>
      </trkpt>
      <trkpt lat="45.49562" lon="6.42334">
        <ele>1314</ele>
        <time>2018-06-22T20:21:26Z</time>
      </trkpt>
      <trkpt lat="45.49559" lon="6.42339">
        <ele>1316</ele>
        <time>2018-06-22T20:22:26Z</time>
      </trkpt>
      <trkpt lat="45.49557" lon="6.4234">
        <ele>1317</ele>
        <time>2018-06-22T20:23:26Z</time>
      </trkpt>
      <trkpt lat="45.49557" lon="6.42331">
        <ele>1334</ele>
        <time>2018-06-22T20:24:26Z</time>
      </trkpt>
      <trkpt lat="45.49559" lon="6.42324">
        <ele>1334</ele>
        <time>2018-06-22T20:25:26Z</time>
      </trkpt>
      <trkpt lat="45.49557" lon="6.42325">
        <ele>1335</ele>
        <time>2018-06-22T20:26:26Z</time>
      </trkpt>
      <trkpt lat="45.49548" lon="6.42334">
        <ele>1322</ele>
        <time>2018-06-22T20:27:26Z</time>
      </trkpt>
      <trkpt lat="45.4954" lon="6.42337">
        <ele>1326</ele>
        <time>2018-06-22T20:28:26Z</time>
      </trkpt>
      <trkpt lat="45.49535" lon="6.42341">
        <ele>1329</ele>
        <time>2018-06-22T20:29:26Z</time>
      </trkpt>
      <trkpt lat="45.49532" lon="6.42345">
        <ele>1331</ele>
        <time>2018-06-22T20:30:26Z</time>
      </trkpt>
      <trkpt lat="45.49532" lon="6.4234">
        <ele>1331</ele>
        <time>2018-06-22T20:31:26Z</time>
      </trkpt>
      <trkpt lat="45.49529" lon="6.42346">
        <ele>1332</ele>
        <time>2018-06-22T20:32:26Z</time>
      </trkpt>
      <trkpt lat="45.49526" lon="6.42355">
        <ele>1332</ele>
        <time>2018-06-22T20:33:26Z</time>
      </trkpt>
      <trkpt lat="45.4952" lon="6.42366">
        <ele>1331</ele>
        <time>2018-06-22T20:34:26Z</time>
      </trkpt>
      <trkpt lat="45.49516" lon="6.42372">
        <ele>1330</ele>
        <time>2018-06-22T20:35:26Z</time>
      </trkpt>
      <trkpt lat="45.4951" lon="6.42375">
        <ele>1331</ele>
        <time>2018-06-22T20:36:26Z</time>
      </trkpt>
      <trkpt lat="45.49503" lon="6.4238">
        <ele>1331</ele>
        <time>2018-06-22T20:37:26Z</time>
      </trkpt>
      <trkpt lat="45.49496" lon="6.42391">
        <ele>1364</ele>
        <time>2018-06-22T20:38:26Z</time>
      </trkpt>
      <trkpt lat="45.49468" lon="6.42418">
        <ele>1354</ele>
        <time>2018-06-22T20:39:26Z</time>
      </trkpt>
      <trkpt lat="45.49461" lon="6.42417">
        <ele>1357</ele>
        <time>2018-06-22T20:40:26Z</time>
      </trkpt>
      <trkpt lat="45.49461" lon="6.42399">
        <ele>1375</ele>
        <time>2018-06-22T20:41:26Z</time>
      </trkpt>
      <trkpt lat="45.49457" lon="6.42398">
        <ele>1377</ele>
        <time>2018-06-22T20:42:26Z</time>
      </trkpt>
      <trkpt lat="45.4945" lon="6.42403">
        <ele>1379</ele>
        <time>2018-06-22T20:43:26Z</time>
      </trkpt>
      <trkpt lat="45.49447" lon="6.42399">
        <ele>1381</ele>
        <time>2018-06-22T20:44:26Z</time>
      </trkpt>
      <trkpt lat="45.49446" lon="6.42388">
        <ele>1382</ele>
        <time>2018-06-22T20:45:26Z</time>
      </trkpt>
      <trkpt lat="45.49442" lon="6.42396">
        <ele>1383</ele>
        <time>2018-06-22T20:46:26Z</time>
      </trkpt>
      <trkpt lat="45.4943" lon="6.42416">
        <ele>1387</ele>
        <time>2018-06-22T20:47:26Z</time>
      </trkpt>
      <trkpt lat="45.49411" lon="6.42455">
        <ele>1393</ele>
        <time>2018-06-22T20:48:26Z</time>
      </trkpt>
      <trkpt lat="45.49406" lon="6.42459">
        <ele>1393</ele>
        <time>2018-06-22T20:49:26Z</time>
      </trkpt>
      <trkpt lat="45.49385" lon="6.42463">
        <ele>1396</ele>
        <time>2018-06-22T20:50:26Z</time>
      </trkpt>
      <trkpt lat="45.49383" lon="6.42462">
        <ele>1397</ele>
        <time>2018-06-22T20:51:26Z</time>
      </trkpt>
      <trkpt lat="45.49384" lon="6.4246">
        <ele>1397</ele>
        <time>2018-06-22T20:52:26Z</time>
      </trkpt>
      <trkpt lat="45.49392" lon="6.42454">
        <ele>1396</ele>
        <time>2018-06-22T20:53:26Z</time>
      </trkpt>
      <trkpt lat="45.49395" lon="6.42443">
        <ele>1397</ele>
        <time>2018-06-22T20:54:26Z</time>
      </trkpt>
      <trkpt lat="45.49395" lon="6.42431">
        <ele>1398</ele>
        <time>2018-06-22T20:55:26Z</time>
      </trkpt>
      <trkpt lat="45.49392" lon="6.4242">
        <ele>1399</ele>
        <time>2018-06-22T20:56:26Z</time>
      </trkpt>
      <trkpt lat="45.49392" lon="6.42409">
        <ele>1417</ele>
        <time>2018-06-22T20:57:26Z</time>
      </trkpt>
      <trkpt lat="45.49393" lon="6.42399">
        <ele>1419</ele>
        <time>2018-06-22T20:58:26Z</time>
      </trkpt>
      <trkpt lat="45.49392" lon="6.42372">
        <ele>1426</ele>
        <time>2018-06-22T20:59:26Z</time>
      </trkpt>
      <trkpt lat="45.49392" lon="6.42369">
        <ele>1426</ele>
        <time>2018-06-22T21:00:26Z</time>
      </trkpt>
      <trkpt lat="45.4939" lon="6.4237">
        <ele>1427</ele>
        <time>2018-06-22T21:01:26Z</time>
      </trkpt>
      <trkpt lat="45.49372" lon="6.42425">
        <ele>1405</ele>
        <time>2018-06-22T21:02:26Z</time>
      </trkpt>
      <trkpt lat="45.4936" lon="6.42445">
        <ele>1405</ele>
        <time>2018-06-22T21:03:26Z</time>
      </trkpt>
      <trkpt lat="45.49351" lon="6.42444">
        <ele>1408</ele>
        <time>2018-06-22T21:04:26Z</time>
      </trkpt>
      <trkpt lat="45.49337" lon="6.42441">
        <ele>1412</ele>
        <time>2018-06-22T21:05:26Z</time>
      </trkpt>
      <trkpt lat="45.49324" lon="6.42429">
        <ele>1423</ele>
        <time>2018-06-22T21:06:26Z</time>
      </trkpt>
      <trkpt lat="45.49291" lon="6.42402">
        <ele>1440</ele>
        <time>2018-06-22T21:07:26Z</time>
      </trkpt>
      <trkpt lat="45.49259" lon="6.4238">
        <ele>1442</ele>
        <time>2018-06-22T21:08:26Z</time>
      </trkpt>
      <trkpt lat="45.49236" lon="6.42356">
        <ele>1432</ele>
        <time>2018-06-22T21:09:26Z</time>
      </trkpt>
      <trkpt lat="45.49221" lon="6.4233">
        <ele>1448</ele>
        <time>2018-06-22T21:10:26Z</time>
      </trkpt>
      <trkpt lat="45.49228" lon="6.42328">
        <ele>1450</ele>
        <time>2018-06-22T21:11:26Z</time>
      </trkpt>
      <trkpt lat="45.49229" lon="6.42323">
        <ele>1450</ele>
        <time>2018-06-22T21:12:26Z</time>
      </trkpt>
      <trkpt lat="45.49229" lon="6.42311">
        <ele>1451</ele>
        <time>2018-06-22T21:13:26Z</time>
      </trkpt>
      <trkpt lat="45.4922" lon="6.42293">
        <ele>1450</ele>
        <time>2018-06-22T21:14:26Z</time>
      </trkpt>
      <trkpt lat="45.49209" lon="6.42265">
        <ele>1451</ele>
        <time>2018-06-22T21:15:26Z</time>
      </trkpt>
      <trkpt lat="45.49205" lon="6.42257">
        <ele>1450</ele>
        <time>2018-06-22T21:16:26Z</time>
      </trkpt>
      <trkpt lat="45.49199" lon="6.42243">
        <ele>1461</ele>
        <time>2018-06-22T21:17:26Z</time>
      </trkpt>
      <trkpt lat="45.49197" lon="6.42231">
        <ele>1462</ele>
        <time>2018-06-22T21:18:26Z</time>
      </trkpt>
      <trkpt lat="45.49188" lon="6.42183">
        <ele>1463</ele>
        <time>2018-06-22T21:19:26Z</time>
      </trkpt>
      <trkpt lat="45.49185" lon="6.4216">
        <ele>1472</ele>
        <time>2018-06-22T21:20:26Z</time>
      </trkpt>
      <trkpt lat="45.49184" lon="6.42142">
        <ele>1479</ele>
        <time>2018-06-22T21:21:26Z</time>
      </trkpt>
      <trkpt lat="45.49182" lon="6.42132">
        <ele>1481</ele>
        <time>2018-06-22T21:22:26Z</time>
      </trkpt>
      <trkpt lat="45.49181" lon="6.42123">
        <ele>1483</ele>
        <time>2018-06-22T21:23:26Z</time>
      </trkpt>
      <trkpt lat="45.49183" lon="6.4213">
        <ele>1482</ele>
        <time>2018-06-22T21:24:26Z</time>
      </trkpt>
      <trkpt lat="45.49193" lon="6.42156">
        <ele>1479</ele>
        <time>2018-06-22T21:25:26Z</time>
      </trkpt>
      <trkpt lat="45.49202" lon="6.42172">
        <ele>1469</ele>
        <time>2018-06-22T21:26:26Z</time>
      </trkpt>
      <trkpt lat="45.49211" lon="6.42188">
        <ele>1472</ele>
        <time>2018-06-22T21:27:26Z</time>
      </trkpt>
      <trkpt lat="45.4922" lon="6.42201">
        <ele>1474</ele>
        <time>2018-06-22T21:28:26Z</time>
      </trkpt>
      <trkpt lat="45.4924" lon="6.42226">
        <ele>1476</ele>
        <time>2018-06-22T21:29:26Z</time>
      </trkpt>
      <trkpt lat="45.49251" lon="6.42235">
        <ele>1493</ele>
        <time>2018-06-22T21:30:26Z</time>
      </trkpt>
      <trkpt lat="45.49277" lon="6.42261">
        <ele>1482</ele>
        <time>2018-06-22T21:31:26Z</time>
      </trkpt>
      <trkpt lat="45.49288" lon="6.42269">
        <ele>1482</ele>
        <time>2018-06-22T21:32:26Z</time>
      </trkpt>
      <trkpt lat="45.49295" lon="6.4227">
        <ele>1483</ele>
        <time>2018-06-22T21:33:26Z</time>
      </trkpt>
      <trkpt lat="45.49303" lon="6.42266">
        <ele>1485</ele>
        <time>2018-06-22T21:34:26Z</time>
      </trkpt>
      <trkpt lat="45.49301" lon="6.42261">
        <ele>1485</ele>
        <time>2018-06-22T21:35:26Z</time>
      </trkpt>
      <trkpt lat="45.49295" lon="6.42251">
        <ele>1485</ele>
        <time>2018-06-22T21:36:26Z</time>
      </trkpt>
      <trkpt lat="45.49291" lon="6.42242">
        <ele>1501</ele>
        <time>2018-06-22T21:37:26Z</time>
      </trkpt>
      <trkpt lat="45.49285" lon="6.42236">
        <ele>1501</ele>
        <time>2018-06-22T21:38:26Z</time>
      </trkpt>
      <trkpt lat="45.49285" lon="6.4223">
        <ele>1501</ele>
        <time>2018-06-22T21:39:26Z</time>
      </trkpt>
      <trkpt lat="45.49301" lon="6.42234">
        <ele>1503</ele>
        <time>2018-06-22T21:40:26Z</time>
      </trkpt>
      <trkpt lat="45.49309" lon="6.42236">
        <ele>1504</ele>
        <time>2018-06-22T21:41:26Z</time>
      </trkpt>
      <trkpt lat="45.49304" lon="6.42227">
        <ele>1504</ele>
        <time>2018-06-22T21:42:26Z</time>
      </trkpt>
      <trkpt lat="45.49298" lon="6.42215">
        <ele>1505</ele>
        <time>2018-06-22T21:43:26Z</time>
      </trkpt>
      <trkpt lat="45.49295" lon="6.42204">
        <ele>1506</ele>
        <time>2018-06-22T21:44:26Z</time>
      </trkpt>
      <trkpt lat="45.49293" lon="6.42193">
        <ele>1507</ele>
        <time>2018-06-22T21:45:26Z</time>
      </trkpt>
      <trkpt lat="45.49288" lon="6.42183">
        <ele>1508</ele>
        <time>2018-06-22T21:46:26Z</time>
      </trkpt>
      <trkpt lat="45.49286" lon="6.42173">
        <ele>1508</ele>
        <time>2018-06-22T21:47:26Z</time>
      </trkpt>
      <trkpt lat="45.49282" lon="6.42154">
        <ele>1527</ele>
        <time>2018-06-22T21:48:26Z</time>
      </trkpt>
      <trkpt lat="45.49278" lon="6.42145">
        <ele>1528</ele>
        <time>2018-06-22T21:49:26Z</time>
      </trkpt>
      <trkpt lat="45.49278" lon="6.42135">
        <ele>1530</ele>
        <time>2018-06-22T21:50:26Z</time>
      </trkpt>
      <trkpt lat="45.49277" lon="6.42126">
        <ele>1532</ele>
        <time>2018-06-22T21:51:26Z</time>
      </trkpt>
      <trkpt lat="45.49283" lon="6.42129">
        <ele>1532</ele>
        <time>2018-06-22T21:52:26Z</time>
      </trkpt>
      <trkpt lat="45.493" lon="6.42136">
        <ele>1533</ele>
        <time>2018-06-22T21:53:26Z</time>
      </trkpt>
      <trkpt lat="45.49295" lon="6.4213">
        <ele>1534</ele>
        <time>2018-06-22T21:54:26Z</time>
      </trkpt>
      <trkpt lat="45.49283" lon="6.42115">
        <ele>1535</ele>
        <time>2018-06-22T21:55:26Z</time>
      </trkpt>
      <trkpt lat="45.49278" lon="6.42105">
        <ele>1535</ele>
        <time>2018-06-22T21:56:26Z</time>
      </trkpt>
      <trkpt lat="45.49274" lon="6.42095">
        <ele>1536</ele>
        <time>2018-06-22T21:57:26Z</time>
      </trkpt>
      <trkpt lat="45.49277" lon="6.42095">
        <ele>1536</ele>
        <time>2018-06-22T21:58:26Z</time>
      </trkpt>
      <trkpt lat="45.49293" lon="6.42101">
        <ele>1539</ele>
        <time>2018-06-22T21:59:26Z</time>
      </trkpt>
      <trkpt lat="45.49297" lon="6.42105">
        <ele>1540</ele>
        <time>2018-06-22T22:00:26Z</time>
      </trkpt>
      <trkpt lat="45.49302" lon="6.42106">
        <ele>1541</ele>
        <time>2018-06-22T22:01:26Z</time>
      </trkpt>
      <trkpt lat="45.49299" lon="6.42101">
        <ele>1541</ele>
        <time>2018-06-22T22:02:26Z</time>
      </trkpt>
      <trkpt lat="45.49293" lon="6.42095">
        <ele>1540</ele>
        <time>2018-06-22T22:03:26Z</time>
      </trkpt>
      <trkpt lat="45.49287" lon="6.42084">
        <ele>1540</ele>
        <time>2018-06-22T22:04:26Z</time>
      </trkpt>
      <trkpt lat="45.49287" lon="6.42078">
        <ele>1562</ele>
        <time>2018-06-22T22:05:26Z</time>
      </trkpt>
      <trkpt lat="45.49292" lon="6.42079">
        <ele>1563</ele>
        <time>2018-06-22T22:06:26Z</time>
      </trkpt>
      <trkpt lat="45.49296" lon="6.42082">
        <ele>1564</ele>
        <time>2018-06-22T22:07:26Z</time>
      </trkpt>
      <trkpt lat="45.49299" lon="6.42082">
        <ele>1565</ele>
        <time>2018-06-22T22:08:26Z</time>
      </trkpt>
      <trkpt lat="45.49303" lon="6.42081">
        <ele>1566</ele>
        <time>2018-06-22T22:09:26Z</time>
      </trkpt>
      <trkpt lat="45.49306" lon="6.42078">
        <ele>1567</ele>
        <time>2018-06-22T22:10:26Z</time>
      </trkpt>
      <trkpt lat="45.49305" lon="6.42074">
        <ele>1567</ele>
        <time>2018-06-22T22:11:26Z</time>
      </trkpt>
      <trkpt lat="45.49301" lon="6.42067">
        <ele>1567</ele>
        <time>2018-06-22T22:12:26Z</time>
      </trkpt>
      <trkpt lat="45.49294" lon="6.42059">
        <ele>1567</ele>
        <time>2018-06-22T22:13:26Z</time>
      </trkpt>
      <trkpt lat="45.4929" lon="6.42049">
        <ele>1568</ele>
        <time>2018-06-22T22:14:26Z</time>
      </trkpt>
      <trkpt lat="45.49298" lon="6.42054">
        <ele>1568</ele>
        <time>2018-06-22T22:15:26Z</time>
      </trkpt>
      <trkpt lat="45.49312" lon="6.42051">
        <ele>1571</ele>
        <time>2018-06-22T22:16:26Z</time>
      </trkpt>
      <trkpt lat="45.49309" lon="6.42038">
        <ele>1574</ele>
        <time>2018-06-22T22:17:26Z</time>
      </trkpt>
      <trkpt lat="45.49295" lon="6.42001">
        <ele>1577</ele>
        <time>2018-06-22T22:18:26Z</time>
      </trkpt>
      <trkpt lat="45.49293" lon="6.41986">
        <ele>1597</ele>
        <time>2018-06-22T22:19:26Z</time>
      </trkpt>
      <trkpt lat="45.49291" lon="6.41975">
        <ele>1598</ele>
        <time>2018-06-22T22:20:26Z</time>
      </trkpt>
      <trkpt lat="45.49285" lon="6.4196">
        <ele>1599</ele>
        <time>2018-06-22T22:21:26Z</time>
      </trkpt>
      <trkpt lat="45.4929" lon="6.41956">
        <ele>1600</ele>
        <time>2018-06-22T22:22:26Z</time>
      </trkpt>
      <trkpt lat="45.49297" lon="6.41956">
        <ele>1601</ele>
        <time>2018-06-22T22:23:26Z</time>
      </trkpt>
      <trkpt lat="45.49293" lon="6.41947">
        <ele>1602</ele>
        <time>2018-06-22T22:24:26Z</time>
      </trkpt>
      <trkpt lat="45.49289" lon="6.41939">
        <ele>1603</ele>
        <time>2018-06-22T22:25:26Z</time>
      </trkpt>
      <trkpt lat="45.49291" lon="6.41935">
        <ele>1604</ele>
        <time>2018-06-22T22:26:26Z</time>
      </trkpt>
      <trkpt lat="45.49287" lon="6.41926">
        <ele>1604</ele>
        <time>2018-06-22T22:27:26Z</time>
      </trkpt>
      <trkpt lat="45.49282" lon="6.41915">
        <ele>1621</ele>
        <time>2018-06-22T22:28:26Z</time>
      </trkpt>
      <trkpt lat="45.49277" lon="6.41901">
        <ele>1622</ele>
        <time>2018-06-22T22:29:26Z</time>
      </trkpt>
      <trkpt lat="45.49272" lon="6.41893">
        <ele>1622</ele>
        <time>2018-06-22T22:30:26Z</time>
      </trkpt>
      <trkpt lat="45.49269" lon="6.41883">
        <ele>1624</ele>
        <time>2018-06-22T22:31:26Z</time>
      </trkpt>
      <trkpt lat="45.49274" lon="6.41885">
        <ele>1625</ele>
        <time>2018-06-22T22:32:26Z</time>
      </trkpt>
      <trkpt lat="45.49287" lon="6.41893">
        <ele>1626</ele>
        <time>2018-06-22T22:33:26Z</time>
      </trkpt>
      <trkpt lat="45.49296" lon="6.41896">
        <ele>1627</ele>
        <time>2018-06-22T22:34:26Z</time>
      </trkpt>
      <trkpt lat="45.49314" lon="6.41905">
        <ele>1627</ele>
        <time>2018-06-22T22:35:26Z</time>
      </trkpt>
      <trkpt lat="45.49325" lon="6.41909">
        <ele>1627</ele>
        <time>2018-06-22T22:36:26Z</time>
      </trkpt>
      <trkpt lat="45.49328" lon="6.41907">
        <ele>1627</ele>
        <time>2018-06-22T22:37:26Z</time>
      </trkpt>
      <trkpt lat="45.49321" lon="6.41896">
        <ele>1629</ele>
        <time>2018-06-22T22:38:26Z</time>
      </trkpt>
      <trkpt lat="45.49301" lon="6.41876">
        <ele>1631</ele>
        <time>2018-06-22T22:39:26Z</time>
      </trkpt>
      <trkpt lat="45.49293" lon="6.41863">
        <ele>1632</ele>
        <time>2018-06-22T22:40:26Z</time>
      </trkpt>
      <trkpt lat="45.49285" lon="6.41854">
        <ele>1632</ele>
        <time>2018-06-22T22:41:26Z</time>
      </trkpt>
      <trkpt lat="45.49278" lon="6.41841">
        <ele>1632</ele>
        <time>2018-06-22T22:42:26Z</time>
      </trkpt>
      <trkpt lat="45.49278" lon="6.41837">
        <ele>1632</ele>
        <time>2018-06-22T22:43:26Z</time>
      </trkpt>
      <trkpt lat="45.4928" lon="6.41835">
        <ele>1633</ele>
        <time>2018-06-22T22:44:26Z</time>
      </trkpt>
      <trkpt lat="45.49288" lon="6.41837">
        <ele>1635</ele>
        <time>2018-06-22T22:45:26Z</time>
      </trkpt>
      <trkpt lat="45.49293" lon="6.4184">
        <ele>1636</ele>
        <time>2018-06-22T22:46:26Z</time>
      </trkpt>
      <trkpt lat="45.49309" lon="6.4185">
        <ele>1640</ele>
        <time>2018-06-22T22:47:26Z</time>
      </trkpt>
      <trkpt lat="45.49306" lon="6.41846">
        <ele>1640</ele>
        <time>2018-06-22T22:48:26Z</time>
      </trkpt>
      <trkpt lat="45.49298" lon="6.41837">
        <ele>1638</ele>
        <time>2018-06-22T22:49:26Z</time>
      </trkpt>
      <trkpt lat="45.49293" lon="6.41825">
        <ele>1658</ele>
        <time>2018-06-22T22:50:26Z</time>
      </trkpt>
      <trkpt lat="45.49289" lon="6.41814">
        <ele>1658</ele>
        <time>2018-06-22T22:51:26Z</time>
      </trkpt>
      <trkpt lat="45.4929" lon="6.41806">
        <ele>1660</ele>
        <time>2018-06-22T22:52:26Z</time>
      </trkpt>
      <trkpt lat="45.49292" lon="6.41805">
        <ele>1660</ele>
        <time>2018-06-22T22:53:26Z</time>
      </trkpt>
      <trkpt lat="45.49308" lon="6.41817">
        <ele>1662</ele>
        <time>2018-06-22T22:54:26Z</time>
      </trkpt>
      <trkpt lat="45.49315" lon="6.41819">
        <ele>1663</ele>
        <time>2018-06-22T22:55:26Z</time>
      </trkpt>
      <trkpt lat="45.49321" lon="6.41821">
        <ele>1663</ele>
        <time>2018-06-22T22:56:26Z</time>
      </trkpt>
      <trkpt lat="45.49331" lon="6.41819">
        <ele>1664</ele>
        <time>2018-06-22T22:57:26Z</time>
      </trkpt>
      <trkpt lat="45.49333" lon="6.41815">
        <ele>1665</ele>
        <time>2018-06-22T22:58:26Z</time>
      </trkpt>
      <trkpt lat="45.49324" lon="6.41804">
        <ele>1666</ele>
        <time>2018-06-22T22:59:26Z</time>
      </trkpt>
      <trkpt lat="45.49311" lon="6.41786">
        <ele>1668</ele>
        <time>2018-06-22T23:00:26Z</time>
      </trkpt>
      <trkpt lat="45.49294" lon="6.41758">
        <ele>1669</ele>
        <time>2018-06-22T23:01:26Z</time>
      </trkpt>
      <trkpt lat="45.49283" lon="6.41739">
        <ele>1685</ele>
        <time>2018-06-22T23:02:26Z</time>
      </trkpt>
      <trkpt lat="45.49279" lon="6.41723">
        <ele>1687</ele>
        <time>2018-06-22T23:03:26Z</time>
      </trkpt>
      <trkpt lat="45.49277" lon="6.41707">
        <ele>1689</ele>
        <time>2018-06-22T23:04:26Z</time>
      </trkpt>
      <trkpt lat="45.49274" lon="6.41696">
        <ele>1691</ele>
        <time>2018-06-22T23:05:26Z</time>
      </trkpt>
      <trkpt lat="45.4927" lon="6.41678">
        <ele>1692</ele>
        <time>2018-06-22T23:06:26Z</time>
      </trkpt>
      <trkpt lat="45.4927" lon="6.41672">
        <ele>1693</ele>
        <time>2018-06-22T23:07:26Z</time>
      </trkpt>
      <trkpt lat="45.49272" lon="6.41661">
        <ele>1705</ele>
        <time>2018-06-22T23:08:26Z</time>
      </trkpt>
      <trkpt lat="45.49272" lon="6.4165">
        <ele>1706</ele>
        <time>2018-06-22T23:09:26Z</time>
      </trkpt>
      <trkpt lat="45.4927" lon="6.41637">
        <ele>1709</ele>
        <time>2018-06-22T23:10:26Z</time>
      </trkpt>
      <trkpt lat="45.49268" lon="6.41633">
        <ele>1709</ele>
        <time>2018-06-22T23:11:26Z</time>
      </trkpt>
      <trkpt lat="45.49264" lon="6.41626">
        <ele>1710</ele>
        <time>2018-06-22T23:12:26Z</time>
      </trkpt>
      <trkpt lat="45.49258" lon="6.41609">
        <ele>1712</ele>
        <time>2018-06-22T23:13:26Z</time>
      </trkpt>
      <trkpt lat="45.49255" lon="6.41598">
        <ele>1714</ele>
        <time>2018-06-22T23:14:26Z</time>
      </trkpt>
      <trkpt lat="45.49248" lon="6.4159">
        <ele>1706</ele>
        <time>2018-06-22T23:15:26Z</time>
      </trkpt>
      <trkpt lat="45.4924" lon="6.41582">
        <ele>1712</ele>
        <time>2018-06-22T23:16:26Z</time>
      </trkpt>
      <trkpt lat="45.49238" lon="6.41577">
        <ele>1711</ele>
        <time>2018-06-22T23:17:26Z</time>
      </trkpt>
      <trkpt lat="45.49235" lon="6.41557">
        <ele>1711</ele>
        <time>2018-06-22T23:18:26Z</time>
      </trkpt>
      <trkpt lat="45.49232" lon="6.41545">
        <ele>1712</ele>
        <time>2018-06-22T23:19:26Z</time>
      </trkpt>
      <trkpt lat="45.49227" lon="6.41536">
        <ele>1713</ele>
        <time>2018-06-22T23:20:26Z</time>
      </trkpt>
      <trkpt lat="45.49221" lon="6.41521">
        <ele>1715</ele>
        <time>2018-06-22T23:21:26Z</time>
      </trkpt>
      <trkpt lat="45.49217" lon="6.41513">
        <ele>1715</ele>
        <time>2018-06-22T23:22:26Z</time>
      </trkpt>
      <trkpt lat="45.49203" lon="6.41482">
        <ele>1737</ele>
        <time>2018-06-22T23:23:26Z</time>
      </trkpt>
      <trkpt lat="45.49195" lon="6.41469">
        <ele>1738</ele>
        <time>2018-06-22T23:24:26Z</time>
      </trkpt>
      <trkpt lat="45.49185" lon="6.41456">
        <ele>1741</ele>
        <time>2018-06-22T23:25:26Z</time>
      </trkpt>
      <trkpt lat="45.49177" lon="6.41439">
        <ele>1746</ele>
        <time>2018-06-22T23:26:26Z</time>
      </trkpt>
      <trkpt lat="45.49171" lon="6.41438">
        <ele>1746</ele>
        <time>2018-06-22T23:27:26Z</time>
      </trkpt>
      <trkpt lat="45.49164" lon="6.41439">
        <ele>1736</ele>
        <time>2018-06-22T23:28:26Z</time>
      </trkpt>
      <trkpt lat="45.4916" lon="6.4144">
        <ele>1735</ele>
        <time>2018-06-22T23:29:26Z</time>
      </trkpt>
      <trkpt lat="45.49156" lon="6.41443">
        <ele>1734</ele>
        <time>2018-06-22T23:30:26Z</time>
      </trkpt>
      <trkpt lat="45.49151" lon="6.41448">
        <ele>1731</ele>
        <time>2018-06-22T23:31:26Z</time>
      </trkpt>
      <trkpt lat="45.49141" lon="6.41454">
        <ele>1728</ele>
        <time>2018-06-22T23:32:26Z</time>
      </trkpt>
      <trkpt lat="45.49133" lon="6.4146">
        <ele>1726</ele>
        <time>2018-06-22T23:33:26Z</time>
      </trkpt>
      <trkpt lat="45.49128" lon="6.4147">
        <ele>1723</ele>
        <time>2018-06-22T23:34:26Z</time>
      </trkpt>
      <trkpt lat="45.49122" lon="6.41477">
        <ele>1721</ele>
        <time>2018-06-22T23:35:26Z</time>
      </trkpt>
      <trkpt lat="45.49116" lon="6.41478">
        <ele>1721</ele>
        <time>2018-06-22T23:36:26Z</time>
      </trkpt>
      <trkpt lat="45.4911" lon="6.41477">
        <ele>1720</ele>
        <time>2018-06-22T23:37:26Z</time>
      </trkpt>
      <trkpt lat="45.49104" lon="6.41474">
        <ele>1720</ele>
        <time>2018-06-22T23:38:26Z</time>
      </trkpt>
      <trkpt lat="45.49097" lon="6.4147">
        <ele>1721</ele>
        <time>2018-06-22T23:39:26Z</time>
      </trkpt>
      <trkpt lat="45.49088" lon="6.41467">
        <ele>1722</ele>
        <time>2018-06-22T23:40:26Z</time>
      </trkpt>
      <trkpt lat="45.49079" lon="6.41463">
        <ele>1718</ele>
        <time>2018-06-22T23:41:26Z</time>
      </trkpt>
      <trkpt lat="45.49066" lon="6.41456">
        <ele>1721</ele>
        <time>2018-06-22T23:42:26Z</time>
      </trkpt>
      <trkpt lat="45.49058" lon="6.4145">
        <ele>1722</ele>
        <time>2018-06-22T23:43:26Z</time>
      </trkpt>
      <trkpt lat="45.49049" lon="6.41445">
        <ele>1723</ele>
        <time>2018-06-22T23:44:26Z</time>
      </trkpt>
      <trkpt lat="45.49043" lon="6.41438">
        <ele>1724</ele>
        <time>2018-06-22T23:45:26Z</time>
      </trkpt>
      <trkpt lat="45.49025" lon="6.41423">
        <ele>1727</ele>
        <time>2018-06-22T23:46:26Z</time>
      </trkpt>
      <trkpt lat="45.49021" lon="6.41418">
        <ele>1728</ele>
        <time>2018-06-22T23:47:26Z</time>
      </trkpt>
      <trkpt lat="45.49011" lon="6.4141">
        <ele>1749</ele>
        <time>2018-06-22T23:48:26Z</time>
      </trkpt>
      <trkpt lat="45.49006" lon="6.41407">
        <ele>1748</ele>
        <time>2018-06-22T23:49:26Z</time>
      </trkpt>
      <trkpt lat="45.48998" lon="6.41407">
        <ele>1748</ele>
        <time>2018-06-22T23:50:26Z</time>
      </trkpt>
      <trkpt lat="45.48988" lon="6.41416">
        <ele>1749</ele>
        <time>2018-06-22T23:51:26Z</time>
      </trkpt>
      <trkpt lat="45.48971" lon="6.41434">
        <ele>1726</ele>
        <time>2018-06-22T23:52:26Z</time>
      </trkpt>
      <trkpt lat="45.48959" lon="6.4144">
        <ele>1725</ele>
        <time>2018-06-22T23:53:26Z</time>
      </trkpt>
      <trkpt lat="45.4895" lon="6.41444">
        <ele>1725</ele>
        <time>2018-06-22T23:54:26Z</time>
      </trkpt>
      <trkpt lat="45.48941" lon="6.41445">
        <ele>1726</ele>
        <time>2018-06-22T23:55:26Z</time>
      </trkpt>
      <trkpt lat="45.48922" lon="6.41445">
        <ele>1728</ele>
        <time>2018-06-22T23:56:26Z</time>
      </trkpt>
      <trkpt lat="45.48912" lon="6.41447">
        <ele>1735</ele>
        <time>2018-06-22T23:57:26Z</time>
      </trkpt>
      <trkpt lat="45.48904" lon="6.41449">
        <ele>1734</ele>
        <time>2018-06-22T23:58:26Z</time>
      </trkpt>
      <trkpt lat="45.48894" lon="6.41453">
        <ele>1733</ele>
        <time>2018-06-22T23:59:26Z</time>
      </trkpt>
      <trkpt lat="45.48884" lon="6.41456">
        <ele>1732</ele>
        <time>2018-06-23T00:00:26Z</time>
      </trkpt>
      <trkpt lat="45.48875" lon="6.41456">
        <ele>1733</ele>
        <time>2018-06-23T00:01:26Z</time>
      </trkpt>
      <trkpt lat="45.48866" lon="6.41458">
        <ele>1733</ele>
        <time>2018-06-23T00:02:26Z</time>
      </trkpt>
      <trkpt lat="45.48854" lon="6.41465">
        <ele>1732</ele>
        <time>2018-06-23T00:03:26Z</time>
      </trkpt>
      <trkpt lat="45.48829" lon="6.41493">
        <ele>1726</ele>
        <time>2018-06-23T00:04:26Z</time>
      </trkpt>
      <trkpt lat="45.4882" lon="6.41496">
        <ele>1728</ele>
        <time>2018-06-23T00:05:26Z</time>
      </trkpt>
      <trkpt lat="45.48807" lon="6.41497">
        <ele>1732</ele>
        <time>2018-06-23T00:06:26Z</time>
      </trkpt>
      <trkpt lat="45.48788" lon="6.41488">
        <ele>1734</ele>
        <time>2018-06-23T00:07:26Z</time>
      </trkpt>
      <trkpt lat="45.48779" lon="6.41479">
        <ele>1735</ele>
        <time>2018-06-23T00:08:26Z</time>
      </trkpt>
      <trkpt lat="45.48794" lon="6.41464">
        <ele>1739</ele>
        <time>2018-06-23T00:09:26Z</time>
      </trkpt>
      <trkpt lat="45.48793" lon="6.4146">
        <ele>1740</ele>
        <time>2018-06-23T00:10:26Z</time>
      </trkpt>
      <trkpt lat="45.48788" lon="6.41448">
        <ele>1743</ele>
        <time>2018-06-23T00:11:26Z</time>
      </trkpt>
      <trkpt lat="45.48785" lon="6.41442">
        <ele>1744</ele>
        <time>2018-06-23T00:12:26Z</time>
      </trkpt>
      <trkpt lat="45.4878" lon="6.41433">
        <ele>1747</ele>
        <time>2018-06-23T00:13:26Z</time>
      </trkpt>
      <trkpt lat="45.48776" lon="6.4143">
        <ele>1748</ele>
        <time>2018-06-23T00:14:26Z</time>
      </trkpt>
      <trkpt lat="45.48771" lon="6.41422">
        <ele>1751</ele>
        <time>2018-06-23T00:15:26Z</time>
      </trkpt>
      <trkpt lat="45.48769" lon="6.41421">
        <ele>1752</ele>
        <time>2018-06-23T00:16:26Z</time>
      </trkpt>
      <trkpt lat="45.48769" lon="6.4142">
        <ele>1752</ele>
        <time>2018-06-23T00:17:26Z</time>
      </trkpt>
      <trkpt lat="45.48771" lon="6.41418">
        <ele>1752</ele>
        <time>2018-06-23T00:18:26Z</time>
      </trkpt>
      <trkpt lat="45.48775" lon="6.41418">
        <ele>1750</ele>
        <time>2018-06-23T00:19:26Z</time>
      </trkpt>
      <trkpt lat="45.48778" lon="6.41416">
        <ele>1777</ele>
        <time>2018-06-23T00:20:26Z</time>
      </trkpt>
      <trkpt lat="45.48778" lon="6.41413">
        <ele>1777</ele>
        <time>2018-06-23T00:21:26Z</time>
      </trkpt>
      <trkpt lat="45.48774" lon="6.41408">
        <ele>1777</ele>
        <time>2018-06-23T00:22:26Z</time>
      </trkpt>
      <trkpt lat="45.48763" lon="6.4141">
        <ele>1774</ele>
        <time>2018-06-23T00:23:26Z</time>
      </trkpt>
      <trkpt lat="45.48759" lon="6.41409">
        <ele>1773</ele>
        <time>2018-06-23T00:24:26Z</time>
      </trkpt>
      <trkpt lat="45.48752" lon="6.41404">
        <ele>1774</ele>
        <time>2018-06-23T00:25:26Z</time>
      </trkpt>
      <trkpt lat="45.48749" lon="6.414">
        <ele>1776</ele>
        <time>2018-06-23T00:26:26Z</time>
      </trkpt>
      <trkpt lat="45.48748" lon="6.41398">
        <ele>1777</ele>
        <time>2018-06-23T00:27:26Z</time>
      </trkpt>
      <trkpt lat="45.48749" lon="6.41388">
        <ele>1782</ele>
        <time>2018-06-23T00:28:26Z</time>
      </trkpt>
      <trkpt lat="45.48747" lon="6.41385">
        <ele>1783</ele>
        <time>2018-06-23T00:29:26Z</time>
      </trkpt>
      <trkpt lat="45.48745" lon="6.4138">
        <ele>1785</ele>
        <time>2018-06-23T00:30:26Z</time>
      </trkpt>
      <trkpt lat="45.48742" lon="6.41378">
        <ele>1786</ele>
        <time>2018-06-23T00:31:26Z</time>
      </trkpt>
      <trkpt lat="45.4874" lon="6.41376">
        <ele>1787</ele>
        <time>2018-06-23T00:32:26Z</time>
      </trkpt>
      <trkpt lat="45.48739" lon="6.41373">
        <ele>1788</ele>
        <time>2018-06-23T00:33:26Z</time>
      </trkpt>
      <trkpt lat="45.4874" lon="6.41372">
        <ele>1789</ele>
        <time>2018-06-23T00:34:26Z</time>
      </trkpt>
      <trkpt lat="45.48749" lon="6.41383">
        <ele>1784</ele>
        <time>2018-06-23T00:35:26Z</time>
      </trkpt>
      <trkpt lat="45.48751" lon="6.41384">
        <ele>1784</ele>
        <time>2018-06-23T00:36:26Z</time>
      </trkpt>
      <trkpt lat="45.48752" lon="6.41379">
        <ele>1787</ele>
        <time>2018-06-23T00:37:26Z</time>
      </trkpt>
      <trkpt lat="45.48747" lon="6.41374">
        <ele>1788</ele>
        <time>2018-06-23T00:38:26Z</time>
      </trkpt>
      <trkpt lat="45.4874" lon="6.41367">
        <ele>1791</ele>
        <time>2018-06-23T00:39:26Z</time>
      </trkpt>
      <trkpt lat="45.48736" lon="6.41361">
        <ele>1793</ele>
        <time>2018-06-23T00:40:26Z</time>
      </trkpt>
      <trkpt lat="45.48733" lon="6.41357">
        <ele>1795</ele>
        <time>2018-06-23T00:41:26Z</time>
      </trkpt>
      <trkpt lat="45.48733" lon="6.41354">
        <ele>1796</ele>
        <time>2018-06-23T00:42:26Z</time>
      </trkpt>
      <trkpt lat="45.48735" lon="6.41351">
        <ele>1798</ele>
        <time>2018-06-23T00:43:26Z</time>
      </trkpt>
      <trkpt lat="45.48743" lon="6.41344">
        <ele>1804</ele>
        <time>2018-06-23T00:44:26Z</time>
      </trkpt>
      <trkpt lat="45.48747" lon="6.41343">
        <ele>1806</ele>
        <time>2018-06-23T00:45:26Z</time>
      </trkpt>
      <trkpt lat="45.48748" lon="6.41341">
        <ele>1808</ele>
        <time>2018-06-23T00:46:26Z</time>
      </trkpt>
      <trkpt lat="45.48745" lon="6.41339">
        <ele>1808</ele>
        <time>2018-06-23T00:47:26Z</time>
      </trkpt>
      <trkpt lat="45.48744" lon="6.41338">
        <ele>1808</ele>
        <time>2018-06-23T00:48:26Z</time>
      </trkpt>
      <trkpt lat="45.48744" lon="6.41333">
        <ele>1818</ele>
        <time>2018-06-23T00:49:26Z</time>
      </trkpt>
      <trkpt lat="45.48744" lon="6.4133">
        <ele>1819</ele>
        <time>2018-06-23T00:50:26Z</time>
      </trkpt>
      <trkpt lat="45.48742" lon="6.41331">
        <ele>1819</ele>
        <time>2018-06-23T00:51:26Z</time>
      </trkpt>
      <trkpt lat="45.48742" lon="6.4133">
        <ele>1819</ele>
        <time>2018-06-23T00:52:26Z</time>
      </trkpt>
      <trkpt lat="45.48745" lon="6.41323">
        <ele>1820</ele>
        <time>2018-06-23T00:53:26Z</time>
      </trkpt>
      <trkpt lat="45.48744" lon="6.41323">
        <ele>1820</ele>
        <time>2018-06-23T00:54:26Z</time>
      </trkpt>
      <trkpt lat="45.48741" lon="6.41326">
        <ele>1820</ele>
        <time>2018-06-23T00:55:26Z</time>
      </trkpt>
      <trkpt lat="45.4874" lon="6.41326">
        <ele>1820</ele>
        <time>2018-06-23T00:56:26Z</time>
      </trkpt>
      <trkpt lat="45.48741" lon="6.41322">
        <ele>1821</ele>
        <time>2018-06-23T00:57:26Z</time>
      </trkpt>
      <trkpt lat="45.48738" lon="6.41325">
        <ele>1821</ele>
        <time>2018-06-23T00:58:26Z</time>
      </trkpt>
      <trkpt lat="45.48737" lon="6.41323">
        <ele>1821</ele>
        <time>2018-06-23T00:59:26Z</time>
      </trkpt>
      <trkpt lat="45.48739" lon="6.41317">
        <ele>1822</ele>
        <time>2018-06-23T01:00:26Z</time>
      </trkpt>
      <trkpt lat="45.48743" lon="6.41317">
        <ele>1822</ele>
        <time>2018-06-23T01:01:26Z</time>
      </trkpt>
      <trkpt lat="45.48755" lon="6.41315">
        <ele>1824</ele>
        <time>2018-06-23T01:02:26Z</time>
      </trkpt>
      <trkpt lat="45.48758" lon="6.41311">
        <ele>1825</ele>
        <time>2018-06-23T01:03:26Z</time>
      </trkpt>
      <trkpt lat="45.48768" lon="6.41308">
        <ele>1827</ele>
        <time>2018-06-23T01:04:26Z</time>
      </trkpt>
      <trkpt lat="45.4877" lon="6.41305">
        <ele>1827</ele>
        <time>2018-06-23T01:05:26Z</time>
      </trkpt>
      <trkpt lat="45.48772" lon="6.41304">
        <ele>1828</ele>
        <time>2018-06-23T01:06:26Z</time>
      </trkpt>
      <trkpt lat="45.48778" lon="6.41305">
        <ele>1828</ele>
        <time>2018-06-23T01:07:26Z</time>
      </trkpt>
      <trkpt lat="45.48785" lon="6.41308">
        <ele>1827</ele>
        <time>2018-06-23T01:08:26Z</time>
      </trkpt>
      <trkpt lat="45.48788" lon="6.41306">
        <ele>1828</ele>
        <time>2018-06-23T01:09:26Z</time>
      </trkpt>
      <trkpt lat="45.48788" lon="6.41304">
        <ele>1828</ele>
        <time>2018-06-23T01:10:26Z</time>
      </trkpt>
      <trkpt lat="45.48779" lon="6.41294">
        <ele>1830</ele>
        <time>2018-06-23T01:11:26Z</time>
      </trkpt>
      <trkpt lat="45.48775" lon="6.41286">
        <ele>1831</ele>
        <time>2018-06-23T01:12:26Z</time>
      </trkpt>
      <trkpt lat="45.48771" lon="6.41279">
        <ele>1833</ele>
        <time>2018-06-23T01:13:26Z</time>
      </trkpt>
      <trkpt lat="45.48767" lon="6.41266">
        <ele>1836</ele>
        <time>2018-06-23T01:14:26Z</time>
      </trkpt>
      <trkpt lat="45.48763" lon="6.41261">
        <ele>1838</ele>
        <time>2018-06-23T01:15:26Z</time>
      </trkpt>
      <trkpt lat="45.48757" lon="6.41254">
        <ele>1841</ele>
        <time>2018-06-23T01:16:26Z</time>
      </trkpt>
      <trkpt lat="45.48752" lon="6.41255">
        <ele>1842</ele>
        <time>2018-06-23T01:17:26Z</time>
      </trkpt>
      <trkpt lat="45.48745" lon="6.41255">
        <ele>1841</ele>
        <time>2018-06-23T01:18:26Z</time>
      </trkpt>
      <trkpt lat="45.48733" lon="6.41251">
        <ele>1837</ele>
        <time>2018-06-23T01:19:26Z</time>
      </trkpt>
      <trkpt lat="45.48711" lon="6.41238">
        <ele>1854</ele>
        <time>2018-06-23T01:20:26Z</time>
      </trkpt>
      <trkpt lat="45.48645" lon="6.41207">
        <ele>1847</ele>
        <time>2018-06-23T01:21:26Z</time>
      </trkpt>
      <trkpt lat="45.48639" lon="6.41207">
        <ele>1847</ele>
        <time>2018-06-23T01:22:26Z</time>
      </trkpt>
      <trkpt lat="45.48634" lon="6.41208">
        <ele>1846</ele>
        <time>2018-06-23T01:23:26Z</time>
      </trkpt>
      <trkpt lat="45.48631" lon="6.41211">
        <ele>1845</ele>
        <time>2018-06-23T01:24:26Z</time>
      </trkpt>
      <trkpt lat="45.48628" lon="6.41217">
        <ele>1844</ele>
        <time>2018-06-23T01:25:26Z</time>
      </trkpt>
      <trkpt lat="45.48622" lon="6.41218">
        <ele>1843</ele>
        <time>2018-06-23T01:26:26Z</time>
      </trkpt>
      <trkpt lat="45.48616" lon="6.41217">
        <ele>1842</ele>
        <time>2018-06-23T01:27:26Z</time>
      </trkpt>
      <trkpt lat="45.48608" lon="6.41209">
        <ele>1843</ele>
        <time>2018-06-23T01:28:26Z</time>
      </trkpt>
      <trkpt lat="45.486" lon="6.412">
        <ele>1843</ele>
        <time>2018-06-23T01:29:26Z</time>
      </trkpt>
      <trkpt lat="45.48586" lon="6.41181">
        <ele>1844</ele>
        <time>2018-06-23T01:30:26Z</time>
      </trkpt>
      <trkpt lat="45.4857" lon="6.41161">
        <ele>1840</ele>
        <time>2018-06-23T01:31:26Z</time>
      </trkpt>
      <trkpt lat="45.48557" lon="6.4114">
        <ele>1839</ele>
        <time>2018-06-23T01:32:26Z</time>
      </trkpt>
      <trkpt lat="45.48546" lon="6.41124">
        <ele>1838</ele>
        <time>2018-06-23T01:33:26Z</time>
      </trkpt>
      <trkpt lat="45.48537" lon="6.41107">
        <ele>1838</ele>
        <time>2018-06-23T01:34:26Z</time>
      </trkpt>
      <trkpt lat="45.48532" lon="6.41099">
        <ele>1837</ele>
        <time>2018-06-23T01:35:26Z</time>
      </trkpt>
      <trkpt lat="45.48532" lon="6.41093">
        <ele>1837</ele>
        <time>2018-06-23T01:36:26Z</time>
      </trkpt>
      <trkpt lat="45.48527" lon="6.41084">
        <ele>1836</ele>
        <time>2018-06-23T01:37:26Z</time>
      </trkpt>
      <trkpt lat="45.48521" lon="6.41076">
        <ele>1843</ele>
        <time>2018-06-23T01:38:26Z</time>
      </trkpt>
      <trkpt lat="45.4851" lon="6.41053">
        <ele>1845</ele>
        <time>2018-06-23T01:39:26Z</time>
      </trkpt>
      <trkpt lat="45.48507" lon="6.41041">
        <ele>1846</ele>
        <time>2018-06-23T01:40:26Z</time>
      </trkpt>
      <trkpt lat="45.48504" lon="6.41022">
        <ele>1846</ele>
        <time>2018-06-23T01:41:26Z</time>
      </trkpt>
      <trkpt lat="45.48504" lon="6.41012">
        <ele>1844</ele>
        <time>2018-06-23T01:42:26Z</time>
      </trkpt>
      <trkpt lat="45.48504" lon="6.41003">
        <ele>1841</ele>
        <time>2018-06-23T01:43:26Z</time>
      </trkpt>
      <trkpt lat="45.48503" lon="6.40996">
        <ele>1843</ele>
        <time>2018-06-23T01:44:26Z</time>
      </trkpt>
      <trkpt lat="45.48498" lon="6.40982">
        <ele>1832</ele>
        <time>2018-06-23T01:45:26Z</time>
      </trkpt>
      <trkpt lat="45.48497" lon="6.40971">
        <ele>1830</ele>
        <time>2018-06-23T01:46:26Z</time>
      </trkpt>
      <trkpt lat="45.48493" lon="6.40933">
        <ele>1833</ele>
        <time>2018-06-23T01:47:26Z</time>
      </trkpt>
      <trkpt lat="45.48493" lon="6.40921">
        <ele>1836</ele>
        <time>2018-06-23T01:48:26Z</time>
      </trkpt>
      <trkpt lat="45.48495" lon="6.40887">
        <ele>1822</ele>
        <time>2018-06-23T01:49:26Z</time>
      </trkpt>
      <trkpt lat="45.48495" lon="6.4087">
        <ele>1819</ele>
        <time>2018-06-23T01:50:26Z</time>
      </trkpt>
      <trkpt lat="45.48496" lon="6.40858">
        <ele>1818</ele>
        <time>2018-06-23T01:51:26Z</time>
      </trkpt>
      <trkpt lat="45.48497" lon="6.40849">
        <ele>1819</ele>
        <time>2018-06-23T01:52:26Z</time>
      </trkpt>
      <trkpt lat="45.48506" lon="6.40808">
        <ele>1824</ele>
        <time>2018-06-23T01:53:26Z</time>
      </trkpt>
      <trkpt lat="45.48515" lon="6.40784">
        <ele>1818</ele>
        <time>2018-06-23T01:54:26Z</time>
      </trkpt>
      <trkpt lat="45.48523" lon="6.40751">
        <ele>1810</ele>
        <time>2018-06-23T01:55:26Z</time>
      </trkpt>
      <trkpt lat="45.48527" lon="6.40742">
        <ele>1795</ele>
        <time>2018-06-23T01:56:26Z</time>
      </trkpt>
      <trkpt lat="45.48536" lon="6.40717">
        <ele>1796</ele>
        <time>2018-06-23T01:57:26Z</time>
      </trkpt>
      <trkpt lat="45.48539" lon="6.40701">
        <ele>1795</ele>
        <time>2018-06-23T01:58:26Z</time>
      </trkpt>
      <trkpt lat="45.48549" lon="6.40662">
        <ele>1778</ele>
        <time>2018-06-23T01:59:26Z</time>
      </trkpt>
      <trkpt lat="45.48563" lon="6.40649">
        <ele>1783</ele>
        <time>2018-06-23T02:00:26Z</time>
      </trkpt>
      <trkpt lat="45.48591" lon="6.40612">
        <ele>1806</ele>
        <time>2018-06-23T02:01:26Z</time>
      </trkpt>
      <trkpt lat="45.48598" lon="6.40606">
        <ele>1806</ele>
        <time>2018-06-23T02:02:26Z</time>
      </trkpt>
      <trkpt lat="45.48602" lon="6.40601">
        <ele>1805</ele>
        <time>2018-06-23T02:03:26Z</time>
      </trkpt>
      <trkpt lat="45.48605" lon="6.40594">
        <ele>1805</ele>
        <time>2018-06-23T02:04:26Z</time>
      </trkpt>
      <trkpt lat="45.48614" lon="6.40569">
        <ele>1790</ele>
        <time>2018-06-23T02:05:26Z</time>
      </trkpt>
      <trkpt lat="45.48619" lon="6.40563">
        <ele>1791</ele>
        <time>2018-06-23T02:06:26Z</time>
      </trkpt>
      <trkpt lat="45.48633" lon="6.4056">
        <ele>1795</ele>
        <time>2018-06-23T02:07:26Z</time>
      </trkpt>
      <trkpt lat="45.48645" lon="6.40554">
        <ele>1798</ele>
        <time>2018-06-23T02:08:26Z</time>
      </trkpt>
      <trkpt lat="45.48648" lon="6.40549">
        <ele>1797</ele>
        <time>2018-06-23T02:09:26Z</time>
      </trkpt>
      <trkpt lat="45.48655" lon="6.40537">
        <ele>1796</ele>
        <time>2018-06-23T02:10:26Z</time>
      </trkpt>
      <trkpt lat="45.48655" lon="6.40518">
        <ele>1794</ele>
        <time>2018-06-23T02:11:26Z</time>
      </trkpt>
      <trkpt lat="45.48662" lon="6.40503">
        <ele>1798</ele>
        <time>2018-06-23T02:12:26Z</time>
      </trkpt>
      <trkpt lat="45.48659" lon="6.40492">
        <ele>1787</ele>
        <time>2018-06-23T02:13:26Z</time>
      </trkpt>
      <trkpt lat="45.48659" lon="6.40456">
        <ele>1771</ele>
        <time>2018-06-23T02:14:26Z</time>
      </trkpt>
      <trkpt lat="45.4866" lon="6.40443">
        <ele>1769</ele>
        <time>2018-06-23T02:15:26Z</time>
      </trkpt>
      <trkpt lat="45.48662" lon="6.40408">
        <ele>1766</ele>
        <time>2018-06-23T02:16:26Z</time>
      </trkpt>
      <trkpt lat="45.48659" lon="6.40399">
        <ele>1761</ele>
        <time>2018-06-23T02:17:26Z</time>
      </trkpt>
      <trkpt lat="45.48657" lon="6.40391">
        <ele>1759</ele>
        <time>2018-06-23T02:18:26Z</time>
      </trkpt>
      <trkpt lat="45.4865" lon="6.40389">
        <ele>1757</ele>
        <time>2018-06-23T02:19:26Z</time>
      </trkpt>
      <trkpt lat="45.48647" lon="6.40392">
        <ele>1757</ele>
        <time>2018-06-23T02:20:26Z</time>
      </trkpt>
      <trkpt lat="45.48645" lon="6.40398">
        <ele>1757</ele>
        <time>2018-06-23T02:21:26Z</time>
      </trkpt>
      <trkpt lat="45.48643" lon="6.40407">
        <ele>1758</ele>
        <time>2018-06-23T02:22:26Z</time>
      </trkpt>
      <trkpt lat="45.48639" lon="6.40415">
        <ele>1757</ele>
        <time>2018-06-23T02:23:26Z</time>
      </trkpt>
      <trkpt lat="45.48634" lon="6.40424">
        <ele>1763</ele>
        <time>2018-06-23T02:24:26Z</time>
      </trkpt>
      <trkpt lat="45.48612" lon="6.40457">
        <ele>1760</ele>
        <time>2018-06-23T02:25:26Z</time>
      </trkpt>
      <trkpt lat="45.48606" lon="6.40464">
        <ele>1759</ele>
        <time>2018-06-23T02:26:26Z</time>
      </trkpt>
      <trkpt lat="45.48589" lon="6.4047">
        <ele>1756</ele>
        <time>2018-06-23T02:27:26Z</time>
      </trkpt>
      <trkpt lat="45.48576" lon="6.40476">
        <ele>1732</ele>
        <time>2018-06-23T02:28:26Z</time>
      </trkpt>
      <trkpt lat="45.48569" lon="6.40482">
        <ele>1732</ele>
        <time>2018-06-23T02:29:26Z</time>
      </trkpt>
      <trkpt lat="45.48564" lon="6.40489">
        <ele>1732</ele>
        <time>2018-06-23T02:30:26Z</time>
      </trkpt>
      <trkpt lat="45.4856" lon="6.40491">
        <ele>1730</ele>
        <time>2018-06-23T02:31:26Z</time>
      </trkpt>
      <trkpt lat="45.48557" lon="6.40486">
        <ele>1729</ele>
        <time>2018-06-23T02:32:26Z</time>
      </trkpt>
      <trkpt lat="45.48555" lon="6.40478">
        <ele>1727</ele>
        <time>2018-06-23T02:33:26Z</time>
      </trkpt>
      <trkpt lat="45.48552" lon="6.40476">
        <ele>1726</ele>
        <time>2018-06-23T02:34:26Z</time>
      </trkpt>
      <trkpt lat="45.48546" lon="6.40483">
        <ele>1725</ele>
        <time>2018-06-23T02:35:26Z</time>
      </trkpt>
      <trkpt lat="45.48543" lon="6.4049">
        <ele>1725</ele>
        <time>2018-06-23T02:36:26Z</time>
      </trkpt>
      <trkpt lat="45.48538" lon="6.40493">
        <ele>1723</ele>
        <time>2018-06-23T02:37:26Z</time>
      </trkpt>
      <trkpt lat="45.48531" lon="6.40494">
        <ele>1721</ele>
        <time>2018-06-23T02:38:26Z</time>
      </trkpt>
      <trkpt lat="45.48522" lon="6.40495">
        <ele>1718</ele>
        <time>2018-06-23T02:39:26Z</time>
      </trkpt>
      <trkpt lat="45.48516" lon="6.40499">
        <ele>1716</ele>
        <time>2018-06-23T02:40:26Z</time>
      </trkpt>
      <trkpt lat="45.48495" lon="6.40515">
        <ele>1707</ele>
        <time>2018-06-23T02:41:26Z</time>
      </trkpt>
      <trkpt lat="45.48467" lon="6.40542">
        <ele>1703</ele>
        <time>2018-06-23T02:42:26Z</time>
      </trkpt>
      <trkpt lat="45.4845" lon="6.40554">
        <ele>1700</ele>
        <time>2018-06-23T02:43:26Z</time>
      </trkpt>
      <trkpt lat="45.48429" lon="6.40568">
        <ele>1695</ele>
        <time>2018-06-23T02:44:26Z</time>
      </trkpt>
      <trkpt lat="45.48385" lon="6.40592">
        <ele>1678</ele>
        <time>2018-06-23T02:45:26Z</time>
      </trkpt>
      <trkpt lat="45.48347" lon="6.4061">
        <ele>1668</ele>
        <time>2018-06-23T02:46:26Z</time>
      </trkpt>
      <trkpt lat="45.48321" lon="6.40622">
        <ele>1645</ele>
        <time>2018-06-23T02:47:26Z</time>
      </trkpt>
      <trkpt lat="45.48287" lon="6.40639">
        <ele>1642</ele>
        <time>2018-06-23T02:48:26Z</time>
      </trkpt>
      <trkpt lat="45.48263" lon="6.40651">
        <ele>1639</ele>
        <time>2018-06-23T02:49:26Z</time>
      </trkpt>
      <trkpt lat="45.48238" lon="6.40666">
        <ele>1627</ele>
        <time>2018-06-23T02:50:26Z</time>
      </trkpt>
      <trkpt lat="45.48222" lon="6.40671">
        <ele>1634</ele>
        <time>2018-06-23T02:51:26Z</time>
      </trkpt>
      <trkpt lat="45.482" lon="6.40671">
        <ele>1628</ele>
        <time>2018-06-23T02:52:26Z</time>
      </trkpt>
      <trkpt lat="45.48156" lon="6.40673">
        <ele>1607</ele>
        <time>2018-06-23T02:53:26Z</time>
      </trkpt>
      <trkpt lat="45.48137" lon="6.40673">
        <ele>1606</ele>
        <time>2018-06-23T02:54:26Z</time>
      </trkpt>
      <trkpt lat="45.48113" lon="6.40673">
        <ele>1601</ele>
        <time>2018-06-23T02:55:26Z</time>
      </trkpt>
      <trkpt lat="45.48104" lon="6.40668">
        <ele>1597</ele>
        <time>2018-06-23T02:56:26Z</time>
      </trkpt>
      <trkpt lat="45.4809" lon="6.40666">
        <ele>1585</ele>
        <time>2018-06-23T02:57:26Z</time>
      </trkpt>
      <trkpt lat="45.48069" lon="6.40676">
        <ele>1582</ele>
        <time>2018-06-23T02:58:26Z</time>
      </trkpt>
      <trkpt lat="45.48046" lon="6.40687">
        <ele>1580</ele>
        <time>2018-06-23T02:59:26Z</time>
      </trkpt>
      <trkpt lat="45.48029" lon="6.40701">
        <ele>1578</ele>
        <time>2018-06-23T03:00:26Z</time>
      </trkpt>
      <trkpt lat="45.48019" lon="6.40704">
        <ele>1577</ele>
        <time>2018-06-23T03:01:26Z</time>
      </trkpt>
      <trkpt lat="45.4801" lon="6.40712">
        <ele>1576</ele>
        <time>2018-06-23T03:02:26Z</time>
      </trkpt>
      <trkpt lat="45.48005" lon="6.40716">
        <ele>1576</ele>
        <time>2018-06-23T03:03:26Z</time>
      </trkpt>
      <trkpt lat="45.48" lon="6.40724">
        <ele>1559</ele>
        <time>2018-06-23T03:04:26Z</time>
      </trkpt>
      <trkpt lat="45.47994" lon="6.4073">
        <ele>1559</ele>
        <time>2018-06-23T03:05:26Z</time>
      </trkpt>
      <trkpt lat="45.47985" lon="6.40741">
        <ele>1560</ele>
        <time>2018-06-23T03:06:26Z</time>
      </trkpt>
      <trkpt lat="45.47975" lon="6.40751">
        <ele>1560</ele>
        <time>2018-06-23T03:07:26Z</time>
      </trkpt>
      <trkpt lat="45.47973" lon="6.40755">
        <ele>1560</ele>
        <time>2018-06-23T03:08:26Z</time>
      </trkpt>
      <trkpt lat="45.47967" lon="6.4076">
        <ele>1558</ele>
        <time>2018-06-23T03:09:26Z</time>
      </trkpt>
      <trkpt lat="45.47959" lon="6.40763">
        <ele>1555</ele>
        <time>2018-06-23T03:10:26Z</time>
      </trkpt>
      <trkpt lat="45.47954" lon="6.40773">
        <ele>1555</ele>
        <time>2018-06-23T03:11:26Z</time>
      </trkpt>
      <trkpt lat="45.47948" lon="6.40789">
        <ele>1555</ele>
        <time>2018-06-23T03:12:26Z</time>
      </trkpt>
      <trkpt lat="45.47942" lon="6.408">
        <ele>1554</ele>
        <time>2018-06-23T03:13:26Z</time>
      </trkpt>
      <trkpt lat="45.47937" lon="6.40802">
        <ele>1553</ele>
        <time>2018-06-23T03:14:26Z</time>
      </trkpt>
      <trkpt lat="45.47927" lon="6.40811">
        <ele>1550</ele>
        <time>2018-06-23T03:15:26Z</time>
      </trkpt>
      <trkpt lat="45.47918" lon="6.40832">
        <ele>1541</ele>
        <time>2018-06-23T03:16:26Z</time>
      </trkpt>
      <trkpt lat="45.47911" lon="6.40842">
        <ele>1535</ele>
        <time>2018-06-23T03:17:26Z</time>
      </trkpt>
      <trkpt lat="45.479" lon="6.40849">
        <ele>1532</ele>
        <time>2018-06-23T03:18:26Z</time>
      </trkpt>
      <trkpt lat="45.47891" lon="6.40868">
        <ele>1529</ele>
        <time>2018-06-23T03:19:26Z</time>
      </trkpt>
      <trkpt lat="45.47869" lon="6.40888">
        <ele>1525</ele>
        <time>2018-06-23T03:20:26Z</time>
      </trkpt>
      <trkpt lat="45.47851" lon="6.40918">
        <ele>1520</ele>
        <time>2018-06-23T03:21:26Z</time>
      </trkpt>
      <trkpt lat="45.47822" lon="6.4097">
        <ele>1495</ele>
        <time>2018-06-23T03:22:26Z</time>
      </trkpt>
      <trkpt lat="45.47809" lon="6.40998">
        <ele>1495</ele>
        <time>2018-06-23T03:23:26Z</time>
      </trkpt>
      <trkpt lat="45.47794" lon="6.41037">
        <ele>1485</ele>
        <time>2018-06-23T03:24:26Z</time>
      </trkpt>
      <trkpt lat="45.47785" lon="6.41033">
        <ele>1482</ele>
        <time>2018-06-23T03:25:26Z</time>
      </trkpt>
      <trkpt lat="45.47788" lon="6.41056">
        <ele>1482</ele>
        <time>2018-06-23T03:26:26Z</time>
      </trkpt>
      <trkpt lat="45.47791" lon="6.41095">
        <ele>1480</ele>
        <time>2018-06-23T03:27:26Z</time>
      </trkpt>
      <trkpt lat="45.47783" lon="6.41098">
        <ele>1477</ele>
        <time>2018-06-23T03:28:26Z</time>
      </trkpt>
      <trkpt lat="45.47769" lon="6.41111">
        <ele>1473</ele>
        <time>2018-06-23T03:29:26Z</time>
      </trkpt>
      <trkpt lat="45.47766" lon="6.41141">
        <ele>1472</ele>
        <time>2018-06-23T03:30:26Z</time>
      </trkpt>
      <trkpt lat="45.47759" lon="6.41166">
        <ele>1463</ele>
        <time>2018-06-23T03:31:26Z</time>
      </trkpt>
      <trkpt lat="45.47756" lon="6.41173">
        <ele>1461</ele>
        <time>2018-06-23T03:32:26Z</time>
      </trkpt>
      <trkpt lat="45.47745" lon="6.41179">
        <ele>1446</ele>
        <time>2018-06-23T03:33:26Z</time>
      </trkpt>
      <trkpt lat="45.47738" lon="6.41192">
        <ele>1440</ele>
        <time>2018-06-23T03:34:26Z</time>
      </trkpt>
      <trkpt lat="45.47735" lon="6.41213">
        <ele>1437</ele>
        <time>2018-06-23T03:35:26Z</time>
      </trkpt>
      <trkpt lat="45.47732" lon="6.41245">
        <ele>1438</ele>
        <time>2018-06-23T03:36:26Z</time>
      </trkpt>
      <trkpt lat="45.47729" lon="6.41243">
        <ele>1437</ele>
        <time>2018-06-23T03:37:26Z</time>
      </trkpt>
      <trkpt lat="45.47718" lon="6.41235">
        <ele>1433</ele>
        <time>2018-06-23T03:38:26Z</time>
      </trkpt>
      <trkpt lat="45.47713" lon="6.41234">
        <ele>1432</ele>
        <time>2018-06-23T03:39:26Z</time>
      </trkpt>
      <trkpt lat="45.47706" lon="6.41233">
        <ele>1430</ele>
        <time>2018-06-23T03:40:26Z</time>
      </trkpt>
      <trkpt lat="45.477" lon="6.41236">
        <ele>1427</ele>
        <time>2018-06-23T03:41:26Z</time>
      </trkpt>
      <trkpt lat="45.47694" lon="6.41242">
        <ele>1425</ele>
        <time>2018-06-23T03:42:26Z</time>
      </trkpt>
      <trkpt lat="45.47682" lon="6.41263">
        <ele>1413</ele>
        <time>2018-06-23T03:43:26Z</time>
      </trkpt>
      <trkpt lat="45.47686" lon="6.41272">
        <ele>1414</ele>
        <time>2018-06-23T03:44:26Z</time>
      </trkpt>
      <trkpt lat="45.47676" lon="6.41276">
        <ele>1413</ele>
        <time>2018-06-23T03:45:26Z</time>
      </trkpt>
      <trkpt lat="45.4768" lon="6.41284">
        <ele>1413</ele>
        <time>2018-06-23T03:46:26Z</time>
      </trkpt>
      <trkpt lat="45.47674" lon="6.41289">
        <ele>1411</ele>
        <time>2018-06-23T03:47:26Z</time>
      </trkpt>
      <trkpt lat="45.47669" lon="6.41286">
        <ele>1411</ele>
        <time>2018-06-23T03:48:26Z</time>
      </trkpt>
      <trkpt lat="45.47658" lon="6.41273">
        <ele>1400</ele>
        <time>2018-06-23T03:49:26Z</time>
      </trkpt>
      <trkpt lat="45.47644" lon="6.41337">
        <ele>1380</ele>
        <time>2018-06-23T03:50:26Z</time>
      </trkpt>
      <trkpt lat="45.47643" lon="6.41349">
        <ele>1378</ele>
        <time>2018-06-23T03:51:26Z</time>
      </trkpt>
      <trkpt lat="45.47644" lon="6.41362">
        <ele>1377</ele>
        <time>2018-06-23T03:52:26Z</time>
      </trkpt>
      <trkpt lat="45.47644" lon="6.41385">
        <ele>1373</ele>
        <time>2018-06-23T03:53:26Z</time>
      </trkpt>
      <trkpt lat="45.47641" lon="6.41398">
        <ele>1371</ele>
        <time>2018-06-23T03:54:26Z</time>
      </trkpt>
      <trkpt lat="45.47634" lon="6.41413">
        <ele>1370</ele>
        <time>2018-06-23T03:55:26Z</time>
      </trkpt>
      <trkpt lat="45.47633" lon="6.41422">
        <ele>1360</ele>
        <time>2018-06-23T03:56:26Z</time>
      </trkpt>
      <trkpt lat="45.47631" lon="6.41446">
        <ele>1358</ele>
        <time>2018-06-23T03:57:26Z</time>
      </trkpt>
      <trkpt lat="45.47628" lon="6.41459">
        <ele>1357</ele>
        <time>2018-06-23T03:58:26Z</time>
      </trkpt>
      <trkpt lat="45.47617" lon="6.415">
        <ele>1350</ele>
        <time>2018-06-23T03:59:26Z</time>
      </trkpt>
      <trkpt lat="45.47616" lon="6.41545">
        <ele>1341</ele>
        <time>2018-06-23T04:00:26Z</time>
      </trkpt>
      <trkpt lat="45.47608" lon="6.41599">
        <ele>1329</ele>
        <time>2018-06-23T04:01:26Z</time>
      </trkpt>
      <trkpt lat="45.47615" lon="6.41617">
        <ele>1327</ele>
        <time>2018-06-23T04:02:26Z</time>
      </trkpt>
      <trkpt lat="45.47628" lon="6.41642">
        <ele>1324</ele>
        <time>2018-06-23T04:03:26Z</time>
      </trkpt>
      <trkpt lat="45.47624" lon="6.41665">
        <ele>1323</ele>
        <time>2018-06-23T04:04:26Z</time>
      </trkpt>
      <trkpt lat="45.47634" lon="6.41676">
        <ele>1316</ele>
        <time>2018-06-23T04:05:26Z</time>
      </trkpt>
      <trkpt lat="45.47641" lon="6.41685">
        <ele>1315</ele>
        <time>2018-06-23T04:06:26Z</time>
      </trkpt>
      <trkpt lat="45.47644" lon="6.41698">
        <ele>1315</ele>
        <time>2018-06-23T04:07:26Z</time>
      </trkpt>
      <trkpt lat="45.47649" lon="6.41715">
        <ele>1313</ele>
        <time>2018-06-23T04:08:26Z</time>
      </trkpt>
      <trkpt lat="45.4766" lon="6.41734">
        <ele>1309</ele>
        <time>2018-06-23T04:09:26Z</time>
      </trkpt>
      <trkpt lat="45.47668" lon="6.4175">
        <ele>1302</ele>
        <time>2018-06-23T04:10:26Z</time>
      </trkpt>
      <trkpt lat="45.47678" lon="6.41756">
        <ele>1301</ele>
        <time>2018-06-23T04:11:26Z</time>
      </trkpt>
      <trkpt lat="45.47676" lon="6.41759">
        <ele>1301</ele>
        <time>2018-06-23T04:12:26Z</time>
      </trkpt>
      <trkpt lat="45.47675" lon="6.4177">
        <ele>1301</ele>
        <time>2018-06-23T04:13:26Z</time>
      </trkpt>
      <trkpt lat="45.47674" lon="6.41772">
        <ele>1301</ele>
        <time>2018-06-23T04:14:26Z</time>
      </trkpt>
      <trkpt lat="45.4767" lon="6.41777">
        <ele>1300</ele>
        <time>2018-06-23T04:15:26Z</time>
      </trkpt>
      <trkpt lat="45.47667" lon="6.41783">
        <ele>1300</ele>
        <time>2018-06-23T04:16:26Z</time>
      </trkpt>
      <trkpt lat="45.47665" lon="6.41788">
        <ele>1307</ele>
        <time>2018-06-23T04:17:26Z</time>
      </trkpt>
      <trkpt lat="45.47664" lon="6.41797">
        <ele>1307</ele>
        <time>2018-06-23T04:18:26Z</time>
      </trkpt>
      <trkpt lat="45.47664" lon="6.41832">
        <ele>1302</ele>
        <time>2018-06-23T04:19:26Z</time>
      </trkpt>
      <trkpt lat="45.47663" lon="6.41837">
        <ele>1302</ele>
        <time>2018-06-23T04:20:26Z</time>
      </trkpt>
      <trkpt lat="45.47659" lon="6.41847">
        <ele>1302</ele>
        <time>2018-06-23T04:21:26Z</time>
      </trkpt>
      <trkpt lat="45.47657" lon="6.4185">
        <ele>1302</ele>
        <time>2018-06-23T04:22:26Z</time>
      </trkpt>
      <trkpt lat="45.47651" lon="6.41854">
        <ele>1303</ele>
        <time>2018-06-23T04:23:26Z</time>
      </trkpt>
      <trkpt lat="45.47645" lon="6.41856">
        <ele>1303</ele>
        <time>2018-06-23T04:24:26Z</time>
      </trkpt>
      <trkpt lat="45.47635" lon="6.41856">
        <ele>1304</ele>
        <time>2018-06-23T04:25:26Z</time>
      </trkpt>
      <trkpt lat="45.47602" lon="6.4186">
        <ele>1306</ele>
        <time>2018-06-23T04:26:26Z</time>
      </trkpt>
      <trkpt lat="45.47592" lon="6.4186">
        <ele>1306</ele>
        <time>2018-06-23T04:27:26Z</time>
      </trkpt>
      <trkpt lat="45.47584" lon="6.41859">
        <ele>1307</ele>
        <time>2018-06-23T04:28:26Z</time>
      </trkpt>
      <trkpt lat="45.47575" lon="6.41856">
        <ele>1306</ele>
        <time>2018-06-23T04:29:26Z</time>
      </trkpt>
      <trkpt lat="45.47567" lon="6.41851">
        <ele>1306</ele>
        <time>2018-06-23T04:30:26Z</time>
      </trkpt>
      <trkpt lat="45.47556" lon="6.4184">
        <ele>1306</ele>
        <time>2018-06-23T04:31:26Z</time>
      </trkpt>
      <trkpt lat="45.47533" lon="6.41807">
        <ele>1319</ele>
        <time>2018-06-23T04:32:26Z</time>
      </trkpt>
      <trkpt lat="45.47519" lon="6.41787">
        <ele>1322</ele>
        <time>2018-06-23T04:33:26Z</time>
      </trkpt>
      <trkpt lat="45.47501" lon="6.41769">
        <ele>1327</ele>
        <time>2018-06-23T04:34:26Z</time>
      </trkpt>
      <trkpt lat="45.47462" lon="6.41735">
        <ele>1332</ele>
        <time>2018-06-23T04:35:26Z</time>
      </trkpt>
      <trkpt lat="45.4744" lon="6.41712">
        <ele>1332</ele>
        <time>2018-06-23T04:36:26Z</time>
      </trkpt>
      <trkpt lat="45.47425" lon="6.41693">
        <ele>1335</ele>
        <time>2018-06-23T04:37:26Z</time>
      </trkpt>
      <trkpt lat="45.47413" lon="6.41673">
        <ele>1333</ele>
        <time>2018-06-23T04:38:26Z</time>
      </trkpt>
      <trkpt lat="45.47403" lon="6.41653">
        <ele>1340</ele>
        <time>2018-06-23T04:39:26Z</time>
      </trkpt>
      <trkpt lat="45.47392" lon="6.41619">
        <ele>1344</ele>
        <time>2018-06-23T04:40:26Z</time>
      </trkpt>
      <trkpt lat="45.47387" lon="6.41606">
        <ele>1345</ele>
        <time>2018-06-23T04:41:26Z</time>
      </trkpt>
      <trkpt lat="45.47375" lon="6.41581">
        <ele>1358</ele>
        <time>2018-06-23T04:42:26Z</time>
      </trkpt>
      <trkpt lat="45.47346" lon="6.41529">
        <ele>1360</ele>
        <time>2018-06-23T04:43:26Z</time>
      </trkpt>
      <trkpt lat="45.47331" lon="6.415">
        <ele>1358</ele>
        <time>2018-06-23T04:44:26Z</time>
      </trkpt>
      <trkpt lat="45.47327" lon="6.41489">
        <ele>1361</ele>
        <time>2018-06-23T04:45:26Z</time>
      </trkpt>
      <trkpt lat="45.47317" lon="6.41482">
        <ele>1362</ele>
        <time>2018-06-23T04:46:26Z</time>
      </trkpt>
      <trkpt lat="45.47287" lon="6.41463">
        <ele>1363</ele>
        <time>2018-06-23T04:47:26Z</time>
      </trkpt>
      <trkpt lat="45.47262" lon="6.41445">
        <ele>1364</ele>
        <time>2018-06-23T04:48:26Z</time>
      </trkpt>
      <trkpt lat="45.47248" lon="6.41436">
        <ele>1361</ele>
        <time>2018-06-23T04:49:26Z</time>
      </trkpt>
      <trkpt lat="45.47232" lon="6.41421">
        <ele>1361</ele>
        <time>2018-06-23T04:50:26Z</time>
      </trkpt>
      <trkpt lat="45.47194" lon="6.4138">
        <ele>1370</ele>
        <time>2018-06-23T04:51:26Z</time>
      </trkpt>
      <trkpt lat="45.47186" lon="6.4137">
        <ele>1370</ele>
        <time>2018-06-23T04:52:26Z</time>
      </trkpt>
      <trkpt lat="45.47166" lon="6.41346">
        <ele>1364</ele>
        <time>2018-06-23T04:53:26Z</time>
      </trkpt>
      <trkpt lat="45.47159" lon="6.41339">
        <ele>1365</ele>
        <time>2018-06-23T04:54:26Z</time>
      </trkpt>
      <trkpt lat="45.4715" lon="6.41323">
        <ele>1369</ele>
        <time>2018-06-23T04:55:26Z</time>
      </trkpt>
      <trkpt lat="45.47136" lon="6.41294">
        <ele>1369</ele>
        <time>2018-06-23T04:56:26Z</time>
      </trkpt>
      <trkpt lat="45.47126" lon="6.41279">
        <ele>1369</ele>
        <time>2018-06-23T04:57:26Z</time>
      </trkpt>
      <trkpt lat="45.47088" lon="6.41236">
        <ele>1377</ele>
        <time>2018-06-23T04:58:26Z</time>
      </trkpt>
      <trkpt lat="45.47088" lon="6.4123">
        <ele>1380</ele>
        <time>2018-06-23T04:59:26Z</time>
      </trkpt>
      <trkpt lat="45.47083" lon="6.41222">
        <ele>1368</ele>
        <time>2018-06-23T05:00:26Z</time>
      </trkpt>
      <trkpt lat="45.47074" lon="6.41216">
        <ele>1369</ele>
        <time>2018-06-23T05:01:26Z</time>
      </trkpt>
      <trkpt lat="45.47011" lon="6.41136">
        <ele>1380</ele>
        <time>2018-06-23T05:02:26Z</time>
      </trkpt>
      <trkpt lat="45.46996" lon="6.41122">
        <ele>1363</ele>
        <time>2018-06-23T05:03:26Z</time>
      </trkpt>
      <trkpt lat="45.4699" lon="6.41115">
        <ele>1364</ele>
        <time>2018-06-23T05:04:26Z</time>
      </trkpt>
      <trkpt lat="45.46984" lon="6.41106">
        <ele>1366</ele>
        <time>2018-06-23T05:05:26Z</time>
      </trkpt>
      <trkpt lat="45.46976" lon="6.41077">
        <ele>1380</ele>
        <time>2018-06-23T05:06:26Z</time>
      </trkpt>
      <trkpt lat="45.46973" lon="6.41073">
        <ele>1379</ele>
        <time>2018-06-23T05:07:26Z</time>
      </trkpt>
      <trkpt lat="45.46966" lon="6.41069">
        <ele>1378</ele>
        <time>2018-06-23T05:08:26Z</time>
      </trkpt>
      <trkpt lat="45.46948" lon="6.41064">
        <ele>1375</ele>
        <time>2018-06-23T05:09:26Z</time>
      </trkpt>
      <trkpt lat="45.46944" lon="6.41062">
        <ele>1374</ele>
        <time>2018-06-23T05:10:26Z</time>
      </trkpt>
      <trkpt lat="45.4694" lon="6.41058">
        <ele>1374</ele>
        <time>2018-06-23T05:11:26Z</time>
      </trkpt>
      <trkpt lat="45.46936" lon="6.41049">
        <ele>1375</ele>
        <time>2018-06-23T05:12:26Z</time>
      </trkpt>
      <trkpt lat="45.46927" lon="6.41023">
        <ele>1377</ele>
        <time>2018-06-23T05:13:26Z</time>
      </trkpt>
      <trkpt lat="45.46912" lon="6.40996">
        <ele>1375</ele>
        <time>2018-06-23T05:14:26Z</time>
      </trkpt>
      <trkpt lat="45.46885" lon="6.40948">
        <ele>1376</ele>
        <time>2018-06-23T05:15:26Z</time>
      </trkpt>
      <trkpt lat="45.46871" lon="6.40927">
        <ele>1376</ele>
        <time>2018-06-23T05:16:26Z</time>
      </trkpt>
      <trkpt lat="45.46853" lon="6.40912">
        <ele>1386</ele>
        <time>2018-06-23T05:17:26Z</time>
      </trkpt>
      <trkpt lat="45.46842" lon="6.40907">
        <ele>1382</ele>
        <time>2018-06-23T05:18:26Z</time>
      </trkpt>
      <trkpt lat="45.46832" lon="6.40904">
        <ele>1373</ele>
        <time>2018-06-23T05:19:26Z</time>
      </trkpt>
      <trkpt lat="45.46828" lon="6.40902">
        <ele>1373</ele>
        <time>2018-06-23T05:20:26Z</time>
      </trkpt>
      <trkpt lat="45.46824" lon="6.40899">
        <ele>1373</ele>
        <time>2018-06-23T05:21:26Z</time>
      </trkpt>
      <trkpt lat="45.46821" lon="6.40895">
        <ele>1373</ele>
        <time>2018-06-23T05:22:26Z</time>
      </trkpt>
      <trkpt lat="45.46812" lon="6.40873">
        <ele>1375</ele>
        <time>2018-06-23T05:23:26Z</time>
      </trkpt>
      <trkpt lat="45.46802" lon="6.40846">
        <ele>1377</ele>
        <time>2018-06-23T05:24:26Z</time>
      </trkpt>
      <trkpt lat="45.46801" lon="6.40838">
        <ele>1378</ele>
        <time>2018-06-23T05:25:26Z</time>
      </trkpt>
      <trkpt lat="45.46797" lon="6.40798">
        <ele>1388</ele>
        <time>2018-06-23T05:26:26Z</time>
      </trkpt>
      <trkpt lat="45.46795" lon="6.40792">
        <ele>1388</ele>
        <time>2018-06-23T05:27:26Z</time>
      </trkpt>
      <trkpt lat="45.46786" lon="6.40773">
        <ele>1388</ele>
        <time>2018-06-23T05:28:26Z</time>
      </trkpt>
      <trkpt lat="45.46784" lon="6.40767">
        <ele>1387</ele>
        <time>2018-06-23T05:29:26Z</time>
      </trkpt>
      <trkpt lat="45.46784" lon="6.40759">
        <ele>1388</ele>
        <time>2018-06-23T05:30:26Z</time>
      </trkpt>
      <trkpt lat="45.46782" lon="6.40748">
        <ele>1396</ele>
        <time>2018-06-23T05:31:26Z</time>
      </trkpt>
      <trkpt lat="45.46782" lon="6.40732">
        <ele>1397</ele>
        <time>2018-06-23T05:32:26Z</time>
      </trkpt>
      <trkpt lat="45.4678" lon="6.40713">
        <ele>1399</ele>
        <time>2018-06-23T05:33:26Z</time>
      </trkpt>
      <trkpt lat="45.46777" lon="6.40696">
        <ele>1400</ele>
        <time>2018-06-23T05:34:26Z</time>
      </trkpt>
      <trkpt lat="45.46776" lon="6.40683">
        <ele>1400</ele>
        <time>2018-06-23T05:35:26Z</time>
      </trkpt>
      <trkpt lat="45.46776" lon="6.40672">
        <ele>1400</ele>
        <time>2018-06-23T05:36:26Z</time>
      </trkpt>
      <trkpt lat="45.46774" lon="6.40665">
        <ele>1409</ele>
        <time>2018-06-23T05:37:26Z</time>
      </trkpt>
      <trkpt lat="45.46773" lon="6.40658">
        <ele>1409</ele>
        <time>2018-06-23T05:38:26Z</time>
      </trkpt>
      <trkpt lat="45.46766" lon="6.40653">
        <ele>1407</ele>
        <time>2018-06-23T05:39:26Z</time>
      </trkpt>
      <trkpt lat="45.46762" lon="6.40647">
        <ele>1408</ele>
        <time>2018-06-23T05:40:26Z</time>
      </trkpt>
      <trkpt lat="45.46752" lon="6.40645">
        <ele>1407</ele>
        <time>2018-06-23T05:41:26Z</time>
      </trkpt>
      <trkpt lat="45.46738" lon="6.40643">
        <ele>1405</ele>
        <time>2018-06-23T05:42:26Z</time>
      </trkpt>
      <trkpt lat="45.46734" lon="6.40645">
        <ele>1405</ele>
        <time>2018-06-23T05:43:26Z</time>
      </trkpt>
      <trkpt lat="45.46723" lon="6.40653">
        <ele>1406</ele>
        <time>2018-06-23T05:44:26Z</time>
      </trkpt>
      <trkpt lat="45.4672" lon="6.4066">
        <ele>1406</ele>
        <time>2018-06-23T05:45:26Z</time>
      </trkpt>
      <trkpt lat="45.46717" lon="6.4067">
        <ele>1394</ele>
        <time>2018-06-23T05:46:26Z</time>
      </trkpt>
      <trkpt lat="45.46715" lon="6.40681">
        <ele>1393</ele>
        <time>2018-06-23T05:47:26Z</time>
      </trkpt>
      <trkpt lat="45.46714" lon="6.40687">
        <ele>1393</ele>
        <time>2018-06-23T05:48:26Z</time>
      </trkpt>
      <trkpt lat="45.46712" lon="6.40693">
        <ele>1393</ele>
        <time>2018-06-23T05:49:26Z</time>
      </trkpt>
      <trkpt lat="45.46708" lon="6.40698">
        <ele>1393</ele>
        <time>2018-06-23T05:50:26Z</time>
      </trkpt>
      <trkpt lat="45.46704" lon="6.40699">
        <ele>1393</ele>
        <time>2018-06-23T05:51:26Z</time>
      </trkpt>
      <trkpt lat="45.46681" lon="6.40692">
        <ele>1396</ele>
        <time>2018-06-23T05:52:26Z</time>
      </trkpt>
      <trkpt lat="45.46669" lon="6.40691">
        <ele>1398</ele>
        <time>2018-06-23T05:53:26Z</time>
      </trkpt>
      <trkpt lat="45.46646" lon="6.40691">
        <ele>1400</ele>
        <time>2018-06-23T05:54:26Z</time>
      </trkpt>
      <trkpt lat="45.46638" lon="6.40688">
        <ele>1400</ele>
        <time>2018-06-23T05:55:26Z</time>
      </trkpt>
      <trkpt lat="45.46627" lon="6.4068">
        <ele>1401</ele>
        <time>2018-06-23T05:56:26Z</time>
      </trkpt>
      <trkpt lat="45.46613" lon="6.40672">
        <ele>1403</ele>
        <time>2018-06-23T05:57:26Z</time>
      </trkpt>
      <trkpt lat="45.46601" lon="6.40667">
        <ele>1405</ele>
        <time>2018-06-23T05:58:26Z</time>
      </trkpt>
      <trkpt lat="45.46595" lon="6.40663">
        <ele>1417</ele>
        <time>2018-06-23T05:59:26Z</time>
      </trkpt>
      <trkpt lat="45.46582" lon="6.40652">
        <ele>1420</ele>
        <time>2018-06-23T06:00:26Z</time>
      </trkpt>
      <trkpt lat="45.46574" lon="6.40648">
        <ele>1422</ele>
        <time>2018-06-23T06:01:26Z</time>
      </trkpt>
      <trkpt lat="45.46562" lon="6.40642">
        <ele>1424</ele>
        <time>2018-06-23T06:02:26Z</time>
      </trkpt>
      <trkpt lat="45.46556" lon="6.40641">
        <ele>1425</ele>
        <time>2018-06-23T06:03:26Z</time>
      </trkpt>
      <trkpt lat="45.46541" lon="6.4064">
        <ele>1425</ele>
        <time>2018-06-23T06:04:26Z</time>
      </trkpt>
      <trkpt lat="45.46533" lon="6.40638">
        <ele>1425</ele>
        <time>2018-06-23T06:05:26Z</time>
      </trkpt>
      <trkpt lat="45.46527" lon="6.40636">
        <ele>1425</ele>
        <time>2018-06-23T06:06:26Z</time>
      </trkpt>
      <trkpt lat="45.46519" lon="6.40629">
        <ele>1427</ele>
        <time>2018-06-23T06:07:26Z</time>
      </trkpt>
      <trkpt lat="45.46495" lon="6.40607">
        <ele>1427</ele>
        <time>2018-06-23T06:08:26Z</time>
      </trkpt>
      <trkpt lat="45.46483" lon="6.40598">
        <ele>1428</ele>
        <time>2018-06-23T06:09:26Z</time>
      </trkpt>
      <trkpt lat="45.46473" lon="6.40594">
        <ele>1426</ele>
        <time>2018-06-23T06:10:26Z</time>
      </trkpt>
      <trkpt lat="45.4646" lon="6.40591">
        <ele>1423</ele>
        <time>2018-06-23T06:11:26Z</time>
      </trkpt>
      <trkpt lat="45.46452" lon="6.40587">
        <ele>1422</ele>
        <time>2018-06-23T06:12:26Z</time>
      </trkpt>
      <trkpt lat="45.46446" lon="6.40583">
        <ele>1441</ele>
        <time>2018-06-23T06:13:26Z</time>
      </trkpt>
      <trkpt lat="45.46439" lon="6.40577">
        <ele>1439</ele>
        <time>2018-06-23T06:14:26Z</time>
      </trkpt>
      <trkpt lat="45.46432" lon="6.4057">
        <ele>1438</ele>
        <time>2018-06-23T06:15:26Z</time>
      </trkpt>
      <trkpt lat="45.46428" lon="6.40563">
        <ele>1439</ele>
        <time>2018-06-23T06:16:26Z</time>
      </trkpt>
      <trkpt lat="45.46426" lon="6.40553">
        <ele>1442</ele>
        <time>2018-06-23T06:17:26Z</time>
      </trkpt>
      <trkpt lat="45.46426" lon="6.40547">
        <ele>1444</ele>
        <time>2018-06-23T06:18:26Z</time>
      </trkpt>
      <trkpt lat="45.46418" lon="6.40539">
        <ele>1446</ele>
        <time>2018-06-23T06:19:26Z</time>
      </trkpt>
      <trkpt lat="45.46403" lon="6.40513">
        <ele>1441</ele>
        <time>2018-06-23T06:20:26Z</time>
      </trkpt>
      <trkpt lat="45.46395" lon="6.4051">
        <ele>1440</ele>
        <time>2018-06-23T06:21:26Z</time>
      </trkpt>
      <trkpt lat="45.46388" lon="6.40511">
        <ele>1438</ele>
        <time>2018-06-23T06:22:26Z</time>
      </trkpt>
      <trkpt lat="45.46381" lon="6.40514">
        <ele>1437</ele>
        <time>2018-06-23T06:23:26Z</time>
      </trkpt>
      <trkpt lat="45.46375" lon="6.40519">
        <ele>1435</ele>
        <time>2018-06-23T06:24:26Z</time>
      </trkpt>
      <trkpt lat="45.46369" lon="6.40511">
        <ele>1436</ele>
        <time>2018-06-23T06:25:26Z</time>
      </trkpt>
      <trkpt lat="45.46354" lon="6.405">
        <ele>1437</ele>
        <time>2018-06-23T06:26:26Z</time>
      </trkpt>
      <trkpt lat="45.46348" lon="6.40493">
        <ele>1451</ele>
        <time>2018-06-23T06:27:26Z</time>
      </trkpt>
      <trkpt lat="45.46338" lon="6.40487">
        <ele>1450</ele>
        <time>2018-06-23T06:28:26Z</time>
      </trkpt>
      <trkpt lat="45.46326" lon="6.40476">
        <ele>1450</ele>
        <time>2018-06-23T06:29:26Z</time>
      </trkpt>
      <trkpt lat="45.46319" lon="6.40467">
        <ele>1452</ele>
        <time>2018-06-23T06:30:26Z</time>
      </trkpt>
      <trkpt lat="45.46313" lon="6.40463">
        <ele>1453</ele>
        <time>2018-06-23T06:31:26Z</time>
      </trkpt>
      <trkpt lat="45.46304" lon="6.40461">
        <ele>1453</ele>
        <time>2018-06-23T06:32:26Z</time>
      </trkpt>
      <trkpt lat="45.46297" lon="6.40461">
        <ele>1452</ele>
        <time>2018-06-23T06:33:26Z</time>
      </trkpt>
      <trkpt lat="45.46291" lon="6.4046">
        <ele>1452</ele>
        <time>2018-06-23T06:34:26Z</time>
      </trkpt>
      <trkpt lat="45.46284" lon="6.40456">
        <ele>1452</ele>
        <time>2018-06-23T06:35:26Z</time>
      </trkpt>
      <trkpt lat="45.46275" lon="6.4045">
        <ele>1453</ele>
        <time>2018-06-23T06:36:26Z</time>
      </trkpt>
      <trkpt lat="45.46261" lon="6.40446">
        <ele>1453</ele>
        <time>2018-06-23T06:37:26Z</time>
      </trkpt>
      <trkpt lat="45.46255" lon="6.40444">
        <ele>1454</ele>
        <time>2018-06-23T06:38:26Z</time>
      </trkpt>
      <trkpt lat="45.46247" lon="6.40439">
        <ele>1448</ele>
        <time>2018-06-23T06:39:26Z</time>
      </trkpt>
      <trkpt lat="45.46226" lon="6.40422">
        <ele>1448</ele>
        <time>2018-06-23T06:40:26Z</time>
      </trkpt>
      <trkpt lat="45.4619" lon="6.40389">
        <ele>1466</ele>
        <time>2018-06-23T06:41:26Z</time>
      </trkpt>
      <trkpt lat="45.46179" lon="6.40377">
        <ele>1468</ele>
        <time>2018-06-23T06:42:26Z</time>
      </trkpt>
      <trkpt lat="45.46172" lon="6.40373">
        <ele>1469</ele>
        <time>2018-06-23T06:43:26Z</time>
      </trkpt>
      <trkpt lat="45.46167" lon="6.40369">
        <ele>1470</ele>
        <time>2018-06-23T06:44:26Z</time>
      </trkpt>
      <trkpt lat="45.46162" lon="6.4036">
        <ele>1465</ele>
        <time>2018-06-23T06:45:26Z</time>
      </trkpt>
      <trkpt lat="45.46141" lon="6.40332">
        <ele>1483</ele>
        <time>2018-06-23T06:46:26Z</time>
      </trkpt>
      <trkpt lat="45.46133" lon="6.40318">
        <ele>1484</ele>
        <time>2018-06-23T06:47:26Z</time>
      </trkpt>
      <trkpt lat="45.46127" lon="6.40313">
        <ele>1484</ele>
        <time>2018-06-23T06:48:26Z</time>
      </trkpt>
      <trkpt lat="45.46123" lon="6.40311">
        <ele>1484</ele>
        <time>2018-06-23T06:49:26Z</time>
      </trkpt>
      <trkpt lat="45.46118" lon="6.40306">
        <ele>1484</ele>
        <time>2018-06-23T06:50:26Z</time>
      </trkpt>
      <trkpt lat="45.46105" lon="6.40292">
        <ele>1486</ele>
        <time>2018-06-23T06:51:26Z</time>
      </trkpt>
      <trkpt lat="45.46095" lon="6.40284">
        <ele>1487</ele>
        <time>2018-06-23T06:52:26Z</time>
      </trkpt>
      <trkpt lat="45.46088" lon="6.40282">
        <ele>1487</ele>
        <time>2018-06-23T06:53:26Z</time>
      </trkpt>
      <trkpt lat="45.46079" lon="6.40281">
        <ele>1476</ele>
        <time>2018-06-23T06:54:26Z</time>
      </trkpt>
      <trkpt lat="45.4607" lon="6.40278">
        <ele>1476</ele>
        <time>2018-06-23T06:55:26Z</time>
      </trkpt>
      <trkpt lat="45.46061" lon="6.40275">
        <ele>1475</ele>
        <time>2018-06-23T06:56:26Z</time>
      </trkpt>
      <trkpt lat="45.46048" lon="6.40269">
        <ele>1474</ele>
        <time>2018-06-23T06:57:26Z</time>
      </trkpt>
      <trkpt lat="45.46036" lon="6.40263">
        <ele>1472</ele>
        <time>2018-06-23T06:58:26Z</time>
      </trkpt>
      <trkpt lat="45.46013" lon="6.40244">
        <ele>1484</ele>
        <time>2018-06-23T06:59:26Z</time>
      </trkpt>
      <trkpt lat="45.46001" lon="6.40232">
        <ele>1486</ele>
        <time>2018-06-23T07:00:26Z</time>
      </trkpt>
      <trkpt lat="45.45988" lon="6.40223">
        <ele>1479</ele>
        <time>2018-06-23T07:01:26Z</time>
      </trkpt>
      <trkpt lat="45.45979" lon="6.40217">
        <ele>1480</ele>
        <time>2018-06-23T07:02:26Z</time>
      </trkpt>
      <trkpt lat="45.4597" lon="6.40209">
        <ele>1481</ele>
        <time>2018-06-23T07:03:26Z</time>
      </trkpt>
      <trkpt lat="45.45958" lon="6.40198">
        <ele>1482</ele>
        <time>2018-06-23T07:04:26Z</time>
      </trkpt>
      <trkpt lat="45.45949" lon="6.40193">
        <ele>1481</ele>
        <time>2018-06-23T07:05:26Z</time>
      </trkpt>
      <trkpt lat="45.4594" lon="6.40188">
        <ele>1482</ele>
        <time>2018-06-23T07:06:26Z</time>
      </trkpt>
      <trkpt lat="45.45933" lon="6.40181">
        <ele>1482</ele>
        <time>2018-06-23T07:07:26Z</time>
      </trkpt>
      <trkpt lat="45.45923" lon="6.40173">
        <ele>1483</ele>
        <time>2018-06-23T07:08:26Z</time>
      </trkpt>
      <trkpt lat="45.45918" lon="6.40166">
        <ele>1486</ele>
        <time>2018-06-23T07:09:26Z</time>
      </trkpt>
      <trkpt lat="45.45906" lon="6.40151">
        <ele>1487</ele>
        <time>2018-06-23T07:10:26Z</time>
      </trkpt>
      <trkpt lat="45.45898" lon="6.40136">
        <ele>1488</ele>
        <time>2018-06-23T07:11:26Z</time>
      </trkpt>
      <trkpt lat="45.45889" lon="6.40118">
        <ele>1491</ele>
        <time>2018-06-23T07:12:26Z</time>
      </trkpt>
      <trkpt lat="45.45881" lon="6.40106">
        <ele>1492</ele>
        <time>2018-06-23T07:13:26Z</time>
      </trkpt>
      <trkpt lat="45.45875" lon="6.40102">
        <ele>1492</ele>
        <time>2018-06-23T07:14:26Z</time>
      </trkpt>
      <trkpt lat="45.45867" lon="6.40092">
        <ele>1491</ele>
        <time>2018-06-23T07:15:26Z</time>
      </trkpt>
      <trkpt lat="45.45863" lon="6.40084">
        <ele>1492</ele>
        <time>2018-06-23T07:16:26Z</time>
      </trkpt>
      <trkpt lat="45.45861" lon="6.40075">
        <ele>1507</ele>
        <time>2018-06-23T07:17:26Z</time>
      </trkpt>
      <trkpt lat="45.45857" lon="6.40066">
        <ele>1507</ele>
        <time>2018-06-23T07:18:26Z</time>
      </trkpt>
      <trkpt lat="45.45852" lon="6.40061">
        <ele>1507</ele>
        <time>2018-06-23T07:19:26Z</time>
      </trkpt>
      <trkpt lat="45.45838" lon="6.40051">
        <ele>1508</ele>
        <time>2018-06-23T07:20:26Z</time>
      </trkpt>
      <trkpt lat="45.45827" lon="6.40046">
        <ele>1495</ele>
        <time>2018-06-23T07:21:26Z</time>
      </trkpt>
      <trkpt lat="45.45818" lon="6.40043">
        <ele>1495</ele>
        <time>2018-06-23T07:22:26Z</time>
      </trkpt>
      <trkpt lat="45.45815" lon="6.4004">
        <ele>1495</ele>
        <time>2018-06-23T07:23:26Z</time>
      </trkpt>
      <trkpt lat="45.45801" lon="6.40027">
        <ele>1496</ele>
        <time>2018-06-23T07:24:26Z</time>
      </trkpt>
      <trkpt lat="45.45796" lon="6.40025">
        <ele>1495</ele>
        <time>2018-06-23T07:25:26Z</time>
      </trkpt>
      <trkpt lat="45.45789" lon="6.40023">
        <ele>1495</ele>
        <time>2018-06-23T07:26:26Z</time>
      </trkpt>
      <trkpt lat="45.45785" lon="6.4002">
        <ele>1495</ele>
        <time>2018-06-23T07:27:26Z</time>
      </trkpt>
      <trkpt lat="45.45776" lon="6.40016">
        <ele>1494</ele>
        <time>2018-06-23T07:28:26Z</time>
      </trkpt>
      <trkpt lat="45.4577" lon="6.4001">
        <ele>1495</ele>
        <time>2018-06-23T07:29:26Z</time>
      </trkpt>
      <trkpt lat="45.4576" lon="6.4">
        <ele>1495</ele>
        <time>2018-06-23T07:30:26Z</time>
      </trkpt>
      <trkpt lat="45.45755" lon="6.39991">
        <ele>1502</ele>
        <time>2018-06-23T07:31:26Z</time>
      </trkpt>
      <trkpt lat="45.45751" lon="6.39984">
        <ele>1505</ele>
        <time>2018-06-23T07:32:26Z</time>
      </trkpt>
      <trkpt lat="45.45747" lon="6.39971">
        <ele>1500</ele>
        <time>2018-06-23T07:33:26Z</time>
      </trkpt>
      <trkpt lat="45.45746" lon="6.39955">
        <ele>1502</ele>
        <time>2018-06-23T07:34:26Z</time>
      </trkpt>
      <trkpt lat="45.45743" lon="6.39942">
        <ele>1504</ele>
        <time>2018-06-23T07:35:26Z</time>
      </trkpt>
      <trkpt lat="45.45737" lon="6.39935">
        <ele>1505</ele>
        <time>2018-06-23T07:36:26Z</time>
      </trkpt>
      <trkpt lat="45.45732" lon="6.39933">
        <ele>1505</ele>
        <time>2018-06-23T07:37:26Z</time>
      </trkpt>
      <trkpt lat="45.45728" lon="6.39928">
        <ele>1505</ele>
        <time>2018-06-23T07:38:26Z</time>
      </trkpt>
      <trkpt lat="45.45727" lon="6.39914">
        <ele>1513</ele>
        <time>2018-06-23T07:39:26Z</time>
      </trkpt>
      <trkpt lat="45.45719" lon="6.3989">
        <ele>1515</ele>
        <time>2018-06-23T07:40:26Z</time>
      </trkpt>
      <trkpt lat="45.45712" lon="6.39874">
        <ele>1516</ele>
        <time>2018-06-23T07:41:26Z</time>
      </trkpt>
      <trkpt lat="45.45707" lon="6.39864">
        <ele>1517</ele>
        <time>2018-06-23T07:42:26Z</time>
      </trkpt>
      <trkpt lat="45.45696" lon="6.39846">
        <ele>1517</ele>
        <time>2018-06-23T07:43:26Z</time>
      </trkpt>
      <trkpt lat="45.45685" lon="6.39832">
        <ele>1527</ele>
        <time>2018-06-23T07:44:26Z</time>
      </trkpt>
      <trkpt lat="45.45682" lon="6.39829">
        <ele>1526</ele>
        <time>2018-06-23T07:45:26Z</time>
      </trkpt>
      <trkpt lat="45.4568" lon="6.39825">
        <ele>1526</ele>
        <time>2018-06-23T07:46:26Z</time>
      </trkpt>
      <trkpt lat="45.45678" lon="6.39812">
        <ele>1529</ele>
        <time>2018-06-23T07:47:26Z</time>
      </trkpt>
      <trkpt lat="45.45675" lon="6.39806">
        <ele>1531</ele>
        <time>2018-06-23T07:48:26Z</time>
      </trkpt>
      <trkpt lat="45.45669" lon="6.39805">
        <ele>1530</ele>
        <time>2018-06-23T07:49:26Z</time>
      </trkpt>
      <trkpt lat="45.45666" lon="6.39804">
        <ele>1537</ele>
        <time>2018-06-23T07:50:26Z</time>
      </trkpt>
      <trkpt lat="45.45663" lon="6.39805">
        <ele>1537</ele>
        <time>2018-06-23T07:51:26Z</time>
      </trkpt>
      <trkpt lat="45.45661" lon="6.39815">
        <ele>1533</ele>
        <time>2018-06-23T07:52:26Z</time>
      </trkpt>
      <trkpt lat="45.4566" lon="6.39827">
        <ele>1527</ele>
        <time>2018-06-23T07:53:26Z</time>
      </trkpt>
      <trkpt lat="45.45656" lon="6.39825">
        <ele>1530</ele>
        <time>2018-06-23T07:54:26Z</time>
      </trkpt>
      <trkpt lat="45.45648" lon="6.39824">
        <ele>1535</ele>
        <time>2018-06-23T07:55:26Z</time>
      </trkpt>
      <trkpt lat="45.45642" lon="6.39825">
        <ele>1537</ele>
        <time>2018-06-23T07:56:26Z</time>
      </trkpt>
      <trkpt lat="45.45641" lon="6.39823">
        <ele>1538</ele>
        <time>2018-06-23T07:57:26Z</time>
      </trkpt>
      <trkpt lat="45.45636" lon="6.39821">
        <ele>1541</ele>
        <time>2018-06-23T07:58:26Z</time>
      </trkpt>
      <trkpt lat="45.45633" lon="6.39821">
        <ele>1542</ele>
        <time>2018-06-23T07:59:26Z</time>
      </trkpt>
      <trkpt lat="45.45632" lon="6.39823">
        <ele>1542</ele>
        <time>2018-06-23T08:00:26Z</time>
      </trkpt>
      <trkpt lat="45.45626" lon="6.39826">
        <ele>1544</ele>
        <time>2018-06-23T08:01:26Z</time>
      </trkpt>
      <trkpt lat="45.45624" lon="6.3983">
        <ele>1544</ele>
        <time>2018-06-23T08:02:26Z</time>
      </trkpt>
      <trkpt lat="45.45621" lon="6.39832">
        <ele>1545</ele>
        <time>2018-06-23T08:03:26Z</time>
      </trkpt>
      <trkpt lat="45.45621" lon="6.39836">
        <ele>1535</ele>
        <time>2018-06-23T08:04:26Z</time>
      </trkpt>
      <trkpt lat="45.45621" lon="6.39846">
        <ele>1535</ele>
        <time>2018-06-23T08:05:26Z</time>
      </trkpt>
      <trkpt lat="45.4562" lon="6.3985">
        <ele>1535</ele>
        <time>2018-06-23T08:06:26Z</time>
      </trkpt>
      <trkpt lat="45.45619" lon="6.39865">
        <ele>1534</ele>
        <time>2018-06-23T08:07:26Z</time>
      </trkpt>
      <trkpt lat="45.4562" lon="6.39874">
        <ele>1532</ele>
        <time>2018-06-23T08:08:26Z</time>
      </trkpt>
      <trkpt lat="45.45626" lon="6.39905">
        <ele>1528</ele>
        <time>2018-06-23T08:09:26Z</time>
      </trkpt>
      <trkpt lat="45.45625" lon="6.39909">
        <ele>1528</ele>
        <time>2018-06-23T08:10:26Z</time>
      </trkpt>
      <trkpt lat="45.4562" lon="6.39914">
        <ele>1530</ele>
        <time>2018-06-23T08:11:26Z</time>
      </trkpt>
      <trkpt lat="45.45617" lon="6.39915">
        <ele>1531</ele>
        <time>2018-06-23T08:12:26Z</time>
      </trkpt>
      <trkpt lat="45.45609" lon="6.39913">
        <ele>1533</ele>
        <time>2018-06-23T08:13:26Z</time>
      </trkpt>
      <trkpt lat="45.45607" lon="6.39911">
        <ele>1534</ele>
        <time>2018-06-23T08:14:26Z</time>
      </trkpt>
      <trkpt lat="45.45603" lon="6.39909">
        <ele>1535</ele>
        <time>2018-06-23T08:15:26Z</time>
      </trkpt>
      <trkpt lat="45.456" lon="6.39909">
        <ele>1536</ele>
        <time>2018-06-23T08:16:26Z</time>
      </trkpt>
      <trkpt lat="45.45593" lon="6.39915">
        <ele>1539</ele>
        <time>2018-06-23T08:17:26Z</time>
      </trkpt>
      <trkpt lat="45.45592" lon="6.39915">
        <ele>1539</ele>
        <time>2018-06-23T08:18:26Z</time>
      </trkpt>
      <trkpt lat="45.45585" lon="6.39911">
        <ele>1541</ele>
        <time>2018-06-23T08:19:26Z</time>
      </trkpt>
      <trkpt lat="45.45583" lon="6.39911">
        <ele>1547</ele>
        <time>2018-06-23T08:20:26Z</time>
      </trkpt>
      <trkpt lat="45.45575" lon="6.39917">
        <ele>1542</ele>
        <time>2018-06-23T08:21:26Z</time>
      </trkpt>
      <trkpt lat="45.45572" lon="6.39922">
        <ele>1541</ele>
        <time>2018-06-23T08:22:26Z</time>
      </trkpt>
      <trkpt lat="45.45566" lon="6.39924">
        <ele>1541</ele>
        <time>2018-06-23T08:23:26Z</time>
      </trkpt>
      <trkpt lat="45.4556" lon="6.39923">
        <ele>1541</ele>
        <time>2018-06-23T08:24:26Z</time>
      </trkpt>
      <trkpt lat="45.45553" lon="6.3992">
        <ele>1541</ele>
        <time>2018-06-23T08:25:26Z</time>
      </trkpt>
      <trkpt lat="45.4554" lon="6.3991">
        <ele>1559</ele>
        <time>2018-06-23T08:26:26Z</time>
      </trkpt>
      <trkpt lat="45.45529" lon="6.39903">
        <ele>1560</ele>
        <time>2018-06-23T08:27:26Z</time>
      </trkpt>
      <trkpt lat="45.45523" lon="6.39904">
        <ele>1561</ele>
        <time>2018-06-23T08:28:26Z</time>
      </trkpt>
      <trkpt lat="45.45518" lon="6.39911">
        <ele>1560</ele>
        <time>2018-06-23T08:29:26Z</time>
      </trkpt>
      <trkpt lat="45.45516" lon="6.39916">
        <ele>1560</ele>
        <time>2018-06-23T08:30:26Z</time>
      </trkpt>
      <trkpt lat="45.45514" lon="6.39927">
        <ele>1548</ele>
        <time>2018-06-23T08:31:26Z</time>
      </trkpt>
      <trkpt lat="45.45513" lon="6.39937">
        <ele>1545</ele>
        <time>2018-06-23T08:32:26Z</time>
      </trkpt>
      <trkpt lat="45.45511" lon="6.39938">
        <ele>1545</ele>
        <time>2018-06-23T08:33:26Z</time>
      </trkpt>
      <trkpt lat="45.45506" lon="6.39938">
        <ele>1546</ele>
        <time>2018-06-23T08:34:26Z</time>
      </trkpt>
      <trkpt lat="45.45503" lon="6.39936">
        <ele>1547</ele>
        <time>2018-06-23T08:35:26Z</time>
      </trkpt>
      <trkpt lat="45.45493" lon="6.39931">
        <ele>1553</ele>
        <time>2018-06-23T08:36:26Z</time>
      </trkpt>
      <trkpt lat="45.45484" lon="6.39918">
        <ele>1554</ele>
        <time>2018-06-23T08:37:26Z</time>
      </trkpt>
      <trkpt lat="45.45476" lon="6.39897">
        <ele>1570</ele>
        <time>2018-06-23T08:38:26Z</time>
      </trkpt>
      <trkpt lat="45.45471" lon="6.39893">
        <ele>1571</ele>
        <time>2018-06-23T08:39:26Z</time>
      </trkpt>
      <trkpt lat="45.45463" lon="6.39888">
        <ele>1573</ele>
        <time>2018-06-23T08:40:26Z</time>
      </trkpt>
      <trkpt lat="45.45455" lon="6.39878">
        <ele>1574</ele>
        <time>2018-06-23T08:41:26Z</time>
      </trkpt>
      <trkpt lat="45.45448" lon="6.39876">
        <ele>1575</ele>
        <time>2018-06-23T08:42:26Z</time>
      </trkpt>
      <trkpt lat="45.45442" lon="6.39875">
        <ele>1575</ele>
        <time>2018-06-23T08:43:26Z</time>
      </trkpt>
      <trkpt lat="45.45408" lon="6.39873">
        <ele>1579</ele>
        <time>2018-06-23T08:44:26Z</time>
      </trkpt>
      <trkpt lat="45.45402" lon="6.39871">
        <ele>1580</ele>
        <time>2018-06-23T08:45:26Z</time>
      </trkpt>
      <trkpt lat="45.45385" lon="6.39867">
        <ele>1581</ele>
        <time>2018-06-23T08:46:26Z</time>
      </trkpt>
      <trkpt lat="45.45377" lon="6.3986">
        <ele>1582</ele>
        <time>2018-06-23T08:47:26Z</time>
      </trkpt>
      <trkpt lat="45.45366" lon="6.39857">
        <ele>1584</ele>
        <time>2018-06-23T08:48:26Z</time>
      </trkpt>
      <trkpt lat="45.45361" lon="6.39855">
        <ele>1584</ele>
        <time>2018-06-23T08:49:26Z</time>
      </trkpt>
      <trkpt lat="45.45353" lon="6.39852">
        <ele>1586</ele>
        <time>2018-06-23T08:50:26Z</time>
      </trkpt>
      <trkpt lat="45.45348" lon="6.39852">
        <ele>1587</ele>
        <time>2018-06-23T08:51:26Z</time>
      </trkpt>
      <trkpt lat="45.45341" lon="6.39854">
        <ele>1587</ele>
        <time>2018-06-23T08:52:26Z</time>
      </trkpt>
      <trkpt lat="45.45334" lon="6.39859">
        <ele>1586</ele>
        <time>2018-06-23T08:53:26Z</time>
      </trkpt>
      <trkpt lat="45.45325" lon="6.39864">
        <ele>1587</ele>
        <time>2018-06-23T08:54:26Z</time>
      </trkpt>
      <trkpt lat="45.45318" lon="6.39866">
        <ele>1587</ele>
        <time>2018-06-23T08:55:26Z</time>
      </trkpt>
      <trkpt lat="45.45309" lon="6.39866">
        <ele>1587</ele>
        <time>2018-06-23T08:56:26Z</time>
      </trkpt>
      <trkpt lat="45.45291" lon="6.39868">
        <ele>1586</ele>
        <time>2018-06-23T08:57:26Z</time>
      </trkpt>
      <trkpt lat="45.45286" lon="6.3987">
        <ele>1586</ele>
        <time>2018-06-23T08:58:26Z</time>
      </trkpt>
      <trkpt lat="45.45278" lon="6.39871">
        <ele>1586</ele>
        <time>2018-06-23T08:59:26Z</time>
      </trkpt>
      <trkpt lat="45.45265" lon="6.39868">
        <ele>1587</ele>
        <time>2018-06-23T09:00:26Z</time>
      </trkpt>
      <trkpt lat="45.45261" lon="6.39866">
        <ele>1587</ele>
        <time>2018-06-23T09:01:26Z</time>
      </trkpt>
      <trkpt lat="45.45257" lon="6.39861">
        <ele>1588</ele>
        <time>2018-06-23T09:02:26Z</time>
      </trkpt>
      <trkpt lat="45.45248" lon="6.39844">
        <ele>1592</ele>
        <time>2018-06-23T09:03:26Z</time>
      </trkpt>
      <trkpt lat="45.45243" lon="6.39827">
        <ele>1601</ele>
        <time>2018-06-23T09:04:26Z</time>
      </trkpt>
      <trkpt lat="45.45237" lon="6.39812">
        <ele>1604</ele>
        <time>2018-06-23T09:05:26Z</time>
      </trkpt>
      <trkpt lat="45.45233" lon="6.39808">
        <ele>1605</ele>
        <time>2018-06-23T09:06:26Z</time>
      </trkpt>
      <trkpt lat="45.45222" lon="6.39799">
        <ele>1606</ele>
        <time>2018-06-23T09:07:26Z</time>
      </trkpt>
      <trkpt lat="45.45216" lon="6.39791">
        <ele>1607</ele>
        <time>2018-06-23T09:08:26Z</time>
      </trkpt>
      <trkpt lat="45.45214" lon="6.39786">
        <ele>1608</ele>
        <time>2018-06-23T09:09:26Z</time>
      </trkpt>
      <trkpt lat="45.4521" lon="6.39769">
        <ele>1611</ele>
        <time>2018-06-23T09:10:26Z</time>
      </trkpt>
      <trkpt lat="45.45206" lon="6.39764">
        <ele>1611</ele>
        <time>2018-06-23T09:11:26Z</time>
      </trkpt>
      <trkpt lat="45.45198" lon="6.39759">
        <ele>1612</ele>
        <time>2018-06-23T09:12:26Z</time>
      </trkpt>
      <trkpt lat="45.45189" lon="6.39756">
        <ele>1612</ele>
        <time>2018-06-23T09:13:26Z</time>
      </trkpt>
      <trkpt lat="45.45167" lon="6.39747">
        <ele>1621</ele>
        <time>2018-06-23T09:14:26Z</time>
      </trkpt>
      <trkpt lat="45.45158" lon="6.39745">
        <ele>1622</ele>
        <time>2018-06-23T09:15:26Z</time>
      </trkpt>
      <trkpt lat="45.45151" lon="6.39744">
        <ele>1623</ele>
        <time>2018-06-23T09:16:26Z</time>
      </trkpt>
      <trkpt lat="45.45147" lon="6.39742">
        <ele>1624</ele>
        <time>2018-06-23T09:17:26Z</time>
      </trkpt>
      <trkpt lat="45.45139" lon="6.39736">
        <ele>1625</ele>
        <time>2018-06-23T09:18:26Z</time>
      </trkpt>
      <trkpt lat="45.45129" lon="6.39734">
        <ele>1625</ele>
        <time>2018-06-23T09:19:26Z</time>
      </trkpt>
      <trkpt lat="45.45124" lon="6.39734">
        <ele>1624</ele>
        <time>2018-06-23T09:20:26Z</time>
      </trkpt>
      <trkpt lat="45.4512" lon="6.39732">
        <ele>1624</ele>
        <time>2018-06-23T09:21:26Z</time>
      </trkpt>
      <trkpt lat="45.45111" lon="6.39725">
        <ele>1624</ele>
        <time>2018-06-23T09:22:26Z</time>
      </trkpt>
      <trkpt lat="45.45101" lon="6.39722">
        <ele>1624</ele>
        <time>2018-06-23T09:23:26Z</time>
      </trkpt>
      <trkpt lat="45.45084" lon="6.39718">
        <ele>1624</ele>
        <time>2018-06-23T09:24:26Z</time>
      </trkpt>
      <trkpt lat="45.45078" lon="6.39719">
        <ele>1618</ele>
        <time>2018-06-23T09:25:26Z</time>
      </trkpt>
      <trkpt lat="45.4507" lon="6.39715">
        <ele>1620</ele>
        <time>2018-06-23T09:26:26Z</time>
      </trkpt>
      <trkpt lat="45.45052" lon="6.39708">
        <ele>1621</ele>
        <time>2018-06-23T09:27:26Z</time>
      </trkpt>
      <trkpt lat="45.45051" lon="6.39708">
        <ele>1621</ele>
        <time>2018-06-23T09:28:26Z</time>
      </trkpt>
      <trkpt lat="45.45044" lon="6.39708">
        <ele>1620</ele>
        <time>2018-06-23T09:29:26Z</time>
      </trkpt>
      <trkpt lat="45.45039" lon="6.39706">
        <ele>1621</ele>
        <time>2018-06-23T09:30:26Z</time>
      </trkpt>
      <trkpt lat="45.44996" lon="6.39687">
        <ele>1622</ele>
        <time>2018-06-23T09:31:26Z</time>
      </trkpt>
      <trkpt lat="45.44989" lon="6.39686">
        <ele>1622</ele>
        <time>2018-06-23T09:32:26Z</time>
      </trkpt>
      <trkpt lat="45.44963" lon="6.39683">
        <ele>1620</ele>
        <time>2018-06-23T09:33:26Z</time>
      </trkpt>
      <trkpt lat="45.4496" lon="6.39681">
        <ele>1620</ele>
        <time>2018-06-23T09:34:26Z</time>
      </trkpt>
      <trkpt lat="45.44957" lon="6.39674">
        <ele>1620</ele>
        <time>2018-06-23T09:35:26Z</time>
      </trkpt>
      <trkpt lat="45.44952" lon="6.39671">
        <ele>1620</ele>
        <time>2018-06-23T09:36:26Z</time>
      </trkpt>
      <trkpt lat="45.44948" lon="6.39668">
        <ele>1621</ele>
        <time>2018-06-23T09:37:26Z</time>
      </trkpt>
      <trkpt lat="45.44943" lon="6.39666">
        <ele>1633</ele>
        <time>2018-06-23T09:38:26Z</time>
      </trkpt>
      <trkpt lat="45.44938" lon="6.39665">
        <ele>1632</ele>
        <time>2018-06-23T09:39:26Z</time>
      </trkpt>
      <trkpt lat="45.44926" lon="6.39664">
        <ele>1629</ele>
        <time>2018-06-23T09:40:26Z</time>
      </trkpt>
      <trkpt lat="45.44918" lon="6.39668">
        <ele>1624</ele>
        <time>2018-06-23T09:41:26Z</time>
      </trkpt>
      <trkpt lat="45.44914" lon="6.39674">
        <ele>1623</ele>
        <time>2018-06-23T09:42:26Z</time>
      </trkpt>
      <trkpt lat="45.44912" lon="6.39674">
        <ele>1622</ele>
        <time>2018-06-23T09:43:26Z</time>
      </trkpt>
      <trkpt lat="45.4491" lon="6.39674">
        <ele>1622</ele>
        <time>2018-06-23T09:44:26Z</time>
      </trkpt>
      <trkpt lat="45.44907" lon="6.39671">
        <ele>1622</ele>
        <time>2018-06-23T09:45:26Z</time>
      </trkpt>
      <trkpt lat="45.44899" lon="6.39666">
        <ele>1627</ele>
        <time>2018-06-23T09:46:26Z</time>
      </trkpt>
      <trkpt lat="45.44894" lon="6.39664">
        <ele>1628</ele>
        <time>2018-06-23T09:47:26Z</time>
      </trkpt>
      <trkpt lat="45.44889" lon="6.39663">
        <ele>1628</ele>
        <time>2018-06-23T09:48:26Z</time>
      </trkpt>
      <trkpt lat="45.44886" lon="6.39668">
        <ele>1621</ele>
        <time>2018-06-23T09:49:26Z</time>
      </trkpt>
      <trkpt lat="45.4489" lon="6.39674">
        <ele>1621</ele>
        <time>2018-06-23T09:50:26Z</time>
      </trkpt>
      <trkpt lat="45.44912" lon="6.39717">
        <ele>1617</ele>
        <time>2018-06-23T09:51:26Z</time>
      </trkpt>
      <trkpt lat="45.44921" lon="6.39727">
        <ele>1614</ele>
        <time>2018-06-23T09:52:26Z</time>
      </trkpt>
      <trkpt lat="45.44942" lon="6.39742">
        <ele>1613</ele>
        <time>2018-06-23T09:53:26Z</time>
      </trkpt>
      <trkpt lat="45.44959" lon="6.39753">
        <ele>1605</ele>
        <time>2018-06-23T09:54:26Z</time>
      </trkpt>
      <trkpt lat="45.44963" lon="6.39758">
        <ele>1605</ele>
        <time>2018-06-23T09:55:26Z</time>
      </trkpt>
      <trkpt lat="45.44969" lon="6.39766">
        <ele>1605</ele>
        <time>2018-06-23T09:56:26Z</time>
      </trkpt>
      <trkpt lat="45.44978" lon="6.39772">
        <ele>1604</ele>
        <time>2018-06-23T09:57:26Z</time>
      </trkpt>
      <trkpt lat="45.44984" lon="6.39774">
        <ele>1604</ele>
        <time>2018-06-23T09:58:26Z</time>
      </trkpt>
      <trkpt lat="45.44988" lon="6.39778">
        <ele>1604</ele>
        <time>2018-06-23T09:59:26Z</time>
      </trkpt>
      <trkpt lat="45.4499" lon="6.39783">
        <ele>1604</ele>
        <time>2018-06-23T10:00:26Z</time>
      </trkpt>
      <trkpt lat="45.44989" lon="6.39791">
        <ele>1603</ele>
        <time>2018-06-23T10:01:26Z</time>
      </trkpt>
      <trkpt lat="45.44986" lon="6.39802">
        <ele>1602</ele>
        <time>2018-06-23T10:02:26Z</time>
      </trkpt>
      <trkpt lat="45.44986" lon="6.39812">
        <ele>1601</ele>
        <time>2018-06-23T10:03:26Z</time>
      </trkpt>
      <trkpt lat="45.44988" lon="6.3982">
        <ele>1600</ele>
        <time>2018-06-23T10:04:26Z</time>
      </trkpt>
      <trkpt lat="45.44991" lon="6.39826">
        <ele>1599</ele>
        <time>2018-06-23T10:05:26Z</time>
      </trkpt>
      <trkpt lat="45.45012" lon="6.39851">
        <ele>1592</ele>
        <time>2018-06-23T10:06:26Z</time>
      </trkpt>
      <trkpt lat="45.4502" lon="6.39864">
        <ele>1592</ele>
        <time>2018-06-23T10:07:26Z</time>
      </trkpt>
      <trkpt lat="45.45023" lon="6.39872">
        <ele>1592</ele>
        <time>2018-06-23T10:08:26Z</time>
      </trkpt>
      <trkpt lat="45.45026" lon="6.39899">
        <ele>1592</ele>
        <time>2018-06-23T10:09:26Z</time>
      </trkpt>
      <trkpt lat="45.45028" lon="6.39907">
        <ele>1592</ele>
        <time>2018-06-23T10:10:26Z</time>
      </trkpt>
      <trkpt lat="45.45034" lon="6.39914">
        <ele>1592</ele>
        <time>2018-06-23T10:11:26Z</time>
      </trkpt>
      <trkpt lat="45.45053" lon="6.39923">
        <ele>1593</ele>
        <time>2018-06-23T10:12:26Z</time>
      </trkpt>
      <trkpt lat="45.45058" lon="6.39928">
        <ele>1593</ele>
        <time>2018-06-23T10:13:26Z</time>
      </trkpt>
      <trkpt lat="45.45062" lon="6.39932">
        <ele>1592</ele>
        <time>2018-06-23T10:14:26Z</time>
      </trkpt>
      <trkpt lat="45.45056" lon="6.39945">
        <ele>1594</ele>
        <time>2018-06-23T10:15:26Z</time>
      </trkpt>
      <trkpt lat="45.45051" lon="6.39959">
        <ele>1596</ele>
        <time>2018-06-23T10:16:26Z</time>
      </trkpt>
      <trkpt lat="45.45044" lon="6.39962">
        <ele>1597</ele>
        <time>2018-06-23T10:17:26Z</time>
      </trkpt>
      <trkpt lat="45.45038" lon="6.39975">
        <ele>1598</ele>
        <time>2018-06-23T10:18:26Z</time>
      </trkpt>
      <trkpt lat="45.45037" lon="6.39982">
        <ele>1599</ele>
        <time>2018-06-23T10:19:26Z</time>
      </trkpt>
      <trkpt lat="45.45035" lon="6.39994">
        <ele>1600</ele>
        <time>2018-06-23T10:20:26Z</time>
      </trkpt>
      <trkpt lat="45.45037" lon="6.40002">
        <ele>1608</ele>
        <time>2018-06-23T10:21:26Z</time>
      </trkpt>
      <trkpt lat="45.45041" lon="6.40021">
        <ele>1608</ele>
        <time>2018-06-23T10:22:26Z</time>
      </trkpt>
      <trkpt lat="45.45041" lon="6.40033">
        <ele>1609</ele>
        <time>2018-06-23T10:23:26Z</time>
      </trkpt>
      <trkpt lat="45.45042" lon="6.4008">
        <ele>1612</ele>
        <time>2018-06-23T10:24:26Z</time>
      </trkpt>
      <trkpt lat="45.45038" lon="6.4009">
        <ele>1622</ele>
        <time>2018-06-23T10:25:26Z</time>
      </trkpt>
      <trkpt lat="45.45033" lon="6.40099">
        <ele>1623</ele>
        <time>2018-06-23T10:26:26Z</time>
      </trkpt>
      <trkpt lat="45.45032" lon="6.40108">
        <ele>1624</ele>
        <time>2018-06-23T10:27:26Z</time>
      </trkpt>
      <trkpt lat="45.45032" lon="6.40116">
        <ele>1624</ele>
        <time>2018-06-23T10:28:26Z</time>
      </trkpt>
      <trkpt lat="45.45033" lon="6.40126">
        <ele>1625</ele>
        <time>2018-06-23T10:29:26Z</time>
      </trkpt>
      <trkpt lat="45.45039" lon="6.40167">
        <ele>1636</ele>
        <time>2018-06-23T10:30:26Z</time>
      </trkpt>
      <trkpt lat="45.45045" lon="6.40179">
        <ele>1635</ele>
        <time>2018-06-23T10:31:26Z</time>
      </trkpt>
      <trkpt lat="45.45058" lon="6.40208">
        <ele>1636</ele>
        <time>2018-06-23T10:32:26Z</time>
      </trkpt>
      <trkpt lat="45.45067" lon="6.40211">
        <ele>1636</ele>
        <time>2018-06-23T10:33:26Z</time>
      </trkpt>
      <trkpt lat="45.45078" lon="6.40212">
        <ele>1635</ele>
        <time>2018-06-23T10:34:26Z</time>
      </trkpt>
      <trkpt lat="45.45079" lon="6.40219">
        <ele>1636</ele>
        <time>2018-06-23T10:35:26Z</time>
      </trkpt>
      <trkpt lat="45.45091" lon="6.40242">
        <ele>1630</ele>
        <time>2018-06-23T10:36:26Z</time>
      </trkpt>
      <trkpt lat="45.45099" lon="6.40253">
        <ele>1634</ele>
        <time>2018-06-23T10:37:26Z</time>
      </trkpt>
      <trkpt lat="45.45107" lon="6.40263">
        <ele>1634</ele>
        <time>2018-06-23T10:38:26Z</time>
      </trkpt>
      <trkpt lat="45.4511" lon="6.40271">
        <ele>1634</ele>
        <time>2018-06-23T10:39:26Z</time>
      </trkpt>
      <trkpt lat="45.45114" lon="6.40275">
        <ele>1633</ele>
        <time>2018-06-23T10:40:26Z</time>
      </trkpt>
      <trkpt lat="45.45118" lon="6.4028">
        <ele>1633</ele>
        <time>2018-06-23T10:41:26Z</time>
      </trkpt>
      <trkpt lat="45.45122" lon="6.40283">
        <ele>1633</ele>
        <time>2018-06-23T10:42:26Z</time>
      </trkpt>
      <trkpt lat="45.45133" lon="6.40285">
        <ele>1632</ele>
        <time>2018-06-23T10:43:26Z</time>
      </trkpt>
      <trkpt lat="45.45145" lon="6.40291">
        <ele>1631</ele>
        <time>2018-06-23T10:44:26Z</time>
      </trkpt>
      <trkpt lat="45.45151" lon="6.40295">
        <ele>1631</ele>
        <time>2018-06-23T10:45:26Z</time>
      </trkpt>
      <trkpt lat="45.45158" lon="6.40305">
        <ele>1631</ele>
        <time>2018-06-23T10:46:26Z</time>
      </trkpt>
      <trkpt lat="45.45161" lon="6.40307">
        <ele>1631</ele>
        <time>2018-06-23T10:47:26Z</time>
      </trkpt>
      <trkpt lat="45.45165" lon="6.40308">
        <ele>1631</ele>
        <time>2018-06-23T10:48:26Z</time>
      </trkpt>
      <trkpt lat="45.45171" lon="6.4031">
        <ele>1620</ele>
        <time>2018-06-23T10:49:26Z</time>
      </trkpt>
      <trkpt lat="45.45175" lon="6.4031">
        <ele>1619</ele>
        <time>2018-06-23T10:50:26Z</time>
      </trkpt>
      <trkpt lat="45.45183" lon="6.40311">
        <ele>1618</ele>
        <time>2018-06-23T10:51:26Z</time>
      </trkpt>
      <trkpt lat="45.45193" lon="6.40318">
        <ele>1617</ele>
        <time>2018-06-23T10:52:26Z</time>
      </trkpt>
      <trkpt lat="45.45196" lon="6.40321">
        <ele>1617</ele>
        <time>2018-06-23T10:53:26Z</time>
      </trkpt>
      <trkpt lat="45.45202" lon="6.40341">
        <ele>1625</ele>
        <time>2018-06-23T10:54:26Z</time>
      </trkpt>
      <trkpt lat="45.45207" lon="6.40349">
        <ele>1625</ele>
        <time>2018-06-23T10:55:26Z</time>
      </trkpt>
      <trkpt lat="45.45211" lon="6.40352">
        <ele>1624</ele>
        <time>2018-06-23T10:56:26Z</time>
      </trkpt>
      <trkpt lat="45.45218" lon="6.40353">
        <ele>1623</ele>
        <time>2018-06-23T10:57:26Z</time>
      </trkpt>
      <trkpt lat="45.45224" lon="6.40351">
        <ele>1622</ele>
        <time>2018-06-23T10:58:26Z</time>
      </trkpt>
      <trkpt lat="45.45227" lon="6.40347">
        <ele>1621</ele>
        <time>2018-06-23T10:59:26Z</time>
      </trkpt>
      <trkpt lat="45.45234" lon="6.40344">
        <ele>1618</ele>
        <time>2018-06-23T11:00:26Z</time>
      </trkpt>
      <trkpt lat="45.45241" lon="6.40347">
        <ele>1617</ele>
        <time>2018-06-23T11:01:26Z</time>
      </trkpt>
      <trkpt lat="45.45249" lon="6.40351">
        <ele>1617</ele>
        <time>2018-06-23T11:02:26Z</time>
      </trkpt>
      <trkpt lat="45.45252" lon="6.40355">
        <ele>1608</ele>
        <time>2018-06-23T11:03:26Z</time>
      </trkpt>
      <trkpt lat="45.45267" lon="6.40369">
        <ele>1608</ele>
        <time>2018-06-23T11:04:26Z</time>
      </trkpt>
      <trkpt lat="45.45281" lon="6.40392">
        <ele>1609</ele>
        <time>2018-06-23T11:05:26Z</time>
      </trkpt>
      <trkpt lat="45.45284" lon="6.404">
        <ele>1609</ele>
        <time>2018-06-23T11:06:26Z</time>
      </trkpt>
      <trkpt lat="45.45287" lon="6.40404">
        <ele>1609</ele>
        <time>2018-06-23T11:07:26Z</time>
      </trkpt>
      <trkpt lat="45.45291" lon="6.4041">
        <ele>1609</ele>
        <time>2018-06-23T11:08:26Z</time>
      </trkpt>
      <trkpt lat="45.45298" lon="6.40414">
        <ele>1607</ele>
        <time>2018-06-23T11:09:26Z</time>
      </trkpt>
      <trkpt lat="45.45327" lon="6.40435">
        <ele>1614</ele>
        <time>2018-06-23T11:10:26Z</time>
      </trkpt>
      <trkpt lat="45.45336" lon="6.40444">
        <ele>1603</ele>
        <time>2018-06-23T11:11:26Z</time>
      </trkpt>
      <trkpt lat="45.45343" lon="6.40452">
        <ele>1604</ele>
        <time>2018-06-23T11:12:26Z</time>
      </trkpt>
      <trkpt lat="45.4535" lon="6.40466">
        <ele>1606</ele>
        <time>2018-06-23T11:13:26Z</time>
      </trkpt>
      <trkpt lat="45.45363" lon="6.40501">
        <ele>1623</ele>
        <time>2018-06-23T11:14:26Z</time>
      </trkpt>
      <trkpt lat="45.45366" lon="6.40514">
        <ele>1624</ele>
        <time>2018-06-23T11:15:26Z</time>
      </trkpt>
      <trkpt lat="45.45369" lon="6.40517">
        <ele>1624</ele>
        <time>2018-06-23T11:16:26Z</time>
      </trkpt>
      <trkpt lat="45.45374" lon="6.40522">
        <ele>1623</ele>
        <time>2018-06-23T11:17:26Z</time>
      </trkpt>
      <trkpt lat="45.45393" lon="6.40532">
        <ele>1622</ele>
        <time>2018-06-23T11:18:26Z</time>
      </trkpt>
      <trkpt lat="45.45398" lon="6.40537">
        <ele>1622</ele>
        <time>2018-06-23T11:19:26Z</time>
      </trkpt>
      <trkpt lat="45.45402" lon="6.40543">
        <ele>1623</ele>
        <time>2018-06-23T11:20:26Z</time>
      </trkpt>
      <trkpt lat="45.45413" lon="6.40562">
        <ele>1626</ele>
        <time>2018-06-23T11:21:26Z</time>
      </trkpt>
      <trkpt lat="45.45417" lon="6.40564">
        <ele>1614</ele>
        <time>2018-06-23T11:22:26Z</time>
      </trkpt>
      <trkpt lat="45.45425" lon="6.40571">
        <ele>1616</ele>
        <time>2018-06-23T11:23:26Z</time>
      </trkpt>
      <trkpt lat="45.45429" lon="6.40578">
        <ele>1617</ele>
        <time>2018-06-23T11:24:26Z</time>
      </trkpt>
      <trkpt lat="45.45436" lon="6.40587">
        <ele>1627</ele>
        <time>2018-06-23T11:25:26Z</time>
      </trkpt>
      <trkpt lat="45.45442" lon="6.4059">
        <ele>1627</ele>
        <time>2018-06-23T11:26:26Z</time>
      </trkpt>
      <trkpt lat="45.45458" lon="6.40596">
        <ele>1624</ele>
        <time>2018-06-23T11:27:26Z</time>
      </trkpt>
      <trkpt lat="45.45467" lon="6.40602">
        <ele>1623</ele>
        <time>2018-06-23T11:28:26Z</time>
      </trkpt>
      <trkpt lat="45.45485" lon="6.40614">
        <ele>1622</ele>
        <time>2018-06-23T11:29:26Z</time>
      </trkpt>
      <trkpt lat="45.4549" lon="6.40619">
        <ele>1623</ele>
        <time>2018-06-23T11:30:26Z</time>
      </trkpt>
      <trkpt lat="45.45494" lon="6.40624">
        <ele>1623</ele>
        <time>2018-06-23T11:31:26Z</time>
      </trkpt>
      <trkpt lat="45.45496" lon="6.4063">
        <ele>1625</ele>
        <time>2018-06-23T11:32:26Z</time>
      </trkpt>
      <trkpt lat="45.45498" lon="6.40641">
        <ele>1627</ele>
        <time>2018-06-23T11:33:26Z</time>
      </trkpt>
      <trkpt lat="45.45504" lon="6.40648">
        <ele>1613</ele>
        <time>2018-06-23T11:34:26Z</time>
      </trkpt>
      <trkpt lat="45.45511" lon="6.40651">
        <ele>1613</ele>
        <time>2018-06-23T11:35:26Z</time>
      </trkpt>
      <trkpt lat="45.45521" lon="6.40659">
        <ele>1611</ele>
        <time>2018-06-23T11:36:26Z</time>
      </trkpt>
      <trkpt lat="45.45526" lon="6.4066">
        <ele>1609</ele>
        <time>2018-06-23T11:37:26Z</time>
      </trkpt>
      <trkpt lat="45.45528" lon="6.40662">
        <ele>1608</ele>
        <time>2018-06-23T11:38:26Z</time>
      </trkpt>
      <trkpt lat="45.45532" lon="6.40667">
        <ele>1621</ele>
        <time>2018-06-23T11:39:26Z</time>
      </trkpt>
      <trkpt lat="45.45534" lon="6.40671">
        <ele>1621</ele>
        <time>2018-06-23T11:40:26Z</time>
      </trkpt>
      <trkpt lat="45.45541" lon="6.40678">
        <ele>1620</ele>
        <time>2018-06-23T11:41:26Z</time>
      </trkpt>
      <trkpt lat="45.45544" lon="6.40682">
        <ele>1619</ele>
        <time>2018-06-23T11:42:26Z</time>
      </trkpt>
      <trkpt lat="45.45545" lon="6.40689">
        <ele>1620</ele>
        <time>2018-06-23T11:43:26Z</time>
      </trkpt>
      <trkpt lat="45.45544" lon="6.40709">
        <ele>1622</ele>
        <time>2018-06-23T11:44:26Z</time>
      </trkpt>
      <trkpt lat="45.45545" lon="6.40717">
        <ele>1623</ele>
        <time>2018-06-23T11:45:26Z</time>
      </trkpt>
      <trkpt lat="45.45548" lon="6.40725">
        <ele>1623</ele>
        <time>2018-06-23T11:46:26Z</time>
      </trkpt>
      <trkpt lat="45.45562" lon="6.40759">
        <ele>1633</ele>
        <time>2018-06-23T11:47:26Z</time>
      </trkpt>
      <trkpt lat="45.45566" lon="6.40762">
        <ele>1632</ele>
        <time>2018-06-23T11:48:26Z</time>
      </trkpt>
      <trkpt lat="45.45576" lon="6.40769">
        <ele>1631</ele>
        <time>2018-06-23T11:49:26Z</time>
      </trkpt>
      <trkpt lat="45.45577" lon="6.40774">
        <ele>1633</ele>
        <time>2018-06-23T11:50:26Z</time>
      </trkpt>
      <trkpt lat="45.45578" lon="6.40784">
        <ele>1636</ele>
        <time>2018-06-23T11:51:26Z</time>
      </trkpt>
      <trkpt lat="45.45577" lon="6.40789">
        <ele>1637</ele>
        <time>2018-06-23T11:52:26Z</time>
      </trkpt>
      <trkpt lat="45.45578" lon="6.40795">
        <ele>1638</ele>
        <time>2018-06-23T11:53:26Z</time>
      </trkpt>
      <trkpt lat="45.45581" lon="6.408">
        <ele>1639</ele>
        <time>2018-06-23T11:54:26Z</time>
      </trkpt>
      <trkpt lat="45.45584" lon="6.40802">
        <ele>1626</ele>
        <time>2018-06-23T11:55:26Z</time>
      </trkpt>
      <trkpt lat="45.45591" lon="6.40798">
        <ele>1625</ele>
        <time>2018-06-23T11:56:26Z</time>
      </trkpt>
      <trkpt lat="45.45592" lon="6.40799">
        <ele>1625</ele>
        <time>2018-06-23T11:57:26Z</time>
      </trkpt>
      <trkpt lat="45.45594" lon="6.40802">
        <ele>1625</ele>
        <time>2018-06-23T11:58:26Z</time>
      </trkpt>
      <trkpt lat="45.45596" lon="6.40801">
        <ele>1625</ele>
        <time>2018-06-23T11:59:26Z</time>
      </trkpt>
      <trkpt lat="45.45599" lon="6.408">
        <ele>1625</ele>
        <time>2018-06-23T12:00:26Z</time>
      </trkpt>
      <trkpt lat="45.45609" lon="6.40787">
        <ele>1622</ele>
        <time>2018-06-23T12:01:26Z</time>
      </trkpt>
      <trkpt lat="45.45614" lon="6.40785">
        <ele>1621</ele>
        <time>2018-06-23T12:02:26Z</time>
      </trkpt>
      <trkpt lat="45.45625" lon="6.40784">
        <ele>1620</ele>
        <time>2018-06-23T12:03:26Z</time>
      </trkpt>
      <trkpt lat="45.45633" lon="6.40781">
        <ele>1618</ele>
        <time>2018-06-23T12:04:26Z</time>
      </trkpt>
      <trkpt lat="45.45644" lon="6.40779">
        <ele>1616</ele>
        <time>2018-06-23T12:05:26Z</time>
      </trkpt>
      <trkpt lat="45.45647" lon="6.40779">
        <ele>1616</ele>
        <time>2018-06-23T12:06:26Z</time>
      </trkpt>
      <trkpt lat="45.45649" lon="6.40781">
        <ele>1616</ele>
        <time>2018-06-23T12:07:26Z</time>
      </trkpt>
      <trkpt lat="45.45656" lon="6.4079">
        <ele>1618</ele>
        <time>2018-06-23T12:08:26Z</time>
      </trkpt>
      <trkpt lat="45.45659" lon="6.408">
        <ele>1621</ele>
        <time>2018-06-23T12:09:26Z</time>
      </trkpt>
      <trkpt lat="45.45662" lon="6.40807">
        <ele>1623</ele>
        <time>2018-06-23T12:10:26Z</time>
      </trkpt>
      <trkpt lat="45.45663" lon="6.40806">
        <ele>1623</ele>
        <time>2018-06-23T12:11:26Z</time>
      </trkpt>
      <trkpt lat="45.45666" lon="6.40805">
        <ele>1622</ele>
        <time>2018-06-23T12:12:26Z</time>
      </trkpt>
      <trkpt lat="45.4567" lon="6.40805">
        <ele>1613</ele>
        <time>2018-06-23T12:13:26Z</time>
      </trkpt>
      <trkpt lat="45.45673" lon="6.40805">
        <ele>1612</ele>
        <time>2018-06-23T12:14:26Z</time>
      </trkpt>
      <trkpt lat="45.45675" lon="6.40803">
        <ele>1611</ele>
        <time>2018-06-23T12:15:26Z</time>
      </trkpt>
      <trkpt lat="45.4568" lon="6.40799">
        <ele>1610</ele>
        <time>2018-06-23T12:16:26Z</time>
      </trkpt>
      <trkpt lat="45.45689" lon="6.40796">
        <ele>1608</ele>
        <time>2018-06-23T12:17:26Z</time>
      </trkpt>
      <trkpt lat="45.45692" lon="6.40795">
        <ele>1607</ele>
        <time>2018-06-23T12:18:26Z</time>
      </trkpt>
      <trkpt lat="45.45697" lon="6.40796">
        <ele>1607</ele>
        <time>2018-06-23T12:19:26Z</time>
      </trkpt>
      <trkpt lat="45.45703" lon="6.40801">
        <ele>1607</ele>
        <time>2018-06-23T12:20:26Z</time>
      </trkpt>
      <trkpt lat="45.45705" lon="6.40804">
        <ele>1608</ele>
        <time>2018-06-23T12:21:26Z</time>
      </trkpt>
      <trkpt lat="45.45706" lon="6.40806">
        <ele>1608</ele>
        <time>2018-06-23T12:22:26Z</time>
      </trkpt>
      <trkpt lat="45.45707" lon="6.40811">
        <ele>1609</ele>
        <time>2018-06-23T12:23:26Z</time>
      </trkpt>
      <trkpt lat="45.45709" lon="6.40821">
        <ele>1610</ele>
        <time>2018-06-23T12:24:26Z</time>
      </trkpt>
      <trkpt lat="45.45711" lon="6.40826">
        <ele>1611</ele>
        <time>2018-06-23T12:25:26Z</time>
      </trkpt>
      <trkpt lat="45.45712" lon="6.40829">
        <ele>1611</ele>
        <time>2018-06-23T12:26:26Z</time>
      </trkpt>
      <trkpt lat="45.45716" lon="6.40832">
        <ele>1611</ele>
        <time>2018-06-23T12:27:26Z</time>
      </trkpt>
      <trkpt lat="45.45724" lon="6.40838">
        <ele>1630</ele>
        <time>2018-06-23T12:28:26Z</time>
      </trkpt>
      <trkpt lat="45.45726" lon="6.40842">
        <ele>1630</ele>
        <time>2018-06-23T12:29:26Z</time>
      </trkpt>
      <trkpt lat="45.45728" lon="6.40849">
        <ele>1631</ele>
        <time>2018-06-23T12:30:26Z</time>
      </trkpt>
      <trkpt lat="45.4573" lon="6.40862">
        <ele>1634</ele>
        <time>2018-06-23T12:31:26Z</time>
      </trkpt>
      <trkpt lat="45.45732" lon="6.40864">
        <ele>1635</ele>
        <time>2018-06-23T12:32:26Z</time>
      </trkpt>
      <trkpt lat="45.45735" lon="6.40865">
        <ele>1635</ele>
        <time>2018-06-23T12:33:26Z</time>
      </trkpt>
      <trkpt lat="45.45743" lon="6.40856">
        <ele>1631</ele>
        <time>2018-06-23T12:34:26Z</time>
      </trkpt>
      <trkpt lat="45.45746" lon="6.40856">
        <ele>1630</ele>
        <time>2018-06-23T12:35:26Z</time>
      </trkpt>
      <trkpt lat="45.45748" lon="6.40857">
        <ele>1631</ele>
        <time>2018-06-23T12:36:26Z</time>
      </trkpt>
      <trkpt lat="45.45751" lon="6.40856">
        <ele>1625</ele>
        <time>2018-06-23T12:37:26Z</time>
      </trkpt>
      <trkpt lat="45.45755" lon="6.40852">
        <ele>1624</ele>
        <time>2018-06-23T12:38:26Z</time>
      </trkpt>
      <trkpt lat="45.4576" lon="6.40846">
        <ele>1622</ele>
        <time>2018-06-23T12:39:26Z</time>
      </trkpt>
      <trkpt lat="45.45765" lon="6.40843">
        <ele>1622</ele>
        <time>2018-06-23T12:40:26Z</time>
      </trkpt>
      <trkpt lat="45.45779" lon="6.4084">
        <ele>1623</ele>
        <time>2018-06-23T12:41:26Z</time>
      </trkpt>
      <trkpt lat="45.45787" lon="6.4084">
        <ele>1622</ele>
        <time>2018-06-23T12:42:26Z</time>
      </trkpt>
      <trkpt lat="45.45794" lon="6.40842">
        <ele>1622</ele>
        <time>2018-06-23T12:43:26Z</time>
      </trkpt>
      <trkpt lat="45.45801" lon="6.40845">
        <ele>1621</ele>
        <time>2018-06-23T12:44:26Z</time>
      </trkpt>
      <trkpt lat="45.45809" lon="6.40849">
        <ele>1620</ele>
        <time>2018-06-23T12:45:26Z</time>
      </trkpt>
      <trkpt lat="45.45821" lon="6.40852">
        <ele>1618</ele>
        <time>2018-06-23T12:46:26Z</time>
      </trkpt>
      <trkpt lat="45.4584" lon="6.40866">
        <ele>1609</ele>
        <time>2018-06-23T12:47:26Z</time>
      </trkpt>
      <trkpt lat="45.45848" lon="6.40871">
        <ele>1610</ele>
        <time>2018-06-23T12:48:26Z</time>
      </trkpt>
      <trkpt lat="45.45853" lon="6.40875">
        <ele>1611</ele>
        <time>2018-06-23T12:49:26Z</time>
      </trkpt>
      <trkpt lat="45.45861" lon="6.40882">
        <ele>1611</ele>
        <time>2018-06-23T12:50:26Z</time>
      </trkpt>
      <trkpt lat="45.45866" lon="6.40883">
        <ele>1611</ele>
        <time>2018-06-23T12:51:26Z</time>
      </trkpt>
      <trkpt lat="45.45869" lon="6.40883">
        <ele>1610</ele>
        <time>2018-06-23T12:52:26Z</time>
      </trkpt>
      <trkpt lat="45.45872" lon="6.40884">
        <ele>1609</ele>
        <time>2018-06-23T12:53:26Z</time>
      </trkpt>
      <trkpt lat="45.45877" lon="6.40886">
        <ele>1609</ele>
        <time>2018-06-23T12:54:26Z</time>
      </trkpt>
      <trkpt lat="45.45881" lon="6.40889">
        <ele>1609</ele>
        <time>2018-06-23T12:55:26Z</time>
      </trkpt>
      <trkpt lat="45.45886" lon="6.40897">
        <ele>1609</ele>
        <time>2018-06-23T12:56:26Z</time>
      </trkpt>
      <trkpt lat="45.45911" lon="6.40924">
        <ele>1622</ele>
        <time>2018-06-23T12:57:26Z</time>
      </trkpt>
      <trkpt lat="45.45925" lon="6.40949">
        <ele>1617</ele>
        <time>2018-06-23T12:58:26Z</time>
      </trkpt>
      <trkpt lat="45.45943" lon="6.40962">
        <ele>1618</ele>
        <time>2018-06-23T12:59:26Z</time>
      </trkpt>
      <trkpt lat="45.45962" lon="6.40987">
        <ele>1620</ele>
        <time>2018-06-23T13:00:26Z</time>
      </trkpt>
      <trkpt lat="45.45973" lon="6.40997">
        <ele>1619</ele>
        <time>2018-06-23T13:01:26Z</time>
      </trkpt>
      <trkpt lat="45.45978" lon="6.41008">
        <ele>1644</ele>
        <time>2018-06-23T13:02:26Z</time>
      </trkpt>
      <trkpt lat="45.45991" lon="6.41013">
        <ele>1639</ele>
        <time>2018-06-23T13:03:26Z</time>
      </trkpt>
      <trkpt lat="45.4602" lon="6.41021">
        <ele>1622</ele>
        <time>2018-06-23T13:04:26Z</time>
      </trkpt>
      <trkpt lat="45.46045" lon="6.41046">
        <ele>1623</ele>
        <time>2018-06-23T13:05:26Z</time>
      </trkpt>
      <trkpt lat="45.4606" lon="6.4105">
        <ele>1621</ele>
        <time>2018-06-23T13:06:26Z</time>
      </trkpt>
      <trkpt lat="45.46072" lon="6.41059">
        <ele>1622</ele>
        <time>2018-06-23T13:07:26Z</time>
      </trkpt>
      <trkpt lat="45.46088" lon="6.41062">
        <ele>1601</ele>
        <time>2018-06-23T13:08:26Z</time>
      </trkpt>
      <trkpt lat="45.46099" lon="6.41075">
        <ele>1604</ele>
        <time>2018-06-23T13:09:26Z</time>
      </trkpt>
      <trkpt lat="45.46115" lon="6.41079">
        <ele>1596</ele>
        <time>2018-06-23T13:10:26Z</time>
      </trkpt>
      <trkpt lat="45.46131" lon="6.41086">
        <ele>1615</ele>
        <time>2018-06-23T13:11:26Z</time>
      </trkpt>
      <trkpt lat="45.46164" lon="6.41116">
        <ele>1614</ele>
        <time>2018-06-23T13:12:26Z</time>
      </trkpt>
      <trkpt lat="45.46199" lon="6.41156">
        <ele>1593</ele>
        <time>2018-06-23T13:13:26Z</time>
      </trkpt>
      <trkpt lat="45.4623" lon="6.412">
        <ele>1607</ele>
        <time>2018-06-23T13:14:26Z</time>
      </trkpt>
      <trkpt lat="45.46248" lon="6.41237">
        <ele>1610</ele>
        <time>2018-06-23T13:15:26Z</time>
      </trkpt>
      <trkpt lat="45.4626" lon="6.41274">
        <ele>1600</ele>
        <time>2018-06-23T13:16:26Z</time>
      </trkpt>
      <trkpt lat="45.46266" lon="6.41295">
        <ele>1599</ele>
        <time>2018-06-23T13:17:26Z</time>
      </trkpt>
      <trkpt lat="45.46268" lon="6.41318">
        <ele>1603</ele>
        <time>2018-06-23T13:18:26Z</time>
      </trkpt>
      <trkpt lat="45.46269" lon="6.41346">
        <ele>1606</ele>
        <time>2018-06-23T13:19:26Z</time>
      </trkpt>
      <trkpt lat="45.46267" lon="6.41369">
        <ele>1604</ele>
        <time>2018-06-23T13:20:26Z</time>
      </trkpt>
      <trkpt lat="45.46262" lon="6.41393">
        <ele>1606</ele>
        <time>2018-06-23T13:21:26Z</time>
      </trkpt>
      <trkpt lat="45.46254" lon="6.41422">
        <ele>1611</ele>
        <time>2018-06-23T13:22:26Z</time>
      </trkpt>
      <trkpt lat="45.46256" lon="6.41426">
        <ele>1610</ele>
        <time>2018-06-23T13:23:26Z</time>
      </trkpt>
      <trkpt lat="45.46262" lon="6.41434">
        <ele>1608</ele>
        <time>2018-06-23T13:24:26Z</time>
      </trkpt>
      <trkpt lat="45.46264" lon="6.41447">
        <ele>1608</ele>
        <time>2018-06-23T13:25:26Z</time>
      </trkpt>
      <trkpt lat="45.46262" lon="6.41457">
        <ele>1608</ele>
        <time>2018-06-23T13:26:26Z</time>
      </trkpt>
      <trkpt lat="45.46252" lon="6.41473">
        <ele>1610</ele>
        <time>2018-06-23T13:27:26Z</time>
      </trkpt>
      <trkpt lat="45.46251" lon="6.41476">
        <ele>1610</ele>
        <time>2018-06-23T13:28:26Z</time>
      </trkpt>
      <trkpt lat="45.46252" lon="6.41478">
        <ele>1611</ele>
        <time>2018-06-23T13:29:26Z</time>
      </trkpt>
      <trkpt lat="45.46256" lon="6.4148">
        <ele>1611</ele>
        <time>2018-06-23T13:30:26Z</time>
      </trkpt>
      <trkpt lat="45.46266" lon="6.41482">
        <ele>1610</ele>
        <time>2018-06-23T13:31:26Z</time>
      </trkpt>
      <trkpt lat="45.46278" lon="6.41491">
        <ele>1608</ele>
        <time>2018-06-23T13:32:26Z</time>
      </trkpt>
      <trkpt lat="45.46285" lon="6.41509">
        <ele>1615</ele>
        <time>2018-06-23T13:33:26Z</time>
      </trkpt>
      <trkpt lat="45.46287" lon="6.41515">
        <ele>1615</ele>
        <time>2018-06-23T13:34:26Z</time>
      </trkpt>
      <trkpt lat="45.4629" lon="6.41519">
        <ele>1614</ele>
        <time>2018-06-23T13:35:26Z</time>
      </trkpt>
      <trkpt lat="45.46313" lon="6.41526">
        <ele>1612</ele>
        <time>2018-06-23T13:36:26Z</time>
      </trkpt>
      <trkpt lat="45.46339" lon="6.41549">
        <ele>1600</ele>
        <time>2018-06-23T13:37:26Z</time>
      </trkpt>
      <trkpt lat="45.46369" lon="6.41579">
        <ele>1599</ele>
        <time>2018-06-23T13:38:26Z</time>
      </trkpt>
      <trkpt lat="45.46388" lon="6.416">
        <ele>1609</ele>
        <time>2018-06-23T13:39:26Z</time>
      </trkpt>
      <trkpt lat="45.46392" lon="6.4161">
        <ele>1610</ele>
        <time>2018-06-23T13:40:26Z</time>
      </trkpt>
      <trkpt lat="45.46407" lon="6.41618">
        <ele>1609</ele>
        <time>2018-06-23T13:41:26Z</time>
      </trkpt>
      <trkpt lat="45.46427" lon="6.41638">
        <ele>1593</ele>
        <time>2018-06-23T13:42:26Z</time>
      </trkpt>
      <trkpt lat="45.46452" lon="6.41673">
        <ele>1602</ele>
        <time>2018-06-23T13:43:26Z</time>
      </trkpt>
      <trkpt lat="45.46467" lon="6.41695">
        <ele>1600</ele>
        <time>2018-06-23T13:44:26Z</time>
      </trkpt>
      <trkpt lat="45.46474" lon="6.41714">
        <ele>1601</ele>
        <time>2018-06-23T13:45:26Z</time>
      </trkpt>
      <trkpt lat="45.46476" lon="6.41737">
        <ele>1601</ele>
        <time>2018-06-23T13:46:26Z</time>
      </trkpt>
      <trkpt lat="45.46479" lon="6.41754">
        <ele>1612</ele>
        <time>2018-06-23T13:47:26Z</time>
      </trkpt>
      <trkpt lat="45.46486" lon="6.41766">
        <ele>1612</ele>
        <time>2018-06-23T13:48:26Z</time>
      </trkpt>
      <trkpt lat="45.46485" lon="6.41772">
        <ele>1614</ele>
        <time>2018-06-23T13:49:26Z</time>
      </trkpt>
      <trkpt lat="45.46493" lon="6.41785">
        <ele>1617</ele>
        <time>2018-06-23T13:50:26Z</time>
      </trkpt>
      <trkpt lat="45.46501" lon="6.41802">
        <ele>1602</ele>
        <time>2018-06-23T13:51:26Z</time>
      </trkpt>
      <trkpt lat="45.46502" lon="6.41815">
        <ele>1607</ele>
        <time>2018-06-23T13:52:26Z</time>
      </trkpt>
      <trkpt lat="45.46505" lon="6.41826">
        <ele>1613</ele>
        <time>2018-06-23T13:53:26Z</time>
      </trkpt>
      <trkpt lat="45.46508" lon="6.4183">
        <ele>1613</ele>
        <time>2018-06-23T13:54:26Z</time>
      </trkpt>
      <trkpt lat="45.46519" lon="6.41827">
        <ele>1606</ele>
        <time>2018-06-23T13:55:26Z</time>
      </trkpt>
      <trkpt lat="45.46531" lon="6.41826">
        <ele>1602</ele>
        <time>2018-06-23T13:56:26Z</time>
      </trkpt>
      <trkpt lat="45.46541" lon="6.41829">
        <ele>1600</ele>
        <time>2018-06-23T13:57:26Z</time>
      </trkpt>
      <trkpt lat="45.46546" lon="6.41834">
        <ele>1617</ele>
        <time>2018-06-23T13:58:26Z</time>
      </trkpt>
      <trkpt lat="45.4655" lon="6.41835">
        <ele>1616</ele>
        <time>2018-06-23T13:59:26Z</time>
      </trkpt>
      <trkpt lat="45.46554" lon="6.41832">
        <ele>1597</ele>
        <time>2018-06-23T14:00:26Z</time>
      </trkpt>
      <trkpt lat="45.46559" lon="6.41825">
        <ele>1596</ele>
        <time>2018-06-23T14:01:26Z</time>
      </trkpt>
      <trkpt lat="45.46565" lon="6.41823">
        <ele>1596</ele>
        <time>2018-06-23T14:02:26Z</time>
      </trkpt>
      <trkpt lat="45.4658" lon="6.41826">
        <ele>1596</ele>
        <time>2018-06-23T14:03:26Z</time>
      </trkpt>
      <trkpt lat="45.4659" lon="6.41835">
        <ele>1597</ele>
        <time>2018-06-23T14:04:26Z</time>
      </trkpt>
      <trkpt lat="45.46624" lon="6.41914">
        <ele>1604</ele>
        <time>2018-06-23T14:05:26Z</time>
      </trkpt>
      <trkpt lat="45.46635" lon="6.41929">
        <ele>1623</ele>
        <time>2018-06-23T14:06:26Z</time>
      </trkpt>
      <trkpt lat="45.46641" lon="6.41931">
        <ele>1622</ele>
        <time>2018-06-23T14:07:26Z</time>
      </trkpt>
      <trkpt lat="45.46649" lon="6.4193">
        <ele>1619</ele>
        <time>2018-06-23T14:08:26Z</time>
      </trkpt>
      <trkpt lat="45.46657" lon="6.41927">
        <ele>1614</ele>
        <time>2018-06-23T14:09:26Z</time>
      </trkpt>
      <trkpt lat="45.46673" lon="6.41927">
        <ele>1605</ele>
        <time>2018-06-23T14:10:26Z</time>
      </trkpt>
      <trkpt lat="45.4668" lon="6.41929">
        <ele>1605</ele>
        <time>2018-06-23T14:11:26Z</time>
      </trkpt>
      <trkpt lat="45.46691" lon="6.41926">
        <ele>1605</ele>
        <time>2018-06-23T14:12:26Z</time>
      </trkpt>
      <trkpt lat="45.46707" lon="6.41926">
        <ele>1604</ele>
        <time>2018-06-23T14:13:26Z</time>
      </trkpt>
      <trkpt lat="45.46717" lon="6.4193">
        <ele>1602</ele>
        <time>2018-06-23T14:14:26Z</time>
      </trkpt>
      <trkpt lat="45.46732" lon="6.41943">
        <ele>1602</ele>
        <time>2018-06-23T14:15:26Z</time>
      </trkpt>
      <trkpt lat="45.46746" lon="6.41959">
        <ele>1606</ele>
        <time>2018-06-23T14:16:26Z</time>
      </trkpt>
      <trkpt lat="45.46759" lon="6.41969">
        <ele>1592</ele>
        <time>2018-06-23T14:17:26Z</time>
      </trkpt>
      <trkpt lat="45.46772" lon="6.41981">
        <ele>1593</ele>
        <time>2018-06-23T14:18:26Z</time>
      </trkpt>
      <trkpt lat="45.46779" lon="6.4199">
        <ele>1593</ele>
        <time>2018-06-23T14:19:26Z</time>
      </trkpt>
      <trkpt lat="45.46787" lon="6.41995">
        <ele>1590</ele>
        <time>2018-06-23T14:20:26Z</time>
      </trkpt>
      <trkpt lat="45.46806" lon="6.42006">
        <ele>1604</ele>
        <time>2018-06-23T14:21:26Z</time>
      </trkpt>
      <trkpt lat="45.46811" lon="6.42013">
        <ele>1604</ele>
        <time>2018-06-23T14:22:26Z</time>
      </trkpt>
      <trkpt lat="45.46829" lon="6.42035">
        <ele>1607</ele>
        <time>2018-06-23T14:23:26Z</time>
      </trkpt>
      <trkpt lat="45.46841" lon="6.42058">
        <ele>1586</ele>
        <time>2018-06-23T14:24:26Z</time>
      </trkpt>
      <trkpt lat="45.46858" lon="6.42081">
        <ele>1586</ele>
        <time>2018-06-23T14:25:26Z</time>
      </trkpt>
      <trkpt lat="45.4686" lon="6.42088">
        <ele>1600</ele>
        <time>2018-06-23T14:26:26Z</time>
      </trkpt>
      <trkpt lat="45.4687" lon="6.42125">
        <ele>1599</ele>
        <time>2018-06-23T14:27:26Z</time>
      </trkpt>
      <trkpt lat="45.46873" lon="6.42132">
        <ele>1599</ele>
        <time>2018-06-23T14:28:26Z</time>
      </trkpt>
      <trkpt lat="45.46876" lon="6.42136">
        <ele>1599</ele>
        <time>2018-06-23T14:29:26Z</time>
      </trkpt>
      <trkpt lat="45.46886" lon="6.42146">
        <ele>1597</ele>
        <time>2018-06-23T14:30:26Z</time>
      </trkpt>
      <trkpt lat="45.4689" lon="6.42153">
        <ele>1596</ele>
        <time>2018-06-23T14:31:26Z</time>
      </trkpt>
      <trkpt lat="45.46894" lon="6.4216">
        <ele>1594</ele>
        <time>2018-06-23T14:32:26Z</time>
      </trkpt>
      <trkpt lat="45.46896" lon="6.42165">
        <ele>1594</ele>
        <time>2018-06-23T14:33:26Z</time>
      </trkpt>
      <trkpt lat="45.46901" lon="6.42182">
        <ele>1608</ele>
        <time>2018-06-23T14:34:26Z</time>
      </trkpt>
      <trkpt lat="45.46904" lon="6.42186">
        <ele>1608</ele>
        <time>2018-06-23T14:35:26Z</time>
      </trkpt>
      <trkpt lat="45.46906" lon="6.4219">
        <ele>1609</ele>
        <time>2018-06-23T14:36:26Z</time>
      </trkpt>
      <trkpt lat="45.46907" lon="6.42194">
        <ele>1611</ele>
        <time>2018-06-23T14:37:26Z</time>
      </trkpt>
      <trkpt lat="45.46908" lon="6.42198">
        <ele>1612</ele>
        <time>2018-06-23T14:38:26Z</time>
      </trkpt>
      <trkpt lat="45.4691" lon="6.42201">
        <ele>1613</ele>
        <time>2018-06-23T14:39:26Z</time>
      </trkpt>
      <trkpt lat="45.46924" lon="6.4222">
        <ele>1591</ele>
        <time>2018-06-23T14:40:26Z</time>
      </trkpt>
      <trkpt lat="45.46929" lon="6.42229">
        <ele>1593</ele>
        <time>2018-06-23T14:41:26Z</time>
      </trkpt>
      <trkpt lat="45.46931" lon="6.42234">
        <ele>1595</ele>
        <time>2018-06-23T14:42:26Z</time>
      </trkpt>
      <trkpt lat="45.46939" lon="6.42258">
        <ele>1612</ele>
        <time>2018-06-23T14:43:26Z</time>
      </trkpt>
      <trkpt lat="45.46941" lon="6.42259">
        <ele>1611</ele>
        <time>2018-06-23T14:44:26Z</time>
      </trkpt>
      <trkpt lat="45.46953" lon="6.42257">
        <ele>1608</ele>
        <time>2018-06-23T14:45:26Z</time>
      </trkpt>
      <trkpt lat="45.46959" lon="6.42257">
        <ele>1606</ele>
        <time>2018-06-23T14:46:26Z</time>
      </trkpt>
      <trkpt lat="45.46979" lon="6.42262">
        <ele>1599</ele>
        <time>2018-06-23T14:47:26Z</time>
      </trkpt>
      <trkpt lat="45.46989" lon="6.42267">
        <ele>1596</ele>
        <time>2018-06-23T14:48:26Z</time>
      </trkpt>
      <trkpt lat="45.46994" lon="6.42271">
        <ele>1597</ele>
        <time>2018-06-23T14:49:26Z</time>
      </trkpt>
      <trkpt lat="45.46998" lon="6.42276">
        <ele>1599</ele>
        <time>2018-06-23T14:50:26Z</time>
      </trkpt>
      <trkpt lat="45.47001" lon="6.42282">
        <ele>1574</ele>
        <time>2018-06-23T14:51:26Z</time>
      </trkpt>
      <trkpt lat="45.47007" lon="6.42308">
        <ele>1582</ele>
        <time>2018-06-23T14:52:26Z</time>
      </trkpt>
      <trkpt lat="45.47016" lon="6.42332">
        <ele>1590</ele>
        <time>2018-06-23T14:53:26Z</time>
      </trkpt>
      <trkpt lat="45.47018" lon="6.42338">
        <ele>1606</ele>
        <time>2018-06-23T14:54:26Z</time>
      </trkpt>
      <trkpt lat="45.47025" lon="6.42346">
        <ele>1604</ele>
        <time>2018-06-23T14:55:26Z</time>
      </trkpt>
      <trkpt lat="45.4703" lon="6.42359">
        <ele>1603</ele>
        <time>2018-06-23T14:56:26Z</time>
      </trkpt>
      <trkpt lat="45.47033" lon="6.42364">
        <ele>1603</ele>
        <time>2018-06-23T14:57:26Z</time>
      </trkpt>
      <trkpt lat="45.47036" lon="6.42369">
        <ele>1603</ele>
        <time>2018-06-23T14:58:26Z</time>
      </trkpt>
      <trkpt lat="45.47041" lon="6.42375">
        <ele>1603</ele>
        <time>2018-06-23T14:59:26Z</time>
      </trkpt>
      <trkpt lat="45.47053" lon="6.42382">
        <ele>1601</ele>
        <time>2018-06-23T15:00:26Z</time>
      </trkpt>
      <trkpt lat="45.47061" lon="6.42388">
        <ele>1600</ele>
        <time>2018-06-23T15:01:26Z</time>
      </trkpt>
      <trkpt lat="45.47063" lon="6.42391">
        <ele>1600</ele>
        <time>2018-06-23T15:02:26Z</time>
      </trkpt>
      <trkpt lat="45.47069" lon="6.42402">
        <ele>1600</ele>
        <time>2018-06-23T15:03:26Z</time>
      </trkpt>
      <trkpt lat="45.47072" lon="6.42406">
        <ele>1600</ele>
        <time>2018-06-23T15:04:26Z</time>
      </trkpt>
      <trkpt lat="45.47083" lon="6.42417">
        <ele>1598</ele>
        <time>2018-06-23T15:05:26Z</time>
      </trkpt>
      <trkpt lat="45.47105" lon="6.42448">
        <ele>1588</ele>
        <time>2018-06-23T15:06:26Z</time>
      </trkpt>
      <trkpt lat="45.47141" lon="6.42502">
        <ele>1597</ele>
        <time>2018-06-23T15:07:26Z</time>
      </trkpt>
      <trkpt lat="45.47165" lon="6.42545">
        <ele>1601</ele>
        <time>2018-06-23T15:08:26Z</time>
      </trkpt>
      <trkpt lat="45.47188" lon="6.42595">
        <ele>1590</ele>
        <time>2018-06-23T15:09:26Z</time>
      </trkpt>
      <trkpt lat="45.47196" lon="6.42609">
        <ele>1589</ele>
        <time>2018-06-23T15:10:26Z</time>
      </trkpt>
      <trkpt lat="45.47224" lon="6.42652">
        <ele>1587</ele>
        <time>2018-06-23T15:11:26Z</time>
      </trkpt>
      <trkpt lat="45.47259" lon="6.42708">
        <ele>1580</ele>
        <time>2018-06-23T15:12:26Z</time>
      </trkpt>
      <trkpt lat="45.47295" lon="6.42777">
        <ele>1588</ele>
        <time>2018-06-23T15:13:26Z</time>
      </trkpt>
      <trkpt lat="45.47314" lon="6.42807">
        <ele>1586</ele>
        <time>2018-06-23T15:14:26Z</time>
      </trkpt>
      <trkpt lat="45.4732" lon="6.42814">
        <ele>1586</ele>
        <time>2018-06-23T15:15:26Z</time>
      </trkpt>
      <trkpt lat="45.47338" lon="6.42834">
        <ele>1581</ele>
        <time>2018-06-23T15:16:26Z</time>
      </trkpt>
      <trkpt lat="45.4735" lon="6.42844">
        <ele>1579</ele>
        <time>2018-06-23T15:17:26Z</time>
      </trkpt>
      <trkpt lat="45.4736" lon="6.42851">
        <ele>1578</ele>
        <time>2018-06-23T15:18:26Z</time>
      </trkpt>
      <trkpt lat="45.47411" lon="6.42886">
        <ele>1575</ele>
        <time>2018-06-23T15:19:26Z</time>
      </trkpt>
      <trkpt lat="45.47426" lon="6.42892">
        <ele>1566</ele>
        <time>2018-06-23T15:20:26Z</time>
      </trkpt>
      <trkpt lat="45.47419" lon="6.42894">
        <ele>1567</ele>
        <time>2018-06-23T15:21:26Z</time>
      </trkpt>
      <trkpt lat="45.4741" lon="6.42903">
        <ele>1576</ele>
        <time>2018-06-23T15:22:26Z</time>
      </trkpt>
      <trkpt lat="45.474" lon="6.42922">
        <ele>1576</ele>
        <time>2018-06-23T15:23:26Z</time>
      </trkpt>
      <trkpt lat="45.47395" lon="6.42928">
        <ele>1576</ele>
        <time>2018-06-23T15:24:26Z</time>
      </trkpt>
      <trkpt lat="45.47391" lon="6.4293">
        <ele>1576</ele>
        <time>2018-06-23T15:25:26Z</time>
      </trkpt>
      <trkpt lat="45.474" lon="6.42939">
        <ele>1576</ele>
        <time>2018-06-23T15:26:26Z</time>
      </trkpt>
      <trkpt lat="45.47419" lon="6.42958">
        <ele>1570</ele>
        <time>2018-06-23T15:27:26Z</time>
      </trkpt>
      <trkpt lat="45.47445" lon="6.42987">
        <ele>1569</ele>
        <time>2018-06-23T15:28:26Z</time>
      </trkpt>
      <trkpt lat="45.47468" lon="6.43018">
        <ele>1566</ele>
        <time>2018-06-23T15:29:26Z</time>
      </trkpt>
      <trkpt lat="45.47481" lon="6.43031">
        <ele>1565</ele>
        <time>2018-06-23T15:30:26Z</time>
      </trkpt>
      <trkpt lat="45.47498" lon="6.4305">
        <ele>1565</ele>
        <time>2018-06-23T15:31:26Z</time>
      </trkpt>
      <trkpt lat="45.47518" lon="6.43069">
        <ele>1563</ele>
        <time>2018-06-23T15:32:26Z</time>
      </trkpt>
      <trkpt lat="45.47528" lon="6.43077">
        <ele>1563</ele>
        <time>2018-06-23T15:33:26Z</time>
      </trkpt>
      <trkpt lat="45.47533" lon="6.4308">
        <ele>1563</ele>
        <time>2018-06-23T15:34:26Z</time>
      </trkpt>
      <trkpt lat="45.4752" lon="6.43096">
        <ele>1562</ele>
        <time>2018-06-23T15:35:26Z</time>
      </trkpt>
      <trkpt lat="45.47484" lon="6.43142">
        <ele>1560</ele>
        <time>2018-06-23T15:36:26Z</time>
      </trkpt>
      <trkpt lat="45.47459" lon="6.43183">
        <ele>1555</ele>
        <time>2018-06-23T15:37:26Z</time>
      </trkpt>
      <trkpt lat="45.47442" lon="6.43202">
        <ele>1554</ele>
        <time>2018-06-23T15:38:26Z</time>
      </trkpt>
      <trkpt lat="45.47431" lon="6.43219">
        <ele>1553</ele>
        <time>2018-06-23T15:39:26Z</time>
      </trkpt>
      <trkpt lat="45.47426" lon="6.43235">
        <ele>1551</ele>
        <time>2018-06-23T15:40:26Z</time>
      </trkpt>
      <trkpt lat="45.47419" lon="6.43271">
        <ele>1542</ele>
        <time>2018-06-23T15:41:26Z</time>
      </trkpt>
      <trkpt lat="45.47409" lon="6.43312">
        <ele>1535</ele>
        <time>2018-06-23T15:42:26Z</time>
      </trkpt>
      <trkpt lat="45.47394" lon="6.43344">
        <ele>1523</ele>
        <time>2018-06-23T15:43:26Z</time>
      </trkpt>
      <trkpt lat="45.47381" lon="6.43359">
        <ele>1521</ele>
        <time>2018-06-23T15:44:26Z</time>
      </trkpt>
      <trkpt lat="45.47372" lon="6.43364">
        <ele>1520</ele>
        <time>2018-06-23T15:45:26Z</time>
      </trkpt>
      <trkpt lat="45.47357" lon="6.43363">
        <ele>1521</ele>
        <time>2018-06-23T15:46:26Z</time>
      </trkpt>
      <trkpt lat="45.47346" lon="6.43356">
        <ele>1523</ele>
        <time>2018-06-23T15:47:26Z</time>
      </trkpt>
      <trkpt lat="45.47328" lon="6.43338">
        <ele>1525</ele>
        <time>2018-06-23T15:48:26Z</time>
      </trkpt>
      <trkpt lat="45.47317" lon="6.43332">
        <ele>1530</ele>
        <time>2018-06-23T15:49:26Z</time>
      </trkpt>
      <trkpt lat="45.47311" lon="6.43331">
        <ele>1530</ele>
        <time>2018-06-23T15:50:26Z</time>
      </trkpt>
      <trkpt lat="45.47304" lon="6.43332">
        <ele>1529</ele>
        <time>2018-06-23T15:51:26Z</time>
      </trkpt>
      <trkpt lat="45.47299" lon="6.43336">
        <ele>1518</ele>
        <time>2018-06-23T15:52:26Z</time>
      </trkpt>
      <trkpt lat="45.473" lon="6.43344">
        <ele>1517</ele>
        <time>2018-06-23T15:53:26Z</time>
      </trkpt>
      <trkpt lat="45.47302" lon="6.43357">
        <ele>1516</ele>
        <time>2018-06-23T15:54:26Z</time>
      </trkpt>
      <trkpt lat="45.47297" lon="6.43369">
        <ele>1515</ele>
        <time>2018-06-23T15:55:26Z</time>
      </trkpt>
      <trkpt lat="45.47287" lon="6.43399">
        <ele>1511</ele>
        <time>2018-06-23T15:56:26Z</time>
      </trkpt>
      <trkpt lat="45.47286" lon="6.43417">
        <ele>1500</ele>
        <time>2018-06-23T15:57:26Z</time>
      </trkpt>
      <trkpt lat="45.4729" lon="6.43432">
        <ele>1500</ele>
        <time>2018-06-23T15:58:26Z</time>
      </trkpt>
      <trkpt lat="45.47295" lon="6.43438">
        <ele>1500</ele>
        <time>2018-06-23T15:59:26Z</time>
      </trkpt>
      <trkpt lat="45.47305" lon="6.43446">
        <ele>1500</ele>
        <time>2018-06-23T16:00:26Z</time>
      </trkpt>
      <trkpt lat="45.47309" lon="6.43452">
        <ele>1500</ele>
        <time>2018-06-23T16:01:26Z</time>
      </trkpt>
      <trkpt lat="45.4731" lon="6.43468">
        <ele>1498</ele>
        <time>2018-06-23T16:02:26Z</time>
      </trkpt>
      <trkpt lat="45.47309" lon="6.43502">
        <ele>1488</ele>
        <time>2018-06-23T16:03:26Z</time>
      </trkpt>
      <trkpt lat="45.47306" lon="6.4352">
        <ele>1485</ele>
        <time>2018-06-23T16:04:26Z</time>
      </trkpt>
      <trkpt lat="45.47299" lon="6.43537">
        <ele>1483</ele>
        <time>2018-06-23T16:05:26Z</time>
      </trkpt>
      <trkpt lat="45.47282" lon="6.43559">
        <ele>1479</ele>
        <time>2018-06-23T16:06:26Z</time>
      </trkpt>
      <trkpt lat="45.47272" lon="6.43567">
        <ele>1477</ele>
        <time>2018-06-23T16:07:26Z</time>
      </trkpt>
      <trkpt lat="45.47269" lon="6.43576">
        <ele>1475</ele>
        <time>2018-06-23T16:08:26Z</time>
      </trkpt>
      <trkpt lat="45.4727" lon="6.43585">
        <ele>1467</ele>
        <time>2018-06-23T16:09:26Z</time>
      </trkpt>
      <trkpt lat="45.47271" lon="6.43596">
        <ele>1466</ele>
        <time>2018-06-23T16:10:26Z</time>
      </trkpt>
      <trkpt lat="45.47277" lon="6.43608">
        <ele>1466</ele>
        <time>2018-06-23T16:11:26Z</time>
      </trkpt>
      <trkpt lat="45.47284" lon="6.43622">
        <ele>1465</ele>
        <time>2018-06-23T16:12:26Z</time>
      </trkpt>
      <trkpt lat="45.4729" lon="6.43643">
        <ele>1463</ele>
        <time>2018-06-23T16:13:26Z</time>
      </trkpt>
      <trkpt lat="45.47289" lon="6.43655">
        <ele>1462</ele>
        <time>2018-06-23T16:14:26Z</time>
      </trkpt>
      <trkpt lat="45.47284" lon="6.43669">
        <ele>1448</ele>
        <time>2018-06-23T16:15:26Z</time>
      </trkpt>
      <trkpt lat="45.47275" lon="6.43679">
        <ele>1447</ele>
        <time>2018-06-23T16:16:26Z</time>
      </trkpt>
      <trkpt lat="45.47267" lon="6.43685">
        <ele>1446</ele>
        <time>2018-06-23T16:17:26Z</time>
      </trkpt>
      <trkpt lat="45.47257" lon="6.43684">
        <ele>1447</ele>
        <time>2018-06-23T16:18:26Z</time>
      </trkpt>
      <trkpt lat="45.47243" lon="6.4368">
        <ele>1442</ele>
        <time>2018-06-23T16:19:26Z</time>
      </trkpt>
      <trkpt lat="45.47233" lon="6.43679">
        <ele>1440</ele>
        <time>2018-06-23T16:20:26Z</time>
      </trkpt>
      <trkpt lat="45.47224" lon="6.43672">
        <ele>1439</ele>
        <time>2018-06-23T16:21:26Z</time>
      </trkpt>
      <trkpt lat="45.47207" lon="6.43663">
        <ele>1449</ele>
        <time>2018-06-23T16:22:26Z</time>
      </trkpt>
      <trkpt lat="45.47199" lon="6.43655">
        <ele>1448</ele>
        <time>2018-06-23T16:23:26Z</time>
      </trkpt>
      <trkpt lat="45.47192" lon="6.43655">
        <ele>1447</ele>
        <time>2018-06-23T16:24:26Z</time>
      </trkpt>
      <trkpt lat="45.47185" lon="6.43657">
        <ele>1445</ele>
        <time>2018-06-23T16:25:26Z</time>
      </trkpt>
      <trkpt lat="45.47167" lon="6.43671">
        <ele>1435</ele>
        <time>2018-06-23T16:26:26Z</time>
      </trkpt>
      <trkpt lat="45.47156" lon="6.4368">
        <ele>1426</ele>
        <time>2018-06-23T16:27:26Z</time>
      </trkpt>
      <trkpt lat="45.47151" lon="6.43681">
        <ele>1425</ele>
        <time>2018-06-23T16:28:26Z</time>
      </trkpt>
      <trkpt lat="45.47145" lon="6.43673">
        <ele>1425</ele>
        <time>2018-06-23T16:29:26Z</time>
      </trkpt>
      <trkpt lat="45.4714" lon="6.43669">
        <ele>1424</ele>
        <time>2018-06-23T16:30:26Z</time>
      </trkpt>
      <trkpt lat="45.47134" lon="6.4367">
        <ele>1422</ele>
        <time>2018-06-23T16:31:26Z</time>
      </trkpt>
      <trkpt lat="45.47129" lon="6.43673">
        <ele>1421</ele>
        <time>2018-06-23T16:32:26Z</time>
      </trkpt>
      <trkpt lat="45.47127" lon="6.43679">
        <ele>1420</ele>
        <time>2018-06-23T16:33:26Z</time>
      </trkpt>
      <trkpt lat="45.47126" lon="6.43684">
        <ele>1420</ele>
        <time>2018-06-23T16:34:26Z</time>
      </trkpt>
      <trkpt lat="45.47126" lon="6.43691">
        <ele>1419</ele>
        <time>2018-06-23T16:35:26Z</time>
      </trkpt>
      <trkpt lat="45.47127" lon="6.43707">
        <ele>1417</ele>
        <time>2018-06-23T16:36:26Z</time>
      </trkpt>
      <trkpt lat="45.47124" lon="6.43716">
        <ele>1416</ele>
        <time>2018-06-23T16:37:26Z</time>
      </trkpt>
      <trkpt lat="45.47121" lon="6.43727">
        <ele>1414</ele>
        <time>2018-06-23T16:38:26Z</time>
      </trkpt>
      <trkpt lat="45.47119" lon="6.4374">
        <ele>1413</ele>
        <time>2018-06-23T16:39:26Z</time>
      </trkpt>
      <trkpt lat="45.47118" lon="6.43751">
        <ele>1399</ele>
        <time>2018-06-23T16:40:26Z</time>
      </trkpt>
      <trkpt lat="45.4712" lon="6.43761">
        <ele>1399</ele>
        <time>2018-06-23T16:41:26Z</time>
      </trkpt>
      <trkpt lat="45.4712" lon="6.43766">
        <ele>1399</ele>
        <time>2018-06-23T16:42:26Z</time>
      </trkpt>
      <trkpt lat="45.47118" lon="6.43769">
        <ele>1398</ele>
        <time>2018-06-23T16:43:26Z</time>
      </trkpt>
      <trkpt lat="45.47113" lon="6.43768">
        <ele>1398</ele>
        <time>2018-06-23T16:44:26Z</time>
      </trkpt>
      <trkpt lat="45.47109" lon="6.43762">
        <ele>1398</ele>
        <time>2018-06-23T16:45:26Z</time>
      </trkpt>
      <trkpt lat="45.47103" lon="6.43756">
        <ele>1398</ele>
        <time>2018-06-23T16:46:26Z</time>
      </trkpt>
      <trkpt lat="45.47098" lon="6.43754">
        <ele>1398</ele>
        <time>2018-06-23T16:47:26Z</time>
      </trkpt>
      <trkpt lat="45.4709" lon="6.43747">
        <ele>1403</ele>
        <time>2018-06-23T16:48:26Z</time>
      </trkpt>
      <trkpt lat="45.47061" lon="6.43727">
        <ele>1400</ele>
        <time>2018-06-23T16:49:26Z</time>
      </trkpt>
      <trkpt lat="45.47041" lon="6.43713">
        <ele>1399</ele>
        <time>2018-06-23T16:50:26Z</time>
      </trkpt>
      <trkpt lat="45.4703" lon="6.43707">
        <ele>1399</ele>
        <time>2018-06-23T16:51:26Z</time>
      </trkpt>
      <trkpt lat="45.47019" lon="6.43707">
        <ele>1398</ele>
        <time>2018-06-23T16:52:26Z</time>
      </trkpt>
      <trkpt lat="45.47007" lon="6.43709">
        <ele>1397</ele>
        <time>2018-06-23T16:53:26Z</time>
      </trkpt>
      <trkpt lat="45.46999" lon="6.43709">
        <ele>1392</ele>
        <time>2018-06-23T16:54:26Z</time>
      </trkpt>
      <trkpt lat="45.46987" lon="6.43714">
        <ele>1391</ele>
        <time>2018-06-23T16:55:26Z</time>
      </trkpt>
      <trkpt lat="45.46961" lon="6.43727">
        <ele>1389</ele>
        <time>2018-06-23T16:56:26Z</time>
      </trkpt>
      <trkpt lat="45.4695" lon="6.43728">
        <ele>1389</ele>
        <time>2018-06-23T16:57:26Z</time>
      </trkpt>
      <trkpt lat="45.46939" lon="6.43725">
        <ele>1388</ele>
        <time>2018-06-23T16:58:26Z</time>
      </trkpt>
      <trkpt lat="45.4691" lon="6.43706">
        <ele>1395</ele>
        <time>2018-06-23T16:59:26Z</time>
      </trkpt>
      <trkpt lat="45.46903" lon="6.43704">
        <ele>1395</ele>
        <time>2018-06-23T17:00:26Z</time>
      </trkpt>
      <trkpt lat="45.46898" lon="6.43704">
        <ele>1396</ele>
        <time>2018-06-23T17:01:26Z</time>
      </trkpt>
      <trkpt lat="45.46893" lon="6.43707">
        <ele>1395</ele>
        <time>2018-06-23T17:02:26Z</time>
      </trkpt>
      <trkpt lat="45.46868" lon="6.43733">
        <ele>1392</ele>
        <time>2018-06-23T17:03:26Z</time>
      </trkpt>
      <trkpt lat="45.46853" lon="6.43744">
        <ele>1391</ele>
        <time>2018-06-23T17:04:26Z</time>
      </trkpt>
      <trkpt lat="45.4684" lon="6.43748">
        <ele>1388</ele>
        <time>2018-06-23T17:05:26Z</time>
      </trkpt>
      <trkpt lat="45.4682" lon="6.43749">
        <ele>1390</ele>
        <time>2018-06-23T17:06:26Z</time>
      </trkpt>
      <trkpt lat="45.46803" lon="6.43751">
        <ele>1373</ele>
        <time>2018-06-23T17:07:26Z</time>
      </trkpt>
      <trkpt lat="45.46791" lon="6.43755">
        <ele>1371</ele>
        <time>2018-06-23T17:08:26Z</time>
      </trkpt>
      <trkpt lat="45.4676" lon="6.43757">
        <ele>1373</ele>
        <time>2018-06-23T17:09:26Z</time>
      </trkpt>
      <trkpt lat="45.46732" lon="6.43754">
        <ele>1368</ele>
        <time>2018-06-23T17:10:26Z</time>
      </trkpt>
      <trkpt lat="45.46705" lon="6.43753">
        <ele>1364</ele>
        <time>2018-06-23T17:11:26Z</time>
      </trkpt>
      <trkpt lat="45.46691" lon="6.43751">
        <ele>1364</ele>
        <time>2018-06-23T17:12:26Z</time>
      </trkpt>
      <trkpt lat="45.46679" lon="6.43753">
        <ele>1366</ele>
        <time>2018-06-23T17:13:26Z</time>
      </trkpt>
      <trkpt lat="45.46667" lon="6.43758">
        <ele>1367</ele>
        <time>2018-06-23T17:14:26Z</time>
      </trkpt>
      <trkpt lat="45.46658" lon="6.43764">
        <ele>1362</ele>
        <time>2018-06-23T17:15:26Z</time>
      </trkpt>
      <trkpt lat="45.46623" lon="6.4378">
        <ele>1356</ele>
        <time>2018-06-23T17:16:26Z</time>
      </trkpt>
      <trkpt lat="45.46592" lon="6.43791">
        <ele>1353</ele>
        <time>2018-06-23T17:17:26Z</time>
      </trkpt>
      <trkpt lat="45.46576" lon="6.438">
        <ele>1354</ele>
        <time>2018-06-23T17:18:26Z</time>
      </trkpt>
      <trkpt lat="45.46519" lon="6.43834">
        <ele>1347</ele>
        <time>2018-06-23T17:19:26Z</time>
      </trkpt>
      <trkpt lat="45.46499" lon="6.43849">
        <ele>1352</ele>
        <time>2018-06-23T17:20:26Z</time>
      </trkpt>
      <trkpt lat="45.46476" lon="6.43871">
        <ele>1350</ele>
        <time>2018-06-23T17:21:26Z</time>
      </trkpt>
      <trkpt lat="45.46459" lon="6.43882">
        <ele>1350</ele>
        <time>2018-06-23T17:22:26Z</time>
      </trkpt>
      <trkpt lat="45.46427" lon="6.43904">
        <ele>1349</ele>
        <time>2018-06-23T17:23:26Z</time>
      </trkpt>
      <trkpt lat="45.46416" lon="6.43915">
        <ele>1348</ele>
        <time>2018-06-23T17:24:26Z</time>
      </trkpt>
      <trkpt lat="45.46404" lon="6.43914">
        <ele>1351</ele>
        <time>2018-06-23T17:25:26Z</time>
      </trkpt>
      <trkpt lat="45.46349" lon="6.43907">
        <ele>1354</ele>
        <time>2018-06-23T17:26:26Z</time>
      </trkpt>
      <trkpt lat="45.46336" lon="6.43908">
        <ele>1354</ele>
        <time>2018-06-23T17:27:26Z</time>
      </trkpt>
      <trkpt lat="45.46325" lon="6.43916">
        <ele>1355</ele>
        <time>2018-06-23T17:28:26Z</time>
      </trkpt>
      <trkpt lat="45.46315" lon="6.43924">
        <ele>1350</ele>
        <time>2018-06-23T17:29:26Z</time>
      </trkpt>
      <trkpt lat="45.46302" lon="6.43933">
        <ele>1349</ele>
        <time>2018-06-23T17:30:26Z</time>
      </trkpt>
      <trkpt lat="45.46264" lon="6.43961">
        <ele>1348</ele>
        <time>2018-06-23T17:31:26Z</time>
      </trkpt>
      <trkpt lat="45.46255" lon="6.43973">
        <ele>1347</ele>
        <time>2018-06-23T17:32:26Z</time>
      </trkpt>
      <trkpt lat="45.4625" lon="6.43985">
        <ele>1347</ele>
        <time>2018-06-23T17:33:26Z</time>
      </trkpt>
      <trkpt lat="45.46244" lon="6.43994">
        <ele>1346</ele>
        <time>2018-06-23T17:34:26Z</time>
      </trkpt>
      <trkpt lat="45.46237" lon="6.43999">
        <ele>1347</ele>
        <time>2018-06-23T17:35:26Z</time>
      </trkpt>
      <trkpt lat="45.46228" lon="6.44001">
        <ele>1342</ele>
        <time>2018-06-23T17:36:26Z</time>
      </trkpt>
      <trkpt lat="45.46216" lon="6.44">
        <ele>1342</ele>
        <time>2018-06-23T17:37:26Z</time>
      </trkpt>
      <trkpt lat="45.46199" lon="6.43995">
        <ele>1349</ele>
        <time>2018-06-23T17:38:26Z</time>
      </trkpt>
      <trkpt lat="45.46163" lon="6.43987">
        <ele>1351</ele>
        <time>2018-06-23T17:39:26Z</time>
      </trkpt>
      <trkpt lat="45.46169" lon="6.43998">
        <ele>1347</ele>
        <time>2018-06-23T17:40:26Z</time>
      </trkpt>
      <trkpt lat="45.46177" lon="6.4401">
        <ele>1344</ele>
        <time>2018-06-23T17:41:26Z</time>
      </trkpt>
      <trkpt lat="45.46185" lon="6.44019">
        <ele>1342</ele>
        <time>2018-06-23T17:42:26Z</time>
      </trkpt>
      <trkpt lat="45.46181" lon="6.44026">
        <ele>1342</ele>
        <time>2018-06-23T17:43:26Z</time>
      </trkpt>
      <trkpt lat="45.46179" lon="6.4403">
        <ele>1342</ele>
        <time>2018-06-23T17:44:26Z</time>
      </trkpt>
      <trkpt lat="45.46179" lon="6.44034">
        <ele>1341</ele>
        <time>2018-06-23T17:45:26Z</time>
      </trkpt>
      <trkpt lat="45.4618" lon="6.44048">
        <ele>1341</ele>
        <time>2018-06-23T17:46:26Z</time>
      </trkpt>
      <trkpt lat="45.46182" lon="6.4405">
        <ele>1340</ele>
        <time>2018-06-23T17:47:26Z</time>
      </trkpt>
      <trkpt lat="45.46184" lon="6.44051">
        <ele>1340</ele>
        <time>2018-06-23T17:48:26Z</time>
      </trkpt>
      <trkpt lat="45.46186" lon="6.44051">
        <ele>1340</ele>
        <time>2018-06-23T17:49:26Z</time>
      </trkpt>
      <trkpt lat="45.46189" lon="6.44051">
        <ele>1340</ele>
        <time>2018-06-23T17:50:26Z</time>
      </trkpt>
      <trkpt lat="45.4619" lon="6.44052">
        <ele>1340</ele>
        <time>2018-06-23T17:51:26Z</time>
      </trkpt>
      <trkpt lat="45.46192" lon="6.44053">
        <ele>1340</ele>
        <time>2018-06-23T17:52:26Z</time>
      </trkpt>
      <trkpt lat="45.46194" lon="6.44055">
        <ele>1340</ele>
        <time>2018-06-23T17:53:26Z</time>
      </trkpt>
      <trkpt lat="45.46194" lon="6.44061">
        <ele>1340</ele>
        <time>2018-06-23T17:54:26Z</time>
      </trkpt>
      <trkpt lat="45.46192" lon="6.44069">
        <ele>1339</ele>
        <time>2018-06-23T17:55:26Z</time>
      </trkpt>
      <trkpt lat="45.46179" lon="6.44091">
        <ele>1336</ele>
        <time>2018-06-23T17:56:26Z</time>
      </trkpt>
      <trkpt lat="45.46175" lon="6.44105">
        <ele>1335</ele>
        <time>2018-06-23T17:57:26Z</time>
      </trkpt>
      <trkpt lat="45.46173" lon="6.44123">
        <ele>1334</ele>
        <time>2018-06-23T17:58:26Z</time>
      </trkpt>
      <trkpt lat="45.46166" lon="6.44153">
        <ele>1338</ele>
        <time>2018-06-23T17:59:26Z</time>
      </trkpt>
      <trkpt lat="45.46159" lon="6.44177">
        <ele>1337</ele>
        <time>2018-06-23T18:00:26Z</time>
      </trkpt>
      <trkpt lat="45.4615" lon="6.44205">
        <ele>1339</ele>
        <time>2018-06-23T18:01:26Z</time>
      </trkpt>
      <trkpt lat="45.46145" lon="6.44224">
        <ele>1339</ele>
        <time>2018-06-23T18:02:26Z</time>
      </trkpt>
      <trkpt lat="45.46145" lon="6.44233">
        <ele>1338</ele>
        <time>2018-06-23T18:03:26Z</time>
      </trkpt>
      <trkpt lat="45.46126" lon="6.44242">
        <ele>1340</ele>
        <time>2018-06-23T18:04:26Z</time>
      </trkpt>
      <trkpt lat="45.46127" lon="6.44251">
        <ele>1340</ele>
        <time>2018-06-23T18:05:26Z</time>
      </trkpt>
      <trkpt lat="45.4615" lon="6.44327">
        <ele>1339</ele>
        <time>2018-06-23T18:06:26Z</time>
      </trkpt>
      <trkpt lat="45.46138" lon="6.44334">
        <ele>1341</ele>
        <time>2018-06-23T18:07:26Z</time>
      </trkpt>
      <trkpt lat="45.46126" lon="6.4434">
        <ele>1342</ele>
        <time>2018-06-23T18:08:26Z</time>
      </trkpt>
      <trkpt lat="45.46129" lon="6.44352">
        <ele>1341</ele>
        <time>2018-06-23T18:09:26Z</time>
      </trkpt>
      <trkpt lat="45.46135" lon="6.44401">
        <ele>1341</ele>
        <time>2018-06-23T18:10:26Z</time>
      </trkpt>
      <trkpt lat="45.46138" lon="6.44422">
        <ele>1338</ele>
        <time>2018-06-23T18:11:26Z</time>
      </trkpt>
      <trkpt lat="45.46139" lon="6.44426">
        <ele>1338</ele>
        <time>2018-06-23T18:12:26Z</time>
      </trkpt>
      <trkpt lat="45.46128" lon="6.44429">
        <ele>1339</ele>
        <time>2018-06-23T18:13:26Z</time>
      </trkpt>
      <trkpt lat="45.4611" lon="6.4443">
        <ele>1342</ele>
        <time>2018-06-23T18:14:26Z</time>
      </trkpt>
      <trkpt lat="45.46095" lon="6.44435">
        <ele>1343</ele>
        <time>2018-06-23T18:15:26Z</time>
      </trkpt>
      <trkpt lat="45.46092" lon="6.44447">
        <ele>1342</ele>
        <time>2018-06-23T18:16:26Z</time>
      </trkpt>
      <trkpt lat="45.46085" lon="6.44467">
        <ele>1341</ele>
        <time>2018-06-23T18:17:26Z</time>
      </trkpt>
      <trkpt lat="45.46079" lon="6.44473">
        <ele>1350</ele>
        <time>2018-06-23T18:18:26Z</time>
      </trkpt>
      <trkpt lat="45.46072" lon="6.4448">
        <ele>1350</ele>
        <time>2018-06-23T18:19:26Z</time>
      </trkpt>
      <trkpt lat="45.46061" lon="6.44483">
        <ele>1351</ele>
        <time>2018-06-23T18:20:26Z</time>
      </trkpt>
      <trkpt lat="45.46053" lon="6.44484">
        <ele>1353</ele>
        <time>2018-06-23T18:21:26Z</time>
      </trkpt>
      <trkpt lat="45.46049" lon="6.44487">
        <ele>1354</ele>
        <time>2018-06-23T18:22:26Z</time>
      </trkpt>
      <trkpt lat="45.46046" lon="6.44493">
        <ele>1354</ele>
        <time>2018-06-23T18:23:26Z</time>
      </trkpt>
      <trkpt lat="45.46042" lon="6.44508">
        <ele>1353</ele>
        <time>2018-06-23T18:24:26Z</time>
      </trkpt>
      <trkpt lat="45.4604" lon="6.44512">
        <ele>1353</ele>
        <time>2018-06-23T18:25:26Z</time>
      </trkpt>
      <trkpt lat="45.46035" lon="6.44516">
        <ele>1354</ele>
        <time>2018-06-23T18:26:26Z</time>
      </trkpt>
      <trkpt lat="45.46034" lon="6.44524">
        <ele>1354</ele>
        <time>2018-06-23T18:27:26Z</time>
      </trkpt>
      <trkpt lat="45.46037" lon="6.44564">
        <ele>1353</ele>
        <time>2018-06-23T18:28:26Z</time>
      </trkpt>
      <trkpt lat="45.46036" lon="6.44576">
        <ele>1353</ele>
        <time>2018-06-23T18:29:26Z</time>
      </trkpt>
      <trkpt lat="45.46026" lon="6.44599">
        <ele>1358</ele>
        <time>2018-06-23T18:30:26Z</time>
      </trkpt>
      <trkpt lat="45.46026" lon="6.44607">
        <ele>1358</ele>
        <time>2018-06-23T18:31:26Z</time>
      </trkpt>
      <trkpt lat="45.46029" lon="6.44612">
        <ele>1357</ele>
        <time>2018-06-23T18:32:26Z</time>
      </trkpt>
      <trkpt lat="45.4603" lon="6.44617">
        <ele>1357</ele>
        <time>2018-06-23T18:33:26Z</time>
      </trkpt>
      <trkpt lat="45.46028" lon="6.44621">
        <ele>1358</ele>
        <time>2018-06-23T18:34:26Z</time>
      </trkpt>
      <trkpt lat="45.46017" lon="6.4462">
        <ele>1359</ele>
        <time>2018-06-23T18:35:26Z</time>
      </trkpt>
      <trkpt lat="45.46012" lon="6.44623">
        <ele>1360</ele>
        <time>2018-06-23T18:36:26Z</time>
      </trkpt>
      <trkpt lat="45.46009" lon="6.44628">
        <ele>1360</ele>
        <time>2018-06-23T18:37:26Z</time>
      </trkpt>
      <trkpt lat="45.46007" lon="6.44636">
        <ele>1361</ele>
        <time>2018-06-23T18:38:26Z</time>
      </trkpt>
      <trkpt lat="45.46008" lon="6.44646">
        <ele>1363</ele>
        <time>2018-06-23T18:39:26Z</time>
      </trkpt>
      <trkpt lat="45.46011" lon="6.44659">
        <ele>1365</ele>
        <time>2018-06-23T18:40:26Z</time>
      </trkpt>
      <trkpt lat="45.46011" lon="6.44665">
        <ele>1366</ele>
        <time>2018-06-23T18:41:26Z</time>
      </trkpt>
      <trkpt lat="45.46008" lon="6.44674">
        <ele>1370</ele>
        <time>2018-06-23T18:42:26Z</time>
      </trkpt>
      <trkpt lat="45.46008" lon="6.44679">
        <ele>1370</ele>
        <time>2018-06-23T18:43:26Z</time>
      </trkpt>
      <trkpt lat="45.46009" lon="6.4469">
        <ele>1370</ele>
        <time>2018-06-23T18:44:26Z</time>
      </trkpt>
      <trkpt lat="45.4602" lon="6.44704">
        <ele>1370</ele>
        <time>2018-06-23T18:45:26Z</time>
      </trkpt>
      <trkpt lat="45.4603" lon="6.4471">
        <ele>1369</ele>
        <time>2018-06-23T18:46:26Z</time>
      </trkpt>
      <trkpt lat="45.46036" lon="6.44718">
        <ele>1369</ele>
        <time>2018-06-23T18:47:26Z</time>
      </trkpt>
      <trkpt lat="45.46043" lon="6.44727">
        <ele>1369</ele>
        <time>2018-06-23T18:48:26Z</time>
      </trkpt>
      <trkpt lat="45.46045" lon="6.44737">
        <ele>1369</ele>
        <time>2018-06-23T18:49:26Z</time>
      </trkpt>
      <trkpt lat="45.46044" lon="6.44745">
        <ele>1370</ele>
        <time>2018-06-23T18:50:26Z</time>
      </trkpt>
      <trkpt lat="45.46039" lon="6.44752">
        <ele>1377</ele>
        <time>2018-06-23T18:51:26Z</time>
      </trkpt>
      <trkpt lat="45.46031" lon="6.44758">
        <ele>1379</ele>
        <time>2018-06-23T18:52:26Z</time>
      </trkpt>
      <trkpt lat="45.46023" lon="6.44767">
        <ele>1380</ele>
        <time>2018-06-23T18:53:26Z</time>
      </trkpt>
      <trkpt lat="45.46019" lon="6.44785">
        <ele>1380</ele>
        <time>2018-06-23T18:54:26Z</time>
      </trkpt>
      <trkpt lat="45.46014" lon="6.44801">
        <ele>1382</ele>
        <time>2018-06-23T18:55:26Z</time>
      </trkpt>
      <trkpt lat="45.46012" lon="6.44822">
        <ele>1385</ele>
        <time>2018-06-23T18:56:26Z</time>
      </trkpt>
      <trkpt lat="45.46009" lon="6.44856">
        <ele>1387</ele>
        <time>2018-06-23T18:57:26Z</time>
      </trkpt>
      <trkpt lat="45.46011" lon="6.44867">
        <ele>1386</ele>
        <time>2018-06-23T18:58:26Z</time>
      </trkpt>
      <trkpt lat="45.46014" lon="6.44876">
        <ele>1386</ele>
        <time>2018-06-23T18:59:26Z</time>
      </trkpt>
      <trkpt lat="45.46018" lon="6.44882">
        <ele>1386</ele>
        <time>2018-06-23T19:00:26Z</time>
      </trkpt>
      <trkpt lat="45.46025" lon="6.44885">
        <ele>1385</ele>
        <time>2018-06-23T19:01:26Z</time>
      </trkpt>
      <trkpt lat="45.46037" lon="6.44886">
        <ele>1384</ele>
        <time>2018-06-23T19:02:26Z</time>
      </trkpt>
      <trkpt lat="45.46042" lon="6.44887">
        <ele>1384</ele>
        <time>2018-06-23T19:03:26Z</time>
      </trkpt>
      <trkpt lat="45.46046" lon="6.44889">
        <ele>1383</ele>
        <time>2018-06-23T19:04:26Z</time>
      </trkpt>
      <trkpt lat="45.46048" lon="6.44897">
        <ele>1383</ele>
        <time>2018-06-23T19:05:26Z</time>
      </trkpt>
      <trkpt lat="45.46048" lon="6.44914">
        <ele>1383</ele>
        <time>2018-06-23T19:06:26Z</time>
      </trkpt>
      <trkpt lat="45.4605" lon="6.44926">
        <ele>1388</ele>
        <time>2018-06-23T19:07:26Z</time>
      </trkpt>
      <trkpt lat="45.46056" lon="6.44951">
        <ele>1389</ele>
        <time>2018-06-23T19:08:26Z</time>
      </trkpt>
      <trkpt lat="45.46048" lon="6.44961">
        <ele>1390</ele>
        <time>2018-06-23T19:09:26Z</time>
      </trkpt>
      <trkpt lat="45.46042" lon="6.44968">
        <ele>1392</ele>
        <time>2018-06-23T19:10:26Z</time>
      </trkpt>
      <trkpt lat="45.46033" lon="6.44984">
        <ele>1394</ele>
        <time>2018-06-23T19:11:26Z</time>
      </trkpt>
      <trkpt lat="45.46032" lon="6.44994">
        <ele>1395</ele>
        <time>2018-06-23T19:12:26Z</time>
      </trkpt>
      <trkpt lat="45.46028" lon="6.44995">
        <ele>1395</ele>
        <time>2018-06-23T19:13:26Z</time>
      </trkpt>
      <trkpt lat="45.46023" lon="6.45005">
        <ele>1404</ele>
        <time>2018-06-23T19:14:26Z</time>
      </trkpt>
      <trkpt lat="45.46019" lon="6.4502">
        <ele>1404</ele>
        <time>2018-06-23T19:15:26Z</time>
      </trkpt>
      <trkpt lat="45.46017" lon="6.45039">
        <ele>1406</ele>
        <time>2018-06-23T19:16:26Z</time>
      </trkpt>
      <trkpt lat="45.46015" lon="6.45044">
        <ele>1406</ele>
        <time>2018-06-23T19:17:26Z</time>
      </trkpt>
      <trkpt lat="45.46014" lon="6.45049">
        <ele>1407</ele>
        <time>2018-06-23T19:18:26Z</time>
      </trkpt>
      <trkpt lat="45.46008" lon="6.45059">
        <ele>1409</ele>
        <time>2018-06-23T19:19:26Z</time>
      </trkpt>
      <trkpt lat="45.46004" lon="6.45065">
        <ele>1410</ele>
        <time>2018-06-23T19:20:26Z</time>
      </trkpt>
      <trkpt lat="45.45995" lon="6.45072">
        <ele>1421</ele>
        <time>2018-06-23T19:21:26Z</time>
      </trkpt>
      <trkpt lat="45.45984" lon="6.45085">
        <ele>1429</ele>
        <time>2018-06-23T19:22:26Z</time>
      </trkpt>
      <trkpt lat="45.45979" lon="6.45089">
        <ele>1432</ele>
        <time>2018-06-23T19:23:26Z</time>
      </trkpt>
      <trkpt lat="45.45976" lon="6.45093">
        <ele>1434</ele>
        <time>2018-06-23T19:24:26Z</time>
      </trkpt>
      <trkpt lat="45.45965" lon="6.45107">
        <ele>1439</ele>
        <time>2018-06-23T19:25:26Z</time>
      </trkpt>
      <trkpt lat="45.45959" lon="6.45117">
        <ele>1441</ele>
        <time>2018-06-23T19:26:26Z</time>
      </trkpt>
      <trkpt lat="45.45941" lon="6.45154">
        <ele>1448</ele>
        <time>2018-06-23T19:27:26Z</time>
      </trkpt>
      <trkpt lat="45.45928" lon="6.45168">
        <ele>1458</ele>
        <time>2018-06-23T19:28:26Z</time>
      </trkpt>
      <trkpt lat="45.45922" lon="6.45183">
        <ele>1459</ele>
        <time>2018-06-23T19:29:26Z</time>
      </trkpt>
      <trkpt lat="45.45907" lon="6.45213">
        <ele>1476</ele>
        <time>2018-06-23T19:30:26Z</time>
      </trkpt>
      <trkpt lat="45.45894" lon="6.45236">
        <ele>1478</ele>
        <time>2018-06-23T19:31:26Z</time>
      </trkpt>
      <trkpt lat="45.45887" lon="6.4525">
        <ele>1480</ele>
        <time>2018-06-23T19:32:26Z</time>
      </trkpt>
      <trkpt lat="45.45884" lon="6.45255">
        <ele>1489</ele>
        <time>2018-06-23T19:33:26Z</time>
      </trkpt>
      <trkpt lat="45.4587" lon="6.45274">
        <ele>1494</ele>
        <time>2018-06-23T19:34:26Z</time>
      </trkpt>
      <trkpt lat="45.45864" lon="6.45287">
        <ele>1496</ele>
        <time>2018-06-23T19:35:26Z</time>
      </trkpt>
      <trkpt lat="45.4585" lon="6.45316">
        <ele>1501</ele>
        <time>2018-06-23T19:36:26Z</time>
      </trkpt>
      <trkpt lat="45.45846" lon="6.45328">
        <ele>1504</ele>
        <time>2018-06-23T19:37:26Z</time>
      </trkpt>
      <trkpt lat="45.45849" lon="6.45348">
        <ele>1511</ele>
        <time>2018-06-23T19:38:26Z</time>
      </trkpt>
      <trkpt lat="45.45854" lon="6.45356">
        <ele>1511</ele>
        <time>2018-06-23T19:39:26Z</time>
      </trkpt>
      <trkpt lat="45.45854" lon="6.45363">
        <ele>1511</ele>
        <time>2018-06-23T19:40:26Z</time>
      </trkpt>
      <trkpt lat="45.45856" lon="6.4537">
        <ele>1512</ele>
        <time>2018-06-23T19:41:26Z</time>
      </trkpt>
      <trkpt lat="45.45859" lon="6.45376">
        <ele>1513</ele>
        <time>2018-06-23T19:42:26Z</time>
      </trkpt>
      <trkpt lat="45.45866" lon="6.45381">
        <ele>1513</ele>
        <time>2018-06-23T19:43:26Z</time>
      </trkpt>
      <trkpt lat="45.45868" lon="6.45382">
        <ele>1513</ele>
        <time>2018-06-23T19:44:26Z</time>
      </trkpt>
      <trkpt lat="45.45881" lon="6.45382">
        <ele>1512</ele>
        <time>2018-06-23T19:45:26Z</time>
      </trkpt>
      <trkpt lat="45.45894" lon="6.45379">
        <ele>1510</ele>
        <time>2018-06-23T19:46:26Z</time>
      </trkpt>
      <trkpt lat="45.459" lon="6.45378">
        <ele>1510</ele>
        <time>2018-06-23T19:47:26Z</time>
      </trkpt>
      <trkpt lat="45.45909" lon="6.45379">
        <ele>1510</ele>
        <time>2018-06-23T19:48:26Z</time>
      </trkpt>
      <trkpt lat="45.45931" lon="6.45383">
        <ele>1504</ele>
        <time>2018-06-23T19:49:26Z</time>
      </trkpt>
      <trkpt lat="45.45939" lon="6.45387">
        <ele>1504</ele>
        <time>2018-06-23T19:50:26Z</time>
      </trkpt>
      <trkpt lat="45.45949" lon="6.45394">
        <ele>1504</ele>
        <time>2018-06-23T19:51:26Z</time>
      </trkpt>
      <trkpt lat="45.45957" lon="6.45403">
        <ele>1504</ele>
        <time>2018-06-23T19:52:26Z</time>
      </trkpt>
      <trkpt lat="45.45959" lon="6.45406">
        <ele>1504</ele>
        <time>2018-06-23T19:53:26Z</time>
      </trkpt>
      <trkpt lat="45.4596" lon="6.45409">
        <ele>1504</ele>
        <time>2018-06-23T19:54:26Z</time>
      </trkpt>
      <trkpt lat="45.45963" lon="6.45424">
        <ele>1516</ele>
        <time>2018-06-23T19:55:26Z</time>
      </trkpt>
      <trkpt lat="45.45963" lon="6.45428">
        <ele>1517</ele>
        <time>2018-06-23T19:56:26Z</time>
      </trkpt>
      <trkpt lat="45.45966" lon="6.45458">
        <ele>1520</ele>
        <time>2018-06-23T19:57:26Z</time>
      </trkpt>
      <trkpt lat="45.45969" lon="6.45472">
        <ele>1522</ele>
        <time>2018-06-23T19:58:26Z</time>
      </trkpt>
      <trkpt lat="45.45974" lon="6.45488">
        <ele>1522</ele>
        <time>2018-06-23T19:59:26Z</time>
      </trkpt>
      <trkpt lat="45.45976" lon="6.4549">
        <ele>1522</ele>
        <time>2018-06-23T20:00:26Z</time>
      </trkpt>
      <trkpt lat="45.45979" lon="6.45493">
        <ele>1522</ele>
        <time>2018-06-23T20:01:26Z</time>
      </trkpt>
      <trkpt lat="45.45983" lon="6.45501">
        <ele>1532</ele>
        <time>2018-06-23T20:02:26Z</time>
      </trkpt>
      <trkpt lat="45.45994" lon="6.45525">
        <ele>1535</ele>
        <time>2018-06-23T20:03:26Z</time>
      </trkpt>
      <trkpt lat="45.46014" lon="6.45583">
        <ele>1531</ele>
        <time>2018-06-23T20:04:26Z</time>
      </trkpt>
      <trkpt lat="45.46017" lon="6.45588">
        <ele>1537</ele>
        <time>2018-06-23T20:05:26Z</time>
      </trkpt>
      <trkpt lat="45.46022" lon="6.45594">
        <ele>1537</ele>
        <time>2018-06-23T20:06:26Z</time>
      </trkpt>
      <trkpt lat="45.46023" lon="6.456">
        <ele>1537</ele>
        <time>2018-06-23T20:07:26Z</time>
      </trkpt>
      <trkpt lat="45.46024" lon="6.45617">
        <ele>1538</ele>
        <time>2018-06-23T20:08:26Z</time>
      </trkpt>
      <trkpt lat="45.46023" lon="6.45633">
        <ele>1540</ele>
        <time>2018-06-23T20:09:26Z</time>
      </trkpt>
      <trkpt lat="45.46024" lon="6.45644">
        <ele>1541</ele>
        <time>2018-06-23T20:10:26Z</time>
      </trkpt>
      <trkpt lat="45.46028" lon="6.45682">
        <ele>1551</ele>
        <time>2018-06-23T20:11:26Z</time>
      </trkpt>
      <trkpt lat="45.46029" lon="6.45687">
        <ele>1551</ele>
        <time>2018-06-23T20:12:26Z</time>
      </trkpt>
      <trkpt lat="45.46037" lon="6.45712">
        <ele>1552</ele>
        <time>2018-06-23T20:13:26Z</time>
      </trkpt>
      <trkpt lat="45.46039" lon="6.45721">
        <ele>1552</ele>
        <time>2018-06-23T20:14:26Z</time>
      </trkpt>
      <trkpt lat="45.46041" lon="6.4573">
        <ele>1553</ele>
        <time>2018-06-23T20:15:26Z</time>
      </trkpt>
      <trkpt lat="45.46043" lon="6.45744">
        <ele>1553</ele>
        <time>2018-06-23T20:16:26Z</time>
      </trkpt>
      <trkpt lat="45.46044" lon="6.45759">
        <ele>1562</ele>
        <time>2018-06-23T20:17:26Z</time>
      </trkpt>
      <trkpt lat="45.46046" lon="6.45766">
        <ele>1562</ele>
        <time>2018-06-23T20:18:26Z</time>
      </trkpt>
      <trkpt lat="45.46055" lon="6.45799">
        <ele>1565</ele>
        <time>2018-06-23T20:19:26Z</time>
      </trkpt>
      <trkpt lat="45.46069" lon="6.45845">
        <ele>1573</ele>
        <time>2018-06-23T20:20:26Z</time>
      </trkpt>
      <trkpt lat="45.46072" lon="6.45852">
        <ele>1574</ele>
        <time>2018-06-23T20:21:26Z</time>
      </trkpt>
      <trkpt lat="45.46075" lon="6.4586">
        <ele>1575</ele>
        <time>2018-06-23T20:22:26Z</time>
      </trkpt>
      <trkpt lat="45.46076" lon="6.45866">
        <ele>1576</ele>
        <time>2018-06-23T20:23:26Z</time>
      </trkpt>
      <trkpt lat="45.46078" lon="6.45877">
        <ele>1577</ele>
        <time>2018-06-23T20:24:26Z</time>
      </trkpt>
      <trkpt lat="45.4608" lon="6.45882">
        <ele>1578</ele>
        <time>2018-06-23T20:25:26Z</time>
      </trkpt>
      <trkpt lat="45.46087" lon="6.45911">
        <ele>1571</ele>
        <time>2018-06-23T20:26:26Z</time>
      </trkpt>
      <trkpt lat="45.46088" lon="6.45918">
        <ele>1575</ele>
        <time>2018-06-23T20:27:26Z</time>
      </trkpt>
      <trkpt lat="45.46095" lon="6.45932">
        <ele>1574</ele>
        <time>2018-06-23T20:28:26Z</time>
      </trkpt>
      <trkpt lat="45.46099" lon="6.45936">
        <ele>1574</ele>
        <time>2018-06-23T20:29:26Z</time>
      </trkpt>
      <trkpt lat="45.46104" lon="6.45944">
        <ele>1574</ele>
        <time>2018-06-23T20:30:26Z</time>
      </trkpt>
      <trkpt lat="45.46109" lon="6.4595">
        <ele>1574</ele>
        <time>2018-06-23T20:31:26Z</time>
      </trkpt>
      <trkpt lat="45.46116" lon="6.45957">
        <ele>1574</ele>
        <time>2018-06-23T20:32:26Z</time>
      </trkpt>
      <trkpt lat="45.46122" lon="6.45969">
        <ele>1574</ele>
        <time>2018-06-23T20:33:26Z</time>
      </trkpt>
      <trkpt lat="45.46131" lon="6.45982">
        <ele>1574</ele>
        <time>2018-06-23T20:34:26Z</time>
      </trkpt>
      <trkpt lat="45.46135" lon="6.45998">
        <ele>1574</ele>
        <time>2018-06-23T20:35:26Z</time>
      </trkpt>
      <trkpt lat="45.46138" lon="6.46002">
        <ele>1586</ele>
        <time>2018-06-23T20:36:26Z</time>
      </trkpt>
      <trkpt lat="45.46145" lon="6.46011">
        <ele>1585</ele>
        <time>2018-06-23T20:37:26Z</time>
      </trkpt>
      <trkpt lat="45.46147" lon="6.46015">
        <ele>1585</ele>
        <time>2018-06-23T20:38:26Z</time>
      </trkpt>
      <trkpt lat="45.46155" lon="6.46031">
        <ele>1587</ele>
        <time>2018-06-23T20:39:26Z</time>
      </trkpt>
      <trkpt lat="45.46164" lon="6.4604">
        <ele>1588</ele>
        <time>2018-06-23T20:40:26Z</time>
      </trkpt>
      <trkpt lat="45.46167" lon="6.46042">
        <ele>1575</ele>
        <time>2018-06-23T20:41:26Z</time>
      </trkpt>
      <trkpt lat="45.46181" lon="6.46042">
        <ele>1574</ele>
        <time>2018-06-23T20:42:26Z</time>
      </trkpt>
      <trkpt lat="45.46191" lon="6.4604">
        <ele>1573</ele>
        <time>2018-06-23T20:43:26Z</time>
      </trkpt>
      <trkpt lat="45.46213" lon="6.46034">
        <ele>1570</ele>
        <time>2018-06-23T20:44:26Z</time>
      </trkpt>
      <trkpt lat="45.46218" lon="6.46034">
        <ele>1569</ele>
        <time>2018-06-23T20:45:26Z</time>
      </trkpt>
      <trkpt lat="45.46223" lon="6.46034">
        <ele>1569</ele>
        <time>2018-06-23T20:46:26Z</time>
      </trkpt>
      <trkpt lat="45.46234" lon="6.46039">
        <ele>1569</ele>
        <time>2018-06-23T20:47:26Z</time>
      </trkpt>
      <trkpt lat="45.46238" lon="6.46042">
        <ele>1569</ele>
        <time>2018-06-23T20:48:26Z</time>
      </trkpt>
      <trkpt lat="45.46242" lon="6.4605">
        <ele>1570</ele>
        <time>2018-06-23T20:49:26Z</time>
      </trkpt>
      <trkpt lat="45.46243" lon="6.46055">
        <ele>1570</ele>
        <time>2018-06-23T20:50:26Z</time>
      </trkpt>
      <trkpt lat="45.46246" lon="6.46064">
        <ele>1571</ele>
        <time>2018-06-23T20:51:26Z</time>
      </trkpt>
      <trkpt lat="45.46248" lon="6.46067">
        <ele>1571</ele>
        <time>2018-06-23T20:52:26Z</time>
      </trkpt>
      <trkpt lat="45.46252" lon="6.46074">
        <ele>1566</ele>
        <time>2018-06-23T20:53:26Z</time>
      </trkpt>
      <trkpt lat="45.46252" lon="6.46078">
        <ele>1568</ele>
        <time>2018-06-23T20:54:26Z</time>
      </trkpt>
      <trkpt lat="45.46254" lon="6.46088">
        <ele>1572</ele>
        <time>2018-06-23T20:55:26Z</time>
      </trkpt>
      <trkpt lat="45.46257" lon="6.46092">
        <ele>1573</ele>
        <time>2018-06-23T20:56:26Z</time>
      </trkpt>
      <trkpt lat="45.46275" lon="6.46114">
        <ele>1574</ele>
        <time>2018-06-23T20:57:26Z</time>
      </trkpt>
      <trkpt lat="45.46277" lon="6.46115">
        <ele>1574</ele>
        <time>2018-06-23T20:58:26Z</time>
      </trkpt>
      <trkpt lat="45.46286" lon="6.46122">
        <ele>1574</ele>
        <time>2018-06-23T20:59:26Z</time>
      </trkpt>
      <trkpt lat="45.46298" lon="6.46125">
        <ele>1573</ele>
        <time>2018-06-23T21:00:26Z</time>
      </trkpt>
      <trkpt lat="45.46315" lon="6.4613">
        <ele>1572</ele>
        <time>2018-06-23T21:01:26Z</time>
      </trkpt>
      <trkpt lat="45.46325" lon="6.46138">
        <ele>1572</ele>
        <time>2018-06-23T21:02:26Z</time>
      </trkpt>
      <trkpt lat="45.46339" lon="6.46158">
        <ele>1568</ele>
        <time>2018-06-23T21:03:26Z</time>
      </trkpt>
      <trkpt lat="45.46343" lon="6.46159">
        <ele>1567</ele>
        <time>2018-06-23T21:04:26Z</time>
      </trkpt>
      <trkpt lat="45.46347" lon="6.46161">
        <ele>1566</ele>
        <time>2018-06-23T21:05:26Z</time>
      </trkpt>
      <trkpt lat="45.46351" lon="6.46164">
        <ele>1565</ele>
        <time>2018-06-23T21:06:26Z</time>
      </trkpt>
      <trkpt lat="45.46354" lon="6.46167">
        <ele>1576</ele>
        <time>2018-06-23T21:07:26Z</time>
      </trkpt>
      <trkpt lat="45.46364" lon="6.46172">
        <ele>1576</ele>
        <time>2018-06-23T21:08:26Z</time>
      </trkpt>
      <trkpt lat="45.46387" lon="6.46186">
        <ele>1573</ele>
        <time>2018-06-23T21:09:26Z</time>
      </trkpt>
      <trkpt lat="45.46391" lon="6.4619">
        <ele>1573</ele>
        <time>2018-06-23T21:10:26Z</time>
      </trkpt>
      <trkpt lat="45.46407" lon="6.46207">
        <ele>1574</ele>
        <time>2018-06-23T21:11:26Z</time>
      </trkpt>
      <trkpt lat="45.46413" lon="6.46217">
        <ele>1576</ele>
        <time>2018-06-23T21:12:26Z</time>
      </trkpt>
      <trkpt lat="45.46423" lon="6.46236">
        <ele>1562</ele>
        <time>2018-06-23T21:13:26Z</time>
      </trkpt>
      <trkpt lat="45.46426" lon="6.46244">
        <ele>1565</ele>
        <time>2018-06-23T21:14:26Z</time>
      </trkpt>
      <trkpt lat="45.46432" lon="6.46257">
        <ele>1567</ele>
        <time>2018-06-23T21:15:26Z</time>
      </trkpt>
      <trkpt lat="45.46434" lon="6.46263">
        <ele>1565</ele>
        <time>2018-06-23T21:16:26Z</time>
      </trkpt>
      <trkpt lat="45.46441" lon="6.46283">
        <ele>1562</ele>
        <time>2018-06-23T21:17:26Z</time>
      </trkpt>
      <trkpt lat="45.46445" lon="6.46297">
        <ele>1562</ele>
        <time>2018-06-23T21:18:26Z</time>
      </trkpt>
      <trkpt lat="45.46447" lon="6.46318">
        <ele>1563</ele>
        <time>2018-06-23T21:19:26Z</time>
      </trkpt>
      <trkpt lat="45.4645" lon="6.46325">
        <ele>1563</ele>
        <time>2018-06-23T21:20:26Z</time>
      </trkpt>
      <trkpt lat="45.46459" lon="6.46363">
        <ele>1564</ele>
        <time>2018-06-23T21:21:26Z</time>
      </trkpt>
      <trkpt lat="45.46461" lon="6.46377">
        <ele>1564</ele>
        <time>2018-06-23T21:22:26Z</time>
      </trkpt>
      <trkpt lat="45.46461" lon="6.4639">
        <ele>1564</ele>
        <time>2018-06-23T21:23:26Z</time>
      </trkpt>
      <trkpt lat="45.46462" lon="6.46402">
        <ele>1564</ele>
        <time>2018-06-23T21:24:26Z</time>
      </trkpt>
      <trkpt lat="45.46459" lon="6.46415">
        <ele>1566</ele>
        <time>2018-06-23T21:25:26Z</time>
      </trkpt>
      <trkpt lat="45.46453" lon="6.46425">
        <ele>1575</ele>
        <time>2018-06-23T21:26:26Z</time>
      </trkpt>
      <trkpt lat="45.46447" lon="6.46431">
        <ele>1578</ele>
        <time>2018-06-23T21:27:26Z</time>
      </trkpt>
      <trkpt lat="45.46441" lon="6.46439">
        <ele>1579</ele>
        <time>2018-06-23T21:28:26Z</time>
      </trkpt>
      <trkpt lat="45.46441" lon="6.46447">
        <ele>1580</ele>
        <time>2018-06-23T21:29:26Z</time>
      </trkpt>
      <trkpt lat="45.46443" lon="6.4645">
        <ele>1579</ele>
        <time>2018-06-23T21:30:26Z</time>
      </trkpt>
      <trkpt lat="45.46451" lon="6.46458">
        <ele>1578</ele>
        <time>2018-06-23T21:31:26Z</time>
      </trkpt>
      <trkpt lat="45.46454" lon="6.46459">
        <ele>1578</ele>
        <time>2018-06-23T21:32:26Z</time>
      </trkpt>
      <trkpt lat="45.46462" lon="6.46462">
        <ele>1576</ele>
        <time>2018-06-23T21:33:26Z</time>
      </trkpt>
      <trkpt lat="45.46466" lon="6.46465">
        <ele>1575</ele>
        <time>2018-06-23T21:34:26Z</time>
      </trkpt>
      <trkpt lat="45.4647" lon="6.46469">
        <ele>1574</ele>
        <time>2018-06-23T21:35:26Z</time>
      </trkpt>
      <trkpt lat="45.46477" lon="6.46478">
        <ele>1573</ele>
        <time>2018-06-23T21:36:26Z</time>
      </trkpt>
      <trkpt lat="45.46485" lon="6.46498">
        <ele>1569</ele>
        <time>2018-06-23T21:37:26Z</time>
      </trkpt>
      <trkpt lat="45.46487" lon="6.46504">
        <ele>1575</ele>
        <time>2018-06-23T21:38:26Z</time>
      </trkpt>
      <trkpt lat="45.46493" lon="6.46525">
        <ele>1580</ele>
        <time>2018-06-23T21:39:26Z</time>
      </trkpt>
      <trkpt lat="45.46493" lon="6.46531">
        <ele>1582</ele>
        <time>2018-06-23T21:40:26Z</time>
      </trkpt>
      <trkpt lat="45.46491" lon="6.46547">
        <ele>1584</ele>
        <time>2018-06-23T21:41:26Z</time>
      </trkpt>
      <trkpt lat="45.46491" lon="6.46553">
        <ele>1585</ele>
        <time>2018-06-23T21:42:26Z</time>
      </trkpt>
      <trkpt lat="45.46491" lon="6.46559">
        <ele>1584</ele>
        <time>2018-06-23T21:43:26Z</time>
      </trkpt>
      <trkpt lat="45.46493" lon="6.46563">
        <ele>1584</ele>
        <time>2018-06-23T21:44:26Z</time>
      </trkpt>
      <trkpt lat="45.46496" lon="6.46567">
        <ele>1582</ele>
        <time>2018-06-23T21:45:26Z</time>
      </trkpt>
      <trkpt lat="45.46498" lon="6.46572">
        <ele>1581</ele>
        <time>2018-06-23T21:46:26Z</time>
      </trkpt>
      <trkpt lat="45.465" lon="6.46579">
        <ele>1571</ele>
        <time>2018-06-23T21:47:26Z</time>
      </trkpt>
      <trkpt lat="45.46501" lon="6.46585">
        <ele>1574</ele>
        <time>2018-06-23T21:48:26Z</time>
      </trkpt>
      <trkpt lat="45.46501" lon="6.46603">
        <ele>1572</ele>
        <time>2018-06-23T21:49:26Z</time>
      </trkpt>
      <trkpt lat="45.46502" lon="6.46608">
        <ele>1572</ele>
        <time>2018-06-23T21:50:26Z</time>
      </trkpt>
      <trkpt lat="45.46508" lon="6.46616">
        <ele>1572</ele>
        <time>2018-06-23T21:51:26Z</time>
      </trkpt>
      <trkpt lat="45.46513" lon="6.4662">
        <ele>1572</ele>
        <time>2018-06-23T21:52:26Z</time>
      </trkpt>
      <trkpt lat="45.46517" lon="6.4662">
        <ele>1572</ele>
        <time>2018-06-23T21:53:26Z</time>
      </trkpt>
      <trkpt lat="45.46537" lon="6.46621">
        <ele>1568</ele>
        <time>2018-06-23T21:54:26Z</time>
      </trkpt>
      <trkpt lat="45.46541" lon="6.46622">
        <ele>1567</ele>
        <time>2018-06-23T21:55:26Z</time>
      </trkpt>
      <trkpt lat="45.46545" lon="6.46625">
        <ele>1567</ele>
        <time>2018-06-23T21:56:26Z</time>
      </trkpt>
      <trkpt lat="45.46553" lon="6.46628">
        <ele>1565</ele>
        <time>2018-06-23T21:57:26Z</time>
      </trkpt>
      <trkpt lat="45.46556" lon="6.46632">
        <ele>1565</ele>
        <time>2018-06-23T21:58:26Z</time>
      </trkpt>
      <trkpt lat="45.46557" lon="6.46637">
        <ele>1565</ele>
        <time>2018-06-23T21:59:26Z</time>
      </trkpt>
      <trkpt lat="45.46558" lon="6.46667">
        <ele>1576</ele>
        <time>2018-06-23T22:00:26Z</time>
      </trkpt>
      <trkpt lat="45.46556" lon="6.4668">
        <ele>1579</ele>
        <time>2018-06-23T22:01:26Z</time>
      </trkpt>
      <trkpt lat="45.46555" lon="6.46684">
        <ele>1580</ele>
        <time>2018-06-23T22:02:26Z</time>
      </trkpt>
      <trkpt lat="45.46556" lon="6.46689">
        <ele>1580</ele>
        <time>2018-06-23T22:03:26Z</time>
      </trkpt>
      <trkpt lat="45.46557" lon="6.46691">
        <ele>1580</ele>
        <time>2018-06-23T22:04:26Z</time>
      </trkpt>
      <trkpt lat="45.46581" lon="6.46706">
        <ele>1579</ele>
        <time>2018-06-23T22:05:26Z</time>
      </trkpt>
      <trkpt lat="45.46583" lon="6.46709">
        <ele>1579</ele>
        <time>2018-06-23T22:06:26Z</time>
      </trkpt>
      <trkpt lat="45.46589" lon="6.46716">
        <ele>1555</ele>
        <time>2018-06-23T22:07:26Z</time>
      </trkpt>
      <trkpt lat="45.46591" lon="6.4672">
        <ele>1556</ele>
        <time>2018-06-23T22:08:26Z</time>
      </trkpt>
      <trkpt lat="45.46595" lon="6.46741">
        <ele>1562</ele>
        <time>2018-06-23T22:09:26Z</time>
      </trkpt>
      <trkpt lat="45.46597" lon="6.46761">
        <ele>1570</ele>
        <time>2018-06-23T22:10:26Z</time>
      </trkpt>
      <trkpt lat="45.46598" lon="6.46765">
        <ele>1570</ele>
        <time>2018-06-23T22:11:26Z</time>
      </trkpt>
      <trkpt lat="45.46603" lon="6.4678">
        <ele>1569</ele>
        <time>2018-06-23T22:12:26Z</time>
      </trkpt>
      <trkpt lat="45.46603" lon="6.46788">
        <ele>1570</ele>
        <time>2018-06-23T22:13:26Z</time>
      </trkpt>
      <trkpt lat="45.46604" lon="6.4679">
        <ele>1570</ele>
        <time>2018-06-23T22:14:26Z</time>
      </trkpt>
      <trkpt lat="45.46615" lon="6.46795">
        <ele>1569</ele>
        <time>2018-06-23T22:15:26Z</time>
      </trkpt>
      <trkpt lat="45.46616" lon="6.46796">
        <ele>1569</ele>
        <time>2018-06-23T22:16:26Z</time>
      </trkpt>
      <trkpt lat="45.46623" lon="6.46803">
        <ele>1568</ele>
        <time>2018-06-23T22:17:26Z</time>
      </trkpt>
      <trkpt lat="45.46624" lon="6.46806">
        <ele>1568</ele>
        <time>2018-06-23T22:18:26Z</time>
      </trkpt>
      <trkpt lat="45.46629" lon="6.46835">
        <ele>1584</ele>
        <time>2018-06-23T22:19:26Z</time>
      </trkpt>
      <trkpt lat="45.46631" lon="6.46839">
        <ele>1584</ele>
        <time>2018-06-23T22:20:26Z</time>
      </trkpt>
      <trkpt lat="45.46634" lon="6.46843">
        <ele>1583</ele>
        <time>2018-06-23T22:21:26Z</time>
      </trkpt>
      <trkpt lat="45.46638" lon="6.46845">
        <ele>1582</ele>
        <time>2018-06-23T22:22:26Z</time>
      </trkpt>
      <trkpt lat="45.46642" lon="6.46851">
        <ele>1582</ele>
        <time>2018-06-23T22:23:26Z</time>
      </trkpt>
      <trkpt lat="45.46647" lon="6.46857">
        <ele>1582</ele>
        <time>2018-06-23T22:24:26Z</time>
      </trkpt>
      <trkpt lat="45.46652" lon="6.46858">
        <ele>1581</ele>
        <time>2018-06-23T22:25:26Z</time>
      </trkpt>
      <trkpt lat="45.46658" lon="6.46861">
        <ele>1581</ele>
        <time>2018-06-23T22:26:26Z</time>
      </trkpt>
      <trkpt lat="45.46665" lon="6.46866">
        <ele>1582</ele>
        <time>2018-06-23T22:27:26Z</time>
      </trkpt>
      <trkpt lat="45.4667" lon="6.46876">
        <ele>1567</ele>
        <time>2018-06-23T22:28:26Z</time>
      </trkpt>
      <trkpt lat="45.46674" lon="6.46887">
        <ele>1570</ele>
        <time>2018-06-23T22:29:26Z</time>
      </trkpt>
      <trkpt lat="45.4668" lon="6.46897">
        <ele>1572</ele>
        <time>2018-06-23T22:30:26Z</time>
      </trkpt>
      <trkpt lat="45.46685" lon="6.46904">
        <ele>1573</ele>
        <time>2018-06-23T22:31:26Z</time>
      </trkpt>
      <trkpt lat="45.46693" lon="6.46906">
        <ele>1571</ele>
        <time>2018-06-23T22:32:26Z</time>
      </trkpt>
      <trkpt lat="45.467" lon="6.46909">
        <ele>1570</ele>
        <time>2018-06-23T22:33:26Z</time>
      </trkpt>
      <trkpt lat="45.46705" lon="6.46913">
        <ele>1569</ele>
        <time>2018-06-23T22:34:26Z</time>
      </trkpt>
      <trkpt lat="45.46711" lon="6.46919">
        <ele>1584</ele>
        <time>2018-06-23T22:35:26Z</time>
      </trkpt>
      <trkpt lat="45.46715" lon="6.46927">
        <ele>1584</ele>
        <time>2018-06-23T22:36:26Z</time>
      </trkpt>
      <trkpt lat="45.46725" lon="6.46957">
        <ele>1587</ele>
        <time>2018-06-23T22:37:26Z</time>
      </trkpt>
      <trkpt lat="45.46733" lon="6.46975">
        <ele>1588</ele>
        <time>2018-06-23T22:38:26Z</time>
      </trkpt>
      <trkpt lat="45.46741" lon="6.46992">
        <ele>1589</ele>
        <time>2018-06-23T22:39:26Z</time>
      </trkpt>
      <trkpt lat="45.46745" lon="6.47003">
        <ele>1594</ele>
        <time>2018-06-23T22:40:26Z</time>
      </trkpt>
      <trkpt lat="45.46746" lon="6.47013">
        <ele>1600</ele>
        <time>2018-06-23T22:41:26Z</time>
      </trkpt>
      <trkpt lat="45.4675" lon="6.47042">
        <ele>1595</ele>
        <time>2018-06-23T22:42:26Z</time>
      </trkpt>
      <trkpt lat="45.46755" lon="6.47056">
        <ele>1599</ele>
        <time>2018-06-23T22:43:26Z</time>
      </trkpt>
      <trkpt lat="45.46761" lon="6.47067">
        <ele>1602</ele>
        <time>2018-06-23T22:44:26Z</time>
      </trkpt>
      <trkpt lat="45.4677" lon="6.47077">
        <ele>1602</ele>
        <time>2018-06-23T22:45:26Z</time>
      </trkpt>
      <trkpt lat="45.46797" lon="6.47085">
        <ele>1615</ele>
        <time>2018-06-23T22:46:26Z</time>
      </trkpt>
      <trkpt lat="45.46818" lon="6.47089">
        <ele>1607</ele>
        <time>2018-06-23T22:47:26Z</time>
      </trkpt>
      <trkpt lat="45.46822" lon="6.47096">
        <ele>1608</ele>
        <time>2018-06-23T22:48:26Z</time>
      </trkpt>
      <trkpt lat="45.46828" lon="6.47109">
        <ele>1613</ele>
        <time>2018-06-23T22:49:26Z</time>
      </trkpt>
      <trkpt lat="45.46838" lon="6.47117">
        <ele>1607</ele>
        <time>2018-06-23T22:50:26Z</time>
      </trkpt>
      <trkpt lat="45.46848" lon="6.47124">
        <ele>1609</ele>
        <time>2018-06-23T22:51:26Z</time>
      </trkpt>
      <trkpt lat="45.46856" lon="6.47134">
        <ele>1611</ele>
        <time>2018-06-23T22:52:26Z</time>
      </trkpt>
      <trkpt lat="45.46868" lon="6.47147">
        <ele>1613</ele>
        <time>2018-06-23T22:53:26Z</time>
      </trkpt>
      <trkpt lat="45.46876" lon="6.47159">
        <ele>1614</ele>
        <time>2018-06-23T22:54:26Z</time>
      </trkpt>
      <trkpt lat="45.46861" lon="6.47158">
        <ele>1616</ele>
        <time>2018-06-23T22:55:26Z</time>
      </trkpt>
      <trkpt lat="45.46845" lon="6.47154">
        <ele>1619</ele>
        <time>2018-06-23T22:56:26Z</time>
      </trkpt>
      <trkpt lat="45.46827" lon="6.47146">
        <ele>1624</ele>
        <time>2018-06-23T22:57:26Z</time>
      </trkpt>
      <trkpt lat="45.46791" lon="6.47129">
        <ele>1623</ele>
        <time>2018-06-23T22:58:26Z</time>
      </trkpt>
      <trkpt lat="45.46781" lon="6.47128">
        <ele>1624</ele>
        <time>2018-06-23T22:59:26Z</time>
      </trkpt>
      <trkpt lat="45.46763" lon="6.47129">
        <ele>1626</ele>
        <time>2018-06-23T23:00:26Z</time>
      </trkpt>
      <trkpt lat="45.46751" lon="6.47126">
        <ele>1626</ele>
        <time>2018-06-23T23:01:26Z</time>
      </trkpt>
      <trkpt lat="45.46742" lon="6.47119">
        <ele>1640</ele>
        <time>2018-06-23T23:02:26Z</time>
      </trkpt>
      <trkpt lat="45.46732" lon="6.47101">
        <ele>1636</ele>
        <time>2018-06-23T23:03:26Z</time>
      </trkpt>
      <trkpt lat="45.46722" lon="6.47093">
        <ele>1637</ele>
        <time>2018-06-23T23:04:26Z</time>
      </trkpt>
      <trkpt lat="45.46691" lon="6.47076">
        <ele>1626</ele>
        <time>2018-06-23T23:05:26Z</time>
      </trkpt>
      <trkpt lat="45.46683" lon="6.47073">
        <ele>1629</ele>
        <time>2018-06-23T23:06:26Z</time>
      </trkpt>
      <trkpt lat="45.46677" lon="6.47072">
        <ele>1631</ele>
        <time>2018-06-23T23:07:26Z</time>
      </trkpt>
      <trkpt lat="45.46671" lon="6.47074">
        <ele>1635</ele>
        <time>2018-06-23T23:08:26Z</time>
      </trkpt>
      <trkpt lat="45.46668" lon="6.47079">
        <ele>1639</ele>
        <time>2018-06-23T23:09:26Z</time>
      </trkpt>
      <trkpt lat="45.46656" lon="6.47103">
        <ele>1663</ele>
        <time>2018-06-23T23:10:26Z</time>
      </trkpt>
      <trkpt lat="45.46655" lon="6.47106">
        <ele>1665</ele>
        <time>2018-06-23T23:11:26Z</time>
      </trkpt>
      <trkpt lat="45.46659" lon="6.47111">
        <ele>1666</ele>
        <time>2018-06-23T23:12:26Z</time>
      </trkpt>
      <trkpt lat="45.46659" lon="6.47114">
        <ele>1667</ele>
        <time>2018-06-23T23:13:26Z</time>
      </trkpt>
      <trkpt lat="45.46658" lon="6.47124">
        <ele>1671</ele>
        <time>2018-06-23T23:14:26Z</time>
      </trkpt>
      <trkpt lat="45.46652" lon="6.47123">
        <ele>1671</ele>
        <time>2018-06-23T23:15:26Z</time>
      </trkpt>
      <trkpt lat="45.46649" lon="6.47123">
        <ele>1672</ele>
        <time>2018-06-23T23:16:26Z</time>
      </trkpt>
      <trkpt lat="45.46648" lon="6.47124">
        <ele>1672</ele>
        <time>2018-06-23T23:17:26Z</time>
      </trkpt>
      <trkpt lat="45.46648" lon="6.47126">
        <ele>1673</ele>
        <time>2018-06-23T23:18:26Z</time>
      </trkpt>
      <trkpt lat="45.46653" lon="6.47134">
        <ele>1674</ele>
        <time>2018-06-23T23:19:26Z</time>
      </trkpt>
      <trkpt lat="45.46652" lon="6.47136">
        <ele>1675</ele>
        <time>2018-06-23T23:20:26Z</time>
      </trkpt>
      <trkpt lat="45.46651" lon="6.47136">
        <ele>1675</ele>
        <time>2018-06-23T23:21:26Z</time>
      </trkpt>
      <trkpt lat="45.46628" lon="6.4712">
        <ele>1675</ele>
        <time>2018-06-23T23:22:26Z</time>
      </trkpt>
      <trkpt lat="45.46624" lon="6.47118">
        <ele>1675</ele>
        <time>2018-06-23T23:23:26Z</time>
      </trkpt>
      <trkpt lat="45.46618" lon="6.4712">
        <ele>1676</ele>
        <time>2018-06-23T23:24:26Z</time>
      </trkpt>
      <trkpt lat="45.46616" lon="6.4712">
        <ele>1677</ele>
        <time>2018-06-23T23:25:26Z</time>
      </trkpt>
      <trkpt lat="45.46614" lon="6.47118">
        <ele>1677</ele>
        <time>2018-06-23T23:26:26Z</time>
      </trkpt>
      <trkpt lat="45.46609" lon="6.47112">
        <ele>1676</ele>
        <time>2018-06-23T23:27:26Z</time>
      </trkpt>
      <trkpt lat="45.46596" lon="6.47107">
        <ele>1677</ele>
        <time>2018-06-23T23:28:26Z</time>
      </trkpt>
      <trkpt lat="45.46577" lon="6.47094">
        <ele>1689</ele>
        <time>2018-06-23T23:29:26Z</time>
      </trkpt>
      <trkpt lat="45.46561" lon="6.47085">
        <ele>1696</ele>
        <time>2018-06-23T23:30:26Z</time>
      </trkpt>
      <trkpt lat="45.46558" lon="6.47084">
        <ele>1698</ele>
        <time>2018-06-23T23:31:26Z</time>
      </trkpt>
      <trkpt lat="45.46549" lon="6.47087">
        <ele>1702</ele>
        <time>2018-06-23T23:32:26Z</time>
      </trkpt>
      <trkpt lat="45.46546" lon="6.47085">
        <ele>1704</ele>
        <time>2018-06-23T23:33:26Z</time>
      </trkpt>
      <trkpt lat="45.46544" lon="6.47083">
        <ele>1686</ele>
        <time>2018-06-23T23:34:26Z</time>
      </trkpt>
      <trkpt lat="45.46543" lon="6.47079">
        <ele>1686</ele>
        <time>2018-06-23T23:35:26Z</time>
      </trkpt>
      <trkpt lat="45.46541" lon="6.47077">
        <ele>1687</ele>
        <time>2018-06-23T23:36:26Z</time>
      </trkpt>
      <trkpt lat="45.46538" lon="6.47075">
        <ele>1688</ele>
        <time>2018-06-23T23:37:26Z</time>
      </trkpt>
      <trkpt lat="45.46531" lon="6.47062">
        <ele>1688</ele>
        <time>2018-06-23T23:38:26Z</time>
      </trkpt>
      <trkpt lat="45.46529" lon="6.47059">
        <ele>1688</ele>
        <time>2018-06-23T23:39:26Z</time>
      </trkpt>
      <trkpt lat="45.46511" lon="6.47044">
        <ele>1689</ele>
        <time>2018-06-23T23:40:26Z</time>
      </trkpt>
      <trkpt lat="45.46498" lon="6.47033">
        <ele>1713</ele>
        <time>2018-06-23T23:41:26Z</time>
      </trkpt>
      <trkpt lat="45.46484" lon="6.47024">
        <ele>1713</ele>
        <time>2018-06-23T23:42:26Z</time>
      </trkpt>
      <trkpt lat="45.4648" lon="6.47021">
        <ele>1713</ele>
        <time>2018-06-23T23:43:26Z</time>
      </trkpt>
      <trkpt lat="45.46476" lon="6.4702">
        <ele>1714</ele>
        <time>2018-06-23T23:44:26Z</time>
      </trkpt>
      <trkpt lat="45.46465" lon="6.47018">
        <ele>1718</ele>
        <time>2018-06-23T23:45:26Z</time>
      </trkpt>
      <trkpt lat="45.46462" lon="6.47016">
        <ele>1718</ele>
        <time>2018-06-23T23:46:26Z</time>
      </trkpt>
      <trkpt lat="45.4645" lon="6.4701">
        <ele>1722</ele>
        <time>2018-06-23T23:47:26Z</time>
      </trkpt>
      <trkpt lat="45.46448" lon="6.4701">
        <ele>1722</ele>
        <time>2018-06-23T23:48:26Z</time>
      </trkpt>
      <trkpt lat="45.4644" lon="6.47011">
        <ele>1724</ele>
        <time>2018-06-23T23:49:26Z</time>
      </trkpt>
      <trkpt lat="45.46437" lon="6.4701">
        <ele>1725</ele>
        <time>2018-06-23T23:50:26Z</time>
      </trkpt>
      <trkpt lat="45.46435" lon="6.47008">
        <ele>1726</ele>
        <time>2018-06-23T23:51:26Z</time>
      </trkpt>
      <trkpt lat="45.46429" lon="6.46997">
        <ele>1716</ele>
        <time>2018-06-23T23:52:26Z</time>
      </trkpt>
      <trkpt lat="45.46423" lon="6.4699">
        <ele>1717</ele>
        <time>2018-06-23T23:53:26Z</time>
      </trkpt>
      <trkpt lat="45.46416" lon="6.46985">
        <ele>1734</ele>
        <time>2018-06-23T23:54:26Z</time>
      </trkpt>
      <trkpt lat="45.46413" lon="6.46985">
        <ele>1734</ele>
        <time>2018-06-23T23:55:26Z</time>
      </trkpt>
      <trkpt lat="45.4641" lon="6.46985">
        <ele>1734</ele>
        <time>2018-06-23T23:56:26Z</time>
      </trkpt>
      <trkpt lat="45.46402" lon="6.46989">
        <ele>1736</ele>
        <time>2018-06-23T23:57:26Z</time>
      </trkpt>
      <trkpt lat="45.46399" lon="6.46989">
        <ele>1737</ele>
        <time>2018-06-23T23:58:26Z</time>
      </trkpt>
      <trkpt lat="45.46397" lon="6.46987">
        <ele>1737</ele>
        <time>2018-06-23T23:59:26Z</time>
      </trkpt>
      <trkpt lat="45.46391" lon="6.4698">
        <ele>1739</ele>
        <time>2018-06-24T00:00:26Z</time>
      </trkpt>
      <trkpt lat="45.46388" lon="6.4697">
        <ele>1738</ele>
        <time>2018-06-24T00:01:26Z</time>
      </trkpt>
      <trkpt lat="45.46387" lon="6.46967">
        <ele>1738</ele>
        <time>2018-06-24T00:02:26Z</time>
      </trkpt>
      <trkpt lat="45.46386" lon="6.46966">
        <ele>1739</ele>
        <time>2018-06-24T00:03:26Z</time>
      </trkpt>
      <trkpt lat="45.46381" lon="6.46966">
        <ele>1740</ele>
        <time>2018-06-24T00:04:26Z</time>
      </trkpt>
      <trkpt lat="45.46377" lon="6.46963">
        <ele>1741</ele>
        <time>2018-06-24T00:05:26Z</time>
      </trkpt>
      <trkpt lat="45.46366" lon="6.46949">
        <ele>1742</ele>
        <time>2018-06-24T00:06:26Z</time>
      </trkpt>
      <trkpt lat="45.46343" lon="6.46925">
        <ele>1748</ele>
        <time>2018-06-24T00:07:26Z</time>
      </trkpt>
      <trkpt lat="45.46336" lon="6.46921">
        <ele>1751</ele>
        <time>2018-06-24T00:08:26Z</time>
      </trkpt>
      <trkpt lat="45.46333" lon="6.46916">
        <ele>1753</ele>
        <time>2018-06-24T00:09:26Z</time>
      </trkpt>
      <trkpt lat="45.46323" lon="6.46896">
        <ele>1761</ele>
        <time>2018-06-24T00:10:26Z</time>
      </trkpt>
      <trkpt lat="45.46311" lon="6.46885">
        <ele>1763</ele>
        <time>2018-06-24T00:11:26Z</time>
      </trkpt>
      <trkpt lat="45.46292" lon="6.46865">
        <ele>1766</ele>
        <time>2018-06-24T00:12:26Z</time>
      </trkpt>
      <trkpt lat="45.46278" lon="6.46848">
        <ele>1769</ele>
        <time>2018-06-24T00:13:26Z</time>
      </trkpt>
      <trkpt lat="45.46274" lon="6.46845">
        <ele>1771</ele>
        <time>2018-06-24T00:14:26Z</time>
      </trkpt>
      <trkpt lat="45.4627" lon="6.46844">
        <ele>1772</ele>
        <time>2018-06-24T00:15:26Z</time>
      </trkpt>
      <trkpt lat="45.46262" lon="6.4684">
        <ele>1775</ele>
        <time>2018-06-24T00:16:26Z</time>
      </trkpt>
      <trkpt lat="45.46255" lon="6.46835">
        <ele>1778</ele>
        <time>2018-06-24T00:17:26Z</time>
      </trkpt>
      <trkpt lat="45.46251" lon="6.46832">
        <ele>1779</ele>
        <time>2018-06-24T00:18:26Z</time>
      </trkpt>
      <trkpt lat="45.46249" lon="6.46832">
        <ele>1782</ele>
        <time>2018-06-24T00:19:26Z</time>
      </trkpt>
      <trkpt lat="45.46244" lon="6.46832">
        <ele>1784</ele>
        <time>2018-06-24T00:20:26Z</time>
      </trkpt>
      <trkpt lat="45.46242" lon="6.46831">
        <ele>1784</ele>
        <time>2018-06-24T00:21:26Z</time>
      </trkpt>
      <trkpt lat="45.46241" lon="6.46829">
        <ele>1785</ele>
        <time>2018-06-24T00:22:26Z</time>
      </trkpt>
      <trkpt lat="45.46241" lon="6.46823">
        <ele>1786</ele>
        <time>2018-06-24T00:23:26Z</time>
      </trkpt>
      <trkpt lat="45.46238" lon="6.46814">
        <ele>1787</ele>
        <time>2018-06-24T00:24:26Z</time>
      </trkpt>
      <trkpt lat="45.46233" lon="6.46803">
        <ele>1788</ele>
        <time>2018-06-24T00:25:26Z</time>
      </trkpt>
      <trkpt lat="45.4623" lon="6.46799">
        <ele>1788</ele>
        <time>2018-06-24T00:26:26Z</time>
      </trkpt>
      <trkpt lat="45.46223" lon="6.46794">
        <ele>1789</ele>
        <time>2018-06-24T00:27:26Z</time>
      </trkpt>
      <trkpt lat="45.46214" lon="6.46782">
        <ele>1790</ele>
        <time>2018-06-24T00:28:26Z</time>
      </trkpt>
      <trkpt lat="45.46212" lon="6.46778">
        <ele>1790</ele>
        <time>2018-06-24T00:29:26Z</time>
      </trkpt>
      <trkpt lat="45.46209" lon="6.46775">
        <ele>1790</ele>
        <time>2018-06-24T00:30:26Z</time>
      </trkpt>
      <trkpt lat="45.46198" lon="6.46766">
        <ele>1793</ele>
        <time>2018-06-24T00:31:26Z</time>
      </trkpt>
      <trkpt lat="45.46193" lon="6.46763">
        <ele>1795</ele>
        <time>2018-06-24T00:32:26Z</time>
      </trkpt>
      <trkpt lat="45.46191" lon="6.4676">
        <ele>1795</ele>
        <time>2018-06-24T00:33:26Z</time>
      </trkpt>
      <trkpt lat="45.46186" lon="6.46755">
        <ele>1797</ele>
        <time>2018-06-24T00:34:26Z</time>
      </trkpt>
      <trkpt lat="45.46184" lon="6.46752">
        <ele>1798</ele>
        <time>2018-06-24T00:35:26Z</time>
      </trkpt>
      <trkpt lat="45.46181" lon="6.46745">
        <ele>1790</ele>
        <time>2018-06-24T00:36:26Z</time>
      </trkpt>
      <trkpt lat="45.46177" lon="6.46732">
        <ele>1787</ele>
        <time>2018-06-24T00:37:26Z</time>
      </trkpt>
      <trkpt lat="45.46175" lon="6.46728">
        <ele>1786</ele>
        <time>2018-06-24T00:38:26Z</time>
      </trkpt>
      <trkpt lat="45.46169" lon="6.46718">
        <ele>1783</ele>
        <time>2018-06-24T00:39:26Z</time>
      </trkpt>
      <trkpt lat="45.46159" lon="6.46709">
        <ele>1814</ele>
        <time>2018-06-24T00:40:26Z</time>
      </trkpt>
      <trkpt lat="45.46141" lon="6.46689">
        <ele>1814</ele>
        <time>2018-06-24T00:41:26Z</time>
      </trkpt>
      <trkpt lat="45.46138" lon="6.46687">
        <ele>1815</ele>
        <time>2018-06-24T00:42:26Z</time>
      </trkpt>
      <trkpt lat="45.46137" lon="6.46682">
        <ele>1814</ele>
        <time>2018-06-24T00:43:26Z</time>
      </trkpt>
      <trkpt lat="45.46124" lon="6.46667">
        <ele>1819</ele>
        <time>2018-06-24T00:44:26Z</time>
      </trkpt>
      <trkpt lat="45.46112" lon="6.46652">
        <ele>1808</ele>
        <time>2018-06-24T00:45:26Z</time>
      </trkpt>
      <trkpt lat="45.46107" lon="6.46645">
        <ele>1809</ele>
        <time>2018-06-24T00:46:26Z</time>
      </trkpt>
      <trkpt lat="45.46097" lon="6.46639">
        <ele>1810</ele>
        <time>2018-06-24T00:47:26Z</time>
      </trkpt>
      <trkpt lat="45.46083" lon="6.46626">
        <ele>1832</ele>
        <time>2018-06-24T00:48:26Z</time>
      </trkpt>
      <trkpt lat="45.46081" lon="6.46625">
        <ele>1831</ele>
        <time>2018-06-24T00:49:26Z</time>
      </trkpt>
      <trkpt lat="45.46073" lon="6.46626">
        <ele>1832</ele>
        <time>2018-06-24T00:50:26Z</time>
      </trkpt>
      <trkpt lat="45.4607" lon="6.46625">
        <ele>1832</ele>
        <time>2018-06-24T00:51:26Z</time>
      </trkpt>
      <trkpt lat="45.4606" lon="6.46619">
        <ele>1833</ele>
        <time>2018-06-24T00:52:26Z</time>
      </trkpt>
      <trkpt lat="45.46042" lon="6.46614">
        <ele>1835</ele>
        <time>2018-06-24T00:53:26Z</time>
      </trkpt>
      <trkpt lat="45.46019" lon="6.46608">
        <ele>1837</ele>
        <time>2018-06-24T00:54:26Z</time>
      </trkpt>
      <trkpt lat="45.46" lon="6.46601">
        <ele>1837</ele>
        <time>2018-06-24T00:55:26Z</time>
      </trkpt>
      <trkpt lat="45.45975" lon="6.46593">
        <ele>1856</ele>
        <time>2018-06-24T00:56:26Z</time>
      </trkpt>
      <trkpt lat="45.45973" lon="6.46593">
        <ele>1857</ele>
        <time>2018-06-24T00:57:26Z</time>
      </trkpt>
      <trkpt lat="45.45963" lon="6.46593">
        <ele>1860</ele>
        <time>2018-06-24T00:58:26Z</time>
      </trkpt>
      <trkpt lat="45.45959" lon="6.46592">
        <ele>1861</ele>
        <time>2018-06-24T00:59:26Z</time>
      </trkpt>
      <trkpt lat="45.45952" lon="6.46588">
        <ele>1863</ele>
        <time>2018-06-24T01:00:26Z</time>
      </trkpt>
      <trkpt lat="45.45945" lon="6.46583">
        <ele>1845</ele>
        <time>2018-06-24T01:01:26Z</time>
      </trkpt>
      <trkpt lat="45.45931" lon="6.4657">
        <ele>1848</ele>
        <time>2018-06-24T01:02:26Z</time>
      </trkpt>
      <trkpt lat="45.45927" lon="6.46568">
        <ele>1849</ele>
        <time>2018-06-24T01:03:26Z</time>
      </trkpt>
      <trkpt lat="45.45921" lon="6.46566">
        <ele>1850</ele>
        <time>2018-06-24T01:04:26Z</time>
      </trkpt>
      <trkpt lat="45.45902" lon="6.46566">
        <ele>1868</ele>
        <time>2018-06-24T01:05:26Z</time>
      </trkpt>
      <trkpt lat="45.45902" lon="6.46563">
        <ele>1868</ele>
        <time>2018-06-24T01:06:26Z</time>
      </trkpt>
      <trkpt lat="45.45901" lon="6.46555">
        <ele>1867</ele>
        <time>2018-06-24T01:07:26Z</time>
      </trkpt>
      <trkpt lat="45.45899" lon="6.4655">
        <ele>1867</ele>
        <time>2018-06-24T01:08:26Z</time>
      </trkpt>
      <trkpt lat="45.45897" lon="6.46548">
        <ele>1867</ele>
        <time>2018-06-24T01:09:26Z</time>
      </trkpt>
      <trkpt lat="45.45892" lon="6.46545">
        <ele>1867</ele>
        <time>2018-06-24T01:10:26Z</time>
      </trkpt>
      <trkpt lat="45.45869" lon="6.46533">
        <ele>1870</ele>
        <time>2018-06-24T01:11:26Z</time>
      </trkpt>
      <trkpt lat="45.45866" lon="6.46529">
        <ele>1871</ele>
        <time>2018-06-24T01:12:26Z</time>
      </trkpt>
      <trkpt lat="45.45847" lon="6.46504">
        <ele>1874</ele>
        <time>2018-06-24T01:13:26Z</time>
      </trkpt>
      <trkpt lat="45.45842" lon="6.46501">
        <ele>1875</ele>
        <time>2018-06-24T01:14:26Z</time>
      </trkpt>
      <trkpt lat="45.4583" lon="6.4649">
        <ele>1877</ele>
        <time>2018-06-24T01:15:26Z</time>
      </trkpt>
      <trkpt lat="45.45827" lon="6.46489">
        <ele>1877</ele>
        <time>2018-06-24T01:16:26Z</time>
      </trkpt>
      <trkpt lat="45.45826" lon="6.46489">
        <ele>1877</ele>
        <time>2018-06-24T01:17:26Z</time>
      </trkpt>
      <trkpt lat="45.4582" lon="6.46483">
        <ele>1878</ele>
        <time>2018-06-24T01:18:26Z</time>
      </trkpt>
      <trkpt lat="45.4581" lon="6.46469">
        <ele>1877</ele>
        <time>2018-06-24T01:19:26Z</time>
      </trkpt>
      <trkpt lat="45.45805" lon="6.46465">
        <ele>1877</ele>
        <time>2018-06-24T01:20:26Z</time>
      </trkpt>
      <trkpt lat="45.45797" lon="6.46457">
        <ele>1877</ele>
        <time>2018-06-24T01:21:26Z</time>
      </trkpt>
      <trkpt lat="45.45789" lon="6.4645">
        <ele>1877</ele>
        <time>2018-06-24T01:22:26Z</time>
      </trkpt>
      <trkpt lat="45.45775" lon="6.46442">
        <ele>1879</ele>
        <time>2018-06-24T01:23:26Z</time>
      </trkpt>
      <trkpt lat="45.45772" lon="6.46439">
        <ele>1879</ele>
        <time>2018-06-24T01:24:26Z</time>
      </trkpt>
      <trkpt lat="45.45764" lon="6.46429">
        <ele>1878</ele>
        <time>2018-06-24T01:25:26Z</time>
      </trkpt>
      <trkpt lat="45.4576" lon="6.46426">
        <ele>1878</ele>
        <time>2018-06-24T01:26:26Z</time>
      </trkpt>
      <trkpt lat="45.4575" lon="6.46421">
        <ele>1878</ele>
        <time>2018-06-24T01:27:26Z</time>
      </trkpt>
      <trkpt lat="45.45741" lon="6.46418">
        <ele>1888</ele>
        <time>2018-06-24T01:28:26Z</time>
      </trkpt>
      <trkpt lat="45.45735" lon="6.46418">
        <ele>1893</ele>
        <time>2018-06-24T01:29:26Z</time>
      </trkpt>
      <trkpt lat="45.45707" lon="6.46419">
        <ele>1905</ele>
        <time>2018-06-24T01:30:26Z</time>
      </trkpt>
      <trkpt lat="45.45705" lon="6.46418">
        <ele>1906</ele>
        <time>2018-06-24T01:31:26Z</time>
      </trkpt>
      <trkpt lat="45.45692" lon="6.46412">
        <ele>1890</ele>
        <time>2018-06-24T01:32:26Z</time>
      </trkpt>
      <trkpt lat="45.45684" lon="6.46406">
        <ele>1892</ele>
        <time>2018-06-24T01:33:26Z</time>
      </trkpt>
      <trkpt lat="45.45682" lon="6.46402">
        <ele>1892</ele>
        <time>2018-06-24T01:34:26Z</time>
      </trkpt>
      <trkpt lat="45.45668" lon="6.46385">
        <ele>1888</ele>
        <time>2018-06-24T01:35:26Z</time>
      </trkpt>
      <trkpt lat="45.45664" lon="6.46382">
        <ele>1907</ele>
        <time>2018-06-24T01:36:26Z</time>
      </trkpt>
      <trkpt lat="45.45651" lon="6.4637">
        <ele>1905</ele>
        <time>2018-06-24T01:37:26Z</time>
      </trkpt>
      <trkpt lat="45.45643" lon="6.46364">
        <ele>1905</ele>
        <time>2018-06-24T01:38:26Z</time>
      </trkpt>
      <trkpt lat="45.45631" lon="6.46357">
        <ele>1907</ele>
        <time>2018-06-24T01:39:26Z</time>
      </trkpt>
      <trkpt lat="45.45619" lon="6.46346">
        <ele>1908</ele>
        <time>2018-06-24T01:40:26Z</time>
      </trkpt>
      <trkpt lat="45.45613" lon="6.46342">
        <ele>1909</ele>
        <time>2018-06-24T01:41:26Z</time>
      </trkpt>
      <trkpt lat="45.4561" lon="6.46339">
        <ele>1909</ele>
        <time>2018-06-24T01:42:26Z</time>
      </trkpt>
      <trkpt lat="45.4559" lon="6.46322">
        <ele>1900</ele>
        <time>2018-06-24T01:43:26Z</time>
      </trkpt>
      <trkpt lat="45.45587" lon="6.46321">
        <ele>1900</ele>
        <time>2018-06-24T01:44:26Z</time>
      </trkpt>
      <trkpt lat="45.45584" lon="6.46319">
        <ele>1899</ele>
        <time>2018-06-24T01:45:26Z</time>
      </trkpt>
      <trkpt lat="45.4558" lon="6.46318">
        <ele>1909</ele>
        <time>2018-06-24T01:46:26Z</time>
      </trkpt>
      <trkpt lat="45.45563" lon="6.46314">
        <ele>1908</ele>
        <time>2018-06-24T01:47:26Z</time>
      </trkpt>
      <trkpt lat="45.45558" lon="6.46312">
        <ele>1908</ele>
        <time>2018-06-24T01:48:26Z</time>
      </trkpt>
      <trkpt lat="45.45513" lon="6.46292">
        <ele>1910</ele>
        <time>2018-06-24T01:49:26Z</time>
      </trkpt>
      <trkpt lat="45.45503" lon="6.4629">
        <ele>1910</ele>
        <time>2018-06-24T01:50:26Z</time>
      </trkpt>
      <trkpt lat="45.45498" lon="6.4629">
        <ele>1925</ele>
        <time>2018-06-24T01:51:26Z</time>
      </trkpt>
      <trkpt lat="45.45495" lon="6.46289">
        <ele>1925</ele>
        <time>2018-06-24T01:52:26Z</time>
      </trkpt>
      <trkpt lat="45.45477" lon="6.46282">
        <ele>1925</ele>
        <time>2018-06-24T01:53:26Z</time>
      </trkpt>
      <trkpt lat="45.45475" lon="6.46279">
        <ele>1925</ele>
        <time>2018-06-24T01:54:26Z</time>
      </trkpt>
      <trkpt lat="45.45472" lon="6.46278">
        <ele>1925</ele>
        <time>2018-06-24T01:55:26Z</time>
      </trkpt>
      <trkpt lat="45.45462" lon="6.46276">
        <ele>1927</ele>
        <time>2018-06-24T01:56:26Z</time>
      </trkpt>
      <trkpt lat="45.45457" lon="6.46273">
        <ele>1927</ele>
        <time>2018-06-24T01:57:26Z</time>
      </trkpt>
      <trkpt lat="45.45428" lon="6.46244">
        <ele>1916</ele>
        <time>2018-06-24T01:58:26Z</time>
      </trkpt>
      <trkpt lat="45.45425" lon="6.46243">
        <ele>1917</ele>
        <time>2018-06-24T01:59:26Z</time>
      </trkpt>
      <trkpt lat="45.45398" lon="6.46235">
        <ele>1927</ele>
        <time>2018-06-24T02:00:26Z</time>
      </trkpt>
      <trkpt lat="45.45397" lon="6.46234">
        <ele>1927</ele>
        <time>2018-06-24T02:01:26Z</time>
      </trkpt>
      <trkpt lat="45.45385" lon="6.46225">
        <ele>1927</ele>
        <time>2018-06-24T02:02:26Z</time>
      </trkpt>
      <trkpt lat="45.45384" lon="6.46225">
        <ele>1927</ele>
        <time>2018-06-24T02:03:26Z</time>
      </trkpt>
      <trkpt lat="45.45374" lon="6.46229">
        <ele>1929</ele>
        <time>2018-06-24T02:04:26Z</time>
      </trkpt>
      <trkpt lat="45.45372" lon="6.46229">
        <ele>1930</ele>
        <time>2018-06-24T02:05:26Z</time>
      </trkpt>
      <trkpt lat="45.4537" lon="6.46227">
        <ele>1930</ele>
        <time>2018-06-24T02:06:26Z</time>
      </trkpt>
      <trkpt lat="45.45366" lon="6.46222">
        <ele>1930</ele>
        <time>2018-06-24T02:07:26Z</time>
      </trkpt>
      <trkpt lat="45.45364" lon="6.46223">
        <ele>1930</ele>
        <time>2018-06-24T02:08:26Z</time>
      </trkpt>
      <trkpt lat="45.45353" lon="6.46221">
        <ele>1932</ele>
        <time>2018-06-24T02:09:26Z</time>
      </trkpt>
      <trkpt lat="45.45351" lon="6.4622">
        <ele>1932</ele>
        <time>2018-06-24T02:10:26Z</time>
      </trkpt>
      <trkpt lat="45.45349" lon="6.46219">
        <ele>1932</ele>
        <time>2018-06-24T02:11:26Z</time>
      </trkpt>
      <trkpt lat="45.45344" lon="6.46214">
        <ele>1932</ele>
        <time>2018-06-24T02:12:26Z</time>
      </trkpt>
      <trkpt lat="45.45341" lon="6.46213">
        <ele>1932</ele>
        <time>2018-06-24T02:13:26Z</time>
      </trkpt>
      <trkpt lat="45.45339" lon="6.46213">
        <ele>1932</ele>
        <time>2018-06-24T02:14:26Z</time>
      </trkpt>
      <trkpt lat="45.45338" lon="6.46209">
        <ele>1931</ele>
        <time>2018-06-24T02:15:26Z</time>
      </trkpt>
      <trkpt lat="45.45337" lon="6.46205">
        <ele>1930</ele>
        <time>2018-06-24T02:16:26Z</time>
      </trkpt>
      <trkpt lat="45.45334" lon="6.46203">
        <ele>1930</ele>
        <time>2018-06-24T02:17:26Z</time>
      </trkpt>
      <trkpt lat="45.45321" lon="6.46194">
        <ele>1947</ele>
        <time>2018-06-24T02:18:26Z</time>
      </trkpt>
      <trkpt lat="45.45319" lon="6.46193">
        <ele>1948</ele>
        <time>2018-06-24T02:19:26Z</time>
      </trkpt>
      <trkpt lat="45.45314" lon="6.46193">
        <ele>1949</ele>
        <time>2018-06-24T02:20:26Z</time>
      </trkpt>
      <trkpt lat="45.453" lon="6.46189">
        <ele>1952</ele>
        <time>2018-06-24T02:21:26Z</time>
      </trkpt>
      <trkpt lat="45.4529" lon="6.46184">
        <ele>1954</ele>
        <time>2018-06-24T02:22:26Z</time>
      </trkpt>
      <trkpt lat="45.45287" lon="6.46183">
        <ele>1955</ele>
        <time>2018-06-24T02:23:26Z</time>
      </trkpt>
      <trkpt lat="45.45285" lon="6.46183">
        <ele>1955</ele>
        <time>2018-06-24T02:24:26Z</time>
      </trkpt>
      <trkpt lat="45.45279" lon="6.46183">
        <ele>1956</ele>
        <time>2018-06-24T02:25:26Z</time>
      </trkpt>
      <trkpt lat="45.45271" lon="6.4618">
        <ele>1958</ele>
        <time>2018-06-24T02:26:26Z</time>
      </trkpt>
      <trkpt lat="45.45259" lon="6.46173">
        <ele>1960</ele>
        <time>2018-06-24T02:27:26Z</time>
      </trkpt>
      <trkpt lat="45.45257" lon="6.4617">
        <ele>1960</ele>
        <time>2018-06-24T02:28:26Z</time>
      </trkpt>
      <trkpt lat="45.45245" lon="6.46142">
        <ele>1968</ele>
        <time>2018-06-24T02:29:26Z</time>
      </trkpt>
      <trkpt lat="45.4524" lon="6.46135">
        <ele>1968</ele>
        <time>2018-06-24T02:30:26Z</time>
      </trkpt>
      <trkpt lat="45.45232" lon="6.46118">
        <ele>1967</ele>
        <time>2018-06-24T02:31:26Z</time>
      </trkpt>
      <trkpt lat="45.45224" lon="6.46105">
        <ele>1966</ele>
        <time>2018-06-24T02:32:26Z</time>
      </trkpt>
      <trkpt lat="45.4522" lon="6.46101">
        <ele>1967</ele>
        <time>2018-06-24T02:33:26Z</time>
      </trkpt>
      <trkpt lat="45.45217" lon="6.46099">
        <ele>1968</ele>
        <time>2018-06-24T02:34:26Z</time>
      </trkpt>
      <trkpt lat="45.45212" lon="6.46096">
        <ele>1970</ele>
        <time>2018-06-24T02:35:26Z</time>
      </trkpt>
      <trkpt lat="45.45209" lon="6.46091">
        <ele>1971</ele>
        <time>2018-06-24T02:36:26Z</time>
      </trkpt>
      <trkpt lat="45.45196" lon="6.46062">
        <ele>1961</ele>
        <time>2018-06-24T02:37:26Z</time>
      </trkpt>
      <trkpt lat="45.45195" lon="6.46061">
        <ele>1961</ele>
        <time>2018-06-24T02:38:26Z</time>
      </trkpt>
      <trkpt lat="45.45191" lon="6.46057">
        <ele>1962</ele>
        <time>2018-06-24T02:39:26Z</time>
      </trkpt>
      <trkpt lat="45.4519" lon="6.46054">
        <ele>1961</ele>
        <time>2018-06-24T02:40:26Z</time>
      </trkpt>
      <trkpt lat="45.45188" lon="6.46044">
        <ele>1960</ele>
        <time>2018-06-24T02:41:26Z</time>
      </trkpt>
      <trkpt lat="45.45183" lon="6.46037">
        <ele>1960</ele>
        <time>2018-06-24T02:42:26Z</time>
      </trkpt>
      <trkpt lat="45.45179" lon="6.46032">
        <ele>1960</ele>
        <time>2018-06-24T02:43:26Z</time>
      </trkpt>
      <trkpt lat="45.45174" lon="6.4602">
        <ele>1962</ele>
        <time>2018-06-24T02:44:26Z</time>
      </trkpt>
      <trkpt lat="45.45155" lon="6.45971">
        <ele>1981</ele>
        <time>2018-06-24T02:45:26Z</time>
      </trkpt>
      <trkpt lat="45.45148" lon="6.45961">
        <ele>1982</ele>
        <time>2018-06-24T02:46:26Z</time>
      </trkpt>
      <trkpt lat="45.45142" lon="6.4595">
        <ele>1982</ele>
        <time>2018-06-24T02:47:26Z</time>
      </trkpt>
      <trkpt lat="45.45141" lon="6.45949">
        <ele>1982</ele>
        <time>2018-06-24T02:48:26Z</time>
      </trkpt>
      <trkpt lat="45.45138" lon="6.45947">
        <ele>1982</ele>
        <time>2018-06-24T02:49:26Z</time>
      </trkpt>
      <trkpt lat="45.45135" lon="6.45943">
        <ele>1983</ele>
        <time>2018-06-24T02:50:26Z</time>
      </trkpt>
      <trkpt lat="45.45134" lon="6.45938">
        <ele>1982</ele>
        <time>2018-06-24T02:51:26Z</time>
      </trkpt>
      <trkpt lat="45.4513" lon="6.45928">
        <ele>1983</ele>
        <time>2018-06-24T02:52:26Z</time>
      </trkpt>
      <trkpt lat="45.45124" lon="6.45924">
        <ele>1985</ele>
        <time>2018-06-24T02:53:26Z</time>
      </trkpt>
      <trkpt lat="45.45123" lon="6.45922">
        <ele>1986</ele>
        <time>2018-06-24T02:54:26Z</time>
      </trkpt>
      <trkpt lat="45.45118" lon="6.45917">
        <ele>1988</ele>
        <time>2018-06-24T02:55:26Z</time>
      </trkpt>
      <trkpt lat="45.45112" lon="6.45913">
        <ele>1979</ele>
        <time>2018-06-24T02:56:26Z</time>
      </trkpt>
      <trkpt lat="45.45103" lon="6.45907">
        <ele>1983</ele>
        <time>2018-06-24T02:57:26Z</time>
      </trkpt>
      <trkpt lat="45.45098" lon="6.459">
        <ele>1983</ele>
        <time>2018-06-24T02:58:26Z</time>
      </trkpt>
      <trkpt lat="45.45096" lon="6.45899">
        <ele>1984</ele>
        <time>2018-06-24T02:59:26Z</time>
      </trkpt>
      <trkpt lat="45.45095" lon="6.45895">
        <ele>1982</ele>
        <time>2018-06-24T03:00:26Z</time>
      </trkpt>
      <trkpt lat="45.45081" lon="6.45871">
        <ele>2010</ele>
        <time>2018-06-24T03:01:26Z</time>
      </trkpt>
      <trkpt lat="45.45078" lon="6.45867">
        <ele>2010</ele>
        <time>2018-06-24T03:02:26Z</time>
      </trkpt>
      <trkpt lat="45.45075" lon="6.45865">
        <ele>2010</ele>
        <time>2018-06-24T03:03:26Z</time>
      </trkpt>
      <trkpt lat="45.45074" lon="6.45863">
        <ele>2009</ele>
        <time>2018-06-24T03:04:26Z</time>
      </trkpt>
      <trkpt lat="45.45068" lon="6.45853">
        <ele>2007</ele>
        <time>2018-06-24T03:05:26Z</time>
      </trkpt>
      <trkpt lat="45.45065" lon="6.45844">
        <ele>2006</ele>
        <time>2018-06-24T03:06:26Z</time>
      </trkpt>
      <trkpt lat="45.45064" lon="6.45842">
        <ele>2006</ele>
        <time>2018-06-24T03:07:26Z</time>
      </trkpt>
      <trkpt lat="45.45062" lon="6.45842">
        <ele>2007</ele>
        <time>2018-06-24T03:08:26Z</time>
      </trkpt>
      <trkpt lat="45.45041" lon="6.45809">
        <ele>1998</ele>
        <time>2018-06-24T03:09:26Z</time>
      </trkpt>
      <trkpt lat="45.45031" lon="6.45788">
        <ele>1997</ele>
        <time>2018-06-24T03:10:26Z</time>
      </trkpt>
      <trkpt lat="45.45026" lon="6.45778">
        <ele>1997</ele>
        <time>2018-06-24T03:11:26Z</time>
      </trkpt>
      <trkpt lat="45.45023" lon="6.45777">
        <ele>1997</ele>
        <time>2018-06-24T03:12:26Z</time>
      </trkpt>
      <trkpt lat="45.44996" lon="6.45762">
        <ele>2011</ele>
        <time>2018-06-24T03:13:26Z</time>
      </trkpt>
      <trkpt lat="45.4499" lon="6.4576">
        <ele>2012</ele>
        <time>2018-06-24T03:14:26Z</time>
      </trkpt>
      <trkpt lat="45.44983" lon="6.4576">
        <ele>2015</ele>
        <time>2018-06-24T03:15:26Z</time>
      </trkpt>
      <trkpt lat="45.44973" lon="6.45757">
        <ele>2018</ele>
        <time>2018-06-24T03:16:26Z</time>
      </trkpt>
      <trkpt lat="45.44965" lon="6.4575">
        <ele>1995</ele>
        <time>2018-06-24T03:17:26Z</time>
      </trkpt>
      <trkpt lat="45.4496" lon="6.45747">
        <ele>1996</ele>
        <time>2018-06-24T03:18:26Z</time>
      </trkpt>
      <trkpt lat="45.44954" lon="6.45742">
        <ele>1996</ele>
        <time>2018-06-24T03:19:26Z</time>
      </trkpt>
      <trkpt lat="45.44949" lon="6.45737">
        <ele>1996</ele>
        <time>2018-06-24T03:20:26Z</time>
      </trkpt>
      <trkpt lat="45.44942" lon="6.45732">
        <ele>1997</ele>
        <time>2018-06-24T03:21:26Z</time>
      </trkpt>
      <trkpt lat="45.44933" lon="6.45726">
        <ele>1997</ele>
        <time>2018-06-24T03:22:26Z</time>
      </trkpt>
      <trkpt lat="45.44922" lon="6.45722">
        <ele>1998</ele>
        <time>2018-06-24T03:23:26Z</time>
      </trkpt>
      <trkpt lat="45.44916" lon="6.4572">
        <ele>2005</ele>
        <time>2018-06-24T03:24:26Z</time>
      </trkpt>
      <trkpt lat="45.44899" lon="6.45717">
        <ele>2004</ele>
        <time>2018-06-24T03:25:26Z</time>
      </trkpt>
      <trkpt lat="45.44892" lon="6.45717">
        <ele>2003</ele>
        <time>2018-06-24T03:26:26Z</time>
      </trkpt>
      <trkpt lat="45.44891" lon="6.45717">
        <ele>2003</ele>
        <time>2018-06-24T03:27:26Z</time>
      </trkpt>
      <trkpt lat="45.44888" lon="6.45716">
        <ele>2003</ele>
        <time>2018-06-24T03:28:26Z</time>
      </trkpt>
      <trkpt lat="45.44878" lon="6.4571">
        <ele>2002</ele>
        <time>2018-06-24T03:29:26Z</time>
      </trkpt>
      <trkpt lat="45.44875" lon="6.45709">
        <ele>2002</ele>
        <time>2018-06-24T03:30:26Z</time>
      </trkpt>
      <trkpt lat="45.4487" lon="6.45709">
        <ele>2002</ele>
        <time>2018-06-24T03:31:26Z</time>
      </trkpt>
      <trkpt lat="45.44865" lon="6.45708">
        <ele>2002</ele>
        <time>2018-06-24T03:32:26Z</time>
      </trkpt>
      <trkpt lat="45.44861" lon="6.45707">
        <ele>2001</ele>
        <time>2018-06-24T03:33:26Z</time>
      </trkpt>
      <trkpt lat="45.44857" lon="6.45708">
        <ele>2002</ele>
        <time>2018-06-24T03:34:26Z</time>
      </trkpt>
      <trkpt lat="45.44846" lon="6.45709">
        <ele>2002</ele>
        <time>2018-06-24T03:35:26Z</time>
      </trkpt>
      <trkpt lat="45.44844" lon="6.4571">
        <ele>2002</ele>
        <time>2018-06-24T03:36:26Z</time>
      </trkpt>
      <trkpt lat="45.44841" lon="6.45712">
        <ele>2003</ele>
        <time>2018-06-24T03:37:26Z</time>
      </trkpt>
      <trkpt lat="45.44838" lon="6.45712">
        <ele>2003</ele>
        <time>2018-06-24T03:38:26Z</time>
      </trkpt>
      <trkpt lat="45.44836" lon="6.45712">
        <ele>2003</ele>
        <time>2018-06-24T03:39:26Z</time>
      </trkpt>
      <trkpt lat="45.44832" lon="6.45709">
        <ele>1999</ele>
        <time>2018-06-24T03:40:26Z</time>
      </trkpt>
      <trkpt lat="45.44822" lon="6.45697">
        <ele>1996</ele>
        <time>2018-06-24T03:41:26Z</time>
      </trkpt>
      <trkpt lat="45.44822" lon="6.45695">
        <ele>1996</ele>
        <time>2018-06-24T03:42:26Z</time>
      </trkpt>
      <trkpt lat="45.44821" lon="6.45688">
        <ele>1995</ele>
        <time>2018-06-24T03:43:26Z</time>
      </trkpt>
      <trkpt lat="45.44819" lon="6.45686">
        <ele>1994</ele>
        <time>2018-06-24T03:44:26Z</time>
      </trkpt>
      <trkpt lat="45.44814" lon="6.45676">
        <ele>1993</ele>
        <time>2018-06-24T03:45:26Z</time>
      </trkpt>
      <trkpt lat="45.44812" lon="6.45676">
        <ele>1993</ele>
        <time>2018-06-24T03:46:26Z</time>
      </trkpt>
      <trkpt lat="45.44779" lon="6.45675">
        <ele>1993</ele>
        <time>2018-06-24T03:47:26Z</time>
      </trkpt>
      <trkpt lat="45.4476" lon="6.45673">
        <ele>1990</ele>
        <time>2018-06-24T03:48:26Z</time>
      </trkpt>
      <trkpt lat="45.44752" lon="6.45671">
        <ele>1988</ele>
        <time>2018-06-24T03:49:26Z</time>
      </trkpt>
      <trkpt lat="45.44746" lon="6.45668">
        <ele>1986</ele>
        <time>2018-06-24T03:50:26Z</time>
      </trkpt>
      <trkpt lat="45.44716" lon="6.45653">
        <ele>1978</ele>
        <time>2018-06-24T03:51:26Z</time>
      </trkpt>
      <trkpt lat="45.44695" lon="6.45638">
        <ele>1976</ele>
        <time>2018-06-24T03:52:26Z</time>
      </trkpt>
      <trkpt lat="45.44691" lon="6.45634">
        <ele>1976</ele>
        <time>2018-06-24T03:53:26Z</time>
      </trkpt>
      <trkpt lat="45.44685" lon="6.45621">
        <ele>1976</ele>
        <time>2018-06-24T03:54:26Z</time>
      </trkpt>
      <trkpt lat="45.44682" lon="6.45625">
        <ele>1976</ele>
        <time>2018-06-24T03:55:26Z</time>
      </trkpt>
      <trkpt lat="45.44674" lon="6.45629">
        <ele>1976</ele>
        <time>2018-06-24T03:56:26Z</time>
      </trkpt>
      <trkpt lat="45.44663" lon="6.45632">
        <ele>1978</ele>
        <time>2018-06-24T03:57:26Z</time>
      </trkpt>
      <trkpt lat="45.4466" lon="6.45632">
        <ele>1978</ele>
        <time>2018-06-24T03:58:26Z</time>
      </trkpt>
      <trkpt lat="45.44652" lon="6.45629">
        <ele>1978</ele>
        <time>2018-06-24T03:59:26Z</time>
      </trkpt>
      <trkpt lat="45.44648" lon="6.45625">
        <ele>1978</ele>
        <time>2018-06-24T04:00:26Z</time>
      </trkpt>
      <trkpt lat="45.44645" lon="6.45616">
        <ele>1978</ele>
        <time>2018-06-24T04:01:26Z</time>
      </trkpt>
      <trkpt lat="45.44644" lon="6.4561">
        <ele>1978</ele>
        <time>2018-06-24T04:02:26Z</time>
      </trkpt>
      <trkpt lat="45.44639" lon="6.45587">
        <ele>1979</ele>
        <time>2018-06-24T04:03:26Z</time>
      </trkpt>
      <trkpt lat="45.44634" lon="6.45573">
        <ele>1975</ele>
        <time>2018-06-24T04:04:26Z</time>
      </trkpt>
      <trkpt lat="45.44631" lon="6.45569">
        <ele>1975</ele>
        <time>2018-06-24T04:05:26Z</time>
      </trkpt>
      <trkpt lat="45.44628" lon="6.45569">
        <ele>1976</ele>
        <time>2018-06-24T04:06:26Z</time>
      </trkpt>
      <trkpt lat="45.44622" lon="6.45569">
        <ele>1976</ele>
        <time>2018-06-24T04:07:26Z</time>
      </trkpt>
      <trkpt lat="45.44612" lon="6.45574">
        <ele>1978</ele>
        <time>2018-06-24T04:08:26Z</time>
      </trkpt>
      <trkpt lat="45.44592" lon="6.45579">
        <ele>1984</ele>
        <time>2018-06-24T04:09:26Z</time>
      </trkpt>
      <trkpt lat="45.44588" lon="6.45579">
        <ele>1986</ele>
        <time>2018-06-24T04:10:26Z</time>
      </trkpt>
      <trkpt lat="45.44582" lon="6.45577">
        <ele>1989</ele>
        <time>2018-06-24T04:11:26Z</time>
      </trkpt>
      <trkpt lat="45.44564" lon="6.45566">
        <ele>1989</ele>
        <time>2018-06-24T04:12:26Z</time>
      </trkpt>
      <trkpt lat="45.4455" lon="6.45556">
        <ele>1990</ele>
        <time>2018-06-24T04:13:26Z</time>
      </trkpt>
      <trkpt lat="45.44541" lon="6.45548">
        <ele>1990</ele>
        <time>2018-06-24T04:14:26Z</time>
      </trkpt>
      <trkpt lat="45.44532" lon="6.45537">
        <ele>1991</ele>
        <time>2018-06-24T04:15:26Z</time>
      </trkpt>
      <trkpt lat="45.4452" lon="6.45525">
        <ele>1993</ele>
        <time>2018-06-24T04:16:26Z</time>
      </trkpt>
      <trkpt lat="45.44512" lon="6.45522">
        <ele>1994</ele>
        <time>2018-06-24T04:17:26Z</time>
      </trkpt>
      <trkpt lat="45.4448" lon="6.4551">
        <ele>2000</ele>
        <time>2018-06-24T04:18:26Z</time>
      </trkpt>
      <trkpt lat="45.44465" lon="6.45501">
        <ele>2001</ele>
        <time>2018-06-24T04:19:26Z</time>
      </trkpt>
      <trkpt lat="45.44452" lon="6.4549">
        <ele>2006</ele>
        <time>2018-06-24T04:20:26Z</time>
      </trkpt>
      <trkpt lat="45.44435" lon="6.45475">
        <ele>2007</ele>
        <time>2018-06-24T04:21:26Z</time>
      </trkpt>
      <trkpt lat="45.44426" lon="6.45469">
        <ele>2008</ele>
        <time>2018-06-24T04:22:26Z</time>
      </trkpt>
      <trkpt lat="45.44422" lon="6.45467">
        <ele>2008</ele>
        <time>2018-06-24T04:23:26Z</time>
      </trkpt>
      <trkpt lat="45.44399" lon="6.45462">
        <ele>2016</ele>
        <time>2018-06-24T04:24:26Z</time>
      </trkpt>
      <trkpt lat="45.44394" lon="6.4546">
        <ele>2016</ele>
        <time>2018-06-24T04:25:26Z</time>
      </trkpt>
      <trkpt lat="45.44379" lon="6.4545">
        <ele>2018</ele>
        <time>2018-06-24T04:26:26Z</time>
      </trkpt>
      <trkpt lat="45.44372" lon="6.45446">
        <ele>2018</ele>
        <time>2018-06-24T04:27:26Z</time>
      </trkpt>
      <trkpt lat="45.44369" lon="6.45446">
        <ele>2018</ele>
        <time>2018-06-24T04:28:26Z</time>
      </trkpt>
      <trkpt lat="45.44352" lon="6.45446">
        <ele>2020</ele>
        <time>2018-06-24T04:29:26Z</time>
      </trkpt>
      <trkpt lat="45.44345" lon="6.45447">
        <ele>2020</ele>
        <time>2018-06-24T04:30:26Z</time>
      </trkpt>
      <trkpt lat="45.44336" lon="6.45446">
        <ele>2020</ele>
        <time>2018-06-24T04:31:26Z</time>
      </trkpt>
      <trkpt lat="45.44333" lon="6.45445">
        <ele>2025</ele>
        <time>2018-06-24T04:32:26Z</time>
      </trkpt>
      <trkpt lat="45.443" lon="6.45428">
        <ele>2028</ele>
        <time>2018-06-24T04:33:26Z</time>
      </trkpt>
      <trkpt lat="45.44293" lon="6.45426">
        <ele>2028</ele>
        <time>2018-06-24T04:34:26Z</time>
      </trkpt>
      <trkpt lat="45.44289" lon="6.45426">
        <ele>2029</ele>
        <time>2018-06-24T04:35:26Z</time>
      </trkpt>
      <trkpt lat="45.44279" lon="6.45425">
        <ele>2031</ele>
        <time>2018-06-24T04:36:26Z</time>
      </trkpt>
      <trkpt lat="45.44275" lon="6.45426">
        <ele>2031</ele>
        <time>2018-06-24T04:37:26Z</time>
      </trkpt>
      <trkpt lat="45.4427" lon="6.45426">
        <ele>2032</ele>
        <time>2018-06-24T04:38:26Z</time>
      </trkpt>
      <trkpt lat="45.44266" lon="6.45427">
        <ele>2033</ele>
        <time>2018-06-24T04:39:26Z</time>
      </trkpt>
      <trkpt lat="45.44245" lon="6.45435">
        <ele>2038</ele>
        <time>2018-06-24T04:40:26Z</time>
      </trkpt>
      <trkpt lat="45.44239" lon="6.45435">
        <ele>2037</ele>
        <time>2018-06-24T04:41:26Z</time>
      </trkpt>
      <trkpt lat="45.44234" lon="6.45435">
        <ele>2037</ele>
        <time>2018-06-24T04:42:26Z</time>
      </trkpt>
      <trkpt lat="45.44228" lon="6.45434">
        <ele>2037</ele>
        <time>2018-06-24T04:43:26Z</time>
      </trkpt>
      <trkpt lat="45.44187" lon="6.45425">
        <ele>2042</ele>
        <time>2018-06-24T04:44:26Z</time>
      </trkpt>
      <trkpt lat="45.44171" lon="6.45419">
        <ele>2050</ele>
        <time>2018-06-24T04:45:26Z</time>
      </trkpt>
      <trkpt lat="45.4413" lon="6.45405">
        <ele>2062</ele>
        <time>2018-06-24T04:46:26Z</time>
      </trkpt>
      <trkpt lat="45.44121" lon="6.45404">
        <ele>2062</ele>
        <time>2018-06-24T04:47:26Z</time>
      </trkpt>
      <trkpt lat="45.44105" lon="6.45404">
        <ele>2061</ele>
        <time>2018-06-24T04:48:26Z</time>
      </trkpt>
      <trkpt lat="45.44099" lon="6.45403">
        <ele>2061</ele>
        <time>2018-06-24T04:49:26Z</time>
      </trkpt>
      <trkpt lat="45.44078" lon="6.45398">
        <ele>2062</ele>
        <time>2018-06-24T04:50:26Z</time>
      </trkpt>
      <trkpt lat="45.44069" lon="6.45395">
        <ele>2064</ele>
        <time>2018-06-24T04:51:26Z</time>
      </trkpt>
      <trkpt lat="45.44028" lon="6.4538">
        <ele>2067</ele>
        <time>2018-06-24T04:52:26Z</time>
      </trkpt>
      <trkpt lat="45.44007" lon="6.4537">
        <ele>2070</ele>
        <time>2018-06-24T04:53:26Z</time>
      </trkpt>
      <trkpt lat="45.43978" lon="6.45354">
        <ele>2068</ele>
        <time>2018-06-24T04:54:26Z</time>
      </trkpt>
      <trkpt lat="45.4397" lon="6.45348">
        <ele>2068</ele>
        <time>2018-06-24T04:55:26Z</time>
      </trkpt>
      <trkpt lat="45.43959" lon="6.45337">
        <ele>2067</ele>
        <time>2018-06-24T04:56:26Z</time>
      </trkpt>
      <trkpt lat="45.4394" lon="6.45307">
        <ele>2085</ele>
        <time>2018-06-24T04:57:26Z</time>
      </trkpt>
      <trkpt lat="45.43937" lon="6.45306">
        <ele>2085</ele>
        <time>2018-06-24T04:58:26Z</time>
      </trkpt>
      <trkpt lat="45.43935" lon="6.45305">
        <ele>2085</ele>
        <time>2018-06-24T04:59:26Z</time>
      </trkpt>
      <trkpt lat="45.4393" lon="6.45305">
        <ele>2085</ele>
        <time>2018-06-24T05:00:26Z</time>
      </trkpt>
      <trkpt lat="45.43927" lon="6.45306">
        <ele>2084</ele>
        <time>2018-06-24T05:01:26Z</time>
      </trkpt>
      <trkpt lat="45.43922" lon="6.45309">
        <ele>2083</ele>
        <time>2018-06-24T05:02:26Z</time>
      </trkpt>
      <trkpt lat="45.4392" lon="6.45309">
        <ele>2083</ele>
        <time>2018-06-24T05:03:26Z</time>
      </trkpt>
      <trkpt lat="45.43917" lon="6.45309">
        <ele>2082</ele>
        <time>2018-06-24T05:04:26Z</time>
      </trkpt>
      <trkpt lat="45.43915" lon="6.4531">
        <ele>2076</ele>
        <time>2018-06-24T05:05:26Z</time>
      </trkpt>
      <trkpt lat="45.4391" lon="6.45307">
        <ele>2077</ele>
        <time>2018-06-24T05:06:26Z</time>
      </trkpt>
      <trkpt lat="45.439" lon="6.45297">
        <ele>2078</ele>
        <time>2018-06-24T05:07:26Z</time>
      </trkpt>
      <trkpt lat="45.43893" lon="6.45294">
        <ele>2078</ele>
        <time>2018-06-24T05:08:26Z</time>
      </trkpt>
      <trkpt lat="45.43873" lon="6.45283">
        <ele>2079</ele>
        <time>2018-06-24T05:09:26Z</time>
      </trkpt>
      <trkpt lat="45.43867" lon="6.45284">
        <ele>2078</ele>
        <time>2018-06-24T05:10:26Z</time>
      </trkpt>
      <trkpt lat="45.43846" lon="6.45285">
        <ele>2077</ele>
        <time>2018-06-24T05:11:26Z</time>
      </trkpt>
      <trkpt lat="45.43839" lon="6.4528">
        <ele>2078</ele>
        <time>2018-06-24T05:12:26Z</time>
      </trkpt>
      <trkpt lat="45.4383" lon="6.45271">
        <ele>2076</ele>
        <time>2018-06-24T05:13:26Z</time>
      </trkpt>
      <trkpt lat="45.43826" lon="6.45274">
        <ele>2075</ele>
        <time>2018-06-24T05:14:26Z</time>
      </trkpt>
      <trkpt lat="45.43813" lon="6.45296">
        <ele>2071</ele>
        <time>2018-06-24T05:15:26Z</time>
      </trkpt>
      <trkpt lat="45.4381" lon="6.45299">
        <ele>2071</ele>
        <time>2018-06-24T05:16:26Z</time>
      </trkpt>
      <trkpt lat="45.43806" lon="6.45304">
        <ele>2071</ele>
        <time>2018-06-24T05:17:26Z</time>
      </trkpt>
      <trkpt lat="45.43805" lon="6.45308">
        <ele>2070</ele>
        <time>2018-06-24T05:18:26Z</time>
      </trkpt>
      <trkpt lat="45.43795" lon="6.4533">
        <ele>2069</ele>
        <time>2018-06-24T05:19:26Z</time>
      </trkpt>
      <trkpt lat="45.43792" lon="6.45339">
        <ele>2059</ele>
        <time>2018-06-24T05:20:26Z</time>
      </trkpt>
      <trkpt lat="45.43791" lon="6.45348">
        <ele>2058</ele>
        <time>2018-06-24T05:21:26Z</time>
      </trkpt>
      <trkpt lat="45.43789" lon="6.45354">
        <ele>2058</ele>
        <time>2018-06-24T05:22:26Z</time>
      </trkpt>
      <trkpt lat="45.43787" lon="6.45357">
        <ele>2058</ele>
        <time>2018-06-24T05:23:26Z</time>
      </trkpt>
      <trkpt lat="45.43784" lon="6.45358">
        <ele>2058</ele>
        <time>2018-06-24T05:24:26Z</time>
      </trkpt>
      <trkpt lat="45.43781" lon="6.45361">
        <ele>2058</ele>
        <time>2018-06-24T05:25:26Z</time>
      </trkpt>
      <trkpt lat="45.43782" lon="6.45365">
        <ele>2057</ele>
        <time>2018-06-24T05:26:26Z</time>
      </trkpt>
      <trkpt lat="45.4378" lon="6.45371">
        <ele>2057</ele>
        <time>2018-06-24T05:27:26Z</time>
      </trkpt>
      <trkpt lat="45.43776" lon="6.45373">
        <ele>2057</ele>
        <time>2018-06-24T05:28:26Z</time>
      </trkpt>
      <trkpt lat="45.43776" lon="6.45377">
        <ele>2056</ele>
        <time>2018-06-24T05:29:26Z</time>
      </trkpt>
      <trkpt lat="45.43773" lon="6.45379">
        <ele>2056</ele>
        <time>2018-06-24T05:30:26Z</time>
      </trkpt>
      <trkpt lat="45.4377" lon="6.45382">
        <ele>2056</ele>
        <time>2018-06-24T05:31:26Z</time>
      </trkpt>
      <trkpt lat="45.43767" lon="6.45388">
        <ele>2055</ele>
        <time>2018-06-24T05:32:26Z</time>
      </trkpt>
      <trkpt lat="45.43761" lon="6.45398">
        <ele>2054</ele>
        <time>2018-06-24T05:33:26Z</time>
      </trkpt>
      <trkpt lat="45.4376" lon="6.45402">
        <ele>2054</ele>
        <time>2018-06-24T05:34:26Z</time>
      </trkpt>
      <trkpt lat="45.4376" lon="6.45405">
        <ele>2053</ele>
        <time>2018-06-24T05:35:26Z</time>
      </trkpt>
      <trkpt lat="45.43762" lon="6.45416">
        <ele>2053</ele>
        <time>2018-06-24T05:36:26Z</time>
      </trkpt>
      <trkpt lat="45.4376" lon="6.45431">
        <ele>2044</ele>
        <time>2018-06-24T05:37:26Z</time>
      </trkpt>
      <trkpt lat="45.43761" lon="6.45432">
        <ele>2044</ele>
        <time>2018-06-24T05:38:26Z</time>
      </trkpt>
      <trkpt lat="45.43775" lon="6.45439">
        <ele>2041</ele>
        <time>2018-06-24T05:39:26Z</time>
      </trkpt>
      <trkpt lat="45.43779" lon="6.45439">
        <ele>2040</ele>
        <time>2018-06-24T05:40:26Z</time>
      </trkpt>
      <trkpt lat="45.4378" lon="6.4544">
        <ele>2040</ele>
        <time>2018-06-24T05:41:26Z</time>
      </trkpt>
      <trkpt lat="45.43792" lon="6.45448">
        <ele>2038</ele>
        <time>2018-06-24T05:42:26Z</time>
      </trkpt>
      <trkpt lat="45.43791" lon="6.45451">
        <ele>2038</ele>
        <time>2018-06-24T05:43:26Z</time>
      </trkpt>
      <trkpt lat="45.43788" lon="6.45462">
        <ele>2037</ele>
        <time>2018-06-24T05:44:26Z</time>
      </trkpt>
      <trkpt lat="45.43785" lon="6.45468">
        <ele>2036</ele>
        <time>2018-06-24T05:45:26Z</time>
      </trkpt>
      <trkpt lat="45.43778" lon="6.45485">
        <ele>2034</ele>
        <time>2018-06-24T05:46:26Z</time>
      </trkpt>
      <trkpt lat="45.43775" lon="6.45489">
        <ele>2034</ele>
        <time>2018-06-24T05:47:26Z</time>
      </trkpt>
      <trkpt lat="45.43772" lon="6.45493">
        <ele>2034</ele>
        <time>2018-06-24T05:48:26Z</time>
      </trkpt>
      <trkpt lat="45.43772" lon="6.45502">
        <ele>2023</ele>
        <time>2018-06-24T05:49:26Z</time>
      </trkpt>
      <trkpt lat="45.43772" lon="6.45507">
        <ele>2022</ele>
        <time>2018-06-24T05:50:26Z</time>
      </trkpt>
      <trkpt lat="45.43774" lon="6.4551">
        <ele>2022</ele>
        <time>2018-06-24T05:51:26Z</time>
      </trkpt>
      <trkpt lat="45.43777" lon="6.45516">
        <ele>2020</ele>
        <time>2018-06-24T05:52:26Z</time>
      </trkpt>
      <trkpt lat="45.43776" lon="6.45517">
        <ele>2020</ele>
        <time>2018-06-24T05:53:26Z</time>
      </trkpt>
      <trkpt lat="45.43775" lon="6.45521">
        <ele>2020</ele>
        <time>2018-06-24T05:54:26Z</time>
      </trkpt>
      <trkpt lat="45.43779" lon="6.45524">
        <ele>2019</ele>
        <time>2018-06-24T05:55:26Z</time>
      </trkpt>
      <trkpt lat="45.43782" lon="6.45527">
        <ele>2019</ele>
        <time>2018-06-24T05:56:26Z</time>
      </trkpt>
      <trkpt lat="45.43786" lon="6.45528">
        <ele>2018</ele>
        <time>2018-06-24T05:57:26Z</time>
      </trkpt>
      <trkpt lat="45.43789" lon="6.45529">
        <ele>2018</ele>
        <time>2018-06-24T05:58:26Z</time>
      </trkpt>
      <trkpt lat="45.43791" lon="6.45533">
        <ele>2017</ele>
        <time>2018-06-24T05:59:26Z</time>
      </trkpt>
      <trkpt lat="45.43796" lon="6.45534">
        <ele>2017</ele>
        <time>2018-06-24T06:00:26Z</time>
      </trkpt>
      <trkpt lat="45.43797" lon="6.45539">
        <ele>2016</ele>
        <time>2018-06-24T06:01:26Z</time>
      </trkpt>
      <trkpt lat="45.43794" lon="6.4555">
        <ele>2015</ele>
        <time>2018-06-24T06:02:26Z</time>
      </trkpt>
      <trkpt lat="45.43798" lon="6.4555">
        <ele>2015</ele>
        <time>2018-06-24T06:03:26Z</time>
      </trkpt>
      <trkpt lat="45.43801" lon="6.45552">
        <ele>2014</ele>
        <time>2018-06-24T06:04:26Z</time>
      </trkpt>
      <trkpt lat="45.43806" lon="6.45558">
        <ele>2013</ele>
        <time>2018-06-24T06:05:26Z</time>
      </trkpt>
      <trkpt lat="45.43804" lon="6.4556">
        <ele>2013</ele>
        <time>2018-06-24T06:06:26Z</time>
      </trkpt>
      <trkpt lat="45.43801" lon="6.45569">
        <ele>2012</ele>
        <time>2018-06-24T06:07:26Z</time>
      </trkpt>
      <trkpt lat="45.43796" lon="6.45578">
        <ele>2012</ele>
        <time>2018-06-24T06:08:26Z</time>
      </trkpt>
      <trkpt lat="45.43793" lon="6.45584">
        <ele>1998</ele>
        <time>2018-06-24T06:09:26Z</time>
      </trkpt>
      <trkpt lat="45.43792" lon="6.45588">
        <ele>1998</ele>
        <time>2018-06-24T06:10:26Z</time>
      </trkpt>
      <trkpt lat="45.43794" lon="6.45588">
        <ele>1998</ele>
        <time>2018-06-24T06:11:26Z</time>
      </trkpt>
      <trkpt lat="45.43802" lon="6.45594">
        <ele>1997</ele>
        <time>2018-06-24T06:12:26Z</time>
      </trkpt>
      <trkpt lat="45.43807" lon="6.45596">
        <ele>1996</ele>
        <time>2018-06-24T06:13:26Z</time>
      </trkpt>
      <trkpt lat="45.43814" lon="6.45597">
        <ele>1996</ele>
        <time>2018-06-24T06:14:26Z</time>
      </trkpt>
      <trkpt lat="45.43816" lon="6.45599">
        <ele>1996</ele>
        <time>2018-06-24T06:15:26Z</time>
      </trkpt>
      <trkpt lat="45.43818" lon="6.45598">
        <ele>1996</ele>
        <time>2018-06-24T06:16:26Z</time>
      </trkpt>
      <trkpt lat="45.43818" lon="6.456">
        <ele>1996</ele>
        <time>2018-06-24T06:17:26Z</time>
      </trkpt>
      <trkpt lat="45.43816" lon="6.45605">
        <ele>1995</ele>
        <time>2018-06-24T06:18:26Z</time>
      </trkpt>
      <trkpt lat="45.43813" lon="6.45607">
        <ele>1995</ele>
        <time>2018-06-24T06:19:26Z</time>
      </trkpt>
      <trkpt lat="45.43811" lon="6.45613">
        <ele>1994</ele>
        <time>2018-06-24T06:20:26Z</time>
      </trkpt>
      <trkpt lat="45.43806" lon="6.45621">
        <ele>1993</ele>
        <time>2018-06-24T06:21:26Z</time>
      </trkpt>
      <trkpt lat="45.43804" lon="6.45622">
        <ele>1993</ele>
        <time>2018-06-24T06:22:26Z</time>
      </trkpt>
      <trkpt lat="45.43801" lon="6.45624">
        <ele>1993</ele>
        <time>2018-06-24T06:23:26Z</time>
      </trkpt>
      <trkpt lat="45.438" lon="6.45626">
        <ele>1993</ele>
        <time>2018-06-24T06:24:26Z</time>
      </trkpt>
      <trkpt lat="45.43798" lon="6.45627">
        <ele>1993</ele>
        <time>2018-06-24T06:25:26Z</time>
      </trkpt>
      <trkpt lat="45.43795" lon="6.45629">
        <ele>1993</ele>
        <time>2018-06-24T06:26:26Z</time>
      </trkpt>
      <trkpt lat="45.43794" lon="6.45632">
        <ele>1993</ele>
        <time>2018-06-24T06:27:26Z</time>
      </trkpt>
      <trkpt lat="45.43795" lon="6.45632">
        <ele>1992</ele>
        <time>2018-06-24T06:28:26Z</time>
      </trkpt>
      <trkpt lat="45.43801" lon="6.45636">
        <ele>1991</ele>
        <time>2018-06-24T06:29:26Z</time>
      </trkpt>
      <trkpt lat="45.43808" lon="6.45643">
        <ele>1989</ele>
        <time>2018-06-24T06:30:26Z</time>
      </trkpt>
      <trkpt lat="45.43819" lon="6.45653">
        <ele>1985</ele>
        <time>2018-06-24T06:31:26Z</time>
      </trkpt>
      <trkpt lat="45.43816" lon="6.45662">
        <ele>1984</ele>
        <time>2018-06-24T06:32:26Z</time>
      </trkpt>
      <trkpt lat="45.43819" lon="6.45671">
        <ele>1971</ele>
        <time>2018-06-24T06:33:26Z</time>
      </trkpt>
      <trkpt lat="45.43818" lon="6.45675">
        <ele>1971</ele>
        <time>2018-06-24T06:34:26Z</time>
      </trkpt>
      <trkpt lat="45.43819" lon="6.45685">
        <ele>1969</ele>
        <time>2018-06-24T06:35:26Z</time>
      </trkpt>
      <trkpt lat="45.4382" lon="6.45687">
        <ele>1969</ele>
        <time>2018-06-24T06:36:26Z</time>
      </trkpt>
      <trkpt lat="45.43821" lon="6.45687">
        <ele>1969</ele>
        <time>2018-06-24T06:37:26Z</time>
      </trkpt>
      <trkpt lat="45.43821" lon="6.4569">
        <ele>1968</ele>
        <time>2018-06-24T06:38:26Z</time>
      </trkpt>
      <trkpt lat="45.43818" lon="6.45699">
        <ele>1966</ele>
        <time>2018-06-24T06:39:26Z</time>
      </trkpt>
      <trkpt lat="45.43817" lon="6.45701">
        <ele>1966</ele>
        <time>2018-06-24T06:40:26Z</time>
      </trkpt>
      <trkpt lat="45.43814" lon="6.45707">
        <ele>1965</ele>
        <time>2018-06-24T06:41:26Z</time>
      </trkpt>
      <trkpt lat="45.43812" lon="6.45709">
        <ele>1964</ele>
        <time>2018-06-24T06:42:26Z</time>
      </trkpt>
      <trkpt lat="45.43808" lon="6.4571">
        <ele>1964</ele>
        <time>2018-06-24T06:43:26Z</time>
      </trkpt>
      <trkpt lat="45.43807" lon="6.45712">
        <ele>1964</ele>
        <time>2018-06-24T06:44:26Z</time>
      </trkpt>
      <trkpt lat="45.43809" lon="6.45714">
        <ele>1963</ele>
        <time>2018-06-24T06:45:26Z</time>
      </trkpt>
      <trkpt lat="45.43809" lon="6.45716">
        <ele>1963</ele>
        <time>2018-06-24T06:46:26Z</time>
      </trkpt>
      <trkpt lat="45.43808" lon="6.45716">
        <ele>1963</ele>
        <time>2018-06-24T06:47:26Z</time>
      </trkpt>
      <trkpt lat="45.43802" lon="6.45716">
        <ele>1963</ele>
        <time>2018-06-24T06:48:26Z</time>
      </trkpt>
      <trkpt lat="45.438" lon="6.45719">
        <ele>1963</ele>
        <time>2018-06-24T06:49:26Z</time>
      </trkpt>
      <trkpt lat="45.438" lon="6.4572">
        <ele>1963</ele>
        <time>2018-06-24T06:50:26Z</time>
      </trkpt>
      <trkpt lat="45.43804" lon="6.45725">
        <ele>1961</ele>
        <time>2018-06-24T06:51:26Z</time>
      </trkpt>
      <trkpt lat="45.43806" lon="6.45726">
        <ele>1961</ele>
        <time>2018-06-24T06:52:26Z</time>
      </trkpt>
      <trkpt lat="45.43804" lon="6.45729">
        <ele>1961</ele>
        <time>2018-06-24T06:53:26Z</time>
      </trkpt>
      <trkpt lat="45.43803" lon="6.45731">
        <ele>1960</ele>
        <time>2018-06-24T06:54:26Z</time>
      </trkpt>
      <trkpt lat="45.43801" lon="6.45731">
        <ele>1961</ele>
        <time>2018-06-24T06:55:26Z</time>
      </trkpt>
      <trkpt lat="45.43798" lon="6.45731">
        <ele>1961</ele>
        <time>2018-06-24T06:56:26Z</time>
      </trkpt>
      <trkpt lat="45.43798" lon="6.45733">
        <ele>1961</ele>
        <time>2018-06-24T06:57:26Z</time>
      </trkpt>
      <trkpt lat="45.43804" lon="6.45743">
        <ele>1959</ele>
        <time>2018-06-24T06:58:26Z</time>
      </trkpt>
      <trkpt lat="45.43808" lon="6.45746">
        <ele>1957</ele>
        <time>2018-06-24T06:59:26Z</time>
      </trkpt>
      <trkpt lat="45.43811" lon="6.45752">
        <ele>1941</ele>
        <time>2018-06-24T07:00:26Z</time>
      </trkpt>
      <trkpt lat="45.43813" lon="6.45758">
        <ele>1941</ele>
        <time>2018-06-24T07:01:26Z</time>
      </trkpt>
      <trkpt lat="45.43811" lon="6.45761">
        <ele>1940</ele>
        <time>2018-06-24T07:02:26Z</time>
      </trkpt>
      <trkpt lat="45.43813" lon="6.45766">
        <ele>1940</ele>
        <time>2018-06-24T07:03:26Z</time>
      </trkpt>
      <trkpt lat="45.43815" lon="6.4577">
        <ele>1939</ele>
        <time>2018-06-24T07:04:26Z</time>
      </trkpt>
      <trkpt lat="45.43813" lon="6.45772">
        <ele>1939</ele>
        <time>2018-06-24T07:05:26Z</time>
      </trkpt>
      <trkpt lat="45.4381" lon="6.45774">
        <ele>1939</ele>
        <time>2018-06-24T07:06:26Z</time>
      </trkpt>
      <trkpt lat="45.43811" lon="6.45775">
        <ele>1938</ele>
        <time>2018-06-24T07:07:26Z</time>
      </trkpt>
      <trkpt lat="45.43814" lon="6.45776">
        <ele>1938</ele>
        <time>2018-06-24T07:08:26Z</time>
      </trkpt>
      <trkpt lat="45.43816" lon="6.45778">
        <ele>1938</ele>
        <time>2018-06-24T07:09:26Z</time>
      </trkpt>
      <trkpt lat="45.43816" lon="6.4578">
        <ele>1938</ele>
        <time>2018-06-24T07:10:26Z</time>
      </trkpt>
      <trkpt lat="45.43811" lon="6.4579">
        <ele>1936</ele>
        <time>2018-06-24T07:11:26Z</time>
      </trkpt>
      <trkpt lat="45.43808" lon="6.4579">
        <ele>1936</ele>
        <time>2018-06-24T07:12:26Z</time>
      </trkpt>
      <trkpt lat="45.43806" lon="6.45793">
        <ele>1935</ele>
        <time>2018-06-24T07:13:26Z</time>
      </trkpt>
      <trkpt lat="45.43803" lon="6.45794">
        <ele>1935</ele>
        <time>2018-06-24T07:14:26Z</time>
      </trkpt>
      <trkpt lat="45.43801" lon="6.45794">
        <ele>1936</ele>
        <time>2018-06-24T07:15:26Z</time>
      </trkpt>
      <trkpt lat="45.43801" lon="6.45797">
        <ele>1935</ele>
        <time>2018-06-24T07:16:26Z</time>
      </trkpt>
      <trkpt lat="45.43804" lon="6.45805">
        <ele>1933</ele>
        <time>2018-06-24T07:17:26Z</time>
      </trkpt>
      <trkpt lat="45.43805" lon="6.45809">
        <ele>1933</ele>
        <time>2018-06-24T07:18:26Z</time>
      </trkpt>
      <trkpt lat="45.43805" lon="6.45812">
        <ele>1932</ele>
        <time>2018-06-24T07:19:26Z</time>
      </trkpt>
      <trkpt lat="45.43806" lon="6.45814">
        <ele>1932</ele>
        <time>2018-06-24T07:20:26Z</time>
      </trkpt>
      <trkpt lat="45.43811" lon="6.45823">
        <ele>1930</ele>
        <time>2018-06-24T07:21:26Z</time>
      </trkpt>
      <trkpt lat="45.43811" lon="6.45826">
        <ele>1929</ele>
        <time>2018-06-24T07:22:26Z</time>
      </trkpt>
      <trkpt lat="45.4381" lon="6.45829">
        <ele>1929</ele>
        <time>2018-06-24T07:23:26Z</time>
      </trkpt>
      <trkpt lat="45.43809" lon="6.45829">
        <ele>1929</ele>
        <time>2018-06-24T07:24:26Z</time>
      </trkpt>
      <trkpt lat="45.43806" lon="6.45834">
        <ele>1915</ele>
        <time>2018-06-24T07:25:26Z</time>
      </trkpt>
      <trkpt lat="45.43807" lon="6.45836">
        <ele>1915</ele>
        <time>2018-06-24T07:26:26Z</time>
      </trkpt>
      <trkpt lat="45.43804" lon="6.45843">
        <ele>1914</ele>
        <time>2018-06-24T07:27:26Z</time>
      </trkpt>
      <trkpt lat="45.43805" lon="6.45846">
        <ele>1914</ele>
        <time>2018-06-24T07:28:26Z</time>
      </trkpt>
      <trkpt lat="45.43806" lon="6.4585">
        <ele>1913</ele>
        <time>2018-06-24T07:29:26Z</time>
      </trkpt>
      <trkpt lat="45.43807" lon="6.45851">
        <ele>1913</ele>
        <time>2018-06-24T07:30:26Z</time>
      </trkpt>
      <trkpt lat="45.4381" lon="6.4585">
        <ele>1913</ele>
        <time>2018-06-24T07:31:26Z</time>
      </trkpt>
      <trkpt lat="45.4381" lon="6.45856">
        <ele>1913</ele>
        <time>2018-06-24T07:32:26Z</time>
      </trkpt>
      <trkpt lat="45.43808" lon="6.4587">
        <ele>1910</ele>
        <time>2018-06-24T07:33:26Z</time>
      </trkpt>
      <trkpt lat="45.43809" lon="6.45873">
        <ele>1909</ele>
        <time>2018-06-24T07:34:26Z</time>
      </trkpt>
      <trkpt lat="45.43811" lon="6.45874">
        <ele>1909</ele>
        <time>2018-06-24T07:35:26Z</time>
      </trkpt>
      <trkpt lat="45.43811" lon="6.45881">
        <ele>1908</ele>
        <time>2018-06-24T07:36:26Z</time>
      </trkpt>
      <trkpt lat="45.4381" lon="6.45899">
        <ele>1904</ele>
        <time>2018-06-24T07:37:26Z</time>
      </trkpt>
      <trkpt lat="45.43808" lon="6.45913">
        <ele>1902</ele>
        <time>2018-06-24T07:38:26Z</time>
      </trkpt>
      <trkpt lat="45.43809" lon="6.45915">
        <ele>1902</ele>
        <time>2018-06-24T07:39:26Z</time>
      </trkpt>
      <trkpt lat="45.43812" lon="6.45915">
        <ele>1901</ele>
        <time>2018-06-24T07:40:26Z</time>
      </trkpt>
      <trkpt lat="45.43813" lon="6.45916">
        <ele>1900</ele>
        <time>2018-06-24T07:41:26Z</time>
      </trkpt>
      <trkpt lat="45.43812" lon="6.4592">
        <ele>1889</ele>
        <time>2018-06-24T07:42:26Z</time>
      </trkpt>
      <trkpt lat="45.43811" lon="6.45924">
        <ele>1888</ele>
        <time>2018-06-24T07:43:26Z</time>
      </trkpt>
      <trkpt lat="45.43808" lon="6.45925">
        <ele>1889</ele>
        <time>2018-06-24T07:44:26Z</time>
      </trkpt>
      <trkpt lat="45.43808" lon="6.45928">
        <ele>1888</ele>
        <time>2018-06-24T07:45:26Z</time>
      </trkpt>
      <trkpt lat="45.43808" lon="6.45931">
        <ele>1888</ele>
        <time>2018-06-24T07:46:26Z</time>
      </trkpt>
      <trkpt lat="45.43807" lon="6.45934">
        <ele>1888</ele>
        <time>2018-06-24T07:47:26Z</time>
      </trkpt>
      <trkpt lat="45.43806" lon="6.45938">
        <ele>1888</ele>
        <time>2018-06-24T07:48:26Z</time>
      </trkpt>
      <trkpt lat="45.4381" lon="6.4594">
        <ele>1887</ele>
        <time>2018-06-24T07:49:26Z</time>
      </trkpt>
      <trkpt lat="45.43809" lon="6.45942">
        <ele>1887</ele>
        <time>2018-06-24T07:50:26Z</time>
      </trkpt>
      <trkpt lat="45.43803" lon="6.45955">
        <ele>1886</ele>
        <time>2018-06-24T07:51:26Z</time>
      </trkpt>
      <trkpt lat="45.43809" lon="6.45957">
        <ele>1885</ele>
        <time>2018-06-24T07:52:26Z</time>
      </trkpt>
      <trkpt lat="45.43809" lon="6.4596">
        <ele>1885</ele>
        <time>2018-06-24T07:53:26Z</time>
      </trkpt>
      <trkpt lat="45.43811" lon="6.4596">
        <ele>1885</ele>
        <time>2018-06-24T07:54:26Z</time>
      </trkpt>
      <trkpt lat="45.4382" lon="6.45962">
        <ele>1883</ele>
        <time>2018-06-24T07:55:26Z</time>
      </trkpt>
      <trkpt lat="45.4382" lon="6.45964">
        <ele>1883</ele>
        <time>2018-06-24T07:56:26Z</time>
      </trkpt>
      <trkpt lat="45.43819" lon="6.45966">
        <ele>1883</ele>
        <time>2018-06-24T07:57:26Z</time>
      </trkpt>
      <trkpt lat="45.43812" lon="6.45988">
        <ele>1879</ele>
        <time>2018-06-24T07:58:26Z</time>
      </trkpt>
      <trkpt lat="45.43815" lon="6.4599">
        <ele>1878</ele>
        <time>2018-06-24T07:59:26Z</time>
      </trkpt>
      <trkpt lat="45.43818" lon="6.45995">
        <ele>1876</ele>
        <time>2018-06-24T08:00:26Z</time>
      </trkpt>
      <trkpt lat="45.43816" lon="6.46001">
        <ele>1867</ele>
        <time>2018-06-24T08:01:26Z</time>
      </trkpt>
      <trkpt lat="45.43812" lon="6.46015">
        <ele>1867</ele>
        <time>2018-06-24T08:02:26Z</time>
      </trkpt>
      <trkpt lat="45.43809" lon="6.4602">
        <ele>1866</ele>
        <time>2018-06-24T08:03:26Z</time>
      </trkpt>
      <trkpt lat="45.438" lon="6.46028">
        <ele>1866</ele>
        <time>2018-06-24T08:04:26Z</time>
      </trkpt>
      <trkpt lat="45.43798" lon="6.46031">
        <ele>1866</ele>
        <time>2018-06-24T08:05:26Z</time>
      </trkpt>
      <trkpt lat="45.43797" lon="6.46034">
        <ele>1866</ele>
        <time>2018-06-24T08:06:26Z</time>
      </trkpt>
      <trkpt lat="45.43798" lon="6.46035">
        <ele>1866</ele>
        <time>2018-06-24T08:07:26Z</time>
      </trkpt>
      <trkpt lat="45.43805" lon="6.4604">
        <ele>1865</ele>
        <time>2018-06-24T08:08:26Z</time>
      </trkpt>
      <trkpt lat="45.43805" lon="6.46042">
        <ele>1864</ele>
        <time>2018-06-24T08:09:26Z</time>
      </trkpt>
      <trkpt lat="45.43805" lon="6.46043">
        <ele>1864</ele>
        <time>2018-06-24T08:10:26Z</time>
      </trkpt>
      <trkpt lat="45.438" lon="6.46045">
        <ele>1864</ele>
        <time>2018-06-24T08:11:26Z</time>
      </trkpt>
      <trkpt lat="45.43795" lon="6.46045">
        <ele>1865</ele>
        <time>2018-06-24T08:12:26Z</time>
      </trkpt>
      <trkpt lat="45.43792" lon="6.46046">
        <ele>1865</ele>
        <time>2018-06-24T08:13:26Z</time>
      </trkpt>
      <trkpt lat="45.43791" lon="6.46049">
        <ele>1865</ele>
        <time>2018-06-24T08:14:26Z</time>
      </trkpt>
      <trkpt lat="45.43794" lon="6.46052">
        <ele>1864</ele>
        <time>2018-06-24T08:15:26Z</time>
      </trkpt>
      <trkpt lat="45.43801" lon="6.46056">
        <ele>1863</ele>
        <time>2018-06-24T08:16:26Z</time>
      </trkpt>
      <trkpt lat="45.43802" lon="6.4606">
        <ele>1862</ele>
        <time>2018-06-24T08:17:26Z</time>
      </trkpt>
      <trkpt lat="45.43801" lon="6.46065">
        <ele>1862</ele>
        <time>2018-06-24T08:18:26Z</time>
      </trkpt>
      <trkpt lat="45.43798" lon="6.4607">
        <ele>1862</ele>
        <time>2018-06-24T08:19:26Z</time>
      </trkpt>
      <trkpt lat="45.43794" lon="6.46074">
        <ele>1862</ele>
        <time>2018-06-24T08:20:26Z</time>
      </trkpt>
      <trkpt lat="45.43789" lon="6.46074">
        <ele>1862</ele>
        <time>2018-06-24T08:21:26Z</time>
      </trkpt>
      <trkpt lat="45.43785" lon="6.46076">
        <ele>1863</ele>
        <time>2018-06-24T08:22:26Z</time>
      </trkpt>
      <trkpt lat="45.43782" lon="6.4608">
        <ele>1862</ele>
        <time>2018-06-24T08:23:26Z</time>
      </trkpt>
      <trkpt lat="45.43778" lon="6.4609">
        <ele>1851</ele>
        <time>2018-06-24T08:24:26Z</time>
      </trkpt>
      <trkpt lat="45.43772" lon="6.46089">
        <ele>1852</ele>
        <time>2018-06-24T08:25:26Z</time>
      </trkpt>
      <trkpt lat="45.43722" lon="6.46085">
        <ele>1855</ele>
        <time>2018-06-24T08:26:26Z</time>
      </trkpt>
      <trkpt lat="45.43695" lon="6.46089">
        <ele>1855</ele>
        <time>2018-06-24T08:27:26Z</time>
      </trkpt>
      <trkpt lat="45.4367" lon="6.46087">
        <ele>1862</ele>
        <time>2018-06-24T08:28:26Z</time>
      </trkpt>
      <trkpt lat="45.43648" lon="6.46071">
        <ele>1880</ele>
        <time>2018-06-24T08:29:26Z</time>
      </trkpt>
      <trkpt lat="45.43642" lon="6.46071">
        <ele>1882</ele>
        <time>2018-06-24T08:30:26Z</time>
      </trkpt>
      <trkpt lat="45.43629" lon="6.46075">
        <ele>1885</ele>
        <time>2018-06-24T08:31:26Z</time>
      </trkpt>
      <trkpt lat="45.43618" lon="6.46087">
        <ele>1869</ele>
        <time>2018-06-24T08:32:26Z</time>
      </trkpt>
      <trkpt lat="45.43608" lon="6.46103">
        <ele>1869</ele>
        <time>2018-06-24T08:33:26Z</time>
      </trkpt>
      <trkpt lat="45.43597" lon="6.46114">
        <ele>1869</ele>
        <time>2018-06-24T08:34:26Z</time>
      </trkpt>
      <trkpt lat="45.43579" lon="6.46123">
        <ele>1880</ele>
        <time>2018-06-24T08:35:26Z</time>
      </trkpt>
      <trkpt lat="45.43548" lon="6.46141">
        <ele>1880</ele>
        <time>2018-06-24T08:36:26Z</time>
      </trkpt>
      <trkpt lat="45.4352" lon="6.46161">
        <ele>1881</ele>
        <time>2018-06-24T08:37:26Z</time>
      </trkpt>
      <trkpt lat="45.43502" lon="6.46174">
        <ele>1876</ele>
        <time>2018-06-24T08:38:26Z</time>
      </trkpt>
      <trkpt lat="45.43483" lon="6.4619">
        <ele>1880</ele>
        <time>2018-06-24T08:39:26Z</time>
      </trkpt>
      <trkpt lat="45.43463" lon="6.46209">
        <ele>1880</ele>
        <time>2018-06-24T08:40:26Z</time>
      </trkpt>
      <trkpt lat="45.43451" lon="6.46226">
        <ele>1879</ele>
        <time>2018-06-24T08:41:26Z</time>
      </trkpt>
      <trkpt lat="45.43434" lon="6.46243">
        <ele>1879</ele>
        <time>2018-06-24T08:42:26Z</time>
      </trkpt>
      <trkpt lat="45.43414" lon="6.46254">
        <ele>1879</ele>
        <time>2018-06-24T08:43:26Z</time>
      </trkpt>
      <trkpt lat="45.43394" lon="6.46254">
        <ele>1884</ele>
        <time>2018-06-24T08:44:26Z</time>
      </trkpt>
      <trkpt lat="45.43378" lon="6.46261">
        <ele>1887</ele>
        <time>2018-06-24T08:45:26Z</time>
      </trkpt>
      <trkpt lat="45.43367" lon="6.46278">
        <ele>1888</ele>
        <time>2018-06-24T08:46:26Z</time>
      </trkpt>
      <trkpt lat="45.43351" lon="6.4629">
        <ele>1889</ele>
        <time>2018-06-24T08:47:26Z</time>
      </trkpt>
      <trkpt lat="45.43346" lon="6.46301">
        <ele>1888</ele>
        <time>2018-06-24T08:48:26Z</time>
      </trkpt>
      <trkpt lat="45.43339" lon="6.46301">
        <ele>1889</ele>
        <time>2018-06-24T08:49:26Z</time>
      </trkpt>
      <trkpt lat="45.43331" lon="6.46302">
        <ele>1903</ele>
        <time>2018-06-24T08:50:26Z</time>
      </trkpt>
      <trkpt lat="45.43324" lon="6.4631">
        <ele>1901</ele>
        <time>2018-06-24T08:51:26Z</time>
      </trkpt>
      <trkpt lat="45.4331" lon="6.46317">
        <ele>1902</ele>
        <time>2018-06-24T08:52:26Z</time>
      </trkpt>
      <trkpt lat="45.43288" lon="6.46313">
        <ele>1906</ele>
        <time>2018-06-24T08:53:26Z</time>
      </trkpt>
      <trkpt lat="45.43272" lon="6.46316">
        <ele>1907</ele>
        <time>2018-06-24T08:54:26Z</time>
      </trkpt>
      <trkpt lat="45.43245" lon="6.4636">
        <ele>1890</ele>
        <time>2018-06-24T08:55:26Z</time>
      </trkpt>
      <trkpt lat="45.43224" lon="6.4635">
        <ele>1889</ele>
        <time>2018-06-24T08:56:26Z</time>
      </trkpt>
      <trkpt lat="45.43155" lon="6.46307">
        <ele>1889</ele>
        <time>2018-06-24T08:57:26Z</time>
      </trkpt>
      <trkpt lat="45.43141" lon="6.46292">
        <ele>1889</ele>
        <time>2018-06-24T08:58:26Z</time>
      </trkpt>
      <trkpt lat="45.4311" lon="6.46251">
        <ele>1889</ele>
        <time>2018-06-24T08:59:26Z</time>
      </trkpt>
      <trkpt lat="45.43096" lon="6.46226">
        <ele>1908</ele>
        <time>2018-06-24T09:00:26Z</time>
      </trkpt>
      <trkpt lat="45.43085" lon="6.46201">
        <ele>1915</ele>
        <time>2018-06-24T09:01:26Z</time>
      </trkpt>
      <trkpt lat="45.43076" lon="6.46176">
        <ele>1902</ele>
        <time>2018-06-24T09:02:26Z</time>
      </trkpt>
      <trkpt lat="45.43064" lon="6.46157">
        <ele>1908</ele>
        <time>2018-06-24T09:03:26Z</time>
      </trkpt>
      <trkpt lat="45.43055" lon="6.46144">
        <ele>1904</ele>
        <time>2018-06-24T09:04:26Z</time>
      </trkpt>
      <trkpt lat="45.4304" lon="6.46125">
        <ele>1902</ele>
        <time>2018-06-24T09:05:26Z</time>
      </trkpt>
      <trkpt lat="45.43029" lon="6.46094">
        <ele>1900</ele>
        <time>2018-06-24T09:06:26Z</time>
      </trkpt>
      <trkpt lat="45.43024" lon="6.4606">
        <ele>1913</ele>
        <time>2018-06-24T09:07:26Z</time>
      </trkpt>
      <trkpt lat="45.43015" lon="6.46037">
        <ele>1914</ele>
        <time>2018-06-24T09:08:26Z</time>
      </trkpt>
      <trkpt lat="45.43008" lon="6.4601">
        <ele>1910</ele>
        <time>2018-06-24T09:09:26Z</time>
      </trkpt>
      <trkpt lat="45.42998" lon="6.45985">
        <ele>1897</ele>
        <time>2018-06-24T09:10:26Z</time>
      </trkpt>
      <trkpt lat="45.42985" lon="6.45958">
        <ele>1897</ele>
        <time>2018-06-24T09:11:26Z</time>
      </trkpt>
      <trkpt lat="45.42972" lon="6.45939">
        <ele>1898</ele>
        <time>2018-06-24T09:12:26Z</time>
      </trkpt>
      <trkpt lat="45.42958" lon="6.45924">
        <ele>1894</ele>
        <time>2018-06-24T09:13:26Z</time>
      </trkpt>
      <trkpt lat="45.42945" lon="6.459">
        <ele>1908</ele>
        <time>2018-06-24T09:14:26Z</time>
      </trkpt>
      <trkpt lat="45.42929" lon="6.4587">
        <ele>1911</ele>
        <time>2018-06-24T09:15:26Z</time>
      </trkpt>
      <trkpt lat="45.42917" lon="6.45857">
        <ele>1911</ele>
        <time>2018-06-24T09:16:26Z</time>
      </trkpt>
      <trkpt lat="45.42903" lon="6.4585">
        <ele>1891</ele>
        <time>2018-06-24T09:17:26Z</time>
      </trkpt>
      <trkpt lat="45.42894" lon="6.45839">
        <ele>1891</ele>
        <time>2018-06-24T09:18:26Z</time>
      </trkpt>
      <trkpt lat="45.42883" lon="6.4582">
        <ele>1906</ele>
        <time>2018-06-24T09:19:26Z</time>
      </trkpt>
      <trkpt lat="45.42873" lon="6.45796">
        <ele>1908</ele>
        <time>2018-06-24T09:20:26Z</time>
      </trkpt>
      <trkpt lat="45.42866" lon="6.45771">
        <ele>1911</ele>
        <time>2018-06-24T09:21:26Z</time>
      </trkpt>
      <trkpt lat="45.42851" lon="6.45744">
        <ele>1931</ele>
        <time>2018-06-24T09:22:26Z</time>
      </trkpt>
      <trkpt lat="45.42837" lon="6.45738">
        <ele>1927</ele>
        <time>2018-06-24T09:23:26Z</time>
      </trkpt>
      <trkpt lat="45.42821" lon="6.45738">
        <ele>1926</ele>
        <time>2018-06-24T09:24:26Z</time>
      </trkpt>
      <trkpt lat="45.428" lon="6.45732">
        <ele>1933</ele>
        <time>2018-06-24T09:25:26Z</time>
      </trkpt>
      <trkpt lat="45.42789" lon="6.45741">
        <ele>1932</ele>
        <time>2018-06-24T09:26:26Z</time>
      </trkpt>
      <trkpt lat="45.4278" lon="6.45748">
        <ele>1930</ele>
        <time>2018-06-24T09:27:26Z</time>
      </trkpt>
      <trkpt lat="45.4276" lon="6.45753">
        <ele>1906</ele>
        <time>2018-06-24T09:28:26Z</time>
      </trkpt>
      <trkpt lat="45.42734" lon="6.4576">
        <ele>1902</ele>
        <time>2018-06-24T09:29:26Z</time>
      </trkpt>
      <trkpt lat="45.42724" lon="6.45756">
        <ele>1900</ele>
        <time>2018-06-24T09:30:26Z</time>
      </trkpt>
      <trkpt lat="45.42717" lon="6.45758">
        <ele>1899</ele>
        <time>2018-06-24T09:31:26Z</time>
      </trkpt>
      <trkpt lat="45.42721" lon="6.45747">
        <ele>1929</ele>
        <time>2018-06-24T09:32:26Z</time>
      </trkpt>
      <trkpt lat="45.42702" lon="6.45757">
        <ele>1899</ele>
        <time>2018-06-24T09:33:26Z</time>
      </trkpt>
      <trkpt lat="45.42696" lon="6.45761">
        <ele>1899</ele>
        <time>2018-06-24T09:34:26Z</time>
      </trkpt>
      <trkpt lat="45.42687" lon="6.45739">
        <ele>1928</ele>
        <time>2018-06-24T09:35:26Z</time>
      </trkpt>
      <trkpt lat="45.4268" lon="6.45727">
        <ele>1931</ele>
        <time>2018-06-24T09:36:26Z</time>
      </trkpt>
      <trkpt lat="45.42673" lon="6.45719">
        <ele>1934</ele>
        <time>2018-06-24T09:37:26Z</time>
      </trkpt>
      <trkpt lat="45.42664" lon="6.45714">
        <ele>1931</ele>
        <time>2018-06-24T09:38:26Z</time>
      </trkpt>
      <trkpt lat="45.42659" lon="6.45717">
        <ele>1929</ele>
        <time>2018-06-24T09:39:26Z</time>
      </trkpt>
      <trkpt lat="45.42648" lon="6.45715">
        <ele>1930</ele>
        <time>2018-06-24T09:40:26Z</time>
      </trkpt>
      <trkpt lat="45.42645" lon="6.45721">
        <ele>1928</ele>
        <time>2018-06-24T09:41:26Z</time>
      </trkpt>
      <trkpt lat="45.42637" lon="6.45722">
        <ele>1928</ele>
        <time>2018-06-24T09:42:26Z</time>
      </trkpt>
      <trkpt lat="45.42626" lon="6.45717">
        <ele>1928</ele>
        <time>2018-06-24T09:43:26Z</time>
      </trkpt>
      <trkpt lat="45.42615" lon="6.45721">
        <ele>1927</ele>
        <time>2018-06-24T09:44:26Z</time>
      </trkpt>
      <trkpt lat="45.42604" lon="6.45723">
        <ele>1925</ele>
        <time>2018-06-24T09:45:26Z</time>
      </trkpt>
      <trkpt lat="45.42596" lon="6.45699">
        <ele>1931</ele>
        <time>2018-06-24T09:46:26Z</time>
      </trkpt>
      <trkpt lat="45.42588" lon="6.45682">
        <ele>1937</ele>
        <time>2018-06-24T09:47:26Z</time>
      </trkpt>
      <trkpt lat="45.42581" lon="6.45661">
        <ele>1945</ele>
        <time>2018-06-24T09:48:26Z</time>
      </trkpt>
      <trkpt lat="45.42567" lon="6.45641">
        <ele>1949</ele>
        <time>2018-06-24T09:49:26Z</time>
      </trkpt>
      <trkpt lat="45.42559" lon="6.45635">
        <ele>1950</ele>
        <time>2018-06-24T09:50:26Z</time>
      </trkpt>
      <trkpt lat="45.42556" lon="6.45629">
        <ele>1951</ele>
        <time>2018-06-24T09:51:26Z</time>
      </trkpt>
      <trkpt lat="45.42549" lon="6.45621">
        <ele>1952</ele>
        <time>2018-06-24T09:52:26Z</time>
      </trkpt>
      <trkpt lat="45.42542" lon="6.45617">
        <ele>1952</ele>
        <time>2018-06-24T09:53:26Z</time>
      </trkpt>
      <trkpt lat="45.42533" lon="6.45607">
        <ele>1953</ele>
        <time>2018-06-24T09:54:26Z</time>
      </trkpt>
      <trkpt lat="45.42519" lon="6.45596">
        <ele>1955</ele>
        <time>2018-06-24T09:55:26Z</time>
      </trkpt>
      <trkpt lat="45.42505" lon="6.45587">
        <ele>1958</ele>
        <time>2018-06-24T09:56:26Z</time>
      </trkpt>
      <trkpt lat="45.42499" lon="6.45579">
        <ele>1964</ele>
        <time>2018-06-24T09:57:26Z</time>
      </trkpt>
      <trkpt lat="45.42498" lon="6.45571">
        <ele>1970</ele>
        <time>2018-06-24T09:58:26Z</time>
      </trkpt>
      <trkpt lat="45.42495" lon="6.45558">
        <ele>1976</ele>
        <time>2018-06-24T09:59:26Z</time>
      </trkpt>
      <trkpt lat="45.42495" lon="6.45546">
        <ele>1980</ele>
        <time>2018-06-24T10:00:26Z</time>
      </trkpt>
      <trkpt lat="45.42493" lon="6.45529">
        <ele>1984</ele>
        <time>2018-06-24T10:01:26Z</time>
      </trkpt>
      <trkpt lat="45.42492" lon="6.45527">
        <ele>1985</ele>
        <time>2018-06-24T10:02:26Z</time>
      </trkpt>
      <trkpt lat="45.42489" lon="6.45529">
        <ele>1984</ele>
        <time>2018-06-24T10:03:26Z</time>
      </trkpt>
      <trkpt lat="45.42482" lon="6.45538">
        <ele>1983</ele>
        <time>2018-06-24T10:04:26Z</time>
      </trkpt>
      <trkpt lat="45.42476" lon="6.45553">
        <ele>1980</ele>
        <time>2018-06-24T10:05:26Z</time>
      </trkpt>
      <trkpt lat="45.42472" lon="6.45559">
        <ele>1979</ele>
        <time>2018-06-24T10:06:26Z</time>
      </trkpt>
      <trkpt lat="45.4247" lon="6.4556">
        <ele>1979</ele>
        <time>2018-06-24T10:07:26Z</time>
      </trkpt>
      <trkpt lat="45.42465" lon="6.45559">
        <ele>1980</ele>
        <time>2018-06-24T10:08:26Z</time>
      </trkpt>
      <trkpt lat="45.42458" lon="6.45556">
        <ele>1982</ele>
        <time>2018-06-24T10:09:26Z</time>
      </trkpt>
      <trkpt lat="45.4245" lon="6.45551">
        <ele>1984</ele>
        <time>2018-06-24T10:10:26Z</time>
      </trkpt>
      <trkpt lat="45.42442" lon="6.45548">
        <ele>1985</ele>
        <time>2018-06-24T10:11:26Z</time>
      </trkpt>
      <trkpt lat="45.42434" lon="6.45547">
        <ele>1986</ele>
        <time>2018-06-24T10:12:26Z</time>
      </trkpt>
      <trkpt lat="45.42429" lon="6.45547">
        <ele>1986</ele>
        <time>2018-06-24T10:13:26Z</time>
      </trkpt>
      <trkpt lat="45.42422" lon="6.4555">
        <ele>1986</ele>
        <time>2018-06-24T10:14:26Z</time>
      </trkpt>
      <trkpt lat="45.42395" lon="6.4557">
        <ele>1986</ele>
        <time>2018-06-24T10:15:26Z</time>
      </trkpt>
      <trkpt lat="45.4239" lon="6.45569">
        <ele>1987</ele>
        <time>2018-06-24T10:16:26Z</time>
      </trkpt>
      <trkpt lat="45.42385" lon="6.45564">
        <ele>1988</ele>
        <time>2018-06-24T10:17:26Z</time>
      </trkpt>
      <trkpt lat="45.42373" lon="6.45546">
        <ele>1991</ele>
        <time>2018-06-24T10:18:26Z</time>
      </trkpt>
      <trkpt lat="45.42369" lon="6.45535">
        <ele>1993</ele>
        <time>2018-06-24T10:19:26Z</time>
      </trkpt>
      <trkpt lat="45.42366" lon="6.45524">
        <ele>1995</ele>
        <time>2018-06-24T10:20:26Z</time>
      </trkpt>
      <trkpt lat="45.42367" lon="6.45523">
        <ele>1995</ele>
        <time>2018-06-24T10:21:26Z</time>
      </trkpt>
      <trkpt lat="45.42379" lon="6.4551">
        <ele>1998</ele>
        <time>2018-06-24T10:22:26Z</time>
      </trkpt>
      <trkpt lat="45.42387" lon="6.45497">
        <ele>2015</ele>
        <time>2018-06-24T10:23:26Z</time>
      </trkpt>
      <trkpt lat="45.42394" lon="6.45484">
        <ele>2016</ele>
        <time>2018-06-24T10:24:26Z</time>
      </trkpt>
      <trkpt lat="45.42396" lon="6.45479">
        <ele>2016</ele>
        <time>2018-06-24T10:25:26Z</time>
      </trkpt>
      <trkpt lat="45.42394" lon="6.45474">
        <ele>2017</ele>
        <time>2018-06-24T10:26:26Z</time>
      </trkpt>
      <trkpt lat="45.42391" lon="6.4547">
        <ele>2017</ele>
        <time>2018-06-24T10:27:26Z</time>
      </trkpt>
      <trkpt lat="45.42375" lon="6.45468">
        <ele>2016</ele>
        <time>2018-06-24T10:28:26Z</time>
      </trkpt>
      <trkpt lat="45.42372" lon="6.45468">
        <ele>2016</ele>
        <time>2018-06-24T10:29:26Z</time>
      </trkpt>
      <trkpt lat="45.42366" lon="6.45468">
        <ele>2016</ele>
        <time>2018-06-24T10:30:26Z</time>
      </trkpt>
      <trkpt lat="45.42363" lon="6.45467">
        <ele>2016</ele>
        <time>2018-06-24T10:31:26Z</time>
      </trkpt>
      <trkpt lat="45.42359" lon="6.45463">
        <ele>2016</ele>
        <time>2018-06-24T10:32:26Z</time>
      </trkpt>
      <trkpt lat="45.42357" lon="6.45459">
        <ele>2016</ele>
        <time>2018-06-24T10:33:26Z</time>
      </trkpt>
      <trkpt lat="45.42352" lon="6.45447">
        <ele>2017</ele>
        <time>2018-06-24T10:34:26Z</time>
      </trkpt>
      <trkpt lat="45.42348" lon="6.45442">
        <ele>2018</ele>
        <time>2018-06-24T10:35:26Z</time>
      </trkpt>
      <trkpt lat="45.4232" lon="6.45398">
        <ele>2012</ele>
        <time>2018-06-24T10:36:26Z</time>
      </trkpt>
      <trkpt lat="45.42305" lon="6.45371">
        <ele>2009</ele>
        <time>2018-06-24T10:37:26Z</time>
      </trkpt>
      <trkpt lat="45.423" lon="6.45361">
        <ele>2009</ele>
        <time>2018-06-24T10:38:26Z</time>
      </trkpt>
      <trkpt lat="45.42289" lon="6.45326">
        <ele>2019</ele>
        <time>2018-06-24T10:39:26Z</time>
      </trkpt>
      <trkpt lat="45.42285" lon="6.45319">
        <ele>2018</ele>
        <time>2018-06-24T10:40:26Z</time>
      </trkpt>
      <trkpt lat="45.42281" lon="6.45314">
        <ele>2017</ele>
        <time>2018-06-24T10:41:26Z</time>
      </trkpt>
      <trkpt lat="45.42268" lon="6.45298">
        <ele>2017</ele>
        <time>2018-06-24T10:42:26Z</time>
      </trkpt>
      <trkpt lat="45.42262" lon="6.45292">
        <ele>2017</ele>
        <time>2018-06-24T10:43:26Z</time>
      </trkpt>
      <trkpt lat="45.42259" lon="6.45288">
        <ele>2017</ele>
        <time>2018-06-24T10:44:26Z</time>
      </trkpt>
      <trkpt lat="45.42256" lon="6.45283">
        <ele>2017</ele>
        <time>2018-06-24T10:45:26Z</time>
      </trkpt>
      <trkpt lat="45.42253" lon="6.45265">
        <ele>2017</ele>
        <time>2018-06-24T10:46:26Z</time>
      </trkpt>
      <trkpt lat="45.42249" lon="6.45254">
        <ele>2008</ele>
        <time>2018-06-24T10:47:26Z</time>
      </trkpt>
      <trkpt lat="45.42246" lon="6.45249">
        <ele>2013</ele>
        <time>2018-06-24T10:48:26Z</time>
      </trkpt>
      <trkpt lat="45.42244" lon="6.45244">
        <ele>2013</ele>
        <time>2018-06-24T10:49:26Z</time>
      </trkpt>
      <trkpt lat="45.42241" lon="6.45241">
        <ele>2013</ele>
        <time>2018-06-24T10:50:26Z</time>
      </trkpt>
      <trkpt lat="45.42238" lon="6.45238">
        <ele>2012</ele>
        <time>2018-06-24T10:51:26Z</time>
      </trkpt>
      <trkpt lat="45.42234" lon="6.45236">
        <ele>2012</ele>
        <time>2018-06-24T10:52:26Z</time>
      </trkpt>
      <trkpt lat="45.4223" lon="6.45235">
        <ele>2012</ele>
        <time>2018-06-24T10:53:26Z</time>
      </trkpt>
      <trkpt lat="45.42221" lon="6.45233">
        <ele>2011</ele>
        <time>2018-06-24T10:54:26Z</time>
      </trkpt>
      <trkpt lat="45.42213" lon="6.45234">
        <ele>2009</ele>
        <time>2018-06-24T10:55:26Z</time>
      </trkpt>
      <trkpt lat="45.4221" lon="6.45233">
        <ele>2009</ele>
        <time>2018-06-24T10:56:26Z</time>
      </trkpt>
      <trkpt lat="45.42208" lon="6.45231">
        <ele>2008</ele>
        <time>2018-06-24T10:57:26Z</time>
      </trkpt>
      <trkpt lat="45.42205" lon="6.45224">
        <ele>2009</ele>
        <time>2018-06-24T10:58:26Z</time>
      </trkpt>
      <trkpt lat="45.42205" lon="6.45222">
        <ele>2009</ele>
        <time>2018-06-24T10:59:26Z</time>
      </trkpt>
      <trkpt lat="45.42205" lon="6.45218">
        <ele>2010</ele>
        <time>2018-06-24T11:00:26Z</time>
      </trkpt>
      <trkpt lat="45.42203" lon="6.45215">
        <ele>2010</ele>
        <time>2018-06-24T11:01:26Z</time>
      </trkpt>
      <trkpt lat="45.42201" lon="6.4521">
        <ele>2011</ele>
        <time>2018-06-24T11:02:26Z</time>
      </trkpt>
      <trkpt lat="45.42198" lon="6.45206">
        <ele>2011</ele>
        <time>2018-06-24T11:03:26Z</time>
      </trkpt>
      <trkpt lat="45.42184" lon="6.45186">
        <ele>2013</ele>
        <time>2018-06-24T11:04:26Z</time>
      </trkpt>
      <trkpt lat="45.4218" lon="6.45182">
        <ele>2013</ele>
        <time>2018-06-24T11:05:26Z</time>
      </trkpt>
      <trkpt lat="45.42173" lon="6.45176">
        <ele>2014</ele>
        <time>2018-06-24T11:06:26Z</time>
      </trkpt>
      <trkpt lat="45.42169" lon="6.45174">
        <ele>2014</ele>
        <time>2018-06-24T11:07:26Z</time>
      </trkpt>
      <trkpt lat="45.42165" lon="6.45172">
        <ele>2010</ele>
        <time>2018-06-24T11:08:26Z</time>
      </trkpt>
      <trkpt lat="45.42158" lon="6.4517">
        <ele>2008</ele>
        <time>2018-06-24T11:09:26Z</time>
      </trkpt>
      <trkpt lat="45.42146" lon="6.45172">
        <ele>2002</ele>
        <time>2018-06-24T11:10:26Z</time>
      </trkpt>
      <trkpt lat="45.42134" lon="6.45185">
        <ele>1997</ele>
        <time>2018-06-24T11:11:26Z</time>
      </trkpt>
      <trkpt lat="45.42125" lon="6.45188">
        <ele>1995</ele>
        <time>2018-06-24T11:12:26Z</time>
      </trkpt>
      <trkpt lat="45.42119" lon="6.45189">
        <ele>1994</ele>
        <time>2018-06-24T11:13:26Z</time>
      </trkpt>
      <trkpt lat="45.42101" lon="6.45188">
        <ele>1994</ele>
        <time>2018-06-24T11:14:26Z</time>
      </trkpt>
      <trkpt lat="45.42096" lon="6.45186">
        <ele>1994</ele>
        <time>2018-06-24T11:15:26Z</time>
      </trkpt>
      <trkpt lat="45.42092" lon="6.45183">
        <ele>1995</ele>
        <time>2018-06-24T11:16:26Z</time>
      </trkpt>
      <trkpt lat="45.4209" lon="6.4518">
        <ele>1996</ele>
        <time>2018-06-24T11:17:26Z</time>
      </trkpt>
      <trkpt lat="45.42083" lon="6.45174">
        <ele>1995</ele>
        <time>2018-06-24T11:18:26Z</time>
      </trkpt>
      <trkpt lat="45.42082" lon="6.45172">
        <ele>1996</ele>
        <time>2018-06-24T11:19:26Z</time>
      </trkpt>
      <trkpt lat="45.4207" lon="6.45148">
        <ele>2005</ele>
        <time>2018-06-24T11:20:26Z</time>
      </trkpt>
      <trkpt lat="45.42067" lon="6.45145">
        <ele>2006</ele>
        <time>2018-06-24T11:21:26Z</time>
      </trkpt>
      <trkpt lat="45.42063" lon="6.45141">
        <ele>2006</ele>
        <time>2018-06-24T11:22:26Z</time>
      </trkpt>
      <trkpt lat="45.42061" lon="6.45138">
        <ele>2007</ele>
        <time>2018-06-24T11:23:26Z</time>
      </trkpt>
      <trkpt lat="45.42058" lon="6.45133">
        <ele>2008</ele>
        <time>2018-06-24T11:24:26Z</time>
      </trkpt>
      <trkpt lat="45.42056" lon="6.45131">
        <ele>2008</ele>
        <time>2018-06-24T11:25:26Z</time>
      </trkpt>
      <trkpt lat="45.42051" lon="6.45126">
        <ele>2008</ele>
        <time>2018-06-24T11:26:26Z</time>
      </trkpt>
      <trkpt lat="45.42045" lon="6.45122">
        <ele>2009</ele>
        <time>2018-06-24T11:27:26Z</time>
      </trkpt>
      <trkpt lat="45.42035" lon="6.45118">
        <ele>2008</ele>
        <time>2018-06-24T11:28:26Z</time>
      </trkpt>
      <trkpt lat="45.42014" lon="6.45111">
        <ele>2009</ele>
        <time>2018-06-24T11:29:26Z</time>
      </trkpt>
      <trkpt lat="45.41999" lon="6.45115">
        <ele>1995</ele>
        <time>2018-06-24T11:30:26Z</time>
      </trkpt>
      <trkpt lat="45.41986" lon="6.45115">
        <ele>1994</ele>
        <time>2018-06-24T11:31:26Z</time>
      </trkpt>
      <trkpt lat="45.41982" lon="6.45114">
        <ele>1993</ele>
        <time>2018-06-24T11:32:26Z</time>
      </trkpt>
      <trkpt lat="45.41975" lon="6.4511">
        <ele>1993</ele>
        <time>2018-06-24T11:33:26Z</time>
      </trkpt>
      <trkpt lat="45.41971" lon="6.45106">
        <ele>1993</ele>
        <time>2018-06-24T11:34:26Z</time>
      </trkpt>
      <trkpt lat="45.41961" lon="6.45098">
        <ele>1992</ele>
        <time>2018-06-24T11:35:26Z</time>
      </trkpt>
      <trkpt lat="45.41959" lon="6.45095">
        <ele>1991</ele>
        <time>2018-06-24T11:36:26Z</time>
      </trkpt>
      <trkpt lat="45.41956" lon="6.45091">
        <ele>1991</ele>
        <time>2018-06-24T11:37:26Z</time>
      </trkpt>
      <trkpt lat="45.41955" lon="6.45088">
        <ele>1991</ele>
        <time>2018-06-24T11:38:26Z</time>
      </trkpt>
      <trkpt lat="45.41953" lon="6.45087">
        <ele>1991</ele>
        <time>2018-06-24T11:39:26Z</time>
      </trkpt>
      <trkpt lat="45.41943" lon="6.45073">
        <ele>2004</ele>
        <time>2018-06-24T11:40:26Z</time>
      </trkpt>
      <trkpt lat="45.41939" lon="6.45066">
        <ele>2004</ele>
        <time>2018-06-24T11:41:26Z</time>
      </trkpt>
      <trkpt lat="45.41928" lon="6.45043">
        <ele>2007</ele>
        <time>2018-06-24T11:42:26Z</time>
      </trkpt>
      <trkpt lat="45.41925" lon="6.45039">
        <ele>2007</ele>
        <time>2018-06-24T11:43:26Z</time>
      </trkpt>
      <trkpt lat="45.4192" lon="6.4503">
        <ele>2008</ele>
        <time>2018-06-24T11:44:26Z</time>
      </trkpt>
      <trkpt lat="45.41918" lon="6.45017">
        <ele>2008</ele>
        <time>2018-06-24T11:45:26Z</time>
      </trkpt>
      <trkpt lat="45.41917" lon="6.45013">
        <ele>2007</ele>
        <time>2018-06-24T11:46:26Z</time>
      </trkpt>
      <trkpt lat="45.41917" lon="6.45005">
        <ele>2006</ele>
        <time>2018-06-24T11:47:26Z</time>
      </trkpt>
      <trkpt lat="45.41915" lon="6.44996">
        <ele>2004</ele>
        <time>2018-06-24T11:48:26Z</time>
      </trkpt>
      <trkpt lat="45.41911" lon="6.44979">
        <ele>2001</ele>
        <time>2018-06-24T11:49:26Z</time>
      </trkpt>
      <trkpt lat="45.41907" lon="6.44971">
        <ele>2001</ele>
        <time>2018-06-24T11:50:26Z</time>
      </trkpt>
      <trkpt lat="45.41895" lon="6.44952">
        <ele>2001</ele>
        <time>2018-06-24T11:51:26Z</time>
      </trkpt>
      <trkpt lat="45.41884" lon="6.44931">
        <ele>2001</ele>
        <time>2018-06-24T11:52:26Z</time>
      </trkpt>
      <trkpt lat="45.41882" lon="6.44926">
        <ele>2001</ele>
        <time>2018-06-24T11:53:26Z</time>
      </trkpt>
      <trkpt lat="45.41874" lon="6.44901">
        <ele>2013</ele>
        <time>2018-06-24T11:54:26Z</time>
      </trkpt>
      <trkpt lat="45.4187" lon="6.44894">
        <ele>2013</ele>
        <time>2018-06-24T11:55:26Z</time>
      </trkpt>
      <trkpt lat="45.41868" lon="6.44891">
        <ele>2013</ele>
        <time>2018-06-24T11:56:26Z</time>
      </trkpt>
      <trkpt lat="45.41856" lon="6.44879">
        <ele>2012</ele>
        <time>2018-06-24T11:57:26Z</time>
      </trkpt>
      <trkpt lat="45.41847" lon="6.44877">
        <ele>2011</ele>
        <time>2018-06-24T11:58:26Z</time>
      </trkpt>
      <trkpt lat="45.41845" lon="6.44875">
        <ele>2011</ele>
        <time>2018-06-24T11:59:26Z</time>
      </trkpt>
      <trkpt lat="45.41842" lon="6.44873">
        <ele>2011</ele>
        <time>2018-06-24T12:00:26Z</time>
      </trkpt>
      <trkpt lat="45.4184" lon="6.44869">
        <ele>2012</ele>
        <time>2018-06-24T12:01:26Z</time>
      </trkpt>
      <trkpt lat="45.41838" lon="6.44869">
        <ele>2012</ele>
        <time>2018-06-24T12:02:26Z</time>
      </trkpt>
      <trkpt lat="45.41822" lon="6.44851">
        <ele>2000</ele>
        <time>2018-06-24T12:03:26Z</time>
      </trkpt>
      <trkpt lat="45.4182" lon="6.44848">
        <ele>2001</ele>
        <time>2018-06-24T12:04:26Z</time>
      </trkpt>
      <trkpt lat="45.41817" lon="6.44846">
        <ele>2000</ele>
        <time>2018-06-24T12:05:26Z</time>
      </trkpt>
      <trkpt lat="45.41809" lon="6.44843">
        <ele>1999</ele>
        <time>2018-06-24T12:06:26Z</time>
      </trkpt>
      <trkpt lat="45.41807" lon="6.44841">
        <ele>1998</ele>
        <time>2018-06-24T12:07:26Z</time>
      </trkpt>
      <trkpt lat="45.41807" lon="6.4484">
        <ele>1998</ele>
        <time>2018-06-24T12:08:26Z</time>
      </trkpt>
      <trkpt lat="45.41805" lon="6.44839">
        <ele>1998</ele>
        <time>2018-06-24T12:09:26Z</time>
      </trkpt>
      <trkpt lat="45.418" lon="6.44835">
        <ele>1997</ele>
        <time>2018-06-24T12:10:26Z</time>
      </trkpt>
      <trkpt lat="45.41799" lon="6.44833">
        <ele>2015</ele>
        <time>2018-06-24T12:11:26Z</time>
      </trkpt>
      <trkpt lat="45.41798" lon="6.44832">
        <ele>2015</ele>
        <time>2018-06-24T12:12:26Z</time>
      </trkpt>
      <trkpt lat="45.41796" lon="6.44832">
        <ele>2015</ele>
        <time>2018-06-24T12:13:26Z</time>
      </trkpt>
      <trkpt lat="45.41785" lon="6.44828">
        <ele>2013</ele>
        <time>2018-06-24T12:14:26Z</time>
      </trkpt>
      <trkpt lat="45.41783" lon="6.44828">
        <ele>2013</ele>
        <time>2018-06-24T12:15:26Z</time>
      </trkpt>
      <trkpt lat="45.41778" lon="6.4483">
        <ele>2011</ele>
        <time>2018-06-24T12:16:26Z</time>
      </trkpt>
      <trkpt lat="45.41775" lon="6.44829">
        <ele>2010</ele>
        <time>2018-06-24T12:17:26Z</time>
      </trkpt>
      <trkpt lat="45.41771" lon="6.44828">
        <ele>2009</ele>
        <time>2018-06-24T12:18:26Z</time>
      </trkpt>
      <trkpt lat="45.41768" lon="6.44829">
        <ele>2008</ele>
        <time>2018-06-24T12:19:26Z</time>
      </trkpt>
      <trkpt lat="45.41758" lon="6.44834">
        <ele>1994</ele>
        <time>2018-06-24T12:20:26Z</time>
      </trkpt>
      <trkpt lat="45.41755" lon="6.44834">
        <ele>1994</ele>
        <time>2018-06-24T12:21:26Z</time>
      </trkpt>
      <trkpt lat="45.41746" lon="6.44836">
        <ele>1992</ele>
        <time>2018-06-24T12:22:26Z</time>
      </trkpt>
      <trkpt lat="45.41743" lon="6.44834">
        <ele>1991</ele>
        <time>2018-06-24T12:23:26Z</time>
      </trkpt>
      <trkpt lat="45.41734" lon="6.44836">
        <ele>1987</ele>
        <time>2018-06-24T12:24:26Z</time>
      </trkpt>
      <trkpt lat="45.41732" lon="6.44836">
        <ele>1987</ele>
        <time>2018-06-24T12:25:26Z</time>
      </trkpt>
      <trkpt lat="45.4173" lon="6.44836">
        <ele>1986</ele>
        <time>2018-06-24T12:26:26Z</time>
      </trkpt>
      <trkpt lat="45.41729" lon="6.44834">
        <ele>1986</ele>
        <time>2018-06-24T12:27:26Z</time>
      </trkpt>
      <trkpt lat="45.41728" lon="6.44831">
        <ele>2000</ele>
        <time>2018-06-24T12:28:26Z</time>
      </trkpt>
      <trkpt lat="45.41725" lon="6.4483">
        <ele>2000</ele>
        <time>2018-06-24T12:29:26Z</time>
      </trkpt>
      <trkpt lat="45.41718" lon="6.44825">
        <ele>2001</ele>
        <time>2018-06-24T12:30:26Z</time>
      </trkpt>
      <trkpt lat="45.41714" lon="6.44821">
        <ele>2001</ele>
        <time>2018-06-24T12:31:26Z</time>
      </trkpt>
      <trkpt lat="45.417" lon="6.44807">
        <ele>2002</ele>
        <time>2018-06-24T12:32:26Z</time>
      </trkpt>
      <trkpt lat="45.41695" lon="6.44803">
        <ele>2002</ele>
        <time>2018-06-24T12:33:26Z</time>
      </trkpt>
      <trkpt lat="45.41692" lon="6.44801">
        <ele>2002</ele>
        <time>2018-06-24T12:34:26Z</time>
      </trkpt>
      <trkpt lat="45.41691" lon="6.44797">
        <ele>2003</ele>
        <time>2018-06-24T12:35:26Z</time>
      </trkpt>
      <trkpt lat="45.41688" lon="6.44786">
        <ele>2004</ele>
        <time>2018-06-24T12:36:26Z</time>
      </trkpt>
      <trkpt lat="45.41686" lon="6.44784">
        <ele>2004</ele>
        <time>2018-06-24T12:37:26Z</time>
      </trkpt>
      <trkpt lat="45.41683" lon="6.44782">
        <ele>2004</ele>
        <time>2018-06-24T12:38:26Z</time>
      </trkpt>
      <trkpt lat="45.41682" lon="6.4478">
        <ele>2004</ele>
        <time>2018-06-24T12:39:26Z</time>
      </trkpt>
      <trkpt lat="45.41678" lon="6.44774">
        <ele>2004</ele>
        <time>2018-06-24T12:40:26Z</time>
      </trkpt>
      <trkpt lat="45.41677" lon="6.44772">
        <ele>2004</ele>
        <time>2018-06-24T12:41:26Z</time>
      </trkpt>
      <trkpt lat="45.41674" lon="6.44751">
        <ele>2005</ele>
        <time>2018-06-24T12:42:26Z</time>
      </trkpt>
      <trkpt lat="45.41674" lon="6.4474">
        <ele>2011</ele>
        <time>2018-06-24T12:43:26Z</time>
      </trkpt>
      <trkpt lat="45.41673" lon="6.44712">
        <ele>2015</ele>
        <time>2018-06-24T12:44:26Z</time>
      </trkpt>
      <trkpt lat="45.4167" lon="6.44689">
        <ele>2014</ele>
        <time>2018-06-24T12:45:26Z</time>
      </trkpt>
      <trkpt lat="45.41669" lon="6.44673">
        <ele>2010</ele>
        <time>2018-06-24T12:46:26Z</time>
      </trkpt>
      <trkpt lat="45.41666" lon="6.44649">
        <ele>1998</ele>
        <time>2018-06-24T12:47:26Z</time>
      </trkpt>
      <trkpt lat="45.41666" lon="6.4464">
        <ele>1996</ele>
        <time>2018-06-24T12:48:26Z</time>
      </trkpt>
      <trkpt lat="45.41663" lon="6.44596">
        <ele>2001</ele>
        <time>2018-06-24T12:49:26Z</time>
      </trkpt>
      <trkpt lat="45.41662" lon="6.44588">
        <ele>2005</ele>
        <time>2018-06-24T12:50:26Z</time>
      </trkpt>
      <trkpt lat="45.41657" lon="6.44559">
        <ele>1997</ele>
        <time>2018-06-24T12:51:26Z</time>
      </trkpt>
      <trkpt lat="45.41653" lon="6.44542">
        <ele>1995</ele>
        <time>2018-06-24T12:52:26Z</time>
      </trkpt>
      <trkpt lat="45.41652" lon="6.44537">
        <ele>1995</ele>
        <time>2018-06-24T12:53:26Z</time>
      </trkpt>
      <trkpt lat="45.41651" lon="6.4453">
        <ele>1995</ele>
        <time>2018-06-24T12:54:26Z</time>
      </trkpt>
      <trkpt lat="45.4165" lon="6.44522">
        <ele>1996</ele>
        <time>2018-06-24T12:55:26Z</time>
      </trkpt>
      <trkpt lat="45.41646" lon="6.44505">
        <ele>1997</ele>
        <time>2018-06-24T12:56:26Z</time>
      </trkpt>
      <trkpt lat="45.41646" lon="6.44499">
        <ele>1997</ele>
        <time>2018-06-24T12:57:26Z</time>
      </trkpt>
      <trkpt lat="45.41646" lon="6.44489">
        <ele>1996</ele>
        <time>2018-06-24T12:58:26Z</time>
      </trkpt>
      <trkpt lat="45.41647" lon="6.44485">
        <ele>1996</ele>
        <time>2018-06-24T12:59:26Z</time>
      </trkpt>
      <trkpt lat="45.4165" lon="6.44476">
        <ele>1996</ele>
        <time>2018-06-24T13:00:26Z</time>
      </trkpt>
      <trkpt lat="45.4165" lon="6.44472">
        <ele>1995</ele>
        <time>2018-06-24T13:01:26Z</time>
      </trkpt>
      <trkpt lat="45.41652" lon="6.44463">
        <ele>1995</ele>
        <time>2018-06-24T13:02:26Z</time>
      </trkpt>
      <trkpt lat="45.41654" lon="6.44458">
        <ele>1995</ele>
        <time>2018-06-24T13:03:26Z</time>
      </trkpt>
      <trkpt lat="45.41659" lon="6.44452">
        <ele>1997</ele>
        <time>2018-06-24T13:04:26Z</time>
      </trkpt>
      <trkpt lat="45.41659" lon="6.44449">
        <ele>1997</ele>
        <time>2018-06-24T13:05:26Z</time>
      </trkpt>
      <trkpt lat="45.41659" lon="6.44444">
        <ele>1998</ele>
        <time>2018-06-24T13:06:26Z</time>
      </trkpt>
      <trkpt lat="45.41658" lon="6.4444">
        <ele>1998</ele>
        <time>2018-06-24T13:07:26Z</time>
      </trkpt>
      <trkpt lat="45.41653" lon="6.4443">
        <ele>2000</ele>
        <time>2018-06-24T13:08:26Z</time>
      </trkpt>
      <trkpt lat="45.41652" lon="6.44427">
        <ele>2000</ele>
        <time>2018-06-24T13:09:26Z</time>
      </trkpt>
      <trkpt lat="45.41651" lon="6.44424">
        <ele>2000</ele>
        <time>2018-06-24T13:10:26Z</time>
      </trkpt>
      <trkpt lat="45.41651" lon="6.44415">
        <ele>2002</ele>
        <time>2018-06-24T13:11:26Z</time>
      </trkpt>
      <trkpt lat="45.41652" lon="6.44404">
        <ele>2001</ele>
        <time>2018-06-24T13:12:26Z</time>
      </trkpt>
      <trkpt lat="45.41651" lon="6.44401">
        <ele>2000</ele>
        <time>2018-06-24T13:13:26Z</time>
      </trkpt>
      <trkpt lat="45.4165" lon="6.44397">
        <ele>1999</ele>
        <time>2018-06-24T13:14:26Z</time>
      </trkpt>
      <trkpt lat="45.41646" lon="6.44391">
        <ele>1997</ele>
        <time>2018-06-24T13:15:26Z</time>
      </trkpt>
      <trkpt lat="45.41642" lon="6.44379">
        <ele>1996</ele>
        <time>2018-06-24T13:16:26Z</time>
      </trkpt>
      <trkpt lat="45.41639" lon="6.44373">
        <ele>1995</ele>
        <time>2018-06-24T13:17:26Z</time>
      </trkpt>
      <trkpt lat="45.41632" lon="6.44356">
        <ele>1994</ele>
        <time>2018-06-24T13:18:26Z</time>
      </trkpt>
      <trkpt lat="45.41632" lon="6.44353">
        <ele>1995</ele>
        <time>2018-06-24T13:19:26Z</time>
      </trkpt>
      <trkpt lat="45.41629" lon="6.44341">
        <ele>1994</ele>
        <time>2018-06-24T13:20:26Z</time>
      </trkpt>
      <trkpt lat="45.41628" lon="6.44338">
        <ele>1994</ele>
        <time>2018-06-24T13:21:26Z</time>
      </trkpt>
      <trkpt lat="45.41624" lon="6.44326">
        <ele>1996</ele>
        <time>2018-06-24T13:22:26Z</time>
      </trkpt>
      <trkpt lat="45.41624" lon="6.44323">
        <ele>1996</ele>
        <time>2018-06-24T13:23:26Z</time>
      </trkpt>
      <trkpt lat="45.41623" lon="6.44319">
        <ele>1995</ele>
        <time>2018-06-24T13:24:26Z</time>
      </trkpt>
      <trkpt lat="45.41623" lon="6.44312">
        <ele>1996</ele>
        <time>2018-06-24T13:25:26Z</time>
      </trkpt>
      <trkpt lat="45.41623" lon="6.44309">
        <ele>1996</ele>
        <time>2018-06-24T13:26:26Z</time>
      </trkpt>
      <trkpt lat="45.41624" lon="6.44305">
        <ele>1996</ele>
        <time>2018-06-24T13:27:26Z</time>
      </trkpt>
      <trkpt lat="45.41625" lon="6.44302">
        <ele>1997</ele>
        <time>2018-06-24T13:28:26Z</time>
      </trkpt>
      <trkpt lat="45.41633" lon="6.44291">
        <ele>2000</ele>
        <time>2018-06-24T13:29:26Z</time>
      </trkpt>
      <trkpt lat="45.41634" lon="6.44287">
        <ele>2000</ele>
        <time>2018-06-24T13:30:26Z</time>
      </trkpt>
      <trkpt lat="45.41634" lon="6.44284">
        <ele>2000</ele>
        <time>2018-06-24T13:31:26Z</time>
      </trkpt>
      <trkpt lat="45.41632" lon="6.44279">
        <ele>2000</ele>
        <time>2018-06-24T13:32:26Z</time>
      </trkpt>
      <trkpt lat="45.41633" lon="6.44277">
        <ele>2000</ele>
        <time>2018-06-24T13:33:26Z</time>
      </trkpt>
      <trkpt lat="45.41633" lon="6.4427">
        <ele>2001</ele>
        <time>2018-06-24T13:34:26Z</time>
      </trkpt>
      <trkpt lat="45.41632" lon="6.44266">
        <ele>2001</ele>
        <time>2018-06-24T13:35:26Z</time>
      </trkpt>
      <trkpt lat="45.41628" lon="6.44262">
        <ele>1999</ele>
        <time>2018-06-24T13:36:26Z</time>
      </trkpt>
      <trkpt lat="45.41625" lon="6.44261">
        <ele>1998</ele>
        <time>2018-06-24T13:37:26Z</time>
      </trkpt>
      <trkpt lat="45.41623" lon="6.44259">
        <ele>1997</ele>
        <time>2018-06-24T13:38:26Z</time>
      </trkpt>
      <trkpt lat="45.41621" lon="6.44257">
        <ele>1996</ele>
        <time>2018-06-24T13:39:26Z</time>
      </trkpt>
      <trkpt lat="45.41619" lon="6.44254">
        <ele>1995</ele>
        <time>2018-06-24T13:40:26Z</time>
      </trkpt>
      <trkpt lat="45.41617" lon="6.44251">
        <ele>1994</ele>
        <time>2018-06-24T13:41:26Z</time>
      </trkpt>
      <trkpt lat="45.41616" lon="6.44248">
        <ele>1993</ele>
        <time>2018-06-24T13:42:26Z</time>
      </trkpt>
      <trkpt lat="45.41615" lon="6.44238">
        <ele>1992</ele>
        <time>2018-06-24T13:43:26Z</time>
      </trkpt>
      <trkpt lat="45.41614" lon="6.44234">
        <ele>1992</ele>
        <time>2018-06-24T13:44:26Z</time>
      </trkpt>
      <trkpt lat="45.4161" lon="6.44219">
        <ele>1991</ele>
        <time>2018-06-24T13:45:26Z</time>
      </trkpt>
      <trkpt lat="45.4161" lon="6.44213">
        <ele>1991</ele>
        <time>2018-06-24T13:46:26Z</time>
      </trkpt>
      <trkpt lat="45.4161" lon="6.44209">
        <ele>1991</ele>
        <time>2018-06-24T13:47:26Z</time>
      </trkpt>
      <trkpt lat="45.41611" lon="6.44198">
        <ele>1991</ele>
        <time>2018-06-24T13:48:26Z</time>
      </trkpt>
      <trkpt lat="45.41614" lon="6.44196">
        <ele>1991</ele>
        <time>2018-06-24T13:49:26Z</time>
      </trkpt>
      <trkpt lat="45.41616" lon="6.44193">
        <ele>1992</ele>
        <time>2018-06-24T13:50:26Z</time>
      </trkpt>
      <trkpt lat="45.41616" lon="6.44191">
        <ele>1992</ele>
        <time>2018-06-24T13:51:26Z</time>
      </trkpt>
      <trkpt lat="45.41613" lon="6.44184">
        <ele>1990</ele>
        <time>2018-06-24T13:52:26Z</time>
      </trkpt>
      <trkpt lat="45.41612" lon="6.44179">
        <ele>1989</ele>
        <time>2018-06-24T13:53:26Z</time>
      </trkpt>
      <trkpt lat="45.41612" lon="6.44175">
        <ele>1988</ele>
        <time>2018-06-24T13:54:26Z</time>
      </trkpt>
      <trkpt lat="45.41613" lon="6.4417">
        <ele>1988</ele>
        <time>2018-06-24T13:55:26Z</time>
      </trkpt>
      <trkpt lat="45.41617" lon="6.44141">
        <ele>1983</ele>
        <time>2018-06-24T13:56:26Z</time>
      </trkpt>
      <trkpt lat="45.41617" lon="6.44128">
        <ele>1982</ele>
        <time>2018-06-24T13:57:26Z</time>
      </trkpt>
      <trkpt lat="45.41618" lon="6.44121">
        <ele>1982</ele>
        <time>2018-06-24T13:58:26Z</time>
      </trkpt>
      <trkpt lat="45.41624" lon="6.44092">
        <ele>1981</ele>
        <time>2018-06-24T13:59:26Z</time>
      </trkpt>
      <trkpt lat="45.41631" lon="6.44065">
        <ele>1974</ele>
        <time>2018-06-24T14:00:26Z</time>
      </trkpt>
      <trkpt lat="45.41631" lon="6.44059">
        <ele>1973</ele>
        <time>2018-06-24T14:01:26Z</time>
      </trkpt>
      <trkpt lat="45.41631" lon="6.44053">
        <ele>1972</ele>
        <time>2018-06-24T14:02:26Z</time>
      </trkpt>
      <trkpt lat="45.41632" lon="6.44048">
        <ele>1972</ele>
        <time>2018-06-24T14:03:26Z</time>
      </trkpt>
      <trkpt lat="45.41638" lon="6.44022">
        <ele>1972</ele>
        <time>2018-06-24T14:04:26Z</time>
      </trkpt>
      <trkpt lat="45.41638" lon="6.44018">
        <ele>1972</ele>
        <time>2018-06-24T14:05:26Z</time>
      </trkpt>
      <trkpt lat="45.41639" lon="6.44005">
        <ele>1972</ele>
        <time>2018-06-24T14:06:26Z</time>
      </trkpt>
      <trkpt lat="45.4164" lon="6.43998">
        <ele>1965</ele>
        <time>2018-06-24T14:07:26Z</time>
      </trkpt>
      <trkpt lat="45.41641" lon="6.43993">
        <ele>1965</ele>
        <time>2018-06-24T14:08:26Z</time>
      </trkpt>
      <trkpt lat="45.41647" lon="6.4398">
        <ele>1965</ele>
        <time>2018-06-24T14:09:26Z</time>
      </trkpt>
      <trkpt lat="45.41651" lon="6.43964">
        <ele>1963</ele>
        <time>2018-06-24T14:10:26Z</time>
      </trkpt>
      <trkpt lat="45.41651" lon="6.43962">
        <ele>1963</ele>
        <time>2018-06-24T14:11:26Z</time>
      </trkpt>
      <trkpt lat="45.4165" lon="6.43958">
        <ele>1962</ele>
        <time>2018-06-24T14:12:26Z</time>
      </trkpt>
      <trkpt lat="45.41651" lon="6.43956">
        <ele>1962</ele>
        <time>2018-06-24T14:13:26Z</time>
      </trkpt>
      <trkpt lat="45.41656" lon="6.43948">
        <ele>1962</ele>
        <time>2018-06-24T14:14:26Z</time>
      </trkpt>
      <trkpt lat="45.41659" lon="6.43937">
        <ele>1963</ele>
        <time>2018-06-24T14:15:26Z</time>
      </trkpt>
      <trkpt lat="45.41663" lon="6.43931">
        <ele>1964</ele>
        <time>2018-06-24T14:16:26Z</time>
      </trkpt>
      <trkpt lat="45.41664" lon="6.43928">
        <ele>1964</ele>
        <time>2018-06-24T14:17:26Z</time>
      </trkpt>
      <trkpt lat="45.41667" lon="6.43921">
        <ele>1973</ele>
        <time>2018-06-24T14:18:26Z</time>
      </trkpt>
      <trkpt lat="45.41668" lon="6.43918">
        <ele>1970</ele>
        <time>2018-06-24T14:19:26Z</time>
      </trkpt>
      <trkpt lat="45.41672" lon="6.43897">
        <ele>1977</ele>
        <time>2018-06-24T14:20:26Z</time>
      </trkpt>
      <trkpt lat="45.41673" lon="6.43894">
        <ele>1978</ele>
        <time>2018-06-24T14:21:26Z</time>
      </trkpt>
      <trkpt lat="45.41681" lon="6.4388">
        <ele>1980</ele>
        <time>2018-06-24T14:22:26Z</time>
      </trkpt>
      <trkpt lat="45.41682" lon="6.43876">
        <ele>1980</ele>
        <time>2018-06-24T14:23:26Z</time>
      </trkpt>
      <trkpt lat="45.41683" lon="6.43872">
        <ele>1980</ele>
        <time>2018-06-24T14:24:26Z</time>
      </trkpt>
      <trkpt lat="45.41686" lon="6.43855">
        <ele>1978</ele>
        <time>2018-06-24T14:25:26Z</time>
      </trkpt>
      <trkpt lat="45.4169" lon="6.43824">
        <ele>1973</ele>
        <time>2018-06-24T14:26:26Z</time>
      </trkpt>
      <trkpt lat="45.41691" lon="6.43822">
        <ele>1974</ele>
        <time>2018-06-24T14:27:26Z</time>
      </trkpt>
      <trkpt lat="45.41696" lon="6.43807">
        <ele>1976</ele>
        <time>2018-06-24T14:28:26Z</time>
      </trkpt>
      <trkpt lat="45.417" lon="6.43786">
        <ele>1977</ele>
        <time>2018-06-24T14:29:26Z</time>
      </trkpt>
      <trkpt lat="45.41701" lon="6.43781">
        <ele>1977</ele>
        <time>2018-06-24T14:30:26Z</time>
      </trkpt>
      <trkpt lat="45.41701" lon="6.43768">
        <ele>1976</ele>
        <time>2018-06-24T14:31:26Z</time>
      </trkpt>
      <trkpt lat="45.41707" lon="6.43743">
        <ele>1975</ele>
        <time>2018-06-24T14:32:26Z</time>
      </trkpt>
      <trkpt lat="45.41707" lon="6.43739">
        <ele>1975</ele>
        <time>2018-06-24T14:33:26Z</time>
      </trkpt>
      <trkpt lat="45.41708" lon="6.43725">
        <ele>1975</ele>
        <time>2018-06-24T14:34:26Z</time>
      </trkpt>
      <trkpt lat="45.41717" lon="6.43681">
        <ele>1977</ele>
        <time>2018-06-24T14:35:26Z</time>
      </trkpt>
      <trkpt lat="45.41717" lon="6.43678">
        <ele>1977</ele>
        <time>2018-06-24T14:36:26Z</time>
      </trkpt>
      <trkpt lat="45.41713" lon="6.43668">
        <ele>1976</ele>
        <time>2018-06-24T14:37:26Z</time>
      </trkpt>
      <trkpt lat="45.41711" lon="6.43666">
        <ele>1974</ele>
        <time>2018-06-24T14:38:26Z</time>
      </trkpt>
      <trkpt lat="45.4171" lon="6.43664">
        <ele>1974</ele>
        <time>2018-06-24T14:39:26Z</time>
      </trkpt>
      <trkpt lat="45.41708" lon="6.43662">
        <ele>1974</ele>
        <time>2018-06-24T14:40:26Z</time>
      </trkpt>
      <trkpt lat="45.41704" lon="6.4366">
        <ele>1973</ele>
        <time>2018-06-24T14:41:26Z</time>
      </trkpt>
      <trkpt lat="45.41702" lon="6.4366">
        <ele>1972</ele>
        <time>2018-06-24T14:42:26Z</time>
      </trkpt>
      <trkpt lat="45.417" lon="6.4366">
        <ele>1972</ele>
        <time>2018-06-24T14:43:26Z</time>
      </trkpt>
      <trkpt lat="45.41698" lon="6.43659">
        <ele>1972</ele>
        <time>2018-06-24T14:44:26Z</time>
      </trkpt>
      <trkpt lat="45.41697" lon="6.43657">
        <ele>1971</ele>
        <time>2018-06-24T14:45:26Z</time>
      </trkpt>
      <trkpt lat="45.41697" lon="6.43654">
        <ele>1972</ele>
        <time>2018-06-24T14:46:26Z</time>
      </trkpt>
      <trkpt lat="45.41695" lon="6.43635">
        <ele>1972</ele>
        <time>2018-06-24T14:47:26Z</time>
      </trkpt>
      <trkpt lat="45.41697" lon="6.43628">
        <ele>1972</ele>
        <time>2018-06-24T14:48:26Z</time>
      </trkpt>
      <trkpt lat="45.41696" lon="6.43625">
        <ele>1972</ele>
        <time>2018-06-24T14:49:26Z</time>
      </trkpt>
      <trkpt lat="45.41697" lon="6.43611">
        <ele>1972</ele>
        <time>2018-06-24T14:50:26Z</time>
      </trkpt>
      <trkpt lat="45.41696" lon="6.43613">
        <ele>1971</ele>
        <time>2018-06-24T14:51:26Z</time>
      </trkpt>
      <trkpt lat="45.41692" lon="6.43614">
        <ele>1971</ele>
        <time>2018-06-24T14:52:26Z</time>
      </trkpt>
      <trkpt lat="45.4169" lon="6.43612">
        <ele>1971</ele>
        <time>2018-06-24T14:53:26Z</time>
      </trkpt>
      <trkpt lat="45.41688" lon="6.43606">
        <ele>1970</ele>
        <time>2018-06-24T14:54:26Z</time>
      </trkpt>
      <trkpt lat="45.41688" lon="6.43601">
        <ele>1970</ele>
        <time>2018-06-24T14:55:26Z</time>
      </trkpt>
      <trkpt lat="45.41701" lon="6.43564">
        <ele>1970</ele>
        <time>2018-06-24T14:56:26Z</time>
      </trkpt>
      <trkpt lat="45.41705" lon="6.43555">
        <ele>1970</ele>
        <time>2018-06-24T14:57:26Z</time>
      </trkpt>
      <trkpt lat="45.41713" lon="6.43537">
        <ele>1971</ele>
        <time>2018-06-24T14:58:26Z</time>
      </trkpt>
      <trkpt lat="45.41715" lon="6.43529">
        <ele>1971</ele>
        <time>2018-06-24T14:59:26Z</time>
      </trkpt>
      <trkpt lat="45.41715" lon="6.43525">
        <ele>1971</ele>
        <time>2018-06-24T15:00:26Z</time>
      </trkpt>
      <trkpt lat="45.41712" lon="6.43516">
        <ele>1970</ele>
        <time>2018-06-24T15:01:26Z</time>
      </trkpt>
      <trkpt lat="45.41709" lon="6.43514">
        <ele>1970</ele>
        <time>2018-06-24T15:02:26Z</time>
      </trkpt>
      <trkpt lat="45.41706" lon="6.43513">
        <ele>1969</ele>
        <time>2018-06-24T15:03:26Z</time>
      </trkpt>
      <trkpt lat="45.41703" lon="6.43512">
        <ele>1969</ele>
        <time>2018-06-24T15:04:26Z</time>
      </trkpt>
      <trkpt lat="45.41697" lon="6.43514">
        <ele>1968</ele>
        <time>2018-06-24T15:05:26Z</time>
      </trkpt>
      <trkpt lat="45.41693" lon="6.43516">
        <ele>1967</ele>
        <time>2018-06-24T15:06:26Z</time>
      </trkpt>
      <trkpt lat="45.41691" lon="6.43518">
        <ele>1967</ele>
        <time>2018-06-24T15:07:26Z</time>
      </trkpt>
      <trkpt lat="45.4169" lon="6.43522">
        <ele>1967</ele>
        <time>2018-06-24T15:08:26Z</time>
      </trkpt>
      <trkpt lat="45.41687" lon="6.43536">
        <ele>1968</ele>
        <time>2018-06-24T15:09:26Z</time>
      </trkpt>
      <trkpt lat="45.41686" lon="6.43548">
        <ele>1968</ele>
        <time>2018-06-24T15:10:26Z</time>
      </trkpt>
      <trkpt lat="45.41684" lon="6.43553">
        <ele>1968</ele>
        <time>2018-06-24T15:11:26Z</time>
      </trkpt>
      <trkpt lat="45.41681" lon="6.43561">
        <ele>1967</ele>
        <time>2018-06-24T15:12:26Z</time>
      </trkpt>
      <trkpt lat="45.41672" lon="6.43576">
        <ele>1964</ele>
        <time>2018-06-24T15:13:26Z</time>
      </trkpt>
      <trkpt lat="45.41666" lon="6.43582">
        <ele>1961</ele>
        <time>2018-06-24T15:14:26Z</time>
      </trkpt>
      <trkpt lat="45.41662" lon="6.43588">
        <ele>1959</ele>
        <time>2018-06-24T15:15:26Z</time>
      </trkpt>
      <trkpt lat="45.41658" lon="6.43591">
        <ele>1957</ele>
        <time>2018-06-24T15:16:26Z</time>
      </trkpt>
      <trkpt lat="45.41648" lon="6.43597">
        <ele>1955</ele>
        <time>2018-06-24T15:17:26Z</time>
      </trkpt>
      <trkpt lat="45.41634" lon="6.43603">
        <ele>1953</ele>
        <time>2018-06-24T15:18:26Z</time>
      </trkpt>
      <trkpt lat="45.41631" lon="6.43604">
        <ele>1952</ele>
        <time>2018-06-24T15:19:26Z</time>
      </trkpt>
      <trkpt lat="45.41626" lon="6.43608">
        <ele>1951</ele>
        <time>2018-06-24T15:20:26Z</time>
      </trkpt>
      <trkpt lat="45.41623" lon="6.43612">
        <ele>1951</ele>
        <time>2018-06-24T15:21:26Z</time>
      </trkpt>
      <trkpt lat="45.41607" lon="6.43634">
        <ele>1949</ele>
        <time>2018-06-24T15:22:26Z</time>
      </trkpt>
      <trkpt lat="45.41604" lon="6.43637">
        <ele>1949</ele>
        <time>2018-06-24T15:23:26Z</time>
      </trkpt>
      <trkpt lat="45.41598" lon="6.43642">
        <ele>1948</ele>
        <time>2018-06-24T15:24:26Z</time>
      </trkpt>
      <trkpt lat="45.41595" lon="6.43644">
        <ele>1947</ele>
        <time>2018-06-24T15:25:26Z</time>
      </trkpt>
      <trkpt lat="45.41588" lon="6.43645">
        <ele>1946</ele>
        <time>2018-06-24T15:26:26Z</time>
      </trkpt>
      <trkpt lat="45.41585" lon="6.43645">
        <ele>1946</ele>
        <time>2018-06-24T15:27:26Z</time>
      </trkpt>
      <trkpt lat="45.41577" lon="6.43645">
        <ele>1939</ele>
        <time>2018-06-24T15:28:26Z</time>
      </trkpt>
      <trkpt lat="45.41575" lon="6.43646">
        <ele>1939</ele>
        <time>2018-06-24T15:29:26Z</time>
      </trkpt>
      <trkpt lat="45.41571" lon="6.43647">
        <ele>1939</ele>
        <time>2018-06-24T15:30:26Z</time>
      </trkpt>
      <trkpt lat="45.41568" lon="6.43649">
        <ele>1939</ele>
        <time>2018-06-24T15:31:26Z</time>
      </trkpt>
      <trkpt lat="45.41562" lon="6.43657">
        <ele>1939</ele>
        <time>2018-06-24T15:32:26Z</time>
      </trkpt>
      <trkpt lat="45.4156" lon="6.43662">
        <ele>1938</ele>
        <time>2018-06-24T15:33:26Z</time>
      </trkpt>
      <trkpt lat="45.41552" lon="6.4369">
        <ele>1932</ele>
        <time>2018-06-24T15:34:26Z</time>
      </trkpt>
      <trkpt lat="45.41552" lon="6.43694">
        <ele>1932</ele>
        <time>2018-06-24T15:35:26Z</time>
      </trkpt>
      <trkpt lat="45.41552" lon="6.4371">
        <ele>1932</ele>
        <time>2018-06-24T15:36:26Z</time>
      </trkpt>
      <trkpt lat="45.41553" lon="6.43715">
        <ele>1932</ele>
        <time>2018-06-24T15:37:26Z</time>
      </trkpt>
      <trkpt lat="45.41557" lon="6.43733">
        <ele>1932</ele>
        <time>2018-06-24T15:38:26Z</time>
      </trkpt>
      <trkpt lat="45.41558" lon="6.43747">
        <ele>1933</ele>
        <time>2018-06-24T15:39:26Z</time>
      </trkpt>
      <trkpt lat="45.41558" lon="6.4375">
        <ele>1932</ele>
        <time>2018-06-24T15:40:26Z</time>
      </trkpt>
      <trkpt lat="45.41557" lon="6.43758">
        <ele>1930</ele>
        <time>2018-06-24T15:41:26Z</time>
      </trkpt>
      <trkpt lat="45.41552" lon="6.43778">
        <ele>1928</ele>
        <time>2018-06-24T15:42:26Z</time>
      </trkpt>
      <trkpt lat="45.41552" lon="6.4378">
        <ele>1927</ele>
        <time>2018-06-24T15:43:26Z</time>
      </trkpt>
      <trkpt lat="45.41553" lon="6.43798">
        <ele>1927</ele>
        <time>2018-06-24T15:44:26Z</time>
      </trkpt>
      <trkpt lat="45.41551" lon="6.43804">
        <ele>1927</ele>
        <time>2018-06-24T15:45:26Z</time>
      </trkpt>
      <trkpt lat="45.4155" lon="6.43805">
        <ele>1927</ele>
        <time>2018-06-24T15:46:26Z</time>
      </trkpt>
      <trkpt lat="45.41546" lon="6.43805">
        <ele>1926</ele>
        <time>2018-06-24T15:47:26Z</time>
      </trkpt>
      <trkpt lat="45.41545" lon="6.43804">
        <ele>1926</ele>
        <time>2018-06-24T15:48:26Z</time>
      </trkpt>
      <trkpt lat="45.41541" lon="6.43798">
        <ele>1926</ele>
        <time>2018-06-24T15:49:26Z</time>
      </trkpt>
      <trkpt lat="45.41535" lon="6.4378">
        <ele>1925</ele>
        <time>2018-06-24T15:50:26Z</time>
      </trkpt>
      <trkpt lat="45.41531" lon="6.4376">
        <ele>1924</ele>
        <time>2018-06-24T15:51:26Z</time>
      </trkpt>
      <trkpt lat="45.4153" lon="6.43758">
        <ele>1924</ele>
        <time>2018-06-24T15:52:26Z</time>
      </trkpt>
      <trkpt lat="45.41528" lon="6.43755">
        <ele>1924</ele>
        <time>2018-06-24T15:53:26Z</time>
      </trkpt>
      <trkpt lat="45.41526" lon="6.43755">
        <ele>1923</ele>
        <time>2018-06-24T15:54:26Z</time>
      </trkpt>
      <trkpt lat="45.41524" lon="6.43756">
        <ele>1923</ele>
        <time>2018-06-24T15:55:26Z</time>
      </trkpt>
      <trkpt lat="45.41523" lon="6.43757">
        <ele>1923</ele>
        <time>2018-06-24T15:56:26Z</time>
      </trkpt>
      <trkpt lat="45.41522" lon="6.43762">
        <ele>1923</ele>
        <time>2018-06-24T15:57:26Z</time>
      </trkpt>
      <trkpt lat="45.41522" lon="6.43766">
        <ele>1923</ele>
        <time>2018-06-24T15:58:26Z</time>
      </trkpt>
      <trkpt lat="45.41521" lon="6.43783">
        <ele>1923</ele>
        <time>2018-06-24T15:59:26Z</time>
      </trkpt>
      <trkpt lat="45.41519" lon="6.43787">
        <ele>1923</ele>
        <time>2018-06-24T16:00:26Z</time>
      </trkpt>
      <trkpt lat="45.41514" lon="6.43814">
        <ele>1921</ele>
        <time>2018-06-24T16:01:26Z</time>
      </trkpt>
      <trkpt lat="45.41513" lon="6.43826">
        <ele>1919</ele>
        <time>2018-06-24T16:02:26Z</time>
      </trkpt>
      <trkpt lat="45.41512" lon="6.43828">
        <ele>1919</ele>
        <time>2018-06-24T16:03:26Z</time>
      </trkpt>
      <trkpt lat="45.4151" lon="6.43831">
        <ele>1918</ele>
        <time>2018-06-24T16:04:26Z</time>
      </trkpt>
      <trkpt lat="45.41508" lon="6.43832">
        <ele>1917</ele>
        <time>2018-06-24T16:05:26Z</time>
      </trkpt>
      <trkpt lat="45.41505" lon="6.43832">
        <ele>1916</ele>
        <time>2018-06-24T16:06:26Z</time>
      </trkpt>
      <trkpt lat="45.41504" lon="6.43831">
        <ele>1916</ele>
        <time>2018-06-24T16:07:26Z</time>
      </trkpt>
      <trkpt lat="45.41501" lon="6.43827">
        <ele>1917</ele>
        <time>2018-06-24T16:08:26Z</time>
      </trkpt>
      <trkpt lat="45.41499" lon="6.43818">
        <ele>1912</ele>
        <time>2018-06-24T16:09:26Z</time>
      </trkpt>
      <trkpt lat="45.41498" lon="6.43813">
        <ele>1912</ele>
        <time>2018-06-24T16:10:26Z</time>
      </trkpt>
      <trkpt lat="45.41497" lon="6.43797">
        <ele>1912</ele>
        <time>2018-06-24T16:11:26Z</time>
      </trkpt>
      <trkpt lat="45.41497" lon="6.43792">
        <ele>1912</ele>
        <time>2018-06-24T16:12:26Z</time>
      </trkpt>
      <trkpt lat="45.41499" lon="6.43747">
        <ele>1917</ele>
        <time>2018-06-24T16:13:26Z</time>
      </trkpt>
      <trkpt lat="45.41499" lon="6.43728">
        <ele>1920</ele>
        <time>2018-06-24T16:14:26Z</time>
      </trkpt>
      <trkpt lat="45.41498" lon="6.43725">
        <ele>1920</ele>
        <time>2018-06-24T16:15:26Z</time>
      </trkpt>
      <trkpt lat="45.41496" lon="6.4372">
        <ele>1921</ele>
        <time>2018-06-24T16:16:26Z</time>
      </trkpt>
      <trkpt lat="45.41494" lon="6.43719">
        <ele>1921</ele>
        <time>2018-06-24T16:17:26Z</time>
      </trkpt>
      <trkpt lat="45.4149" lon="6.43719">
        <ele>1921</ele>
        <time>2018-06-24T16:18:26Z</time>
      </trkpt>
      <trkpt lat="45.41486" lon="6.43721">
        <ele>1921</ele>
        <time>2018-06-24T16:19:26Z</time>
      </trkpt>
      <trkpt lat="45.41481" lon="6.43725">
        <ele>1921</ele>
        <time>2018-06-24T16:20:26Z</time>
      </trkpt>
      <trkpt lat="45.41471" lon="6.4374">
        <ele>1920</ele>
        <time>2018-06-24T16:21:26Z</time>
      </trkpt>
      <trkpt lat="45.4146" lon="6.43758">
        <ele>1911</ele>
        <time>2018-06-24T16:22:26Z</time>
      </trkpt>
      <trkpt lat="45.41457" lon="6.43761">
        <ele>1911</ele>
        <time>2018-06-24T16:23:26Z</time>
      </trkpt>
      <trkpt lat="45.41452" lon="6.43766">
        <ele>1911</ele>
        <time>2018-06-24T16:24:26Z</time>
      </trkpt>
      <trkpt lat="45.4145" lon="6.43766">
        <ele>1911</ele>
        <time>2018-06-24T16:25:26Z</time>
      </trkpt>
      <trkpt lat="45.41445" lon="6.43767">
        <ele>1911</ele>
        <time>2018-06-24T16:26:26Z</time>
      </trkpt>
      <trkpt lat="45.41443" lon="6.43766">
        <ele>1911</ele>
        <time>2018-06-24T16:27:26Z</time>
      </trkpt>
      <trkpt lat="45.41429" lon="6.43757">
        <ele>1911</ele>
        <time>2018-06-24T16:28:26Z</time>
      </trkpt>
      <trkpt lat="45.41425" lon="6.43756">
        <ele>1912</ele>
        <time>2018-06-24T16:29:26Z</time>
      </trkpt>
      <trkpt lat="45.41419" lon="6.43757">
        <ele>1912</ele>
        <time>2018-06-24T16:30:26Z</time>
      </trkpt>
      <trkpt lat="45.41417" lon="6.43758">
        <ele>1912</ele>
        <time>2018-06-24T16:31:26Z</time>
      </trkpt>
      <trkpt lat="45.41408" lon="6.43775">
        <ele>1908</ele>
        <time>2018-06-24T16:32:26Z</time>
      </trkpt>
      <trkpt lat="45.41406" lon="6.43777">
        <ele>1908</ele>
        <time>2018-06-24T16:33:26Z</time>
      </trkpt>
      <trkpt lat="45.41401" lon="6.43783">
        <ele>1907</ele>
        <time>2018-06-24T16:34:26Z</time>
      </trkpt>
      <trkpt lat="45.41398" lon="6.43784">
        <ele>1907</ele>
        <time>2018-06-24T16:35:26Z</time>
      </trkpt>
      <trkpt lat="45.41392" lon="6.43785">
        <ele>1907</ele>
        <time>2018-06-24T16:36:26Z</time>
      </trkpt>
      <trkpt lat="45.41384" lon="6.43784">
        <ele>1907</ele>
        <time>2018-06-24T16:37:26Z</time>
      </trkpt>
      <trkpt lat="45.41381" lon="6.43785">
        <ele>1907</ele>
        <time>2018-06-24T16:38:26Z</time>
      </trkpt>
      <trkpt lat="45.41378" lon="6.43787">
        <ele>1907</ele>
        <time>2018-06-24T16:39:26Z</time>
      </trkpt>
      <trkpt lat="45.41375" lon="6.43795">
        <ele>1906</ele>
        <time>2018-06-24T16:40:26Z</time>
      </trkpt>
      <trkpt lat="45.41374" lon="6.43802">
        <ele>1906</ele>
        <time>2018-06-24T16:41:26Z</time>
      </trkpt>
      <trkpt lat="45.41369" lon="6.4382">
        <ele>1904</ele>
        <time>2018-06-24T16:42:26Z</time>
      </trkpt>
      <trkpt lat="45.41359" lon="6.43854">
        <ele>1892</ele>
        <time>2018-06-24T16:43:26Z</time>
      </trkpt>
      <trkpt lat="45.41355" lon="6.43876">
        <ele>1889</ele>
        <time>2018-06-24T16:44:26Z</time>
      </trkpt>
      <trkpt lat="45.41354" lon="6.43882">
        <ele>1889</ele>
        <time>2018-06-24T16:45:26Z</time>
      </trkpt>
      <trkpt lat="45.41348" lon="6.439">
        <ele>1886</ele>
        <time>2018-06-24T16:46:26Z</time>
      </trkpt>
      <trkpt lat="45.41347" lon="6.43902">
        <ele>1885</ele>
        <time>2018-06-24T16:47:26Z</time>
      </trkpt>
      <trkpt lat="45.41343" lon="6.43908">
        <ele>1884</ele>
        <time>2018-06-24T16:48:26Z</time>
      </trkpt>
      <trkpt lat="45.41342" lon="6.4391">
        <ele>1883</ele>
        <time>2018-06-24T16:49:26Z</time>
      </trkpt>
      <trkpt lat="45.4134" lon="6.43911">
        <ele>1882</ele>
        <time>2018-06-24T16:50:26Z</time>
      </trkpt>
      <trkpt lat="45.41339" lon="6.43912">
        <ele>1882</ele>
        <time>2018-06-24T16:51:26Z</time>
      </trkpt>
      <trkpt lat="45.41333" lon="6.43915">
        <ele>1880</ele>
        <time>2018-06-24T16:52:26Z</time>
      </trkpt>
      <trkpt lat="45.41331" lon="6.43916">
        <ele>1880</ele>
        <time>2018-06-24T16:53:26Z</time>
      </trkpt>
      <trkpt lat="45.4133" lon="6.43915">
        <ele>1881</ele>
        <time>2018-06-24T16:54:26Z</time>
      </trkpt>
      <trkpt lat="45.41329" lon="6.43917">
        <ele>1879</ele>
        <time>2018-06-24T16:55:26Z</time>
      </trkpt>
      <trkpt lat="45.41327" lon="6.4392">
        <ele>1878</ele>
        <time>2018-06-24T16:56:26Z</time>
      </trkpt>
      <trkpt lat="45.41325" lon="6.4392">
        <ele>1878</ele>
        <time>2018-06-24T16:57:26Z</time>
      </trkpt>
      <trkpt lat="45.41317" lon="6.43914">
        <ele>1886</ele>
        <time>2018-06-24T16:58:26Z</time>
      </trkpt>
      <trkpt lat="45.41315" lon="6.43913">
        <ele>1887</ele>
        <time>2018-06-24T16:59:26Z</time>
      </trkpt>
      <trkpt lat="45.41312" lon="6.43912">
        <ele>1887</ele>
        <time>2018-06-24T17:00:26Z</time>
      </trkpt>
      <trkpt lat="45.4131" lon="6.43912">
        <ele>1888</ele>
        <time>2018-06-24T17:01:26Z</time>
      </trkpt>
      <trkpt lat="45.41305" lon="6.43918">
        <ele>1878</ele>
        <time>2018-06-24T17:02:26Z</time>
      </trkpt>
      <trkpt lat="45.41301" lon="6.43943">
        <ele>1877</ele>
        <time>2018-06-24T17:03:26Z</time>
      </trkpt>
      <trkpt lat="45.4129" lon="6.44054">
        <ele>1865</ele>
        <time>2018-06-24T17:04:26Z</time>
      </trkpt>
      <trkpt lat="45.4129" lon="6.44058">
        <ele>1864</ele>
        <time>2018-06-24T17:05:26Z</time>
      </trkpt>
      <trkpt lat="45.41292" lon="6.44108">
        <ele>1858</ele>
        <time>2018-06-24T17:06:26Z</time>
      </trkpt>
      <trkpt lat="45.41288" lon="6.44175">
        <ele>1850</ele>
        <time>2018-06-24T17:07:26Z</time>
      </trkpt>
      <trkpt lat="45.41285" lon="6.44195">
        <ele>1849</ele>
        <time>2018-06-24T17:08:26Z</time>
      </trkpt>
      <trkpt lat="45.41285" lon="6.442">
        <ele>1849</ele>
        <time>2018-06-24T17:09:26Z</time>
      </trkpt>
      <trkpt lat="45.41285" lon="6.44214">
        <ele>1848</ele>
        <time>2018-06-24T17:10:26Z</time>
      </trkpt>
      <trkpt lat="45.41283" lon="6.44245">
        <ele>1846</ele>
        <time>2018-06-24T17:11:26Z</time>
      </trkpt>
      <trkpt lat="45.41281" lon="6.44258">
        <ele>1840</ele>
        <time>2018-06-24T17:12:26Z</time>
      </trkpt>
      <trkpt lat="45.41274" lon="6.44308">
        <ele>1837</ele>
        <time>2018-06-24T17:13:26Z</time>
      </trkpt>
      <trkpt lat="45.41273" lon="6.44318">
        <ele>1836</ele>
        <time>2018-06-24T17:14:26Z</time>
      </trkpt>
      <trkpt lat="45.41272" lon="6.44337">
        <ele>1831</ele>
        <time>2018-06-24T17:15:26Z</time>
      </trkpt>
      <trkpt lat="45.4127" lon="6.44345">
        <ele>1830</ele>
        <time>2018-06-24T17:16:26Z</time>
      </trkpt>
      <trkpt lat="45.41268" lon="6.44364">
        <ele>1830</ele>
        <time>2018-06-24T17:17:26Z</time>
      </trkpt>
      <trkpt lat="45.41266" lon="6.44375">
        <ele>1829</ele>
        <time>2018-06-24T17:18:26Z</time>
      </trkpt>
      <trkpt lat="45.41255" lon="6.44429">
        <ele>1820</ele>
        <time>2018-06-24T17:19:26Z</time>
      </trkpt>
      <trkpt lat="45.41255" lon="6.44436">
        <ele>1820</ele>
        <time>2018-06-24T17:20:26Z</time>
      </trkpt>
      <trkpt lat="45.41252" lon="6.44488">
        <ele>1815</ele>
        <time>2018-06-24T17:21:26Z</time>
      </trkpt>
      <trkpt lat="45.41252" lon="6.44496">
        <ele>1812</ele>
        <time>2018-06-24T17:22:26Z</time>
      </trkpt>
      <trkpt lat="45.41252" lon="6.44514">
        <ele>1812</ele>
        <time>2018-06-24T17:23:26Z</time>
      </trkpt>
      <trkpt lat="45.41251" lon="6.44522">
        <ele>1812</ele>
        <time>2018-06-24T17:24:26Z</time>
      </trkpt>
      <trkpt lat="45.41247" lon="6.44546">
        <ele>1811</ele>
        <time>2018-06-24T17:25:26Z</time>
      </trkpt>
      <trkpt lat="45.41247" lon="6.44555">
        <ele>1809</ele>
        <time>2018-06-24T17:26:26Z</time>
      </trkpt>
      <trkpt lat="45.41242" lon="6.44634">
        <ele>1800</ele>
        <time>2018-06-24T17:27:26Z</time>
      </trkpt>
      <trkpt lat="45.41236" lon="6.44674">
        <ele>1791</ele>
        <time>2018-06-24T17:28:26Z</time>
      </trkpt>
      <trkpt lat="45.41234" lon="6.44685">
        <ele>1791</ele>
        <time>2018-06-24T17:29:26Z</time>
      </trkpt>
      <trkpt lat="45.41221" lon="6.44722">
        <ele>1788</ele>
        <time>2018-06-24T17:30:26Z</time>
      </trkpt>
      <trkpt lat="45.41214" lon="6.4475">
        <ele>1786</ele>
        <time>2018-06-24T17:31:26Z</time>
      </trkpt>
      <trkpt lat="45.41211" lon="6.44757">
        <ele>1777</ele>
        <time>2018-06-24T17:32:26Z</time>
      </trkpt>
      <trkpt lat="45.41185" lon="6.4483">
        <ele>1771</ele>
        <time>2018-06-24T17:33:26Z</time>
      </trkpt>
      <trkpt lat="45.41176" lon="6.44848">
        <ele>1762</ele>
        <time>2018-06-24T17:34:26Z</time>
      </trkpt>
      <trkpt lat="45.41173" lon="6.44856">
        <ele>1761</ele>
        <time>2018-06-24T17:35:26Z</time>
      </trkpt>
      <trkpt lat="45.41161" lon="6.44892">
        <ele>1758</ele>
        <time>2018-06-24T17:36:26Z</time>
      </trkpt>
      <trkpt lat="45.41158" lon="6.44897">
        <ele>1757</ele>
        <time>2018-06-24T17:37:26Z</time>
      </trkpt>
      <trkpt lat="45.41148" lon="6.4491">
        <ele>1756</ele>
        <time>2018-06-24T17:38:26Z</time>
      </trkpt>
      <trkpt lat="45.41146" lon="6.44914">
        <ele>1756</ele>
        <time>2018-06-24T17:39:26Z</time>
      </trkpt>
      <trkpt lat="45.41133" lon="6.44945">
        <ele>1742</ele>
        <time>2018-06-24T17:40:26Z</time>
      </trkpt>
      <trkpt lat="45.41126" lon="6.44953">
        <ele>1742</ele>
        <time>2018-06-24T17:41:26Z</time>
      </trkpt>
      <trkpt lat="45.41124" lon="6.44956">
        <ele>1742</ele>
        <time>2018-06-24T17:42:26Z</time>
      </trkpt>
      <trkpt lat="45.41118" lon="6.44971">
        <ele>1740</ele>
        <time>2018-06-24T17:43:26Z</time>
      </trkpt>
      <trkpt lat="45.41115" lon="6.44975">
        <ele>1740</ele>
        <time>2018-06-24T17:44:26Z</time>
      </trkpt>
      <trkpt lat="45.41113" lon="6.44977">
        <ele>1740</ele>
        <time>2018-06-24T17:45:26Z</time>
      </trkpt>
      <trkpt lat="45.41086" lon="6.44993">
        <ele>1740</ele>
        <time>2018-06-24T17:46:26Z</time>
      </trkpt>
      <trkpt lat="45.41084" lon="6.44995">
        <ele>1739</ele>
        <time>2018-06-24T17:47:26Z</time>
      </trkpt>
      <trkpt lat="45.41079" lon="6.45001">
        <ele>1737</ele>
        <time>2018-06-24T17:48:26Z</time>
      </trkpt>
      <trkpt lat="45.41078" lon="6.45004">
        <ele>1735</ele>
        <time>2018-06-24T17:49:26Z</time>
      </trkpt>
      <trkpt lat="45.41077" lon="6.45013">
        <ele>1732</ele>
        <time>2018-06-24T17:50:26Z</time>
      </trkpt>
      <trkpt lat="45.41078" lon="6.45027">
        <ele>1728</ele>
        <time>2018-06-24T17:51:26Z</time>
      </trkpt>
      <trkpt lat="45.41077" lon="6.4503">
        <ele>1727</ele>
        <time>2018-06-24T17:52:26Z</time>
      </trkpt>
      <trkpt lat="45.41075" lon="6.45032">
        <ele>1726</ele>
        <time>2018-06-24T17:53:26Z</time>
      </trkpt>
      <trkpt lat="45.41066" lon="6.45035">
        <ele>1725</ele>
        <time>2018-06-24T17:54:26Z</time>
      </trkpt>
      <trkpt lat="45.41063" lon="6.45037">
        <ele>1724</ele>
        <time>2018-06-24T17:55:26Z</time>
      </trkpt>
      <trkpt lat="45.41063" lon="6.45039">
        <ele>1724</ele>
        <time>2018-06-24T17:56:26Z</time>
      </trkpt>
      <trkpt lat="45.41064" lon="6.45045">
        <ele>1722</ele>
        <time>2018-06-24T17:57:26Z</time>
      </trkpt>
      <trkpt lat="45.41062" lon="6.45049">
        <ele>1721</ele>
        <time>2018-06-24T17:58:26Z</time>
      </trkpt>
      <trkpt lat="45.41058" lon="6.45056">
        <ele>1720</ele>
        <time>2018-06-24T17:59:26Z</time>
      </trkpt>
      <trkpt lat="45.41052" lon="6.45063">
        <ele>1719</ele>
        <time>2018-06-24T18:00:26Z</time>
      </trkpt>
      <trkpt lat="45.4105" lon="6.45068">
        <ele>1718</ele>
        <time>2018-06-24T18:01:26Z</time>
      </trkpt>
      <trkpt lat="45.4104" lon="6.45083">
        <ele>1716</ele>
        <time>2018-06-24T18:02:26Z</time>
      </trkpt>
      <trkpt lat="45.41038" lon="6.45085">
        <ele>1694</ele>
        <time>2018-06-24T18:03:26Z</time>
      </trkpt>
      <trkpt lat="45.41033" lon="6.45089">
        <ele>1693</ele>
        <time>2018-06-24T18:04:26Z</time>
      </trkpt>
      <trkpt lat="45.4103" lon="6.45089">
        <ele>1694</ele>
        <time>2018-06-24T18:05:26Z</time>
      </trkpt>
      <trkpt lat="45.41029" lon="6.45089">
        <ele>1694</ele>
        <time>2018-06-24T18:06:26Z</time>
      </trkpt>
      <trkpt lat="45.41025" lon="6.45087">
        <ele>1694</ele>
        <time>2018-06-24T18:07:26Z</time>
      </trkpt>
      <trkpt lat="45.41009" lon="6.45086">
        <ele>1698</ele>
        <time>2018-06-24T18:08:26Z</time>
      </trkpt>
      <trkpt lat="45.41004" lon="6.45087">
        <ele>1700</ele>
        <time>2018-06-24T18:09:26Z</time>
      </trkpt>
      <trkpt lat="45.41" lon="6.45087">
        <ele>1700</ele>
        <time>2018-06-24T18:10:26Z</time>
      </trkpt>
      <trkpt lat="45.40998" lon="6.45086">
        <ele>1700</ele>
        <time>2018-06-24T18:11:26Z</time>
      </trkpt>
      <trkpt lat="45.40991" lon="6.45081">
        <ele>1708</ele>
        <time>2018-06-24T18:12:26Z</time>
      </trkpt>
      <trkpt lat="45.40988" lon="6.45081">
        <ele>1709</ele>
        <time>2018-06-24T18:13:26Z</time>
      </trkpt>
      <trkpt lat="45.40981" lon="6.45082">
        <ele>1711</ele>
        <time>2018-06-24T18:14:26Z</time>
      </trkpt>
      <trkpt lat="45.40981" lon="6.45084">
        <ele>1691</ele>
        <time>2018-06-24T18:15:26Z</time>
      </trkpt>
      <trkpt lat="45.40993" lon="6.45105">
        <ele>1687</ele>
        <time>2018-06-24T18:16:26Z</time>
      </trkpt>
      <trkpt lat="45.40994" lon="6.45108">
        <ele>1686</ele>
        <time>2018-06-24T18:17:26Z</time>
      </trkpt>
      <trkpt lat="45.40997" lon="6.45118">
        <ele>1682</ele>
        <time>2018-06-24T18:18:26Z</time>
      </trkpt>
      <trkpt lat="45.40996" lon="6.4512">
        <ele>1682</ele>
        <time>2018-06-24T18:19:26Z</time>
      </trkpt>
      <trkpt lat="45.40992" lon="6.45116">
        <ele>1683</ele>
        <time>2018-06-24T18:20:26Z</time>
      </trkpt>
      <trkpt lat="45.4099" lon="6.45116">
        <ele>1683</ele>
        <time>2018-06-24T18:21:26Z</time>
      </trkpt>
      <trkpt lat="45.40985" lon="6.45116">
        <ele>1682</ele>
        <time>2018-06-24T18:22:26Z</time>
      </trkpt>
      <trkpt lat="45.40983" lon="6.45115">
        <ele>1682</ele>
        <time>2018-06-24T18:23:26Z</time>
      </trkpt>
      <trkpt lat="45.40977" lon="6.4511">
        <ele>1683</ele>
        <time>2018-06-24T18:24:26Z</time>
      </trkpt>
      <trkpt lat="45.40975" lon="6.45109">
        <ele>1683</ele>
        <time>2018-06-24T18:25:26Z</time>
      </trkpt>
      <trkpt lat="45.40973" lon="6.45108">
        <ele>1683</ele>
        <time>2018-06-24T18:26:26Z</time>
      </trkpt>
      <trkpt lat="45.40973" lon="6.45111">
        <ele>1683</ele>
        <time>2018-06-24T18:27:26Z</time>
      </trkpt>
      <trkpt lat="45.40976" lon="6.45114">
        <ele>1682</ele>
        <time>2018-06-24T18:28:26Z</time>
      </trkpt>
      <trkpt lat="45.40977" lon="6.45117">
        <ele>1681</ele>
        <time>2018-06-24T18:29:26Z</time>
      </trkpt>
      <trkpt lat="45.4098" lon="6.45127">
        <ele>1678</ele>
        <time>2018-06-24T18:30:26Z</time>
      </trkpt>
      <trkpt lat="45.40984" lon="6.45144">
        <ele>1673</ele>
        <time>2018-06-24T18:31:26Z</time>
      </trkpt>
      <trkpt lat="45.40987" lon="6.45148">
        <ele>1672</ele>
        <time>2018-06-24T18:32:26Z</time>
      </trkpt>
      <trkpt lat="45.40991" lon="6.45151">
        <ele>1671</ele>
        <time>2018-06-24T18:33:26Z</time>
      </trkpt>
      <trkpt lat="45.4099" lon="6.45156">
        <ele>1669</ele>
        <time>2018-06-24T18:34:26Z</time>
      </trkpt>
      <trkpt lat="45.40988" lon="6.45156">
        <ele>1670</ele>
        <time>2018-06-24T18:35:26Z</time>
      </trkpt>
      <trkpt lat="45.40975" lon="6.45149">
        <ele>1673</ele>
        <time>2018-06-24T18:36:26Z</time>
      </trkpt>
      <trkpt lat="45.4097" lon="6.45148">
        <ele>1673</ele>
        <time>2018-06-24T18:37:26Z</time>
      </trkpt>
      <trkpt lat="45.40956" lon="6.4515">
        <ele>1672</ele>
        <time>2018-06-24T18:38:26Z</time>
      </trkpt>
      <trkpt lat="45.4095" lon="6.45146">
        <ele>1672</ele>
        <time>2018-06-24T18:39:26Z</time>
      </trkpt>
      <trkpt lat="45.40947" lon="6.45145">
        <ele>1672</ele>
        <time>2018-06-24T18:40:26Z</time>
      </trkpt>
      <trkpt lat="45.40943" lon="6.45147">
        <ele>1670</ele>
        <time>2018-06-24T18:41:26Z</time>
      </trkpt>
      <trkpt lat="45.40937" lon="6.45151">
        <ele>1668</ele>
        <time>2018-06-24T18:42:26Z</time>
      </trkpt>
      <trkpt lat="45.40935" lon="6.45155">
        <ele>1666</ele>
        <time>2018-06-24T18:43:26Z</time>
      </trkpt>
      <trkpt lat="45.40932" lon="6.45158">
        <ele>1664</ele>
        <time>2018-06-24T18:44:26Z</time>
      </trkpt>
      <trkpt lat="45.40928" lon="6.4516">
        <ele>1661</ele>
        <time>2018-06-24T18:45:26Z</time>
      </trkpt>
      <trkpt lat="45.40921" lon="6.45162">
        <ele>1656</ele>
        <time>2018-06-24T18:46:26Z</time>
      </trkpt>
      <trkpt lat="45.40917" lon="6.45162">
        <ele>1655</ele>
        <time>2018-06-24T18:47:26Z</time>
      </trkpt>
      <trkpt lat="45.40912" lon="6.45164">
        <ele>1654</ele>
        <time>2018-06-24T18:48:26Z</time>
      </trkpt>
      <trkpt lat="45.40909" lon="6.45168">
        <ele>1645</ele>
        <time>2018-06-24T18:49:26Z</time>
      </trkpt>
      <trkpt lat="45.40908" lon="6.4517">
        <ele>1644</ele>
        <time>2018-06-24T18:50:26Z</time>
      </trkpt>
      <trkpt lat="45.40905" lon="6.45171">
        <ele>1642</ele>
        <time>2018-06-24T18:51:26Z</time>
      </trkpt>
      <trkpt lat="45.40898" lon="6.45175">
        <ele>1639</ele>
        <time>2018-06-24T18:52:26Z</time>
      </trkpt>
      <trkpt lat="45.40895" lon="6.45175">
        <ele>1639</ele>
        <time>2018-06-24T18:53:26Z</time>
      </trkpt>
      <trkpt lat="45.40891" lon="6.45178">
        <ele>1637</ele>
        <time>2018-06-24T18:54:26Z</time>
      </trkpt>
      <trkpt lat="45.40887" lon="6.45185">
        <ele>1635</ele>
        <time>2018-06-24T18:55:26Z</time>
      </trkpt>
      <trkpt lat="45.40885" lon="6.45187">
        <ele>1635</ele>
        <time>2018-06-24T18:56:26Z</time>
      </trkpt>
      <trkpt lat="45.40882" lon="6.45191">
        <ele>1634</ele>
        <time>2018-06-24T18:57:26Z</time>
      </trkpt>
      <trkpt lat="45.4088" lon="6.45192">
        <ele>1633</ele>
        <time>2018-06-24T18:58:26Z</time>
      </trkpt>
      <trkpt lat="45.40864" lon="6.45193">
        <ele>1633</ele>
        <time>2018-06-24T18:59:26Z</time>
      </trkpt>
      <trkpt lat="45.40863" lon="6.45194">
        <ele>1633</ele>
        <time>2018-06-24T19:00:26Z</time>
      </trkpt>
      <trkpt lat="45.40861" lon="6.45196">
        <ele>1632</ele>
        <time>2018-06-24T19:01:26Z</time>
      </trkpt>
      <trkpt lat="45.4086" lon="6.45199">
        <ele>1632</ele>
        <time>2018-06-24T19:02:26Z</time>
      </trkpt>
      <trkpt lat="45.40862" lon="6.45202">
        <ele>1631</ele>
        <time>2018-06-24T19:03:26Z</time>
      </trkpt>
      <trkpt lat="45.40864" lon="6.45204">
        <ele>1630</ele>
        <time>2018-06-24T19:04:26Z</time>
      </trkpt>
      <trkpt lat="45.40874" lon="6.45209">
        <ele>1630</ele>
        <time>2018-06-24T19:05:26Z</time>
      </trkpt>
      <trkpt lat="45.40876" lon="6.45212">
        <ele>1629</ele>
        <time>2018-06-24T19:06:26Z</time>
      </trkpt>
      <trkpt lat="45.4088" lon="6.45216">
        <ele>1628</ele>
        <time>2018-06-24T19:07:26Z</time>
      </trkpt>
      <trkpt lat="45.40882" lon="6.45217">
        <ele>1628</ele>
        <time>2018-06-24T19:08:26Z</time>
      </trkpt>
      <trkpt lat="45.40886" lon="6.45219">
        <ele>1628</ele>
        <time>2018-06-24T19:09:26Z</time>
      </trkpt>
      <trkpt lat="45.40889" lon="6.45219">
        <ele>1628</ele>
        <time>2018-06-24T19:10:26Z</time>
      </trkpt>
      <trkpt lat="45.40899" lon="6.45219">
        <ele>1628</ele>
        <time>2018-06-24T19:11:26Z</time>
      </trkpt>
      <trkpt lat="45.409" lon="6.4522">
        <ele>1627</ele>
        <time>2018-06-24T19:12:26Z</time>
      </trkpt>
      <trkpt lat="45.40903" lon="6.45224">
        <ele>1626</ele>
        <time>2018-06-24T19:13:26Z</time>
      </trkpt>
      <trkpt lat="45.40903" lon="6.45226">
        <ele>1626</ele>
        <time>2018-06-24T19:14:26Z</time>
      </trkpt>
      <trkpt lat="45.40902" lon="6.45228">
        <ele>1625</ele>
        <time>2018-06-24T19:15:26Z</time>
      </trkpt>
      <trkpt lat="45.40899" lon="6.4523">
        <ele>1625</ele>
        <time>2018-06-24T19:16:26Z</time>
      </trkpt>
      <trkpt lat="45.40892" lon="6.45234">
        <ele>1625</ele>
        <time>2018-06-24T19:17:26Z</time>
      </trkpt>
      <trkpt lat="45.40889" lon="6.45235">
        <ele>1625</ele>
        <time>2018-06-24T19:18:26Z</time>
      </trkpt>
      <trkpt lat="45.40875" lon="6.45241">
        <ele>1624</ele>
        <time>2018-06-24T19:19:26Z</time>
      </trkpt>
      <trkpt lat="45.40867" lon="6.45243">
        <ele>1623</ele>
        <time>2018-06-24T19:20:26Z</time>
      </trkpt>
      <trkpt lat="45.40866" lon="6.45245">
        <ele>1622</ele>
        <time>2018-06-24T19:21:26Z</time>
      </trkpt>
      <trkpt lat="45.40867" lon="6.45249">
        <ele>1622</ele>
        <time>2018-06-24T19:22:26Z</time>
      </trkpt>
      <trkpt lat="45.4087" lon="6.45251">
        <ele>1601</ele>
        <time>2018-06-24T19:23:26Z</time>
      </trkpt>
      <trkpt lat="45.40885" lon="6.45263">
        <ele>1601</ele>
        <time>2018-06-24T19:24:26Z</time>
      </trkpt>
      <trkpt lat="45.4089" lon="6.45265">
        <ele>1601</ele>
        <time>2018-06-24T19:25:26Z</time>
      </trkpt>
      <trkpt lat="45.40907" lon="6.45274">
        <ele>1602</ele>
        <time>2018-06-24T19:26:26Z</time>
      </trkpt>
      <trkpt lat="45.40909" lon="6.45276">
        <ele>1601</ele>
        <time>2018-06-24T19:27:26Z</time>
      </trkpt>
      <trkpt lat="45.40922" lon="6.4529">
        <ele>1602</ele>
        <time>2018-06-24T19:28:26Z</time>
      </trkpt>
      <trkpt lat="45.40941" lon="6.45305">
        <ele>1599</ele>
        <time>2018-06-24T19:29:26Z</time>
      </trkpt>
      <trkpt lat="45.40944" lon="6.45309">
        <ele>1599</ele>
        <time>2018-06-24T19:30:26Z</time>
      </trkpt>
      <trkpt lat="45.40951" lon="6.45317">
        <ele>1598</ele>
        <time>2018-06-24T19:31:26Z</time>
      </trkpt>
      <trkpt lat="45.40953" lon="6.45321">
        <ele>1597</ele>
        <time>2018-06-24T19:32:26Z</time>
      </trkpt>
      <trkpt lat="45.40954" lon="6.45328">
        <ele>1597</ele>
        <time>2018-06-24T19:33:26Z</time>
      </trkpt>
      <trkpt lat="45.40956" lon="6.4533">
        <ele>1597</ele>
        <time>2018-06-24T19:34:26Z</time>
      </trkpt>
      <trkpt lat="45.40961" lon="6.45335">
        <ele>1578</ele>
        <time>2018-06-24T19:35:26Z</time>
      </trkpt>
      <trkpt lat="45.40969" lon="6.45349">
        <ele>1577</ele>
        <time>2018-06-24T19:36:26Z</time>
      </trkpt>
      <trkpt lat="45.40971" lon="6.45352">
        <ele>1577</ele>
        <time>2018-06-24T19:37:26Z</time>
      </trkpt>
      <trkpt lat="45.40991" lon="6.45373">
        <ele>1574</ele>
        <time>2018-06-24T19:38:26Z</time>
      </trkpt>
      <trkpt lat="45.41016" lon="6.45409">
        <ele>1571</ele>
        <time>2018-06-24T19:39:26Z</time>
      </trkpt>
      <trkpt lat="45.41021" lon="6.45415">
        <ele>1572</ele>
        <time>2018-06-24T19:40:26Z</time>
      </trkpt>
      <trkpt lat="45.41025" lon="6.4542">
        <ele>1559</ele>
        <time>2018-06-24T19:41:26Z</time>
      </trkpt>
      <trkpt lat="45.41042" lon="6.45435">
        <ele>1559</ele>
        <time>2018-06-24T19:42:26Z</time>
      </trkpt>
      <trkpt lat="45.41044" lon="6.45438">
        <ele>1559</ele>
        <time>2018-06-24T19:43:26Z</time>
      </trkpt>
      <trkpt lat="45.41046" lon="6.45441">
        <ele>1558</ele>
        <time>2018-06-24T19:44:26Z</time>
      </trkpt>
      <trkpt lat="45.41046" lon="6.45445">
        <ele>1558</ele>
        <time>2018-06-24T19:45:26Z</time>
      </trkpt>
      <trkpt lat="45.41046" lon="6.45454">
        <ele>1557</ele>
        <time>2018-06-24T19:46:26Z</time>
      </trkpt>
      <trkpt lat="45.41044" lon="6.45456">
        <ele>1556</ele>
        <time>2018-06-24T19:47:26Z</time>
      </trkpt>
      <trkpt lat="45.41042" lon="6.45458">
        <ele>1556</ele>
        <time>2018-06-24T19:48:26Z</time>
      </trkpt>
      <trkpt lat="45.41037" lon="6.45459">
        <ele>1556</ele>
        <time>2018-06-24T19:49:26Z</time>
      </trkpt>
      <trkpt lat="45.41034" lon="6.45459">
        <ele>1555</ele>
        <time>2018-06-24T19:50:26Z</time>
      </trkpt>
      <trkpt lat="45.41033" lon="6.4546">
        <ele>1555</ele>
        <time>2018-06-24T19:51:26Z</time>
      </trkpt>
      <trkpt lat="45.41031" lon="6.45462">
        <ele>1555</ele>
        <time>2018-06-24T19:52:26Z</time>
      </trkpt>
      <trkpt lat="45.41031" lon="6.45466">
        <ele>1554</ele>
        <time>2018-06-24T19:53:26Z</time>
      </trkpt>
      <trkpt lat="45.41036" lon="6.45482">
        <ele>1553</ele>
        <time>2018-06-24T19:54:26Z</time>
      </trkpt>
      <trkpt lat="45.41036" lon="6.45487">
        <ele>1552</ele>
        <time>2018-06-24T19:55:26Z</time>
      </trkpt>
      <trkpt lat="45.41035" lon="6.45496">
        <ele>1551</ele>
        <time>2018-06-24T19:56:26Z</time>
      </trkpt>
      <trkpt lat="45.41036" lon="6.45501">
        <ele>1539</ele>
        <time>2018-06-24T19:57:26Z</time>
      </trkpt>
      <trkpt lat="45.41039" lon="6.45522">
        <ele>1537</ele>
        <time>2018-06-24T19:58:26Z</time>
      </trkpt>
      <trkpt lat="45.4104" lon="6.45535">
        <ele>1536</ele>
        <time>2018-06-24T19:59:26Z</time>
      </trkpt>
      <trkpt lat="45.41042" lon="6.45558">
        <ele>1533</ele>
        <time>2018-06-24T20:00:26Z</time>
      </trkpt>
      <trkpt lat="45.41042" lon="6.45563">
        <ele>1533</ele>
        <time>2018-06-24T20:01:26Z</time>
      </trkpt>
      <trkpt lat="45.41042" lon="6.45604">
        <ele>1518</ele>
        <time>2018-06-24T20:02:26Z</time>
      </trkpt>
      <trkpt lat="45.41039" lon="6.45622">
        <ele>1517</ele>
        <time>2018-06-24T20:03:26Z</time>
      </trkpt>
      <trkpt lat="45.41039" lon="6.45628">
        <ele>1516</ele>
        <time>2018-06-24T20:04:26Z</time>
      </trkpt>
      <trkpt lat="45.41038" lon="6.45633">
        <ele>1516</ele>
        <time>2018-06-24T20:05:26Z</time>
      </trkpt>
      <trkpt lat="45.41038" lon="6.45638">
        <ele>1515</ele>
        <time>2018-06-24T20:06:26Z</time>
      </trkpt>
      <trkpt lat="45.4104" lon="6.45655">
        <ele>1514</ele>
        <time>2018-06-24T20:07:26Z</time>
      </trkpt>
      <trkpt lat="45.4104" lon="6.45659">
        <ele>1514</ele>
        <time>2018-06-24T20:08:26Z</time>
      </trkpt>
      <trkpt lat="45.4104" lon="6.45662">
        <ele>1514</ele>
        <time>2018-06-24T20:09:26Z</time>
      </trkpt>
      <trkpt lat="45.41039" lon="6.45666">
        <ele>1513</ele>
        <time>2018-06-24T20:10:26Z</time>
      </trkpt>
      <trkpt lat="45.41031" lon="6.4569">
        <ele>1505</ele>
        <time>2018-06-24T20:11:26Z</time>
      </trkpt>
      <trkpt lat="45.41027" lon="6.457">
        <ele>1504</ele>
        <time>2018-06-24T20:12:26Z</time>
      </trkpt>
      <trkpt lat="45.41019" lon="6.45717">
        <ele>1503</ele>
        <time>2018-06-24T20:13:26Z</time>
      </trkpt>
      <trkpt lat="45.41015" lon="6.45723">
        <ele>1503</ele>
        <time>2018-06-24T20:14:26Z</time>
      </trkpt>
      <trkpt lat="45.41014" lon="6.45725">
        <ele>1503</ele>
        <time>2018-06-24T20:15:26Z</time>
      </trkpt>
      <trkpt lat="45.41007" lon="6.45731">
        <ele>1502</ele>
        <time>2018-06-24T20:16:26Z</time>
      </trkpt>
      <trkpt lat="45.41005" lon="6.45734">
        <ele>1502</ele>
        <time>2018-06-24T20:17:26Z</time>
      </trkpt>
      <trkpt lat="45.41001" lon="6.4574">
        <ele>1501</ele>
        <time>2018-06-24T20:18:26Z</time>
      </trkpt>
      <trkpt lat="45.40999" lon="6.45741">
        <ele>1500</ele>
        <time>2018-06-24T20:19:26Z</time>
      </trkpt>
      <trkpt lat="45.40992" lon="6.45743">
        <ele>1500</ele>
        <time>2018-06-24T20:20:26Z</time>
      </trkpt>
      <trkpt lat="45.40991" lon="6.45744">
        <ele>1500</ele>
        <time>2018-06-24T20:21:26Z</time>
      </trkpt>
      <trkpt lat="45.40989" lon="6.45746">
        <ele>1500</ele>
        <time>2018-06-24T20:22:26Z</time>
      </trkpt>
      <trkpt lat="45.40978" lon="6.45762">
        <ele>1492</ele>
        <time>2018-06-24T20:23:26Z</time>
      </trkpt>
      <trkpt lat="45.40976" lon="6.45767">
        <ele>1491</ele>
        <time>2018-06-24T20:24:26Z</time>
      </trkpt>
      <trkpt lat="45.40974" lon="6.45764">
        <ele>1491</ele>
        <time>2018-06-24T20:25:26Z</time>
      </trkpt>
      <trkpt lat="45.40966" lon="6.45753">
        <ele>1491</ele>
        <time>2018-06-24T20:26:26Z</time>
      </trkpt>
      <trkpt lat="45.40963" lon="6.45746">
        <ele>1499</ele>
        <time>2018-06-24T20:27:26Z</time>
      </trkpt>
      <trkpt lat="45.40956" lon="6.45731">
        <ele>1499</ele>
        <time>2018-06-24T20:28:26Z</time>
      </trkpt>
      <trkpt lat="45.40954" lon="6.45728">
        <ele>1499</ele>
        <time>2018-06-24T20:29:26Z</time>
      </trkpt>
      <trkpt lat="45.40949" lon="6.45724">
        <ele>1499</ele>
        <time>2018-06-24T20:30:26Z</time>
      </trkpt>
      <trkpt lat="45.40933" lon="6.45724">
        <ele>1498</ele>
        <time>2018-06-24T20:31:26Z</time>
      </trkpt>
      <trkpt lat="45.40929" lon="6.45724">
        <ele>1497</ele>
        <time>2018-06-24T20:32:26Z</time>
      </trkpt>
      <trkpt lat="45.40926" lon="6.45725">
        <ele>1497</ele>
        <time>2018-06-24T20:33:26Z</time>
      </trkpt>
      <trkpt lat="45.40922" lon="6.45726">
        <ele>1497</ele>
        <time>2018-06-24T20:34:26Z</time>
      </trkpt>
      <trkpt lat="45.40917" lon="6.45729">
        <ele>1496</ele>
        <time>2018-06-24T20:35:26Z</time>
      </trkpt>
      <trkpt lat="45.40911" lon="6.45733">
        <ele>1492</ele>
        <time>2018-06-24T20:36:26Z</time>
      </trkpt>
      <trkpt lat="45.40902" lon="6.45732">
        <ele>1492</ele>
        <time>2018-06-24T20:37:26Z</time>
      </trkpt>
      <trkpt lat="45.40885" lon="6.45731">
        <ele>1492</ele>
        <time>2018-06-24T20:38:26Z</time>
      </trkpt>
      <trkpt lat="45.40876" lon="6.45729">
        <ele>1491</ele>
        <time>2018-06-24T20:39:26Z</time>
      </trkpt>
      <trkpt lat="45.40872" lon="6.45728">
        <ele>1491</ele>
        <time>2018-06-24T20:40:26Z</time>
      </trkpt>
      <trkpt lat="45.40867" lon="6.45726">
        <ele>1491</ele>
        <time>2018-06-24T20:41:26Z</time>
      </trkpt>
      <trkpt lat="45.40861" lon="6.4572">
        <ele>1491</ele>
        <time>2018-06-24T20:42:26Z</time>
      </trkpt>
      <trkpt lat="45.40856" lon="6.45713">
        <ele>1492</ele>
        <time>2018-06-24T20:43:26Z</time>
      </trkpt>
      <trkpt lat="45.40832" lon="6.45675">
        <ele>1492</ele>
        <time>2018-06-24T20:44:26Z</time>
      </trkpt>
      <trkpt lat="45.40825" lon="6.45667">
        <ele>1492</ele>
        <time>2018-06-24T20:45:26Z</time>
      </trkpt>
      <trkpt lat="45.40816" lon="6.4566">
        <ele>1496</ele>
        <time>2018-06-24T20:46:26Z</time>
      </trkpt>
      <trkpt lat="45.40808" lon="6.45651">
        <ele>1497</ele>
        <time>2018-06-24T20:47:26Z</time>
      </trkpt>
      <trkpt lat="45.40801" lon="6.45646">
        <ele>1497</ele>
        <time>2018-06-24T20:48:26Z</time>
      </trkpt>
      <trkpt lat="45.40795" lon="6.45639">
        <ele>1497</ele>
        <time>2018-06-24T20:49:26Z</time>
      </trkpt>
      <trkpt lat="45.40789" lon="6.45632">
        <ele>1497</ele>
        <time>2018-06-24T20:50:26Z</time>
      </trkpt>
      <trkpt lat="45.40727" lon="6.45548">
        <ele>1502</ele>
        <time>2018-06-24T20:51:26Z</time>
      </trkpt>
      <trkpt lat="45.40723" lon="6.45538">
        <ele>1503</ele>
        <time>2018-06-24T20:52:26Z</time>
      </trkpt>
      <trkpt lat="45.40721" lon="6.45531">
        <ele>1503</ele>
        <time>2018-06-24T20:53:26Z</time>
      </trkpt>
      <trkpt lat="45.40714" lon="6.45521">
        <ele>1504</ele>
        <time>2018-06-24T20:54:26Z</time>
      </trkpt>
      <trkpt lat="45.40711" lon="6.45516">
        <ele>1503</ele>
        <time>2018-06-24T20:55:26Z</time>
      </trkpt>
      <trkpt lat="45.40699" lon="6.45486">
        <ele>1511</ele>
        <time>2018-06-24T20:56:26Z</time>
      </trkpt>
      <trkpt lat="45.40685" lon="6.45456">
        <ele>1512</ele>
        <time>2018-06-24T20:57:26Z</time>
      </trkpt>
      <trkpt lat="45.40677" lon="6.45442">
        <ele>1512</ele>
        <time>2018-06-24T20:58:26Z</time>
      </trkpt>
      <trkpt lat="45.40661" lon="6.45419">
        <ele>1509</ele>
        <time>2018-06-24T20:59:26Z</time>
      </trkpt>
      <trkpt lat="45.40653" lon="6.45408">
        <ele>1512</ele>
        <time>2018-06-24T21:00:26Z</time>
      </trkpt>
      <trkpt lat="45.40617" lon="6.45367">
        <ele>1513</ele>
        <time>2018-06-24T21:01:26Z</time>
      </trkpt>
      <trkpt lat="45.40605" lon="6.45353">
        <ele>1514</ele>
        <time>2018-06-24T21:02:26Z</time>
      </trkpt>
      <trkpt lat="45.40594" lon="6.45343">
        <ele>1514</ele>
        <time>2018-06-24T21:03:26Z</time>
      </trkpt>
      <trkpt lat="45.40578" lon="6.45329">
        <ele>1517</ele>
        <time>2018-06-24T21:04:26Z</time>
      </trkpt>
      <trkpt lat="45.4057" lon="6.45323">
        <ele>1519</ele>
        <time>2018-06-24T21:05:26Z</time>
      </trkpt>
      <trkpt lat="45.40526" lon="6.4529">
        <ele>1522</ele>
        <time>2018-06-24T21:06:26Z</time>
      </trkpt>
      <trkpt lat="45.40518" lon="6.45285">
        <ele>1523</ele>
        <time>2018-06-24T21:07:26Z</time>
      </trkpt>
      <trkpt lat="45.40494" lon="6.4527">
        <ele>1521</ele>
        <time>2018-06-24T21:08:26Z</time>
      </trkpt>
      <trkpt lat="45.40478" lon="6.45258">
        <ele>1521</ele>
        <time>2018-06-24T21:09:26Z</time>
      </trkpt>
      <trkpt lat="45.40462" lon="6.45243">
        <ele>1532</ele>
        <time>2018-06-24T21:10:26Z</time>
      </trkpt>
      <trkpt lat="45.40448" lon="6.45231">
        <ele>1532</ele>
        <time>2018-06-24T21:11:26Z</time>
      </trkpt>
      <trkpt lat="45.40433" lon="6.45214">
        <ele>1532</ele>
        <time>2018-06-24T21:12:26Z</time>
      </trkpt>
      <trkpt lat="45.40419" lon="6.452">
        <ele>1534</ele>
        <time>2018-06-24T21:13:26Z</time>
      </trkpt>
      <trkpt lat="45.40408" lon="6.45181">
        <ele>1530</ele>
        <time>2018-06-24T21:14:26Z</time>
      </trkpt>
      <trkpt lat="45.40397" lon="6.4517">
        <ele>1530</ele>
        <time>2018-06-24T21:15:26Z</time>
      </trkpt>
      <trkpt lat="45.40354" lon="6.45121">
        <ele>1542</ele>
        <time>2018-06-24T21:16:26Z</time>
      </trkpt>
      <trkpt lat="45.40348" lon="6.45116">
        <ele>1543</ele>
        <time>2018-06-24T21:17:26Z</time>
      </trkpt>
      <trkpt lat="45.40345" lon="6.45113">
        <ele>1544</ele>
        <time>2018-06-24T21:18:26Z</time>
      </trkpt>
      <trkpt lat="45.40342" lon="6.45111">
        <ele>1544</ele>
        <time>2018-06-24T21:19:26Z</time>
      </trkpt>
      <trkpt lat="45.40311" lon="6.45095">
        <ele>1541</ele>
        <time>2018-06-24T21:20:26Z</time>
      </trkpt>
      <trkpt lat="45.40295" lon="6.45088">
        <ele>1541</ele>
        <time>2018-06-24T21:21:26Z</time>
      </trkpt>
      <trkpt lat="45.40278" lon="6.4508">
        <ele>1555</ele>
        <time>2018-06-24T21:22:26Z</time>
      </trkpt>
      <trkpt lat="45.40273" lon="6.45077">
        <ele>1555</ele>
        <time>2018-06-24T21:23:26Z</time>
      </trkpt>
      <trkpt lat="45.40255" lon="6.45067">
        <ele>1554</ele>
        <time>2018-06-24T21:24:26Z</time>
      </trkpt>
      <trkpt lat="45.40233" lon="6.45059">
        <ele>1553</ele>
        <time>2018-06-24T21:25:26Z</time>
      </trkpt>
      <trkpt lat="45.40221" lon="6.45055">
        <ele>1554</ele>
        <time>2018-06-24T21:26:26Z</time>
      </trkpt>
      <trkpt lat="45.40215" lon="6.45051">
        <ele>1554</ele>
        <time>2018-06-24T21:27:26Z</time>
      </trkpt>
      <trkpt lat="45.40202" lon="6.45039">
        <ele>1556</ele>
        <time>2018-06-24T21:28:26Z</time>
      </trkpt>
      <trkpt lat="45.40195" lon="6.45034">
        <ele>1556</ele>
        <time>2018-06-24T21:29:26Z</time>
      </trkpt>
      <trkpt lat="45.40189" lon="6.4503">
        <ele>1557</ele>
        <time>2018-06-24T21:30:26Z</time>
      </trkpt>
      <trkpt lat="45.4018" lon="6.45027">
        <ele>1557</ele>
        <time>2018-06-24T21:31:26Z</time>
      </trkpt>
      <trkpt lat="45.40171" lon="6.45024">
        <ele>1558</ele>
        <time>2018-06-24T21:32:26Z</time>
      </trkpt>
      <trkpt lat="45.40163" lon="6.4502">
        <ele>1554</ele>
        <time>2018-06-24T21:33:26Z</time>
      </trkpt>
      <trkpt lat="45.40154" lon="6.45016">
        <ele>1554</ele>
        <time>2018-06-24T21:34:26Z</time>
      </trkpt>
      <trkpt lat="45.40146" lon="6.45009">
        <ele>1553</ele>
        <time>2018-06-24T21:35:26Z</time>
      </trkpt>
      <trkpt lat="45.40132" lon="6.44994">
        <ele>1565</ele>
        <time>2018-06-24T21:36:26Z</time>
      </trkpt>
      <trkpt lat="45.40126" lon="6.44985">
        <ele>1565</ele>
        <time>2018-06-24T21:37:26Z</time>
      </trkpt>
      <trkpt lat="45.40121" lon="6.44976">
        <ele>1566</ele>
        <time>2018-06-24T21:38:26Z</time>
      </trkpt>
      <trkpt lat="45.40112" lon="6.44957">
        <ele>1567</ele>
        <time>2018-06-24T21:39:26Z</time>
      </trkpt>
      <trkpt lat="45.40105" lon="6.44951">
        <ele>1568</ele>
        <time>2018-06-24T21:40:26Z</time>
      </trkpt>
      <trkpt lat="45.40085" lon="6.44936">
        <ele>1569</ele>
        <time>2018-06-24T21:41:26Z</time>
      </trkpt>
      <trkpt lat="45.40076" lon="6.44931">
        <ele>1563</ele>
        <time>2018-06-24T21:42:26Z</time>
      </trkpt>
      <trkpt lat="45.40071" lon="6.44926">
        <ele>1564</ele>
        <time>2018-06-24T21:43:26Z</time>
      </trkpt>
      <trkpt lat="45.40067" lon="6.44918">
        <ele>1564</ele>
        <time>2018-06-24T21:44:26Z</time>
      </trkpt>
      <trkpt lat="45.4004" lon="6.44871">
        <ele>1578</ele>
        <time>2018-06-24T21:45:26Z</time>
      </trkpt>
      <trkpt lat="45.4002" lon="6.44845">
        <ele>1579</ele>
        <time>2018-06-24T21:46:26Z</time>
      </trkpt>
      <trkpt lat="45.39984" lon="6.44798">
        <ele>1584</ele>
        <time>2018-06-24T21:47:26Z</time>
      </trkpt>
      <trkpt lat="45.39975" lon="6.44784">
        <ele>1586</ele>
        <time>2018-06-24T21:48:26Z</time>
      </trkpt>
      <trkpt lat="45.39959" lon="6.44756">
        <ele>1587</ele>
        <time>2018-06-24T21:49:26Z</time>
      </trkpt>
      <trkpt lat="45.39952" lon="6.44747">
        <ele>1597</ele>
        <time>2018-06-24T21:50:26Z</time>
      </trkpt>
      <trkpt lat="45.39934" lon="6.44722">
        <ele>1596</ele>
        <time>2018-06-24T21:51:26Z</time>
      </trkpt>
      <trkpt lat="45.39925" lon="6.44706">
        <ele>1598</ele>
        <time>2018-06-24T21:52:26Z</time>
      </trkpt>
      <trkpt lat="45.39905" lon="6.44667">
        <ele>1592</ele>
        <time>2018-06-24T21:53:26Z</time>
      </trkpt>
      <trkpt lat="45.39901" lon="6.44659">
        <ele>1596</ele>
        <time>2018-06-24T21:54:26Z</time>
      </trkpt>
      <trkpt lat="45.39891" lon="6.44626">
        <ele>1598</ele>
        <time>2018-06-24T21:55:26Z</time>
      </trkpt>
      <trkpt lat="45.39889" lon="6.4461">
        <ele>1599</ele>
        <time>2018-06-24T21:56:26Z</time>
      </trkpt>
      <trkpt lat="45.39883" lon="6.44586">
        <ele>1600</ele>
        <time>2018-06-24T21:57:26Z</time>
      </trkpt>
      <trkpt lat="45.39879" lon="6.44576">
        <ele>1607</ele>
        <time>2018-06-24T21:58:26Z</time>
      </trkpt>
      <trkpt lat="45.39874" lon="6.44561">
        <ele>1607</ele>
        <time>2018-06-24T21:59:26Z</time>
      </trkpt>
      <trkpt lat="45.39869" lon="6.44549">
        <ele>1607</ele>
        <time>2018-06-24T22:00:26Z</time>
      </trkpt>
      <trkpt lat="45.39865" lon="6.4454">
        <ele>1607</ele>
        <time>2018-06-24T22:01:26Z</time>
      </trkpt>
      <trkpt lat="45.39861" lon="6.44528">
        <ele>1607</ele>
        <time>2018-06-24T22:02:26Z</time>
      </trkpt>
      <trkpt lat="45.39849" lon="6.44494">
        <ele>1612</ele>
        <time>2018-06-24T22:03:26Z</time>
      </trkpt>
      <trkpt lat="45.39846" lon="6.44488">
        <ele>1612</ele>
        <time>2018-06-24T22:04:26Z</time>
      </trkpt>
      <trkpt lat="45.39843" lon="6.44484">
        <ele>1612</ele>
        <time>2018-06-24T22:05:26Z</time>
      </trkpt>
      <trkpt lat="45.3984" lon="6.44479">
        <ele>1613</ele>
        <time>2018-06-24T22:06:26Z</time>
      </trkpt>
      <trkpt lat="45.39836" lon="6.44475">
        <ele>1613</ele>
        <time>2018-06-24T22:07:26Z</time>
      </trkpt>
      <trkpt lat="45.3983" lon="6.44471">
        <ele>1611</ele>
        <time>2018-06-24T22:08:26Z</time>
      </trkpt>
      <trkpt lat="45.39825" lon="6.44469">
        <ele>1611</ele>
        <time>2018-06-24T22:09:26Z</time>
      </trkpt>
      <trkpt lat="45.39816" lon="6.44467">
        <ele>1612</ele>
        <time>2018-06-24T22:10:26Z</time>
      </trkpt>
      <trkpt lat="45.3981" lon="6.44467">
        <ele>1612</ele>
        <time>2018-06-24T22:11:26Z</time>
      </trkpt>
      <trkpt lat="45.39801" lon="6.44467">
        <ele>1612</ele>
        <time>2018-06-24T22:12:26Z</time>
      </trkpt>
      <trkpt lat="45.398" lon="6.44465">
        <ele>1612</ele>
        <time>2018-06-24T22:13:26Z</time>
      </trkpt>
      <trkpt lat="45.39799" lon="6.44459">
        <ele>1613</ele>
        <time>2018-06-24T22:14:26Z</time>
      </trkpt>
      <trkpt lat="45.398" lon="6.44447">
        <ele>1613</ele>
        <time>2018-06-24T22:15:26Z</time>
      </trkpt>
      <trkpt lat="45.39799" lon="6.44437">
        <ele>1614</ele>
        <time>2018-06-24T22:16:26Z</time>
      </trkpt>
      <trkpt lat="45.39799" lon="6.44429">
        <ele>1614</ele>
        <time>2018-06-24T22:17:26Z</time>
      </trkpt>
      <trkpt lat="45.398" lon="6.44419">
        <ele>1615</ele>
        <time>2018-06-24T22:18:26Z</time>
      </trkpt>
      <trkpt lat="45.39801" lon="6.44409">
        <ele>1620</ele>
        <time>2018-06-24T22:19:26Z</time>
      </trkpt>
      <trkpt lat="45.39801" lon="6.444">
        <ele>1621</ele>
        <time>2018-06-24T22:20:26Z</time>
      </trkpt>
      <trkpt lat="45.398" lon="6.44347">
        <ele>1623</ele>
        <time>2018-06-24T22:21:26Z</time>
      </trkpt>
      <trkpt lat="45.39799" lon="6.44337">
        <ele>1624</ele>
        <time>2018-06-24T22:22:26Z</time>
      </trkpt>
      <trkpt lat="45.39798" lon="6.44315">
        <ele>1629</ele>
        <time>2018-06-24T22:23:26Z</time>
      </trkpt>
      <trkpt lat="45.39796" lon="6.44304">
        <ele>1629</ele>
        <time>2018-06-24T22:24:26Z</time>
      </trkpt>
      <trkpt lat="45.39794" lon="6.44286">
        <ele>1630</ele>
        <time>2018-06-24T22:25:26Z</time>
      </trkpt>
      <trkpt lat="45.39794" lon="6.44266">
        <ele>1631</ele>
        <time>2018-06-24T22:26:26Z</time>
      </trkpt>
      <trkpt lat="45.39793" lon="6.44257">
        <ele>1631</ele>
        <time>2018-06-24T22:27:26Z</time>
      </trkpt>
      <trkpt lat="45.39791" lon="6.44249">
        <ele>1637</ele>
        <time>2018-06-24T22:28:26Z</time>
      </trkpt>
      <trkpt lat="45.39788" lon="6.44243">
        <ele>1637</ele>
        <time>2018-06-24T22:29:26Z</time>
      </trkpt>
      <trkpt lat="45.39786" lon="6.44235">
        <ele>1638</ele>
        <time>2018-06-24T22:30:26Z</time>
      </trkpt>
      <trkpt lat="45.39785" lon="6.44226">
        <ele>1638</ele>
        <time>2018-06-24T22:31:26Z</time>
      </trkpt>
      <trkpt lat="45.39786" lon="6.44218">
        <ele>1639</ele>
        <time>2018-06-24T22:32:26Z</time>
      </trkpt>
      <trkpt lat="45.39788" lon="6.44211">
        <ele>1639</ele>
        <time>2018-06-24T22:33:26Z</time>
      </trkpt>
      <trkpt lat="45.39787" lon="6.44203">
        <ele>1640</ele>
        <time>2018-06-24T22:34:26Z</time>
      </trkpt>
      <trkpt lat="45.39785" lon="6.44199">
        <ele>1640</ele>
        <time>2018-06-24T22:35:26Z</time>
      </trkpt>
      <trkpt lat="45.39782" lon="6.44198">
        <ele>1640</ele>
        <time>2018-06-24T22:36:26Z</time>
      </trkpt>
      <trkpt lat="45.39779" lon="6.44198">
        <ele>1641</ele>
        <time>2018-06-24T22:37:26Z</time>
      </trkpt>
      <trkpt lat="45.39776" lon="6.442">
        <ele>1640</ele>
        <time>2018-06-24T22:38:26Z</time>
      </trkpt>
      <trkpt lat="45.39774" lon="6.44204">
        <ele>1640</ele>
        <time>2018-06-24T22:39:26Z</time>
      </trkpt>
      <trkpt lat="45.39773" lon="6.44209">
        <ele>1640</ele>
        <time>2018-06-24T22:40:26Z</time>
      </trkpt>
      <trkpt lat="45.3977" lon="6.44236">
        <ele>1638</ele>
        <time>2018-06-24T22:41:26Z</time>
      </trkpt>
      <trkpt lat="45.39767" lon="6.44241">
        <ele>1638</ele>
        <time>2018-06-24T22:42:26Z</time>
      </trkpt>
      <trkpt lat="45.39758" lon="6.44263">
        <ele>1634</ele>
        <time>2018-06-24T22:43:26Z</time>
      </trkpt>
      <trkpt lat="45.39754" lon="6.44275">
        <ele>1633</ele>
        <time>2018-06-24T22:44:26Z</time>
      </trkpt>
      <trkpt lat="45.39738" lon="6.4432">
        <ele>1637</ele>
        <time>2018-06-24T22:45:26Z</time>
      </trkpt>
      <trkpt lat="45.39735" lon="6.44326">
        <ele>1637</ele>
        <time>2018-06-24T22:46:26Z</time>
      </trkpt>
      <trkpt lat="45.39733" lon="6.44329">
        <ele>1637</ele>
        <time>2018-06-24T22:47:26Z</time>
      </trkpt>
      <trkpt lat="45.3973" lon="6.4433">
        <ele>1638</ele>
        <time>2018-06-24T22:48:26Z</time>
      </trkpt>
      <trkpt lat="45.39727" lon="6.44332">
        <ele>1639</ele>
        <time>2018-06-24T22:49:26Z</time>
      </trkpt>
      <trkpt lat="45.39723" lon="6.44332">
        <ele>1640</ele>
        <time>2018-06-24T22:50:26Z</time>
      </trkpt>
      <trkpt lat="45.3972" lon="6.44332">
        <ele>1641</ele>
        <time>2018-06-24T22:51:26Z</time>
      </trkpt>
      <trkpt lat="45.39712" lon="6.4433">
        <ele>1642</ele>
        <time>2018-06-24T22:52:26Z</time>
      </trkpt>
      <trkpt lat="45.39701" lon="6.44326">
        <ele>1644</ele>
        <time>2018-06-24T22:53:26Z</time>
      </trkpt>
      <trkpt lat="45.39686" lon="6.44319">
        <ele>1646</ele>
        <time>2018-06-24T22:54:26Z</time>
      </trkpt>
      <trkpt lat="45.39675" lon="6.44316">
        <ele>1647</ele>
        <time>2018-06-24T22:55:26Z</time>
      </trkpt>
      <trkpt lat="45.39669" lon="6.44315">
        <ele>1647</ele>
        <time>2018-06-24T22:56:26Z</time>
      </trkpt>
      <trkpt lat="45.39655" lon="6.44318">
        <ele>1656</ele>
        <time>2018-06-24T22:57:26Z</time>
      </trkpt>
      <trkpt lat="45.39651" lon="6.44318">
        <ele>1657</ele>
        <time>2018-06-24T22:58:26Z</time>
      </trkpt>
      <trkpt lat="45.39646" lon="6.44318">
        <ele>1658</ele>
        <time>2018-06-24T22:59:26Z</time>
      </trkpt>
      <trkpt lat="45.39641" lon="6.44315">
        <ele>1659</ele>
        <time>2018-06-24T23:00:26Z</time>
      </trkpt>
      <trkpt lat="45.39631" lon="6.4431">
        <ele>1661</ele>
        <time>2018-06-24T23:01:26Z</time>
      </trkpt>
      <trkpt lat="45.39625" lon="6.44309">
        <ele>1661</ele>
        <time>2018-06-24T23:02:26Z</time>
      </trkpt>
      <trkpt lat="45.39611" lon="6.44304">
        <ele>1663</ele>
        <time>2018-06-24T23:03:26Z</time>
      </trkpt>
      <trkpt lat="45.39594" lon="6.44291">
        <ele>1666</ele>
        <time>2018-06-24T23:04:26Z</time>
      </trkpt>
      <trkpt lat="45.3959" lon="6.4429">
        <ele>1666</ele>
        <time>2018-06-24T23:05:26Z</time>
      </trkpt>
      <trkpt lat="45.39587" lon="6.44291">
        <ele>1666</ele>
        <time>2018-06-24T23:06:26Z</time>
      </trkpt>
      <trkpt lat="45.39564" lon="6.44299">
        <ele>1669</ele>
        <time>2018-06-24T23:07:26Z</time>
      </trkpt>
      <trkpt lat="45.39557" lon="6.44303">
        <ele>1669</ele>
        <time>2018-06-24T23:08:26Z</time>
      </trkpt>
      <trkpt lat="45.39546" lon="6.44308">
        <ele>1669</ele>
        <time>2018-06-24T23:09:26Z</time>
      </trkpt>
      <trkpt lat="45.39542" lon="6.44309">
        <ele>1669</ele>
        <time>2018-06-24T23:10:26Z</time>
      </trkpt>
      <trkpt lat="45.39538" lon="6.44309">
        <ele>1669</ele>
        <time>2018-06-24T23:11:26Z</time>
      </trkpt>
      <trkpt lat="45.39511" lon="6.44303">
        <ele>1670</ele>
        <time>2018-06-24T23:12:26Z</time>
      </trkpt>
      <trkpt lat="45.39504" lon="6.44303">
        <ele>1669</ele>
        <time>2018-06-24T23:13:26Z</time>
      </trkpt>
      <trkpt lat="45.39482" lon="6.44308">
        <ele>1675</ele>
        <time>2018-06-24T23:14:26Z</time>
      </trkpt>
      <trkpt lat="45.39467" lon="6.4431">
        <ele>1677</ele>
        <time>2018-06-24T23:15:26Z</time>
      </trkpt>
      <trkpt lat="45.3946" lon="6.4431">
        <ele>1678</ele>
        <time>2018-06-24T23:16:26Z</time>
      </trkpt>
      <trkpt lat="45.39452" lon="6.4431">
        <ele>1679</ele>
        <time>2018-06-24T23:17:26Z</time>
      </trkpt>
      <trkpt lat="45.39444" lon="6.44308">
        <ele>1679</ele>
        <time>2018-06-24T23:18:26Z</time>
      </trkpt>
      <trkpt lat="45.39439" lon="6.44307">
        <ele>1680</ele>
        <time>2018-06-24T23:19:26Z</time>
      </trkpt>
      <trkpt lat="45.39435" lon="6.44308">
        <ele>1680</ele>
        <time>2018-06-24T23:20:26Z</time>
      </trkpt>
      <trkpt lat="45.3943" lon="6.44309">
        <ele>1680</ele>
        <time>2018-06-24T23:21:26Z</time>
      </trkpt>
      <trkpt lat="45.39416" lon="6.44317">
        <ele>1686</ele>
        <time>2018-06-24T23:22:26Z</time>
      </trkpt>
      <trkpt lat="45.3939" lon="6.44337">
        <ele>1677</ele>
        <time>2018-06-24T23:23:26Z</time>
      </trkpt>
      <trkpt lat="45.39385" lon="6.44339">
        <ele>1678</ele>
        <time>2018-06-24T23:24:26Z</time>
      </trkpt>
      <trkpt lat="45.3938" lon="6.44341">
        <ele>1678</ele>
        <time>2018-06-24T23:25:26Z</time>
      </trkpt>
      <trkpt lat="45.39375" lon="6.44341">
        <ele>1679</ele>
        <time>2018-06-24T23:26:26Z</time>
      </trkpt>
      <trkpt lat="45.39358" lon="6.44342">
        <ele>1682</ele>
        <time>2018-06-24T23:27:26Z</time>
      </trkpt>
      <trkpt lat="45.39354" lon="6.44345">
        <ele>1683</ele>
        <time>2018-06-24T23:28:26Z</time>
      </trkpt>
      <trkpt lat="45.39344" lon="6.44352">
        <ele>1683</ele>
        <time>2018-06-24T23:29:26Z</time>
      </trkpt>
      <trkpt lat="45.39339" lon="6.44357">
        <ele>1682</ele>
        <time>2018-06-24T23:30:26Z</time>
      </trkpt>
      <trkpt lat="45.39334" lon="6.4436">
        <ele>1682</ele>
        <time>2018-06-24T23:31:26Z</time>
      </trkpt>
      <trkpt lat="45.39321" lon="6.44369">
        <ele>1687</ele>
        <time>2018-06-24T23:32:26Z</time>
      </trkpt>
      <trkpt lat="45.39316" lon="6.44372">
        <ele>1686</ele>
        <time>2018-06-24T23:33:26Z</time>
      </trkpt>
      <trkpt lat="45.39311" lon="6.44373">
        <ele>1686</ele>
        <time>2018-06-24T23:34:26Z</time>
      </trkpt>
      <trkpt lat="45.39305" lon="6.44371">
        <ele>1687</ele>
        <time>2018-06-24T23:35:26Z</time>
      </trkpt>
      <trkpt lat="45.393" lon="6.44369">
        <ele>1687</ele>
        <time>2018-06-24T23:36:26Z</time>
      </trkpt>
      <trkpt lat="45.39294" lon="6.44365">
        <ele>1688</ele>
        <time>2018-06-24T23:37:26Z</time>
      </trkpt>
      <trkpt lat="45.3929" lon="6.4436">
        <ele>1689</ele>
        <time>2018-06-24T23:38:26Z</time>
      </trkpt>
      <trkpt lat="45.39282" lon="6.44349">
        <ele>1690</ele>
        <time>2018-06-24T23:39:26Z</time>
      </trkpt>
      <trkpt lat="45.39278" lon="6.44346">
        <ele>1691</ele>
        <time>2018-06-24T23:40:26Z</time>
      </trkpt>
      <trkpt lat="45.39271" lon="6.44344">
        <ele>1692</ele>
        <time>2018-06-24T23:41:26Z</time>
      </trkpt>
      <trkpt lat="45.39226" lon="6.44334">
        <ele>1694</ele>
        <time>2018-06-24T23:42:26Z</time>
      </trkpt>
      <trkpt lat="45.39215" lon="6.44333">
        <ele>1706</ele>
        <time>2018-06-24T23:43:26Z</time>
      </trkpt>
      <trkpt lat="45.39204" lon="6.4433">
        <ele>1707</ele>
        <time>2018-06-24T23:44:26Z</time>
      </trkpt>
      <trkpt lat="45.3916" lon="6.44317">
        <ele>1708</ele>
        <time>2018-06-24T23:45:26Z</time>
      </trkpt>
      <trkpt lat="45.39155" lon="6.44314">
        <ele>1709</ele>
        <time>2018-06-24T23:46:26Z</time>
      </trkpt>
      <trkpt lat="45.39145" lon="6.4431">
        <ele>1710</ele>
        <time>2018-06-24T23:47:26Z</time>
      </trkpt>
      <trkpt lat="45.39139" lon="6.44309">
        <ele>1710</ele>
        <time>2018-06-24T23:48:26Z</time>
      </trkpt>
      <trkpt lat="45.3913" lon="6.4431">
        <ele>1710</ele>
        <time>2018-06-24T23:49:26Z</time>
      </trkpt>
      <trkpt lat="45.39124" lon="6.44309">
        <ele>1711</ele>
        <time>2018-06-24T23:50:26Z</time>
      </trkpt>
      <trkpt lat="45.3912" lon="6.44306">
        <ele>1711</ele>
        <time>2018-06-24T23:51:26Z</time>
      </trkpt>
      <trkpt lat="45.39115" lon="6.44302">
        <ele>1711</ele>
        <time>2018-06-24T23:52:26Z</time>
      </trkpt>
      <trkpt lat="45.39111" lon="6.44297">
        <ele>1712</ele>
        <time>2018-06-24T23:53:26Z</time>
      </trkpt>
      <trkpt lat="45.39101" lon="6.44281">
        <ele>1714</ele>
        <time>2018-06-24T23:54:26Z</time>
      </trkpt>
      <trkpt lat="45.39097" lon="6.44276">
        <ele>1715</ele>
        <time>2018-06-24T23:55:26Z</time>
      </trkpt>
      <trkpt lat="45.39092" lon="6.44273">
        <ele>1715</ele>
        <time>2018-06-24T23:56:26Z</time>
      </trkpt>
      <trkpt lat="45.39066" lon="6.4426">
        <ele>1714</ele>
        <time>2018-06-24T23:57:26Z</time>
      </trkpt>
      <trkpt lat="45.3905" lon="6.44247">
        <ele>1726</ele>
        <time>2018-06-24T23:58:26Z</time>
      </trkpt>
      <trkpt lat="45.39025" lon="6.44234">
        <ele>1726</ele>
        <time>2018-06-24T23:59:26Z</time>
      </trkpt>
      <trkpt lat="45.3902" lon="6.44229">
        <ele>1726</ele>
        <time>2018-06-25T00:00:26Z</time>
      </trkpt>
      <trkpt lat="45.38989" lon="6.442">
        <ele>1729</ele>
        <time>2018-06-25T00:01:26Z</time>
      </trkpt>
      <trkpt lat="45.38981" lon="6.44196">
        <ele>1730</ele>
        <time>2018-06-25T00:02:26Z</time>
      </trkpt>
      <trkpt lat="45.38967" lon="6.44194">
        <ele>1729</ele>
        <time>2018-06-25T00:03:26Z</time>
      </trkpt>
      <trkpt lat="45.38962" lon="6.44192">
        <ele>1729</ele>
        <time>2018-06-25T00:04:26Z</time>
      </trkpt>
      <trkpt lat="45.38956" lon="6.44191">
        <ele>1729</ele>
        <time>2018-06-25T00:05:26Z</time>
      </trkpt>
      <trkpt lat="45.3895" lon="6.44188">
        <ele>1729</ele>
        <time>2018-06-25T00:06:26Z</time>
      </trkpt>
      <trkpt lat="45.3894" lon="6.4418">
        <ele>1730</ele>
        <time>2018-06-25T00:07:26Z</time>
      </trkpt>
      <trkpt lat="45.38936" lon="6.44176">
        <ele>1731</ele>
        <time>2018-06-25T00:08:26Z</time>
      </trkpt>
      <trkpt lat="45.38928" lon="6.44165">
        <ele>1739</ele>
        <time>2018-06-25T00:09:26Z</time>
      </trkpt>
      <trkpt lat="45.38925" lon="6.4416">
        <ele>1739</ele>
        <time>2018-06-25T00:10:26Z</time>
      </trkpt>
      <trkpt lat="45.38921" lon="6.4415">
        <ele>1740</ele>
        <time>2018-06-25T00:11:26Z</time>
      </trkpt>
      <trkpt lat="45.38919" lon="6.44147">
        <ele>1741</ele>
        <time>2018-06-25T00:12:26Z</time>
      </trkpt>
      <trkpt lat="45.38915" lon="6.44145">
        <ele>1737</ele>
        <time>2018-06-25T00:13:26Z</time>
      </trkpt>
      <trkpt lat="45.38911" lon="6.44145">
        <ele>1737</ele>
        <time>2018-06-25T00:14:26Z</time>
      </trkpt>
      <trkpt lat="45.38897" lon="6.44152">
        <ele>1736</ele>
        <time>2018-06-25T00:15:26Z</time>
      </trkpt>
      <trkpt lat="45.38893" lon="6.44151">
        <ele>1736</ele>
        <time>2018-06-25T00:16:26Z</time>
      </trkpt>
      <trkpt lat="45.38889" lon="6.4415">
        <ele>1736</ele>
        <time>2018-06-25T00:17:26Z</time>
      </trkpt>
      <trkpt lat="45.38887" lon="6.44148">
        <ele>1736</ele>
        <time>2018-06-25T00:18:26Z</time>
      </trkpt>
      <trkpt lat="45.38886" lon="6.44147">
        <ele>1736</ele>
        <time>2018-06-25T00:19:26Z</time>
      </trkpt>
      <trkpt lat="45.38881" lon="6.44149">
        <ele>1735</ele>
        <time>2018-06-25T00:20:26Z</time>
      </trkpt>
      <trkpt lat="45.38863" lon="6.44154">
        <ele>1733</ele>
        <time>2018-06-25T00:21:26Z</time>
      </trkpt>
      <trkpt lat="45.38858" lon="6.44154">
        <ele>1732</ele>
        <time>2018-06-25T00:22:26Z</time>
      </trkpt>
      <trkpt lat="45.38853" lon="6.44153">
        <ele>1731</ele>
        <time>2018-06-25T00:23:26Z</time>
      </trkpt>
      <trkpt lat="45.38848" lon="6.44149">
        <ele>1731</ele>
        <time>2018-06-25T00:24:26Z</time>
      </trkpt>
      <trkpt lat="45.38844" lon="6.44145">
        <ele>1732</ele>
        <time>2018-06-25T00:25:26Z</time>
      </trkpt>
      <trkpt lat="45.3884" lon="6.44139">
        <ele>1733</ele>
        <time>2018-06-25T00:26:26Z</time>
      </trkpt>
      <trkpt lat="45.38834" lon="6.44129">
        <ele>1734</ele>
        <time>2018-06-25T00:27:26Z</time>
      </trkpt>
      <trkpt lat="45.3883" lon="6.44125">
        <ele>1725</ele>
        <time>2018-06-25T00:28:26Z</time>
      </trkpt>
      <trkpt lat="45.38826" lon="6.4412">
        <ele>1726</ele>
        <time>2018-06-25T00:29:26Z</time>
      </trkpt>
      <trkpt lat="45.38822" lon="6.44117">
        <ele>1726</ele>
        <time>2018-06-25T00:30:26Z</time>
      </trkpt>
      <trkpt lat="45.38818" lon="6.44116">
        <ele>1726</ele>
        <time>2018-06-25T00:31:26Z</time>
      </trkpt>
      <trkpt lat="45.38804" lon="6.44119">
        <ele>1723</ele>
        <time>2018-06-25T00:32:26Z</time>
      </trkpt>
      <trkpt lat="45.38798" lon="6.44119">
        <ele>1723</ele>
        <time>2018-06-25T00:33:26Z</time>
      </trkpt>
      <trkpt lat="45.38791" lon="6.44118">
        <ele>1722</ele>
        <time>2018-06-25T00:34:26Z</time>
      </trkpt>
      <trkpt lat="45.38785" lon="6.44114">
        <ele>1722</ele>
        <time>2018-06-25T00:35:26Z</time>
      </trkpt>
      <trkpt lat="45.38778" lon="6.4411">
        <ele>1721</ele>
        <time>2018-06-25T00:36:26Z</time>
      </trkpt>
      <trkpt lat="45.3877" lon="6.44101">
        <ele>1721</ele>
        <time>2018-06-25T00:37:26Z</time>
      </trkpt>
      <trkpt lat="45.38753" lon="6.44087">
        <ele>1722</ele>
        <time>2018-06-25T00:38:26Z</time>
      </trkpt>
      <trkpt lat="45.38749" lon="6.44085">
        <ele>1720</ele>
        <time>2018-06-25T00:39:26Z</time>
      </trkpt>
      <trkpt lat="45.38745" lon="6.44084">
        <ele>1718</ele>
        <time>2018-06-25T00:40:26Z</time>
      </trkpt>
      <trkpt lat="45.38721" lon="6.44089">
        <ele>1706</ele>
        <time>2018-06-25T00:41:26Z</time>
      </trkpt>
      <trkpt lat="45.38713" lon="6.44087">
        <ele>1705</ele>
        <time>2018-06-25T00:42:26Z</time>
      </trkpt>
      <trkpt lat="45.38695" lon="6.44078">
        <ele>1716</ele>
        <time>2018-06-25T00:43:26Z</time>
      </trkpt>
      <trkpt lat="45.38683" lon="6.44069">
        <ele>1714</ele>
        <time>2018-06-25T00:44:26Z</time>
      </trkpt>
      <trkpt lat="45.38653" lon="6.44044">
        <ele>1703</ele>
        <time>2018-06-25T00:45:26Z</time>
      </trkpt>
      <trkpt lat="45.38642" lon="6.44036">
        <ele>1703</ele>
        <time>2018-06-25T00:46:26Z</time>
      </trkpt>
      <trkpt lat="45.38623" lon="6.44023">
        <ele>1701</ele>
        <time>2018-06-25T00:47:26Z</time>
      </trkpt>
      <trkpt lat="45.38601" lon="6.44003">
        <ele>1700</ele>
        <time>2018-06-25T00:48:26Z</time>
      </trkpt>
      <trkpt lat="45.38578" lon="6.43986">
        <ele>1701</ele>
        <time>2018-06-25T00:49:26Z</time>
      </trkpt>
      <trkpt lat="45.38563" lon="6.43984">
        <ele>1700</ele>
        <time>2018-06-25T00:50:26Z</time>
      </trkpt>
      <trkpt lat="45.38558" lon="6.43982">
        <ele>1700</ele>
        <time>2018-06-25T00:51:26Z</time>
      </trkpt>
      <trkpt lat="45.38554" lon="6.43979">
        <ele>1700</ele>
        <time>2018-06-25T00:52:26Z</time>
      </trkpt>
      <trkpt lat="45.38542" lon="6.43967">
        <ele>1699</ele>
        <time>2018-06-25T00:53:26Z</time>
      </trkpt>
      <trkpt lat="45.38538" lon="6.43965">
        <ele>1699</ele>
        <time>2018-06-25T00:54:26Z</time>
      </trkpt>
      <trkpt lat="45.38529" lon="6.4396">
        <ele>1699</ele>
        <time>2018-06-25T00:55:26Z</time>
      </trkpt>
      <trkpt lat="45.38525" lon="6.43956">
        <ele>1699</ele>
        <time>2018-06-25T00:56:26Z</time>
      </trkpt>
      <trkpt lat="45.38521" lon="6.43953">
        <ele>1699</ele>
        <time>2018-06-25T00:57:26Z</time>
      </trkpt>
      <trkpt lat="45.38516" lon="6.4395">
        <ele>1698</ele>
        <time>2018-06-25T00:58:26Z</time>
      </trkpt>
      <trkpt lat="45.38496" lon="6.43942">
        <ele>1689</ele>
        <time>2018-06-25T00:59:26Z</time>
      </trkpt>
      <trkpt lat="45.38492" lon="6.43938">
        <ele>1689</ele>
        <time>2018-06-25T01:00:26Z</time>
      </trkpt>
      <trkpt lat="45.38489" lon="6.43935">
        <ele>1690</ele>
        <time>2018-06-25T01:01:26Z</time>
      </trkpt>
      <trkpt lat="45.38485" lon="6.43935">
        <ele>1689</ele>
        <time>2018-06-25T01:02:26Z</time>
      </trkpt>
      <trkpt lat="45.38481" lon="6.43935">
        <ele>1689</ele>
        <time>2018-06-25T01:03:26Z</time>
      </trkpt>
      <trkpt lat="45.38476" lon="6.43938">
        <ele>1687</ele>
        <time>2018-06-25T01:04:26Z</time>
      </trkpt>
      <trkpt lat="45.38472" lon="6.43941">
        <ele>1687</ele>
        <time>2018-06-25T01:05:26Z</time>
      </trkpt>
      <trkpt lat="45.38468" lon="6.43941">
        <ele>1686</ele>
        <time>2018-06-25T01:06:26Z</time>
      </trkpt>
      <trkpt lat="45.38463" lon="6.43939">
        <ele>1686</ele>
        <time>2018-06-25T01:07:26Z</time>
      </trkpt>
      <trkpt lat="45.38457" lon="6.43935">
        <ele>1685</ele>
        <time>2018-06-25T01:08:26Z</time>
      </trkpt>
      <trkpt lat="45.38447" lon="6.43925">
        <ele>1685</ele>
        <time>2018-06-25T01:09:26Z</time>
      </trkpt>
      <trkpt lat="45.38442" lon="6.43923">
        <ele>1684</ele>
        <time>2018-06-25T01:10:26Z</time>
      </trkpt>
      <trkpt lat="45.38434" lon="6.43922">
        <ele>1684</ele>
        <time>2018-06-25T01:11:26Z</time>
      </trkpt>
      <trkpt lat="45.38429" lon="6.43919">
        <ele>1684</ele>
        <time>2018-06-25T01:12:26Z</time>
      </trkpt>
      <trkpt lat="45.38419" lon="6.43909">
        <ele>1688</ele>
        <time>2018-06-25T01:13:26Z</time>
      </trkpt>
      <trkpt lat="45.38415" lon="6.43906">
        <ele>1685</ele>
        <time>2018-06-25T01:14:26Z</time>
      </trkpt>
      <trkpt lat="45.38411" lon="6.43905">
        <ele>1686</ele>
        <time>2018-06-25T01:15:26Z</time>
      </trkpt>
      <trkpt lat="45.38405" lon="6.43904">
        <ele>1686</ele>
        <time>2018-06-25T01:16:26Z</time>
      </trkpt>
      <trkpt lat="45.38397" lon="6.43906">
        <ele>1687</ele>
        <time>2018-06-25T01:17:26Z</time>
      </trkpt>
      <trkpt lat="45.38388" lon="6.4391">
        <ele>1687</ele>
        <time>2018-06-25T01:18:26Z</time>
      </trkpt>
      <trkpt lat="45.38382" lon="6.43912">
        <ele>1687</ele>
        <time>2018-06-25T01:19:26Z</time>
      </trkpt>
      <trkpt lat="45.38378" lon="6.43911">
        <ele>1687</ele>
        <time>2018-06-25T01:20:26Z</time>
      </trkpt>
      <trkpt lat="45.38371" lon="6.43909">
        <ele>1687</ele>
        <time>2018-06-25T01:21:26Z</time>
      </trkpt>
      <trkpt lat="45.3837" lon="6.43907">
        <ele>1687</ele>
        <time>2018-06-25T01:22:26Z</time>
      </trkpt>
      <trkpt lat="45.38359" lon="6.43889">
        <ele>1687</ele>
        <time>2018-06-25T01:23:26Z</time>
      </trkpt>
      <trkpt lat="45.38355" lon="6.43885">
        <ele>1687</ele>
        <time>2018-06-25T01:24:26Z</time>
      </trkpt>
      <trkpt lat="45.38344" lon="6.43875">
        <ele>1688</ele>
        <time>2018-06-25T01:25:26Z</time>
      </trkpt>
      <trkpt lat="45.38341" lon="6.4387">
        <ele>1688</ele>
        <time>2018-06-25T01:26:26Z</time>
      </trkpt>
      <trkpt lat="45.38333" lon="6.43859">
        <ele>1691</ele>
        <time>2018-06-25T01:27:26Z</time>
      </trkpt>
      <trkpt lat="45.38325" lon="6.4385">
        <ele>1691</ele>
        <time>2018-06-25T01:28:26Z</time>
      </trkpt>
      <trkpt lat="45.38324" lon="6.43847">
        <ele>1691</ele>
        <time>2018-06-25T01:29:26Z</time>
      </trkpt>
      <trkpt lat="45.38321" lon="6.43845">
        <ele>1691</ele>
        <time>2018-06-25T01:30:26Z</time>
      </trkpt>
      <trkpt lat="45.38313" lon="6.43838">
        <ele>1691</ele>
        <time>2018-06-25T01:31:26Z</time>
      </trkpt>
      <trkpt lat="45.38308" lon="6.43836">
        <ele>1691</ele>
        <time>2018-06-25T01:32:26Z</time>
      </trkpt>
      <trkpt lat="45.38304" lon="6.43834">
        <ele>1692</ele>
        <time>2018-06-25T01:33:26Z</time>
      </trkpt>
      <trkpt lat="45.383" lon="6.4383">
        <ele>1697</ele>
        <time>2018-06-25T01:34:26Z</time>
      </trkpt>
      <trkpt lat="45.38296" lon="6.43826">
        <ele>1697</ele>
        <time>2018-06-25T01:35:26Z</time>
      </trkpt>
      <trkpt lat="45.38293" lon="6.43821">
        <ele>1697</ele>
        <time>2018-06-25T01:36:26Z</time>
      </trkpt>
      <trkpt lat="45.38286" lon="6.43811">
        <ele>1698</ele>
        <time>2018-06-25T01:37:26Z</time>
      </trkpt>
      <trkpt lat="45.38283" lon="6.43805">
        <ele>1699</ele>
        <time>2018-06-25T01:38:26Z</time>
      </trkpt>
      <trkpt lat="45.38274" lon="6.4379">
        <ele>1700</ele>
        <time>2018-06-25T01:39:26Z</time>
      </trkpt>
      <trkpt lat="45.38271" lon="6.4379">
        <ele>1700</ele>
        <time>2018-06-25T01:40:26Z</time>
      </trkpt>
      <trkpt lat="45.38267" lon="6.4379">
        <ele>1700</ele>
        <time>2018-06-25T01:41:26Z</time>
      </trkpt>
      <trkpt lat="45.38263" lon="6.43787">
        <ele>1701</ele>
        <time>2018-06-25T01:42:26Z</time>
      </trkpt>
      <trkpt lat="45.38246" lon="6.43776">
        <ele>1703</ele>
        <time>2018-06-25T01:43:26Z</time>
      </trkpt>
      <trkpt lat="45.38241" lon="6.43775">
        <ele>1703</ele>
        <time>2018-06-25T01:44:26Z</time>
      </trkpt>
      <trkpt lat="45.38232" lon="6.43771">
        <ele>1704</ele>
        <time>2018-06-25T01:45:26Z</time>
      </trkpt>
      <trkpt lat="45.38228" lon="6.4377">
        <ele>1704</ele>
        <time>2018-06-25T01:46:26Z</time>
      </trkpt>
      <trkpt lat="45.38224" lon="6.43769">
        <ele>1704</ele>
        <time>2018-06-25T01:47:26Z</time>
      </trkpt>
      <trkpt lat="45.3822" lon="6.43766">
        <ele>1704</ele>
        <time>2018-06-25T01:48:26Z</time>
      </trkpt>
      <trkpt lat="45.3821" lon="6.43758">
        <ele>1704</ele>
        <time>2018-06-25T01:49:26Z</time>
      </trkpt>
      <trkpt lat="45.38205" lon="6.43755">
        <ele>1704</ele>
        <time>2018-06-25T01:50:26Z</time>
      </trkpt>
      <trkpt lat="45.382" lon="6.43752">
        <ele>1704</ele>
        <time>2018-06-25T01:51:26Z</time>
      </trkpt>
      <trkpt lat="45.38194" lon="6.43751">
        <ele>1705</ele>
        <time>2018-06-25T01:52:26Z</time>
      </trkpt>
      <trkpt lat="45.38189" lon="6.43747">
        <ele>1711</ele>
        <time>2018-06-25T01:53:26Z</time>
      </trkpt>
      <trkpt lat="45.38186" lon="6.43742">
        <ele>1711</ele>
        <time>2018-06-25T01:54:26Z</time>
      </trkpt>
      <trkpt lat="45.3818" lon="6.43734">
        <ele>1711</ele>
        <time>2018-06-25T01:55:26Z</time>
      </trkpt>
      <trkpt lat="45.38179" lon="6.43729">
        <ele>1712</ele>
        <time>2018-06-25T01:56:26Z</time>
      </trkpt>
      <trkpt lat="45.38176" lon="6.43721">
        <ele>1713</ele>
        <time>2018-06-25T01:57:26Z</time>
      </trkpt>
      <trkpt lat="45.38177" lon="6.43716">
        <ele>1714</ele>
        <time>2018-06-25T01:58:26Z</time>
      </trkpt>
      <trkpt lat="45.38179" lon="6.43707">
        <ele>1715</ele>
        <time>2018-06-25T01:59:26Z</time>
      </trkpt>
      <trkpt lat="45.38176" lon="6.43703">
        <ele>1716</ele>
        <time>2018-06-25T02:00:26Z</time>
      </trkpt>
      <trkpt lat="45.38174" lon="6.437">
        <ele>1716</ele>
        <time>2018-06-25T02:01:26Z</time>
      </trkpt>
      <trkpt lat="45.3817" lon="6.43698">
        <ele>1717</ele>
        <time>2018-06-25T02:02:26Z</time>
      </trkpt>
      <trkpt lat="45.38157" lon="6.43699">
        <ele>1717</ele>
        <time>2018-06-25T02:03:26Z</time>
      </trkpt>
      <trkpt lat="45.38153" lon="6.43698">
        <ele>1717</ele>
        <time>2018-06-25T02:04:26Z</time>
      </trkpt>
      <trkpt lat="45.3815" lon="6.43695">
        <ele>1717</ele>
        <time>2018-06-25T02:05:26Z</time>
      </trkpt>
      <trkpt lat="45.38132" lon="6.43673">
        <ele>1718</ele>
        <time>2018-06-25T02:06:26Z</time>
      </trkpt>
      <trkpt lat="45.38127" lon="6.4367">
        <ele>1718</ele>
        <time>2018-06-25T02:07:26Z</time>
      </trkpt>
      <trkpt lat="45.38119" lon="6.43662">
        <ele>1726</ele>
        <time>2018-06-25T02:08:26Z</time>
      </trkpt>
      <trkpt lat="45.38114" lon="6.4366">
        <ele>1726</ele>
        <time>2018-06-25T02:09:26Z</time>
      </trkpt>
      <trkpt lat="45.38108" lon="6.43659">
        <ele>1725</ele>
        <time>2018-06-25T02:10:26Z</time>
      </trkpt>
      <trkpt lat="45.38103" lon="6.43655">
        <ele>1725</ele>
        <time>2018-06-25T02:11:26Z</time>
      </trkpt>
      <trkpt lat="45.38098" lon="6.43649">
        <ele>1725</ele>
        <time>2018-06-25T02:12:26Z</time>
      </trkpt>
      <trkpt lat="45.3809" lon="6.43636">
        <ele>1727</ele>
        <time>2018-06-25T02:13:26Z</time>
      </trkpt>
      <trkpt lat="45.38086" lon="6.43631">
        <ele>1728</ele>
        <time>2018-06-25T02:14:26Z</time>
      </trkpt>
      <trkpt lat="45.38082" lon="6.43627">
        <ele>1724</ele>
        <time>2018-06-25T02:15:26Z</time>
      </trkpt>
      <trkpt lat="45.38079" lon="6.43622">
        <ele>1725</ele>
        <time>2018-06-25T02:16:26Z</time>
      </trkpt>
      <trkpt lat="45.38076" lon="6.43618">
        <ele>1726</ele>
        <time>2018-06-25T02:17:26Z</time>
      </trkpt>
      <trkpt lat="45.38073" lon="6.43617">
        <ele>1726</ele>
        <time>2018-06-25T02:18:26Z</time>
      </trkpt>
      <trkpt lat="45.38069" lon="6.43615">
        <ele>1726</ele>
        <time>2018-06-25T02:19:26Z</time>
      </trkpt>
      <trkpt lat="45.38066" lon="6.43611">
        <ele>1726</ele>
        <time>2018-06-25T02:20:26Z</time>
      </trkpt>
      <trkpt lat="45.38051" lon="6.4359">
        <ele>1727</ele>
        <time>2018-06-25T02:21:26Z</time>
      </trkpt>
      <trkpt lat="45.38046" lon="6.43586">
        <ele>1726</ele>
        <time>2018-06-25T02:22:26Z</time>
      </trkpt>
      <trkpt lat="45.38037" lon="6.43579">
        <ele>1736</ele>
        <time>2018-06-25T02:23:26Z</time>
      </trkpt>
      <trkpt lat="45.38033" lon="6.43574">
        <ele>1736</ele>
        <time>2018-06-25T02:24:26Z</time>
      </trkpt>
      <trkpt lat="45.38023" lon="6.43557">
        <ele>1737</ele>
        <time>2018-06-25T02:25:26Z</time>
      </trkpt>
      <trkpt lat="45.38019" lon="6.43554">
        <ele>1737</ele>
        <time>2018-06-25T02:26:26Z</time>
      </trkpt>
      <trkpt lat="45.38008" lon="6.43537">
        <ele>1740</ele>
        <time>2018-06-25T02:27:26Z</time>
      </trkpt>
      <trkpt lat="45.38004" lon="6.43533">
        <ele>1740</ele>
        <time>2018-06-25T02:28:26Z</time>
      </trkpt>
      <trkpt lat="45.37986" lon="6.43524">
        <ele>1736</ele>
        <time>2018-06-25T02:29:26Z</time>
      </trkpt>
      <trkpt lat="45.37981" lon="6.4352">
        <ele>1736</ele>
        <time>2018-06-25T02:30:26Z</time>
      </trkpt>
      <trkpt lat="45.37972" lon="6.43513">
        <ele>1736</ele>
        <time>2018-06-25T02:31:26Z</time>
      </trkpt>
      <trkpt lat="45.3797" lon="6.43508">
        <ele>1736</ele>
        <time>2018-06-25T02:32:26Z</time>
      </trkpt>
      <trkpt lat="45.37968" lon="6.43505">
        <ele>1736</ele>
        <time>2018-06-25T02:33:26Z</time>
      </trkpt>
      <trkpt lat="45.37964" lon="6.43502">
        <ele>1735</ele>
        <time>2018-06-25T02:34:26Z</time>
      </trkpt>
      <trkpt lat="45.37961" lon="6.43497">
        <ele>1747</ele>
        <time>2018-06-25T02:35:26Z</time>
      </trkpt>
      <trkpt lat="45.37949" lon="6.43483">
        <ele>1747</ele>
        <time>2018-06-25T02:36:26Z</time>
      </trkpt>
      <trkpt lat="45.37946" lon="6.43477">
        <ele>1747</ele>
        <time>2018-06-25T02:37:26Z</time>
      </trkpt>
      <trkpt lat="45.3794" lon="6.43465">
        <ele>1749</ele>
        <time>2018-06-25T02:38:26Z</time>
      </trkpt>
      <trkpt lat="45.37939" lon="6.4346">
        <ele>1749</ele>
        <time>2018-06-25T02:39:26Z</time>
      </trkpt>
      <trkpt lat="45.37937" lon="6.43456">
        <ele>1750</ele>
        <time>2018-06-25T02:40:26Z</time>
      </trkpt>
      <trkpt lat="45.37933" lon="6.43453">
        <ele>1750</ele>
        <time>2018-06-25T02:41:26Z</time>
      </trkpt>
      <trkpt lat="45.37912" lon="6.4344">
        <ele>1742</ele>
        <time>2018-06-25T02:42:26Z</time>
      </trkpt>
      <trkpt lat="45.37908" lon="6.43436">
        <ele>1742</ele>
        <time>2018-06-25T02:43:26Z</time>
      </trkpt>
      <trkpt lat="45.379" lon="6.43428">
        <ele>1742</ele>
        <time>2018-06-25T02:44:26Z</time>
      </trkpt>
      <trkpt lat="45.37898" lon="6.43423">
        <ele>1743</ele>
        <time>2018-06-25T02:45:26Z</time>
      </trkpt>
      <trkpt lat="45.37894" lon="6.4342">
        <ele>1742</ele>
        <time>2018-06-25T02:46:26Z</time>
      </trkpt>
      <trkpt lat="45.3789" lon="6.43415">
        <ele>1750</ele>
        <time>2018-06-25T02:47:26Z</time>
      </trkpt>
      <trkpt lat="45.37889" lon="6.43412">
        <ele>1750</ele>
        <time>2018-06-25T02:48:26Z</time>
      </trkpt>
      <trkpt lat="45.37859" lon="6.43372">
        <ele>1750</ele>
        <time>2018-06-25T02:49:26Z</time>
      </trkpt>
      <trkpt lat="45.37857" lon="6.43367">
        <ele>1751</ele>
        <time>2018-06-25T02:50:26Z</time>
      </trkpt>
      <trkpt lat="45.3785" lon="6.43347">
        <ele>1751</ele>
        <time>2018-06-25T02:51:26Z</time>
      </trkpt>
      <trkpt lat="45.37847" lon="6.43343">
        <ele>1750</ele>
        <time>2018-06-25T02:52:26Z</time>
      </trkpt>
      <trkpt lat="45.37838" lon="6.4333">
        <ele>1753</ele>
        <time>2018-06-25T02:53:26Z</time>
      </trkpt>
      <trkpt lat="45.37834" lon="6.43321">
        <ele>1757</ele>
        <time>2018-06-25T02:54:26Z</time>
      </trkpt>
      <trkpt lat="45.37831" lon="6.43318">
        <ele>1751</ele>
        <time>2018-06-25T02:55:26Z</time>
      </trkpt>
      <trkpt lat="45.37825" lon="6.43313">
        <ele>1752</ele>
        <time>2018-06-25T02:56:26Z</time>
      </trkpt>
      <trkpt lat="45.37824" lon="6.4331">
        <ele>1753</ele>
        <time>2018-06-25T02:57:26Z</time>
      </trkpt>
      <trkpt lat="45.37822" lon="6.43306">
        <ele>1753</ele>
        <time>2018-06-25T02:58:26Z</time>
      </trkpt>
      <trkpt lat="45.37819" lon="6.43303">
        <ele>1754</ele>
        <time>2018-06-25T02:59:26Z</time>
      </trkpt>
      <trkpt lat="45.37814" lon="6.43301">
        <ele>1754</ele>
        <time>2018-06-25T03:00:26Z</time>
      </trkpt>
      <trkpt lat="45.37811" lon="6.43302">
        <ele>1754</ele>
        <time>2018-06-25T03:01:26Z</time>
      </trkpt>
      <trkpt lat="45.3781" lon="6.43302">
        <ele>1754</ele>
        <time>2018-06-25T03:02:26Z</time>
      </trkpt>
      <trkpt lat="45.37806" lon="6.433">
        <ele>1754</ele>
        <time>2018-06-25T03:03:26Z</time>
      </trkpt>
      <trkpt lat="45.37802" lon="6.43298">
        <ele>1754</ele>
        <time>2018-06-25T03:04:26Z</time>
      </trkpt>
      <trkpt lat="45.37797" lon="6.43297">
        <ele>1754</ele>
        <time>2018-06-25T03:05:26Z</time>
      </trkpt>
      <trkpt lat="45.37794" lon="6.43294">
        <ele>1754</ele>
        <time>2018-06-25T03:06:26Z</time>
      </trkpt>
      <trkpt lat="45.37787" lon="6.4329">
        <ele>1755</ele>
        <time>2018-06-25T03:07:26Z</time>
      </trkpt>
      <trkpt lat="45.37784" lon="6.43286">
        <ele>1755</ele>
        <time>2018-06-25T03:08:26Z</time>
      </trkpt>
      <trkpt lat="45.37781" lon="6.43282">
        <ele>1755</ele>
        <time>2018-06-25T03:09:26Z</time>
      </trkpt>
      <trkpt lat="45.37779" lon="6.43278">
        <ele>1755</ele>
        <time>2018-06-25T03:10:26Z</time>
      </trkpt>
      <trkpt lat="45.37777" lon="6.43273">
        <ele>1755</ele>
        <time>2018-06-25T03:11:26Z</time>
      </trkpt>
      <trkpt lat="45.37774" lon="6.43264">
        <ele>1755</ele>
        <time>2018-06-25T03:12:26Z</time>
      </trkpt>
      <trkpt lat="45.37774" lon="6.43259">
        <ele>1755</ele>
        <time>2018-06-25T03:13:26Z</time>
      </trkpt>
      <trkpt lat="45.37773" lon="6.43255">
        <ele>1755</ele>
        <time>2018-06-25T03:14:26Z</time>
      </trkpt>
      <trkpt lat="45.37769" lon="6.43254">
        <ele>1754</ele>
        <time>2018-06-25T03:15:26Z</time>
      </trkpt>
      <trkpt lat="45.37757" lon="6.43249">
        <ele>1756</ele>
        <time>2018-06-25T03:16:26Z</time>
      </trkpt>
      <trkpt lat="45.37754" lon="6.43245">
        <ele>1756</ele>
        <time>2018-06-25T03:17:26Z</time>
      </trkpt>
      <trkpt lat="45.37752" lon="6.43241">
        <ele>1757</ele>
        <time>2018-06-25T03:18:26Z</time>
      </trkpt>
      <trkpt lat="45.37752" lon="6.4323">
        <ele>1760</ele>
        <time>2018-06-25T03:19:26Z</time>
      </trkpt>
      <trkpt lat="45.37753" lon="6.4322">
        <ele>1762</ele>
        <time>2018-06-25T03:20:26Z</time>
      </trkpt>
      <trkpt lat="45.37752" lon="6.43216">
        <ele>1762</ele>
        <time>2018-06-25T03:21:26Z</time>
      </trkpt>
      <trkpt lat="45.37751" lon="6.43207">
        <ele>1763</ele>
        <time>2018-06-25T03:22:26Z</time>
      </trkpt>
      <trkpt lat="45.37748" lon="6.43205">
        <ele>1761</ele>
        <time>2018-06-25T03:23:26Z</time>
      </trkpt>
      <trkpt lat="45.37742" lon="6.43198">
        <ele>1761</ele>
        <time>2018-06-25T03:24:26Z</time>
      </trkpt>
      <trkpt lat="45.3774" lon="6.43194">
        <ele>1761</ele>
        <time>2018-06-25T03:25:26Z</time>
      </trkpt>
      <trkpt lat="45.37739" lon="6.43189">
        <ele>1761</ele>
        <time>2018-06-25T03:26:26Z</time>
      </trkpt>
      <trkpt lat="45.37739" lon="6.4318">
        <ele>1761</ele>
        <time>2018-06-25T03:27:26Z</time>
      </trkpt>
      <trkpt lat="45.37737" lon="6.43178">
        <ele>1761</ele>
        <time>2018-06-25T03:28:26Z</time>
      </trkpt>
      <trkpt lat="45.37735" lon="6.43169">
        <ele>1761</ele>
        <time>2018-06-25T03:29:26Z</time>
      </trkpt>
      <trkpt lat="45.37735" lon="6.43161">
        <ele>1763</ele>
        <time>2018-06-25T03:30:26Z</time>
      </trkpt>
      <trkpt lat="45.37733" lon="6.43157">
        <ele>1764</ele>
        <time>2018-06-25T03:31:26Z</time>
      </trkpt>
      <trkpt lat="45.37728" lon="6.43136">
        <ele>1766</ele>
        <time>2018-06-25T03:32:26Z</time>
      </trkpt>
      <trkpt lat="45.37726" lon="6.43132">
        <ele>1767</ele>
        <time>2018-06-25T03:33:26Z</time>
      </trkpt>
      <trkpt lat="45.3772" lon="6.43125">
        <ele>1767</ele>
        <time>2018-06-25T03:34:26Z</time>
      </trkpt>
      <trkpt lat="45.37719" lon="6.43121">
        <ele>1768</ele>
        <time>2018-06-25T03:35:26Z</time>
      </trkpt>
      <trkpt lat="45.37719" lon="6.43109">
        <ele>1769</ele>
        <time>2018-06-25T03:36:26Z</time>
      </trkpt>
      <trkpt lat="45.37718" lon="6.43106">
        <ele>1769</ele>
        <time>2018-06-25T03:37:26Z</time>
      </trkpt>
      <trkpt lat="45.37716" lon="6.43102">
        <ele>1769</ele>
        <time>2018-06-25T03:38:26Z</time>
      </trkpt>
      <trkpt lat="45.37713" lon="6.43097">
        <ele>1769</ele>
        <time>2018-06-25T03:39:26Z</time>
      </trkpt>
      <trkpt lat="45.37705" lon="6.43082">
        <ele>1778</ele>
        <time>2018-06-25T03:40:26Z</time>
      </trkpt>
      <trkpt lat="45.37702" lon="6.43078">
        <ele>1778</ele>
        <time>2018-06-25T03:41:26Z</time>
      </trkpt>
      <trkpt lat="45.37694" lon="6.43066">
        <ele>1778</ele>
        <time>2018-06-25T03:42:26Z</time>
      </trkpt>
      <trkpt lat="45.37691" lon="6.43063">
        <ele>1778</ele>
        <time>2018-06-25T03:43:26Z</time>
      </trkpt>
      <trkpt lat="45.37683" lon="6.43054">
        <ele>1778</ele>
        <time>2018-06-25T03:44:26Z</time>
      </trkpt>
      <trkpt lat="45.37681" lon="6.43049">
        <ele>1779</ele>
        <time>2018-06-25T03:45:26Z</time>
      </trkpt>
      <trkpt lat="45.3768" lon="6.43044">
        <ele>1779</ele>
        <time>2018-06-25T03:46:26Z</time>
      </trkpt>
      <trkpt lat="45.37678" lon="6.43041">
        <ele>1780</ele>
        <time>2018-06-25T03:47:26Z</time>
      </trkpt>
      <trkpt lat="45.37675" lon="6.4304">
        <ele>1780</ele>
        <time>2018-06-25T03:48:26Z</time>
      </trkpt>
      <trkpt lat="45.37668" lon="6.43037">
        <ele>1780</ele>
        <time>2018-06-25T03:49:26Z</time>
      </trkpt>
      <trkpt lat="45.37664" lon="6.43034">
        <ele>1775</ele>
        <time>2018-06-25T03:50:26Z</time>
      </trkpt>
      <trkpt lat="45.3765" lon="6.43019">
        <ele>1776</ele>
        <time>2018-06-25T03:51:26Z</time>
      </trkpt>
      <trkpt lat="45.37645" lon="6.43017">
        <ele>1776</ele>
        <time>2018-06-25T03:52:26Z</time>
      </trkpt>
      <trkpt lat="45.37642" lon="6.43014">
        <ele>1776</ele>
        <time>2018-06-25T03:53:26Z</time>
      </trkpt>
      <trkpt lat="45.37635" lon="6.43001">
        <ele>1775</ele>
        <time>2018-06-25T03:54:26Z</time>
      </trkpt>
      <trkpt lat="45.37633" lon="6.42999">
        <ele>1782</ele>
        <time>2018-06-25T03:55:26Z</time>
      </trkpt>
      <trkpt lat="45.37629" lon="6.42997">
        <ele>1781</ele>
        <time>2018-06-25T03:56:26Z</time>
      </trkpt>
      <trkpt lat="45.37628" lon="6.42994">
        <ele>1782</ele>
        <time>2018-06-25T03:57:26Z</time>
      </trkpt>
      <trkpt lat="45.37627" lon="6.42989">
        <ele>1782</ele>
        <time>2018-06-25T03:58:26Z</time>
      </trkpt>
      <trkpt lat="45.37626" lon="6.42953">
        <ele>1785</ele>
        <time>2018-06-25T03:59:26Z</time>
      </trkpt>
      <trkpt lat="45.37627" lon="6.42948">
        <ele>1786</ele>
        <time>2018-06-25T04:00:26Z</time>
      </trkpt>
      <trkpt lat="45.3763" lon="6.42949">
        <ele>1786</ele>
        <time>2018-06-25T04:01:26Z</time>
      </trkpt>
      <trkpt lat="45.37645" lon="6.4295">
        <ele>1787</ele>
        <time>2018-06-25T04:02:26Z</time>
      </trkpt>
      <trkpt lat="45.37646" lon="6.42948">
        <ele>1788</ele>
        <time>2018-06-25T04:03:26Z</time>
      </trkpt>
      <trkpt lat="45.37652" lon="6.42917">
        <ele>1794</ele>
        <time>2018-06-25T04:04:26Z</time>
      </trkpt>
      <trkpt lat="45.37651" lon="6.42912">
        <ele>1802</ele>
        <time>2018-06-25T04:05:26Z</time>
      </trkpt>
      <trkpt lat="45.37652" lon="6.42907">
        <ele>1802</ele>
        <time>2018-06-25T04:06:26Z</time>
      </trkpt>
      <trkpt lat="45.37653" lon="6.42903">
        <ele>1803</ele>
        <time>2018-06-25T04:07:26Z</time>
      </trkpt>
      <trkpt lat="45.37657" lon="6.42899">
        <ele>1803</ele>
        <time>2018-06-25T04:08:26Z</time>
      </trkpt>
      <trkpt lat="45.37656" lon="6.42897">
        <ele>1803</ele>
        <time>2018-06-25T04:09:26Z</time>
      </trkpt>
      <trkpt lat="45.37652" lon="6.42887">
        <ele>1804</ele>
        <time>2018-06-25T04:10:26Z</time>
      </trkpt>
      <trkpt lat="45.3765" lon="6.42885">
        <ele>1804</ele>
        <time>2018-06-25T04:11:26Z</time>
      </trkpt>
      <trkpt lat="45.37649" lon="6.42881">
        <ele>1805</ele>
        <time>2018-06-25T04:12:26Z</time>
      </trkpt>
      <trkpt lat="45.37648" lon="6.42877">
        <ele>1805</ele>
        <time>2018-06-25T04:13:26Z</time>
      </trkpt>
      <trkpt lat="45.37648" lon="6.42873">
        <ele>1806</ele>
        <time>2018-06-25T04:14:26Z</time>
      </trkpt>
      <trkpt lat="45.37648" lon="6.42864">
        <ele>1807</ele>
        <time>2018-06-25T04:15:26Z</time>
      </trkpt>
      <trkpt lat="45.37647" lon="6.42859">
        <ele>1808</ele>
        <time>2018-06-25T04:16:26Z</time>
      </trkpt>
      <trkpt lat="45.37643" lon="6.42839">
        <ele>1810</ele>
        <time>2018-06-25T04:17:26Z</time>
      </trkpt>
      <trkpt lat="45.37641" lon="6.42835">
        <ele>1810</ele>
        <time>2018-06-25T04:18:26Z</time>
      </trkpt>
      <trkpt lat="45.37631" lon="6.42815">
        <ele>1824</ele>
        <time>2018-06-25T04:19:26Z</time>
      </trkpt>
      <trkpt lat="45.37626" lon="6.42809">
        <ele>1825</ele>
        <time>2018-06-25T04:20:26Z</time>
      </trkpt>
      <trkpt lat="45.37622" lon="6.42802">
        <ele>1825</ele>
        <time>2018-06-25T04:21:26Z</time>
      </trkpt>
      <trkpt lat="45.37619" lon="6.42799">
        <ele>1826</ele>
        <time>2018-06-25T04:22:26Z</time>
      </trkpt>
      <trkpt lat="45.37616" lon="6.42795">
        <ele>1826</ele>
        <time>2018-06-25T04:23:26Z</time>
      </trkpt>
      <trkpt lat="45.37604" lon="6.42774">
        <ele>1829</ele>
        <time>2018-06-25T04:24:26Z</time>
      </trkpt>
      <trkpt lat="45.376" lon="6.42765">
        <ele>1831</ele>
        <time>2018-06-25T04:25:26Z</time>
      </trkpt>
      <trkpt lat="45.37596" lon="6.42761">
        <ele>1831</ele>
        <time>2018-06-25T04:26:26Z</time>
      </trkpt>
      <trkpt lat="45.37591" lon="6.42759">
        <ele>1832</ele>
        <time>2018-06-25T04:27:26Z</time>
      </trkpt>
      <trkpt lat="45.37588" lon="6.42755">
        <ele>1833</ele>
        <time>2018-06-25T04:28:26Z</time>
      </trkpt>
      <trkpt lat="45.3758" lon="6.4275">
        <ele>1832</ele>
        <time>2018-06-25T04:29:26Z</time>
      </trkpt>
      <trkpt lat="45.37577" lon="6.42745">
        <ele>1838</ele>
        <time>2018-06-25T04:30:26Z</time>
      </trkpt>
      <trkpt lat="45.37568" lon="6.42732">
        <ele>1841</ele>
        <time>2018-06-25T04:31:26Z</time>
      </trkpt>
      <trkpt lat="45.37565" lon="6.42729">
        <ele>1842</ele>
        <time>2018-06-25T04:32:26Z</time>
      </trkpt>
      <trkpt lat="45.37561" lon="6.42727">
        <ele>1842</ele>
        <time>2018-06-25T04:33:26Z</time>
      </trkpt>
      <trkpt lat="45.37559" lon="6.42724">
        <ele>1843</ele>
        <time>2018-06-25T04:34:26Z</time>
      </trkpt>
      <trkpt lat="45.37557" lon="6.42721">
        <ele>1843</ele>
        <time>2018-06-25T04:35:26Z</time>
      </trkpt>
      <trkpt lat="45.37553" lon="6.4272">
        <ele>1843</ele>
        <time>2018-06-25T04:36:26Z</time>
      </trkpt>
      <trkpt lat="45.37552" lon="6.42717">
        <ele>1844</ele>
        <time>2018-06-25T04:37:26Z</time>
      </trkpt>
      <trkpt lat="45.37545" lon="6.42702">
        <ele>1846</ele>
        <time>2018-06-25T04:38:26Z</time>
      </trkpt>
      <trkpt lat="45.37544" lon="6.42698">
        <ele>1847</ele>
        <time>2018-06-25T04:39:26Z</time>
      </trkpt>
      <trkpt lat="45.37541" lon="6.42693">
        <ele>1848</ele>
        <time>2018-06-25T04:40:26Z</time>
      </trkpt>
      <trkpt lat="45.37532" lon="6.42682">
        <ele>1849</ele>
        <time>2018-06-25T04:41:26Z</time>
      </trkpt>
      <trkpt lat="45.37528" lon="6.42679">
        <ele>1850</ele>
        <time>2018-06-25T04:42:26Z</time>
      </trkpt>
      <trkpt lat="45.37513" lon="6.42665">
        <ele>1866</ele>
        <time>2018-06-25T04:43:26Z</time>
      </trkpt>
      <trkpt lat="45.3751" lon="6.42663">
        <ele>1865</ele>
        <time>2018-06-25T04:44:26Z</time>
      </trkpt>
      <trkpt lat="45.37507" lon="6.42661">
        <ele>1864</ele>
        <time>2018-06-25T04:45:26Z</time>
      </trkpt>
      <trkpt lat="45.37503" lon="6.42663">
        <ele>1861</ele>
        <time>2018-06-25T04:46:26Z</time>
      </trkpt>
      <trkpt lat="45.37493" lon="6.42664">
        <ele>1860</ele>
        <time>2018-06-25T04:47:26Z</time>
      </trkpt>
      <trkpt lat="45.37489" lon="6.42663">
        <ele>1862</ele>
        <time>2018-06-25T04:48:26Z</time>
      </trkpt>
      <trkpt lat="45.37487" lon="6.42662">
        <ele>1862</ele>
        <time>2018-06-25T04:49:26Z</time>
      </trkpt>
      <trkpt lat="45.37484" lon="6.42663">
        <ele>1863</ele>
        <time>2018-06-25T04:50:26Z</time>
      </trkpt>
      <trkpt lat="45.3748" lon="6.42663">
        <ele>1863</ele>
        <time>2018-06-25T04:51:26Z</time>
      </trkpt>
      <trkpt lat="45.37477" lon="6.42665">
        <ele>1863</ele>
        <time>2018-06-25T04:52:26Z</time>
      </trkpt>
      <trkpt lat="45.37474" lon="6.42665">
        <ele>1864</ele>
        <time>2018-06-25T04:53:26Z</time>
      </trkpt>
      <trkpt lat="45.3747" lon="6.42663">
        <ele>1864</ele>
        <time>2018-06-25T04:54:26Z</time>
      </trkpt>
      <trkpt lat="45.37465" lon="6.42661">
        <ele>1864</ele>
        <time>2018-06-25T04:55:26Z</time>
      </trkpt>
      <trkpt lat="45.37462" lon="6.42659">
        <ele>1864</ele>
        <time>2018-06-25T04:56:26Z</time>
      </trkpt>
      <trkpt lat="45.3746" lon="6.42656">
        <ele>1864</ele>
        <time>2018-06-25T04:57:26Z</time>
      </trkpt>
      <trkpt lat="45.37457" lon="6.42655">
        <ele>1864</ele>
        <time>2018-06-25T04:58:26Z</time>
      </trkpt>
      <trkpt lat="45.37454" lon="6.42654">
        <ele>1864</ele>
        <time>2018-06-25T04:59:26Z</time>
      </trkpt>
      <trkpt lat="45.37453" lon="6.42651">
        <ele>1864</ele>
        <time>2018-06-25T05:00:26Z</time>
      </trkpt>
      <trkpt lat="45.37445" lon="6.42645">
        <ele>1864</ele>
        <time>2018-06-25T05:01:26Z</time>
      </trkpt>
      <trkpt lat="45.37443" lon="6.42641">
        <ele>1865</ele>
        <time>2018-06-25T05:02:26Z</time>
      </trkpt>
      <trkpt lat="45.37442" lon="6.42638">
        <ele>1866</ele>
        <time>2018-06-25T05:03:26Z</time>
      </trkpt>
      <trkpt lat="45.3744" lon="6.42637">
        <ele>1866</ele>
        <time>2018-06-25T05:04:26Z</time>
      </trkpt>
      <trkpt lat="45.37435" lon="6.42631">
        <ele>1867</ele>
        <time>2018-06-25T05:05:26Z</time>
      </trkpt>
      <trkpt lat="45.37435" lon="6.42627">
        <ele>1868</ele>
        <time>2018-06-25T05:06:26Z</time>
      </trkpt>
      <trkpt lat="45.37432" lon="6.42621">
        <ele>1870</ele>
        <time>2018-06-25T05:07:26Z</time>
      </trkpt>
      <trkpt lat="45.37432" lon="6.42616">
        <ele>1872</ele>
        <time>2018-06-25T05:08:26Z</time>
      </trkpt>
      <trkpt lat="45.37432" lon="6.42611">
        <ele>1873</ele>
        <time>2018-06-25T05:09:26Z</time>
      </trkpt>
      <trkpt lat="45.37431" lon="6.42609">
        <ele>1874</ele>
        <time>2018-06-25T05:10:26Z</time>
      </trkpt>
      <trkpt lat="45.37428" lon="6.42602">
        <ele>1876</ele>
        <time>2018-06-25T05:11:26Z</time>
      </trkpt>
      <trkpt lat="45.37426" lon="6.42591">
        <ele>1880</ele>
        <time>2018-06-25T05:12:26Z</time>
      </trkpt>
      <trkpt lat="45.37424" lon="6.42589">
        <ele>1881</ele>
        <time>2018-06-25T05:13:26Z</time>
      </trkpt>
      <trkpt lat="45.37422" lon="6.42585">
        <ele>1883</ele>
        <time>2018-06-25T05:14:26Z</time>
      </trkpt>
      <trkpt lat="45.37422" lon="6.4258">
        <ele>1889</ele>
        <time>2018-06-25T05:15:26Z</time>
      </trkpt>
      <trkpt lat="45.37422" lon="6.42572">
        <ele>1891</ele>
        <time>2018-06-25T05:16:26Z</time>
      </trkpt>
      <trkpt lat="45.37424" lon="6.42568">
        <ele>1892</ele>
        <time>2018-06-25T05:17:26Z</time>
      </trkpt>
      <trkpt lat="45.37426" lon="6.42565">
        <ele>1893</ele>
        <time>2018-06-25T05:18:26Z</time>
      </trkpt>
      <trkpt lat="45.37429" lon="6.42563">
        <ele>1894</ele>
        <time>2018-06-25T05:19:26Z</time>
      </trkpt>
      <trkpt lat="45.3744" lon="6.42556">
        <ele>1896</ele>
        <time>2018-06-25T05:20:26Z</time>
      </trkpt>
      <trkpt lat="45.37455" lon="6.4255">
        <ele>1898</ele>
        <time>2018-06-25T05:21:26Z</time>
      </trkpt>
      <trkpt lat="45.37458" lon="6.42551">
        <ele>1898</ele>
        <time>2018-06-25T05:22:26Z</time>
      </trkpt>
      <trkpt lat="45.37461" lon="6.4255">
        <ele>1898</ele>
        <time>2018-06-25T05:23:26Z</time>
      </trkpt>
      <trkpt lat="45.37464" lon="6.42548">
        <ele>1899</ele>
        <time>2018-06-25T05:24:26Z</time>
      </trkpt>
      <trkpt lat="45.37467" lon="6.42544">
        <ele>1899</ele>
        <time>2018-06-25T05:25:26Z</time>
      </trkpt>
      <trkpt lat="45.37468" lon="6.4254">
        <ele>1900</ele>
        <time>2018-06-25T05:26:26Z</time>
      </trkpt>
      <trkpt lat="45.37468" lon="6.4253">
        <ele>1901</ele>
        <time>2018-06-25T05:27:26Z</time>
      </trkpt>
      <trkpt lat="45.3747" lon="6.42527">
        <ele>1901</ele>
        <time>2018-06-25T05:28:26Z</time>
      </trkpt>
      <trkpt lat="45.37472" lon="6.42524">
        <ele>1902</ele>
        <time>2018-06-25T05:29:26Z</time>
      </trkpt>
      <trkpt lat="45.3747" lon="6.42521">
        <ele>1902</ele>
        <time>2018-06-25T05:30:26Z</time>
      </trkpt>
      <trkpt lat="45.37468" lon="6.4252">
        <ele>1902</ele>
        <time>2018-06-25T05:31:26Z</time>
      </trkpt>
      <trkpt lat="45.37467" lon="6.42516">
        <ele>1902</ele>
        <time>2018-06-25T05:32:26Z</time>
      </trkpt>
      <trkpt lat="45.37466" lon="6.42511">
        <ele>1902</ele>
        <time>2018-06-25T05:33:26Z</time>
      </trkpt>
      <trkpt lat="45.37468" lon="6.42508">
        <ele>1903</ele>
        <time>2018-06-25T05:34:26Z</time>
      </trkpt>
      <trkpt lat="45.3747" lon="6.42504">
        <ele>1904</ele>
        <time>2018-06-25T05:35:26Z</time>
      </trkpt>
      <trkpt lat="45.3747" lon="6.425">
        <ele>1914</ele>
        <time>2018-06-25T05:36:26Z</time>
      </trkpt>
      <trkpt lat="45.37457" lon="6.42479">
        <ele>1913</ele>
        <time>2018-06-25T05:37:26Z</time>
      </trkpt>
      <trkpt lat="45.37447" lon="6.42465">
        <ele>1913</ele>
        <time>2018-06-25T05:38:26Z</time>
      </trkpt>
      <trkpt lat="45.37444" lon="6.42463">
        <ele>1913</ele>
        <time>2018-06-25T05:39:26Z</time>
      </trkpt>
      <trkpt lat="45.37442" lon="6.42458">
        <ele>1913</ele>
        <time>2018-06-25T05:40:26Z</time>
      </trkpt>
      <trkpt lat="45.37433" lon="6.42446">
        <ele>1913</ele>
        <time>2018-06-25T05:41:26Z</time>
      </trkpt>
      <trkpt lat="45.3743" lon="6.42438">
        <ele>1913</ele>
        <time>2018-06-25T05:42:26Z</time>
      </trkpt>
      <trkpt lat="45.37422" lon="6.42422">
        <ele>1911</ele>
        <time>2018-06-25T05:43:26Z</time>
      </trkpt>
      <trkpt lat="45.3742" lon="6.42414">
        <ele>1914</ele>
        <time>2018-06-25T05:44:26Z</time>
      </trkpt>
      <trkpt lat="45.37412" lon="6.42386">
        <ele>1910</ele>
        <time>2018-06-25T05:45:26Z</time>
      </trkpt>
      <trkpt lat="45.37409" lon="6.42381">
        <ele>1911</ele>
        <time>2018-06-25T05:46:26Z</time>
      </trkpt>
      <trkpt lat="45.37396" lon="6.42366">
        <ele>1912</ele>
        <time>2018-06-25T05:47:26Z</time>
      </trkpt>
      <trkpt lat="45.37391" lon="6.42361">
        <ele>1912</ele>
        <time>2018-06-25T05:48:26Z</time>
      </trkpt>
      <trkpt lat="45.37386" lon="6.42358">
        <ele>1911</ele>
        <time>2018-06-25T05:49:26Z</time>
      </trkpt>
      <trkpt lat="45.37382" lon="6.42353">
        <ele>1911</ele>
        <time>2018-06-25T05:50:26Z</time>
      </trkpt>
      <trkpt lat="45.37378" lon="6.42348">
        <ele>1911</ele>
        <time>2018-06-25T05:51:26Z</time>
      </trkpt>
      <trkpt lat="45.37374" lon="6.42347">
        <ele>1910</ele>
        <time>2018-06-25T05:52:26Z</time>
      </trkpt>
      <trkpt lat="45.37367" lon="6.42347">
        <ele>1909</ele>
        <time>2018-06-25T05:53:26Z</time>
      </trkpt>
      <trkpt lat="45.37363" lon="6.42348">
        <ele>1908</ele>
        <time>2018-06-25T05:54:26Z</time>
      </trkpt>
      <trkpt lat="45.37359" lon="6.42349">
        <ele>1908</ele>
        <time>2018-06-25T05:55:26Z</time>
      </trkpt>
      <trkpt lat="45.37354" lon="6.42349">
        <ele>1907</ele>
        <time>2018-06-25T05:56:26Z</time>
      </trkpt>
      <trkpt lat="45.3735" lon="6.42349">
        <ele>1907</ele>
        <time>2018-06-25T05:57:26Z</time>
      </trkpt>
      <trkpt lat="45.37346" lon="6.42348">
        <ele>1906</ele>
        <time>2018-06-25T05:58:26Z</time>
      </trkpt>
      <trkpt lat="45.37338" lon="6.42346">
        <ele>1906</ele>
        <time>2018-06-25T05:59:26Z</time>
      </trkpt>
      <trkpt lat="45.37334" lon="6.42343">
        <ele>1906</ele>
        <time>2018-06-25T06:00:26Z</time>
      </trkpt>
      <trkpt lat="45.37326" lon="6.42338">
        <ele>1901</ele>
        <time>2018-06-25T06:01:26Z</time>
      </trkpt>
      <trkpt lat="45.37318" lon="6.4233">
        <ele>1913</ele>
        <time>2018-06-25T06:02:26Z</time>
      </trkpt>
      <trkpt lat="45.37303" lon="6.42314">
        <ele>1917</ele>
        <time>2018-06-25T06:03:26Z</time>
      </trkpt>
      <trkpt lat="45.373" lon="6.42309">
        <ele>1918</ele>
        <time>2018-06-25T06:04:26Z</time>
      </trkpt>
      <trkpt lat="45.37293" lon="6.42303">
        <ele>1919</ele>
        <time>2018-06-25T06:05:26Z</time>
      </trkpt>
      <trkpt lat="45.37286" lon="6.42298">
        <ele>1920</ele>
        <time>2018-06-25T06:06:26Z</time>
      </trkpt>
      <trkpt lat="45.37281" lon="6.42297">
        <ele>1920</ele>
        <time>2018-06-25T06:07:26Z</time>
      </trkpt>
      <trkpt lat="45.37268" lon="6.423">
        <ele>1918</ele>
        <time>2018-06-25T06:08:26Z</time>
      </trkpt>
      <trkpt lat="45.37262" lon="6.423">
        <ele>1918</ele>
        <time>2018-06-25T06:09:26Z</time>
      </trkpt>
      <trkpt lat="45.37253" lon="6.42298">
        <ele>1918</ele>
        <time>2018-06-25T06:10:26Z</time>
      </trkpt>
      <trkpt lat="45.37245" lon="6.42296">
        <ele>1922</ele>
        <time>2018-06-25T06:11:26Z</time>
      </trkpt>
      <trkpt lat="45.37238" lon="6.42296">
        <ele>1922</ele>
        <time>2018-06-25T06:12:26Z</time>
      </trkpt>
      <trkpt lat="45.37228" lon="6.42293">
        <ele>1924</ele>
        <time>2018-06-25T06:13:26Z</time>
      </trkpt>
      <trkpt lat="45.37213" lon="6.42288">
        <ele>1927</ele>
        <time>2018-06-25T06:14:26Z</time>
      </trkpt>
      <trkpt lat="45.37207" lon="6.42291">
        <ele>1927</ele>
        <time>2018-06-25T06:15:26Z</time>
      </trkpt>
      <trkpt lat="45.37202" lon="6.42292">
        <ele>1927</ele>
        <time>2018-06-25T06:16:26Z</time>
      </trkpt>
      <trkpt lat="45.37195" lon="6.4229">
        <ele>1928</ele>
        <time>2018-06-25T06:17:26Z</time>
      </trkpt>
      <trkpt lat="45.37183" lon="6.42284">
        <ele>1930</ele>
        <time>2018-06-25T06:18:26Z</time>
      </trkpt>
      <trkpt lat="45.3718" lon="6.4228">
        <ele>1932</ele>
        <time>2018-06-25T06:19:26Z</time>
      </trkpt>
      <trkpt lat="45.37176" lon="6.42275">
        <ele>1934</ele>
        <time>2018-06-25T06:20:26Z</time>
      </trkpt>
      <trkpt lat="45.37172" lon="6.42273">
        <ele>1935</ele>
        <time>2018-06-25T06:21:26Z</time>
      </trkpt>
      <trkpt lat="45.37169" lon="6.42275">
        <ele>1935</ele>
        <time>2018-06-25T06:22:26Z</time>
      </trkpt>
      <trkpt lat="45.37152" lon="6.42285">
        <ele>1938</ele>
        <time>2018-06-25T06:23:26Z</time>
      </trkpt>
      <trkpt lat="45.37148" lon="6.42289">
        <ele>1937</ele>
        <time>2018-06-25T06:24:26Z</time>
      </trkpt>
      <trkpt lat="45.37144" lon="6.42291">
        <ele>1937</ele>
        <time>2018-06-25T06:25:26Z</time>
      </trkpt>
      <trkpt lat="45.37132" lon="6.42284">
        <ele>1938</ele>
        <time>2018-06-25T06:26:26Z</time>
      </trkpt>
      <trkpt lat="45.37125" lon="6.42283">
        <ele>1938</ele>
        <time>2018-06-25T06:27:26Z</time>
      </trkpt>
      <trkpt lat="45.37122" lon="6.42279">
        <ele>1939</ele>
        <time>2018-06-25T06:28:26Z</time>
      </trkpt>
      <trkpt lat="45.37118" lon="6.42277">
        <ele>1939</ele>
        <time>2018-06-25T06:29:26Z</time>
      </trkpt>
      <trkpt lat="45.37113" lon="6.42278">
        <ele>1940</ele>
        <time>2018-06-25T06:30:26Z</time>
      </trkpt>
      <trkpt lat="45.37103" lon="6.42274">
        <ele>1941</ele>
        <time>2018-06-25T06:31:26Z</time>
      </trkpt>
      <trkpt lat="45.37096" lon="6.42276">
        <ele>1941</ele>
        <time>2018-06-25T06:32:26Z</time>
      </trkpt>
      <trkpt lat="45.37078" lon="6.42283">
        <ele>1944</ele>
        <time>2018-06-25T06:33:26Z</time>
      </trkpt>
      <trkpt lat="45.37062" lon="6.42284">
        <ele>1944</ele>
        <time>2018-06-25T06:34:26Z</time>
      </trkpt>
      <trkpt lat="45.3704" lon="6.42282">
        <ele>1945</ele>
        <time>2018-06-25T06:35:26Z</time>
      </trkpt>
      <trkpt lat="45.37016" lon="6.4228">
        <ele>1946</ele>
        <time>2018-06-25T06:36:26Z</time>
      </trkpt>
      <trkpt lat="45.36962" lon="6.4228">
        <ele>1955</ele>
        <time>2018-06-25T06:37:26Z</time>
      </trkpt>
      <trkpt lat="45.36922" lon="6.42283">
        <ele>1958</ele>
        <time>2018-06-25T06:38:26Z</time>
      </trkpt>
      <trkpt lat="45.36883" lon="6.42295">
        <ele>1966</ele>
        <time>2018-06-25T06:39:26Z</time>
      </trkpt>
      <trkpt lat="45.36849" lon="6.4231">
        <ele>1967</ele>
        <time>2018-06-25T06:40:26Z</time>
      </trkpt>
      <trkpt lat="45.36819" lon="6.42317">
        <ele>1970</ele>
        <time>2018-06-25T06:41:26Z</time>
      </trkpt>
      <trkpt lat="45.36796" lon="6.42319">
        <ele>1971</ele>
        <time>2018-06-25T06:42:26Z</time>
      </trkpt>
      <trkpt lat="45.36766" lon="6.4232">
        <ele>1971</ele>
        <time>2018-06-25T06:43:26Z</time>
      </trkpt>
      <trkpt lat="45.36749" lon="6.42323">
        <ele>1972</ele>
        <time>2018-06-25T06:44:26Z</time>
      </trkpt>
      <trkpt lat="45.36716" lon="6.42338">
        <ele>1968</ele>
        <time>2018-06-25T06:45:26Z</time>
      </trkpt>
      <trkpt lat="45.36686" lon="6.42348">
        <ele>1970</ele>
        <time>2018-06-25T06:46:26Z</time>
      </trkpt>
      <trkpt lat="45.36642" lon="6.42352">
        <ele>1973</ele>
        <time>2018-06-25T06:47:26Z</time>
      </trkpt>
      <trkpt lat="45.36589" lon="6.42356">
        <ele>1976</ele>
        <time>2018-06-25T06:48:26Z</time>
      </trkpt>
      <trkpt lat="45.36536" lon="6.42352">
        <ele>1982</ele>
        <time>2018-06-25T06:49:26Z</time>
      </trkpt>
      <trkpt lat="45.36474" lon="6.42348">
        <ele>1987</ele>
        <time>2018-06-25T06:50:26Z</time>
      </trkpt>
      <trkpt lat="45.36446" lon="6.42342">
        <ele>1989</ele>
        <time>2018-06-25T06:51:26Z</time>
      </trkpt>
      <trkpt lat="45.36401" lon="6.42325">
        <ele>2003</ele>
        <time>2018-06-25T06:52:26Z</time>
      </trkpt>
      <trkpt lat="45.3637" lon="6.4231">
        <ele>2004</ele>
        <time>2018-06-25T06:53:26Z</time>
      </trkpt>
      <trkpt lat="45.36339" lon="6.42288">
        <ele>2006</ele>
        <time>2018-06-25T06:54:26Z</time>
      </trkpt>
      <trkpt lat="45.36296" lon="6.42249">
        <ele>2013</ele>
        <time>2018-06-25T06:55:26Z</time>
      </trkpt>
      <trkpt lat="45.36266" lon="6.42216">
        <ele>2012</ele>
        <time>2018-06-25T06:56:26Z</time>
      </trkpt>
      <trkpt lat="45.36207" lon="6.4216">
        <ele>2018</ele>
        <time>2018-06-25T06:57:26Z</time>
      </trkpt>
      <trkpt lat="45.36148" lon="6.42106">
        <ele>2017</ele>
        <time>2018-06-25T06:58:26Z</time>
      </trkpt>
      <trkpt lat="45.3612" lon="6.42084">
        <ele>2015</ele>
        <time>2018-06-25T06:59:26Z</time>
      </trkpt>
      <trkpt lat="45.36108" lon="6.42076">
        <ele>2032</ele>
        <time>2018-06-25T07:00:26Z</time>
      </trkpt>
      <trkpt lat="45.36101" lon="6.42077">
        <ele>2029</ele>
        <time>2018-06-25T07:01:26Z</time>
      </trkpt>
      <trkpt lat="45.36093" lon="6.42083">
        <ele>2024</ele>
        <time>2018-06-25T07:02:26Z</time>
      </trkpt>
      <trkpt lat="45.36086" lon="6.42084">
        <ele>2016</ele>
        <time>2018-06-25T07:03:26Z</time>
      </trkpt>
      <trkpt lat="45.36079" lon="6.4208">
        <ele>2019</ele>
        <time>2018-06-25T07:04:26Z</time>
      </trkpt>
      <trkpt lat="45.36069" lon="6.42064">
        <ele>2024</ele>
        <time>2018-06-25T07:05:26Z</time>
      </trkpt>
      <trkpt lat="45.36049" lon="6.42041">
        <ele>2028</ele>
        <time>2018-06-25T07:06:26Z</time>
      </trkpt>
      <trkpt lat="45.36034" lon="6.42031">
        <ele>2029</ele>
        <time>2018-06-25T07:07:26Z</time>
      </trkpt>
      <trkpt lat="45.36019" lon="6.42025">
        <ele>2029</ele>
        <time>2018-06-25T07:08:26Z</time>
      </trkpt>
      <trkpt lat="45.36012" lon="6.42017">
        <ele>2031</ele>
        <time>2018-06-25T07:09:26Z</time>
      </trkpt>
      <trkpt lat="45.35988" lon="6.41979">
        <ele>2041</ele>
        <time>2018-06-25T07:10:26Z</time>
      </trkpt>
      <trkpt lat="45.35957" lon="6.41964">
        <ele>2044</ele>
        <time>2018-06-25T07:11:26Z</time>
      </trkpt>
      <trkpt lat="45.35912" lon="6.41944">
        <ele>2047</ele>
        <time>2018-06-25T07:12:26Z</time>
      </trkpt>
      <trkpt lat="45.35904" lon="6.41935">
        <ele>2048</ele>
        <time>2018-06-25T07:13:26Z</time>
      </trkpt>
      <trkpt lat="45.35896" lon="6.41924">
        <ele>2049</ele>
        <time>2018-06-25T07:14:26Z</time>
      </trkpt>
      <trkpt lat="45.35884" lon="6.41906">
        <ele>2055</ele>
        <time>2018-06-25T07:15:26Z</time>
      </trkpt>
      <trkpt lat="45.35884" lon="6.4189">
        <ele>2056</ele>
        <time>2018-06-25T07:16:26Z</time>
      </trkpt>
      <trkpt lat="45.35883" lon="6.41854">
        <ele>2057</ele>
        <time>2018-06-25T07:17:26Z</time>
      </trkpt>
      <trkpt lat="45.35889" lon="6.4175">
        <ele>2063</ele>
        <time>2018-06-25T07:18:26Z</time>
      </trkpt>
      <trkpt lat="45.3589" lon="6.4171">
        <ele>2067</ele>
        <time>2018-06-25T07:19:26Z</time>
      </trkpt>
      <trkpt lat="45.35869" lon="6.41706">
        <ele>2066</ele>
        <time>2018-06-25T07:20:26Z</time>
      </trkpt>
      <trkpt lat="45.35858" lon="6.41713">
        <ele>2066</ele>
        <time>2018-06-25T07:21:26Z</time>
      </trkpt>
      <trkpt lat="45.35847" lon="6.41737">
        <ele>2064</ele>
        <time>2018-06-25T07:22:26Z</time>
      </trkpt>
      <trkpt lat="45.35835" lon="6.4179">
        <ele>2061</ele>
        <time>2018-06-25T07:23:26Z</time>
      </trkpt>
      <trkpt lat="45.35817" lon="6.41851">
        <ele>2058</ele>
        <time>2018-06-25T07:24:26Z</time>
      </trkpt>
      <trkpt lat="45.35801" lon="6.41888">
        <ele>2059</ele>
        <time>2018-06-25T07:25:26Z</time>
      </trkpt>
      <trkpt lat="45.35782" lon="6.41908">
        <ele>2060</ele>
        <time>2018-06-25T07:26:26Z</time>
      </trkpt>
      <trkpt lat="45.35779" lon="6.41922">
        <ele>2058</ele>
        <time>2018-06-25T07:27:26Z</time>
      </trkpt>
      <trkpt lat="45.35782" lon="6.41934">
        <ele>2057</ele>
        <time>2018-06-25T07:28:26Z</time>
      </trkpt>
      <trkpt lat="45.35786" lon="6.41957">
        <ele>2056</ele>
        <time>2018-06-25T07:29:26Z</time>
      </trkpt>
      <trkpt lat="45.35788" lon="6.41964">
        <ele>2056</ele>
        <time>2018-06-25T07:30:26Z</time>
      </trkpt>
      <trkpt lat="45.35792" lon="6.41982">
        <ele>2055</ele>
        <time>2018-06-25T07:31:26Z</time>
      </trkpt>
      <trkpt lat="45.35788" lon="6.41992">
        <ele>2056</ele>
        <time>2018-06-25T07:32:26Z</time>
      </trkpt>
      <trkpt lat="45.35773" lon="6.42007">
        <ele>2056</ele>
        <time>2018-06-25T07:33:26Z</time>
      </trkpt>
      <trkpt lat="45.35765" lon="6.42028">
        <ele>2056</ele>
        <time>2018-06-25T07:34:26Z</time>
      </trkpt>
      <trkpt lat="45.35767" lon="6.42039">
        <ele>2055</ele>
        <time>2018-06-25T07:35:26Z</time>
      </trkpt>
      <trkpt lat="45.35773" lon="6.42092">
        <ele>2049</ele>
        <time>2018-06-25T07:36:26Z</time>
      </trkpt>
      <trkpt lat="45.35768" lon="6.42115">
        <ele>2046</ele>
        <time>2018-06-25T07:37:26Z</time>
      </trkpt>
      <trkpt lat="45.35753" lon="6.4213">
        <ele>2045</ele>
        <time>2018-06-25T07:38:26Z</time>
      </trkpt>
      <trkpt lat="45.35724" lon="6.42151">
        <ele>2060</ele>
        <time>2018-06-25T07:39:26Z</time>
      </trkpt>
      <trkpt lat="45.35714" lon="6.42166">
        <ele>2061</ele>
        <time>2018-06-25T07:40:26Z</time>
      </trkpt>
      <trkpt lat="45.35679" lon="6.42181">
        <ele>2058</ele>
        <time>2018-06-25T07:41:26Z</time>
      </trkpt>
      <trkpt lat="45.35639" lon="6.42214">
        <ele>2077</ele>
        <time>2018-06-25T07:42:26Z</time>
      </trkpt>
      <trkpt lat="45.3562" lon="6.4226">
        <ele>2080</ele>
        <time>2018-06-25T07:43:26Z</time>
      </trkpt>
      <trkpt lat="45.35615" lon="6.42293">
        <ele>2082</ele>
        <time>2018-06-25T07:44:26Z</time>
      </trkpt>
      <trkpt lat="45.3561" lon="6.42318">
        <ele>2085</ele>
        <time>2018-06-25T07:45:26Z</time>
      </trkpt>
      <trkpt lat="45.35605" lon="6.42343">
        <ele>2092</ele>
        <time>2018-06-25T07:46:26Z</time>
      </trkpt>
      <trkpt lat="45.35602" lon="6.42343">
        <ele>2093</ele>
        <time>2018-06-25T07:47:26Z</time>
      </trkpt>
      <trkpt lat="45.35598" lon="6.42337">
        <ele>2095</ele>
        <time>2018-06-25T07:48:26Z</time>
      </trkpt>
      <trkpt lat="45.35591" lon="6.42333">
        <ele>2097</ele>
        <time>2018-06-25T07:49:26Z</time>
      </trkpt>
      <trkpt lat="45.35587" lon="6.42333">
        <ele>2100</ele>
        <time>2018-06-25T07:50:26Z</time>
      </trkpt>
      <trkpt lat="45.35585" lon="6.42342">
        <ele>2098</ele>
        <time>2018-06-25T07:51:26Z</time>
      </trkpt>
      <trkpt lat="45.3558" lon="6.42349">
        <ele>2113</ele>
        <time>2018-06-25T07:52:26Z</time>
      </trkpt>
      <trkpt lat="45.35579" lon="6.42356">
        <ele>2115</ele>
        <time>2018-06-25T07:53:26Z</time>
      </trkpt>
      <trkpt lat="45.35581" lon="6.42375">
        <ele>2118</ele>
        <time>2018-06-25T07:54:26Z</time>
      </trkpt>
      <trkpt lat="45.35579" lon="6.42381">
        <ele>2118</ele>
        <time>2018-06-25T07:55:26Z</time>
      </trkpt>
      <trkpt lat="45.35573" lon="6.42382">
        <ele>2119</ele>
        <time>2018-06-25T07:56:26Z</time>
      </trkpt>
      <trkpt lat="45.3555" lon="6.42372">
        <ele>2122</ele>
        <time>2018-06-25T07:57:26Z</time>
      </trkpt>
      <trkpt lat="45.35542" lon="6.42373">
        <ele>2123</ele>
        <time>2018-06-25T07:58:26Z</time>
      </trkpt>
      <trkpt lat="45.3554" lon="6.42377">
        <ele>2124</ele>
        <time>2018-06-25T07:59:26Z</time>
      </trkpt>
      <trkpt lat="45.35539" lon="6.42404">
        <ele>2124</ele>
        <time>2018-06-25T08:00:26Z</time>
      </trkpt>
      <trkpt lat="45.35536" lon="6.42411">
        <ele>2124</ele>
        <time>2018-06-25T08:01:26Z</time>
      </trkpt>
      <trkpt lat="45.35528" lon="6.42416">
        <ele>2126</ele>
        <time>2018-06-25T08:02:26Z</time>
      </trkpt>
      <trkpt lat="45.35524" lon="6.42415">
        <ele>2126</ele>
        <time>2018-06-25T08:03:26Z</time>
      </trkpt>
      <trkpt lat="45.35515" lon="6.42405">
        <ele>2128</ele>
        <time>2018-06-25T08:04:26Z</time>
      </trkpt>
      <trkpt lat="45.35487" lon="6.42385">
        <ele>2143</ele>
        <time>2018-06-25T08:05:26Z</time>
      </trkpt>
      <trkpt lat="45.35449" lon="6.42354">
        <ele>2149</ele>
        <time>2018-06-25T08:06:26Z</time>
      </trkpt>
      <trkpt lat="45.35418" lon="6.42323">
        <ele>2162</ele>
        <time>2018-06-25T08:07:26Z</time>
      </trkpt>
      <trkpt lat="45.35389" lon="6.42291">
        <ele>2172</ele>
        <time>2018-06-25T08:08:26Z</time>
      </trkpt>
      <trkpt lat="45.35378" lon="6.4227">
        <ele>2174</ele>
        <time>2018-06-25T08:09:26Z</time>
      </trkpt>
      <trkpt lat="45.3536" lon="6.42206">
        <ele>2186</ele>
        <time>2018-06-25T08:10:26Z</time>
      </trkpt>
      <trkpt lat="45.35346" lon="6.42189">
        <ele>2187</ele>
        <time>2018-06-25T08:11:26Z</time>
      </trkpt>
      <trkpt lat="45.35298" lon="6.42137">
        <ele>2196</ele>
        <time>2018-06-25T08:12:26Z</time>
      </trkpt>
      <trkpt lat="45.35277" lon="6.421">
        <ele>2196</ele>
        <time>2018-06-25T08:13:26Z</time>
      </trkpt>
      <trkpt lat="45.35248" lon="6.42048">
        <ele>2200</ele>
        <time>2018-06-25T08:14:26Z</time>
      </trkpt>
      <trkpt lat="45.35236" lon="6.42016">
        <ele>2204</ele>
        <time>2018-06-25T08:15:26Z</time>
      </trkpt>
      <trkpt lat="45.35233" lon="6.41987">
        <ele>2209</ele>
        <time>2018-06-25T08:16:26Z</time>
      </trkpt>
      <trkpt lat="45.35227" lon="6.41962">
        <ele>2210</ele>
        <time>2018-06-25T08:17:26Z</time>
      </trkpt>
      <trkpt lat="45.35219" lon="6.41948">
        <ele>2210</ele>
        <time>2018-06-25T08:18:26Z</time>
      </trkpt>
      <trkpt lat="45.35202" lon="6.41922">
        <ele>2210</ele>
        <time>2018-06-25T08:19:26Z</time>
      </trkpt>
      <trkpt lat="45.35174" lon="6.41892">
        <ele>2217</ele>
        <time>2018-06-25T08:20:26Z</time>
      </trkpt>
      <trkpt lat="45.35148" lon="6.41874">
        <ele>2226</ele>
        <time>2018-06-25T08:21:26Z</time>
      </trkpt>
      <trkpt lat="45.35106" lon="6.41888">
        <ele>2228</ele>
        <time>2018-06-25T08:22:26Z</time>
      </trkpt>
      <trkpt lat="45.35093" lon="6.41884">
        <ele>2229</ele>
        <time>2018-06-25T08:23:26Z</time>
      </trkpt>
      <trkpt lat="45.35084" lon="6.41871">
        <ele>2232</ele>
        <time>2018-06-25T08:24:26Z</time>
      </trkpt>
      <trkpt lat="45.35069" lon="6.41863">
        <ele>2242</ele>
        <time>2018-06-25T08:25:26Z</time>
      </trkpt>
      <trkpt lat="45.3503" lon="6.4185">
        <ele>2245</ele>
        <time>2018-06-25T08:26:26Z</time>
      </trkpt>
      <trkpt lat="45.34991" lon="6.41833">
        <ele>2258</ele>
        <time>2018-06-25T08:27:26Z</time>
      </trkpt>
      <trkpt lat="45.34951" lon="6.41801">
        <ele>2265</ele>
        <time>2018-06-25T08:28:26Z</time>
      </trkpt>
      <trkpt lat="45.3492" lon="6.41799">
        <ele>2264</ele>
        <time>2018-06-25T08:29:26Z</time>
      </trkpt>
      <trkpt lat="45.34896" lon="6.41802">
        <ele>2266</ele>
        <time>2018-06-25T08:30:26Z</time>
      </trkpt>
      <trkpt lat="45.34874" lon="6.41822">
        <ele>2266</ele>
        <time>2018-06-25T08:31:26Z</time>
      </trkpt>
      <trkpt lat="45.34878" lon="6.41829">
        <ele>2265</ele>
        <time>2018-06-25T08:32:26Z</time>
      </trkpt>
      <trkpt lat="45.34886" lon="6.41847">
        <ele>2260</ele>
        <time>2018-06-25T08:33:26Z</time>
      </trkpt>
      <trkpt lat="45.34887" lon="6.41855">
        <ele>2260</ele>
        <time>2018-06-25T08:34:26Z</time>
      </trkpt>
      <trkpt lat="45.34884" lon="6.41855">
        <ele>2260</ele>
        <time>2018-06-25T08:35:26Z</time>
      </trkpt>
      <trkpt lat="45.34874" lon="6.41849">
        <ele>2261</ele>
        <time>2018-06-25T08:36:26Z</time>
      </trkpt>
      <trkpt lat="45.34863" lon="6.41829">
        <ele>2266</ele>
        <time>2018-06-25T08:37:26Z</time>
      </trkpt>
      <trkpt lat="45.34851" lon="6.41827">
        <ele>2267</ele>
        <time>2018-06-25T08:38:26Z</time>
      </trkpt>
      <trkpt lat="45.34844" lon="6.41831">
        <ele>2267</ele>
        <time>2018-06-25T08:39:26Z</time>
      </trkpt>
      <trkpt lat="45.34848" lon="6.41844">
        <ele>2264</ele>
        <time>2018-06-25T08:40:26Z</time>
      </trkpt>
      <trkpt lat="45.34851" lon="6.41863">
        <ele>2263</ele>
        <time>2018-06-25T08:41:26Z</time>
      </trkpt>
      <trkpt lat="45.34848" lon="6.41865">
        <ele>2264</ele>
        <time>2018-06-25T08:42:26Z</time>
      </trkpt>
      <trkpt lat="45.34844" lon="6.41863">
        <ele>2264</ele>
        <time>2018-06-25T08:43:26Z</time>
      </trkpt>
      <trkpt lat="45.34833" lon="6.41857">
        <ele>2274</ele>
        <time>2018-06-25T08:44:26Z</time>
      </trkpt>
      <trkpt lat="45.34823" lon="6.41833">
        <ele>2272</ele>
        <time>2018-06-25T08:45:26Z</time>
      </trkpt>
      <trkpt lat="45.34813" lon="6.41812">
        <ele>2277</ele>
        <time>2018-06-25T08:46:26Z</time>
      </trkpt>
      <trkpt lat="45.34801" lon="6.41804">
        <ele>2280</ele>
        <time>2018-06-25T08:47:26Z</time>
      </trkpt>
      <trkpt lat="45.34785" lon="6.41797">
        <ele>2282</ele>
        <time>2018-06-25T08:48:26Z</time>
      </trkpt>
      <trkpt lat="45.34772" lon="6.41779">
        <ele>2284</ele>
        <time>2018-06-25T08:49:26Z</time>
      </trkpt>
      <trkpt lat="45.34737" lon="6.41757">
        <ele>2296</ele>
        <time>2018-06-25T08:50:26Z</time>
      </trkpt>
      <trkpt lat="45.34715" lon="6.41754">
        <ele>2299</ele>
        <time>2018-06-25T08:51:26Z</time>
      </trkpt>
      <trkpt lat="45.34701" lon="6.41759">
        <ele>2301</ele>
        <time>2018-06-25T08:52:26Z</time>
      </trkpt>
      <trkpt lat="45.34678" lon="6.41762">
        <ele>2303</ele>
        <time>2018-06-25T08:53:26Z</time>
      </trkpt>
      <trkpt lat="45.34657" lon="6.41748">
        <ele>2313</ele>
        <time>2018-06-25T08:54:26Z</time>
      </trkpt>
      <trkpt lat="45.34624" lon="6.4173">
        <ele>2325</ele>
        <time>2018-06-25T08:55:26Z</time>
      </trkpt>
      <trkpt lat="45.3459" lon="6.4171">
        <ele>2332</ele>
        <time>2018-06-25T08:56:26Z</time>
      </trkpt>
      <trkpt lat="45.3455" lon="6.41682">
        <ele>2354</ele>
        <time>2018-06-25T08:57:26Z</time>
      </trkpt>
      <trkpt lat="45.3453" lon="6.41676">
        <ele>2357</ele>
        <time>2018-06-25T08:58:26Z</time>
      </trkpt>
      <trkpt lat="45.34516" lon="6.41661">
        <ele>2367</ele>
        <time>2018-06-25T08:59:26Z</time>
      </trkpt>
      <trkpt lat="45.345" lon="6.41655">
        <ele>2376</ele>
        <time>2018-06-25T09:00:26Z</time>
      </trkpt>
      <trkpt lat="45.3449" lon="6.41645">
        <ele>2381</ele>
        <time>2018-06-25T09:01:26Z</time>
      </trkpt>
      <trkpt lat="45.34481" lon="6.41625">
        <ele>2386</ele>
        <time>2018-06-25T09:02:26Z</time>
      </trkpt>
      <trkpt lat="45.34447" lon="6.41572">
        <ele>2404</ele>
        <time>2018-06-25T09:03:26Z</time>
      </trkpt>
      <trkpt lat="45.34421" lon="6.4154">
        <ele>2409</ele>
        <time>2018-06-25T09:04:26Z</time>
      </trkpt>
      <trkpt lat="45.34386" lon="6.41513">
        <ele>2420</ele>
        <time>2018-06-25T09:05:26Z</time>
      </trkpt>
      <trkpt lat="45.34338" lon="6.41492">
        <ele>2430</ele>
        <time>2018-06-25T09:06:26Z</time>
      </trkpt>
      <trkpt lat="45.34315" lon="6.41481">
        <ele>2440</ele>
        <time>2018-06-25T09:07:26Z</time>
      </trkpt>
      <trkpt lat="45.3429" lon="6.41479">
        <ele>2445</ele>
        <time>2018-06-25T09:08:26Z</time>
      </trkpt>
      <trkpt lat="45.34261" lon="6.41485">
        <ele>2449</ele>
        <time>2018-06-25T09:09:26Z</time>
      </trkpt>
      <trkpt lat="45.34233" lon="6.41511">
        <ele>2456</ele>
        <time>2018-06-25T09:10:26Z</time>
      </trkpt>
      <trkpt lat="45.34214" lon="6.41527">
        <ele>2459</ele>
        <time>2018-06-25T09:11:26Z</time>
      </trkpt>
      <trkpt lat="45.34161" lon="6.41601">
        <ele>2458</ele>
        <time>2018-06-25T09:12:26Z</time>
      </trkpt>
      <trkpt lat="45.34146" lon="6.41624">
        <ele>2458</ele>
        <time>2018-06-25T09:13:26Z</time>
      </trkpt>
      <trkpt lat="45.34129" lon="6.41644">
        <ele>2457</ele>
        <time>2018-06-25T09:14:26Z</time>
      </trkpt>
      <trkpt lat="45.34094" lon="6.41688">
        <ele>2461</ele>
        <time>2018-06-25T09:15:26Z</time>
      </trkpt>
      <trkpt lat="45.34058" lon="6.41737">
        <ele>2447</ele>
        <time>2018-06-25T09:16:26Z</time>
      </trkpt>
      <trkpt lat="45.3399" lon="6.41817">
        <ele>2441</ele>
        <time>2018-06-25T09:17:26Z</time>
      </trkpt>
      <trkpt lat="45.33969" lon="6.41848">
        <ele>2449</ele>
        <time>2018-06-25T09:18:26Z</time>
      </trkpt>
      <trkpt lat="45.3394" lon="6.41882">
        <ele>2447</ele>
        <time>2018-06-25T09:19:26Z</time>
      </trkpt>
      <trkpt lat="45.33917" lon="6.41908">
        <ele>2444</ele>
        <time>2018-06-25T09:20:26Z</time>
      </trkpt>
      <trkpt lat="45.33902" lon="6.41934">
        <ele>2439</ele>
        <time>2018-06-25T09:21:26Z</time>
      </trkpt>
      <trkpt lat="45.33893" lon="6.41946">
        <ele>2438</ele>
        <time>2018-06-25T09:22:26Z</time>
      </trkpt>
      <trkpt lat="45.33878" lon="6.4196">
        <ele>2437</ele>
        <time>2018-06-25T09:23:26Z</time>
      </trkpt>
      <trkpt lat="45.33859" lon="6.41973">
        <ele>2434</ele>
        <time>2018-06-25T09:24:26Z</time>
      </trkpt>
      <trkpt lat="45.33845" lon="6.41984">
        <ele>2432</ele>
        <time>2018-06-25T09:25:26Z</time>
      </trkpt>
      <trkpt lat="45.33838" lon="6.41996">
        <ele>2430</ele>
        <time>2018-06-25T09:26:26Z</time>
      </trkpt>
      <trkpt lat="45.33834" lon="6.42022">
        <ele>2443</ele>
        <time>2018-06-25T09:27:26Z</time>
      </trkpt>
      <trkpt lat="45.33834" lon="6.42041">
        <ele>2448</ele>
        <time>2018-06-25T09:28:26Z</time>
      </trkpt>
      <trkpt lat="45.33826" lon="6.42065">
        <ele>2429</ele>
        <time>2018-06-25T09:29:26Z</time>
      </trkpt>
      <trkpt lat="45.33804" lon="6.42116">
        <ele>2428</ele>
        <time>2018-06-25T09:30:26Z</time>
      </trkpt>
      <trkpt lat="45.338" lon="6.42134">
        <ele>2427</ele>
        <time>2018-06-25T09:31:26Z</time>
      </trkpt>
      <trkpt lat="45.338" lon="6.4215">
        <ele>2428</ele>
        <time>2018-06-25T09:32:26Z</time>
      </trkpt>
      <trkpt lat="45.33813" lon="6.42176">
        <ele>2438</ele>
        <time>2018-06-25T09:33:26Z</time>
      </trkpt>
      <trkpt lat="45.3381" lon="6.42191">
        <ele>2436</ele>
        <time>2018-06-25T09:34:26Z</time>
      </trkpt>
      <trkpt lat="45.33805" lon="6.42208">
        <ele>2435</ele>
        <time>2018-06-25T09:35:26Z</time>
      </trkpt>
      <trkpt lat="45.33801" lon="6.42227">
        <ele>2435</ele>
        <time>2018-06-25T09:36:26Z</time>
      </trkpt>
      <trkpt lat="45.33793" lon="6.42247">
        <ele>2434</ele>
        <time>2018-06-25T09:37:26Z</time>
      </trkpt>
      <trkpt lat="45.33785" lon="6.42264">
        <ele>2436</ele>
        <time>2018-06-25T09:38:26Z</time>
      </trkpt>
      <trkpt lat="45.33774" lon="6.4228">
        <ele>2435</ele>
        <time>2018-06-25T09:39:26Z</time>
      </trkpt>
      <trkpt lat="45.33761" lon="6.42291">
        <ele>2434</ele>
        <time>2018-06-25T09:40:26Z</time>
      </trkpt>
      <trkpt lat="45.33725" lon="6.42303">
        <ele>2414</ele>
        <time>2018-06-25T09:41:26Z</time>
      </trkpt>
      <trkpt lat="45.33712" lon="6.42312">
        <ele>2412</ele>
        <time>2018-06-25T09:42:26Z</time>
      </trkpt>
      <trkpt lat="45.33704" lon="6.4232">
        <ele>2411</ele>
        <time>2018-06-25T09:43:26Z</time>
      </trkpt>
      <trkpt lat="45.33698" lon="6.42327">
        <ele>2409</ele>
        <time>2018-06-25T09:44:26Z</time>
      </trkpt>
      <trkpt lat="45.33692" lon="6.42338">
        <ele>2416</ele>
        <time>2018-06-25T09:45:26Z</time>
      </trkpt>
      <trkpt lat="45.33688" lon="6.42352">
        <ele>2417</ele>
        <time>2018-06-25T09:46:26Z</time>
      </trkpt>
      <trkpt lat="45.33684" lon="6.42364">
        <ele>2418</ele>
        <time>2018-06-25T09:47:26Z</time>
      </trkpt>
      <trkpt lat="45.33677" lon="6.42371">
        <ele>2418</ele>
        <time>2018-06-25T09:48:26Z</time>
      </trkpt>
      <trkpt lat="45.3365" lon="6.42396">
        <ele>2402</ele>
        <time>2018-06-25T09:49:26Z</time>
      </trkpt>
      <trkpt lat="45.33642" lon="6.42408">
        <ele>2402</ele>
        <time>2018-06-25T09:50:26Z</time>
      </trkpt>
      <trkpt lat="45.33634" lon="6.42421">
        <ele>2407</ele>
        <time>2018-06-25T09:51:26Z</time>
      </trkpt>
      <trkpt lat="45.33627" lon="6.42427">
        <ele>2405</ele>
        <time>2018-06-25T09:52:26Z</time>
      </trkpt>
      <trkpt lat="45.33619" lon="6.42427">
        <ele>2403</ele>
        <time>2018-06-25T09:53:26Z</time>
      </trkpt>
      <trkpt lat="45.33611" lon="6.42427">
        <ele>2400</ele>
        <time>2018-06-25T09:54:26Z</time>
      </trkpt>
      <trkpt lat="45.33601" lon="6.42422">
        <ele>2396</ele>
        <time>2018-06-25T09:55:26Z</time>
      </trkpt>
      <trkpt lat="45.33585" lon="6.42418">
        <ele>2387</ele>
        <time>2018-06-25T09:56:26Z</time>
      </trkpt>
      <trkpt lat="45.33579" lon="6.42421">
        <ele>2381</ele>
        <time>2018-06-25T09:57:26Z</time>
      </trkpt>
      <trkpt lat="45.33575" lon="6.4242">
        <ele>2379</ele>
        <time>2018-06-25T09:58:26Z</time>
      </trkpt>
      <trkpt lat="45.33572" lon="6.42412">
        <ele>2378</ele>
        <time>2018-06-25T09:59:26Z</time>
      </trkpt>
      <trkpt lat="45.33566" lon="6.42416">
        <ele>2376</ele>
        <time>2018-06-25T10:00:26Z</time>
      </trkpt>
      <trkpt lat="45.33558" lon="6.42419">
        <ele>2371</ele>
        <time>2018-06-25T10:01:26Z</time>
      </trkpt>
      <trkpt lat="45.33552" lon="6.42419">
        <ele>2368</ele>
        <time>2018-06-25T10:02:26Z</time>
      </trkpt>
      <trkpt lat="45.33549" lon="6.42422">
        <ele>2367</ele>
        <time>2018-06-25T10:03:26Z</time>
      </trkpt>
      <trkpt lat="45.33547" lon="6.42429">
        <ele>2366</ele>
        <time>2018-06-25T10:04:26Z</time>
      </trkpt>
      <trkpt lat="45.33531" lon="6.4247">
        <ele>2361</ele>
        <time>2018-06-25T10:05:26Z</time>
      </trkpt>
      <trkpt lat="45.33526" lon="6.42478">
        <ele>2359</ele>
        <time>2018-06-25T10:06:26Z</time>
      </trkpt>
      <trkpt lat="45.3352" lon="6.4249">
        <ele>2355</ele>
        <time>2018-06-25T10:07:26Z</time>
      </trkpt>
      <trkpt lat="45.33519" lon="6.42506">
        <ele>2354</ele>
        <time>2018-06-25T10:08:26Z</time>
      </trkpt>
      <trkpt lat="45.33519" lon="6.42525">
        <ele>2358</ele>
        <time>2018-06-25T10:09:26Z</time>
      </trkpt>
      <trkpt lat="45.33517" lon="6.42538">
        <ele>2359</ele>
        <time>2018-06-25T10:10:26Z</time>
      </trkpt>
      <trkpt lat="45.33513" lon="6.42549">
        <ele>2358</ele>
        <time>2018-06-25T10:11:26Z</time>
      </trkpt>
      <trkpt lat="45.33507" lon="6.42565">
        <ele>2355</ele>
        <time>2018-06-25T10:12:26Z</time>
      </trkpt>
      <trkpt lat="45.33501" lon="6.42576">
        <ele>2349</ele>
        <time>2018-06-25T10:13:26Z</time>
      </trkpt>
      <trkpt lat="45.33496" lon="6.4259">
        <ele>2338</ele>
        <time>2018-06-25T10:14:26Z</time>
      </trkpt>
      <trkpt lat="45.33491" lon="6.42601">
        <ele>2333</ele>
        <time>2018-06-25T10:15:26Z</time>
      </trkpt>
      <trkpt lat="45.33481" lon="6.42612">
        <ele>2329</ele>
        <time>2018-06-25T10:16:26Z</time>
      </trkpt>
      <trkpt lat="45.33474" lon="6.42621">
        <ele>2327</ele>
        <time>2018-06-25T10:17:26Z</time>
      </trkpt>
      <trkpt lat="45.33467" lon="6.42627">
        <ele>2325</ele>
        <time>2018-06-25T10:18:26Z</time>
      </trkpt>
      <trkpt lat="45.33465" lon="6.42636">
        <ele>2325</ele>
        <time>2018-06-25T10:19:26Z</time>
      </trkpt>
      <trkpt lat="45.33463" lon="6.42664">
        <ele>2325</ele>
        <time>2018-06-25T10:20:26Z</time>
      </trkpt>
      <trkpt lat="45.3346" lon="6.42668">
        <ele>2319</ele>
        <time>2018-06-25T10:21:26Z</time>
      </trkpt>
      <trkpt lat="45.33434" lon="6.42673">
        <ele>2314</ele>
        <time>2018-06-25T10:22:26Z</time>
      </trkpt>
      <trkpt lat="45.33432" lon="6.42682">
        <ele>2313</ele>
        <time>2018-06-25T10:23:26Z</time>
      </trkpt>
      <trkpt lat="45.3343" lon="6.42693">
        <ele>2313</ele>
        <time>2018-06-25T10:24:26Z</time>
      </trkpt>
      <trkpt lat="45.33425" lon="6.42705">
        <ele>2312</ele>
        <time>2018-06-25T10:25:26Z</time>
      </trkpt>
      <trkpt lat="45.33419" lon="6.42716">
        <ele>2310</ele>
        <time>2018-06-25T10:26:26Z</time>
      </trkpt>
      <trkpt lat="45.33416" lon="6.42725">
        <ele>2290</ele>
        <time>2018-06-25T10:27:26Z</time>
      </trkpt>
      <trkpt lat="45.33413" lon="6.42731">
        <ele>2290</ele>
        <time>2018-06-25T10:28:26Z</time>
      </trkpt>
      <trkpt lat="45.3341" lon="6.42734">
        <ele>2290</ele>
        <time>2018-06-25T10:29:26Z</time>
      </trkpt>
      <trkpt lat="45.3341" lon="6.42739">
        <ele>2292</ele>
        <time>2018-06-25T10:30:26Z</time>
      </trkpt>
      <trkpt lat="45.33417" lon="6.4275">
        <ele>2298</ele>
        <time>2018-06-25T10:31:26Z</time>
      </trkpt>
      <trkpt lat="45.33418" lon="6.42757">
        <ele>2296</ele>
        <time>2018-06-25T10:32:26Z</time>
      </trkpt>
      <trkpt lat="45.33416" lon="6.42763">
        <ele>2285</ele>
        <time>2018-06-25T10:33:26Z</time>
      </trkpt>
      <trkpt lat="45.33408" lon="6.42776">
        <ele>2277</ele>
        <time>2018-06-25T10:34:26Z</time>
      </trkpt>
      <trkpt lat="45.33404" lon="6.42788">
        <ele>2273</ele>
        <time>2018-06-25T10:35:26Z</time>
      </trkpt>
      <trkpt lat="45.33399" lon="6.42807">
        <ele>2269</ele>
        <time>2018-06-25T10:36:26Z</time>
      </trkpt>
      <trkpt lat="45.33398" lon="6.42816">
        <ele>2268</ele>
        <time>2018-06-25T10:37:26Z</time>
      </trkpt>
      <trkpt lat="45.33399" lon="6.42825">
        <ele>2268</ele>
        <time>2018-06-25T10:38:26Z</time>
      </trkpt>
      <trkpt lat="45.33403" lon="6.42835">
        <ele>2260</ele>
        <time>2018-06-25T10:39:26Z</time>
      </trkpt>
      <trkpt lat="45.33404" lon="6.42844">
        <ele>2258</ele>
        <time>2018-06-25T10:40:26Z</time>
      </trkpt>
      <trkpt lat="45.33403" lon="6.42854">
        <ele>2255</ele>
        <time>2018-06-25T10:41:26Z</time>
      </trkpt>
      <trkpt lat="45.334" lon="6.42861">
        <ele>2252</ele>
        <time>2018-06-25T10:42:26Z</time>
      </trkpt>
      <trkpt lat="45.33397" lon="6.42867">
        <ele>2250</ele>
        <time>2018-06-25T10:43:26Z</time>
      </trkpt>
      <trkpt lat="45.33392" lon="6.42871">
        <ele>2249</ele>
        <time>2018-06-25T10:44:26Z</time>
      </trkpt>
      <trkpt lat="45.3339" lon="6.42877">
        <ele>2248</ele>
        <time>2018-06-25T10:45:26Z</time>
      </trkpt>
      <trkpt lat="45.33384" lon="6.42897">
        <ele>2245</ele>
        <time>2018-06-25T10:46:26Z</time>
      </trkpt>
      <trkpt lat="45.33387" lon="6.42905">
        <ele>2245</ele>
        <time>2018-06-25T10:47:26Z</time>
      </trkpt>
      <trkpt lat="45.33386" lon="6.42917">
        <ele>2233</ele>
        <time>2018-06-25T10:48:26Z</time>
      </trkpt>
      <trkpt lat="45.33383" lon="6.42924">
        <ele>2232</ele>
        <time>2018-06-25T10:49:26Z</time>
      </trkpt>
      <trkpt lat="45.33384" lon="6.42929">
        <ele>2232</ele>
        <time>2018-06-25T10:50:26Z</time>
      </trkpt>
      <trkpt lat="45.33391" lon="6.42929">
        <ele>2233</ele>
        <time>2018-06-25T10:51:26Z</time>
      </trkpt>
      <trkpt lat="45.33401" lon="6.42927">
        <ele>2236</ele>
        <time>2018-06-25T10:52:26Z</time>
      </trkpt>
      <trkpt lat="45.33413" lon="6.42926">
        <ele>2240</ele>
        <time>2018-06-25T10:53:26Z</time>
      </trkpt>
      <trkpt lat="45.33424" lon="6.42926">
        <ele>2246</ele>
        <time>2018-06-25T10:54:26Z</time>
      </trkpt>
      <trkpt lat="45.33431" lon="6.42927">
        <ele>2246</ele>
        <time>2018-06-25T10:55:26Z</time>
      </trkpt>
      <trkpt lat="45.33436" lon="6.42932">
        <ele>2245</ele>
        <time>2018-06-25T10:56:26Z</time>
      </trkpt>
      <trkpt lat="45.3344" lon="6.42939">
        <ele>2245</ele>
        <time>2018-06-25T10:57:26Z</time>
      </trkpt>
      <trkpt lat="45.3344" lon="6.42955">
        <ele>2243</ele>
        <time>2018-06-25T10:58:26Z</time>
      </trkpt>
      <trkpt lat="45.33438" lon="6.42972">
        <ele>2240</ele>
        <time>2018-06-25T10:59:26Z</time>
      </trkpt>
      <trkpt lat="45.33431" lon="6.42979">
        <ele>2238</ele>
        <time>2018-06-25T11:00:26Z</time>
      </trkpt>
      <trkpt lat="45.33427" lon="6.42994">
        <ele>2233</ele>
        <time>2018-06-25T11:01:26Z</time>
      </trkpt>
      <trkpt lat="45.33419" lon="6.43004">
        <ele>2227</ele>
        <time>2018-06-25T11:02:26Z</time>
      </trkpt>
      <trkpt lat="45.33412" lon="6.43016">
        <ele>2218</ele>
        <time>2018-06-25T11:03:26Z</time>
      </trkpt>
      <trkpt lat="45.33399" lon="6.43024">
        <ele>2214</ele>
        <time>2018-06-25T11:04:26Z</time>
      </trkpt>
      <trkpt lat="45.33386" lon="6.43033">
        <ele>2210</ele>
        <time>2018-06-25T11:05:26Z</time>
      </trkpt>
      <trkpt lat="45.33379" lon="6.43042">
        <ele>2208</ele>
        <time>2018-06-25T11:06:26Z</time>
      </trkpt>
      <trkpt lat="45.33367" lon="6.43059">
        <ele>2205</ele>
        <time>2018-06-25T11:07:26Z</time>
      </trkpt>
      <trkpt lat="45.33368" lon="6.43064">
        <ele>2205</ele>
        <time>2018-06-25T11:08:26Z</time>
      </trkpt>
      <trkpt lat="45.33368" lon="6.4307">
        <ele>2204</ele>
        <time>2018-06-25T11:09:26Z</time>
      </trkpt>
      <trkpt lat="45.33374" lon="6.43073">
        <ele>2205</ele>
        <time>2018-06-25T11:10:26Z</time>
      </trkpt>
      <trkpt lat="45.33384" lon="6.43074">
        <ele>2206</ele>
        <time>2018-06-25T11:11:26Z</time>
      </trkpt>
      <trkpt lat="45.33402" lon="6.43079">
        <ele>2207</ele>
        <time>2018-06-25T11:12:26Z</time>
      </trkpt>
      <trkpt lat="45.33413" lon="6.43081">
        <ele>2207</ele>
        <time>2018-06-25T11:13:26Z</time>
      </trkpt>
      <trkpt lat="45.33427" lon="6.4308">
        <ele>2215</ele>
        <time>2018-06-25T11:14:26Z</time>
      </trkpt>
      <trkpt lat="45.33433" lon="6.43081">
        <ele>2217</ele>
        <time>2018-06-25T11:15:26Z</time>
      </trkpt>
      <trkpt lat="45.33438" lon="6.43086">
        <ele>2213</ele>
        <time>2018-06-25T11:16:26Z</time>
      </trkpt>
      <trkpt lat="45.33442" lon="6.43095">
        <ele>2214</ele>
        <time>2018-06-25T11:17:26Z</time>
      </trkpt>
      <trkpt lat="45.33447" lon="6.43098">
        <ele>2215</ele>
        <time>2018-06-25T11:18:26Z</time>
      </trkpt>
      <trkpt lat="45.33453" lon="6.431">
        <ele>2216</ele>
        <time>2018-06-25T11:19:26Z</time>
      </trkpt>
      <trkpt lat="45.33455" lon="6.43104">
        <ele>2216</ele>
        <time>2018-06-25T11:20:26Z</time>
      </trkpt>
      <trkpt lat="45.33451" lon="6.43122">
        <ele>2214</ele>
        <time>2018-06-25T11:21:26Z</time>
      </trkpt>
      <trkpt lat="45.33446" lon="6.43141">
        <ele>2211</ele>
        <time>2018-06-25T11:22:26Z</time>
      </trkpt>
      <trkpt lat="45.33446" lon="6.43154">
        <ele>2210</ele>
        <time>2018-06-25T11:23:26Z</time>
      </trkpt>
      <trkpt lat="45.33447" lon="6.43167">
        <ele>2203</ele>
        <time>2018-06-25T11:24:26Z</time>
      </trkpt>
      <trkpt lat="45.33443" lon="6.4318">
        <ele>2202</ele>
        <time>2018-06-25T11:25:26Z</time>
      </trkpt>
      <trkpt lat="45.33434" lon="6.4323">
        <ele>2196</ele>
        <time>2018-06-25T11:26:26Z</time>
      </trkpt>
      <trkpt lat="45.33434" lon="6.43248">
        <ele>2192</ele>
        <time>2018-06-25T11:27:26Z</time>
      </trkpt>
      <trkpt lat="45.33435" lon="6.43283">
        <ele>2186</ele>
        <time>2018-06-25T11:28:26Z</time>
      </trkpt>
      <trkpt lat="45.33439" lon="6.43304">
        <ele>2184</ele>
        <time>2018-06-25T11:29:26Z</time>
      </trkpt>
      <trkpt lat="45.33455" lon="6.43345">
        <ele>2173</ele>
        <time>2018-06-25T11:30:26Z</time>
      </trkpt>
      <trkpt lat="45.33464" lon="6.43361">
        <ele>2175</ele>
        <time>2018-06-25T11:31:26Z</time>
      </trkpt>
      <trkpt lat="45.33468" lon="6.43378">
        <ele>2173</ele>
        <time>2018-06-25T11:32:26Z</time>
      </trkpt>
      <trkpt lat="45.33468" lon="6.43389">
        <ele>2172</ele>
        <time>2018-06-25T11:33:26Z</time>
      </trkpt>
      <trkpt lat="45.33463" lon="6.43391">
        <ele>2170</ele>
        <time>2018-06-25T11:34:26Z</time>
      </trkpt>
      <trkpt lat="45.33436" lon="6.43386">
        <ele>2163</ele>
        <time>2018-06-25T11:35:26Z</time>
      </trkpt>
      <trkpt lat="45.33421" lon="6.43379">
        <ele>2161</ele>
        <time>2018-06-25T11:36:26Z</time>
      </trkpt>
      <trkpt lat="45.33414" lon="6.4337">
        <ele>2148</ele>
        <time>2018-06-25T11:37:26Z</time>
      </trkpt>
      <trkpt lat="45.33408" lon="6.43367">
        <ele>2149</ele>
        <time>2018-06-25T11:38:26Z</time>
      </trkpt>
      <trkpt lat="45.33403" lon="6.43368">
        <ele>2149</ele>
        <time>2018-06-25T11:39:26Z</time>
      </trkpt>
      <trkpt lat="45.33401" lon="6.43386">
        <ele>2145</ele>
        <time>2018-06-25T11:40:26Z</time>
      </trkpt>
      <trkpt lat="45.33408" lon="6.43405">
        <ele>2141</ele>
        <time>2018-06-25T11:41:26Z</time>
      </trkpt>
      <trkpt lat="45.33422" lon="6.43442">
        <ele>2143</ele>
        <time>2018-06-25T11:42:26Z</time>
      </trkpt>
      <trkpt lat="45.33425" lon="6.43456">
        <ele>2143</ele>
        <time>2018-06-25T11:43:26Z</time>
      </trkpt>
      <trkpt lat="45.33427" lon="6.43479">
        <ele>2137</ele>
        <time>2018-06-25T11:44:26Z</time>
      </trkpt>
      <trkpt lat="45.33428" lon="6.43504">
        <ele>2124</ele>
        <time>2018-06-25T11:45:26Z</time>
      </trkpt>
      <trkpt lat="45.33432" lon="6.43523">
        <ele>2128</ele>
        <time>2018-06-25T11:46:26Z</time>
      </trkpt>
      <trkpt lat="45.33439" lon="6.43541">
        <ele>2129</ele>
        <time>2018-06-25T11:47:26Z</time>
      </trkpt>
      <trkpt lat="45.33445" lon="6.4355">
        <ele>2129</ele>
        <time>2018-06-25T11:48:26Z</time>
      </trkpt>
      <trkpt lat="45.33447" lon="6.43568">
        <ele>2128</ele>
        <time>2018-06-25T11:49:26Z</time>
      </trkpt>
      <trkpt lat="45.33446" lon="6.43601">
        <ele>2113</ele>
        <time>2018-06-25T11:50:26Z</time>
      </trkpt>
      <trkpt lat="45.33441" lon="6.43623">
        <ele>2109</ele>
        <time>2018-06-25T11:51:26Z</time>
      </trkpt>
      <trkpt lat="45.33443" lon="6.43635">
        <ele>2107</ele>
        <time>2018-06-25T11:52:26Z</time>
      </trkpt>
      <trkpt lat="45.33448" lon="6.43658">
        <ele>2105</ele>
        <time>2018-06-25T11:53:26Z</time>
      </trkpt>
      <trkpt lat="45.33457" lon="6.43686">
        <ele>2088</ele>
        <time>2018-06-25T11:54:26Z</time>
      </trkpt>
      <trkpt lat="45.33469" lon="6.43712">
        <ele>2085</ele>
        <time>2018-06-25T11:55:26Z</time>
      </trkpt>
      <trkpt lat="45.33481" lon="6.43743">
        <ele>2080</ele>
        <time>2018-06-25T11:56:26Z</time>
      </trkpt>
      <trkpt lat="45.33488" lon="6.43769">
        <ele>2067</ele>
        <time>2018-06-25T11:57:26Z</time>
      </trkpt>
      <trkpt lat="45.33494" lon="6.43796">
        <ele>2062</ele>
        <time>2018-06-25T11:58:26Z</time>
      </trkpt>
      <trkpt lat="45.33505" lon="6.4382">
        <ele>2064</ele>
        <time>2018-06-25T11:59:26Z</time>
      </trkpt>
      <trkpt lat="45.33515" lon="6.4384">
        <ele>2054</ele>
        <time>2018-06-25T12:00:26Z</time>
      </trkpt>
      <trkpt lat="45.33519" lon="6.43861">
        <ele>2054</ele>
        <time>2018-06-25T12:01:26Z</time>
      </trkpt>
      <trkpt lat="45.33534" lon="6.43883">
        <ele>2053</ele>
        <time>2018-06-25T12:02:26Z</time>
      </trkpt>
      <trkpt lat="45.33542" lon="6.43901">
        <ele>2053</ele>
        <time>2018-06-25T12:03:26Z</time>
      </trkpt>
      <trkpt lat="45.33534" lon="6.4395">
        <ele>2040</ele>
        <time>2018-06-25T12:04:26Z</time>
      </trkpt>
      <trkpt lat="45.33533" lon="6.43967">
        <ele>2038</ele>
        <time>2018-06-25T12:05:26Z</time>
      </trkpt>
      <trkpt lat="45.33537" lon="6.43981">
        <ele>2038</ele>
        <time>2018-06-25T12:06:26Z</time>
      </trkpt>
      <trkpt lat="45.3354" lon="6.43997">
        <ele>2037</ele>
        <time>2018-06-25T12:07:26Z</time>
      </trkpt>
      <trkpt lat="45.33542" lon="6.44019">
        <ele>2031</ele>
        <time>2018-06-25T12:08:26Z</time>
      </trkpt>
      <trkpt lat="45.33546" lon="6.44029">
        <ele>2031</ele>
        <time>2018-06-25T12:09:26Z</time>
      </trkpt>
      <trkpt lat="45.33548" lon="6.44043">
        <ele>2030</ele>
        <time>2018-06-25T12:10:26Z</time>
      </trkpt>
      <trkpt lat="45.33546" lon="6.44055">
        <ele>2029</ele>
        <time>2018-06-25T12:11:26Z</time>
      </trkpt>
      <trkpt lat="45.33548" lon="6.4406">
        <ele>2029</ele>
        <time>2018-06-25T12:12:26Z</time>
      </trkpt>
      <trkpt lat="45.33558" lon="6.44112">
        <ele>2020</ele>
        <time>2018-06-25T12:13:26Z</time>
      </trkpt>
      <trkpt lat="45.33577" lon="6.44134">
        <ele>2017</ele>
        <time>2018-06-25T12:14:26Z</time>
      </trkpt>
      <trkpt lat="45.33589" lon="6.44145">
        <ele>2023</ele>
        <time>2018-06-25T12:15:26Z</time>
      </trkpt>
      <trkpt lat="45.33594" lon="6.44161">
        <ele>2018</ele>
        <time>2018-06-25T12:16:26Z</time>
      </trkpt>
      <trkpt lat="45.33619" lon="6.44204">
        <ele>2014</ele>
        <time>2018-06-25T12:17:26Z</time>
      </trkpt>
      <trkpt lat="45.33653" lon="6.44252">
        <ele>2010</ele>
        <time>2018-06-25T12:18:26Z</time>
      </trkpt>
      <trkpt lat="45.33662" lon="6.44304">
        <ele>2006</ele>
        <time>2018-06-25T12:19:26Z</time>
      </trkpt>
      <trkpt lat="45.33663" lon="6.44332">
        <ele>2006</ele>
        <time>2018-06-25T12:20:26Z</time>
      </trkpt>
      <trkpt lat="45.33667" lon="6.44372">
        <ele>2010</ele>
        <time>2018-06-25T12:21:26Z</time>
      </trkpt>
      <trkpt lat="45.33676" lon="6.44404">
        <ele>2005</ele>
        <time>2018-06-25T12:22:26Z</time>
      </trkpt>
      <trkpt lat="45.33687" lon="6.44456">
        <ele>2000</ele>
        <time>2018-06-25T12:23:26Z</time>
      </trkpt>
      <trkpt lat="45.33694" lon="6.44497">
        <ele>1996</ele>
        <time>2018-06-25T12:24:26Z</time>
      </trkpt>
      <trkpt lat="45.33719" lon="6.44558">
        <ele>1990</ele>
        <time>2018-06-25T12:25:26Z</time>
      </trkpt>
      <trkpt lat="45.33723" lon="6.44572">
        <ele>1991</ele>
        <time>2018-06-25T12:26:26Z</time>
      </trkpt>
      <trkpt lat="45.33723" lon="6.44576">
        <ele>1991</ele>
        <time>2018-06-25T12:27:26Z</time>
      </trkpt>
      <trkpt lat="45.33723" lon="6.44582">
        <ele>1991</ele>
        <time>2018-06-25T12:28:26Z</time>
      </trkpt>
      <trkpt lat="45.3372" lon="6.44585">
        <ele>1986</ele>
        <time>2018-06-25T12:29:26Z</time>
      </trkpt>
      <trkpt lat="45.33713" lon="6.44587">
        <ele>1984</ele>
        <time>2018-06-25T12:30:26Z</time>
      </trkpt>
      <trkpt lat="45.33712" lon="6.44589">
        <ele>1984</ele>
        <time>2018-06-25T12:31:26Z</time>
      </trkpt>
      <trkpt lat="45.33712" lon="6.44601">
        <ele>1983</ele>
        <time>2018-06-25T12:32:26Z</time>
      </trkpt>
      <trkpt lat="45.33711" lon="6.44611">
        <ele>1983</ele>
        <time>2018-06-25T12:33:26Z</time>
      </trkpt>
      <trkpt lat="45.33712" lon="6.4462">
        <ele>1983</ele>
        <time>2018-06-25T12:34:26Z</time>
      </trkpt>
      <trkpt lat="45.33714" lon="6.44623">
        <ele>1983</ele>
        <time>2018-06-25T12:35:26Z</time>
      </trkpt>
      <trkpt lat="45.33716" lon="6.44635">
        <ele>1983</ele>
        <time>2018-06-25T12:36:26Z</time>
      </trkpt>
      <trkpt lat="45.3372" lon="6.44647">
        <ele>1984</ele>
        <time>2018-06-25T12:37:26Z</time>
      </trkpt>
      <trkpt lat="45.3372" lon="6.44656">
        <ele>1984</ele>
        <time>2018-06-25T12:38:26Z</time>
      </trkpt>
      <trkpt lat="45.33725" lon="6.44707">
        <ele>1978</ele>
        <time>2018-06-25T12:39:26Z</time>
      </trkpt>
      <trkpt lat="45.33728" lon="6.44712">
        <ele>1978</ele>
        <time>2018-06-25T12:40:26Z</time>
      </trkpt>
      <trkpt lat="45.33728" lon="6.44726">
        <ele>1978</ele>
        <time>2018-06-25T12:41:26Z</time>
      </trkpt>
      <trkpt lat="45.33729" lon="6.44734">
        <ele>1978</ele>
        <time>2018-06-25T12:42:26Z</time>
      </trkpt>
      <trkpt lat="45.33732" lon="6.44743">
        <ele>1978</ele>
        <time>2018-06-25T12:43:26Z</time>
      </trkpt>
      <trkpt lat="45.33732" lon="6.4475">
        <ele>1978</ele>
        <time>2018-06-25T12:44:26Z</time>
      </trkpt>
      <trkpt lat="45.33736" lon="6.44783">
        <ele>1971</ele>
        <time>2018-06-25T12:45:26Z</time>
      </trkpt>
      <trkpt lat="45.33738" lon="6.44789">
        <ele>1970</ele>
        <time>2018-06-25T12:46:26Z</time>
      </trkpt>
      <trkpt lat="45.33738" lon="6.44794">
        <ele>1970</ele>
        <time>2018-06-25T12:47:26Z</time>
      </trkpt>
      <trkpt lat="45.33738" lon="6.44803">
        <ele>1969</ele>
        <time>2018-06-25T12:48:26Z</time>
      </trkpt>
      <trkpt lat="45.33739" lon="6.44805">
        <ele>1969</ele>
        <time>2018-06-25T12:49:26Z</time>
      </trkpt>
      <trkpt lat="45.33741" lon="6.44813">
        <ele>1969</ele>
        <time>2018-06-25T12:50:26Z</time>
      </trkpt>
      <trkpt lat="45.3374" lon="6.44815">
        <ele>1969</ele>
        <time>2018-06-25T12:51:26Z</time>
      </trkpt>
      <trkpt lat="45.33736" lon="6.44818">
        <ele>1968</ele>
        <time>2018-06-25T12:52:26Z</time>
      </trkpt>
      <trkpt lat="45.33734" lon="6.44824">
        <ele>1968</ele>
        <time>2018-06-25T12:53:26Z</time>
      </trkpt>
      <trkpt lat="45.33733" lon="6.44832">
        <ele>1968</ele>
        <time>2018-06-25T12:54:26Z</time>
      </trkpt>
      <trkpt lat="45.33733" lon="6.44841">
        <ele>1964</ele>
        <time>2018-06-25T12:55:26Z</time>
      </trkpt>
      <trkpt lat="45.33734" lon="6.44847">
        <ele>1964</ele>
        <time>2018-06-25T12:56:26Z</time>
      </trkpt>
      <trkpt lat="45.33736" lon="6.44855">
        <ele>1963</ele>
        <time>2018-06-25T12:57:26Z</time>
      </trkpt>
      <trkpt lat="45.33738" lon="6.4486">
        <ele>1963</ele>
        <time>2018-06-25T12:58:26Z</time>
      </trkpt>
      <trkpt lat="45.33742" lon="6.44867">
        <ele>1962</ele>
        <time>2018-06-25T12:59:26Z</time>
      </trkpt>
      <trkpt lat="45.33742" lon="6.44874">
        <ele>1962</ele>
        <time>2018-06-25T13:00:26Z</time>
      </trkpt>
      <trkpt lat="45.33743" lon="6.44884">
        <ele>1961</ele>
        <time>2018-06-25T13:01:26Z</time>
      </trkpt>
      <trkpt lat="45.3374" lon="6.4489">
        <ele>1961</ele>
        <time>2018-06-25T13:02:26Z</time>
      </trkpt>
      <trkpt lat="45.3374" lon="6.44902">
        <ele>1961</ele>
        <time>2018-06-25T13:03:26Z</time>
      </trkpt>
      <trkpt lat="45.33742" lon="6.44912">
        <ele>1961</ele>
        <time>2018-06-25T13:04:26Z</time>
      </trkpt>
      <trkpt lat="45.33744" lon="6.44921">
        <ele>1959</ele>
        <time>2018-06-25T13:05:26Z</time>
      </trkpt>
      <trkpt lat="45.33744" lon="6.44929">
        <ele>1958</ele>
        <time>2018-06-25T13:06:26Z</time>
      </trkpt>
      <trkpt lat="45.33744" lon="6.44936">
        <ele>1956</ele>
        <time>2018-06-25T13:07:26Z</time>
      </trkpt>
      <trkpt lat="45.33746" lon="6.44941">
        <ele>1956</ele>
        <time>2018-06-25T13:08:26Z</time>
      </trkpt>
      <trkpt lat="45.33748" lon="6.44946">
        <ele>1955</ele>
        <time>2018-06-25T13:09:26Z</time>
      </trkpt>
      <trkpt lat="45.33746" lon="6.44954">
        <ele>1954</ele>
        <time>2018-06-25T13:10:26Z</time>
      </trkpt>
      <trkpt lat="45.33746" lon="6.44957">
        <ele>1954</ele>
        <time>2018-06-25T13:11:26Z</time>
      </trkpt>
      <trkpt lat="45.33748" lon="6.44955">
        <ele>1954</ele>
        <time>2018-06-25T13:12:26Z</time>
      </trkpt>
      <trkpt lat="45.3375" lon="6.44957">
        <ele>1954</ele>
        <time>2018-06-25T13:13:26Z</time>
      </trkpt>
      <trkpt lat="45.33751" lon="6.4496">
        <ele>1963</ele>
        <time>2018-06-25T13:14:26Z</time>
      </trkpt>
      <trkpt lat="45.33752" lon="6.44988">
        <ele>1957</ele>
        <time>2018-06-25T13:15:26Z</time>
      </trkpt>
      <trkpt lat="45.33755" lon="6.44992">
        <ele>1956</ele>
        <time>2018-06-25T13:16:26Z</time>
      </trkpt>
      <trkpt lat="45.33758" lon="6.44991">
        <ele>1957</ele>
        <time>2018-06-25T13:17:26Z</time>
      </trkpt>
      <trkpt lat="45.3376" lon="6.44996">
        <ele>1957</ele>
        <time>2018-06-25T13:18:26Z</time>
      </trkpt>
      <trkpt lat="45.33762" lon="6.45004">
        <ele>1953</ele>
        <time>2018-06-25T13:19:26Z</time>
      </trkpt>
      <trkpt lat="45.33762" lon="6.45014">
        <ele>1954</ele>
        <time>2018-06-25T13:20:26Z</time>
      </trkpt>
      <trkpt lat="45.33761" lon="6.45025">
        <ele>1954</ele>
        <time>2018-06-25T13:21:26Z</time>
      </trkpt>
      <trkpt lat="45.33764" lon="6.45033">
        <ele>1954</ele>
        <time>2018-06-25T13:22:26Z</time>
      </trkpt>
      <trkpt lat="45.33765" lon="6.45044">
        <ele>1953</ele>
        <time>2018-06-25T13:23:26Z</time>
      </trkpt>
      <trkpt lat="45.33767" lon="6.45048">
        <ele>1953</ele>
        <time>2018-06-25T13:24:26Z</time>
      </trkpt>
      <trkpt lat="45.33767" lon="6.45064">
        <ele>1951</ele>
        <time>2018-06-25T13:25:26Z</time>
      </trkpt>
      <trkpt lat="45.33771" lon="6.45071">
        <ele>1951</ele>
        <time>2018-06-25T13:26:26Z</time>
      </trkpt>
      <trkpt lat="45.33774" lon="6.45078">
        <ele>1951</ele>
        <time>2018-06-25T13:27:26Z</time>
      </trkpt>
      <trkpt lat="45.33774" lon="6.4509">
        <ele>1945</ele>
        <time>2018-06-25T13:28:26Z</time>
      </trkpt>
      <trkpt lat="45.33777" lon="6.45098">
        <ele>1946</ele>
        <time>2018-06-25T13:29:26Z</time>
      </trkpt>
      <trkpt lat="45.33778" lon="6.45115">
        <ele>1946</ele>
        <time>2018-06-25T13:30:26Z</time>
      </trkpt>
      <trkpt lat="45.3378" lon="6.45136">
        <ele>1945</ele>
        <time>2018-06-25T13:31:26Z</time>
      </trkpt>
      <trkpt lat="45.33783" lon="6.45143">
        <ele>1944</ele>
        <time>2018-06-25T13:32:26Z</time>
      </trkpt>
      <trkpt lat="45.33788" lon="6.45163">
        <ele>1944</ele>
        <time>2018-06-25T13:33:26Z</time>
      </trkpt>
      <trkpt lat="45.33789" lon="6.45175">
        <ele>1938</ele>
        <time>2018-06-25T13:34:26Z</time>
      </trkpt>
      <trkpt lat="45.33791" lon="6.45184">
        <ele>1938</ele>
        <time>2018-06-25T13:35:26Z</time>
      </trkpt>
      <trkpt lat="45.33791" lon="6.45194">
        <ele>1938</ele>
        <time>2018-06-25T13:36:26Z</time>
      </trkpt>
      <trkpt lat="45.33794" lon="6.45209">
        <ele>1937</ele>
        <time>2018-06-25T13:37:26Z</time>
      </trkpt>
      <trkpt lat="45.33794" lon="6.45217">
        <ele>1937</ele>
        <time>2018-06-25T13:38:26Z</time>
      </trkpt>
      <trkpt lat="45.33795" lon="6.45235">
        <ele>1936</ele>
        <time>2018-06-25T13:39:26Z</time>
      </trkpt>
      <trkpt lat="45.338" lon="6.45246">
        <ele>1936</ele>
        <time>2018-06-25T13:40:26Z</time>
      </trkpt>
      <trkpt lat="45.33805" lon="6.45257">
        <ele>1932</ele>
        <time>2018-06-25T13:41:26Z</time>
      </trkpt>
      <trkpt lat="45.33806" lon="6.45264">
        <ele>1931</ele>
        <time>2018-06-25T13:42:26Z</time>
      </trkpt>
      <trkpt lat="45.33806" lon="6.45272">
        <ele>1931</ele>
        <time>2018-06-25T13:43:26Z</time>
      </trkpt>
      <trkpt lat="45.33804" lon="6.45279">
        <ele>1930</ele>
        <time>2018-06-25T13:44:26Z</time>
      </trkpt>
      <trkpt lat="45.33804" lon="6.45289">
        <ele>1929</ele>
        <time>2018-06-25T13:45:26Z</time>
      </trkpt>
      <trkpt lat="45.33805" lon="6.45299">
        <ele>1929</ele>
        <time>2018-06-25T13:46:26Z</time>
      </trkpt>
      <trkpt lat="45.33807" lon="6.45322">
        <ele>1929</ele>
        <time>2018-06-25T13:47:26Z</time>
      </trkpt>
      <trkpt lat="45.33809" lon="6.45331">
        <ele>1929</ele>
        <time>2018-06-25T13:48:26Z</time>
      </trkpt>
      <trkpt lat="45.33812" lon="6.4535">
        <ele>1923</ele>
        <time>2018-06-25T13:49:26Z</time>
      </trkpt>
      <trkpt lat="45.33815" lon="6.45363">
        <ele>1921</ele>
        <time>2018-06-25T13:50:26Z</time>
      </trkpt>
      <trkpt lat="45.33825" lon="6.4539">
        <ele>1919</ele>
        <time>2018-06-25T13:51:26Z</time>
      </trkpt>
      <trkpt lat="45.33826" lon="6.45395">
        <ele>1919</ele>
        <time>2018-06-25T13:52:26Z</time>
      </trkpt>
      <trkpt lat="45.33826" lon="6.45399">
        <ele>1919</ele>
        <time>2018-06-25T13:53:26Z</time>
      </trkpt>
      <trkpt lat="45.33822" lon="6.45414">
        <ele>1919</ele>
        <time>2018-06-25T13:54:26Z</time>
      </trkpt>
      <trkpt lat="45.33822" lon="6.45419">
        <ele>1916</ele>
        <time>2018-06-25T13:55:26Z</time>
      </trkpt>
      <trkpt lat="45.33826" lon="6.45422">
        <ele>1917</ele>
        <time>2018-06-25T13:56:26Z</time>
      </trkpt>
      <trkpt lat="45.33836" lon="6.45426">
        <ele>1925</ele>
        <time>2018-06-25T13:57:26Z</time>
      </trkpt>
      <trkpt lat="45.3384" lon="6.45429">
        <ele>1926</ele>
        <time>2018-06-25T13:58:26Z</time>
      </trkpt>
      <trkpt lat="45.3384" lon="6.45433">
        <ele>1927</ele>
        <time>2018-06-25T13:59:26Z</time>
      </trkpt>
      <trkpt lat="45.3384" lon="6.45436">
        <ele>1928</ele>
        <time>2018-06-25T14:00:26Z</time>
      </trkpt>
      <trkpt lat="45.33835" lon="6.45439">
        <ele>1928</ele>
        <time>2018-06-25T14:01:26Z</time>
      </trkpt>
      <trkpt lat="45.33821" lon="6.45442">
        <ele>1913</ele>
        <time>2018-06-25T14:02:26Z</time>
      </trkpt>
      <trkpt lat="45.33808" lon="6.45448">
        <ele>1911</ele>
        <time>2018-06-25T14:03:26Z</time>
      </trkpt>
      <trkpt lat="45.33788" lon="6.45461">
        <ele>1908</ele>
        <time>2018-06-25T14:04:26Z</time>
      </trkpt>
      <trkpt lat="45.33775" lon="6.45474">
        <ele>1906</ele>
        <time>2018-06-25T14:05:26Z</time>
      </trkpt>
      <trkpt lat="45.33766" lon="6.45488">
        <ele>1903</ele>
        <time>2018-06-25T14:06:26Z</time>
      </trkpt>
      <trkpt lat="45.33757" lon="6.45508">
        <ele>1899</ele>
        <time>2018-06-25T14:07:26Z</time>
      </trkpt>
      <trkpt lat="45.33752" lon="6.45535">
        <ele>1901</ele>
        <time>2018-06-25T14:08:26Z</time>
      </trkpt>
      <trkpt lat="45.33751" lon="6.45552">
        <ele>1900</ele>
        <time>2018-06-25T14:09:26Z</time>
      </trkpt>
      <trkpt lat="45.3375" lon="6.45571">
        <ele>1891</ele>
        <time>2018-06-25T14:10:26Z</time>
      </trkpt>
      <trkpt lat="45.33747" lon="6.45591">
        <ele>1888</ele>
        <time>2018-06-25T14:11:26Z</time>
      </trkpt>
      <trkpt lat="45.33746" lon="6.45601">
        <ele>1887</ele>
        <time>2018-06-25T14:12:26Z</time>
      </trkpt>
      <trkpt lat="45.33742" lon="6.45619">
        <ele>1885</ele>
        <time>2018-06-25T14:13:26Z</time>
      </trkpt>
      <trkpt lat="45.3374" lon="6.45626">
        <ele>1884</ele>
        <time>2018-06-25T14:14:26Z</time>
      </trkpt>
      <trkpt lat="45.33737" lon="6.45628">
        <ele>1884</ele>
        <time>2018-06-25T14:15:26Z</time>
      </trkpt>
      <trkpt lat="45.33731" lon="6.45633">
        <ele>1884</ele>
        <time>2018-06-25T14:16:26Z</time>
      </trkpt>
      <trkpt lat="45.33729" lon="6.45633">
        <ele>1884</ele>
        <time>2018-06-25T14:17:26Z</time>
      </trkpt>
      <trkpt lat="45.33724" lon="6.45635">
        <ele>1884</ele>
        <time>2018-06-25T14:18:26Z</time>
      </trkpt>
      <trkpt lat="45.3372" lon="6.4564">
        <ele>1883</ele>
        <time>2018-06-25T14:19:26Z</time>
      </trkpt>
      <trkpt lat="45.33716" lon="6.45646">
        <ele>1883</ele>
        <time>2018-06-25T14:20:26Z</time>
      </trkpt>
      <trkpt lat="45.33707" lon="6.45654">
        <ele>1882</ele>
        <time>2018-06-25T14:21:26Z</time>
      </trkpt>
      <trkpt lat="45.33698" lon="6.45663">
        <ele>1882</ele>
        <time>2018-06-25T14:22:26Z</time>
      </trkpt>
      <trkpt lat="45.3369" lon="6.45687">
        <ele>1877</ele>
        <time>2018-06-25T14:23:26Z</time>
      </trkpt>
      <trkpt lat="45.33685" lon="6.457">
        <ele>1877</ele>
        <time>2018-06-25T14:24:26Z</time>
      </trkpt>
      <trkpt lat="45.33681" lon="6.45705">
        <ele>1877</ele>
        <time>2018-06-25T14:25:26Z</time>
      </trkpt>
      <trkpt lat="45.3368" lon="6.4571">
        <ele>1877</ele>
        <time>2018-06-25T14:26:26Z</time>
      </trkpt>
      <trkpt lat="45.33679" lon="6.45717">
        <ele>1877</ele>
        <time>2018-06-25T14:27:26Z</time>
      </trkpt>
      <trkpt lat="45.33679" lon="6.45741">
        <ele>1877</ele>
        <time>2018-06-25T14:28:26Z</time>
      </trkpt>
      <trkpt lat="45.33679" lon="6.45761">
        <ele>1874</ele>
        <time>2018-06-25T14:29:26Z</time>
      </trkpt>
      <trkpt lat="45.33678" lon="6.4577">
        <ele>1873</ele>
        <time>2018-06-25T14:30:26Z</time>
      </trkpt>
      <trkpt lat="45.33677" lon="6.45777">
        <ele>1873</ele>
        <time>2018-06-25T14:31:26Z</time>
      </trkpt>
      <trkpt lat="45.33669" lon="6.45797">
        <ele>1871</ele>
        <time>2018-06-25T14:32:26Z</time>
      </trkpt>
      <trkpt lat="45.33669" lon="6.45803">
        <ele>1871</ele>
        <time>2018-06-25T14:33:26Z</time>
      </trkpt>
      <trkpt lat="45.33671" lon="6.45814">
        <ele>1870</ele>
        <time>2018-06-25T14:34:26Z</time>
      </trkpt>
      <trkpt lat="45.3367" lon="6.4582">
        <ele>1870</ele>
        <time>2018-06-25T14:35:26Z</time>
      </trkpt>
      <trkpt lat="45.33669" lon="6.45826">
        <ele>1869</ele>
        <time>2018-06-25T14:36:26Z</time>
      </trkpt>
      <trkpt lat="45.3367" lon="6.45831">
        <ele>1869</ele>
        <time>2018-06-25T14:37:26Z</time>
      </trkpt>
      <trkpt lat="45.33673" lon="6.4585">
        <ele>1868</ele>
        <time>2018-06-25T14:38:26Z</time>
      </trkpt>
      <trkpt lat="45.33673" lon="6.45855">
        <ele>1868</ele>
        <time>2018-06-25T14:39:26Z</time>
      </trkpt>
      <trkpt lat="45.33674" lon="6.45867">
        <ele>1867</ele>
        <time>2018-06-25T14:40:26Z</time>
      </trkpt>
      <trkpt lat="45.33672" lon="6.45877">
        <ele>1867</ele>
        <time>2018-06-25T14:41:26Z</time>
      </trkpt>
      <trkpt lat="45.3367" lon="6.45919">
        <ele>1866</ele>
        <time>2018-06-25T14:42:26Z</time>
      </trkpt>
      <trkpt lat="45.3367" lon="6.45927">
        <ele>1865</ele>
        <time>2018-06-25T14:43:26Z</time>
      </trkpt>
      <trkpt lat="45.33671" lon="6.45931">
        <ele>1865</ele>
        <time>2018-06-25T14:44:26Z</time>
      </trkpt>
      <trkpt lat="45.33669" lon="6.45937">
        <ele>1864</ele>
        <time>2018-06-25T14:45:26Z</time>
      </trkpt>
      <trkpt lat="45.33669" lon="6.45943">
        <ele>1864</ele>
        <time>2018-06-25T14:46:26Z</time>
      </trkpt>
      <trkpt lat="45.33671" lon="6.45951">
        <ele>1864</ele>
        <time>2018-06-25T14:47:26Z</time>
      </trkpt>
      <trkpt lat="45.33675" lon="6.4597">
        <ele>1862</ele>
        <time>2018-06-25T14:48:26Z</time>
      </trkpt>
      <trkpt lat="45.33676" lon="6.45993">
        <ele>1860</ele>
        <time>2018-06-25T14:49:26Z</time>
      </trkpt>
      <trkpt lat="45.3368" lon="6.46017">
        <ele>1857</ele>
        <time>2018-06-25T14:50:26Z</time>
      </trkpt>
      <trkpt lat="45.3368" lon="6.46025">
        <ele>1857</ele>
        <time>2018-06-25T14:51:26Z</time>
      </trkpt>
      <trkpt lat="45.33679" lon="6.46031">
        <ele>1857</ele>
        <time>2018-06-25T14:52:26Z</time>
      </trkpt>
      <trkpt lat="45.3368" lon="6.46036">
        <ele>1857</ele>
        <time>2018-06-25T14:53:26Z</time>
      </trkpt>
      <trkpt lat="45.33682" lon="6.46056">
        <ele>1856</ele>
        <time>2018-06-25T14:54:26Z</time>
      </trkpt>
      <trkpt lat="45.33682" lon="6.46072">
        <ele>1855</ele>
        <time>2018-06-25T14:55:26Z</time>
      </trkpt>
      <trkpt lat="45.33682" lon="6.46079">
        <ele>1854</ele>
        <time>2018-06-25T14:56:26Z</time>
      </trkpt>
      <trkpt lat="45.33669" lon="6.46146">
        <ele>1849</ele>
        <time>2018-06-25T14:57:26Z</time>
      </trkpt>
      <trkpt lat="45.33667" lon="6.46203">
        <ele>1847</ele>
        <time>2018-06-25T14:58:26Z</time>
      </trkpt>
      <trkpt lat="45.33666" lon="6.46207">
        <ele>1859</ele>
        <time>2018-06-25T14:59:26Z</time>
      </trkpt>
      <trkpt lat="45.33666" lon="6.46211">
        <ele>1859</ele>
        <time>2018-06-25T15:00:26Z</time>
      </trkpt>
      <trkpt lat="45.33669" lon="6.46231">
        <ele>1846</ele>
        <time>2018-06-25T15:01:26Z</time>
      </trkpt>
      <trkpt lat="45.33669" lon="6.46235">
        <ele>1845</ele>
        <time>2018-06-25T15:02:26Z</time>
      </trkpt>
      <trkpt lat="45.33668" lon="6.46251">
        <ele>1842</ele>
        <time>2018-06-25T15:03:26Z</time>
      </trkpt>
      <trkpt lat="45.33668" lon="6.46264">
        <ele>1844</ele>
        <time>2018-06-25T15:04:26Z</time>
      </trkpt>
      <trkpt lat="45.33668" lon="6.46279">
        <ele>1844</ele>
        <time>2018-06-25T15:05:26Z</time>
      </trkpt>
      <trkpt lat="45.33666" lon="6.46287">
        <ele>1847</ele>
        <time>2018-06-25T15:06:26Z</time>
      </trkpt>
      <trkpt lat="45.33655" lon="6.46322">
        <ele>1841</ele>
        <time>2018-06-25T15:07:26Z</time>
      </trkpt>
      <trkpt lat="45.33652" lon="6.46327">
        <ele>1841</ele>
        <time>2018-06-25T15:08:26Z</time>
      </trkpt>
      <trkpt lat="45.33648" lon="6.46333">
        <ele>1842</ele>
        <time>2018-06-25T15:09:26Z</time>
      </trkpt>
      <trkpt lat="45.33639" lon="6.46343">
        <ele>1832</ele>
        <time>2018-06-25T15:10:26Z</time>
      </trkpt>
      <trkpt lat="45.33637" lon="6.46346">
        <ele>1833</ele>
        <time>2018-06-25T15:11:26Z</time>
      </trkpt>
      <trkpt lat="45.33635" lon="6.46352">
        <ele>1832</ele>
        <time>2018-06-25T15:12:26Z</time>
      </trkpt>
      <trkpt lat="45.33631" lon="6.46368">
        <ele>1831</ele>
        <time>2018-06-25T15:13:26Z</time>
      </trkpt>
      <trkpt lat="45.33628" lon="6.46374">
        <ele>1830</ele>
        <time>2018-06-25T15:14:26Z</time>
      </trkpt>
      <trkpt lat="45.33624" lon="6.46377">
        <ele>1830</ele>
        <time>2018-06-25T15:15:26Z</time>
      </trkpt>
      <trkpt lat="45.33613" lon="6.46385">
        <ele>1830</ele>
        <time>2018-06-25T15:16:26Z</time>
      </trkpt>
      <trkpt lat="45.33609" lon="6.46389">
        <ele>1829</ele>
        <time>2018-06-25T15:17:26Z</time>
      </trkpt>
      <trkpt lat="45.33605" lon="6.46395">
        <ele>1829</ele>
        <time>2018-06-25T15:18:26Z</time>
      </trkpt>
      <trkpt lat="45.336" lon="6.46408">
        <ele>1826</ele>
        <time>2018-06-25T15:19:26Z</time>
      </trkpt>
      <trkpt lat="45.33597" lon="6.46413">
        <ele>1826</ele>
        <time>2018-06-25T15:20:26Z</time>
      </trkpt>
      <trkpt lat="45.33594" lon="6.46418">
        <ele>1817</ele>
        <time>2018-06-25T15:21:26Z</time>
      </trkpt>
      <trkpt lat="45.33591" lon="6.46419">
        <ele>1818</ele>
        <time>2018-06-25T15:22:26Z</time>
      </trkpt>
      <trkpt lat="45.33577" lon="6.46424">
        <ele>1820</ele>
        <time>2018-06-25T15:23:26Z</time>
      </trkpt>
      <trkpt lat="45.33575" lon="6.46427">
        <ele>1819</ele>
        <time>2018-06-25T15:24:26Z</time>
      </trkpt>
      <trkpt lat="45.33568" lon="6.46445">
        <ele>1816</ele>
        <time>2018-06-25T15:25:26Z</time>
      </trkpt>
      <trkpt lat="45.33564" lon="6.46451">
        <ele>1815</ele>
        <time>2018-06-25T15:26:26Z</time>
      </trkpt>
      <trkpt lat="45.3356" lon="6.46455">
        <ele>1814</ele>
        <time>2018-06-25T15:27:26Z</time>
      </trkpt>
      <trkpt lat="45.3355" lon="6.46462">
        <ele>1814</ele>
        <time>2018-06-25T15:28:26Z</time>
      </trkpt>
      <trkpt lat="45.33546" lon="6.46466">
        <ele>1814</ele>
        <time>2018-06-25T15:29:26Z</time>
      </trkpt>
      <trkpt lat="45.33539" lon="6.4648">
        <ele>1812</ele>
        <time>2018-06-25T15:30:26Z</time>
      </trkpt>
      <trkpt lat="45.33534" lon="6.46485">
        <ele>1812</ele>
        <time>2018-06-25T15:31:26Z</time>
      </trkpt>
      <trkpt lat="45.33528" lon="6.46489">
        <ele>1813</ele>
        <time>2018-06-25T15:32:26Z</time>
      </trkpt>
      <trkpt lat="45.33516" lon="6.46489">
        <ele>1814</ele>
        <time>2018-06-25T15:33:26Z</time>
      </trkpt>
      <trkpt lat="45.33509" lon="6.4649">
        <ele>1814</ele>
        <time>2018-06-25T15:34:26Z</time>
      </trkpt>
      <trkpt lat="45.335" lon="6.46497">
        <ele>1812</ele>
        <time>2018-06-25T15:35:26Z</time>
      </trkpt>
      <trkpt lat="45.3349" lon="6.46504">
        <ele>1807</ele>
        <time>2018-06-25T15:36:26Z</time>
      </trkpt>
      <trkpt lat="45.33489" lon="6.46507">
        <ele>1806</ele>
        <time>2018-06-25T15:37:26Z</time>
      </trkpt>
      <trkpt lat="45.33487" lon="6.46522">
        <ele>1802</ele>
        <time>2018-06-25T15:38:26Z</time>
      </trkpt>
      <trkpt lat="45.33481" lon="6.46535">
        <ele>1797</ele>
        <time>2018-06-25T15:39:26Z</time>
      </trkpt>
      <trkpt lat="45.33471" lon="6.46552">
        <ele>1793</ele>
        <time>2018-06-25T15:40:26Z</time>
      </trkpt>
      <trkpt lat="45.33457" lon="6.46564">
        <ele>1791</ele>
        <time>2018-06-25T15:41:26Z</time>
      </trkpt>
      <trkpt lat="45.33443" lon="6.46578">
        <ele>1789</ele>
        <time>2018-06-25T15:42:26Z</time>
      </trkpt>
      <trkpt lat="45.33434" lon="6.46585">
        <ele>1769</ele>
        <time>2018-06-25T15:43:26Z</time>
      </trkpt>
      <trkpt lat="45.33426" lon="6.46587">
        <ele>1773</ele>
        <time>2018-06-25T15:44:26Z</time>
      </trkpt>
      <trkpt lat="45.33389" lon="6.46595">
        <ele>1773</ele>
        <time>2018-06-25T15:45:26Z</time>
      </trkpt>
      <trkpt lat="45.3337" lon="6.46602">
        <ele>1773</ele>
        <time>2018-06-25T15:46:26Z</time>
      </trkpt>
      <trkpt lat="45.3336" lon="6.46609">
        <ele>1772</ele>
        <time>2018-06-25T15:47:26Z</time>
      </trkpt>
      <trkpt lat="45.33348" lon="6.4662">
        <ele>1771</ele>
        <time>2018-06-25T15:48:26Z</time>
      </trkpt>
      <trkpt lat="45.33343" lon="6.46627">
        <ele>1769</ele>
        <time>2018-06-25T15:49:26Z</time>
      </trkpt>
      <trkpt lat="45.3334" lon="6.46636">
        <ele>1767</ele>
        <time>2018-06-25T15:50:26Z</time>
      </trkpt>
      <trkpt lat="45.33337" lon="6.46645">
        <ele>1765</ele>
        <time>2018-06-25T15:51:26Z</time>
      </trkpt>
      <trkpt lat="45.33317" lon="6.46668">
        <ele>1755</ele>
        <time>2018-06-25T15:52:26Z</time>
      </trkpt>
      <trkpt lat="45.33315" lon="6.46673">
        <ele>1755</ele>
        <time>2018-06-25T15:53:26Z</time>
      </trkpt>
      <trkpt lat="45.33317" lon="6.46675">
        <ele>1755</ele>
        <time>2018-06-25T15:54:26Z</time>
      </trkpt>
      <trkpt lat="45.33322" lon="6.46677">
        <ele>1755</ele>
        <time>2018-06-25T15:55:26Z</time>
      </trkpt>
      <trkpt lat="45.33387" lon="6.46688">
        <ele>1744</ele>
        <time>2018-06-25T15:56:26Z</time>
      </trkpt>
      <trkpt lat="45.33392" lon="6.46695">
        <ele>1743</ele>
        <time>2018-06-25T15:57:26Z</time>
      </trkpt>
      <trkpt lat="45.33394" lon="6.46714">
        <ele>1740</ele>
        <time>2018-06-25T15:58:26Z</time>
      </trkpt>
      <trkpt lat="45.33403" lon="6.46716">
        <ele>1739</ele>
        <time>2018-06-25T15:59:26Z</time>
      </trkpt>
      <trkpt lat="45.33413" lon="6.46718">
        <ele>1738</ele>
        <time>2018-06-25T16:00:26Z</time>
      </trkpt>
      <trkpt lat="45.33431" lon="6.46717">
        <ele>1733</ele>
        <time>2018-06-25T16:01:26Z</time>
      </trkpt>
      <trkpt lat="45.33477" lon="6.46714">
        <ele>1732</ele>
        <time>2018-06-25T16:02:26Z</time>
      </trkpt>
      <trkpt lat="45.33482" lon="6.46718">
        <ele>1731</ele>
        <time>2018-06-25T16:03:26Z</time>
      </trkpt>
      <trkpt lat="45.33484" lon="6.46725">
        <ele>1730</ele>
        <time>2018-06-25T16:04:26Z</time>
      </trkpt>
      <trkpt lat="45.33484" lon="6.46742">
        <ele>1728</ele>
        <time>2018-06-25T16:05:26Z</time>
      </trkpt>
      <trkpt lat="45.33484" lon="6.46757">
        <ele>1726</ele>
        <time>2018-06-25T16:06:26Z</time>
      </trkpt>
      <trkpt lat="45.33486" lon="6.46769">
        <ele>1726</ele>
        <time>2018-06-25T16:07:26Z</time>
      </trkpt>
      <trkpt lat="45.33492" lon="6.46783">
        <ele>1727</ele>
        <time>2018-06-25T16:08:26Z</time>
      </trkpt>
      <trkpt lat="45.33498" lon="6.46796">
        <ele>1728</ele>
        <time>2018-06-25T16:09:26Z</time>
      </trkpt>
      <trkpt lat="45.33509" lon="6.46807">
        <ele>1725</ele>
        <time>2018-06-25T16:10:26Z</time>
      </trkpt>
      <trkpt lat="45.33522" lon="6.46817">
        <ele>1725</ele>
        <time>2018-06-25T16:11:26Z</time>
      </trkpt>
      <trkpt lat="45.3354" lon="6.46829">
        <ele>1724</ele>
        <time>2018-06-25T16:12:26Z</time>
      </trkpt>
      <trkpt lat="45.33556" lon="6.46836">
        <ele>1729</ele>
        <time>2018-06-25T16:13:26Z</time>
      </trkpt>
      <trkpt lat="45.33582" lon="6.46845">
        <ele>1726</ele>
        <time>2018-06-25T16:14:26Z</time>
      </trkpt>
      <trkpt lat="45.33595" lon="6.46852">
        <ele>1727</ele>
        <time>2018-06-25T16:15:26Z</time>
      </trkpt>
      <trkpt lat="45.33608" lon="6.46863">
        <ele>1729</ele>
        <time>2018-06-25T16:16:26Z</time>
      </trkpt>
      <trkpt lat="45.33634" lon="6.46884">
        <ele>1731</ele>
        <time>2018-06-25T16:17:26Z</time>
      </trkpt>
      <trkpt lat="45.33641" lon="6.46886">
        <ele>1731</ele>
        <time>2018-06-25T16:18:26Z</time>
      </trkpt>
      <trkpt lat="45.33651" lon="6.46887">
        <ele>1731</ele>
        <time>2018-06-25T16:19:26Z</time>
      </trkpt>
      <trkpt lat="45.33664" lon="6.46884">
        <ele>1731</ele>
        <time>2018-06-25T16:20:26Z</time>
      </trkpt>
      <trkpt lat="45.33682" lon="6.4688">
        <ele>1728</ele>
        <time>2018-06-25T16:21:26Z</time>
      </trkpt>
      <trkpt lat="45.33693" lon="6.46879">
        <ele>1727</ele>
        <time>2018-06-25T16:22:26Z</time>
      </trkpt>
      <trkpt lat="45.33701" lon="6.4688">
        <ele>1727</ele>
        <time>2018-06-25T16:23:26Z</time>
      </trkpt>
      <trkpt lat="45.33708" lon="6.46884">
        <ele>1727</ele>
        <time>2018-06-25T16:24:26Z</time>
      </trkpt>
      <trkpt lat="45.33717" lon="6.46898">
        <ele>1729</ele>
        <time>2018-06-25T16:25:26Z</time>
      </trkpt>
      <trkpt lat="45.33727" lon="6.46907">
        <ele>1729</ele>
        <time>2018-06-25T16:26:26Z</time>
      </trkpt>
      <trkpt lat="45.33738" lon="6.46914">
        <ele>1731</ele>
        <time>2018-06-25T16:27:26Z</time>
      </trkpt>
      <trkpt lat="45.33772" lon="6.46925">
        <ele>1735</ele>
        <time>2018-06-25T16:28:26Z</time>
      </trkpt>
      <trkpt lat="45.33793" lon="6.46938">
        <ele>1735</ele>
        <time>2018-06-25T16:29:26Z</time>
      </trkpt>
      <trkpt lat="45.33815" lon="6.4695">
        <ele>1735</ele>
        <time>2018-06-25T16:30:26Z</time>
      </trkpt>
      <trkpt lat="45.33831" lon="6.46955">
        <ele>1735</ele>
        <time>2018-06-25T16:31:26Z</time>
      </trkpt>
      <trkpt lat="45.33851" lon="6.4696">
        <ele>1730</ele>
        <time>2018-06-25T16:32:26Z</time>
      </trkpt>
      <trkpt lat="45.33868" lon="6.46969">
        <ele>1730</ele>
        <time>2018-06-25T16:33:26Z</time>
      </trkpt>
      <trkpt lat="45.33882" lon="6.46975">
        <ele>1730</ele>
        <time>2018-06-25T16:34:26Z</time>
      </trkpt>
      <trkpt lat="45.33895" lon="6.46979">
        <ele>1731</ele>
        <time>2018-06-25T16:35:26Z</time>
      </trkpt>
      <trkpt lat="45.33909" lon="6.4698">
        <ele>1731</ele>
        <time>2018-06-25T16:36:26Z</time>
      </trkpt>
      <trkpt lat="45.33917" lon="6.46979">
        <ele>1725</ele>
        <time>2018-06-25T16:37:26Z</time>
      </trkpt>
      <trkpt lat="45.33926" lon="6.46979">
        <ele>1724</ele>
        <time>2018-06-25T16:38:26Z</time>
      </trkpt>
      <trkpt lat="45.33936" lon="6.46982">
        <ele>1723</ele>
        <time>2018-06-25T16:39:26Z</time>
      </trkpt>
      <trkpt lat="45.33949" lon="6.46986">
        <ele>1721</ele>
        <time>2018-06-25T16:40:26Z</time>
      </trkpt>
      <trkpt lat="45.33965" lon="6.46994">
        <ele>1719</ele>
        <time>2018-06-25T16:41:26Z</time>
      </trkpt>
      <trkpt lat="45.33975" lon="6.47002">
        <ele>1729</ele>
        <time>2018-06-25T16:42:26Z</time>
      </trkpt>
      <trkpt lat="45.33988" lon="6.47015">
        <ele>1727</ele>
        <time>2018-06-25T16:43:26Z</time>
      </trkpt>
      <trkpt lat="45.34005" lon="6.47035">
        <ele>1719</ele>
        <time>2018-06-25T16:44:26Z</time>
      </trkpt>
      <trkpt lat="45.34031" lon="6.47062">
        <ele>1720</ele>
        <time>2018-06-25T16:45:26Z</time>
      </trkpt>
      <trkpt lat="45.34052" lon="6.47083">
        <ele>1718</ele>
        <time>2018-06-25T16:46:26Z</time>
      </trkpt>
      <trkpt lat="45.34062" lon="6.47086">
        <ele>1725</ele>
        <time>2018-06-25T16:47:26Z</time>
      </trkpt>
      <trkpt lat="45.34074" lon="6.4709">
        <ele>1722</ele>
        <time>2018-06-25T16:48:26Z</time>
      </trkpt>
      <trkpt lat="45.34083" lon="6.47095">
        <ele>1722</ele>
        <time>2018-06-25T16:49:26Z</time>
      </trkpt>
      <trkpt lat="45.34092" lon="6.47103">
        <ele>1718</ele>
        <time>2018-06-25T16:50:26Z</time>
      </trkpt>
      <trkpt lat="45.34109" lon="6.4712">
        <ele>1719</ele>
        <time>2018-06-25T16:51:26Z</time>
      </trkpt>
      <trkpt lat="45.34115" lon="6.47122">
        <ele>1719</ele>
        <time>2018-06-25T16:52:26Z</time>
      </trkpt>
      <trkpt lat="45.3412" lon="6.47123">
        <ele>1719</ele>
        <time>2018-06-25T16:53:26Z</time>
      </trkpt>
      <trkpt lat="45.34126" lon="6.47123">
        <ele>1719</ele>
        <time>2018-06-25T16:54:26Z</time>
      </trkpt>
      <trkpt lat="45.34133" lon="6.47119">
        <ele>1718</ele>
        <time>2018-06-25T16:55:26Z</time>
      </trkpt>
      <trkpt lat="45.3414" lon="6.47107">
        <ele>1717</ele>
        <time>2018-06-25T16:56:26Z</time>
      </trkpt>
      <trkpt lat="45.3415" lon="6.47091">
        <ele>1714</ele>
        <time>2018-06-25T16:57:26Z</time>
      </trkpt>
      <trkpt lat="45.34158" lon="6.47085">
        <ele>1711</ele>
        <time>2018-06-25T16:58:26Z</time>
      </trkpt>
      <trkpt lat="45.34206" lon="6.4706">
        <ele>1699</ele>
        <time>2018-06-25T16:59:26Z</time>
      </trkpt>
      <trkpt lat="45.34211" lon="6.47059">
        <ele>1699</ele>
        <time>2018-06-25T17:00:26Z</time>
      </trkpt>
      <trkpt lat="45.34214" lon="6.47058">
        <ele>1699</ele>
        <time>2018-06-25T17:01:26Z</time>
      </trkpt>
      <trkpt lat="45.34229" lon="6.47059">
        <ele>1698</ele>
        <time>2018-06-25T17:02:26Z</time>
      </trkpt>
      <trkpt lat="45.34248" lon="6.47062">
        <ele>1698</ele>
        <time>2018-06-25T17:03:26Z</time>
      </trkpt>
      <trkpt lat="45.34264" lon="6.47065">
        <ele>1698</ele>
        <time>2018-06-25T17:04:26Z</time>
      </trkpt>
      <trkpt lat="45.34275" lon="6.47066">
        <ele>1698</ele>
        <time>2018-06-25T17:05:26Z</time>
      </trkpt>
      <trkpt lat="45.34286" lon="6.47064">
        <ele>1699</ele>
        <time>2018-06-25T17:06:26Z</time>
      </trkpt>
      <trkpt lat="45.34297" lon="6.47058">
        <ele>1699</ele>
        <time>2018-06-25T17:07:26Z</time>
      </trkpt>
      <trkpt lat="45.34309" lon="6.47053">
        <ele>1699</ele>
        <time>2018-06-25T17:08:26Z</time>
      </trkpt>
      <trkpt lat="45.34319" lon="6.47051">
        <ele>1699</ele>
        <time>2018-06-25T17:09:26Z</time>
      </trkpt>
      <trkpt lat="45.34331" lon="6.47052">
        <ele>1700</ele>
        <time>2018-06-25T17:10:26Z</time>
      </trkpt>
      <trkpt lat="45.3434" lon="6.47048">
        <ele>1702</ele>
        <time>2018-06-25T17:11:26Z</time>
      </trkpt>
      <trkpt lat="45.34416" lon="6.47007">
        <ele>1689</ele>
        <time>2018-06-25T17:12:26Z</time>
      </trkpt>
      <trkpt lat="45.34427" lon="6.47004">
        <ele>1691</ele>
        <time>2018-06-25T17:13:26Z</time>
      </trkpt>
      <trkpt lat="45.34434" lon="6.47002">
        <ele>1693</ele>
        <time>2018-06-25T17:14:26Z</time>
      </trkpt>
      <trkpt lat="45.34448" lon="6.46995">
        <ele>1673</ele>
        <time>2018-06-25T17:15:26Z</time>
      </trkpt>
      <trkpt lat="45.34463" lon="6.46991">
        <ele>1671</ele>
        <time>2018-06-25T17:16:26Z</time>
      </trkpt>
      <trkpt lat="45.34478" lon="6.46992">
        <ele>1672</ele>
        <time>2018-06-25T17:17:26Z</time>
      </trkpt>
      <trkpt lat="45.34502" lon="6.46993">
        <ele>1673</ele>
        <time>2018-06-25T17:18:26Z</time>
      </trkpt>
      <trkpt lat="45.34514" lon="6.46991">
        <ele>1669</ele>
        <time>2018-06-25T17:19:26Z</time>
      </trkpt>
      <trkpt lat="45.34529" lon="6.46988">
        <ele>1665</ele>
        <time>2018-06-25T17:20:26Z</time>
      </trkpt>
      <trkpt lat="45.34545" lon="6.46987">
        <ele>1663</ele>
        <time>2018-06-25T17:21:26Z</time>
      </trkpt>
      <trkpt lat="45.34559" lon="6.46991">
        <ele>1663</ele>
        <time>2018-06-25T17:22:26Z</time>
      </trkpt>
      <trkpt lat="45.34588" lon="6.47002">
        <ele>1675</ele>
        <time>2018-06-25T17:23:26Z</time>
      </trkpt>
      <trkpt lat="45.34593" lon="6.47001">
        <ele>1680</ele>
        <time>2018-06-25T17:24:26Z</time>
      </trkpt>
      <trkpt lat="45.34604" lon="6.46998">
        <ele>1664</ele>
        <time>2018-06-25T17:25:26Z</time>
      </trkpt>
      <trkpt lat="45.34616" lon="6.46992">
        <ele>1664</ele>
        <time>2018-06-25T17:26:26Z</time>
      </trkpt>
      <trkpt lat="45.34642" lon="6.46968">
        <ele>1663</ele>
        <time>2018-06-25T17:27:26Z</time>
      </trkpt>
      <trkpt lat="45.34654" lon="6.4696">
        <ele>1662</ele>
        <time>2018-06-25T17:28:26Z</time>
      </trkpt>
      <trkpt lat="45.34661" lon="6.46957">
        <ele>1662</ele>
        <time>2018-06-25T17:29:26Z</time>
      </trkpt>
      <trkpt lat="45.34674" lon="6.46953">
        <ele>1669</ele>
        <time>2018-06-25T17:30:26Z</time>
      </trkpt>
      <trkpt lat="45.34685" lon="6.46947">
        <ele>1669</ele>
        <time>2018-06-25T17:31:26Z</time>
      </trkpt>
      <trkpt lat="45.34694" lon="6.4694">
        <ele>1668</ele>
        <time>2018-06-25T17:32:26Z</time>
      </trkpt>
      <trkpt lat="45.34709" lon="6.46927">
        <ele>1669</ele>
        <time>2018-06-25T17:33:26Z</time>
      </trkpt>
      <trkpt lat="45.34732" lon="6.46901">
        <ele>1657</ele>
        <time>2018-06-25T17:34:26Z</time>
      </trkpt>
      <trkpt lat="45.3474" lon="6.46896">
        <ele>1657</ele>
        <time>2018-06-25T17:35:26Z</time>
      </trkpt>
      <trkpt lat="45.34745" lon="6.46894">
        <ele>1657</ele>
        <time>2018-06-25T17:36:26Z</time>
      </trkpt>
      <trkpt lat="45.3474" lon="6.46896">
        <ele>1657</ele>
        <time>2018-06-25T17:37:26Z</time>
      </trkpt>
      <trkpt lat="45.34732" lon="6.46901">
        <ele>1657</ele>
        <time>2018-06-25T17:38:26Z</time>
      </trkpt>
      <trkpt lat="45.3472" lon="6.46915">
        <ele>1656</ele>
        <time>2018-06-25T17:39:26Z</time>
      </trkpt>
      <trkpt lat="45.34709" lon="6.46927">
        <ele>1669</ele>
        <time>2018-06-25T17:40:26Z</time>
      </trkpt>
      <trkpt lat="45.34694" lon="6.4694">
        <ele>1668</ele>
        <time>2018-06-25T17:41:26Z</time>
      </trkpt>
      <trkpt lat="45.34685" lon="6.46947">
        <ele>1669</ele>
        <time>2018-06-25T17:42:26Z</time>
      </trkpt>
      <trkpt lat="45.34674" lon="6.46953">
        <ele>1669</ele>
        <time>2018-06-25T17:43:26Z</time>
      </trkpt>
      <trkpt lat="45.34661" lon="6.46957">
        <ele>1662</ele>
        <time>2018-06-25T17:44:26Z</time>
      </trkpt>
      <trkpt lat="45.34654" lon="6.4696">
        <ele>1662</ele>
        <time>2018-06-25T17:45:26Z</time>
      </trkpt>
      <trkpt lat="45.34642" lon="6.46968">
        <ele>1663</ele>
        <time>2018-06-25T17:46:26Z</time>
      </trkpt>
      <trkpt lat="45.34616" lon="6.46992">
        <ele>1664</ele>
        <time>2018-06-25T17:47:26Z</time>
      </trkpt>
      <trkpt lat="45.34604" lon="6.46998">
        <ele>1664</ele>
        <time>2018-06-25T17:48:26Z</time>
      </trkpt>
      <trkpt lat="45.34593" lon="6.47001">
        <ele>1680</ele>
        <time>2018-06-25T17:49:26Z</time>
      </trkpt>
      <trkpt lat="45.34588" lon="6.47002">
        <ele>1675</ele>
        <time>2018-06-25T17:50:26Z</time>
      </trkpt>
      <trkpt lat="45.34579" lon="6.46999">
        <ele>1667</ele>
        <time>2018-06-25T17:51:26Z</time>
      </trkpt>
      <trkpt lat="45.34559" lon="6.46991">
        <ele>1663</ele>
        <time>2018-06-25T17:52:26Z</time>
      </trkpt>
      <trkpt lat="45.34545" lon="6.46987">
        <ele>1663</ele>
        <time>2018-06-25T17:53:26Z</time>
      </trkpt>
      <trkpt lat="45.34529" lon="6.46988">
        <ele>1665</ele>
        <time>2018-06-25T17:54:26Z</time>
      </trkpt>
      <trkpt lat="45.34502" lon="6.46993">
        <ele>1673</ele>
        <time>2018-06-25T17:55:26Z</time>
      </trkpt>
      <trkpt lat="45.34478" lon="6.46992">
        <ele>1672</ele>
        <time>2018-06-25T17:56:26Z</time>
      </trkpt>
      <trkpt lat="45.34463" lon="6.46991">
        <ele>1671</ele>
        <time>2018-06-25T17:57:26Z</time>
      </trkpt>
      <trkpt lat="45.34448" lon="6.46995">
        <ele>1673</ele>
        <time>2018-06-25T17:58:26Z</time>
      </trkpt>
      <trkpt lat="45.34434" lon="6.47002">
        <ele>1693</ele>
        <time>2018-06-25T17:59:26Z</time>
      </trkpt>
      <trkpt lat="45.34427" lon="6.47004">
        <ele>1691</ele>
        <time>2018-06-25T18:00:26Z</time>
      </trkpt>
      <trkpt lat="45.34416" lon="6.47007">
        <ele>1689</ele>
        <time>2018-06-25T18:01:26Z</time>
      </trkpt>
      <trkpt lat="45.34394" lon="6.47019">
        <ele>1696</ele>
        <time>2018-06-25T18:02:26Z</time>
      </trkpt>
      <trkpt lat="45.3434" lon="6.47048">
        <ele>1702</ele>
        <time>2018-06-25T18:03:26Z</time>
      </trkpt>
      <trkpt lat="45.34331" lon="6.47052">
        <ele>1700</ele>
        <time>2018-06-25T18:04:26Z</time>
      </trkpt>
      <trkpt lat="45.34319" lon="6.47051">
        <ele>1699</ele>
        <time>2018-06-25T18:05:26Z</time>
      </trkpt>
      <trkpt lat="45.34297" lon="6.47058">
        <ele>1699</ele>
        <time>2018-06-25T18:06:26Z</time>
      </trkpt>
      <trkpt lat="45.34286" lon="6.47064">
        <ele>1699</ele>
        <time>2018-06-25T18:07:26Z</time>
      </trkpt>
      <trkpt lat="45.34275" lon="6.47066">
        <ele>1698</ele>
        <time>2018-06-25T18:08:26Z</time>
      </trkpt>
      <trkpt lat="45.34264" lon="6.47065">
        <ele>1698</ele>
        <time>2018-06-25T18:09:26Z</time>
      </trkpt>
      <trkpt lat="45.34229" lon="6.47059">
        <ele>1698</ele>
        <time>2018-06-25T18:10:26Z</time>
      </trkpt>
      <trkpt lat="45.34214" lon="6.47058">
        <ele>1699</ele>
        <time>2018-06-25T18:11:26Z</time>
      </trkpt>
      <trkpt lat="45.34206" lon="6.4706">
        <ele>1699</ele>
        <time>2018-06-25T18:12:26Z</time>
      </trkpt>
      <trkpt lat="45.34183" lon="6.47072">
        <ele>1703</ele>
        <time>2018-06-25T18:13:26Z</time>
      </trkpt>
      <trkpt lat="45.34158" lon="6.47085">
        <ele>1711</ele>
        <time>2018-06-25T18:14:26Z</time>
      </trkpt>
      <trkpt lat="45.3415" lon="6.47091">
        <ele>1714</ele>
        <time>2018-06-25T18:15:26Z</time>
      </trkpt>
      <trkpt lat="45.3414" lon="6.47107">
        <ele>1717</ele>
        <time>2018-06-25T18:16:26Z</time>
      </trkpt>
      <trkpt lat="45.34133" lon="6.47119">
        <ele>1718</ele>
        <time>2018-06-25T18:17:26Z</time>
      </trkpt>
      <trkpt lat="45.34126" lon="6.47123">
        <ele>1719</ele>
        <time>2018-06-25T18:18:26Z</time>
      </trkpt>
      <trkpt lat="45.34132" lon="6.47131">
        <ele>1720</ele>
        <time>2018-06-25T18:19:26Z</time>
      </trkpt>
      <trkpt lat="45.34133" lon="6.47141">
        <ele>1720</ele>
        <time>2018-06-25T18:20:26Z</time>
      </trkpt>
      <trkpt lat="45.34131" lon="6.47162">
        <ele>1722</ele>
        <time>2018-06-25T18:21:26Z</time>
      </trkpt>
      <trkpt lat="45.3413" lon="6.47195">
        <ele>1732</ele>
        <time>2018-06-25T18:22:26Z</time>
      </trkpt>
      <trkpt lat="45.34131" lon="6.47223">
        <ele>1734</ele>
        <time>2018-06-25T18:23:26Z</time>
      </trkpt>
      <trkpt lat="45.34136" lon="6.47248">
        <ele>1736</ele>
        <time>2018-06-25T18:24:26Z</time>
      </trkpt>
      <trkpt lat="45.34135" lon="6.47301">
        <ele>1751</ele>
        <time>2018-06-25T18:25:26Z</time>
      </trkpt>
      <trkpt lat="45.34138" lon="6.47308">
        <ele>1752</ele>
        <time>2018-06-25T18:26:26Z</time>
      </trkpt>
      <trkpt lat="45.34142" lon="6.47312">
        <ele>1752</ele>
        <time>2018-06-25T18:27:26Z</time>
      </trkpt>
      <trkpt lat="45.3415" lon="6.47313">
        <ele>1752</ele>
        <time>2018-06-25T18:28:26Z</time>
      </trkpt>
      <trkpt lat="45.34158" lon="6.47321">
        <ele>1754</ele>
        <time>2018-06-25T18:29:26Z</time>
      </trkpt>
      <trkpt lat="45.34163" lon="6.47327">
        <ele>1755</ele>
        <time>2018-06-25T18:30:26Z</time>
      </trkpt>
      <trkpt lat="45.34163" lon="6.47332">
        <ele>1756</ele>
        <time>2018-06-25T18:31:26Z</time>
      </trkpt>
      <trkpt lat="45.34159" lon="6.47337">
        <ele>1762</ele>
        <time>2018-06-25T18:32:26Z</time>
      </trkpt>
      <trkpt lat="45.34156" lon="6.47339">
        <ele>1763</ele>
        <time>2018-06-25T18:33:26Z</time>
      </trkpt>
      <trkpt lat="45.34154" lon="6.47342">
        <ele>1765</ele>
        <time>2018-06-25T18:34:26Z</time>
      </trkpt>
      <trkpt lat="45.34152" lon="6.47357">
        <ele>1769</ele>
        <time>2018-06-25T18:35:26Z</time>
      </trkpt>
      <trkpt lat="45.34151" lon="6.47362">
        <ele>1770</ele>
        <time>2018-06-25T18:36:26Z</time>
      </trkpt>
      <trkpt lat="45.34152" lon="6.47363">
        <ele>1770</ele>
        <time>2018-06-25T18:37:26Z</time>
      </trkpt>
      <trkpt lat="45.34162" lon="6.47366">
        <ele>1771</ele>
        <time>2018-06-25T18:38:26Z</time>
      </trkpt>
      <trkpt lat="45.34163" lon="6.47367">
        <ele>1771</ele>
        <time>2018-06-25T18:39:26Z</time>
      </trkpt>
      <trkpt lat="45.34162" lon="6.47372">
        <ele>1772</ele>
        <time>2018-06-25T18:40:26Z</time>
      </trkpt>
      <trkpt lat="45.34159" lon="6.47377">
        <ele>1773</ele>
        <time>2018-06-25T18:41:26Z</time>
      </trkpt>
      <trkpt lat="45.34159" lon="6.47381">
        <ele>1774</ele>
        <time>2018-06-25T18:42:26Z</time>
      </trkpt>
      <trkpt lat="45.34161" lon="6.47388">
        <ele>1776</ele>
        <time>2018-06-25T18:43:26Z</time>
      </trkpt>
      <trkpt lat="45.34162" lon="6.47391">
        <ele>1777</ele>
        <time>2018-06-25T18:44:26Z</time>
      </trkpt>
      <trkpt lat="45.34166" lon="6.47394">
        <ele>1778</ele>
        <time>2018-06-25T18:45:26Z</time>
      </trkpt>
      <trkpt lat="45.34169" lon="6.47398">
        <ele>1784</ele>
        <time>2018-06-25T18:46:26Z</time>
      </trkpt>
      <trkpt lat="45.3417" lon="6.47402">
        <ele>1785</ele>
        <time>2018-06-25T18:47:26Z</time>
      </trkpt>
      <trkpt lat="45.34173" lon="6.47406">
        <ele>1785</ele>
        <time>2018-06-25T18:48:26Z</time>
      </trkpt>
      <trkpt lat="45.34173" lon="6.47412">
        <ele>1785</ele>
        <time>2018-06-25T18:49:26Z</time>
      </trkpt>
      <trkpt lat="45.34172" lon="6.47417">
        <ele>1790</ele>
        <time>2018-06-25T18:50:26Z</time>
      </trkpt>
      <trkpt lat="45.34174" lon="6.47425">
        <ele>1794</ele>
        <time>2018-06-25T18:51:26Z</time>
      </trkpt>
      <trkpt lat="45.34177" lon="6.47429">
        <ele>1796</ele>
        <time>2018-06-25T18:52:26Z</time>
      </trkpt>
      <trkpt lat="45.34179" lon="6.47436">
        <ele>1799</ele>
        <time>2018-06-25T18:53:26Z</time>
      </trkpt>
      <trkpt lat="45.34183" lon="6.4744">
        <ele>1801</ele>
        <time>2018-06-25T18:54:26Z</time>
      </trkpt>
      <trkpt lat="45.34185" lon="6.47444">
        <ele>1802</ele>
        <time>2018-06-25T18:55:26Z</time>
      </trkpt>
      <trkpt lat="45.34188" lon="6.47447">
        <ele>1804</ele>
        <time>2018-06-25T18:56:26Z</time>
      </trkpt>
      <trkpt lat="45.34188" lon="6.47449">
        <ele>1804</ele>
        <time>2018-06-25T18:57:26Z</time>
      </trkpt>
      <trkpt lat="45.34187" lon="6.47455">
        <ele>1805</ele>
        <time>2018-06-25T18:58:26Z</time>
      </trkpt>
      <trkpt lat="45.3419" lon="6.47464">
        <ele>1806</ele>
        <time>2018-06-25T18:59:26Z</time>
      </trkpt>
      <trkpt lat="45.34189" lon="6.47476">
        <ele>1807</ele>
        <time>2018-06-25T19:00:26Z</time>
      </trkpt>
      <trkpt lat="45.3419" lon="6.47482">
        <ele>1807</ele>
        <time>2018-06-25T19:01:26Z</time>
      </trkpt>
      <trkpt lat="45.34192" lon="6.47487">
        <ele>1808</ele>
        <time>2018-06-25T19:02:26Z</time>
      </trkpt>
      <trkpt lat="45.34194" lon="6.4751">
        <ele>1822</ele>
        <time>2018-06-25T19:03:26Z</time>
      </trkpt>
      <trkpt lat="45.34195" lon="6.47521">
        <ele>1824</ele>
        <time>2018-06-25T19:04:26Z</time>
      </trkpt>
      <trkpt lat="45.34197" lon="6.47523">
        <ele>1825</ele>
        <time>2018-06-25T19:05:26Z</time>
      </trkpt>
      <trkpt lat="45.34199" lon="6.47524">
        <ele>1825</ele>
        <time>2018-06-25T19:06:26Z</time>
      </trkpt>
      <trkpt lat="45.34205" lon="6.47524">
        <ele>1827</ele>
        <time>2018-06-25T19:07:26Z</time>
      </trkpt>
      <trkpt lat="45.34222" lon="6.47524">
        <ele>1830</ele>
        <time>2018-06-25T19:08:26Z</time>
      </trkpt>
      <trkpt lat="45.34225" lon="6.47523">
        <ele>1830</ele>
        <time>2018-06-25T19:09:26Z</time>
      </trkpt>
      <trkpt lat="45.34228" lon="6.47524">
        <ele>1831</ele>
        <time>2018-06-25T19:10:26Z</time>
      </trkpt>
      <trkpt lat="45.34234" lon="6.47524">
        <ele>1831</ele>
        <time>2018-06-25T19:11:26Z</time>
      </trkpt>
      <trkpt lat="45.34242" lon="6.47522">
        <ele>1832</ele>
        <time>2018-06-25T19:12:26Z</time>
      </trkpt>
      <trkpt lat="45.34244" lon="6.47521">
        <ele>1832</ele>
        <time>2018-06-25T19:13:26Z</time>
      </trkpt>
      <trkpt lat="45.34245" lon="6.47523">
        <ele>1832</ele>
        <time>2018-06-25T19:14:26Z</time>
      </trkpt>
      <trkpt lat="45.3424" lon="6.47538">
        <ele>1834</ele>
        <time>2018-06-25T19:15:26Z</time>
      </trkpt>
      <trkpt lat="45.34238" lon="6.47547">
        <ele>1835</ele>
        <time>2018-06-25T19:16:26Z</time>
      </trkpt>
      <trkpt lat="45.3423" lon="6.47563">
        <ele>1838</ele>
        <time>2018-06-25T19:17:26Z</time>
      </trkpt>
      <trkpt lat="45.34221" lon="6.47575">
        <ele>1837</ele>
        <time>2018-06-25T19:18:26Z</time>
      </trkpt>
      <trkpt lat="45.34221" lon="6.47577">
        <ele>1838</ele>
        <time>2018-06-25T19:19:26Z</time>
      </trkpt>
      <trkpt lat="45.34228" lon="6.47583">
        <ele>1841</ele>
        <time>2018-06-25T19:20:26Z</time>
      </trkpt>
      <trkpt lat="45.34227" lon="6.47586">
        <ele>1852</ele>
        <time>2018-06-25T19:21:26Z</time>
      </trkpt>
      <trkpt lat="45.34217" lon="6.4763">
        <ele>1853</ele>
        <time>2018-06-25T19:22:26Z</time>
      </trkpt>
      <trkpt lat="45.34216" lon="6.47632">
        <ele>1853</ele>
        <time>2018-06-25T19:23:26Z</time>
      </trkpt>
      <trkpt lat="45.34215" lon="6.47633">
        <ele>1853</ele>
        <time>2018-06-25T19:24:26Z</time>
      </trkpt>
      <trkpt lat="45.34215" lon="6.47637">
        <ele>1853</ele>
        <time>2018-06-25T19:25:26Z</time>
      </trkpt>
      <trkpt lat="45.34215" lon="6.47641">
        <ele>1854</ele>
        <time>2018-06-25T19:26:26Z</time>
      </trkpt>
      <trkpt lat="45.34214" lon="6.47643">
        <ele>1854</ele>
        <time>2018-06-25T19:27:26Z</time>
      </trkpt>
      <trkpt lat="45.34207" lon="6.47653">
        <ele>1853</ele>
        <time>2018-06-25T19:28:26Z</time>
      </trkpt>
      <trkpt lat="45.34204" lon="6.47661">
        <ele>1853</ele>
        <time>2018-06-25T19:29:26Z</time>
      </trkpt>
      <trkpt lat="45.34204" lon="6.4767">
        <ele>1864</ele>
        <time>2018-06-25T19:30:26Z</time>
      </trkpt>
      <trkpt lat="45.34203" lon="6.47677">
        <ele>1865</ele>
        <time>2018-06-25T19:31:26Z</time>
      </trkpt>
      <trkpt lat="45.34199" lon="6.47683">
        <ele>1864</ele>
        <time>2018-06-25T19:32:26Z</time>
      </trkpt>
      <trkpt lat="45.34191" lon="6.4769">
        <ele>1864</ele>
        <time>2018-06-25T19:33:26Z</time>
      </trkpt>
      <trkpt lat="45.34183" lon="6.47695">
        <ele>1863</ele>
        <time>2018-06-25T19:34:26Z</time>
      </trkpt>
      <trkpt lat="45.34172" lon="6.477">
        <ele>1863</ele>
        <time>2018-06-25T19:35:26Z</time>
      </trkpt>
      <trkpt lat="45.34159" lon="6.47702">
        <ele>1855</ele>
        <time>2018-06-25T19:36:26Z</time>
      </trkpt>
      <trkpt lat="45.34147" lon="6.47708">
        <ele>1855</ele>
        <time>2018-06-25T19:37:26Z</time>
      </trkpt>
      <trkpt lat="45.34143" lon="6.47713">
        <ele>1856</ele>
        <time>2018-06-25T19:38:26Z</time>
      </trkpt>
      <trkpt lat="45.34136" lon="6.47727">
        <ele>1857</ele>
        <time>2018-06-25T19:39:26Z</time>
      </trkpt>
      <trkpt lat="45.34126" lon="6.47734">
        <ele>1857</ele>
        <time>2018-06-25T19:40:26Z</time>
      </trkpt>
      <trkpt lat="45.34117" lon="6.47739">
        <ele>1858</ele>
        <time>2018-06-25T19:41:26Z</time>
      </trkpt>
      <trkpt lat="45.34112" lon="6.47737">
        <ele>1857</ele>
        <time>2018-06-25T19:42:26Z</time>
      </trkpt>
      <trkpt lat="45.34106" lon="6.4774">
        <ele>1858</ele>
        <time>2018-06-25T19:43:26Z</time>
      </trkpt>
      <trkpt lat="45.34102" lon="6.47745">
        <ele>1858</ele>
        <time>2018-06-25T19:44:26Z</time>
      </trkpt>
      <trkpt lat="45.34092" lon="6.47745">
        <ele>1859</ele>
        <time>2018-06-25T19:45:26Z</time>
      </trkpt>
      <trkpt lat="45.34091" lon="6.47743">
        <ele>1859</ele>
        <time>2018-06-25T19:46:26Z</time>
      </trkpt>
      <trkpt lat="45.34083" lon="6.4773">
        <ele>1861</ele>
        <time>2018-06-25T19:47:26Z</time>
      </trkpt>
      <trkpt lat="45.34077" lon="6.47723">
        <ele>1861</ele>
        <time>2018-06-25T19:48:26Z</time>
      </trkpt>
      <trkpt lat="45.34069" lon="6.4772">
        <ele>1861</ele>
        <time>2018-06-25T19:49:26Z</time>
      </trkpt>
      <trkpt lat="45.34063" lon="6.47716">
        <ele>1862</ele>
        <time>2018-06-25T19:50:26Z</time>
      </trkpt>
      <trkpt lat="45.34058" lon="6.47718">
        <ele>1862</ele>
        <time>2018-06-25T19:51:26Z</time>
      </trkpt>
      <trkpt lat="45.34046" lon="6.47721">
        <ele>1864</ele>
        <time>2018-06-25T19:52:26Z</time>
      </trkpt>
      <trkpt lat="45.3404" lon="6.4772">
        <ele>1864</ele>
        <time>2018-06-25T19:53:26Z</time>
      </trkpt>
      <trkpt lat="45.34037" lon="6.47718">
        <ele>1865</ele>
        <time>2018-06-25T19:54:26Z</time>
      </trkpt>
      <trkpt lat="45.34033" lon="6.4771">
        <ele>1864</ele>
        <time>2018-06-25T19:55:26Z</time>
      </trkpt>
      <trkpt lat="45.34022" lon="6.47681">
        <ele>1864</ele>
        <time>2018-06-25T19:56:26Z</time>
      </trkpt>
      <trkpt lat="45.34012" lon="6.47672">
        <ele>1865</ele>
        <time>2018-06-25T19:57:26Z</time>
      </trkpt>
      <trkpt lat="45.33998" lon="6.47654">
        <ele>1872</ele>
        <time>2018-06-25T19:58:26Z</time>
      </trkpt>
      <trkpt lat="45.33992" lon="6.47648">
        <ele>1873</ele>
        <time>2018-06-25T19:59:26Z</time>
      </trkpt>
      <trkpt lat="45.33974" lon="6.47645">
        <ele>1877</ele>
        <time>2018-06-25T20:00:26Z</time>
      </trkpt>
      <trkpt lat="45.3397" lon="6.47642">
        <ele>1877</ele>
        <time>2018-06-25T20:01:26Z</time>
      </trkpt>
      <trkpt lat="45.33954" lon="6.47626">
        <ele>1880</ele>
        <time>2018-06-25T20:02:26Z</time>
      </trkpt>
      <trkpt lat="45.33941" lon="6.4761">
        <ele>1882</ele>
        <time>2018-06-25T20:03:26Z</time>
      </trkpt>
      <trkpt lat="45.33939" lon="6.47605">
        <ele>1882</ele>
        <time>2018-06-25T20:04:26Z</time>
      </trkpt>
      <trkpt lat="45.33938" lon="6.47599">
        <ele>1883</ele>
        <time>2018-06-25T20:05:26Z</time>
      </trkpt>
      <trkpt lat="45.33934" lon="6.47594">
        <ele>1884</ele>
        <time>2018-06-25T20:06:26Z</time>
      </trkpt>
      <trkpt lat="45.33929" lon="6.47592">
        <ele>1885</ele>
        <time>2018-06-25T20:07:26Z</time>
      </trkpt>
      <trkpt lat="45.33919" lon="6.47591">
        <ele>1887</ele>
        <time>2018-06-25T20:08:26Z</time>
      </trkpt>
      <trkpt lat="45.33911" lon="6.47585">
        <ele>1893</ele>
        <time>2018-06-25T20:09:26Z</time>
      </trkpt>
      <trkpt lat="45.339" lon="6.47576">
        <ele>1892</ele>
        <time>2018-06-25T20:10:26Z</time>
      </trkpt>
      <trkpt lat="45.33891" lon="6.47575">
        <ele>1893</ele>
        <time>2018-06-25T20:11:26Z</time>
      </trkpt>
      <trkpt lat="45.33882" lon="6.47578">
        <ele>1895</ele>
        <time>2018-06-25T20:12:26Z</time>
      </trkpt>
      <trkpt lat="45.33874" lon="6.47576">
        <ele>1896</ele>
        <time>2018-06-25T20:13:26Z</time>
      </trkpt>
      <trkpt lat="45.33865" lon="6.47573">
        <ele>1897</ele>
        <time>2018-06-25T20:14:26Z</time>
      </trkpt>
      <trkpt lat="45.33859" lon="6.47573">
        <ele>1898</ele>
        <time>2018-06-25T20:15:26Z</time>
      </trkpt>
      <trkpt lat="45.33853" lon="6.47572">
        <ele>1900</ele>
        <time>2018-06-25T20:16:26Z</time>
      </trkpt>
      <trkpt lat="45.33843" lon="6.47574">
        <ele>1902</ele>
        <time>2018-06-25T20:17:26Z</time>
      </trkpt>
      <trkpt lat="45.33837" lon="6.47573">
        <ele>1903</ele>
        <time>2018-06-25T20:18:26Z</time>
      </trkpt>
      <trkpt lat="45.33834" lon="6.47572">
        <ele>1903</ele>
        <time>2018-06-25T20:19:26Z</time>
      </trkpt>
      <trkpt lat="45.33829" lon="6.47567">
        <ele>1906</ele>
        <time>2018-06-25T20:20:26Z</time>
      </trkpt>
      <trkpt lat="45.33816" lon="6.47564">
        <ele>1906</ele>
        <time>2018-06-25T20:21:26Z</time>
      </trkpt>
      <trkpt lat="45.33812" lon="6.47566">
        <ele>1906</ele>
        <time>2018-06-25T20:22:26Z</time>
      </trkpt>
      <trkpt lat="45.33812" lon="6.47578">
        <ele>1907</ele>
        <time>2018-06-25T20:23:26Z</time>
      </trkpt>
      <trkpt lat="45.33809" lon="6.47584">
        <ele>1917</ele>
        <time>2018-06-25T20:24:26Z</time>
      </trkpt>
      <trkpt lat="45.33805" lon="6.47598">
        <ele>1919</ele>
        <time>2018-06-25T20:25:26Z</time>
      </trkpt>
      <trkpt lat="45.33801" lon="6.47605">
        <ele>1920</ele>
        <time>2018-06-25T20:26:26Z</time>
      </trkpt>
      <trkpt lat="45.33795" lon="6.47614">
        <ele>1922</ele>
        <time>2018-06-25T20:27:26Z</time>
      </trkpt>
      <trkpt lat="45.33793" lon="6.47624">
        <ele>1923</ele>
        <time>2018-06-25T20:28:26Z</time>
      </trkpt>
      <trkpt lat="45.3379" lon="6.4763">
        <ele>1924</ele>
        <time>2018-06-25T20:29:26Z</time>
      </trkpt>
      <trkpt lat="45.33786" lon="6.47633">
        <ele>1925</ele>
        <time>2018-06-25T20:30:26Z</time>
      </trkpt>
      <trkpt lat="45.33783" lon="6.47633">
        <ele>1926</ele>
        <time>2018-06-25T20:31:26Z</time>
      </trkpt>
      <trkpt lat="45.33766" lon="6.47626">
        <ele>1926</ele>
        <time>2018-06-25T20:32:26Z</time>
      </trkpt>
      <trkpt lat="45.33759" lon="6.47623">
        <ele>1926</ele>
        <time>2018-06-25T20:33:26Z</time>
      </trkpt>
      <trkpt lat="45.33752" lon="6.47622">
        <ele>1926</ele>
        <time>2018-06-25T20:34:26Z</time>
      </trkpt>
      <trkpt lat="45.33746" lon="6.47619">
        <ele>1939</ele>
        <time>2018-06-25T20:35:26Z</time>
      </trkpt>
      <trkpt lat="45.33742" lon="6.47616">
        <ele>1938</ele>
        <time>2018-06-25T20:36:26Z</time>
      </trkpt>
      <trkpt lat="45.33734" lon="6.47614">
        <ele>1939</ele>
        <time>2018-06-25T20:37:26Z</time>
      </trkpt>
      <trkpt lat="45.3373" lon="6.47612">
        <ele>1939</ele>
        <time>2018-06-25T20:38:26Z</time>
      </trkpt>
      <trkpt lat="45.33726" lon="6.47608">
        <ele>1938</ele>
        <time>2018-06-25T20:39:26Z</time>
      </trkpt>
      <trkpt lat="45.33697" lon="6.47559">
        <ele>1921</ele>
        <time>2018-06-25T20:40:26Z</time>
      </trkpt>
      <trkpt lat="45.33692" lon="6.47557">
        <ele>1922</ele>
        <time>2018-06-25T20:41:26Z</time>
      </trkpt>
      <trkpt lat="45.33687" lon="6.47554">
        <ele>1922</ele>
        <time>2018-06-25T20:42:26Z</time>
      </trkpt>
      <trkpt lat="45.33681" lon="6.47554">
        <ele>1923</ele>
        <time>2018-06-25T20:43:26Z</time>
      </trkpt>
      <trkpt lat="45.33674" lon="6.47555">
        <ele>1924</ele>
        <time>2018-06-25T20:44:26Z</time>
      </trkpt>
      <trkpt lat="45.33661" lon="6.47555">
        <ele>1934</ele>
        <time>2018-06-25T20:45:26Z</time>
      </trkpt>
      <trkpt lat="45.33643" lon="6.47552">
        <ele>1933</ele>
        <time>2018-06-25T20:46:26Z</time>
      </trkpt>
      <trkpt lat="45.33642" lon="6.47551">
        <ele>1933</ele>
        <time>2018-06-25T20:47:26Z</time>
      </trkpt>
      <trkpt lat="45.33637" lon="6.4755">
        <ele>1933</ele>
        <time>2018-06-25T20:48:26Z</time>
      </trkpt>
      <trkpt lat="45.3363" lon="6.47551">
        <ele>1933</ele>
        <time>2018-06-25T20:49:26Z</time>
      </trkpt>
      <trkpt lat="45.33627" lon="6.47552">
        <ele>1934</ele>
        <time>2018-06-25T20:50:26Z</time>
      </trkpt>
      <trkpt lat="45.33624" lon="6.47551">
        <ele>1934</ele>
        <time>2018-06-25T20:51:26Z</time>
      </trkpt>
      <trkpt lat="45.3362" lon="6.47551">
        <ele>1934</ele>
        <time>2018-06-25T20:52:26Z</time>
      </trkpt>
      <trkpt lat="45.33607" lon="6.47556">
        <ele>1936</ele>
        <time>2018-06-25T20:53:26Z</time>
      </trkpt>
      <trkpt lat="45.33593" lon="6.4756">
        <ele>1938</ele>
        <time>2018-06-25T20:54:26Z</time>
      </trkpt>
      <trkpt lat="45.33588" lon="6.47564">
        <ele>1939</ele>
        <time>2018-06-25T20:55:26Z</time>
      </trkpt>
      <trkpt lat="45.33585" lon="6.47568">
        <ele>1941</ele>
        <time>2018-06-25T20:56:26Z</time>
      </trkpt>
      <trkpt lat="45.33578" lon="6.47573">
        <ele>1945</ele>
        <time>2018-06-25T20:57:26Z</time>
      </trkpt>
      <trkpt lat="45.33576" lon="6.47573">
        <ele>1944</ele>
        <time>2018-06-25T20:58:26Z</time>
      </trkpt>
      <trkpt lat="45.33573" lon="6.4757">
        <ele>1944</ele>
        <time>2018-06-25T20:59:26Z</time>
      </trkpt>
      <trkpt lat="45.3357" lon="6.47569">
        <ele>1943</ele>
        <time>2018-06-25T21:00:26Z</time>
      </trkpt>
      <trkpt lat="45.33567" lon="6.47567">
        <ele>1943</ele>
        <time>2018-06-25T21:01:26Z</time>
      </trkpt>
      <trkpt lat="45.33562" lon="6.47565">
        <ele>1942</ele>
        <time>2018-06-25T21:02:26Z</time>
      </trkpt>
      <trkpt lat="45.33557" lon="6.47565">
        <ele>1942</ele>
        <time>2018-06-25T21:03:26Z</time>
      </trkpt>
      <trkpt lat="45.33552" lon="6.4756">
        <ele>1941</ele>
        <time>2018-06-25T21:04:26Z</time>
      </trkpt>
      <trkpt lat="45.33552" lon="6.47536">
        <ele>1938</ele>
        <time>2018-06-25T21:05:26Z</time>
      </trkpt>
      <trkpt lat="45.33549" lon="6.47512">
        <ele>1936</ele>
        <time>2018-06-25T21:06:26Z</time>
      </trkpt>
      <trkpt lat="45.33543" lon="6.47494">
        <ele>1922</ele>
        <time>2018-06-25T21:07:26Z</time>
      </trkpt>
      <trkpt lat="45.33537" lon="6.47488">
        <ele>1922</ele>
        <time>2018-06-25T21:08:26Z</time>
      </trkpt>
      <trkpt lat="45.33532" lon="6.47486">
        <ele>1922</ele>
        <time>2018-06-25T21:09:26Z</time>
      </trkpt>
      <trkpt lat="45.33528" lon="6.47486">
        <ele>1923</ele>
        <time>2018-06-25T21:10:26Z</time>
      </trkpt>
      <trkpt lat="45.33498" lon="6.47506">
        <ele>1935</ele>
        <time>2018-06-25T21:11:26Z</time>
      </trkpt>
      <trkpt lat="45.3349" lon="6.4751">
        <ele>1938</ele>
        <time>2018-06-25T21:12:26Z</time>
      </trkpt>
      <trkpt lat="45.33481" lon="6.4751">
        <ele>1939</ele>
        <time>2018-06-25T21:13:26Z</time>
      </trkpt>
      <trkpt lat="45.33473" lon="6.47514">
        <ele>1940</ele>
        <time>2018-06-25T21:14:26Z</time>
      </trkpt>
      <trkpt lat="45.33463" lon="6.47514">
        <ele>1940</ele>
        <time>2018-06-25T21:15:26Z</time>
      </trkpt>
      <trkpt lat="45.33455" lon="6.47515">
        <ele>1940</ele>
        <time>2018-06-25T21:16:26Z</time>
      </trkpt>
      <trkpt lat="45.33451" lon="6.47512">
        <ele>1940</ele>
        <time>2018-06-25T21:17:26Z</time>
      </trkpt>
      <trkpt lat="45.33448" lon="6.4751">
        <ele>1940</ele>
        <time>2018-06-25T21:18:26Z</time>
      </trkpt>
      <trkpt lat="45.33445" lon="6.47512">
        <ele>1940</ele>
        <time>2018-06-25T21:19:26Z</time>
      </trkpt>
      <trkpt lat="45.33436" lon="6.47514">
        <ele>1939</ele>
        <time>2018-06-25T21:20:26Z</time>
      </trkpt>
      <trkpt lat="45.33431" lon="6.47513">
        <ele>1938</ele>
        <time>2018-06-25T21:21:26Z</time>
      </trkpt>
      <trkpt lat="45.33427" lon="6.47528">
        <ele>1941</ele>
        <time>2018-06-25T21:22:26Z</time>
      </trkpt>
      <trkpt lat="45.33424" lon="6.47531">
        <ele>1942</ele>
        <time>2018-06-25T21:23:26Z</time>
      </trkpt>
      <trkpt lat="45.3342" lon="6.47533">
        <ele>1942</ele>
        <time>2018-06-25T21:24:26Z</time>
      </trkpt>
      <trkpt lat="45.33417" lon="6.47533">
        <ele>1942</ele>
        <time>2018-06-25T21:25:26Z</time>
      </trkpt>
      <trkpt lat="45.33415" lon="6.47532">
        <ele>1946</ele>
        <time>2018-06-25T21:26:26Z</time>
      </trkpt>
      <trkpt lat="45.33413" lon="6.47529">
        <ele>1945</ele>
        <time>2018-06-25T21:27:26Z</time>
      </trkpt>
      <trkpt lat="45.33413" lon="6.47524">
        <ele>1943</ele>
        <time>2018-06-25T21:28:26Z</time>
      </trkpt>
      <trkpt lat="45.33411" lon="6.4752">
        <ele>1942</ele>
        <time>2018-06-25T21:29:26Z</time>
      </trkpt>
      <trkpt lat="45.33405" lon="6.47519">
        <ele>1943</ele>
        <time>2018-06-25T21:30:26Z</time>
      </trkpt>
      <trkpt lat="45.334" lon="6.47524">
        <ele>1945</ele>
        <time>2018-06-25T21:31:26Z</time>
      </trkpt>
      <trkpt lat="45.33398" lon="6.47523">
        <ele>1945</ele>
        <time>2018-06-25T21:32:26Z</time>
      </trkpt>
      <trkpt lat="45.33395" lon="6.47515">
        <ele>1944</ele>
        <time>2018-06-25T21:33:26Z</time>
      </trkpt>
      <trkpt lat="45.33394" lon="6.47502">
        <ele>1942</ele>
        <time>2018-06-25T21:34:26Z</time>
      </trkpt>
      <trkpt lat="45.33392" lon="6.47496">
        <ele>1928</ele>
        <time>2018-06-25T21:35:26Z</time>
      </trkpt>
      <trkpt lat="45.33388" lon="6.4749">
        <ele>1928</ele>
        <time>2018-06-25T21:36:26Z</time>
      </trkpt>
      <trkpt lat="45.33384" lon="6.47483">
        <ele>1927</ele>
        <time>2018-06-25T21:37:26Z</time>
      </trkpt>
      <trkpt lat="45.33379" lon="6.4748">
        <ele>1927</ele>
        <time>2018-06-25T21:38:26Z</time>
      </trkpt>
      <trkpt lat="45.33376" lon="6.47479">
        <ele>1927</ele>
        <time>2018-06-25T21:39:26Z</time>
      </trkpt>
      <trkpt lat="45.33374" lon="6.47475">
        <ele>1927</ele>
        <time>2018-06-25T21:40:26Z</time>
      </trkpt>
      <trkpt lat="45.3337" lon="6.47468">
        <ele>1926</ele>
        <time>2018-06-25T21:41:26Z</time>
      </trkpt>
      <trkpt lat="45.33366" lon="6.47466">
        <ele>1926</ele>
        <time>2018-06-25T21:42:26Z</time>
      </trkpt>
      <trkpt lat="45.3336" lon="6.47465">
        <ele>1926</ele>
        <time>2018-06-25T21:43:26Z</time>
      </trkpt>
      <trkpt lat="45.33351" lon="6.47465">
        <ele>1927</ele>
        <time>2018-06-25T21:44:26Z</time>
      </trkpt>
      <trkpt lat="45.33347" lon="6.47464">
        <ele>1927</ele>
        <time>2018-06-25T21:45:26Z</time>
      </trkpt>
      <trkpt lat="45.33344" lon="6.47466">
        <ele>1928</ele>
        <time>2018-06-25T21:46:26Z</time>
      </trkpt>
      <trkpt lat="45.33337" lon="6.4747">
        <ele>1929</ele>
        <time>2018-06-25T21:47:26Z</time>
      </trkpt>
      <trkpt lat="45.33326" lon="6.47471">
        <ele>1931</ele>
        <time>2018-06-25T21:48:26Z</time>
      </trkpt>
      <trkpt lat="45.33316" lon="6.47472">
        <ele>1931</ele>
        <time>2018-06-25T21:49:26Z</time>
      </trkpt>
      <trkpt lat="45.3331" lon="6.47475">
        <ele>1931</ele>
        <time>2018-06-25T21:50:26Z</time>
      </trkpt>
      <trkpt lat="45.33298" lon="6.47483">
        <ele>1931</ele>
        <time>2018-06-25T21:51:26Z</time>
      </trkpt>
      <trkpt lat="45.33293" lon="6.47485">
        <ele>1932</ele>
        <time>2018-06-25T21:52:26Z</time>
      </trkpt>
      <trkpt lat="45.33283" lon="6.47484">
        <ele>1931</ele>
        <time>2018-06-25T21:53:26Z</time>
      </trkpt>
      <trkpt lat="45.33268" lon="6.47478">
        <ele>1931</ele>
        <time>2018-06-25T21:54:26Z</time>
      </trkpt>
      <trkpt lat="45.3326" lon="6.47479">
        <ele>1932</ele>
        <time>2018-06-25T21:55:26Z</time>
      </trkpt>
      <trkpt lat="45.33256" lon="6.47482">
        <ele>1933</ele>
        <time>2018-06-25T21:56:26Z</time>
      </trkpt>
      <trkpt lat="45.33245" lon="6.47489">
        <ele>1938</ele>
        <time>2018-06-25T21:57:26Z</time>
      </trkpt>
      <trkpt lat="45.33236" lon="6.47491">
        <ele>1938</ele>
        <time>2018-06-25T21:58:26Z</time>
      </trkpt>
      <trkpt lat="45.33233" lon="6.47489">
        <ele>1938</ele>
        <time>2018-06-25T21:59:26Z</time>
      </trkpt>
      <trkpt lat="45.33218" lon="6.47486">
        <ele>1939</ele>
        <time>2018-06-25T22:00:26Z</time>
      </trkpt>
      <trkpt lat="45.33215" lon="6.47487">
        <ele>1940</ele>
        <time>2018-06-25T22:01:26Z</time>
      </trkpt>
      <trkpt lat="45.33212" lon="6.47486">
        <ele>1940</ele>
        <time>2018-06-25T22:02:26Z</time>
      </trkpt>
      <trkpt lat="45.33209" lon="6.47484">
        <ele>1940</ele>
        <time>2018-06-25T22:03:26Z</time>
      </trkpt>
      <trkpt lat="45.33204" lon="6.47483">
        <ele>1941</ele>
        <time>2018-06-25T22:04:26Z</time>
      </trkpt>
      <trkpt lat="45.33201" lon="6.4748">
        <ele>1941</ele>
        <time>2018-06-25T22:05:26Z</time>
      </trkpt>
      <trkpt lat="45.33198" lon="6.47472">
        <ele>1941</ele>
        <time>2018-06-25T22:06:26Z</time>
      </trkpt>
      <trkpt lat="45.33196" lon="6.47458">
        <ele>1939</ele>
        <time>2018-06-25T22:07:26Z</time>
      </trkpt>
      <trkpt lat="45.33189" lon="6.47453">
        <ele>1939</ele>
        <time>2018-06-25T22:08:26Z</time>
      </trkpt>
      <trkpt lat="45.33182" lon="6.47445">
        <ele>1939</ele>
        <time>2018-06-25T22:09:26Z</time>
      </trkpt>
      <trkpt lat="45.33169" lon="6.47441">
        <ele>1939</ele>
        <time>2018-06-25T22:10:26Z</time>
      </trkpt>
      <trkpt lat="45.33156" lon="6.47439">
        <ele>1946</ele>
        <time>2018-06-25T22:11:26Z</time>
      </trkpt>
      <trkpt lat="45.33151" lon="6.47434">
        <ele>1945</ele>
        <time>2018-06-25T22:12:26Z</time>
      </trkpt>
      <trkpt lat="45.33145" lon="6.47433">
        <ele>1946</ele>
        <time>2018-06-25T22:13:26Z</time>
      </trkpt>
      <trkpt lat="45.33142" lon="6.47437">
        <ele>1947</ele>
        <time>2018-06-25T22:14:26Z</time>
      </trkpt>
      <trkpt lat="45.33138" lon="6.47439">
        <ele>1947</ele>
        <time>2018-06-25T22:15:26Z</time>
      </trkpt>
      <trkpt lat="45.33134" lon="6.47437">
        <ele>1947</ele>
        <time>2018-06-25T22:16:26Z</time>
      </trkpt>
      <trkpt lat="45.33131" lon="6.47437">
        <ele>1947</ele>
        <time>2018-06-25T22:17:26Z</time>
      </trkpt>
      <trkpt lat="45.33128" lon="6.4744">
        <ele>1948</ele>
        <time>2018-06-25T22:18:26Z</time>
      </trkpt>
      <trkpt lat="45.33119" lon="6.47446">
        <ele>1948</ele>
        <time>2018-06-25T22:19:26Z</time>
      </trkpt>
      <trkpt lat="45.33119" lon="6.4745">
        <ele>1949</ele>
        <time>2018-06-25T22:20:26Z</time>
      </trkpt>
      <trkpt lat="45.33123" lon="6.47455">
        <ele>1949</ele>
        <time>2018-06-25T22:21:26Z</time>
      </trkpt>
      <trkpt lat="45.33127" lon="6.47457">
        <ele>1950</ele>
        <time>2018-06-25T22:22:26Z</time>
      </trkpt>
      <trkpt lat="45.3313" lon="6.47463">
        <ele>1950</ele>
        <time>2018-06-25T22:23:26Z</time>
      </trkpt>
      <trkpt lat="45.3313" lon="6.47469">
        <ele>1951</ele>
        <time>2018-06-25T22:24:26Z</time>
      </trkpt>
      <trkpt lat="45.33128" lon="6.47481">
        <ele>1952</ele>
        <time>2018-06-25T22:25:26Z</time>
      </trkpt>
      <trkpt lat="45.33126" lon="6.47484">
        <ele>1953</ele>
        <time>2018-06-25T22:26:26Z</time>
      </trkpt>
      <trkpt lat="45.33123" lon="6.47488">
        <ele>1953</ele>
        <time>2018-06-25T22:27:26Z</time>
      </trkpt>
      <trkpt lat="45.33124" lon="6.47492">
        <ele>1953</ele>
        <time>2018-06-25T22:28:26Z</time>
      </trkpt>
      <trkpt lat="45.33127" lon="6.47497">
        <ele>1953</ele>
        <time>2018-06-25T22:29:26Z</time>
      </trkpt>
      <trkpt lat="45.33126" lon="6.475">
        <ele>1954</ele>
        <time>2018-06-25T22:30:26Z</time>
      </trkpt>
      <trkpt lat="45.33124" lon="6.47501">
        <ele>1965</ele>
        <time>2018-06-25T22:31:26Z</time>
      </trkpt>
      <trkpt lat="45.3312" lon="6.475">
        <ele>1954</ele>
        <time>2018-06-25T22:32:26Z</time>
      </trkpt>
      <trkpt lat="45.33118" lon="6.47503">
        <ele>1966</ele>
        <time>2018-06-25T22:33:26Z</time>
      </trkpt>
      <trkpt lat="45.33121" lon="6.47511">
        <ele>1966</ele>
        <time>2018-06-25T22:34:26Z</time>
      </trkpt>
      <trkpt lat="45.33118" lon="6.47512">
        <ele>1966</ele>
        <time>2018-06-25T22:35:26Z</time>
      </trkpt>
      <trkpt lat="45.33114" lon="6.47514">
        <ele>1966</ele>
        <time>2018-06-25T22:36:26Z</time>
      </trkpt>
      <trkpt lat="45.33113" lon="6.47517">
        <ele>1967</ele>
        <time>2018-06-25T22:37:26Z</time>
      </trkpt>
      <trkpt lat="45.33117" lon="6.47523">
        <ele>1967</ele>
        <time>2018-06-25T22:38:26Z</time>
      </trkpt>
      <trkpt lat="45.33118" lon="6.47528">
        <ele>1968</ele>
        <time>2018-06-25T22:39:26Z</time>
      </trkpt>
      <trkpt lat="45.33117" lon="6.47535">
        <ele>1968</ele>
        <time>2018-06-25T22:40:26Z</time>
      </trkpt>
      <trkpt lat="45.33116" lon="6.47536">
        <ele>1968</ele>
        <time>2018-06-25T22:41:26Z</time>
      </trkpt>
      <trkpt lat="45.33112" lon="6.47536">
        <ele>1969</ele>
        <time>2018-06-25T22:42:26Z</time>
      </trkpt>
      <trkpt lat="45.33109" lon="6.47537">
        <ele>1969</ele>
        <time>2018-06-25T22:43:26Z</time>
      </trkpt>
      <trkpt lat="45.33107" lon="6.47541">
        <ele>1969</ele>
        <time>2018-06-25T22:44:26Z</time>
      </trkpt>
      <trkpt lat="45.33107" lon="6.47547">
        <ele>1970</ele>
        <time>2018-06-25T22:45:26Z</time>
      </trkpt>
      <trkpt lat="45.33107" lon="6.47558">
        <ele>1971</ele>
        <time>2018-06-25T22:46:26Z</time>
      </trkpt>
      <trkpt lat="45.33105" lon="6.47558">
        <ele>1971</ele>
        <time>2018-06-25T22:47:26Z</time>
      </trkpt>
      <trkpt lat="45.33101" lon="6.47559">
        <ele>1972</ele>
        <time>2018-06-25T22:48:26Z</time>
      </trkpt>
      <trkpt lat="45.331" lon="6.47562">
        <ele>1972</ele>
        <time>2018-06-25T22:49:26Z</time>
      </trkpt>
      <trkpt lat="45.33099" lon="6.47566">
        <ele>1973</ele>
        <time>2018-06-25T22:50:26Z</time>
      </trkpt>
      <trkpt lat="45.33093" lon="6.47571">
        <ele>1975</ele>
        <time>2018-06-25T22:51:26Z</time>
      </trkpt>
      <trkpt lat="45.33076" lon="6.47585">
        <ele>1983</ele>
        <time>2018-06-25T22:52:26Z</time>
      </trkpt>
      <trkpt lat="45.33072" lon="6.47591">
        <ele>1985</ele>
        <time>2018-06-25T22:53:26Z</time>
      </trkpt>
      <trkpt lat="45.33055" lon="6.4761">
        <ele>1989</ele>
        <time>2018-06-25T22:54:26Z</time>
      </trkpt>
      <trkpt lat="45.33061" lon="6.4761">
        <ele>1989</ele>
        <time>2018-06-25T22:55:26Z</time>
      </trkpt>
      <trkpt lat="45.33068" lon="6.47614">
        <ele>1990</ele>
        <time>2018-06-25T22:56:26Z</time>
      </trkpt>
      <trkpt lat="45.33067" lon="6.47617">
        <ele>1990</ele>
        <time>2018-06-25T22:57:26Z</time>
      </trkpt>
      <trkpt lat="45.33062" lon="6.47624">
        <ele>1992</ele>
        <time>2018-06-25T22:58:26Z</time>
      </trkpt>
      <trkpt lat="45.33054" lon="6.47628">
        <ele>1992</ele>
        <time>2018-06-25T22:59:26Z</time>
      </trkpt>
      <trkpt lat="45.33041" lon="6.47642">
        <ele>1993</ele>
        <time>2018-06-25T23:00:26Z</time>
      </trkpt>
      <trkpt lat="45.33035" lon="6.47651">
        <ele>1994</ele>
        <time>2018-06-25T23:01:26Z</time>
      </trkpt>
      <trkpt lat="45.33029" lon="6.47657">
        <ele>1995</ele>
        <time>2018-06-25T23:02:26Z</time>
      </trkpt>
      <trkpt lat="45.33023" lon="6.47658">
        <ele>1995</ele>
        <time>2018-06-25T23:03:26Z</time>
      </trkpt>
      <trkpt lat="45.33022" lon="6.47661">
        <ele>1995</ele>
        <time>2018-06-25T23:04:26Z</time>
      </trkpt>
      <trkpt lat="45.33023" lon="6.47667">
        <ele>2009</ele>
        <time>2018-06-25T23:05:26Z</time>
      </trkpt>
      <trkpt lat="45.33027" lon="6.47675">
        <ele>2010</ele>
        <time>2018-06-25T23:06:26Z</time>
      </trkpt>
      <trkpt lat="45.33032" lon="6.4768">
        <ele>2012</ele>
        <time>2018-06-25T23:07:26Z</time>
      </trkpt>
      <trkpt lat="45.33028" lon="6.47684">
        <ele>2012</ele>
        <time>2018-06-25T23:08:26Z</time>
      </trkpt>
      <trkpt lat="45.33021" lon="6.47691">
        <ele>2012</ele>
        <time>2018-06-25T23:09:26Z</time>
      </trkpt>
      <trkpt lat="45.33016" lon="6.477">
        <ele>2014</ele>
        <time>2018-06-25T23:10:26Z</time>
      </trkpt>
      <trkpt lat="45.33017" lon="6.47703">
        <ele>2014</ele>
        <time>2018-06-25T23:11:26Z</time>
      </trkpt>
      <trkpt lat="45.33008" lon="6.4771">
        <ele>2016</ele>
        <time>2018-06-25T23:12:26Z</time>
      </trkpt>
      <trkpt lat="45.33003" lon="6.47714">
        <ele>2016</ele>
        <time>2018-06-25T23:13:26Z</time>
      </trkpt>
      <trkpt lat="45.3301" lon="6.47718">
        <ele>2017</ele>
        <time>2018-06-25T23:14:26Z</time>
      </trkpt>
      <trkpt lat="45.3302" lon="6.47719">
        <ele>2018</ele>
        <time>2018-06-25T23:15:26Z</time>
      </trkpt>
      <trkpt lat="45.33025" lon="6.47721">
        <ele>2018</ele>
        <time>2018-06-25T23:16:26Z</time>
      </trkpt>
      <trkpt lat="45.33031" lon="6.47724">
        <ele>2019</ele>
        <time>2018-06-25T23:17:26Z</time>
      </trkpt>
      <trkpt lat="45.33047" lon="6.47735">
        <ele>2021</ele>
        <time>2018-06-25T23:18:26Z</time>
      </trkpt>
      <trkpt lat="45.33036" lon="6.47743">
        <ele>2021</ele>
        <time>2018-06-25T23:19:26Z</time>
      </trkpt>
      <trkpt lat="45.33019" lon="6.47763">
        <ele>2033</ele>
        <time>2018-06-25T23:20:26Z</time>
      </trkpt>
      <trkpt lat="45.33023" lon="6.47763">
        <ele>2034</ele>
        <time>2018-06-25T23:21:26Z</time>
      </trkpt>
      <trkpt lat="45.33028" lon="6.47761">
        <ele>2034</ele>
        <time>2018-06-25T23:22:26Z</time>
      </trkpt>
      <trkpt lat="45.33031" lon="6.47762">
        <ele>2035</ele>
        <time>2018-06-25T23:23:26Z</time>
      </trkpt>
      <trkpt lat="45.33029" lon="6.47765">
        <ele>2035</ele>
        <time>2018-06-25T23:24:26Z</time>
      </trkpt>
      <trkpt lat="45.33025" lon="6.47772">
        <ele>2035</ele>
        <time>2018-06-25T23:25:26Z</time>
      </trkpt>
      <trkpt lat="45.33024" lon="6.47779">
        <ele>2036</ele>
        <time>2018-06-25T23:26:26Z</time>
      </trkpt>
      <trkpt lat="45.33022" lon="6.47791">
        <ele>2038</ele>
        <time>2018-06-25T23:27:26Z</time>
      </trkpt>
      <trkpt lat="45.33022" lon="6.47802">
        <ele>2039</ele>
        <time>2018-06-25T23:28:26Z</time>
      </trkpt>
      <trkpt lat="45.33023" lon="6.47809">
        <ele>2040</ele>
        <time>2018-06-25T23:29:26Z</time>
      </trkpt>
      <trkpt lat="45.33022" lon="6.47819">
        <ele>2041</ele>
        <time>2018-06-25T23:30:26Z</time>
      </trkpt>
      <trkpt lat="45.3302" lon="6.47828">
        <ele>2041</ele>
        <time>2018-06-25T23:31:26Z</time>
      </trkpt>
      <trkpt lat="45.33012" lon="6.47854">
        <ele>2054</ele>
        <time>2018-06-25T23:32:26Z</time>
      </trkpt>
      <trkpt lat="45.33009" lon="6.47859">
        <ele>2055</ele>
        <time>2018-06-25T23:33:26Z</time>
      </trkpt>
      <trkpt lat="45.33007" lon="6.47865">
        <ele>2056</ele>
        <time>2018-06-25T23:34:26Z</time>
      </trkpt>
      <trkpt lat="45.33007" lon="6.4787">
        <ele>2057</ele>
        <time>2018-06-25T23:35:26Z</time>
      </trkpt>
      <trkpt lat="45.33004" lon="6.47873">
        <ele>2057</ele>
        <time>2018-06-25T23:36:26Z</time>
      </trkpt>
      <trkpt lat="45.32999" lon="6.47887">
        <ele>2053</ele>
        <time>2018-06-25T23:37:26Z</time>
      </trkpt>
      <trkpt lat="45.32996" lon="6.47892">
        <ele>2054</ele>
        <time>2018-06-25T23:38:26Z</time>
      </trkpt>
      <trkpt lat="45.3299" lon="6.47901">
        <ele>2056</ele>
        <time>2018-06-25T23:39:26Z</time>
      </trkpt>
      <trkpt lat="45.32985" lon="6.47906">
        <ele>2056</ele>
        <time>2018-06-25T23:40:26Z</time>
      </trkpt>
      <trkpt lat="45.32978" lon="6.47909">
        <ele>2055</ele>
        <time>2018-06-25T23:41:26Z</time>
      </trkpt>
      <trkpt lat="45.32974" lon="6.47915">
        <ele>2055</ele>
        <time>2018-06-25T23:42:26Z</time>
      </trkpt>
      <trkpt lat="45.32963" lon="6.47927">
        <ele>2070</ele>
        <time>2018-06-25T23:43:26Z</time>
      </trkpt>
      <trkpt lat="45.32961" lon="6.47934">
        <ele>2071</ele>
        <time>2018-06-25T23:44:26Z</time>
      </trkpt>
      <trkpt lat="45.32958" lon="6.47939">
        <ele>2071</ele>
        <time>2018-06-25T23:45:26Z</time>
      </trkpt>
      <trkpt lat="45.32954" lon="6.47942">
        <ele>2072</ele>
        <time>2018-06-25T23:46:26Z</time>
      </trkpt>
      <trkpt lat="45.32949" lon="6.47947">
        <ele>2072</ele>
        <time>2018-06-25T23:47:26Z</time>
      </trkpt>
      <trkpt lat="45.32942" lon="6.47952">
        <ele>2072</ele>
        <time>2018-06-25T23:48:26Z</time>
      </trkpt>
      <trkpt lat="45.3294" lon="6.4795">
        <ele>2072</ele>
        <time>2018-06-25T23:49:26Z</time>
      </trkpt>
      <trkpt lat="45.32942" lon="6.47942">
        <ele>2071</ele>
        <time>2018-06-25T23:50:26Z</time>
      </trkpt>
      <trkpt lat="45.3294" lon="6.47938">
        <ele>2070</ele>
        <time>2018-06-25T23:51:26Z</time>
      </trkpt>
      <trkpt lat="45.32935" lon="6.47938">
        <ele>2069</ele>
        <time>2018-06-25T23:52:26Z</time>
      </trkpt>
      <trkpt lat="45.32932" lon="6.4794">
        <ele>2069</ele>
        <time>2018-06-25T23:53:26Z</time>
      </trkpt>
      <trkpt lat="45.32928" lon="6.47946">
        <ele>2070</ele>
        <time>2018-06-25T23:54:26Z</time>
      </trkpt>
      <trkpt lat="45.32927" lon="6.47954">
        <ele>2072</ele>
        <time>2018-06-25T23:55:26Z</time>
      </trkpt>
      <trkpt lat="45.32924" lon="6.4796">
        <ele>2073</ele>
        <time>2018-06-25T23:56:26Z</time>
      </trkpt>
      <trkpt lat="45.32921" lon="6.47964">
        <ele>2074</ele>
        <time>2018-06-25T23:57:26Z</time>
      </trkpt>
      <trkpt lat="45.32917" lon="6.47966">
        <ele>2074</ele>
        <time>2018-06-25T23:58:26Z</time>
      </trkpt>
      <trkpt lat="45.32915" lon="6.47965">
        <ele>2072</ele>
        <time>2018-06-25T23:59:26Z</time>
      </trkpt>
      <trkpt lat="45.32914" lon="6.47968">
        <ele>2073</ele>
        <time>2018-06-26T00:00:26Z</time>
      </trkpt>
      <trkpt lat="45.32914" lon="6.47973">
        <ele>2074</ele>
        <time>2018-06-26T00:01:26Z</time>
      </trkpt>
      <trkpt lat="45.32907" lon="6.47974">
        <ele>2074</ele>
        <time>2018-06-26T00:02:26Z</time>
      </trkpt>
      <trkpt lat="45.32898" lon="6.47965">
        <ele>2072</ele>
        <time>2018-06-26T00:03:26Z</time>
      </trkpt>
      <trkpt lat="45.32899" lon="6.47971">
        <ele>2073</ele>
        <time>2018-06-26T00:04:26Z</time>
      </trkpt>
      <trkpt lat="45.32886" lon="6.47979">
        <ele>2074</ele>
        <time>2018-06-26T00:05:26Z</time>
      </trkpt>
      <trkpt lat="45.32882" lon="6.47978">
        <ele>2074</ele>
        <time>2018-06-26T00:06:26Z</time>
      </trkpt>
      <trkpt lat="45.32874" lon="6.47977">
        <ele>2075</ele>
        <time>2018-06-26T00:07:26Z</time>
      </trkpt>
      <trkpt lat="45.32869" lon="6.4798">
        <ele>2075</ele>
        <time>2018-06-26T00:08:26Z</time>
      </trkpt>
      <trkpt lat="45.32865" lon="6.47985">
        <ele>2077</ele>
        <time>2018-06-26T00:09:26Z</time>
      </trkpt>
      <trkpt lat="45.32859" lon="6.47996">
        <ele>2079</ele>
        <time>2018-06-26T00:10:26Z</time>
      </trkpt>
      <trkpt lat="45.32854" lon="6.48001">
        <ele>2096</ele>
        <time>2018-06-26T00:11:26Z</time>
      </trkpt>
      <trkpt lat="45.3285" lon="6.48001">
        <ele>2096</ele>
        <time>2018-06-26T00:12:26Z</time>
      </trkpt>
      <trkpt lat="45.32847" lon="6.48005">
        <ele>2095</ele>
        <time>2018-06-26T00:13:26Z</time>
      </trkpt>
      <trkpt lat="45.32844" lon="6.48012">
        <ele>2096</ele>
        <time>2018-06-26T00:14:26Z</time>
      </trkpt>
      <trkpt lat="45.32841" lon="6.48013">
        <ele>2096</ele>
        <time>2018-06-26T00:15:26Z</time>
      </trkpt>
      <trkpt lat="45.32836" lon="6.48015">
        <ele>2096</ele>
        <time>2018-06-26T00:16:26Z</time>
      </trkpt>
      <trkpt lat="45.32832" lon="6.48021">
        <ele>2104</ele>
        <time>2018-06-26T00:17:26Z</time>
      </trkpt>
      <trkpt lat="45.32825" lon="6.48035">
        <ele>2110</ele>
        <time>2018-06-26T00:18:26Z</time>
      </trkpt>
      <trkpt lat="45.32821" lon="6.48039">
        <ele>2111</ele>
        <time>2018-06-26T00:19:26Z</time>
      </trkpt>
      <trkpt lat="45.32817" lon="6.48039">
        <ele>2112</ele>
        <time>2018-06-26T00:20:26Z</time>
      </trkpt>
      <trkpt lat="45.32814" lon="6.48036">
        <ele>2111</ele>
        <time>2018-06-26T00:21:26Z</time>
      </trkpt>
      <trkpt lat="45.32813" lon="6.4803">
        <ele>2110</ele>
        <time>2018-06-26T00:22:26Z</time>
      </trkpt>
      <trkpt lat="45.32814" lon="6.48007">
        <ele>2104</ele>
        <time>2018-06-26T00:23:26Z</time>
      </trkpt>
      <trkpt lat="45.32811" lon="6.48006">
        <ele>2105</ele>
        <time>2018-06-26T00:24:26Z</time>
      </trkpt>
      <trkpt lat="45.32808" lon="6.48007">
        <ele>2106</ele>
        <time>2018-06-26T00:25:26Z</time>
      </trkpt>
      <trkpt lat="45.328" lon="6.4802">
        <ele>2111</ele>
        <time>2018-06-26T00:26:26Z</time>
      </trkpt>
      <trkpt lat="45.32795" lon="6.48022">
        <ele>2112</ele>
        <time>2018-06-26T00:27:26Z</time>
      </trkpt>
      <trkpt lat="45.32784" lon="6.48031">
        <ele>2115</ele>
        <time>2018-06-26T00:28:26Z</time>
      </trkpt>
      <trkpt lat="45.32779" lon="6.48033">
        <ele>2116</ele>
        <time>2018-06-26T00:29:26Z</time>
      </trkpt>
      <trkpt lat="45.32774" lon="6.48033">
        <ele>2117</ele>
        <time>2018-06-26T00:30:26Z</time>
      </trkpt>
      <trkpt lat="45.32771" lon="6.48038">
        <ele>2118</ele>
        <time>2018-06-26T00:31:26Z</time>
      </trkpt>
      <trkpt lat="45.32764" lon="6.4804">
        <ele>2118</ele>
        <time>2018-06-26T00:32:26Z</time>
      </trkpt>
      <trkpt lat="45.32761" lon="6.48036">
        <ele>2118</ele>
        <time>2018-06-26T00:33:26Z</time>
      </trkpt>
      <trkpt lat="45.32759" lon="6.48038">
        <ele>2119</ele>
        <time>2018-06-26T00:34:26Z</time>
      </trkpt>
      <trkpt lat="45.32754" lon="6.4804">
        <ele>2119</ele>
        <time>2018-06-26T00:35:26Z</time>
      </trkpt>
      <trkpt lat="45.3275" lon="6.4804">
        <ele>2119</ele>
        <time>2018-06-26T00:36:26Z</time>
      </trkpt>
      <trkpt lat="45.32746" lon="6.48041">
        <ele>2133</ele>
        <time>2018-06-26T00:37:26Z</time>
      </trkpt>
      <trkpt lat="45.32745" lon="6.48044">
        <ele>2133</ele>
        <time>2018-06-26T00:38:26Z</time>
      </trkpt>
      <trkpt lat="45.32743" lon="6.48051">
        <ele>2134</ele>
        <time>2018-06-26T00:39:26Z</time>
      </trkpt>
      <trkpt lat="45.32741" lon="6.48048">
        <ele>2134</ele>
        <time>2018-06-26T00:40:26Z</time>
      </trkpt>
      <trkpt lat="45.3274" lon="6.48044">
        <ele>2133</ele>
        <time>2018-06-26T00:41:26Z</time>
      </trkpt>
      <trkpt lat="45.3274" lon="6.4804">
        <ele>2133</ele>
        <time>2018-06-26T00:42:26Z</time>
      </trkpt>
      <trkpt lat="45.32741" lon="6.48034">
        <ele>2132</ele>
        <time>2018-06-26T00:43:26Z</time>
      </trkpt>
      <trkpt lat="45.3274" lon="6.48031">
        <ele>2131</ele>
        <time>2018-06-26T00:44:26Z</time>
      </trkpt>
      <trkpt lat="45.3274" lon="6.48028">
        <ele>2130</ele>
        <time>2018-06-26T00:45:26Z</time>
      </trkpt>
      <trkpt lat="45.32744" lon="6.48024">
        <ele>2129</ele>
        <time>2018-06-26T00:46:26Z</time>
      </trkpt>
      <trkpt lat="45.32752" lon="6.4801">
        <ele>2117</ele>
        <time>2018-06-26T00:47:26Z</time>
      </trkpt>
      <trkpt lat="45.32752" lon="6.48005">
        <ele>2117</ele>
        <time>2018-06-26T00:48:26Z</time>
      </trkpt>
      <trkpt lat="45.32751" lon="6.47999">
        <ele>2115</ele>
        <time>2018-06-26T00:49:26Z</time>
      </trkpt>
      <trkpt lat="45.32748" lon="6.47994">
        <ele>2114</ele>
        <time>2018-06-26T00:50:26Z</time>
      </trkpt>
      <trkpt lat="45.32744" lon="6.47991">
        <ele>2113</ele>
        <time>2018-06-26T00:51:26Z</time>
      </trkpt>
      <trkpt lat="45.3274" lon="6.47991">
        <ele>2112</ele>
        <time>2018-06-26T00:52:26Z</time>
      </trkpt>
      <trkpt lat="45.32737" lon="6.47993">
        <ele>2112</ele>
        <time>2018-06-26T00:53:26Z</time>
      </trkpt>
      <trkpt lat="45.32733" lon="6.47994">
        <ele>2111</ele>
        <time>2018-06-26T00:54:26Z</time>
      </trkpt>
      <trkpt lat="45.32729" lon="6.47999">
        <ele>2111</ele>
        <time>2018-06-26T00:55:26Z</time>
      </trkpt>
      <trkpt lat="45.32725" lon="6.48001">
        <ele>2128</ele>
        <time>2018-06-26T00:56:26Z</time>
      </trkpt>
      <trkpt lat="45.32719" lon="6.48003">
        <ele>2130</ele>
        <time>2018-06-26T00:57:26Z</time>
      </trkpt>
      <trkpt lat="45.32709" lon="6.48003">
        <ele>2132</ele>
        <time>2018-06-26T00:58:26Z</time>
      </trkpt>
      <trkpt lat="45.32704" lon="6.48006">
        <ele>2132</ele>
        <time>2018-06-26T00:59:26Z</time>
      </trkpt>
      <trkpt lat="45.327" lon="6.48008">
        <ele>2133</ele>
        <time>2018-06-26T01:00:26Z</time>
      </trkpt>
      <trkpt lat="45.32686" lon="6.48024">
        <ele>2135</ele>
        <time>2018-06-26T01:01:26Z</time>
      </trkpt>
      <trkpt lat="45.32677" lon="6.48025">
        <ele>2136</ele>
        <time>2018-06-26T01:02:26Z</time>
      </trkpt>
      <trkpt lat="45.32672" lon="6.48029">
        <ele>2137</ele>
        <time>2018-06-26T01:03:26Z</time>
      </trkpt>
      <trkpt lat="45.32666" lon="6.48035">
        <ele>2148</ele>
        <time>2018-06-26T01:04:26Z</time>
      </trkpt>
      <trkpt lat="45.32661" lon="6.48044">
        <ele>2151</ele>
        <time>2018-06-26T01:05:26Z</time>
      </trkpt>
      <trkpt lat="45.32655" lon="6.48048">
        <ele>2152</ele>
        <time>2018-06-26T01:06:26Z</time>
      </trkpt>
      <trkpt lat="45.32646" lon="6.48055">
        <ele>2154</ele>
        <time>2018-06-26T01:07:26Z</time>
      </trkpt>
      <trkpt lat="45.32641" lon="6.48061">
        <ele>2155</ele>
        <time>2018-06-26T01:08:26Z</time>
      </trkpt>
      <trkpt lat="45.3264" lon="6.48094">
        <ele>2171</ele>
        <time>2018-06-26T01:09:26Z</time>
      </trkpt>
      <trkpt lat="45.32637" lon="6.48102">
        <ele>2173</ele>
        <time>2018-06-26T01:10:26Z</time>
      </trkpt>
      <trkpt lat="45.32634" lon="6.48114">
        <ele>2174</ele>
        <time>2018-06-26T01:11:26Z</time>
      </trkpt>
      <trkpt lat="45.32632" lon="6.48119">
        <ele>2175</ele>
        <time>2018-06-26T01:12:26Z</time>
      </trkpt>
      <trkpt lat="45.3262" lon="6.48128">
        <ele>2177</ele>
        <time>2018-06-26T01:13:26Z</time>
      </trkpt>
      <trkpt lat="45.32609" lon="6.48128">
        <ele>2178</ele>
        <time>2018-06-26T01:14:26Z</time>
      </trkpt>
      <trkpt lat="45.32603" lon="6.48128">
        <ele>2178</ele>
        <time>2018-06-26T01:15:26Z</time>
      </trkpt>
      <trkpt lat="45.32597" lon="6.4813">
        <ele>2179</ele>
        <time>2018-06-26T01:16:26Z</time>
      </trkpt>
      <trkpt lat="45.32591" lon="6.48137">
        <ele>2181</ele>
        <time>2018-06-26T01:17:26Z</time>
      </trkpt>
      <trkpt lat="45.32584" lon="6.48143">
        <ele>2182</ele>
        <time>2018-06-26T01:18:26Z</time>
      </trkpt>
      <trkpt lat="45.32576" lon="6.48146">
        <ele>2189</ele>
        <time>2018-06-26T01:19:26Z</time>
      </trkpt>
      <trkpt lat="45.32571" lon="6.48146">
        <ele>2189</ele>
        <time>2018-06-26T01:20:26Z</time>
      </trkpt>
      <trkpt lat="45.32563" lon="6.4815">
        <ele>2190</ele>
        <time>2018-06-26T01:21:26Z</time>
      </trkpt>
      <trkpt lat="45.32555" lon="6.48153">
        <ele>2190</ele>
        <time>2018-06-26T01:22:26Z</time>
      </trkpt>
      <trkpt lat="45.3255" lon="6.48157">
        <ele>2190</ele>
        <time>2018-06-26T01:23:26Z</time>
      </trkpt>
      <trkpt lat="45.32545" lon="6.4816">
        <ele>2191</ele>
        <time>2018-06-26T01:24:26Z</time>
      </trkpt>
      <trkpt lat="45.32537" lon="6.48161">
        <ele>2191</ele>
        <time>2018-06-26T01:25:26Z</time>
      </trkpt>
      <trkpt lat="45.3253" lon="6.48161">
        <ele>2192</ele>
        <time>2018-06-26T01:26:26Z</time>
      </trkpt>
      <trkpt lat="45.32521" lon="6.48158">
        <ele>2193</ele>
        <time>2018-06-26T01:27:26Z</time>
      </trkpt>
      <trkpt lat="45.32513" lon="6.48158">
        <ele>2195</ele>
        <time>2018-06-26T01:28:26Z</time>
      </trkpt>
      <trkpt lat="45.32506" lon="6.4816">
        <ele>2197</ele>
        <time>2018-06-26T01:29:26Z</time>
      </trkpt>
      <trkpt lat="45.32499" lon="6.48163">
        <ele>2201</ele>
        <time>2018-06-26T01:30:26Z</time>
      </trkpt>
      <trkpt lat="45.32491" lon="6.48163">
        <ele>2201</ele>
        <time>2018-06-26T01:31:26Z</time>
      </trkpt>
      <trkpt lat="45.32486" lon="6.48161">
        <ele>2201</ele>
        <time>2018-06-26T01:32:26Z</time>
      </trkpt>
      <trkpt lat="45.32481" lon="6.48161">
        <ele>2202</ele>
        <time>2018-06-26T01:33:26Z</time>
      </trkpt>
      <trkpt lat="45.32477" lon="6.48162">
        <ele>2202</ele>
        <time>2018-06-26T01:34:26Z</time>
      </trkpt>
      <trkpt lat="45.32463" lon="6.48165">
        <ele>2204</ele>
        <time>2018-06-26T01:35:26Z</time>
      </trkpt>
      <trkpt lat="45.32459" lon="6.48167">
        <ele>2214</ele>
        <time>2018-06-26T01:36:26Z</time>
      </trkpt>
      <trkpt lat="45.32456" lon="6.48169">
        <ele>2214</ele>
        <time>2018-06-26T01:37:26Z</time>
      </trkpt>
      <trkpt lat="45.32452" lon="6.48169">
        <ele>2215</ele>
        <time>2018-06-26T01:38:26Z</time>
      </trkpt>
      <trkpt lat="45.32443" lon="6.48168">
        <ele>2216</ele>
        <time>2018-06-26T01:39:26Z</time>
      </trkpt>
      <trkpt lat="45.32437" lon="6.4817">
        <ele>2216</ele>
        <time>2018-06-26T01:40:26Z</time>
      </trkpt>
      <trkpt lat="45.32433" lon="6.48172">
        <ele>2217</ele>
        <time>2018-06-26T01:41:26Z</time>
      </trkpt>
      <trkpt lat="45.32427" lon="6.48172">
        <ele>2217</ele>
        <time>2018-06-26T01:42:26Z</time>
      </trkpt>
      <trkpt lat="45.32423" lon="6.48172">
        <ele>2217</ele>
        <time>2018-06-26T01:43:26Z</time>
      </trkpt>
      <trkpt lat="45.3242" lon="6.48169">
        <ele>2218</ele>
        <time>2018-06-26T01:44:26Z</time>
      </trkpt>
      <trkpt lat="45.32418" lon="6.48164">
        <ele>2216</ele>
        <time>2018-06-26T01:45:26Z</time>
      </trkpt>
      <trkpt lat="45.32414" lon="6.48163">
        <ele>2219</ele>
        <time>2018-06-26T01:46:26Z</time>
      </trkpt>
      <trkpt lat="45.32407" lon="6.48157">
        <ele>2219</ele>
        <time>2018-06-26T01:47:26Z</time>
      </trkpt>
      <trkpt lat="45.32407" lon="6.48153">
        <ele>2219</ele>
        <time>2018-06-26T01:48:26Z</time>
      </trkpt>
      <trkpt lat="45.32407" lon="6.4815">
        <ele>2219</ele>
        <time>2018-06-26T01:49:26Z</time>
      </trkpt>
      <trkpt lat="45.32404" lon="6.4815">
        <ele>2220</ele>
        <time>2018-06-26T01:50:26Z</time>
      </trkpt>
      <trkpt lat="45.32398" lon="6.4815">
        <ele>2220</ele>
        <time>2018-06-26T01:51:26Z</time>
      </trkpt>
      <trkpt lat="45.32395" lon="6.48151">
        <ele>2220</ele>
        <time>2018-06-26T01:52:26Z</time>
      </trkpt>
      <trkpt lat="45.32388" lon="6.48152">
        <ele>2221</ele>
        <time>2018-06-26T01:53:26Z</time>
      </trkpt>
      <trkpt lat="45.32385" lon="6.48149">
        <ele>2222</ele>
        <time>2018-06-26T01:54:26Z</time>
      </trkpt>
      <trkpt lat="45.32381" lon="6.48149">
        <ele>2222</ele>
        <time>2018-06-26T01:55:26Z</time>
      </trkpt>
      <trkpt lat="45.32378" lon="6.48145">
        <ele>2222</ele>
        <time>2018-06-26T01:56:26Z</time>
      </trkpt>
      <trkpt lat="45.32375" lon="6.4814">
        <ele>2222</ele>
        <time>2018-06-26T01:57:26Z</time>
      </trkpt>
      <trkpt lat="45.32372" lon="6.48137">
        <ele>2223</ele>
        <time>2018-06-26T01:58:26Z</time>
      </trkpt>
      <trkpt lat="45.32369" lon="6.48135">
        <ele>2223</ele>
        <time>2018-06-26T01:59:26Z</time>
      </trkpt>
      <trkpt lat="45.32366" lon="6.48129">
        <ele>2223</ele>
        <time>2018-06-26T02:00:26Z</time>
      </trkpt>
      <trkpt lat="45.32362" lon="6.48126">
        <ele>2223</ele>
        <time>2018-06-26T02:01:26Z</time>
      </trkpt>
      <trkpt lat="45.32358" lon="6.48119">
        <ele>2223</ele>
        <time>2018-06-26T02:02:26Z</time>
      </trkpt>
      <trkpt lat="45.32354" lon="6.48115">
        <ele>2223</ele>
        <time>2018-06-26T02:03:26Z</time>
      </trkpt>
      <trkpt lat="45.32351" lon="6.48112">
        <ele>2224</ele>
        <time>2018-06-26T02:04:26Z</time>
      </trkpt>
      <trkpt lat="45.32348" lon="6.48107">
        <ele>2224</ele>
        <time>2018-06-26T02:05:26Z</time>
      </trkpt>
      <trkpt lat="45.32345" lon="6.48103">
        <ele>2224</ele>
        <time>2018-06-26T02:06:26Z</time>
      </trkpt>
      <trkpt lat="45.32343" lon="6.48098">
        <ele>2225</ele>
        <time>2018-06-26T02:07:26Z</time>
      </trkpt>
      <trkpt lat="45.3234" lon="6.48095">
        <ele>2225</ele>
        <time>2018-06-26T02:08:26Z</time>
      </trkpt>
      <trkpt lat="45.32338" lon="6.48094">
        <ele>2226</ele>
        <time>2018-06-26T02:09:26Z</time>
      </trkpt>
      <trkpt lat="45.32336" lon="6.48096">
        <ele>2226</ele>
        <time>2018-06-26T02:10:26Z</time>
      </trkpt>
      <trkpt lat="45.32329" lon="6.48096">
        <ele>2233</ele>
        <time>2018-06-26T02:11:26Z</time>
      </trkpt>
      <trkpt lat="45.32323" lon="6.48094">
        <ele>2233</ele>
        <time>2018-06-26T02:12:26Z</time>
      </trkpt>
      <trkpt lat="45.32313" lon="6.48093">
        <ele>2235</ele>
        <time>2018-06-26T02:13:26Z</time>
      </trkpt>
      <trkpt lat="45.32308" lon="6.48091">
        <ele>2236</ele>
        <time>2018-06-26T02:14:26Z</time>
      </trkpt>
      <trkpt lat="45.32302" lon="6.4809">
        <ele>2237</ele>
        <time>2018-06-26T02:15:26Z</time>
      </trkpt>
      <trkpt lat="45.32297" lon="6.48091">
        <ele>2237</ele>
        <time>2018-06-26T02:16:26Z</time>
      </trkpt>
      <trkpt lat="45.32291" lon="6.48092">
        <ele>2238</ele>
        <time>2018-06-26T02:17:26Z</time>
      </trkpt>
      <trkpt lat="45.32286" lon="6.48091">
        <ele>2239</ele>
        <time>2018-06-26T02:18:26Z</time>
      </trkpt>
      <trkpt lat="45.32279" lon="6.48091">
        <ele>2240</ele>
        <time>2018-06-26T02:19:26Z</time>
      </trkpt>
      <trkpt lat="45.32272" lon="6.48093">
        <ele>2241</ele>
        <time>2018-06-26T02:20:26Z</time>
      </trkpt>
      <trkpt lat="45.32262" lon="6.48093">
        <ele>2242</ele>
        <time>2018-06-26T02:21:26Z</time>
      </trkpt>
      <trkpt lat="45.32257" lon="6.48091">
        <ele>2242</ele>
        <time>2018-06-26T02:22:26Z</time>
      </trkpt>
      <trkpt lat="45.32251" lon="6.48086">
        <ele>2243</ele>
        <time>2018-06-26T02:23:26Z</time>
      </trkpt>
      <trkpt lat="45.32245" lon="6.48086">
        <ele>2246</ele>
        <time>2018-06-26T02:24:26Z</time>
      </trkpt>
      <trkpt lat="45.32242" lon="6.48088">
        <ele>2246</ele>
        <time>2018-06-26T02:25:26Z</time>
      </trkpt>
      <trkpt lat="45.32237" lon="6.48087">
        <ele>2247</ele>
        <time>2018-06-26T02:26:26Z</time>
      </trkpt>
      <trkpt lat="45.32231" lon="6.48087">
        <ele>2248</ele>
        <time>2018-06-26T02:27:26Z</time>
      </trkpt>
      <trkpt lat="45.32224" lon="6.48084">
        <ele>2249</ele>
        <time>2018-06-26T02:28:26Z</time>
      </trkpt>
      <trkpt lat="45.3222" lon="6.48082">
        <ele>2240</ele>
        <time>2018-06-26T02:29:26Z</time>
      </trkpt>
      <trkpt lat="45.32215" lon="6.48081">
        <ele>2240</ele>
        <time>2018-06-26T02:30:26Z</time>
      </trkpt>
      <trkpt lat="45.32204" lon="6.48078">
        <ele>2241</ele>
        <time>2018-06-26T02:31:26Z</time>
      </trkpt>
      <trkpt lat="45.32195" lon="6.48077">
        <ele>2242</ele>
        <time>2018-06-26T02:32:26Z</time>
      </trkpt>
      <trkpt lat="45.32191" lon="6.48074">
        <ele>2242</ele>
        <time>2018-06-26T02:33:26Z</time>
      </trkpt>
      <trkpt lat="45.32187" lon="6.48072">
        <ele>2243</ele>
        <time>2018-06-26T02:34:26Z</time>
      </trkpt>
      <trkpt lat="45.32181" lon="6.48075">
        <ele>2244</ele>
        <time>2018-06-26T02:35:26Z</time>
      </trkpt>
      <trkpt lat="45.32157" lon="6.48075">
        <ele>2251</ele>
        <time>2018-06-26T02:36:26Z</time>
      </trkpt>
      <trkpt lat="45.3215" lon="6.48076">
        <ele>2251</ele>
        <time>2018-06-26T02:37:26Z</time>
      </trkpt>
      <trkpt lat="45.32144" lon="6.48077">
        <ele>2252</ele>
        <time>2018-06-26T02:38:26Z</time>
      </trkpt>
      <trkpt lat="45.32141" lon="6.48072">
        <ele>2252</ele>
        <time>2018-06-26T02:39:26Z</time>
      </trkpt>
      <trkpt lat="45.32132" lon="6.48071">
        <ele>2253</ele>
        <time>2018-06-26T02:40:26Z</time>
      </trkpt>
      <trkpt lat="45.32128" lon="6.48066">
        <ele>2253</ele>
        <time>2018-06-26T02:41:26Z</time>
      </trkpt>
      <trkpt lat="45.3212" lon="6.48061">
        <ele>2254</ele>
        <time>2018-06-26T02:42:26Z</time>
      </trkpt>
      <trkpt lat="45.32115" lon="6.48061">
        <ele>2254</ele>
        <time>2018-06-26T02:43:26Z</time>
      </trkpt>
      <trkpt lat="45.32113" lon="6.48062">
        <ele>2255</ele>
        <time>2018-06-26T02:44:26Z</time>
      </trkpt>
      <trkpt lat="45.32108" lon="6.48061">
        <ele>2256</ele>
        <time>2018-06-26T02:45:26Z</time>
      </trkpt>
      <trkpt lat="45.32098" lon="6.4806">
        <ele>2257</ele>
        <time>2018-06-26T02:46:26Z</time>
      </trkpt>
      <trkpt lat="45.32096" lon="6.48058">
        <ele>2257</ele>
        <time>2018-06-26T02:47:26Z</time>
      </trkpt>
      <trkpt lat="45.32094" lon="6.48052">
        <ele>2256</ele>
        <time>2018-06-26T02:48:26Z</time>
      </trkpt>
      <trkpt lat="45.32094" lon="6.48048">
        <ele>2255</ele>
        <time>2018-06-26T02:49:26Z</time>
      </trkpt>
      <trkpt lat="45.32091" lon="6.48047">
        <ele>2255</ele>
        <time>2018-06-26T02:50:26Z</time>
      </trkpt>
      <trkpt lat="45.32085" lon="6.48049">
        <ele>2256</ele>
        <time>2018-06-26T02:51:26Z</time>
      </trkpt>
      <trkpt lat="45.32074" lon="6.48052">
        <ele>2266</ele>
        <time>2018-06-26T02:52:26Z</time>
      </trkpt>
      <trkpt lat="45.32067" lon="6.48051">
        <ele>2266</ele>
        <time>2018-06-26T02:53:26Z</time>
      </trkpt>
      <trkpt lat="45.32059" lon="6.48051">
        <ele>2266</ele>
        <time>2018-06-26T02:54:26Z</time>
      </trkpt>
      <trkpt lat="45.3205" lon="6.48053">
        <ele>2267</ele>
        <time>2018-06-26T02:55:26Z</time>
      </trkpt>
      <trkpt lat="45.32043" lon="6.4805">
        <ele>2267</ele>
        <time>2018-06-26T02:56:26Z</time>
      </trkpt>
      <trkpt lat="45.32035" lon="6.48048">
        <ele>2268</ele>
        <time>2018-06-26T02:57:26Z</time>
      </trkpt>
      <trkpt lat="45.32027" lon="6.48048">
        <ele>2268</ele>
        <time>2018-06-26T02:58:26Z</time>
      </trkpt>
      <trkpt lat="45.32019" lon="6.48048">
        <ele>2269</ele>
        <time>2018-06-26T02:59:26Z</time>
      </trkpt>
      <trkpt lat="45.32008" lon="6.4805">
        <ele>2269</ele>
        <time>2018-06-26T03:00:26Z</time>
      </trkpt>
      <trkpt lat="45.31997" lon="6.48049">
        <ele>2276</ele>
        <time>2018-06-26T03:01:26Z</time>
      </trkpt>
      <trkpt lat="45.31987" lon="6.48052">
        <ele>2276</ele>
        <time>2018-06-26T03:02:26Z</time>
      </trkpt>
      <trkpt lat="45.31977" lon="6.48054">
        <ele>2276</ele>
        <time>2018-06-26T03:03:26Z</time>
      </trkpt>
      <trkpt lat="45.31962" lon="6.48061">
        <ele>2277</ele>
        <time>2018-06-26T03:04:26Z</time>
      </trkpt>
      <trkpt lat="45.31954" lon="6.48067">
        <ele>2278</ele>
        <time>2018-06-26T03:05:26Z</time>
      </trkpt>
      <trkpt lat="45.31944" lon="6.4807">
        <ele>2279</ele>
        <time>2018-06-26T03:06:26Z</time>
      </trkpt>
      <trkpt lat="45.31939" lon="6.48073">
        <ele>2279</ele>
        <time>2018-06-26T03:07:26Z</time>
      </trkpt>
      <trkpt lat="45.31928" lon="6.48073">
        <ele>2281</ele>
        <time>2018-06-26T03:08:26Z</time>
      </trkpt>
      <trkpt lat="45.3192" lon="6.48077">
        <ele>2282</ele>
        <time>2018-06-26T03:09:26Z</time>
      </trkpt>
      <trkpt lat="45.31914" lon="6.48083">
        <ele>2283</ele>
        <time>2018-06-26T03:10:26Z</time>
      </trkpt>
      <trkpt lat="45.31891" lon="6.4811">
        <ele>2287</ele>
        <time>2018-06-26T03:11:26Z</time>
      </trkpt>
      <trkpt lat="45.31884" lon="6.48123">
        <ele>2288</ele>
        <time>2018-06-26T03:12:26Z</time>
      </trkpt>
      <trkpt lat="45.31873" lon="6.48135">
        <ele>2289</ele>
        <time>2018-06-26T03:13:26Z</time>
      </trkpt>
      <trkpt lat="45.31867" lon="6.48143">
        <ele>2289</ele>
        <time>2018-06-26T03:14:26Z</time>
      </trkpt>
      <trkpt lat="45.31862" lon="6.48151">
        <ele>2290</ele>
        <time>2018-06-26T03:15:26Z</time>
      </trkpt>
      <trkpt lat="45.31854" lon="6.48166">
        <ele>2291</ele>
        <time>2018-06-26T03:16:26Z</time>
      </trkpt>
      <trkpt lat="45.31843" lon="6.48183">
        <ele>2298</ele>
        <time>2018-06-26T03:17:26Z</time>
      </trkpt>
      <trkpt lat="45.31838" lon="6.48188">
        <ele>2299</ele>
        <time>2018-06-26T03:18:26Z</time>
      </trkpt>
      <trkpt lat="45.31831" lon="6.48194">
        <ele>2289</ele>
        <time>2018-06-26T03:19:26Z</time>
      </trkpt>
      <trkpt lat="45.31826" lon="6.48196">
        <ele>2289</ele>
        <time>2018-06-26T03:20:26Z</time>
      </trkpt>
      <trkpt lat="45.31824" lon="6.48201">
        <ele>2289</ele>
        <time>2018-06-26T03:21:26Z</time>
      </trkpt>
      <trkpt lat="45.31821" lon="6.48208">
        <ele>2289</ele>
        <time>2018-06-26T03:22:26Z</time>
      </trkpt>
      <trkpt lat="45.31816" lon="6.48209">
        <ele>2289</ele>
        <time>2018-06-26T03:23:26Z</time>
      </trkpt>
      <trkpt lat="45.3181" lon="6.48215">
        <ele>2289</ele>
        <time>2018-06-26T03:24:26Z</time>
      </trkpt>
      <trkpt lat="45.31802" lon="6.48221">
        <ele>2288</ele>
        <time>2018-06-26T03:25:26Z</time>
      </trkpt>
      <trkpt lat="45.31796" lon="6.48227">
        <ele>2287</ele>
        <time>2018-06-26T03:26:26Z</time>
      </trkpt>
      <trkpt lat="45.31791" lon="6.48232">
        <ele>2287</ele>
        <time>2018-06-26T03:27:26Z</time>
      </trkpt>
      <trkpt lat="45.31789" lon="6.48238">
        <ele>2287</ele>
        <time>2018-06-26T03:28:26Z</time>
      </trkpt>
      <trkpt lat="45.31786" lon="6.48247">
        <ele>2286</ele>
        <time>2018-06-26T03:29:26Z</time>
      </trkpt>
      <trkpt lat="45.31782" lon="6.48252">
        <ele>2297</ele>
        <time>2018-06-26T03:30:26Z</time>
      </trkpt>
      <trkpt lat="45.31779" lon="6.48257">
        <ele>2296</ele>
        <time>2018-06-26T03:31:26Z</time>
      </trkpt>
      <trkpt lat="45.31778" lon="6.48267">
        <ele>2297</ele>
        <time>2018-06-26T03:32:26Z</time>
      </trkpt>
      <trkpt lat="45.31777" lon="6.48287">
        <ele>2301</ele>
        <time>2018-06-26T03:33:26Z</time>
      </trkpt>
      <trkpt lat="45.31779" lon="6.48294">
        <ele>2302</ele>
        <time>2018-06-26T03:34:26Z</time>
      </trkpt>
      <trkpt lat="45.31785" lon="6.48296">
        <ele>2303</ele>
        <time>2018-06-26T03:35:26Z</time>
      </trkpt>
      <trkpt lat="45.31793" lon="6.48304">
        <ele>2305</ele>
        <time>2018-06-26T03:36:26Z</time>
      </trkpt>
      <trkpt lat="45.31799" lon="6.48307">
        <ele>2307</ele>
        <time>2018-06-26T03:37:26Z</time>
      </trkpt>
      <trkpt lat="45.31803" lon="6.48314">
        <ele>2309</ele>
        <time>2018-06-26T03:38:26Z</time>
      </trkpt>
      <trkpt lat="45.31813" lon="6.48329">
        <ele>2314</ele>
        <time>2018-06-26T03:39:26Z</time>
      </trkpt>
      <trkpt lat="45.31818" lon="6.48342">
        <ele>2325</ele>
        <time>2018-06-26T03:40:26Z</time>
      </trkpt>
      <trkpt lat="45.31823" lon="6.48371">
        <ele>2328</ele>
        <time>2018-06-26T03:41:26Z</time>
      </trkpt>
      <trkpt lat="45.31828" lon="6.48385">
        <ele>2330</ele>
        <time>2018-06-26T03:42:26Z</time>
      </trkpt>
      <trkpt lat="45.31831" lon="6.48398">
        <ele>2334</ele>
        <time>2018-06-26T03:43:26Z</time>
      </trkpt>
      <trkpt lat="45.31832" lon="6.4841">
        <ele>2339</ele>
        <time>2018-06-26T03:44:26Z</time>
      </trkpt>
      <trkpt lat="45.31831" lon="6.48419">
        <ele>2343</ele>
        <time>2018-06-26T03:45:26Z</time>
      </trkpt>
      <trkpt lat="45.31825" lon="6.48428">
        <ele>2345</ele>
        <time>2018-06-26T03:46:26Z</time>
      </trkpt>
      <trkpt lat="45.31822" lon="6.48438">
        <ele>2346</ele>
        <time>2018-06-26T03:47:26Z</time>
      </trkpt>
      <trkpt lat="45.31816" lon="6.48449">
        <ele>2347</ele>
        <time>2018-06-26T03:48:26Z</time>
      </trkpt>
      <trkpt lat="45.31811" lon="6.48466">
        <ele>2349</ele>
        <time>2018-06-26T03:49:26Z</time>
      </trkpt>
      <trkpt lat="45.31805" lon="6.48493">
        <ele>2352</ele>
        <time>2018-06-26T03:50:26Z</time>
      </trkpt>
      <trkpt lat="45.31802" lon="6.48498">
        <ele>2352</ele>
        <time>2018-06-26T03:51:26Z</time>
      </trkpt>
      <trkpt lat="45.31791" lon="6.48521">
        <ele>2362</ele>
        <time>2018-06-26T03:52:26Z</time>
      </trkpt>
      <trkpt lat="45.31787" lon="6.48524">
        <ele>2362</ele>
        <time>2018-06-26T03:53:26Z</time>
      </trkpt>
      <trkpt lat="45.31781" lon="6.48527">
        <ele>2361</ele>
        <time>2018-06-26T03:54:26Z</time>
      </trkpt>
      <trkpt lat="45.31776" lon="6.48534">
        <ele>2362</ele>
        <time>2018-06-26T03:55:26Z</time>
      </trkpt>
      <trkpt lat="45.31766" lon="6.48567">
        <ele>2364</ele>
        <time>2018-06-26T03:56:26Z</time>
      </trkpt>
      <trkpt lat="45.31753" lon="6.48621">
        <ele>2371</ele>
        <time>2018-06-26T03:57:26Z</time>
      </trkpt>
      <trkpt lat="45.31748" lon="6.4865">
        <ele>2366</ele>
        <time>2018-06-26T03:58:26Z</time>
      </trkpt>
      <trkpt lat="45.31738" lon="6.48663">
        <ele>2367</ele>
        <time>2018-06-26T03:59:26Z</time>
      </trkpt>
      <trkpt lat="45.31729" lon="6.48672">
        <ele>2369</ele>
        <time>2018-06-26T04:00:26Z</time>
      </trkpt>
      <trkpt lat="45.31724" lon="6.4867">
        <ele>2369</ele>
        <time>2018-06-26T04:01:26Z</time>
      </trkpt>
      <trkpt lat="45.3172" lon="6.4867">
        <ele>2368</ele>
        <time>2018-06-26T04:02:26Z</time>
      </trkpt>
      <trkpt lat="45.31713" lon="6.48688">
        <ele>2368</ele>
        <time>2018-06-26T04:03:26Z</time>
      </trkpt>
      <trkpt lat="45.31703" lon="6.48695">
        <ele>2367</ele>
        <time>2018-06-26T04:04:26Z</time>
      </trkpt>
      <trkpt lat="45.31698" lon="6.48702">
        <ele>2367</ele>
        <time>2018-06-26T04:05:26Z</time>
      </trkpt>
      <trkpt lat="45.31689" lon="6.4871">
        <ele>2367</ele>
        <time>2018-06-26T04:06:26Z</time>
      </trkpt>
      <trkpt lat="45.31679" lon="6.48723">
        <ele>2367</ele>
        <time>2018-06-26T04:07:26Z</time>
      </trkpt>
      <trkpt lat="45.31671" lon="6.48734">
        <ele>2367</ele>
        <time>2018-06-26T04:08:26Z</time>
      </trkpt>
      <trkpt lat="45.31662" lon="6.4874">
        <ele>2362</ele>
        <time>2018-06-26T04:09:26Z</time>
      </trkpt>
      <trkpt lat="45.3165" lon="6.48749">
        <ele>2360</ele>
        <time>2018-06-26T04:10:26Z</time>
      </trkpt>
      <trkpt lat="45.31643" lon="6.48759">
        <ele>2367</ele>
        <time>2018-06-26T04:11:26Z</time>
      </trkpt>
      <trkpt lat="45.31639" lon="6.48776">
        <ele>2368</ele>
        <time>2018-06-26T04:12:26Z</time>
      </trkpt>
      <trkpt lat="45.31636" lon="6.4878">
        <ele>2369</ele>
        <time>2018-06-26T04:13:26Z</time>
      </trkpt>
      <trkpt lat="45.31628" lon="6.48784">
        <ele>2369</ele>
        <time>2018-06-26T04:14:26Z</time>
      </trkpt>
      <trkpt lat="45.31614" lon="6.48784">
        <ele>2368</ele>
        <time>2018-06-26T04:15:26Z</time>
      </trkpt>
      <trkpt lat="45.31602" lon="6.48787">
        <ele>2367</ele>
        <time>2018-06-26T04:16:26Z</time>
      </trkpt>
      <trkpt lat="45.31594" lon="6.48791">
        <ele>2368</ele>
        <time>2018-06-26T04:17:26Z</time>
      </trkpt>
      <trkpt lat="45.31584" lon="6.48788">
        <ele>2367</ele>
        <time>2018-06-26T04:18:26Z</time>
      </trkpt>
      <trkpt lat="45.31571" lon="6.48786">
        <ele>2360</ele>
        <time>2018-06-26T04:19:26Z</time>
      </trkpt>
      <trkpt lat="45.31566" lon="6.48786">
        <ele>2360</ele>
        <time>2018-06-26T04:20:26Z</time>
      </trkpt>
      <trkpt lat="45.31562" lon="6.4879">
        <ele>2360</ele>
        <time>2018-06-26T04:21:26Z</time>
      </trkpt>
      <trkpt lat="45.31552" lon="6.48802">
        <ele>2361</ele>
        <time>2018-06-26T04:22:26Z</time>
      </trkpt>
      <trkpt lat="45.31548" lon="6.48802">
        <ele>2361</ele>
        <time>2018-06-26T04:23:26Z</time>
      </trkpt>
      <trkpt lat="45.31541" lon="6.48802">
        <ele>2360</ele>
        <time>2018-06-26T04:24:26Z</time>
      </trkpt>
      <trkpt lat="45.31534" lon="6.48808">
        <ele>2361</ele>
        <time>2018-06-26T04:25:26Z</time>
      </trkpt>
      <trkpt lat="45.31526" lon="6.4881">
        <ele>2360</ele>
        <time>2018-06-26T04:26:26Z</time>
      </trkpt>
      <trkpt lat="45.31515" lon="6.48807">
        <ele>2360</ele>
        <time>2018-06-26T04:27:26Z</time>
      </trkpt>
      <trkpt lat="45.31495" lon="6.48796">
        <ele>2352</ele>
        <time>2018-06-26T04:28:26Z</time>
      </trkpt>
      <trkpt lat="45.31488" lon="6.48795">
        <ele>2352</ele>
        <time>2018-06-26T04:29:26Z</time>
      </trkpt>
      <trkpt lat="45.31477" lon="6.48796">
        <ele>2351</ele>
        <time>2018-06-26T04:30:26Z</time>
      </trkpt>
      <trkpt lat="45.3146" lon="6.48797">
        <ele>2350</ele>
        <time>2018-06-26T04:31:26Z</time>
      </trkpt>
      <trkpt lat="45.31445" lon="6.488">
        <ele>2350</ele>
        <time>2018-06-26T04:32:26Z</time>
      </trkpt>
      <trkpt lat="45.31428" lon="6.48808">
        <ele>2351</ele>
        <time>2018-06-26T04:33:26Z</time>
      </trkpt>
      <trkpt lat="45.31425" lon="6.48809">
        <ele>2351</ele>
        <time>2018-06-26T04:34:26Z</time>
      </trkpt>
      <trkpt lat="45.31414" lon="6.48821">
        <ele>2348</ele>
        <time>2018-06-26T04:35:26Z</time>
      </trkpt>
      <trkpt lat="45.31406" lon="6.48826">
        <ele>2348</ele>
        <time>2018-06-26T04:36:26Z</time>
      </trkpt>
      <trkpt lat="45.31394" lon="6.48829">
        <ele>2345</ele>
        <time>2018-06-26T04:37:26Z</time>
      </trkpt>
      <trkpt lat="45.31387" lon="6.48833">
        <ele>2344</ele>
        <time>2018-06-26T04:38:26Z</time>
      </trkpt>
      <trkpt lat="45.31381" lon="6.48841">
        <ele>2355</ele>
        <time>2018-06-26T04:39:26Z</time>
      </trkpt>
      <trkpt lat="45.31377" lon="6.48855">
        <ele>2356</ele>
        <time>2018-06-26T04:40:26Z</time>
      </trkpt>
      <trkpt lat="45.31373" lon="6.48862">
        <ele>2356</ele>
        <time>2018-06-26T04:41:26Z</time>
      </trkpt>
      <trkpt lat="45.31371" lon="6.48863">
        <ele>2356</ele>
        <time>2018-06-26T04:42:26Z</time>
      </trkpt>
      <trkpt lat="45.31351" lon="6.48865">
        <ele>2354</ele>
        <time>2018-06-26T04:43:26Z</time>
      </trkpt>
      <trkpt lat="45.31343" lon="6.48867">
        <ele>2354</ele>
        <time>2018-06-26T04:44:26Z</time>
      </trkpt>
      <trkpt lat="45.31336" lon="6.48872">
        <ele>2355</ele>
        <time>2018-06-26T04:45:26Z</time>
      </trkpt>
      <trkpt lat="45.31332" lon="6.48878">
        <ele>2346</ele>
        <time>2018-06-26T04:46:26Z</time>
      </trkpt>
      <trkpt lat="45.31326" lon="6.48883">
        <ele>2347</ele>
        <time>2018-06-26T04:47:26Z</time>
      </trkpt>
      <trkpt lat="45.3132" lon="6.48891">
        <ele>2348</ele>
        <time>2018-06-26T04:48:26Z</time>
      </trkpt>
      <trkpt lat="45.31311" lon="6.48895">
        <ele>2347</ele>
        <time>2018-06-26T04:49:26Z</time>
      </trkpt>
      <trkpt lat="45.31305" lon="6.48895">
        <ele>2346</ele>
        <time>2018-06-26T04:50:26Z</time>
      </trkpt>
      <trkpt lat="45.31298" lon="6.48901">
        <ele>2346</ele>
        <time>2018-06-26T04:51:26Z</time>
      </trkpt>
      <trkpt lat="45.31292" lon="6.48907">
        <ele>2346</ele>
        <time>2018-06-26T04:52:26Z</time>
      </trkpt>
      <trkpt lat="45.31288" lon="6.48916">
        <ele>2345</ele>
        <time>2018-06-26T04:53:26Z</time>
      </trkpt>
      <trkpt lat="45.31285" lon="6.48927">
        <ele>2357</ele>
        <time>2018-06-26T04:54:26Z</time>
      </trkpt>
      <trkpt lat="45.31281" lon="6.48934">
        <ele>2356</ele>
        <time>2018-06-26T04:55:26Z</time>
      </trkpt>
      <trkpt lat="45.31273" lon="6.48939">
        <ele>2356</ele>
        <time>2018-06-26T04:56:26Z</time>
      </trkpt>
      <trkpt lat="45.31264" lon="6.48952">
        <ele>2357</ele>
        <time>2018-06-26T04:57:26Z</time>
      </trkpt>
      <trkpt lat="45.31261" lon="6.48965">
        <ele>2359</ele>
        <time>2018-06-26T04:58:26Z</time>
      </trkpt>
      <trkpt lat="45.31257" lon="6.48972">
        <ele>2359</ele>
        <time>2018-06-26T04:59:26Z</time>
      </trkpt>
      <trkpt lat="45.31251" lon="6.48975">
        <ele>2360</ele>
        <time>2018-06-26T05:00:26Z</time>
      </trkpt>
      <trkpt lat="45.31241" lon="6.48977">
        <ele>2351</ele>
        <time>2018-06-26T05:01:26Z</time>
      </trkpt>
      <trkpt lat="45.31227" lon="6.48982">
        <ele>2350</ele>
        <time>2018-06-26T05:02:26Z</time>
      </trkpt>
      <trkpt lat="45.31217" lon="6.48989">
        <ele>2349</ele>
        <time>2018-06-26T05:03:26Z</time>
      </trkpt>
      <trkpt lat="45.31204" lon="6.49">
        <ele>2362</ele>
        <time>2018-06-26T05:04:26Z</time>
      </trkpt>
      <trkpt lat="45.31196" lon="6.49005">
        <ele>2361</ele>
        <time>2018-06-26T05:05:26Z</time>
      </trkpt>
      <trkpt lat="45.31179" lon="6.49017">
        <ele>2359</ele>
        <time>2018-06-26T05:06:26Z</time>
      </trkpt>
      <trkpt lat="45.31171" lon="6.49027">
        <ele>2361</ele>
        <time>2018-06-26T05:07:26Z</time>
      </trkpt>
      <trkpt lat="45.31132" lon="6.49058">
        <ele>2354</ele>
        <time>2018-06-26T05:08:26Z</time>
      </trkpt>
      <trkpt lat="45.3112" lon="6.49062">
        <ele>2353</ele>
        <time>2018-06-26T05:09:26Z</time>
      </trkpt>
      <trkpt lat="45.31102" lon="6.49075">
        <ele>2353</ele>
        <time>2018-06-26T05:10:26Z</time>
      </trkpt>
      <trkpt lat="45.31093" lon="6.4908">
        <ele>2353</ele>
        <time>2018-06-26T05:11:26Z</time>
      </trkpt>
      <trkpt lat="45.31087" lon="6.49079">
        <ele>2353</ele>
        <time>2018-06-26T05:12:26Z</time>
      </trkpt>
      <trkpt lat="45.31048" lon="6.491">
        <ele>2354</ele>
        <time>2018-06-26T05:13:26Z</time>
      </trkpt>
      <trkpt lat="45.3104" lon="6.49111">
        <ele>2355</ele>
        <time>2018-06-26T05:14:26Z</time>
      </trkpt>
      <trkpt lat="45.31032" lon="6.49122">
        <ele>2355</ele>
        <time>2018-06-26T05:15:26Z</time>
      </trkpt>
      <trkpt lat="45.31024" lon="6.49135">
        <ele>2356</ele>
        <time>2018-06-26T05:16:26Z</time>
      </trkpt>
      <trkpt lat="45.31019" lon="6.49145">
        <ele>2356</ele>
        <time>2018-06-26T05:17:26Z</time>
      </trkpt>
      <trkpt lat="45.3101" lon="6.49152">
        <ele>2356</ele>
        <time>2018-06-26T05:18:26Z</time>
      </trkpt>
      <trkpt lat="45.31001" lon="6.49156">
        <ele>2356</ele>
        <time>2018-06-26T05:19:26Z</time>
      </trkpt>
      <trkpt lat="45.3098" lon="6.49163">
        <ele>2347</ele>
        <time>2018-06-26T05:20:26Z</time>
      </trkpt>
      <trkpt lat="45.30974" lon="6.49163">
        <ele>2345</ele>
        <time>2018-06-26T05:21:26Z</time>
      </trkpt>
      <trkpt lat="45.30971" lon="6.49166">
        <ele>2344</ele>
        <time>2018-06-26T05:22:26Z</time>
      </trkpt>
      <trkpt lat="45.30965" lon="6.49172">
        <ele>2355</ele>
        <time>2018-06-26T05:23:26Z</time>
      </trkpt>
      <trkpt lat="45.30957" lon="6.49174">
        <ele>2354</ele>
        <time>2018-06-26T05:24:26Z</time>
      </trkpt>
      <trkpt lat="45.30947" lon="6.49179">
        <ele>2353</ele>
        <time>2018-06-26T05:25:26Z</time>
      </trkpt>
      <trkpt lat="45.30939" lon="6.49185">
        <ele>2352</ele>
        <time>2018-06-26T05:26:26Z</time>
      </trkpt>
      <trkpt lat="45.3093" lon="6.49188">
        <ele>2351</ele>
        <time>2018-06-26T05:27:26Z</time>
      </trkpt>
      <trkpt lat="45.30923" lon="6.49199">
        <ele>2352</ele>
        <time>2018-06-26T05:28:26Z</time>
      </trkpt>
      <trkpt lat="45.30915" lon="6.49212">
        <ele>2344</ele>
        <time>2018-06-26T05:29:26Z</time>
      </trkpt>
      <trkpt lat="45.30911" lon="6.49215">
        <ele>2344</ele>
        <time>2018-06-26T05:30:26Z</time>
      </trkpt>
      <trkpt lat="45.30903" lon="6.49217">
        <ele>2344</ele>
        <time>2018-06-26T05:31:26Z</time>
      </trkpt>
      <trkpt lat="45.30883" lon="6.49214">
        <ele>2342</ele>
        <time>2018-06-26T05:32:26Z</time>
      </trkpt>
      <trkpt lat="45.30876" lon="6.49219">
        <ele>2342</ele>
        <time>2018-06-26T05:33:26Z</time>
      </trkpt>
      <trkpt lat="45.30847" lon="6.49242">
        <ele>2342</ele>
        <time>2018-06-26T05:34:26Z</time>
      </trkpt>
      <trkpt lat="45.3083" lon="6.49253">
        <ele>2342</ele>
        <time>2018-06-26T05:35:26Z</time>
      </trkpt>
      <trkpt lat="45.30815" lon="6.49257">
        <ele>2342</ele>
        <time>2018-06-26T05:36:26Z</time>
      </trkpt>
      <trkpt lat="45.30805" lon="6.49262">
        <ele>2342</ele>
        <time>2018-06-26T05:37:26Z</time>
      </trkpt>
      <trkpt lat="45.30799" lon="6.4927">
        <ele>2342</ele>
        <time>2018-06-26T05:38:26Z</time>
      </trkpt>
      <trkpt lat="45.30782" lon="6.49283">
        <ele>2341</ele>
        <time>2018-06-26T05:39:26Z</time>
      </trkpt>
      <trkpt lat="45.30775" lon="6.49291">
        <ele>2342</ele>
        <time>2018-06-26T05:40:26Z</time>
      </trkpt>
      <trkpt lat="45.3076" lon="6.49303">
        <ele>2342</ele>
        <time>2018-06-26T05:41:26Z</time>
      </trkpt>
      <trkpt lat="45.30752" lon="6.49304">
        <ele>2342</ele>
        <time>2018-06-26T05:42:26Z</time>
      </trkpt>
      <trkpt lat="45.30744" lon="6.49302">
        <ele>2337</ele>
        <time>2018-06-26T05:43:26Z</time>
      </trkpt>
      <trkpt lat="45.30734" lon="6.49307">
        <ele>2337</ele>
        <time>2018-06-26T05:44:26Z</time>
      </trkpt>
      <trkpt lat="45.30723" lon="6.49316">
        <ele>2338</ele>
        <time>2018-06-26T05:45:26Z</time>
      </trkpt>
      <trkpt lat="45.30716" lon="6.49318">
        <ele>2338</ele>
        <time>2018-06-26T05:46:26Z</time>
      </trkpt>
      <trkpt lat="45.30712" lon="6.49324">
        <ele>2338</ele>
        <time>2018-06-26T05:47:26Z</time>
      </trkpt>
      <trkpt lat="45.30705" lon="6.49326">
        <ele>2338</ele>
        <time>2018-06-26T05:48:26Z</time>
      </trkpt>
      <trkpt lat="45.30693" lon="6.49324">
        <ele>2338</ele>
        <time>2018-06-26T05:49:26Z</time>
      </trkpt>
      <trkpt lat="45.30687" lon="6.49328">
        <ele>2338</ele>
        <time>2018-06-26T05:50:26Z</time>
      </trkpt>
      <trkpt lat="45.30682" lon="6.49327">
        <ele>2339</ele>
        <time>2018-06-26T05:51:26Z</time>
      </trkpt>
      <trkpt lat="45.30678" lon="6.49325">
        <ele>2339</ele>
        <time>2018-06-26T05:52:26Z</time>
      </trkpt>
      <trkpt lat="45.30673" lon="6.49326">
        <ele>2339</ele>
        <time>2018-06-26T05:53:26Z</time>
      </trkpt>
      <trkpt lat="45.30656" lon="6.49331">
        <ele>2340</ele>
        <time>2018-06-26T05:54:26Z</time>
      </trkpt>
      <trkpt lat="45.30652" lon="6.49338">
        <ele>2344</ele>
        <time>2018-06-26T05:55:26Z</time>
      </trkpt>
      <trkpt lat="45.30648" lon="6.49342">
        <ele>2345</ele>
        <time>2018-06-26T05:56:26Z</time>
      </trkpt>
      <trkpt lat="45.30643" lon="6.49343">
        <ele>2345</ele>
        <time>2018-06-26T05:57:26Z</time>
      </trkpt>
      <trkpt lat="45.30633" lon="6.49355">
        <ele>2347</ele>
        <time>2018-06-26T05:58:26Z</time>
      </trkpt>
      <trkpt lat="45.30623" lon="6.49364">
        <ele>2347</ele>
        <time>2018-06-26T05:59:26Z</time>
      </trkpt>
      <trkpt lat="45.30616" lon="6.49368">
        <ele>2348</ele>
        <time>2018-06-26T06:00:26Z</time>
      </trkpt>
      <trkpt lat="45.30604" lon="6.49365">
        <ele>2347</ele>
        <time>2018-06-26T06:01:26Z</time>
      </trkpt>
      <trkpt lat="45.30589" lon="6.49353">
        <ele>2347</ele>
        <time>2018-06-26T06:02:26Z</time>
      </trkpt>
      <trkpt lat="45.30583" lon="6.49345">
        <ele>2348</ele>
        <time>2018-06-26T06:03:26Z</time>
      </trkpt>
      <trkpt lat="45.30555" lon="6.49336">
        <ele>2349</ele>
        <time>2018-06-26T06:04:26Z</time>
      </trkpt>
      <trkpt lat="45.30533" lon="6.49327">
        <ele>2345</ele>
        <time>2018-06-26T06:05:26Z</time>
      </trkpt>
      <trkpt lat="45.30522" lon="6.4932">
        <ele>2345</ele>
        <time>2018-06-26T06:06:26Z</time>
      </trkpt>
      <trkpt lat="45.30508" lon="6.49317">
        <ele>2345</ele>
        <time>2018-06-26T06:07:26Z</time>
      </trkpt>
      <trkpt lat="45.30497" lon="6.49312">
        <ele>2347</ele>
        <time>2018-06-26T06:08:26Z</time>
      </trkpt>
      <trkpt lat="45.30488" lon="6.49309">
        <ele>2347</ele>
        <time>2018-06-26T06:09:26Z</time>
      </trkpt>
      <trkpt lat="45.30477" lon="6.49305">
        <ele>2346</ele>
        <time>2018-06-26T06:10:26Z</time>
      </trkpt>
      <trkpt lat="45.3047" lon="6.49297">
        <ele>2346</ele>
        <time>2018-06-26T06:11:26Z</time>
      </trkpt>
      <trkpt lat="45.30461" lon="6.49297">
        <ele>2346</ele>
        <time>2018-06-26T06:12:26Z</time>
      </trkpt>
      <trkpt lat="45.30452" lon="6.49291">
        <ele>2346</ele>
        <time>2018-06-26T06:13:26Z</time>
      </trkpt>
      <trkpt lat="45.30438" lon="6.49284">
        <ele>2346</ele>
        <time>2018-06-26T06:14:26Z</time>
      </trkpt>
      <trkpt lat="45.30429" lon="6.49283">
        <ele>2346</ele>
        <time>2018-06-26T06:15:26Z</time>
      </trkpt>
      <trkpt lat="45.30415" lon="6.49287">
        <ele>2352</ele>
        <time>2018-06-26T06:16:26Z</time>
      </trkpt>
      <trkpt lat="45.30401" lon="6.49285">
        <ele>2353</ele>
        <time>2018-06-26T06:17:26Z</time>
      </trkpt>
      <trkpt lat="45.30391" lon="6.49284">
        <ele>2353</ele>
        <time>2018-06-26T06:18:26Z</time>
      </trkpt>
      <trkpt lat="45.30385" lon="6.49277">
        <ele>2353</ele>
        <time>2018-06-26T06:19:26Z</time>
      </trkpt>
      <trkpt lat="45.30375" lon="6.49275">
        <ele>2354</ele>
        <time>2018-06-26T06:20:26Z</time>
      </trkpt>
      <trkpt lat="45.30364" lon="6.49279">
        <ele>2355</ele>
        <time>2018-06-26T06:21:26Z</time>
      </trkpt>
      <trkpt lat="45.3035" lon="6.4928">
        <ele>2356</ele>
        <time>2018-06-26T06:22:26Z</time>
      </trkpt>
      <trkpt lat="45.3034" lon="6.49278">
        <ele>2356</ele>
        <time>2018-06-26T06:23:26Z</time>
      </trkpt>
      <trkpt lat="45.30335" lon="6.49275">
        <ele>2355</ele>
        <time>2018-06-26T06:24:26Z</time>
      </trkpt>
      <trkpt lat="45.30324" lon="6.49264">
        <ele>2361</ele>
        <time>2018-06-26T06:25:26Z</time>
      </trkpt>
      <trkpt lat="45.30312" lon="6.49237">
        <ele>2352</ele>
        <time>2018-06-26T06:26:26Z</time>
      </trkpt>
      <trkpt lat="45.30306" lon="6.49231">
        <ele>2353</ele>
        <time>2018-06-26T06:27:26Z</time>
      </trkpt>
      <trkpt lat="45.30299" lon="6.49223">
        <ele>2353</ele>
        <time>2018-06-26T06:28:26Z</time>
      </trkpt>
      <trkpt lat="45.30295" lon="6.49217">
        <ele>2352</ele>
        <time>2018-06-26T06:29:26Z</time>
      </trkpt>
      <trkpt lat="45.3029" lon="6.49214">
        <ele>2353</ele>
        <time>2018-06-26T06:30:26Z</time>
      </trkpt>
      <trkpt lat="45.30286" lon="6.4921">
        <ele>2353</ele>
        <time>2018-06-26T06:31:26Z</time>
      </trkpt>
      <trkpt lat="45.30276" lon="6.49207">
        <ele>2353</ele>
        <time>2018-06-26T06:32:26Z</time>
      </trkpt>
      <trkpt lat="45.30263" lon="6.49196">
        <ele>2353</ele>
        <time>2018-06-26T06:33:26Z</time>
      </trkpt>
      <trkpt lat="45.30253" lon="6.49191">
        <ele>2352</ele>
        <time>2018-06-26T06:34:26Z</time>
      </trkpt>
      <trkpt lat="45.30245" lon="6.49181">
        <ele>2361</ele>
        <time>2018-06-26T06:35:26Z</time>
      </trkpt>
      <trkpt lat="45.30238" lon="6.49172">
        <ele>2360</ele>
        <time>2018-06-26T06:36:26Z</time>
      </trkpt>
      <trkpt lat="45.30234" lon="6.49158">
        <ele>2354</ele>
        <time>2018-06-26T06:37:26Z</time>
      </trkpt>
      <trkpt lat="45.30227" lon="6.49151">
        <ele>2355</ele>
        <time>2018-06-26T06:38:26Z</time>
      </trkpt>
      <trkpt lat="45.30217" lon="6.49132">
        <ele>2356</ele>
        <time>2018-06-26T06:39:26Z</time>
      </trkpt>
      <trkpt lat="45.30209" lon="6.49124">
        <ele>2357</ele>
        <time>2018-06-26T06:40:26Z</time>
      </trkpt>
      <trkpt lat="45.30205" lon="6.49119">
        <ele>2357</ele>
        <time>2018-06-26T06:41:26Z</time>
      </trkpt>
      <trkpt lat="45.30198" lon="6.49118">
        <ele>2358</ele>
        <time>2018-06-26T06:42:26Z</time>
      </trkpt>
      <trkpt lat="45.3019" lon="6.49114">
        <ele>2359</ele>
        <time>2018-06-26T06:43:26Z</time>
      </trkpt>
      <trkpt lat="45.30185" lon="6.49105">
        <ele>2359</ele>
        <time>2018-06-26T06:44:26Z</time>
      </trkpt>
      <trkpt lat="45.30184" lon="6.49096">
        <ele>2359</ele>
        <time>2018-06-26T06:45:26Z</time>
      </trkpt>
      <trkpt lat="45.30185" lon="6.49089">
        <ele>2359</ele>
        <time>2018-06-26T06:46:26Z</time>
      </trkpt>
      <trkpt lat="45.30184" lon="6.49084">
        <ele>2359</ele>
        <time>2018-06-26T06:47:26Z</time>
      </trkpt>
      <trkpt lat="45.3018" lon="6.49075">
        <ele>2356</ele>
        <time>2018-06-26T06:48:26Z</time>
      </trkpt>
      <trkpt lat="45.30181" lon="6.49052">
        <ele>2353</ele>
        <time>2018-06-26T06:49:26Z</time>
      </trkpt>
      <trkpt lat="45.30177" lon="6.49034">
        <ele>2353</ele>
        <time>2018-06-26T06:50:26Z</time>
      </trkpt>
      <trkpt lat="45.30172" lon="6.49021">
        <ele>2355</ele>
        <time>2018-06-26T06:51:26Z</time>
      </trkpt>
      <trkpt lat="45.30163" lon="6.49009">
        <ele>2368</ele>
        <time>2018-06-26T06:52:26Z</time>
      </trkpt>
      <trkpt lat="45.30158" lon="6.48997">
        <ele>2366</ele>
        <time>2018-06-26T06:53:26Z</time>
      </trkpt>
      <trkpt lat="45.30129" lon="6.48962">
        <ele>2374</ele>
        <time>2018-06-26T06:54:26Z</time>
      </trkpt>
      <trkpt lat="45.30124" lon="6.4896">
        <ele>2375</ele>
        <time>2018-06-26T06:55:26Z</time>
      </trkpt>
      <trkpt lat="45.30119" lon="6.48959">
        <ele>2376</ele>
        <time>2018-06-26T06:56:26Z</time>
      </trkpt>
      <trkpt lat="45.30111" lon="6.48964">
        <ele>2378</ele>
        <time>2018-06-26T06:57:26Z</time>
      </trkpt>
      <trkpt lat="45.30106" lon="6.4897">
        <ele>2379</ele>
        <time>2018-06-26T06:58:26Z</time>
      </trkpt>
      <trkpt lat="45.301" lon="6.48968">
        <ele>2380</ele>
        <time>2018-06-26T06:59:26Z</time>
      </trkpt>
      <trkpt lat="45.30093" lon="6.48962">
        <ele>2380</ele>
        <time>2018-06-26T07:00:26Z</time>
      </trkpt>
      <trkpt lat="45.30081" lon="6.48962">
        <ele>2397</ele>
        <time>2018-06-26T07:01:26Z</time>
      </trkpt>
      <trkpt lat="45.30072" lon="6.48967">
        <ele>2397</ele>
        <time>2018-06-26T07:02:26Z</time>
      </trkpt>
      <trkpt lat="45.30057" lon="6.48972">
        <ele>2399</ele>
        <time>2018-06-26T07:03:26Z</time>
      </trkpt>
      <trkpt lat="45.30043" lon="6.48969">
        <ele>2400</ele>
        <time>2018-06-26T07:04:26Z</time>
      </trkpt>
      <trkpt lat="45.30031" lon="6.48964">
        <ele>2402</ele>
        <time>2018-06-26T07:05:26Z</time>
      </trkpt>
      <trkpt lat="45.30027" lon="6.48965">
        <ele>2402</ele>
        <time>2018-06-26T07:06:26Z</time>
      </trkpt>
      <trkpt lat="45.30017" lon="6.48974">
        <ele>2404</ele>
        <time>2018-06-26T07:07:26Z</time>
      </trkpt>
      <trkpt lat="45.30012" lon="6.48976">
        <ele>2404</ele>
        <time>2018-06-26T07:08:26Z</time>
      </trkpt>
      <trkpt lat="45.30003" lon="6.48976">
        <ele>2405</ele>
        <time>2018-06-26T07:09:26Z</time>
      </trkpt>
      <trkpt lat="45.29995" lon="6.48973">
        <ele>2412</ele>
        <time>2018-06-26T07:10:26Z</time>
      </trkpt>
      <trkpt lat="45.29982" lon="6.4897">
        <ele>2412</ele>
        <time>2018-06-26T07:11:26Z</time>
      </trkpt>
      <trkpt lat="45.29974" lon="6.48965">
        <ele>2412</ele>
        <time>2018-06-26T07:12:26Z</time>
      </trkpt>
      <trkpt lat="45.29963" lon="6.48956">
        <ele>2412</ele>
        <time>2018-06-26T07:13:26Z</time>
      </trkpt>
      <trkpt lat="45.2996" lon="6.48948">
        <ele>2412</ele>
        <time>2018-06-26T07:14:26Z</time>
      </trkpt>
      <trkpt lat="45.29956" lon="6.4894">
        <ele>2412</ele>
        <time>2018-06-26T07:15:26Z</time>
      </trkpt>
      <trkpt lat="45.29949" lon="6.48931">
        <ele>2412</ele>
        <time>2018-06-26T07:16:26Z</time>
      </trkpt>
      <trkpt lat="45.29937" lon="6.48928">
        <ele>2411</ele>
        <time>2018-06-26T07:17:26Z</time>
      </trkpt>
      <trkpt lat="45.29926" lon="6.48938">
        <ele>2412</ele>
        <time>2018-06-26T07:18:26Z</time>
      </trkpt>
      <trkpt lat="45.29917" lon="6.48939">
        <ele>2412</ele>
        <time>2018-06-26T07:19:26Z</time>
      </trkpt>
      <trkpt lat="45.29904" lon="6.48941">
        <ele>2410</ele>
        <time>2018-06-26T07:20:26Z</time>
      </trkpt>
      <trkpt lat="45.29891" lon="6.48952">
        <ele>2410</ele>
        <time>2018-06-26T07:21:26Z</time>
      </trkpt>
      <trkpt lat="45.29886" lon="6.48959">
        <ele>2410</ele>
        <time>2018-06-26T07:22:26Z</time>
      </trkpt>
      <trkpt lat="45.2988" lon="6.48959">
        <ele>2410</ele>
        <time>2018-06-26T07:23:26Z</time>
      </trkpt>
      <trkpt lat="45.2987" lon="6.4897">
        <ele>2410</ele>
        <time>2018-06-26T07:24:26Z</time>
      </trkpt>
      <trkpt lat="45.29866" lon="6.48976">
        <ele>2410</ele>
        <time>2018-06-26T07:25:26Z</time>
      </trkpt>
      <trkpt lat="45.2986" lon="6.48992">
        <ele>2411</ele>
        <time>2018-06-26T07:26:26Z</time>
      </trkpt>
      <trkpt lat="45.29854" lon="6.49005">
        <ele>2417</ele>
        <time>2018-06-26T07:27:26Z</time>
      </trkpt>
      <trkpt lat="45.29842" lon="6.49026">
        <ele>2418</ele>
        <time>2018-06-26T07:28:26Z</time>
      </trkpt>
      <trkpt lat="45.29834" lon="6.49033">
        <ele>2419</ele>
        <time>2018-06-26T07:29:26Z</time>
      </trkpt>
      <trkpt lat="45.29825" lon="6.49055">
        <ele>2417</ele>
        <time>2018-06-26T07:30:26Z</time>
      </trkpt>
      <trkpt lat="45.29817" lon="6.49067">
        <ele>2418</ele>
        <time>2018-06-26T07:31:26Z</time>
      </trkpt>
      <trkpt lat="45.29812" lon="6.49085">
        <ele>2428</ele>
        <time>2018-06-26T07:32:26Z</time>
      </trkpt>
      <trkpt lat="45.29807" lon="6.49093">
        <ele>2429</ele>
        <time>2018-06-26T07:33:26Z</time>
      </trkpt>
      <trkpt lat="45.298" lon="6.49108">
        <ele>2430</ele>
        <time>2018-06-26T07:34:26Z</time>
      </trkpt>
      <trkpt lat="45.29797" lon="6.49119">
        <ele>2431</ele>
        <time>2018-06-26T07:35:26Z</time>
      </trkpt>
      <trkpt lat="45.29795" lon="6.49133">
        <ele>2433</ele>
        <time>2018-06-26T07:36:26Z</time>
      </trkpt>
      <trkpt lat="45.2979" lon="6.49151">
        <ele>2434</ele>
        <time>2018-06-26T07:37:26Z</time>
      </trkpt>
      <trkpt lat="45.29784" lon="6.49163">
        <ele>2435</ele>
        <time>2018-06-26T07:38:26Z</time>
      </trkpt>
      <trkpt lat="45.29779" lon="6.49168">
        <ele>2443</ele>
        <time>2018-06-26T07:39:26Z</time>
      </trkpt>
      <trkpt lat="45.29773" lon="6.49168">
        <ele>2442</ele>
        <time>2018-06-26T07:40:26Z</time>
      </trkpt>
      <trkpt lat="45.29764" lon="6.4917">
        <ele>2441</ele>
        <time>2018-06-26T07:41:26Z</time>
      </trkpt>
      <trkpt lat="45.29753" lon="6.49175">
        <ele>2439</ele>
        <time>2018-06-26T07:42:26Z</time>
      </trkpt>
      <trkpt lat="45.29744" lon="6.49185">
        <ele>2439</ele>
        <time>2018-06-26T07:43:26Z</time>
      </trkpt>
      <trkpt lat="45.29723" lon="6.49199">
        <ele>2440</ele>
        <time>2018-06-26T07:44:26Z</time>
      </trkpt>
      <trkpt lat="45.29716" lon="6.49207">
        <ele>2440</ele>
        <time>2018-06-26T07:45:26Z</time>
      </trkpt>
      <trkpt lat="45.29707" lon="6.49219">
        <ele>2441</ele>
        <time>2018-06-26T07:46:26Z</time>
      </trkpt>
      <trkpt lat="45.29697" lon="6.49229">
        <ele>2442</ele>
        <time>2018-06-26T07:47:26Z</time>
      </trkpt>
      <trkpt lat="45.29689" lon="6.49236">
        <ele>2442</ele>
        <time>2018-06-26T07:48:26Z</time>
      </trkpt>
      <trkpt lat="45.29683" lon="6.49248">
        <ele>2443</ele>
        <time>2018-06-26T07:49:26Z</time>
      </trkpt>
      <trkpt lat="45.29675" lon="6.49262">
        <ele>2448</ele>
        <time>2018-06-26T07:50:26Z</time>
      </trkpt>
      <trkpt lat="45.29668" lon="6.4927">
        <ele>2449</ele>
        <time>2018-06-26T07:51:26Z</time>
      </trkpt>
      <trkpt lat="45.29669" lon="6.49278">
        <ele>2450</ele>
        <time>2018-06-26T07:52:26Z</time>
      </trkpt>
      <trkpt lat="45.29677" lon="6.49287">
        <ele>2451</ele>
        <time>2018-06-26T07:53:26Z</time>
      </trkpt>
      <trkpt lat="45.29673" lon="6.49295">
        <ele>2451</ele>
        <time>2018-06-26T07:54:26Z</time>
      </trkpt>
      <trkpt lat="45.29648" lon="6.49324">
        <ele>2453</ele>
        <time>2018-06-26T07:55:26Z</time>
      </trkpt>
      <trkpt lat="45.2964" lon="6.49335">
        <ele>2461</ele>
        <time>2018-06-26T07:56:26Z</time>
      </trkpt>
      <trkpt lat="45.29632" lon="6.49347">
        <ele>2462</ele>
        <time>2018-06-26T07:57:26Z</time>
      </trkpt>
      <trkpt lat="45.29628" lon="6.4936">
        <ele>2463</ele>
        <time>2018-06-26T07:58:26Z</time>
      </trkpt>
      <trkpt lat="45.29625" lon="6.49371">
        <ele>2464</ele>
        <time>2018-06-26T07:59:26Z</time>
      </trkpt>
      <trkpt lat="45.2962" lon="6.49373">
        <ele>2464</ele>
        <time>2018-06-26T08:00:26Z</time>
      </trkpt>
      <trkpt lat="45.2961" lon="6.4938">
        <ele>2465</ele>
        <time>2018-06-26T08:01:26Z</time>
      </trkpt>
      <trkpt lat="45.29604" lon="6.49382">
        <ele>2466</ele>
        <time>2018-06-26T08:02:26Z</time>
      </trkpt>
      <trkpt lat="45.29594" lon="6.49384">
        <ele>2466</ele>
        <time>2018-06-26T08:03:26Z</time>
      </trkpt>
      <trkpt lat="45.29584" lon="6.49384">
        <ele>2466</ele>
        <time>2018-06-26T08:04:26Z</time>
      </trkpt>
      <trkpt lat="45.29575" lon="6.49392">
        <ele>2466</ele>
        <time>2018-06-26T08:05:26Z</time>
      </trkpt>
      <trkpt lat="45.29559" lon="6.49407">
        <ele>2466</ele>
        <time>2018-06-26T08:06:26Z</time>
      </trkpt>
      <trkpt lat="45.29553" lon="6.49415">
        <ele>2466</ele>
        <time>2018-06-26T08:07:26Z</time>
      </trkpt>
      <trkpt lat="45.29548" lon="6.49423">
        <ele>2480</ele>
        <time>2018-06-26T08:08:26Z</time>
      </trkpt>
      <trkpt lat="45.29541" lon="6.49428">
        <ele>2480</ele>
        <time>2018-06-26T08:09:26Z</time>
      </trkpt>
      <trkpt lat="45.29517" lon="6.49451">
        <ele>2482</ele>
        <time>2018-06-26T08:10:26Z</time>
      </trkpt>
      <trkpt lat="45.29506" lon="6.49458">
        <ele>2483</ele>
        <time>2018-06-26T08:11:26Z</time>
      </trkpt>
      <trkpt lat="45.29498" lon="6.49463">
        <ele>2482</ele>
        <time>2018-06-26T08:12:26Z</time>
      </trkpt>
      <trkpt lat="45.2949" lon="6.49466">
        <ele>2483</ele>
        <time>2018-06-26T08:13:26Z</time>
      </trkpt>
      <trkpt lat="45.29481" lon="6.49475">
        <ele>2484</ele>
        <time>2018-06-26T08:14:26Z</time>
      </trkpt>
      <trkpt lat="45.29474" lon="6.49482">
        <ele>2485</ele>
        <time>2018-06-26T08:15:26Z</time>
      </trkpt>
      <trkpt lat="45.29466" lon="6.49486">
        <ele>2485</ele>
        <time>2018-06-26T08:16:26Z</time>
      </trkpt>
      <trkpt lat="45.29457" lon="6.49484">
        <ele>2484</ele>
        <time>2018-06-26T08:17:26Z</time>
      </trkpt>
      <trkpt lat="45.2944" lon="6.49482">
        <ele>2484</ele>
        <time>2018-06-26T08:18:26Z</time>
      </trkpt>
      <trkpt lat="45.29432" lon="6.4948">
        <ele>2484</ele>
        <time>2018-06-26T08:19:26Z</time>
      </trkpt>
      <trkpt lat="45.29425" lon="6.49479">
        <ele>2484</ele>
        <time>2018-06-26T08:20:26Z</time>
      </trkpt>
      <trkpt lat="45.29418" lon="6.49476">
        <ele>2484</ele>
        <time>2018-06-26T08:21:26Z</time>
      </trkpt>
      <trkpt lat="45.29402" lon="6.49473">
        <ele>2484</ele>
        <time>2018-06-26T08:22:26Z</time>
      </trkpt>
      <trkpt lat="45.29393" lon="6.49474">
        <ele>2485</ele>
        <time>2018-06-26T08:23:26Z</time>
      </trkpt>
      <trkpt lat="45.29393" lon="6.49488">
        <ele>2486</ele>
        <time>2018-06-26T08:24:26Z</time>
      </trkpt>
      <trkpt lat="45.29385" lon="6.49504">
        <ele>2493</ele>
        <time>2018-06-26T08:25:26Z</time>
      </trkpt>
      <trkpt lat="45.29383" lon="6.49515">
        <ele>2494</ele>
        <time>2018-06-26T08:26:26Z</time>
      </trkpt>
      <trkpt lat="45.29379" lon="6.49524">
        <ele>2494</ele>
        <time>2018-06-26T08:27:26Z</time>
      </trkpt>
      <trkpt lat="45.2937" lon="6.49537">
        <ele>2495</ele>
        <time>2018-06-26T08:28:26Z</time>
      </trkpt>
      <trkpt lat="45.29368" lon="6.49546">
        <ele>2495</ele>
        <time>2018-06-26T08:29:26Z</time>
      </trkpt>
      <trkpt lat="45.29357" lon="6.49564">
        <ele>2496</ele>
        <time>2018-06-26T08:30:26Z</time>
      </trkpt>
      <trkpt lat="45.29355" lon="6.49574">
        <ele>2496</ele>
        <time>2018-06-26T08:31:26Z</time>
      </trkpt>
      <trkpt lat="45.29348" lon="6.49588">
        <ele>2500</ele>
        <time>2018-06-26T08:32:26Z</time>
      </trkpt>
      <trkpt lat="45.29344" lon="6.496">
        <ele>2501</ele>
        <time>2018-06-26T08:33:26Z</time>
      </trkpt>
      <trkpt lat="45.29339" lon="6.49614">
        <ele>2502</ele>
        <time>2018-06-26T08:34:26Z</time>
      </trkpt>
      <trkpt lat="45.29334" lon="6.49632">
        <ele>2503</ele>
        <time>2018-06-26T08:35:26Z</time>
      </trkpt>
      <trkpt lat="45.29328" lon="6.49644">
        <ele>2503</ele>
        <time>2018-06-26T08:36:26Z</time>
      </trkpt>
      <trkpt lat="45.29323" lon="6.49666">
        <ele>2505</ele>
        <time>2018-06-26T08:37:26Z</time>
      </trkpt>
      <trkpt lat="45.2932" lon="6.49683">
        <ele>2510</ele>
        <time>2018-06-26T08:38:26Z</time>
      </trkpt>
      <trkpt lat="45.29313" lon="6.49697">
        <ele>2511</ele>
        <time>2018-06-26T08:39:26Z</time>
      </trkpt>
      <trkpt lat="45.29306" lon="6.4971">
        <ele>2512</ele>
        <time>2018-06-26T08:40:26Z</time>
      </trkpt>
      <trkpt lat="45.29297" lon="6.49717">
        <ele>2512</ele>
        <time>2018-06-26T08:41:26Z</time>
      </trkpt>
      <trkpt lat="45.29294" lon="6.49735">
        <ele>2514</ele>
        <time>2018-06-26T08:42:26Z</time>
      </trkpt>
      <trkpt lat="45.29282" lon="6.49766">
        <ele>2524</ele>
        <time>2018-06-26T08:43:26Z</time>
      </trkpt>
      <trkpt lat="45.29274" lon="6.49772">
        <ele>2524</ele>
        <time>2018-06-26T08:44:26Z</time>
      </trkpt>
      <trkpt lat="45.29265" lon="6.49777">
        <ele>2524</ele>
        <time>2018-06-26T08:45:26Z</time>
      </trkpt>
      <trkpt lat="45.29257" lon="6.49783">
        <ele>2525</ele>
        <time>2018-06-26T08:46:26Z</time>
      </trkpt>
      <trkpt lat="45.29251" lon="6.49793">
        <ele>2526</ele>
        <time>2018-06-26T08:47:26Z</time>
      </trkpt>
      <trkpt lat="45.2924" lon="6.49811">
        <ele>2527</ele>
        <time>2018-06-26T08:48:26Z</time>
      </trkpt>
      <trkpt lat="45.29239" lon="6.49819">
        <ele>2528</ele>
        <time>2018-06-26T08:49:26Z</time>
      </trkpt>
      <trkpt lat="45.29235" lon="6.49824">
        <ele>2528</ele>
        <time>2018-06-26T08:50:26Z</time>
      </trkpt>
      <trkpt lat="45.29224" lon="6.49842">
        <ele>2536</ele>
        <time>2018-06-26T08:51:26Z</time>
      </trkpt>
      <trkpt lat="45.29221" lon="6.49854">
        <ele>2537</ele>
        <time>2018-06-26T08:52:26Z</time>
      </trkpt>
      <trkpt lat="45.29219" lon="6.49867">
        <ele>2538</ele>
        <time>2018-06-26T08:53:26Z</time>
      </trkpt>
      <trkpt lat="45.29214" lon="6.49874">
        <ele>2538</ele>
        <time>2018-06-26T08:54:26Z</time>
      </trkpt>
      <trkpt lat="45.29205" lon="6.49883">
        <ele>2539</ele>
        <time>2018-06-26T08:55:26Z</time>
      </trkpt>
      <trkpt lat="45.29204" lon="6.4989">
        <ele>2539</ele>
        <time>2018-06-26T08:56:26Z</time>
      </trkpt>
      <trkpt lat="45.29204" lon="6.49925">
        <ele>2547</ele>
        <time>2018-06-26T08:57:26Z</time>
      </trkpt>
      <trkpt lat="45.29197" lon="6.49937">
        <ele>2547</ele>
        <time>2018-06-26T08:58:26Z</time>
      </trkpt>
      <trkpt lat="45.29173" lon="6.49955">
        <ele>2548</ele>
        <time>2018-06-26T08:59:26Z</time>
      </trkpt>
      <trkpt lat="45.2917" lon="6.49959">
        <ele>2549</ele>
        <time>2018-06-26T09:00:26Z</time>
      </trkpt>
      <trkpt lat="45.2916" lon="6.49969">
        <ele>2550</ele>
        <time>2018-06-26T09:01:26Z</time>
      </trkpt>
      <trkpt lat="45.29155" lon="6.49971">
        <ele>2550</ele>
        <time>2018-06-26T09:02:26Z</time>
      </trkpt>
      <trkpt lat="45.29147" lon="6.4998">
        <ele>2551</ele>
        <time>2018-06-26T09:03:26Z</time>
      </trkpt>
      <trkpt lat="45.2914" lon="6.49984">
        <ele>2550</ele>
        <time>2018-06-26T09:04:26Z</time>
      </trkpt>
      <trkpt lat="45.29138" lon="6.49992">
        <ele>2551</ele>
        <time>2018-06-26T09:05:26Z</time>
      </trkpt>
      <trkpt lat="45.29151" lon="6.50029">
        <ele>2556</ele>
        <time>2018-06-26T09:06:26Z</time>
      </trkpt>
      <trkpt lat="45.29152" lon="6.50042">
        <ele>2556</ele>
        <time>2018-06-26T09:07:26Z</time>
      </trkpt>
      <trkpt lat="45.2915" lon="6.5005">
        <ele>2556</ele>
        <time>2018-06-26T09:08:26Z</time>
      </trkpt>
      <trkpt lat="45.29144" lon="6.50058">
        <ele>2556</ele>
        <time>2018-06-26T09:09:26Z</time>
      </trkpt>
      <trkpt lat="45.29124" lon="6.5006">
        <ele>2556</ele>
        <time>2018-06-26T09:10:26Z</time>
      </trkpt>
      <trkpt lat="45.2912" lon="6.50068">
        <ele>2556</ele>
        <time>2018-06-26T09:11:26Z</time>
      </trkpt>
      <trkpt lat="45.29118" lon="6.50091">
        <ele>2580</ele>
        <time>2018-06-26T09:12:26Z</time>
      </trkpt>
      <trkpt lat="45.29114" lon="6.5011">
        <ele>2586</ele>
        <time>2018-06-26T09:13:26Z</time>
      </trkpt>
      <trkpt lat="45.29113" lon="6.50119">
        <ele>2588</ele>
        <time>2018-06-26T09:14:26Z</time>
      </trkpt>
      <trkpt lat="45.29108" lon="6.5012">
        <ele>2589</ele>
        <time>2018-06-26T09:15:26Z</time>
      </trkpt>
      <trkpt lat="45.291" lon="6.50124">
        <ele>2591</ele>
        <time>2018-06-26T09:16:26Z</time>
      </trkpt>
      <trkpt lat="45.29096" lon="6.50127">
        <ele>2592</ele>
        <time>2018-06-26T09:17:26Z</time>
      </trkpt>
      <trkpt lat="45.29094" lon="6.50138">
        <ele>2595</ele>
        <time>2018-06-26T09:18:26Z</time>
      </trkpt>
      <trkpt lat="45.29093" lon="6.50143">
        <ele>2596</ele>
        <time>2018-06-26T09:19:26Z</time>
      </trkpt>
      <trkpt lat="45.29087" lon="6.5015">
        <ele>2599</ele>
        <time>2018-06-26T09:20:26Z</time>
      </trkpt>
      <trkpt lat="45.29078" lon="6.50153">
        <ele>2601</ele>
        <time>2018-06-26T09:21:26Z</time>
      </trkpt>
      <trkpt lat="45.29071" lon="6.50158">
        <ele>2603</ele>
        <time>2018-06-26T09:22:26Z</time>
      </trkpt>
      <trkpt lat="45.29068" lon="6.50168">
        <ele>2606</ele>
        <time>2018-06-26T09:23:26Z</time>
      </trkpt>
      <trkpt lat="45.29069" lon="6.50174">
        <ele>2608</ele>
        <time>2018-06-26T09:24:26Z</time>
      </trkpt>
      <trkpt lat="45.29068" lon="6.50186">
        <ele>2612</ele>
        <time>2018-06-26T09:25:26Z</time>
      </trkpt>
      <trkpt lat="45.29065" lon="6.50192">
        <ele>2614</ele>
        <time>2018-06-26T09:26:26Z</time>
      </trkpt>
      <trkpt lat="45.29061" lon="6.50195">
        <ele>2615</ele>
        <time>2018-06-26T09:27:26Z</time>
      </trkpt>
      <trkpt lat="45.29055" lon="6.50203">
        <ele>2618</ele>
        <time>2018-06-26T09:28:26Z</time>
      </trkpt>
      <trkpt lat="45.29056" lon="6.50214">
        <ele>2621</ele>
        <time>2018-06-26T09:29:26Z</time>
      </trkpt>
      <trkpt lat="45.29047" lon="6.50228">
        <ele>2626</ele>
        <time>2018-06-26T09:30:26Z</time>
      </trkpt>
      <trkpt lat="45.29041" lon="6.50229">
        <ele>2627</ele>
        <time>2018-06-26T09:31:26Z</time>
      </trkpt>
      <trkpt lat="45.29033" lon="6.50236">
        <ele>2630</ele>
        <time>2018-06-26T09:32:26Z</time>
      </trkpt>
      <trkpt lat="45.29024" lon="6.50236">
        <ele>2630</ele>
        <time>2018-06-26T09:33:26Z</time>
      </trkpt>
      <trkpt lat="45.29013" lon="6.50241">
        <ele>2632</ele>
        <time>2018-06-26T09:34:26Z</time>
      </trkpt>
      <trkpt lat="45.29011" lon="6.50245">
        <ele>2633</ele>
        <time>2018-06-26T09:35:26Z</time>
      </trkpt>
      <trkpt lat="45.29015" lon="6.50251">
        <ele>2635</ele>
        <time>2018-06-26T09:36:26Z</time>
      </trkpt>
      <trkpt lat="45.29018" lon="6.50258">
        <ele>2636</ele>
        <time>2018-06-26T09:37:26Z</time>
      </trkpt>
      <trkpt lat="45.29025" lon="6.50262">
        <ele>2637</ele>
        <time>2018-06-26T09:38:26Z</time>
      </trkpt>
      <trkpt lat="45.29028" lon="6.50266">
        <ele>2638</ele>
        <time>2018-06-26T09:39:26Z</time>
      </trkpt>
      <trkpt lat="45.29027" lon="6.50275">
        <ele>2641</ele>
        <time>2018-06-26T09:40:26Z</time>
      </trkpt>
      <trkpt lat="45.29026" lon="6.5028">
        <ele>2642</ele>
        <time>2018-06-26T09:41:26Z</time>
      </trkpt>
      <trkpt lat="45.29029" lon="6.50287">
        <ele>2644</ele>
        <time>2018-06-26T09:42:26Z</time>
      </trkpt>
      <trkpt lat="45.29034" lon="6.50293">
        <ele>2646</ele>
        <time>2018-06-26T09:43:26Z</time>
      </trkpt>
      <trkpt lat="45.29038" lon="6.50296">
        <ele>2647</ele>
        <time>2018-06-26T09:44:26Z</time>
      </trkpt>
      <trkpt lat="45.29044" lon="6.50297">
        <ele>2647</ele>
        <time>2018-06-26T09:45:26Z</time>
      </trkpt>
      <trkpt lat="45.29049" lon="6.50303">
        <ele>2649</ele>
        <time>2018-06-26T09:46:26Z</time>
      </trkpt>
      <trkpt lat="45.29055" lon="6.50316">
        <ele>2654</ele>
        <time>2018-06-26T09:47:26Z</time>
      </trkpt>
      <trkpt lat="45.29061" lon="6.5032">
        <ele>2655</ele>
        <time>2018-06-26T09:48:26Z</time>
      </trkpt>
      <trkpt lat="45.29069" lon="6.50323">
        <ele>2657</ele>
        <time>2018-06-26T09:49:26Z</time>
      </trkpt>
      <trkpt lat="45.29072" lon="6.50328">
        <ele>2658</ele>
        <time>2018-06-26T09:50:26Z</time>
      </trkpt>
      <trkpt lat="45.29067" lon="6.50346">
        <ele>2662</ele>
        <time>2018-06-26T09:51:26Z</time>
      </trkpt>
      <trkpt lat="45.29066" lon="6.50353">
        <ele>2663</ele>
        <time>2018-06-26T09:52:26Z</time>
      </trkpt>
      <trkpt lat="45.29063" lon="6.50364">
        <ele>2665</ele>
        <time>2018-06-26T09:53:26Z</time>
      </trkpt>
      <trkpt lat="45.29055" lon="6.50372">
        <ele>2665</ele>
        <time>2018-06-26T09:54:26Z</time>
      </trkpt>
      <trkpt lat="45.29051" lon="6.50382">
        <ele>2667</ele>
        <time>2018-06-26T09:55:26Z</time>
      </trkpt>
      <trkpt lat="45.29033" lon="6.50386">
        <ele>2666</ele>
        <time>2018-06-26T09:56:26Z</time>
      </trkpt>
      <trkpt lat="45.29033" lon="6.50387">
        <ele>2666</ele>
        <time>2018-06-26T09:57:26Z</time>
      </trkpt>
      <trkpt lat="45.29019" lon="6.50395">
        <ele>2667</ele>
        <time>2018-06-26T09:58:26Z</time>
      </trkpt>
      <trkpt lat="45.2901" lon="6.50401">
        <ele>2667</ele>
        <time>2018-06-26T09:59:26Z</time>
      </trkpt>
      <trkpt lat="45.29005" lon="6.50416">
        <ele>2669</ele>
        <time>2018-06-26T10:00:26Z</time>
      </trkpt>
      <trkpt lat="45.2899" lon="6.5042">
        <ele>2668</ele>
        <time>2018-06-26T10:01:26Z</time>
      </trkpt>
      <trkpt lat="45.28982" lon="6.50433">
        <ele>2665</ele>
        <time>2018-06-26T10:02:26Z</time>
      </trkpt>
      <trkpt lat="45.28968" lon="6.50456">
        <ele>2659</ele>
        <time>2018-06-26T10:03:26Z</time>
      </trkpt>
      <trkpt lat="45.2896" lon="6.5046">
        <ele>2658</ele>
        <time>2018-06-26T10:04:26Z</time>
      </trkpt>
      <trkpt lat="45.28954" lon="6.50473">
        <ele>2655</ele>
        <time>2018-06-26T10:05:26Z</time>
      </trkpt>
      <trkpt lat="45.28952" lon="6.50483">
        <ele>2653</ele>
        <time>2018-06-26T10:06:26Z</time>
      </trkpt>
      <trkpt lat="45.28944" lon="6.50492">
        <ele>2651</ele>
        <time>2018-06-26T10:07:26Z</time>
      </trkpt>
      <trkpt lat="45.28936" lon="6.50506">
        <ele>2649</ele>
        <time>2018-06-26T10:08:26Z</time>
      </trkpt>
      <trkpt lat="45.2893" lon="6.50522">
        <ele>2648</ele>
        <time>2018-06-26T10:09:26Z</time>
      </trkpt>
      <trkpt lat="45.28923" lon="6.5054">
        <ele>2646</ele>
        <time>2018-06-26T10:10:26Z</time>
      </trkpt>
      <trkpt lat="45.28917" lon="6.50547">
        <ele>2646</ele>
        <time>2018-06-26T10:11:26Z</time>
      </trkpt>
      <trkpt lat="45.28912" lon="6.50547">
        <ele>2646</ele>
        <time>2018-06-26T10:12:26Z</time>
      </trkpt>
      <trkpt lat="45.28906" lon="6.50543">
        <ele>2645</ele>
        <time>2018-06-26T10:13:26Z</time>
      </trkpt>
      <trkpt lat="45.28902" lon="6.50547">
        <ele>2645</ele>
        <time>2018-06-26T10:14:26Z</time>
      </trkpt>
      <trkpt lat="45.28891" lon="6.5055">
        <ele>2643</ele>
        <time>2018-06-26T10:15:26Z</time>
      </trkpt>
      <trkpt lat="45.28878" lon="6.5055">
        <ele>2642</ele>
        <time>2018-06-26T10:16:26Z</time>
      </trkpt>
      <trkpt lat="45.28854" lon="6.50555">
        <ele>2639</ele>
        <time>2018-06-26T10:17:26Z</time>
      </trkpt>
      <trkpt lat="45.28828" lon="6.50565">
        <ele>2634</ele>
        <time>2018-06-26T10:18:26Z</time>
      </trkpt>
      <trkpt lat="45.28817" lon="6.50572">
        <ele>2631</ele>
        <time>2018-06-26T10:19:26Z</time>
      </trkpt>
      <trkpt lat="45.2881" lon="6.50585">
        <ele>2627</ele>
        <time>2018-06-26T10:20:26Z</time>
      </trkpt>
      <trkpt lat="45.28802" lon="6.50597">
        <ele>2623</ele>
        <time>2018-06-26T10:21:26Z</time>
      </trkpt>
      <trkpt lat="45.28793" lon="6.50604">
        <ele>2620</ele>
        <time>2018-06-26T10:22:26Z</time>
      </trkpt>
      <trkpt lat="45.28787" lon="6.50604">
        <ele>2619</ele>
        <time>2018-06-26T10:23:26Z</time>
      </trkpt>
      <trkpt lat="45.28781" lon="6.50603">
        <ele>2618</ele>
        <time>2018-06-26T10:24:26Z</time>
      </trkpt>
      <trkpt lat="45.28777" lon="6.50598">
        <ele>2618</ele>
        <time>2018-06-26T10:25:26Z</time>
      </trkpt>
      <trkpt lat="45.28773" lon="6.50593">
        <ele>2618</ele>
        <time>2018-06-26T10:26:26Z</time>
      </trkpt>
      <trkpt lat="45.28771" lon="6.50595">
        <ele>2618</ele>
        <time>2018-06-26T10:27:26Z</time>
      </trkpt>
      <trkpt lat="45.2877" lon="6.50607">
        <ele>2616</ele>
        <time>2018-06-26T10:28:26Z</time>
      </trkpt>
      <trkpt lat="45.28767" lon="6.50636">
        <ele>2612</ele>
        <time>2018-06-26T10:29:26Z</time>
      </trkpt>
      <trkpt lat="45.28767" lon="6.50661">
        <ele>2609</ele>
        <time>2018-06-26T10:30:26Z</time>
      </trkpt>
      <trkpt lat="45.28765" lon="6.50689">
        <ele>2604</ele>
        <time>2018-06-26T10:31:26Z</time>
      </trkpt>
      <trkpt lat="45.28756" lon="6.50691">
        <ele>2604</ele>
        <time>2018-06-26T10:32:26Z</time>
      </trkpt>
      <trkpt lat="45.28744" lon="6.50698">
        <ele>2603</ele>
        <time>2018-06-26T10:33:26Z</time>
      </trkpt>
      <trkpt lat="45.28739" lon="6.50709">
        <ele>2601</ele>
        <time>2018-06-26T10:34:26Z</time>
      </trkpt>
      <trkpt lat="45.28723" lon="6.50739">
        <ele>2597</ele>
        <time>2018-06-26T10:35:26Z</time>
      </trkpt>
      <trkpt lat="45.28712" lon="6.50747">
        <ele>2596</ele>
        <time>2018-06-26T10:36:26Z</time>
      </trkpt>
      <trkpt lat="45.28712" lon="6.50763">
        <ele>2592</ele>
        <time>2018-06-26T10:37:26Z</time>
      </trkpt>
      <trkpt lat="45.28703" lon="6.5076">
        <ele>2593</ele>
        <time>2018-06-26T10:38:26Z</time>
      </trkpt>
      <trkpt lat="45.28695" lon="6.5076">
        <ele>2593</ele>
        <time>2018-06-26T10:39:26Z</time>
      </trkpt>
      <trkpt lat="45.28683" lon="6.50758">
        <ele>2594</ele>
        <time>2018-06-26T10:40:26Z</time>
      </trkpt>
      <trkpt lat="45.2868" lon="6.50761">
        <ele>2593</ele>
        <time>2018-06-26T10:41:26Z</time>
      </trkpt>
      <trkpt lat="45.28667" lon="6.50771">
        <ele>2590</ele>
        <time>2018-06-26T10:42:26Z</time>
      </trkpt>
      <trkpt lat="45.28657" lon="6.50773">
        <ele>2589</ele>
        <time>2018-06-26T10:43:26Z</time>
      </trkpt>
      <trkpt lat="45.28652" lon="6.50775">
        <ele>2588</ele>
        <time>2018-06-26T10:44:26Z</time>
      </trkpt>
      <trkpt lat="45.28648" lon="6.50775">
        <ele>2588</ele>
        <time>2018-06-26T10:45:26Z</time>
      </trkpt>
      <trkpt lat="45.28642" lon="6.50777">
        <ele>2587</ele>
        <time>2018-06-26T10:46:26Z</time>
      </trkpt>
      <trkpt lat="45.28639" lon="6.50784">
        <ele>2585</ele>
        <time>2018-06-26T10:47:26Z</time>
      </trkpt>
      <trkpt lat="45.28638" lon="6.50789">
        <ele>2584</ele>
        <time>2018-06-26T10:48:26Z</time>
      </trkpt>
      <trkpt lat="45.28641" lon="6.50798">
        <ele>2582</ele>
        <time>2018-06-26T10:49:26Z</time>
      </trkpt>
      <trkpt lat="45.28646" lon="6.50818">
        <ele>2577</ele>
        <time>2018-06-26T10:50:26Z</time>
      </trkpt>
      <trkpt lat="45.28652" lon="6.50827">
        <ele>2575</ele>
        <time>2018-06-26T10:51:26Z</time>
      </trkpt>
      <trkpt lat="45.28667" lon="6.50845">
        <ele>2551</ele>
        <time>2018-06-26T10:52:26Z</time>
      </trkpt>
      <trkpt lat="45.28673" lon="6.50854">
        <ele>2551</ele>
        <time>2018-06-26T10:53:26Z</time>
      </trkpt>
      <trkpt lat="45.28671" lon="6.50855">
        <ele>2551</ele>
        <time>2018-06-26T10:54:26Z</time>
      </trkpt>
      <trkpt lat="45.28665" lon="6.50856">
        <ele>2555</ele>
        <time>2018-06-26T10:55:26Z</time>
      </trkpt>
      <trkpt lat="45.28664" lon="6.50862">
        <ele>2555</ele>
        <time>2018-06-26T10:56:26Z</time>
      </trkpt>
      <trkpt lat="45.28669" lon="6.50868">
        <ele>2551</ele>
        <time>2018-06-26T10:57:26Z</time>
      </trkpt>
      <trkpt lat="45.28669" lon="6.50874">
        <ele>2551</ele>
        <time>2018-06-26T10:58:26Z</time>
      </trkpt>
      <trkpt lat="45.28672" lon="6.5088">
        <ele>2552</ele>
        <time>2018-06-26T10:59:26Z</time>
      </trkpt>
      <trkpt lat="45.28671" lon="6.50883">
        <ele>2552</ele>
        <time>2018-06-26T11:00:26Z</time>
      </trkpt>
      <trkpt lat="45.28669" lon="6.50887">
        <ele>2552</ele>
        <time>2018-06-26T11:01:26Z</time>
      </trkpt>
      <trkpt lat="45.28676" lon="6.50892">
        <ele>2552</ele>
        <time>2018-06-26T11:02:26Z</time>
      </trkpt>
      <trkpt lat="45.28686" lon="6.50907">
        <ele>2552</ele>
        <time>2018-06-26T11:03:26Z</time>
      </trkpt>
      <trkpt lat="45.28691" lon="6.50912">
        <ele>2552</ele>
        <time>2018-06-26T11:04:26Z</time>
      </trkpt>
      <trkpt lat="45.28698" lon="6.50914">
        <ele>2551</ele>
        <time>2018-06-26T11:05:26Z</time>
      </trkpt>
      <trkpt lat="45.28702" lon="6.50921">
        <ele>2542</ele>
        <time>2018-06-26T11:06:26Z</time>
      </trkpt>
      <trkpt lat="45.28707" lon="6.50924">
        <ele>2541</ele>
        <time>2018-06-26T11:07:26Z</time>
      </trkpt>
      <trkpt lat="45.28732" lon="6.50946">
        <ele>2537</ele>
        <time>2018-06-26T11:08:26Z</time>
      </trkpt>
      <trkpt lat="45.28739" lon="6.50949">
        <ele>2536</ele>
        <time>2018-06-26T11:09:26Z</time>
      </trkpt>
      <trkpt lat="45.28743" lon="6.50948">
        <ele>2536</ele>
        <time>2018-06-26T11:10:26Z</time>
      </trkpt>
      <trkpt lat="45.28748" lon="6.50943">
        <ele>2537</ele>
        <time>2018-06-26T11:11:26Z</time>
      </trkpt>
      <trkpt lat="45.28752" lon="6.50936">
        <ele>2531</ele>
        <time>2018-06-26T11:12:26Z</time>
      </trkpt>
      <trkpt lat="45.28756" lon="6.5093">
        <ele>2534</ele>
        <time>2018-06-26T11:13:26Z</time>
      </trkpt>
      <trkpt lat="45.28761" lon="6.50931">
        <ele>2532</ele>
        <time>2018-06-26T11:14:26Z</time>
      </trkpt>
      <trkpt lat="45.28768" lon="6.50933">
        <ele>2530</ele>
        <time>2018-06-26T11:15:26Z</time>
      </trkpt>
      <trkpt lat="45.28783" lon="6.50933">
        <ele>2526</ele>
        <time>2018-06-26T11:16:26Z</time>
      </trkpt>
      <trkpt lat="45.288" lon="6.50934">
        <ele>2524</ele>
        <time>2018-06-26T11:17:26Z</time>
      </trkpt>
      <trkpt lat="45.28804" lon="6.5093">
        <ele>2524</ele>
        <time>2018-06-26T11:18:26Z</time>
      </trkpt>
      <trkpt lat="45.28811" lon="6.50924">
        <ele>2525</ele>
        <time>2018-06-26T11:19:26Z</time>
      </trkpt>
      <trkpt lat="45.28817" lon="6.50926">
        <ele>2525</ele>
        <time>2018-06-26T11:20:26Z</time>
      </trkpt>
      <trkpt lat="45.28826" lon="6.50925">
        <ele>2525</ele>
        <time>2018-06-26T11:21:26Z</time>
      </trkpt>
      <trkpt lat="45.28832" lon="6.5092">
        <ele>2527</ele>
        <time>2018-06-26T11:22:26Z</time>
      </trkpt>
      <trkpt lat="45.28841" lon="6.50918">
        <ele>2524</ele>
        <time>2018-06-26T11:23:26Z</time>
      </trkpt>
      <trkpt lat="45.2885" lon="6.50919">
        <ele>2520</ele>
        <time>2018-06-26T11:24:26Z</time>
      </trkpt>
      <trkpt lat="45.28857" lon="6.50922">
        <ele>2518</ele>
        <time>2018-06-26T11:25:26Z</time>
      </trkpt>
      <trkpt lat="45.28863" lon="6.50931">
        <ele>2516</ele>
        <time>2018-06-26T11:26:26Z</time>
      </trkpt>
      <trkpt lat="45.28874" lon="6.50949">
        <ele>2513</ele>
        <time>2018-06-26T11:27:26Z</time>
      </trkpt>
      <trkpt lat="45.28879" lon="6.50949">
        <ele>2512</ele>
        <time>2018-06-26T11:28:26Z</time>
      </trkpt>
      <trkpt lat="45.2889" lon="6.50946">
        <ele>2513</ele>
        <time>2018-06-26T11:29:26Z</time>
      </trkpt>
      <trkpt lat="45.28895" lon="6.50939">
        <ele>2514</ele>
        <time>2018-06-26T11:30:26Z</time>
      </trkpt>
      <trkpt lat="45.28903" lon="6.50937">
        <ele>2514</ele>
        <time>2018-06-26T11:31:26Z</time>
      </trkpt>
      <trkpt lat="45.28917" lon="6.50935">
        <ele>2517</ele>
        <time>2018-06-26T11:32:26Z</time>
      </trkpt>
      <trkpt lat="45.28925" lon="6.50938">
        <ele>2517</ele>
        <time>2018-06-26T11:33:26Z</time>
      </trkpt>
      <trkpt lat="45.28932" lon="6.50946">
        <ele>2516</ele>
        <time>2018-06-26T11:34:26Z</time>
      </trkpt>
      <trkpt lat="45.28946" lon="6.50958">
        <ele>2515</ele>
        <time>2018-06-26T11:35:26Z</time>
      </trkpt>
      <trkpt lat="45.28954" lon="6.50959">
        <ele>2516</ele>
        <time>2018-06-26T11:36:26Z</time>
      </trkpt>
      <trkpt lat="45.28957" lon="6.50967">
        <ele>2515</ele>
        <time>2018-06-26T11:37:26Z</time>
      </trkpt>
      <trkpt lat="45.2896" lon="6.50985">
        <ele>2513</ele>
        <time>2018-06-26T11:38:26Z</time>
      </trkpt>
      <trkpt lat="45.28967" lon="6.50992">
        <ele>2513</ele>
        <time>2018-06-26T11:39:26Z</time>
      </trkpt>
      <trkpt lat="45.28972" lon="6.50996">
        <ele>2513</ele>
        <time>2018-06-26T11:40:26Z</time>
      </trkpt>
      <trkpt lat="45.28989" lon="6.51">
        <ele>2513</ele>
        <time>2018-06-26T11:41:26Z</time>
      </trkpt>
      <trkpt lat="45.28995" lon="6.51002">
        <ele>2509</ele>
        <time>2018-06-26T11:42:26Z</time>
      </trkpt>
      <trkpt lat="45.29013" lon="6.51009">
        <ele>2513</ele>
        <time>2018-06-26T11:43:26Z</time>
      </trkpt>
      <trkpt lat="45.29017" lon="6.51014">
        <ele>2513</ele>
        <time>2018-06-26T11:44:26Z</time>
      </trkpt>
      <trkpt lat="45.29024" lon="6.5102">
        <ele>2514</ele>
        <time>2018-06-26T11:45:26Z</time>
      </trkpt>
      <trkpt lat="45.2903" lon="6.51029">
        <ele>2514</ele>
        <time>2018-06-26T11:46:26Z</time>
      </trkpt>
      <trkpt lat="45.29038" lon="6.51053">
        <ele>2512</ele>
        <time>2018-06-26T11:47:26Z</time>
      </trkpt>
      <trkpt lat="45.29044" lon="6.51066">
        <ele>2511</ele>
        <time>2018-06-26T11:48:26Z</time>
      </trkpt>
      <trkpt lat="45.29049" lon="6.51072">
        <ele>2512</ele>
        <time>2018-06-26T11:49:26Z</time>
      </trkpt>
      <trkpt lat="45.29051" lon="6.51078">
        <ele>2512</ele>
        <time>2018-06-26T11:50:26Z</time>
      </trkpt>
      <trkpt lat="45.29047" lon="6.511">
        <ele>2499</ele>
        <time>2018-06-26T11:51:26Z</time>
      </trkpt>
      <trkpt lat="45.29047" lon="6.51112">
        <ele>2498</ele>
        <time>2018-06-26T11:52:26Z</time>
      </trkpt>
      <trkpt lat="45.29046" lon="6.51119">
        <ele>2497</ele>
        <time>2018-06-26T11:53:26Z</time>
      </trkpt>
      <trkpt lat="45.29047" lon="6.51133">
        <ele>2496</ele>
        <time>2018-06-26T11:54:26Z</time>
      </trkpt>
      <trkpt lat="45.29048" lon="6.51142">
        <ele>2495</ele>
        <time>2018-06-26T11:55:26Z</time>
      </trkpt>
      <trkpt lat="45.2905" lon="6.5115">
        <ele>2495</ele>
        <time>2018-06-26T11:56:26Z</time>
      </trkpt>
      <trkpt lat="45.29056" lon="6.51172">
        <ele>2488</ele>
        <time>2018-06-26T11:57:26Z</time>
      </trkpt>
      <trkpt lat="45.29058" lon="6.51184">
        <ele>2487</ele>
        <time>2018-06-26T11:58:26Z</time>
      </trkpt>
      <trkpt lat="45.29062" lon="6.51197">
        <ele>2486</ele>
        <time>2018-06-26T11:59:26Z</time>
      </trkpt>
      <trkpt lat="45.29067" lon="6.51201">
        <ele>2486</ele>
        <time>2018-06-26T12:00:26Z</time>
      </trkpt>
      <trkpt lat="45.29069" lon="6.5121">
        <ele>2485</ele>
        <time>2018-06-26T12:01:26Z</time>
      </trkpt>
      <trkpt lat="45.29063" lon="6.51235">
        <ele>2483</ele>
        <time>2018-06-26T12:02:26Z</time>
      </trkpt>
      <trkpt lat="45.29057" lon="6.51269">
        <ele>2477</ele>
        <time>2018-06-26T12:03:26Z</time>
      </trkpt>
      <trkpt lat="45.29054" lon="6.51279">
        <ele>2477</ele>
        <time>2018-06-26T12:04:26Z</time>
      </trkpt>
      <trkpt lat="45.2905" lon="6.51284">
        <ele>2477</ele>
        <time>2018-06-26T12:05:26Z</time>
      </trkpt>
      <trkpt lat="45.29044" lon="6.51285">
        <ele>2476</ele>
        <time>2018-06-26T12:06:26Z</time>
      </trkpt>
      <trkpt lat="45.29036" lon="6.51283">
        <ele>2476</ele>
        <time>2018-06-26T12:07:26Z</time>
      </trkpt>
      <trkpt lat="45.2903" lon="6.51287">
        <ele>2475</ele>
        <time>2018-06-26T12:08:26Z</time>
      </trkpt>
      <trkpt lat="45.29023" lon="6.51282">
        <ele>2475</ele>
        <time>2018-06-26T12:09:26Z</time>
      </trkpt>
      <trkpt lat="45.29016" lon="6.5128">
        <ele>2475</ele>
        <time>2018-06-26T12:10:26Z</time>
      </trkpt>
      <trkpt lat="45.29007" lon="6.5128">
        <ele>2475</ele>
        <time>2018-06-26T12:11:26Z</time>
      </trkpt>
      <trkpt lat="45.29001" lon="6.51282">
        <ele>2474</ele>
        <time>2018-06-26T12:12:26Z</time>
      </trkpt>
      <trkpt lat="45.28964" lon="6.51278">
        <ele>2467</ele>
        <time>2018-06-26T12:13:26Z</time>
      </trkpt>
      <trkpt lat="45.28949" lon="6.51273">
        <ele>2466</ele>
        <time>2018-06-26T12:14:26Z</time>
      </trkpt>
      <trkpt lat="45.2893" lon="6.51269">
        <ele>2466</ele>
        <time>2018-06-26T12:15:26Z</time>
      </trkpt>
      <trkpt lat="45.28922" lon="6.51269">
        <ele>2466</ele>
        <time>2018-06-26T12:16:26Z</time>
      </trkpt>
      <trkpt lat="45.28916" lon="6.51272">
        <ele>2462</ele>
        <time>2018-06-26T12:17:26Z</time>
      </trkpt>
      <trkpt lat="45.28907" lon="6.51271">
        <ele>2462</ele>
        <time>2018-06-26T12:18:26Z</time>
      </trkpt>
      <trkpt lat="45.28876" lon="6.51266">
        <ele>2461</ele>
        <time>2018-06-26T12:19:26Z</time>
      </trkpt>
      <trkpt lat="45.28866" lon="6.51268">
        <ele>2461</ele>
        <time>2018-06-26T12:20:26Z</time>
      </trkpt>
      <trkpt lat="45.28861" lon="6.51273">
        <ele>2461</ele>
        <time>2018-06-26T12:21:26Z</time>
      </trkpt>
      <trkpt lat="45.28856" lon="6.51289">
        <ele>2460</ele>
        <time>2018-06-26T12:22:26Z</time>
      </trkpt>
      <trkpt lat="45.28856" lon="6.513">
        <ele>2459</ele>
        <time>2018-06-26T12:23:26Z</time>
      </trkpt>
      <trkpt lat="45.28858" lon="6.51318">
        <ele>2458</ele>
        <time>2018-06-26T12:24:26Z</time>
      </trkpt>
      <trkpt lat="45.28861" lon="6.51326">
        <ele>2458</ele>
        <time>2018-06-26T12:25:26Z</time>
      </trkpt>
      <trkpt lat="45.2887" lon="6.51331">
        <ele>2458</ele>
        <time>2018-06-26T12:26:26Z</time>
      </trkpt>
      <trkpt lat="45.28874" lon="6.51338">
        <ele>2446</ele>
        <time>2018-06-26T12:27:26Z</time>
      </trkpt>
      <trkpt lat="45.28879" lon="6.51342">
        <ele>2446</ele>
        <time>2018-06-26T12:28:26Z</time>
      </trkpt>
      <trkpt lat="45.28887" lon="6.51343">
        <ele>2446</ele>
        <time>2018-06-26T12:29:26Z</time>
      </trkpt>
      <trkpt lat="45.28888" lon="6.51352">
        <ele>2445</ele>
        <time>2018-06-26T12:30:26Z</time>
      </trkpt>
      <trkpt lat="45.28892" lon="6.5136">
        <ele>2444</ele>
        <time>2018-06-26T12:31:26Z</time>
      </trkpt>
      <trkpt lat="45.28907" lon="6.51373">
        <ele>2441</ele>
        <time>2018-06-26T12:32:26Z</time>
      </trkpt>
      <trkpt lat="45.28922" lon="6.51389">
        <ele>2437</ele>
        <time>2018-06-26T12:33:26Z</time>
      </trkpt>
      <trkpt lat="45.28931" lon="6.5141">
        <ele>2432</ele>
        <time>2018-06-26T12:34:26Z</time>
      </trkpt>
      <trkpt lat="45.28939" lon="6.51416">
        <ele>2434</ele>
        <time>2018-06-26T12:35:26Z</time>
      </trkpt>
      <trkpt lat="45.28945" lon="6.51415">
        <ele>2436</ele>
        <time>2018-06-26T12:36:26Z</time>
      </trkpt>
      <trkpt lat="45.28946" lon="6.51416">
        <ele>2436</ele>
        <time>2018-06-26T12:37:26Z</time>
      </trkpt>
      <trkpt lat="45.28951" lon="6.5142">
        <ele>2421</ele>
        <time>2018-06-26T12:38:26Z</time>
      </trkpt>
      <trkpt lat="45.28953" lon="6.51427">
        <ele>2421</ele>
        <time>2018-06-26T12:39:26Z</time>
      </trkpt>
      <trkpt lat="45.28955" lon="6.51438">
        <ele>2420</ele>
        <time>2018-06-26T12:40:26Z</time>
      </trkpt>
      <trkpt lat="45.28955" lon="6.51447">
        <ele>2419</ele>
        <time>2018-06-26T12:41:26Z</time>
      </trkpt>
      <trkpt lat="45.28959" lon="6.51468">
        <ele>2416</ele>
        <time>2018-06-26T12:42:26Z</time>
      </trkpt>
      <trkpt lat="45.28958" lon="6.5148">
        <ele>2415</ele>
        <time>2018-06-26T12:43:26Z</time>
      </trkpt>
      <trkpt lat="45.28959" lon="6.51492">
        <ele>2414</ele>
        <time>2018-06-26T12:44:26Z</time>
      </trkpt>
      <trkpt lat="45.28966" lon="6.51515">
        <ele>2399</ele>
        <time>2018-06-26T12:45:26Z</time>
      </trkpt>
      <trkpt lat="45.28967" lon="6.51542">
        <ele>2396</ele>
        <time>2018-06-26T12:46:26Z</time>
      </trkpt>
      <trkpt lat="45.2897" lon="6.51555">
        <ele>2395</ele>
        <time>2018-06-26T12:47:26Z</time>
      </trkpt>
      <trkpt lat="45.2897" lon="6.51571">
        <ele>2393</ele>
        <time>2018-06-26T12:48:26Z</time>
      </trkpt>
      <trkpt lat="45.2897" lon="6.51588">
        <ele>2383</ele>
        <time>2018-06-26T12:49:26Z</time>
      </trkpt>
      <trkpt lat="45.28972" lon="6.516">
        <ele>2382</ele>
        <time>2018-06-26T12:50:26Z</time>
      </trkpt>
      <trkpt lat="45.28972" lon="6.51617">
        <ele>2381</ele>
        <time>2018-06-26T12:51:26Z</time>
      </trkpt>
      <trkpt lat="45.28967" lon="6.5165">
        <ele>2378</ele>
        <time>2018-06-26T12:52:26Z</time>
      </trkpt>
      <trkpt lat="45.28967" lon="6.51664">
        <ele>2378</ele>
        <time>2018-06-26T12:53:26Z</time>
      </trkpt>
      <trkpt lat="45.28963" lon="6.51723">
        <ele>2371</ele>
        <time>2018-06-26T12:54:26Z</time>
      </trkpt>
      <trkpt lat="45.2896" lon="6.51734">
        <ele>2370</ele>
        <time>2018-06-26T12:55:26Z</time>
      </trkpt>
      <trkpt lat="45.28951" lon="6.51758">
        <ele>2366</ele>
        <time>2018-06-26T12:56:26Z</time>
      </trkpt>
      <trkpt lat="45.28949" lon="6.51771">
        <ele>2366</ele>
        <time>2018-06-26T12:57:26Z</time>
      </trkpt>
      <trkpt lat="45.2895" lon="6.51793">
        <ele>2366</ele>
        <time>2018-06-26T12:58:26Z</time>
      </trkpt>
      <trkpt lat="45.28946" lon="6.51794">
        <ele>2365</ele>
        <time>2018-06-26T12:59:26Z</time>
      </trkpt>
      <trkpt lat="45.2894" lon="6.51791">
        <ele>2365</ele>
        <time>2018-06-26T13:00:26Z</time>
      </trkpt>
      <trkpt lat="45.28933" lon="6.51789">
        <ele>2365</ele>
        <time>2018-06-26T13:01:26Z</time>
      </trkpt>
      <trkpt lat="45.28925" lon="6.5179">
        <ele>2365</ele>
        <time>2018-06-26T13:02:26Z</time>
      </trkpt>
      <trkpt lat="45.28911" lon="6.51802">
        <ele>2357</ele>
        <time>2018-06-26T13:03:26Z</time>
      </trkpt>
      <trkpt lat="45.28906" lon="6.518">
        <ele>2357</ele>
        <time>2018-06-26T13:04:26Z</time>
      </trkpt>
      <trkpt lat="45.28895" lon="6.51774">
        <ele>2357</ele>
        <time>2018-06-26T13:05:26Z</time>
      </trkpt>
      <trkpt lat="45.28882" lon="6.51762">
        <ele>2356</ele>
        <time>2018-06-26T13:06:26Z</time>
      </trkpt>
      <trkpt lat="45.28873" lon="6.51756">
        <ele>2355</ele>
        <time>2018-06-26T13:07:26Z</time>
      </trkpt>
      <trkpt lat="45.28863" lon="6.5176">
        <ele>2353</ele>
        <time>2018-06-26T13:08:26Z</time>
      </trkpt>
      <trkpt lat="45.28856" lon="6.51768">
        <ele>2353</ele>
        <time>2018-06-26T13:09:26Z</time>
      </trkpt>
      <trkpt lat="45.28851" lon="6.51778">
        <ele>2352</ele>
        <time>2018-06-26T13:10:26Z</time>
      </trkpt>
      <trkpt lat="45.28843" lon="6.51789">
        <ele>2351</ele>
        <time>2018-06-26T13:11:26Z</time>
      </trkpt>
      <trkpt lat="45.28837" lon="6.51804">
        <ele>2350</ele>
        <time>2018-06-26T13:12:26Z</time>
      </trkpt>
      <trkpt lat="45.28834" lon="6.5182">
        <ele>2346</ele>
        <time>2018-06-26T13:13:26Z</time>
      </trkpt>
      <trkpt lat="45.28835" lon="6.51837">
        <ele>2341</ele>
        <time>2018-06-26T13:14:26Z</time>
      </trkpt>
      <trkpt lat="45.28838" lon="6.51851">
        <ele>2341</ele>
        <time>2018-06-26T13:15:26Z</time>
      </trkpt>
      <trkpt lat="45.28849" lon="6.51872">
        <ele>2339</ele>
        <time>2018-06-26T13:16:26Z</time>
      </trkpt>
      <trkpt lat="45.28853" lon="6.51886">
        <ele>2337</ele>
        <time>2018-06-26T13:17:26Z</time>
      </trkpt>
      <trkpt lat="45.28857" lon="6.51916">
        <ele>2334</ele>
        <time>2018-06-26T13:18:26Z</time>
      </trkpt>
      <trkpt lat="45.28857" lon="6.51928">
        <ele>2318</ele>
        <time>2018-06-26T13:19:26Z</time>
      </trkpt>
      <trkpt lat="45.28855" lon="6.51936">
        <ele>2317</ele>
        <time>2018-06-26T13:20:26Z</time>
      </trkpt>
      <trkpt lat="45.28847" lon="6.51947">
        <ele>2314</ele>
        <time>2018-06-26T13:21:26Z</time>
      </trkpt>
      <trkpt lat="45.2885" lon="6.5197">
        <ele>2309</ele>
        <time>2018-06-26T13:22:26Z</time>
      </trkpt>
      <trkpt lat="45.2885" lon="6.51978">
        <ele>2307</ele>
        <time>2018-06-26T13:23:26Z</time>
      </trkpt>
      <trkpt lat="45.28845" lon="6.51982">
        <ele>2305</ele>
        <time>2018-06-26T13:24:26Z</time>
      </trkpt>
      <trkpt lat="45.28838" lon="6.51981">
        <ele>2304</ele>
        <time>2018-06-26T13:25:26Z</time>
      </trkpt>
      <trkpt lat="45.28834" lon="6.51978">
        <ele>2305</ele>
        <time>2018-06-26T13:26:26Z</time>
      </trkpt>
      <trkpt lat="45.28831" lon="6.5198">
        <ele>2302</ele>
        <time>2018-06-26T13:27:26Z</time>
      </trkpt>
      <trkpt lat="45.28829" lon="6.51996">
        <ele>2297</ele>
        <time>2018-06-26T13:28:26Z</time>
      </trkpt>
      <trkpt lat="45.28833" lon="6.52001">
        <ele>2294</ele>
        <time>2018-06-26T13:29:26Z</time>
      </trkpt>
      <trkpt lat="45.28848" lon="6.52013">
        <ele>2284</ele>
        <time>2018-06-26T13:30:26Z</time>
      </trkpt>
      <trkpt lat="45.28863" lon="6.52029">
        <ele>2279</ele>
        <time>2018-06-26T13:31:26Z</time>
      </trkpt>
      <trkpt lat="45.28874" lon="6.52035">
        <ele>2277</ele>
        <time>2018-06-26T13:32:26Z</time>
      </trkpt>
      <trkpt lat="45.28886" lon="6.52038">
        <ele>2276</ele>
        <time>2018-06-26T13:33:26Z</time>
      </trkpt>
      <trkpt lat="45.28895" lon="6.52042">
        <ele>2275</ele>
        <time>2018-06-26T13:34:26Z</time>
      </trkpt>
      <trkpt lat="45.28905" lon="6.52047">
        <ele>2273</ele>
        <time>2018-06-26T13:35:26Z</time>
      </trkpt>
      <trkpt lat="45.28915" lon="6.52055">
        <ele>2269</ele>
        <time>2018-06-26T13:36:26Z</time>
      </trkpt>
      <trkpt lat="45.28946" lon="6.52083">
        <ele>2267</ele>
        <time>2018-06-26T13:37:26Z</time>
      </trkpt>
      <trkpt lat="45.28961" lon="6.52103">
        <ele>2244</ele>
        <time>2018-06-26T13:38:26Z</time>
      </trkpt>
      <trkpt lat="45.28969" lon="6.52115">
        <ele>2242</ele>
        <time>2018-06-26T13:39:26Z</time>
      </trkpt>
      <trkpt lat="45.28981" lon="6.52145">
        <ele>2237</ele>
        <time>2018-06-26T13:40:26Z</time>
      </trkpt>
      <trkpt lat="45.28988" lon="6.52157">
        <ele>2235</ele>
        <time>2018-06-26T13:41:26Z</time>
      </trkpt>
      <trkpt lat="45.28996" lon="6.52189">
        <ele>2218</ele>
        <time>2018-06-26T13:42:26Z</time>
      </trkpt>
      <trkpt lat="45.29004" lon="6.52206">
        <ele>2220</ele>
        <time>2018-06-26T13:43:26Z</time>
      </trkpt>
      <trkpt lat="45.2901" lon="6.52222">
        <ele>2216</ele>
        <time>2018-06-26T13:44:26Z</time>
      </trkpt>
      <trkpt lat="45.29015" lon="6.52241">
        <ele>2212</ele>
        <time>2018-06-26T13:45:26Z</time>
      </trkpt>
      <trkpt lat="45.29025" lon="6.5227">
        <ele>2195</ele>
        <time>2018-06-26T13:46:26Z</time>
      </trkpt>
      <trkpt lat="45.2903" lon="6.52274">
        <ele>2194</ele>
        <time>2018-06-26T13:47:26Z</time>
      </trkpt>
      <trkpt lat="45.2904" lon="6.52274">
        <ele>2194</ele>
        <time>2018-06-26T13:48:26Z</time>
      </trkpt>
      <trkpt lat="45.29048" lon="6.52276">
        <ele>2194</ele>
        <time>2018-06-26T13:49:26Z</time>
      </trkpt>
      <trkpt lat="45.29056" lon="6.52279">
        <ele>2194</ele>
        <time>2018-06-26T13:50:26Z</time>
      </trkpt>
      <trkpt lat="45.29062" lon="6.52284">
        <ele>2194</ele>
        <time>2018-06-26T13:51:26Z</time>
      </trkpt>
      <trkpt lat="45.29071" lon="6.52299">
        <ele>2191</ele>
        <time>2018-06-26T13:52:26Z</time>
      </trkpt>
      <trkpt lat="45.29079" lon="6.52305">
        <ele>2190</ele>
        <time>2018-06-26T13:53:26Z</time>
      </trkpt>
      <trkpt lat="45.29085" lon="6.52315">
        <ele>2193</ele>
        <time>2018-06-26T13:54:26Z</time>
      </trkpt>
      <trkpt lat="45.29099" lon="6.52342">
        <ele>2178</ele>
        <time>2018-06-26T13:55:26Z</time>
      </trkpt>
      <trkpt lat="45.29108" lon="6.52351">
        <ele>2177</ele>
        <time>2018-06-26T13:56:26Z</time>
      </trkpt>
      <trkpt lat="45.29117" lon="6.52355">
        <ele>2177</ele>
        <time>2018-06-26T13:57:26Z</time>
      </trkpt>
      <trkpt lat="45.29122" lon="6.52366">
        <ele>2175</ele>
        <time>2018-06-26T13:58:26Z</time>
      </trkpt>
      <trkpt lat="45.29126" lon="6.52385">
        <ele>2172</ele>
        <time>2018-06-26T13:59:26Z</time>
      </trkpt>
      <trkpt lat="45.29131" lon="6.524">
        <ele>2170</ele>
        <time>2018-06-26T14:00:26Z</time>
      </trkpt>
      <trkpt lat="45.2914" lon="6.52413">
        <ele>2170</ele>
        <time>2018-06-26T14:01:26Z</time>
      </trkpt>
      <trkpt lat="45.2915" lon="6.52428">
        <ele>2155</ele>
        <time>2018-06-26T14:02:26Z</time>
      </trkpt>
      <trkpt lat="45.29158" lon="6.52444">
        <ele>2152</ele>
        <time>2018-06-26T14:03:26Z</time>
      </trkpt>
      <trkpt lat="45.29174" lon="6.52471">
        <ele>2161</ele>
        <time>2018-06-26T14:04:26Z</time>
      </trkpt>
      <trkpt lat="45.29192" lon="6.5249">
        <ele>2160</ele>
        <time>2018-06-26T14:05:26Z</time>
      </trkpt>
      <trkpt lat="45.29198" lon="6.52491">
        <ele>2161</ele>
        <time>2018-06-26T14:06:26Z</time>
      </trkpt>
      <trkpt lat="45.29201" lon="6.52495">
        <ele>2162</ele>
        <time>2018-06-26T14:07:26Z</time>
      </trkpt>
      <trkpt lat="45.29204" lon="6.52506">
        <ele>2147</ele>
        <time>2018-06-26T14:08:26Z</time>
      </trkpt>
      <trkpt lat="45.29209" lon="6.52512">
        <ele>2148</ele>
        <time>2018-06-26T14:09:26Z</time>
      </trkpt>
      <trkpt lat="45.29211" lon="6.52521">
        <ele>2147</ele>
        <time>2018-06-26T14:10:26Z</time>
      </trkpt>
      <trkpt lat="45.29212" lon="6.52537">
        <ele>2145</ele>
        <time>2018-06-26T14:11:26Z</time>
      </trkpt>
      <trkpt lat="45.29215" lon="6.52549">
        <ele>2144</ele>
        <time>2018-06-26T14:12:26Z</time>
      </trkpt>
      <trkpt lat="45.29221" lon="6.52565">
        <ele>2143</ele>
        <time>2018-06-26T14:13:26Z</time>
      </trkpt>
      <trkpt lat="45.29229" lon="6.5258">
        <ele>2142</ele>
        <time>2018-06-26T14:14:26Z</time>
      </trkpt>
      <trkpt lat="45.29236" lon="6.52595">
        <ele>2134</ele>
        <time>2018-06-26T14:15:26Z</time>
      </trkpt>
      <trkpt lat="45.29252" lon="6.5262">
        <ele>2141</ele>
        <time>2018-06-26T14:16:26Z</time>
      </trkpt>
      <trkpt lat="45.29256" lon="6.52637">
        <ele>2139</ele>
        <time>2018-06-26T14:17:26Z</time>
      </trkpt>
      <trkpt lat="45.29261" lon="6.52681">
        <ele>2125</ele>
        <time>2018-06-26T14:18:26Z</time>
      </trkpt>
      <trkpt lat="45.29265" lon="6.527">
        <ele>2122</ele>
        <time>2018-06-26T14:19:26Z</time>
      </trkpt>
      <trkpt lat="45.29272" lon="6.5272">
        <ele>2119</ele>
        <time>2018-06-26T14:20:26Z</time>
      </trkpt>
      <trkpt lat="45.29281" lon="6.5274">
        <ele>2117</ele>
        <time>2018-06-26T14:21:26Z</time>
      </trkpt>
      <trkpt lat="45.29291" lon="6.52754">
        <ele>2103</ele>
        <time>2018-06-26T14:22:26Z</time>
      </trkpt>
      <trkpt lat="45.29309" lon="6.52773">
        <ele>2104</ele>
        <time>2018-06-26T14:23:26Z</time>
      </trkpt>
      <trkpt lat="45.29313" lon="6.52785">
        <ele>2102</ele>
        <time>2018-06-26T14:24:26Z</time>
      </trkpt>
      <trkpt lat="45.29312" lon="6.52797">
        <ele>2100</ele>
        <time>2018-06-26T14:25:26Z</time>
      </trkpt>
      <trkpt lat="45.29315" lon="6.52807">
        <ele>2098</ele>
        <time>2018-06-26T14:26:26Z</time>
      </trkpt>
      <trkpt lat="45.29325" lon="6.52824">
        <ele>2096</ele>
        <time>2018-06-26T14:27:26Z</time>
      </trkpt>
      <trkpt lat="45.29324" lon="6.5283">
        <ele>2096</ele>
        <time>2018-06-26T14:28:26Z</time>
      </trkpt>
      <trkpt lat="45.29317" lon="6.52837">
        <ele>2087</ele>
        <time>2018-06-26T14:29:26Z</time>
      </trkpt>
      <trkpt lat="45.29309" lon="6.52848">
        <ele>2083</ele>
        <time>2018-06-26T14:30:26Z</time>
      </trkpt>
      <trkpt lat="45.29306" lon="6.52858">
        <ele>2081</ele>
        <time>2018-06-26T14:31:26Z</time>
      </trkpt>
      <trkpt lat="45.29304" lon="6.52872">
        <ele>2079</ele>
        <time>2018-06-26T14:32:26Z</time>
      </trkpt>
      <trkpt lat="45.29303" lon="6.52887">
        <ele>2078</ele>
        <time>2018-06-26T14:33:26Z</time>
      </trkpt>
      <trkpt lat="45.29304" lon="6.52905">
        <ele>2076</ele>
        <time>2018-06-26T14:34:26Z</time>
      </trkpt>
      <trkpt lat="45.29302" lon="6.5292">
        <ele>2066</ele>
        <time>2018-06-26T14:35:26Z</time>
      </trkpt>
      <trkpt lat="45.29301" lon="6.52928">
        <ele>2065</ele>
        <time>2018-06-26T14:36:26Z</time>
      </trkpt>
      <trkpt lat="45.29295" lon="6.5295">
        <ele>2062</ele>
        <time>2018-06-26T14:37:26Z</time>
      </trkpt>
      <trkpt lat="45.29293" lon="6.52976">
        <ele>2060</ele>
        <time>2018-06-26T14:38:26Z</time>
      </trkpt>
      <trkpt lat="45.29289" lon="6.52988">
        <ele>2058</ele>
        <time>2018-06-26T14:39:26Z</time>
      </trkpt>
      <trkpt lat="45.2929" lon="6.53">
        <ele>2050</ele>
        <time>2018-06-26T14:40:26Z</time>
      </trkpt>
      <trkpt lat="45.29297" lon="6.53014">
        <ele>2051</ele>
        <time>2018-06-26T14:41:26Z</time>
      </trkpt>
      <trkpt lat="45.29302" lon="6.53016">
        <ele>2051</ele>
        <time>2018-06-26T14:42:26Z</time>
      </trkpt>
      <trkpt lat="45.29315" lon="6.53017">
        <ele>2053</ele>
        <time>2018-06-26T14:43:26Z</time>
      </trkpt>
      <trkpt lat="45.29319" lon="6.53027">
        <ele>2052</ele>
        <time>2018-06-26T14:44:26Z</time>
      </trkpt>
      <trkpt lat="45.29325" lon="6.53048">
        <ele>2049</ele>
        <time>2018-06-26T14:45:26Z</time>
      </trkpt>
      <trkpt lat="45.29326" lon="6.53058">
        <ele>2048</ele>
        <time>2018-06-26T14:46:26Z</time>
      </trkpt>
      <trkpt lat="45.29325" lon="6.53066">
        <ele>2048</ele>
        <time>2018-06-26T14:47:26Z</time>
      </trkpt>
      <trkpt lat="45.29318" lon="6.53067">
        <ele>2048</ele>
        <time>2018-06-26T14:48:26Z</time>
      </trkpt>
      <trkpt lat="45.29309" lon="6.53066">
        <ele>2048</ele>
        <time>2018-06-26T14:49:26Z</time>
      </trkpt>
      <trkpt lat="45.29302" lon="6.53063">
        <ele>2048</ele>
        <time>2018-06-26T14:50:26Z</time>
      </trkpt>
      <trkpt lat="45.29297" lon="6.53063">
        <ele>2048</ele>
        <time>2018-06-26T14:51:26Z</time>
      </trkpt>
      <trkpt lat="45.29302" lon="6.53063">
        <ele>2048</ele>
        <time>2018-06-26T14:52:26Z</time>
      </trkpt>
      <trkpt lat="45.29309" lon="6.53066">
        <ele>2048</ele>
        <time>2018-06-26T14:53:26Z</time>
      </trkpt>
      <trkpt lat="45.29318" lon="6.53067">
        <ele>2048</ele>
        <time>2018-06-26T14:54:26Z</time>
      </trkpt>
      <trkpt lat="45.29325" lon="6.53066">
        <ele>2048</ele>
        <time>2018-06-26T14:55:26Z</time>
      </trkpt>
      <trkpt lat="45.29326" lon="6.53058">
        <ele>2048</ele>
        <time>2018-06-26T14:56:26Z</time>
      </trkpt>
      <trkpt lat="45.29325" lon="6.53048">
        <ele>2049</ele>
        <time>2018-06-26T14:57:26Z</time>
      </trkpt>
      <trkpt lat="45.29332" lon="6.53063">
        <ele>2048</ele>
        <time>2018-06-26T14:58:26Z</time>
      </trkpt>
      <trkpt lat="45.29355" lon="6.53114">
        <ele>2048</ele>
        <time>2018-06-26T14:59:26Z</time>
      </trkpt>
      <trkpt lat="45.29357" lon="6.53122">
        <ele>2048</ele>
        <time>2018-06-26T15:00:26Z</time>
      </trkpt>
      <trkpt lat="45.29359" lon="6.53138">
        <ele>2047</ele>
        <time>2018-06-26T15:01:26Z</time>
      </trkpt>
      <trkpt lat="45.29363" lon="6.53146">
        <ele>2047</ele>
        <time>2018-06-26T15:02:26Z</time>
      </trkpt>
      <trkpt lat="45.2937" lon="6.53157">
        <ele>2047</ele>
        <time>2018-06-26T15:03:26Z</time>
      </trkpt>
      <trkpt lat="45.29372" lon="6.53162">
        <ele>2047</ele>
        <time>2018-06-26T15:04:26Z</time>
      </trkpt>
      <trkpt lat="45.29343" lon="6.53208">
        <ele>2047</ele>
        <time>2018-06-26T15:05:26Z</time>
      </trkpt>
      <trkpt lat="45.29342" lon="6.53217">
        <ele>2048</ele>
        <time>2018-06-26T15:06:26Z</time>
      </trkpt>
      <trkpt lat="45.29347" lon="6.53226">
        <ele>2049</ele>
        <time>2018-06-26T15:07:26Z</time>
      </trkpt>
      <trkpt lat="45.29354" lon="6.53234">
        <ele>2049</ele>
        <time>2018-06-26T15:08:26Z</time>
      </trkpt>
      <trkpt lat="45.29352" lon="6.53239">
        <ele>2050</ele>
        <time>2018-06-26T15:09:26Z</time>
      </trkpt>
      <trkpt lat="45.29361" lon="6.53241">
        <ele>2048</ele>
        <time>2018-06-26T15:10:26Z</time>
      </trkpt>
      <trkpt lat="45.29383" lon="6.53256">
        <ele>2048</ele>
        <time>2018-06-26T15:11:26Z</time>
      </trkpt>
      <trkpt lat="45.2939" lon="6.53265">
        <ele>2047</ele>
        <time>2018-06-26T15:12:26Z</time>
      </trkpt>
      <trkpt lat="45.29396" lon="6.53269">
        <ele>2046</ele>
        <time>2018-06-26T15:13:26Z</time>
      </trkpt>
      <trkpt lat="45.29401" lon="6.53282">
        <ele>2047</ele>
        <time>2018-06-26T15:14:26Z</time>
      </trkpt>
      <trkpt lat="45.29407" lon="6.53297">
        <ele>2048</ele>
        <time>2018-06-26T15:15:26Z</time>
      </trkpt>
      <trkpt lat="45.29409" lon="6.5331">
        <ele>2048</ele>
        <time>2018-06-26T15:16:26Z</time>
      </trkpt>
      <trkpt lat="45.29413" lon="6.53341">
        <ele>2049</ele>
        <time>2018-06-26T15:17:26Z</time>
      </trkpt>
      <trkpt lat="45.29417" lon="6.53356">
        <ele>2039</ele>
        <time>2018-06-26T15:18:26Z</time>
      </trkpt>
      <trkpt lat="45.29427" lon="6.53377">
        <ele>2038</ele>
        <time>2018-06-26T15:19:26Z</time>
      </trkpt>
      <trkpt lat="45.29427" lon="6.53381">
        <ele>2039</ele>
        <time>2018-06-26T15:20:26Z</time>
      </trkpt>
      <trkpt lat="45.29431" lon="6.5339">
        <ele>2039</ele>
        <time>2018-06-26T15:21:26Z</time>
      </trkpt>
      <trkpt lat="45.2943" lon="6.53401">
        <ele>2041</ele>
        <time>2018-06-26T15:22:26Z</time>
      </trkpt>
      <trkpt lat="45.29432" lon="6.53418">
        <ele>2047</ele>
        <time>2018-06-26T15:23:26Z</time>
      </trkpt>
      <trkpt lat="45.29428" lon="6.53426">
        <ele>2048</ele>
        <time>2018-06-26T15:24:26Z</time>
      </trkpt>
      <trkpt lat="45.29426" lon="6.53433">
        <ele>2048</ele>
        <time>2018-06-26T15:25:26Z</time>
      </trkpt>
      <trkpt lat="45.2942" lon="6.53442">
        <ele>2048</ele>
        <time>2018-06-26T15:26:26Z</time>
      </trkpt>
      <trkpt lat="45.29419" lon="6.53451">
        <ele>2048</ele>
        <time>2018-06-26T15:27:26Z</time>
      </trkpt>
      <trkpt lat="45.29423" lon="6.53459">
        <ele>2048</ele>
        <time>2018-06-26T15:28:26Z</time>
      </trkpt>
      <trkpt lat="45.29436" lon="6.53476">
        <ele>2049</ele>
        <time>2018-06-26T15:29:26Z</time>
      </trkpt>
      <trkpt lat="45.29442" lon="6.53477">
        <ele>2048</ele>
        <time>2018-06-26T15:30:26Z</time>
      </trkpt>
      <trkpt lat="45.29444" lon="6.53483">
        <ele>2048</ele>
        <time>2018-06-26T15:31:26Z</time>
      </trkpt>
      <trkpt lat="45.29438" lon="6.53485">
        <ele>2050</ele>
        <time>2018-06-26T15:32:26Z</time>
      </trkpt>
      <trkpt lat="45.29439" lon="6.53489">
        <ele>2050</ele>
        <time>2018-06-26T15:33:26Z</time>
      </trkpt>
      <trkpt lat="45.29445" lon="6.53495">
        <ele>2049</ele>
        <time>2018-06-26T15:34:26Z</time>
      </trkpt>
      <trkpt lat="45.29452" lon="6.53496">
        <ele>2047</ele>
        <time>2018-06-26T15:35:26Z</time>
      </trkpt>
      <trkpt lat="45.29457" lon="6.53504">
        <ele>2054</ele>
        <time>2018-06-26T15:36:26Z</time>
      </trkpt>
      <trkpt lat="45.29458" lon="6.53515">
        <ele>2055</ele>
        <time>2018-06-26T15:37:26Z</time>
      </trkpt>
      <trkpt lat="45.29461" lon="6.53526">
        <ele>2055</ele>
        <time>2018-06-26T15:38:26Z</time>
      </trkpt>
      <trkpt lat="45.29469" lon="6.53543">
        <ele>2055</ele>
        <time>2018-06-26T15:39:26Z</time>
      </trkpt>
      <trkpt lat="45.29471" lon="6.53558">
        <ele>2056</ele>
        <time>2018-06-26T15:40:26Z</time>
      </trkpt>
      <trkpt lat="45.29479" lon="6.53573">
        <ele>2054</ele>
        <time>2018-06-26T15:41:26Z</time>
      </trkpt>
      <trkpt lat="45.29489" lon="6.5359">
        <ele>2059</ele>
        <time>2018-06-26T15:42:26Z</time>
      </trkpt>
      <trkpt lat="45.29496" lon="6.53598">
        <ele>2060</ele>
        <time>2018-06-26T15:43:26Z</time>
      </trkpt>
      <trkpt lat="45.29502" lon="6.53601">
        <ele>2046</ele>
        <time>2018-06-26T15:44:26Z</time>
      </trkpt>
      <trkpt lat="45.29505" lon="6.53608">
        <ele>2046</ele>
        <time>2018-06-26T15:45:26Z</time>
      </trkpt>
      <trkpt lat="45.29511" lon="6.53613">
        <ele>2046</ele>
        <time>2018-06-26T15:46:26Z</time>
      </trkpt>
      <trkpt lat="45.29518" lon="6.53615">
        <ele>2046</ele>
        <time>2018-06-26T15:47:26Z</time>
      </trkpt>
      <trkpt lat="45.29525" lon="6.53621">
        <ele>2046</ele>
        <time>2018-06-26T15:48:26Z</time>
      </trkpt>
      <trkpt lat="45.29532" lon="6.53629">
        <ele>2046</ele>
        <time>2018-06-26T15:49:26Z</time>
      </trkpt>
      <trkpt lat="45.29537" lon="6.5364">
        <ele>2046</ele>
        <time>2018-06-26T15:50:26Z</time>
      </trkpt>
      <trkpt lat="45.29544" lon="6.5366">
        <ele>2047</ele>
        <time>2018-06-26T15:51:26Z</time>
      </trkpt>
      <trkpt lat="45.29549" lon="6.53669">
        <ele>2058</ele>
        <time>2018-06-26T15:52:26Z</time>
      </trkpt>
      <trkpt lat="45.29553" lon="6.53671">
        <ele>2057</ele>
        <time>2018-06-26T15:53:26Z</time>
      </trkpt>
      <trkpt lat="45.29557" lon="6.53676">
        <ele>2056</ele>
        <time>2018-06-26T15:54:26Z</time>
      </trkpt>
      <trkpt lat="45.29568" lon="6.5368">
        <ele>2053</ele>
        <time>2018-06-26T15:55:26Z</time>
      </trkpt>
      <trkpt lat="45.29579" lon="6.53686">
        <ele>2052</ele>
        <time>2018-06-26T15:56:26Z</time>
      </trkpt>
      <trkpt lat="45.29587" lon="6.53689">
        <ele>2038</ele>
        <time>2018-06-26T15:57:26Z</time>
      </trkpt>
      <trkpt lat="45.2959" lon="6.53692">
        <ele>2038</ele>
        <time>2018-06-26T15:58:26Z</time>
      </trkpt>
      <trkpt lat="45.29591" lon="6.53701">
        <ele>2038</ele>
        <time>2018-06-26T15:59:26Z</time>
      </trkpt>
      <trkpt lat="45.29589" lon="6.53716">
        <ele>2040</ele>
        <time>2018-06-26T16:00:26Z</time>
      </trkpt>
      <trkpt lat="45.29589" lon="6.53729">
        <ele>2044</ele>
        <time>2018-06-26T16:01:26Z</time>
      </trkpt>
      <trkpt lat="45.29589" lon="6.53738">
        <ele>2047</ele>
        <time>2018-06-26T16:02:26Z</time>
      </trkpt>
      <trkpt lat="45.29594" lon="6.53746">
        <ele>2048</ele>
        <time>2018-06-26T16:03:26Z</time>
      </trkpt>
      <trkpt lat="45.296" lon="6.5375">
        <ele>2045</ele>
        <time>2018-06-26T16:04:26Z</time>
      </trkpt>
      <trkpt lat="45.29605" lon="6.53757">
        <ele>2050</ele>
        <time>2018-06-26T16:05:26Z</time>
      </trkpt>
      <trkpt lat="45.29608" lon="6.53758">
        <ele>2050</ele>
        <time>2018-06-26T16:06:26Z</time>
      </trkpt>
      <trkpt lat="45.29609" lon="6.53768">
        <ele>2050</ele>
        <time>2018-06-26T16:07:26Z</time>
      </trkpt>
      <trkpt lat="45.29612" lon="6.53769">
        <ele>2049</ele>
        <time>2018-06-26T16:08:26Z</time>
      </trkpt>
      <trkpt lat="45.29614" lon="6.53772">
        <ele>2049</ele>
        <time>2018-06-26T16:09:26Z</time>
      </trkpt>
      <trkpt lat="45.29614" lon="6.53777">
        <ele>2049</ele>
        <time>2018-06-26T16:10:26Z</time>
      </trkpt>
      <trkpt lat="45.29613" lon="6.53781">
        <ele>2050</ele>
        <time>2018-06-26T16:11:26Z</time>
      </trkpt>
      <trkpt lat="45.2961" lon="6.53785">
        <ele>2050</ele>
        <time>2018-06-26T16:12:26Z</time>
      </trkpt>
      <trkpt lat="45.29608" lon="6.53792">
        <ele>2051</ele>
        <time>2018-06-26T16:13:26Z</time>
      </trkpt>
      <trkpt lat="45.29608" lon="6.53798">
        <ele>2051</ele>
        <time>2018-06-26T16:14:26Z</time>
      </trkpt>
      <trkpt lat="45.2961" lon="6.53804">
        <ele>2052</ele>
        <time>2018-06-26T16:15:26Z</time>
      </trkpt>
      <trkpt lat="45.29611" lon="6.53818">
        <ele>2053</ele>
        <time>2018-06-26T16:16:26Z</time>
      </trkpt>
      <trkpt lat="45.29613" lon="6.53825">
        <ele>2053</ele>
        <time>2018-06-26T16:17:26Z</time>
      </trkpt>
      <trkpt lat="45.29612" lon="6.53831">
        <ele>2053</ele>
        <time>2018-06-26T16:18:26Z</time>
      </trkpt>
      <trkpt lat="45.29612" lon="6.53837">
        <ele>2058</ele>
        <time>2018-06-26T16:19:26Z</time>
      </trkpt>
      <trkpt lat="45.29614" lon="6.53851">
        <ele>2057</ele>
        <time>2018-06-26T16:20:26Z</time>
      </trkpt>
      <trkpt lat="45.29617" lon="6.53863">
        <ele>2057</ele>
        <time>2018-06-26T16:21:26Z</time>
      </trkpt>
      <trkpt lat="45.29623" lon="6.53884">
        <ele>2056</ele>
        <time>2018-06-26T16:22:26Z</time>
      </trkpt>
      <trkpt lat="45.29623" lon="6.53889">
        <ele>2056</ele>
        <time>2018-06-26T16:23:26Z</time>
      </trkpt>
      <trkpt lat="45.29622" lon="6.53897">
        <ele>2057</ele>
        <time>2018-06-26T16:24:26Z</time>
      </trkpt>
      <trkpt lat="45.29623" lon="6.53903">
        <ele>2057</ele>
        <time>2018-06-26T16:25:26Z</time>
      </trkpt>
      <trkpt lat="45.29621" lon="6.53907">
        <ele>2057</ele>
        <time>2018-06-26T16:26:26Z</time>
      </trkpt>
      <trkpt lat="45.29621" lon="6.53914">
        <ele>2057</ele>
        <time>2018-06-26T16:27:26Z</time>
      </trkpt>
      <trkpt lat="45.29626" lon="6.53924">
        <ele>2057</ele>
        <time>2018-06-26T16:28:26Z</time>
      </trkpt>
      <trkpt lat="45.29634" lon="6.53931">
        <ele>2056</ele>
        <time>2018-06-26T16:29:26Z</time>
      </trkpt>
      <trkpt lat="45.2964" lon="6.53943">
        <ele>2055</ele>
        <time>2018-06-26T16:30:26Z</time>
      </trkpt>
      <trkpt lat="45.29645" lon="6.53948">
        <ele>2054</ele>
        <time>2018-06-26T16:31:26Z</time>
      </trkpt>
      <trkpt lat="45.29644" lon="6.53956">
        <ele>2054</ele>
        <time>2018-06-26T16:32:26Z</time>
      </trkpt>
      <trkpt lat="45.2965" lon="6.53989">
        <ele>2051</ele>
        <time>2018-06-26T16:33:26Z</time>
      </trkpt>
      <trkpt lat="45.29649" lon="6.53996">
        <ele>2050</ele>
        <time>2018-06-26T16:34:26Z</time>
      </trkpt>
      <trkpt lat="45.29651" lon="6.54007">
        <ele>2051</ele>
        <time>2018-06-26T16:35:26Z</time>
      </trkpt>
      <trkpt lat="45.29649" lon="6.54024">
        <ele>2055</ele>
        <time>2018-06-26T16:36:26Z</time>
      </trkpt>
      <trkpt lat="45.29648" lon="6.54048">
        <ele>2057</ele>
        <time>2018-06-26T16:37:26Z</time>
      </trkpt>
      <trkpt lat="45.29649" lon="6.54061">
        <ele>2056</ele>
        <time>2018-06-26T16:38:26Z</time>
      </trkpt>
      <trkpt lat="45.29653" lon="6.54072">
        <ele>2053</ele>
        <time>2018-06-26T16:39:26Z</time>
      </trkpt>
      <trkpt lat="45.29654" lon="6.54082">
        <ele>2051</ele>
        <time>2018-06-26T16:40:26Z</time>
      </trkpt>
      <trkpt lat="45.29654" lon="6.54091">
        <ele>2055</ele>
        <time>2018-06-26T16:41:26Z</time>
      </trkpt>
      <trkpt lat="45.29655" lon="6.54106">
        <ele>2059</ele>
        <time>2018-06-26T16:42:26Z</time>
      </trkpt>
      <trkpt lat="45.29653" lon="6.54114">
        <ele>2061</ele>
        <time>2018-06-26T16:43:26Z</time>
      </trkpt>
      <trkpt lat="45.29654" lon="6.54126">
        <ele>2062</ele>
        <time>2018-06-26T16:44:26Z</time>
      </trkpt>
      <trkpt lat="45.29656" lon="6.54137">
        <ele>2062</ele>
        <time>2018-06-26T16:45:26Z</time>
      </trkpt>
      <trkpt lat="45.29658" lon="6.54144">
        <ele>2061</ele>
        <time>2018-06-26T16:46:26Z</time>
      </trkpt>
      <trkpt lat="45.29663" lon="6.5415">
        <ele>2060</ele>
        <time>2018-06-26T16:47:26Z</time>
      </trkpt>
      <trkpt lat="45.29665" lon="6.54164">
        <ele>2055</ele>
        <time>2018-06-26T16:48:26Z</time>
      </trkpt>
      <trkpt lat="45.29669" lon="6.54172">
        <ele>2049</ele>
        <time>2018-06-26T16:49:26Z</time>
      </trkpt>
      <trkpt lat="45.29677" lon="6.54185">
        <ele>2042</ele>
        <time>2018-06-26T16:50:26Z</time>
      </trkpt>
      <trkpt lat="45.29679" lon="6.54192">
        <ele>2041</ele>
        <time>2018-06-26T16:51:26Z</time>
      </trkpt>
      <trkpt lat="45.29686" lon="6.54214">
        <ele>2039</ele>
        <time>2018-06-26T16:52:26Z</time>
      </trkpt>
      <trkpt lat="45.29695" lon="6.54238">
        <ele>2039</ele>
        <time>2018-06-26T16:53:26Z</time>
      </trkpt>
      <trkpt lat="45.297" lon="6.54256">
        <ele>2041</ele>
        <time>2018-06-26T16:54:26Z</time>
      </trkpt>
      <trkpt lat="45.29705" lon="6.54266">
        <ele>2039</ele>
        <time>2018-06-26T16:55:26Z</time>
      </trkpt>
      <trkpt lat="45.29707" lon="6.54274">
        <ele>2039</ele>
        <time>2018-06-26T16:56:26Z</time>
      </trkpt>
      <trkpt lat="45.29708" lon="6.54281">
        <ele>2039</ele>
        <time>2018-06-26T16:57:26Z</time>
      </trkpt>
      <trkpt lat="45.29706" lon="6.54287">
        <ele>2039</ele>
        <time>2018-06-26T16:58:26Z</time>
      </trkpt>
      <trkpt lat="45.29702" lon="6.54302">
        <ele>2040</ele>
        <time>2018-06-26T16:59:26Z</time>
      </trkpt>
      <trkpt lat="45.29696" lon="6.54312">
        <ele>2042</ele>
        <time>2018-06-26T17:00:26Z</time>
      </trkpt>
      <trkpt lat="45.29685" lon="6.54329">
        <ele>2046</ele>
        <time>2018-06-26T17:01:26Z</time>
      </trkpt>
      <trkpt lat="45.29682" lon="6.54332">
        <ele>2047</ele>
        <time>2018-06-26T17:02:26Z</time>
      </trkpt>
      <trkpt lat="45.29681" lon="6.54341">
        <ele>2047</ele>
        <time>2018-06-26T17:03:26Z</time>
      </trkpt>
      <trkpt lat="45.29678" lon="6.54354">
        <ele>2046</ele>
        <time>2018-06-26T17:04:26Z</time>
      </trkpt>
      <trkpt lat="45.29675" lon="6.54359">
        <ele>2046</ele>
        <time>2018-06-26T17:05:26Z</time>
      </trkpt>
      <trkpt lat="45.29673" lon="6.54363">
        <ele>2045</ele>
        <time>2018-06-26T17:06:26Z</time>
      </trkpt>
      <trkpt lat="45.29674" lon="6.54366">
        <ele>2045</ele>
        <time>2018-06-26T17:07:26Z</time>
      </trkpt>
      <trkpt lat="45.29676" lon="6.54373">
        <ele>2045</ele>
        <time>2018-06-26T17:08:26Z</time>
      </trkpt>
      <trkpt lat="45.29677" lon="6.54383">
        <ele>2045</ele>
        <time>2018-06-26T17:09:26Z</time>
      </trkpt>
      <trkpt lat="45.29677" lon="6.54401">
        <ele>2047</ele>
        <time>2018-06-26T17:10:26Z</time>
      </trkpt>
      <trkpt lat="45.29679" lon="6.54409">
        <ele>2048</ele>
        <time>2018-06-26T17:11:26Z</time>
      </trkpt>
      <trkpt lat="45.29681" lon="6.54416">
        <ele>2048</ele>
        <time>2018-06-26T17:12:26Z</time>
      </trkpt>
      <trkpt lat="45.2968" lon="6.54423">
        <ele>2048</ele>
        <time>2018-06-26T17:13:26Z</time>
      </trkpt>
      <trkpt lat="45.2967" lon="6.54462">
        <ele>2046</ele>
        <time>2018-06-26T17:14:26Z</time>
      </trkpt>
      <trkpt lat="45.29669" lon="6.54478">
        <ele>2048</ele>
        <time>2018-06-26T17:15:26Z</time>
      </trkpt>
      <trkpt lat="45.29673" lon="6.54489">
        <ele>2050</ele>
        <time>2018-06-26T17:16:26Z</time>
      </trkpt>
      <trkpt lat="45.29676" lon="6.54501">
        <ele>2054</ele>
        <time>2018-06-26T17:17:26Z</time>
      </trkpt>
      <trkpt lat="45.29678" lon="6.5452">
        <ele>2052</ele>
        <time>2018-06-26T17:18:26Z</time>
      </trkpt>
      <trkpt lat="45.29681" lon="6.54526">
        <ele>2051</ele>
        <time>2018-06-26T17:19:26Z</time>
      </trkpt>
      <trkpt lat="45.29693" lon="6.54561">
        <ele>2052</ele>
        <time>2018-06-26T17:20:26Z</time>
      </trkpt>
      <trkpt lat="45.29701" lon="6.54574">
        <ele>2051</ele>
        <time>2018-06-26T17:21:26Z</time>
      </trkpt>
      <trkpt lat="45.2971" lon="6.54583">
        <ele>2049</ele>
        <time>2018-06-26T17:22:26Z</time>
      </trkpt>
      <trkpt lat="45.29712" lon="6.54591">
        <ele>2057</ele>
        <time>2018-06-26T17:23:26Z</time>
      </trkpt>
      <trkpt lat="45.29711" lon="6.5461">
        <ele>2058</ele>
        <time>2018-06-26T17:24:26Z</time>
      </trkpt>
      <trkpt lat="45.29706" lon="6.54628">
        <ele>2061</ele>
        <time>2018-06-26T17:25:26Z</time>
      </trkpt>
      <trkpt lat="45.29707" lon="6.54639">
        <ele>2062</ele>
        <time>2018-06-26T17:26:26Z</time>
      </trkpt>
      <trkpt lat="45.29712" lon="6.54655">
        <ele>2061</ele>
        <time>2018-06-26T17:27:26Z</time>
      </trkpt>
      <trkpt lat="45.29718" lon="6.54665">
        <ele>2060</ele>
        <time>2018-06-26T17:28:26Z</time>
      </trkpt>
      <trkpt lat="45.29734" lon="6.54681">
        <ele>2065</ele>
        <time>2018-06-26T17:29:26Z</time>
      </trkpt>
      <trkpt lat="45.2975" lon="6.54686">
        <ele>2063</ele>
        <time>2018-06-26T17:30:26Z</time>
      </trkpt>
      <trkpt lat="45.29758" lon="6.54687">
        <ele>2047</ele>
        <time>2018-06-26T17:31:26Z</time>
      </trkpt>
      <trkpt lat="45.29762" lon="6.54692">
        <ele>2047</ele>
        <time>2018-06-26T17:32:26Z</time>
      </trkpt>
      <trkpt lat="45.29766" lon="6.54703">
        <ele>2047</ele>
        <time>2018-06-26T17:33:26Z</time>
      </trkpt>
      <trkpt lat="45.29771" lon="6.5471">
        <ele>2048</ele>
        <time>2018-06-26T17:34:26Z</time>
      </trkpt>
      <trkpt lat="45.29777" lon="6.54728">
        <ele>2049</ele>
        <time>2018-06-26T17:35:26Z</time>
      </trkpt>
      <trkpt lat="45.29786" lon="6.54737">
        <ele>2048</ele>
        <time>2018-06-26T17:36:26Z</time>
      </trkpt>
      <trkpt lat="45.29803" lon="6.54759">
        <ele>2051</ele>
        <time>2018-06-26T17:37:26Z</time>
      </trkpt>
      <trkpt lat="45.29806" lon="6.54775">
        <ele>2051</ele>
        <time>2018-06-26T17:38:26Z</time>
      </trkpt>
      <trkpt lat="45.29807" lon="6.54789">
        <ele>2051</ele>
        <time>2018-06-26T17:39:26Z</time>
      </trkpt>
      <trkpt lat="45.29806" lon="6.54796">
        <ele>2052</ele>
        <time>2018-06-26T17:40:26Z</time>
      </trkpt>
      <trkpt lat="45.29804" lon="6.54805">
        <ele>2052</ele>
        <time>2018-06-26T17:41:26Z</time>
      </trkpt>
      <trkpt lat="45.29805" lon="6.5481">
        <ele>2052</ele>
        <time>2018-06-26T17:42:26Z</time>
      </trkpt>
      <trkpt lat="45.29812" lon="6.54816">
        <ele>2049</ele>
        <time>2018-06-26T17:43:26Z</time>
      </trkpt>
      <trkpt lat="45.29813" lon="6.54821">
        <ele>2048</ele>
        <time>2018-06-26T17:44:26Z</time>
      </trkpt>
      <trkpt lat="45.29813" lon="6.54829">
        <ele>2047</ele>
        <time>2018-06-26T17:45:26Z</time>
      </trkpt>
      <trkpt lat="45.29804" lon="6.54859">
        <ele>2051</ele>
        <time>2018-06-26T17:46:26Z</time>
      </trkpt>
      <trkpt lat="45.29803" lon="6.54871">
        <ele>2051</ele>
        <time>2018-06-26T17:47:26Z</time>
      </trkpt>
      <trkpt lat="45.298" lon="6.549">
        <ele>2050</ele>
        <time>2018-06-26T17:48:26Z</time>
      </trkpt>
      <trkpt lat="45.29798" lon="6.54915">
        <ele>2050</ele>
        <time>2018-06-26T17:49:26Z</time>
      </trkpt>
      <trkpt lat="45.29795" lon="6.54934">
        <ele>2046</ele>
        <time>2018-06-26T17:50:26Z</time>
      </trkpt>
      <trkpt lat="45.29789" lon="6.54946">
        <ele>2048</ele>
        <time>2018-06-26T17:51:26Z</time>
      </trkpt>
      <trkpt lat="45.29783" lon="6.5496">
        <ele>2049</ele>
        <time>2018-06-26T17:52:26Z</time>
      </trkpt>
      <trkpt lat="45.29776" lon="6.54971">
        <ele>2050</ele>
        <time>2018-06-26T17:53:26Z</time>
      </trkpt>
      <trkpt lat="45.29771" lon="6.54984">
        <ele>2052</ele>
        <time>2018-06-26T17:54:26Z</time>
      </trkpt>
      <trkpt lat="45.29763" lon="6.54997">
        <ele>2055</ele>
        <time>2018-06-26T17:55:26Z</time>
      </trkpt>
      <trkpt lat="45.29764" lon="6.55009">
        <ele>2054</ele>
        <time>2018-06-26T17:56:26Z</time>
      </trkpt>
      <trkpt lat="45.29765" lon="6.55026">
        <ele>2051</ele>
        <time>2018-06-26T17:57:26Z</time>
      </trkpt>
      <trkpt lat="45.2977" lon="6.55035">
        <ele>2050</ele>
        <time>2018-06-26T17:58:26Z</time>
      </trkpt>
      <trkpt lat="45.29775" lon="6.55042">
        <ele>2049</ele>
        <time>2018-06-26T17:59:26Z</time>
      </trkpt>
      <trkpt lat="45.29783" lon="6.5505">
        <ele>2047</ele>
        <time>2018-06-26T18:00:26Z</time>
      </trkpt>
      <trkpt lat="45.29786" lon="6.55061">
        <ele>2047</ele>
        <time>2018-06-26T18:01:26Z</time>
      </trkpt>
      <trkpt lat="45.29786" lon="6.55071">
        <ele>2048</ele>
        <time>2018-06-26T18:02:26Z</time>
      </trkpt>
      <trkpt lat="45.29786" lon="6.55081">
        <ele>2048</ele>
        <time>2018-06-26T18:03:26Z</time>
      </trkpt>
      <trkpt lat="45.29784" lon="6.55089">
        <ele>2050</ele>
        <time>2018-06-26T18:04:26Z</time>
      </trkpt>
      <trkpt lat="45.29783" lon="6.551">
        <ele>2050</ele>
        <time>2018-06-26T18:05:26Z</time>
      </trkpt>
      <trkpt lat="45.29784" lon="6.55113">
        <ele>2049</ele>
        <time>2018-06-26T18:06:26Z</time>
      </trkpt>
      <trkpt lat="45.29785" lon="6.5512">
        <ele>2049</ele>
        <time>2018-06-26T18:07:26Z</time>
      </trkpt>
      <trkpt lat="45.29795" lon="6.55135">
        <ele>2047</ele>
        <time>2018-06-26T18:08:26Z</time>
      </trkpt>
      <trkpt lat="45.29797" lon="6.55144">
        <ele>2047</ele>
        <time>2018-06-26T18:09:26Z</time>
      </trkpt>
      <trkpt lat="45.29796" lon="6.55152">
        <ele>2047</ele>
        <time>2018-06-26T18:10:26Z</time>
      </trkpt>
      <trkpt lat="45.29789" lon="6.55177">
        <ele>2046</ele>
        <time>2018-06-26T18:11:26Z</time>
      </trkpt>
      <trkpt lat="45.29781" lon="6.55197">
        <ele>2046</ele>
        <time>2018-06-26T18:12:26Z</time>
      </trkpt>
      <trkpt lat="45.29777" lon="6.55205">
        <ele>2046</ele>
        <time>2018-06-26T18:13:26Z</time>
      </trkpt>
      <trkpt lat="45.29769" lon="6.55211">
        <ele>2047</ele>
        <time>2018-06-26T18:14:26Z</time>
      </trkpt>
      <trkpt lat="45.29758" lon="6.55216">
        <ele>2048</ele>
        <time>2018-06-26T18:15:26Z</time>
      </trkpt>
      <trkpt lat="45.2975" lon="6.55226">
        <ele>2066</ele>
        <time>2018-06-26T18:16:26Z</time>
      </trkpt>
      <trkpt lat="45.29749" lon="6.55234">
        <ele>2063</ele>
        <time>2018-06-26T18:17:26Z</time>
      </trkpt>
      <trkpt lat="45.29747" lon="6.55253">
        <ele>2054</ele>
        <time>2018-06-26T18:18:26Z</time>
      </trkpt>
      <trkpt lat="45.29748" lon="6.55265">
        <ele>2059</ele>
        <time>2018-06-26T18:19:26Z</time>
      </trkpt>
      <trkpt lat="45.29749" lon="6.55274">
        <ele>2061</ele>
        <time>2018-06-26T18:20:26Z</time>
      </trkpt>
      <trkpt lat="45.29746" lon="6.55287">
        <ele>2062</ele>
        <time>2018-06-26T18:21:26Z</time>
      </trkpt>
      <trkpt lat="45.29744" lon="6.55297">
        <ele>2061</ele>
        <time>2018-06-26T18:22:26Z</time>
      </trkpt>
      <trkpt lat="45.29739" lon="6.553">
        <ele>2062</ele>
        <time>2018-06-26T18:23:26Z</time>
      </trkpt>
      <trkpt lat="45.29733" lon="6.55306">
        <ele>2062</ele>
        <time>2018-06-26T18:24:26Z</time>
      </trkpt>
      <trkpt lat="45.2973" lon="6.55317">
        <ele>2061</ele>
        <time>2018-06-26T18:25:26Z</time>
      </trkpt>
      <trkpt lat="45.29728" lon="6.5533">
        <ele>2060</ele>
        <time>2018-06-26T18:26:26Z</time>
      </trkpt>
      <trkpt lat="45.29728" lon="6.55343">
        <ele>2056</ele>
        <time>2018-06-26T18:27:26Z</time>
      </trkpt>
      <trkpt lat="45.29733" lon="6.55362">
        <ele>2056</ele>
        <time>2018-06-26T18:28:26Z</time>
      </trkpt>
      <trkpt lat="45.29733" lon="6.55376">
        <ele>2056</ele>
        <time>2018-06-26T18:29:26Z</time>
      </trkpt>
      <trkpt lat="45.29732" lon="6.55385">
        <ele>2055</ele>
        <time>2018-06-26T18:30:26Z</time>
      </trkpt>
      <trkpt lat="45.29728" lon="6.55395">
        <ele>2055</ele>
        <time>2018-06-26T18:31:26Z</time>
      </trkpt>
      <trkpt lat="45.29726" lon="6.55404">
        <ele>2054</ele>
        <time>2018-06-26T18:32:26Z</time>
      </trkpt>
      <trkpt lat="45.29724" lon="6.55416">
        <ele>2054</ele>
        <time>2018-06-26T18:33:26Z</time>
      </trkpt>
      <trkpt lat="45.29723" lon="6.55431">
        <ele>2051</ele>
        <time>2018-06-26T18:34:26Z</time>
      </trkpt>
      <trkpt lat="45.29723" lon="6.55449">
        <ele>2052</ele>
        <time>2018-06-26T18:35:26Z</time>
      </trkpt>
      <trkpt lat="45.2972" lon="6.55461">
        <ele>2053</ele>
        <time>2018-06-26T18:36:26Z</time>
      </trkpt>
      <trkpt lat="45.29717" lon="6.5547">
        <ele>2053</ele>
        <time>2018-06-26T18:37:26Z</time>
      </trkpt>
      <trkpt lat="45.29712" lon="6.55474">
        <ele>2054</ele>
        <time>2018-06-26T18:38:26Z</time>
      </trkpt>
      <trkpt lat="45.29704" lon="6.55492">
        <ele>2056</ele>
        <time>2018-06-26T18:39:26Z</time>
      </trkpt>
      <trkpt lat="45.297" lon="6.55499">
        <ele>2057</ele>
        <time>2018-06-26T18:40:26Z</time>
      </trkpt>
      <trkpt lat="45.29698" lon="6.55509">
        <ele>2054</ele>
        <time>2018-06-26T18:41:26Z</time>
      </trkpt>
      <trkpt lat="45.2969" lon="6.55509">
        <ele>2057</ele>
        <time>2018-06-26T18:42:26Z</time>
      </trkpt>
      <trkpt lat="45.29683" lon="6.55516">
        <ele>2058</ele>
        <time>2018-06-26T18:43:26Z</time>
      </trkpt>
      <trkpt lat="45.29681" lon="6.55525">
        <ele>2057</ele>
        <time>2018-06-26T18:44:26Z</time>
      </trkpt>
      <trkpt lat="45.29679" lon="6.55535">
        <ele>2056</ele>
        <time>2018-06-26T18:45:26Z</time>
      </trkpt>
      <trkpt lat="45.29679" lon="6.55549">
        <ele>2056</ele>
        <time>2018-06-26T18:46:26Z</time>
      </trkpt>
      <trkpt lat="45.2968" lon="6.55556">
        <ele>2056</ele>
        <time>2018-06-26T18:47:26Z</time>
      </trkpt>
      <trkpt lat="45.2968" lon="6.55571">
        <ele>2057</ele>
        <time>2018-06-26T18:48:26Z</time>
      </trkpt>
      <trkpt lat="45.29675" lon="6.5558">
        <ele>2060</ele>
        <time>2018-06-26T18:49:26Z</time>
      </trkpt>
      <trkpt lat="45.2967" lon="6.55589">
        <ele>2060</ele>
        <time>2018-06-26T18:50:26Z</time>
      </trkpt>
      <trkpt lat="45.29669" lon="6.55596">
        <ele>2057</ele>
        <time>2018-06-26T18:51:26Z</time>
      </trkpt>
      <trkpt lat="45.29668" lon="6.55606">
        <ele>2053</ele>
        <time>2018-06-26T18:52:26Z</time>
      </trkpt>
      <trkpt lat="45.29664" lon="6.55609">
        <ele>2074</ele>
        <time>2018-06-26T18:53:26Z</time>
      </trkpt>
      <trkpt lat="45.29663" lon="6.55617">
        <ele>2075</ele>
        <time>2018-06-26T18:54:26Z</time>
      </trkpt>
      <trkpt lat="45.29659" lon="6.55645">
        <ele>2072</ele>
        <time>2018-06-26T18:55:26Z</time>
      </trkpt>
      <trkpt lat="45.29656" lon="6.55649">
        <ele>2072</ele>
        <time>2018-06-26T18:56:26Z</time>
      </trkpt>
      <trkpt lat="45.29653" lon="6.55629">
        <ele>2076</ele>
        <time>2018-06-26T18:57:26Z</time>
      </trkpt>
      <trkpt lat="45.29651" lon="6.55639">
        <ele>2075</ele>
        <time>2018-06-26T18:58:26Z</time>
      </trkpt>
      <trkpt lat="45.29637" lon="6.5567">
        <ele>2071</ele>
        <time>2018-06-26T18:59:26Z</time>
      </trkpt>
      <trkpt lat="45.29629" lon="6.55683">
        <ele>2073</ele>
        <time>2018-06-26T19:00:26Z</time>
      </trkpt>
      <trkpt lat="45.29623" lon="6.55699">
        <ele>2074</ele>
        <time>2018-06-26T19:01:26Z</time>
      </trkpt>
      <trkpt lat="45.29617" lon="6.55706">
        <ele>2075</ele>
        <time>2018-06-26T19:02:26Z</time>
      </trkpt>
      <trkpt lat="45.29611" lon="6.55717">
        <ele>2076</ele>
        <time>2018-06-26T19:03:26Z</time>
      </trkpt>
      <trkpt lat="45.29603" lon="6.55727">
        <ele>2078</ele>
        <time>2018-06-26T19:04:26Z</time>
      </trkpt>
      <trkpt lat="45.29597" lon="6.55736">
        <ele>2080</ele>
        <time>2018-06-26T19:05:26Z</time>
      </trkpt>
      <trkpt lat="45.29592" lon="6.55738">
        <ele>2081</ele>
        <time>2018-06-26T19:06:26Z</time>
      </trkpt>
      <trkpt lat="45.29574" lon="6.5576">
        <ele>2091</ele>
        <time>2018-06-26T19:07:26Z</time>
      </trkpt>
      <trkpt lat="45.29571" lon="6.5577">
        <ele>2092</ele>
        <time>2018-06-26T19:08:26Z</time>
      </trkpt>
      <trkpt lat="45.29563" lon="6.55783">
        <ele>2093</ele>
        <time>2018-06-26T19:09:26Z</time>
      </trkpt>
      <trkpt lat="45.29558" lon="6.55788">
        <ele>2094</ele>
        <time>2018-06-26T19:10:26Z</time>
      </trkpt>
      <trkpt lat="45.29547" lon="6.55789">
        <ele>2095</ele>
        <time>2018-06-26T19:11:26Z</time>
      </trkpt>
      <trkpt lat="45.29541" lon="6.55792">
        <ele>2096</ele>
        <time>2018-06-26T19:12:26Z</time>
      </trkpt>
      <trkpt lat="45.29537" lon="6.55797">
        <ele>2097</ele>
        <time>2018-06-26T19:13:26Z</time>
      </trkpt>
      <trkpt lat="45.29532" lon="6.55804">
        <ele>2097</ele>
        <time>2018-06-26T19:14:26Z</time>
      </trkpt>
      <trkpt lat="45.29524" lon="6.55829">
        <ele>2099</ele>
        <time>2018-06-26T19:15:26Z</time>
      </trkpt>
      <trkpt lat="45.2952" lon="6.55837">
        <ele>2093</ele>
        <time>2018-06-26T19:16:26Z</time>
      </trkpt>
      <trkpt lat="45.29512" lon="6.55849">
        <ele>2094</ele>
        <time>2018-06-26T19:17:26Z</time>
      </trkpt>
      <trkpt lat="45.29496" lon="6.55869">
        <ele>2110</ele>
        <time>2018-06-26T19:18:26Z</time>
      </trkpt>
      <trkpt lat="45.29489" lon="6.55875">
        <ele>2110</ele>
        <time>2018-06-26T19:19:26Z</time>
      </trkpt>
      <trkpt lat="45.29483" lon="6.5588">
        <ele>2110</ele>
        <time>2018-06-26T19:20:26Z</time>
      </trkpt>
      <trkpt lat="45.29481" lon="6.55893">
        <ele>2108</ele>
        <time>2018-06-26T19:21:26Z</time>
      </trkpt>
      <trkpt lat="45.29477" lon="6.55913">
        <ele>2106</ele>
        <time>2018-06-26T19:22:26Z</time>
      </trkpt>
      <trkpt lat="45.29471" lon="6.55924">
        <ele>2102</ele>
        <time>2018-06-26T19:23:26Z</time>
      </trkpt>
      <trkpt lat="45.29467" lon="6.55932">
        <ele>2103</ele>
        <time>2018-06-26T19:24:26Z</time>
      </trkpt>
      <trkpt lat="45.29463" lon="6.55945">
        <ele>2104</ele>
        <time>2018-06-26T19:25:26Z</time>
      </trkpt>
      <trkpt lat="45.29462" lon="6.55958">
        <ele>2103</ele>
        <time>2018-06-26T19:26:26Z</time>
      </trkpt>
      <trkpt lat="45.29459" lon="6.55971">
        <ele>2103</ele>
        <time>2018-06-26T19:27:26Z</time>
      </trkpt>
      <trkpt lat="45.29455" lon="6.55982">
        <ele>2103</ele>
        <time>2018-06-26T19:28:26Z</time>
      </trkpt>
      <trkpt lat="45.29449" lon="6.5599">
        <ele>2105</ele>
        <time>2018-06-26T19:29:26Z</time>
      </trkpt>
      <trkpt lat="45.29431" lon="6.56009">
        <ele>2105</ele>
        <time>2018-06-26T19:30:26Z</time>
      </trkpt>
      <trkpt lat="45.29421" lon="6.56018">
        <ele>2105</ele>
        <time>2018-06-26T19:31:26Z</time>
      </trkpt>
      <trkpt lat="45.29413" lon="6.56025">
        <ele>2119</ele>
        <time>2018-06-26T19:32:26Z</time>
      </trkpt>
      <trkpt lat="45.29402" lon="6.56033">
        <ele>2120</ele>
        <time>2018-06-26T19:33:26Z</time>
      </trkpt>
      <trkpt lat="45.2939" lon="6.56047">
        <ele>2121</ele>
        <time>2018-06-26T19:34:26Z</time>
      </trkpt>
      <trkpt lat="45.29367" lon="6.56068">
        <ele>2124</ele>
        <time>2018-06-26T19:35:26Z</time>
      </trkpt>
      <trkpt lat="45.29359" lon="6.56071">
        <ele>2126</ele>
        <time>2018-06-26T19:36:26Z</time>
      </trkpt>
      <trkpt lat="45.29343" lon="6.56076">
        <ele>2129</ele>
        <time>2018-06-26T19:37:26Z</time>
      </trkpt>
      <trkpt lat="45.29333" lon="6.56083">
        <ele>2133</ele>
        <time>2018-06-26T19:38:26Z</time>
      </trkpt>
      <trkpt lat="45.29333" lon="6.56097">
        <ele>2136</ele>
        <time>2018-06-26T19:39:26Z</time>
      </trkpt>
      <trkpt lat="45.29332" lon="6.56118">
        <ele>2136</ele>
        <time>2018-06-26T19:40:26Z</time>
      </trkpt>
      <trkpt lat="45.29326" lon="6.5615">
        <ele>2132</ele>
        <time>2018-06-26T19:41:26Z</time>
      </trkpt>
      <trkpt lat="45.29326" lon="6.56162">
        <ele>2128</ele>
        <time>2018-06-26T19:42:26Z</time>
      </trkpt>
      <trkpt lat="45.29333" lon="6.56173">
        <ele>2125</ele>
        <time>2018-06-26T19:43:26Z</time>
      </trkpt>
      <trkpt lat="45.29341" lon="6.56182">
        <ele>2116</ele>
        <time>2018-06-26T19:44:26Z</time>
      </trkpt>
      <trkpt lat="45.29351" lon="6.56191">
        <ele>2113</ele>
        <time>2018-06-26T19:45:26Z</time>
      </trkpt>
      <trkpt lat="45.29358" lon="6.56199">
        <ele>2112</ele>
        <time>2018-06-26T19:46:26Z</time>
      </trkpt>
      <trkpt lat="45.29361" lon="6.56208">
        <ele>2111</ele>
        <time>2018-06-26T19:47:26Z</time>
      </trkpt>
      <trkpt lat="45.29362" lon="6.56219">
        <ele>2111</ele>
        <time>2018-06-26T19:48:26Z</time>
      </trkpt>
      <trkpt lat="45.29366" lon="6.56226">
        <ele>2110</ele>
        <time>2018-06-26T19:49:26Z</time>
      </trkpt>
      <trkpt lat="45.29365" lon="6.56236">
        <ele>2110</ele>
        <time>2018-06-26T19:50:26Z</time>
      </trkpt>
      <trkpt lat="45.29352" lon="6.56255">
        <ele>2111</ele>
        <time>2018-06-26T19:51:26Z</time>
      </trkpt>
      <trkpt lat="45.29345" lon="6.56267">
        <ele>2111</ele>
        <time>2018-06-26T19:52:26Z</time>
      </trkpt>
      <trkpt lat="45.29341" lon="6.5628">
        <ele>2109</ele>
        <time>2018-06-26T19:53:26Z</time>
      </trkpt>
      <trkpt lat="45.29341" lon="6.56294">
        <ele>2108</ele>
        <time>2018-06-26T19:54:26Z</time>
      </trkpt>
      <trkpt lat="45.29343" lon="6.56308">
        <ele>2108</ele>
        <time>2018-06-26T19:55:26Z</time>
      </trkpt>
      <trkpt lat="45.29347" lon="6.56322">
        <ele>2108</ele>
        <time>2018-06-26T19:56:26Z</time>
      </trkpt>
      <trkpt lat="45.29354" lon="6.56333">
        <ele>2107</ele>
        <time>2018-06-26T19:57:26Z</time>
      </trkpt>
      <trkpt lat="45.29362" lon="6.56339">
        <ele>2106</ele>
        <time>2018-06-26T19:58:26Z</time>
      </trkpt>
      <trkpt lat="45.29365" lon="6.56338">
        <ele>2105</ele>
        <time>2018-06-26T19:59:26Z</time>
      </trkpt>
      <trkpt lat="45.29365" lon="6.56348">
        <ele>2105</ele>
        <time>2018-06-26T20:00:26Z</time>
      </trkpt>
      <trkpt lat="45.29372" lon="6.56379">
        <ele>2105</ele>
        <time>2018-06-26T20:01:26Z</time>
      </trkpt>
      <trkpt lat="45.29364" lon="6.56406">
        <ele>2106</ele>
        <time>2018-06-26T20:02:26Z</time>
      </trkpt>
      <trkpt lat="45.29357" lon="6.56441">
        <ele>2110</ele>
        <time>2018-06-26T20:03:26Z</time>
      </trkpt>
      <trkpt lat="45.29353" lon="6.56455">
        <ele>2111</ele>
        <time>2018-06-26T20:04:26Z</time>
      </trkpt>
      <trkpt lat="45.29348" lon="6.5648">
        <ele>2113</ele>
        <time>2018-06-26T20:05:26Z</time>
      </trkpt>
      <trkpt lat="45.29343" lon="6.56485">
        <ele>2114</ele>
        <time>2018-06-26T20:06:26Z</time>
      </trkpt>
      <trkpt lat="45.29341" lon="6.5651">
        <ele>2119</ele>
        <time>2018-06-26T20:07:26Z</time>
      </trkpt>
      <trkpt lat="45.29338" lon="6.56523">
        <ele>2120</ele>
        <time>2018-06-26T20:08:26Z</time>
      </trkpt>
      <trkpt lat="45.29338" lon="6.56529">
        <ele>2120</ele>
        <time>2018-06-26T20:09:26Z</time>
      </trkpt>
      <trkpt lat="45.29344" lon="6.56556">
        <ele>2124</ele>
        <time>2018-06-26T20:10:26Z</time>
      </trkpt>
      <trkpt lat="45.29346" lon="6.5656">
        <ele>2124</ele>
        <time>2018-06-26T20:11:26Z</time>
      </trkpt>
      <trkpt lat="45.2935" lon="6.56571">
        <ele>2126</ele>
        <time>2018-06-26T20:12:26Z</time>
      </trkpt>
      <trkpt lat="45.29351" lon="6.56578">
        <ele>2126</ele>
        <time>2018-06-26T20:13:26Z</time>
      </trkpt>
      <trkpt lat="45.29353" lon="6.56605">
        <ele>2136</ele>
        <time>2018-06-26T20:14:26Z</time>
      </trkpt>
      <trkpt lat="45.29354" lon="6.56608">
        <ele>2136</ele>
        <time>2018-06-26T20:15:26Z</time>
      </trkpt>
      <trkpt lat="45.2936" lon="6.56619">
        <ele>2137</ele>
        <time>2018-06-26T20:16:26Z</time>
      </trkpt>
      <trkpt lat="45.29364" lon="6.5663">
        <ele>2138</ele>
        <time>2018-06-26T20:17:26Z</time>
      </trkpt>
      <trkpt lat="45.2937" lon="6.56649">
        <ele>2140</ele>
        <time>2018-06-26T20:18:26Z</time>
      </trkpt>
      <trkpt lat="45.29377" lon="6.56659">
        <ele>2139</ele>
        <time>2018-06-26T20:19:26Z</time>
      </trkpt>
      <trkpt lat="45.2938" lon="6.56672">
        <ele>2151</ele>
        <time>2018-06-26T20:20:26Z</time>
      </trkpt>
      <trkpt lat="45.29387" lon="6.56708">
        <ele>2153</ele>
        <time>2018-06-26T20:21:26Z</time>
      </trkpt>
      <trkpt lat="45.29392" lon="6.56727">
        <ele>2154</ele>
        <time>2018-06-26T20:22:26Z</time>
      </trkpt>
      <trkpt lat="45.29399" lon="6.56746">
        <ele>2152</ele>
        <time>2018-06-26T20:23:26Z</time>
      </trkpt>
      <trkpt lat="45.2942" lon="6.56819">
        <ele>2159</ele>
        <time>2018-06-26T20:24:26Z</time>
      </trkpt>
      <trkpt lat="45.29427" lon="6.56837">
        <ele>2167</ele>
        <time>2018-06-26T20:25:26Z</time>
      </trkpt>
      <trkpt lat="45.29438" lon="6.56869">
        <ele>2169</ele>
        <time>2018-06-26T20:26:26Z</time>
      </trkpt>
      <trkpt lat="45.29442" lon="6.56894">
        <ele>2172</ele>
        <time>2018-06-26T20:27:26Z</time>
      </trkpt>
      <trkpt lat="45.29446" lon="6.56928">
        <ele>2183</ele>
        <time>2018-06-26T20:28:26Z</time>
      </trkpt>
      <trkpt lat="45.29445" lon="6.56931">
        <ele>2183</ele>
        <time>2018-06-26T20:29:26Z</time>
      </trkpt>
      <trkpt lat="45.29444" lon="6.56931">
        <ele>2183</ele>
        <time>2018-06-26T20:30:26Z</time>
      </trkpt>
      <trkpt lat="45.29441" lon="6.56924">
        <ele>2183</ele>
        <time>2018-06-26T20:31:26Z</time>
      </trkpt>
      <trkpt lat="45.29438" lon="6.56922">
        <ele>2183</ele>
        <time>2018-06-26T20:32:26Z</time>
      </trkpt>
      <trkpt lat="45.29438" lon="6.56925">
        <ele>2183</ele>
        <time>2018-06-26T20:33:26Z</time>
      </trkpt>
      <trkpt lat="45.2944" lon="6.56939">
        <ele>2184</ele>
        <time>2018-06-26T20:34:26Z</time>
      </trkpt>
      <trkpt lat="45.29442" lon="6.56958">
        <ele>2185</ele>
        <time>2018-06-26T20:35:26Z</time>
      </trkpt>
      <trkpt lat="45.29442" lon="6.56969">
        <ele>2186</ele>
        <time>2018-06-26T20:36:26Z</time>
      </trkpt>
      <trkpt lat="45.29443" lon="6.56972">
        <ele>2186</ele>
        <time>2018-06-26T20:37:26Z</time>
      </trkpt>
      <trkpt lat="45.29445" lon="6.56981">
        <ele>2187</ele>
        <time>2018-06-26T20:38:26Z</time>
      </trkpt>
      <trkpt lat="45.29449" lon="6.56991">
        <ele>2187</ele>
        <time>2018-06-26T20:39:26Z</time>
      </trkpt>
      <trkpt lat="45.29453" lon="6.57003">
        <ele>2194</ele>
        <time>2018-06-26T20:40:26Z</time>
      </trkpt>
      <trkpt lat="45.29456" lon="6.57018">
        <ele>2194</ele>
        <time>2018-06-26T20:41:26Z</time>
      </trkpt>
      <trkpt lat="45.29463" lon="6.57057">
        <ele>2196</ele>
        <time>2018-06-26T20:42:26Z</time>
      </trkpt>
      <trkpt lat="45.29466" lon="6.57067">
        <ele>2196</ele>
        <time>2018-06-26T20:43:26Z</time>
      </trkpt>
      <trkpt lat="45.29474" lon="6.57092">
        <ele>2202</ele>
        <time>2018-06-26T20:44:26Z</time>
      </trkpt>
      <trkpt lat="45.29475" lon="6.57097">
        <ele>2203</ele>
        <time>2018-06-26T20:45:26Z</time>
      </trkpt>
      <trkpt lat="45.29477" lon="6.57104">
        <ele>2203</ele>
        <time>2018-06-26T20:46:26Z</time>
      </trkpt>
      <trkpt lat="45.29477" lon="6.57107">
        <ele>2203</ele>
        <time>2018-06-26T20:47:26Z</time>
      </trkpt>
      <trkpt lat="45.29478" lon="6.57126">
        <ele>2205</ele>
        <time>2018-06-26T20:48:26Z</time>
      </trkpt>
      <trkpt lat="45.29477" lon="6.57128">
        <ele>2205</ele>
        <time>2018-06-26T20:49:26Z</time>
      </trkpt>
      <trkpt lat="45.29476" lon="6.57132">
        <ele>2205</ele>
        <time>2018-06-26T20:50:26Z</time>
      </trkpt>
      <trkpt lat="45.29473" lon="6.57135">
        <ele>2206</ele>
        <time>2018-06-26T20:51:26Z</time>
      </trkpt>
      <trkpt lat="45.2948" lon="6.57146">
        <ele>2206</ele>
        <time>2018-06-26T20:52:26Z</time>
      </trkpt>
      <trkpt lat="45.29492" lon="6.57158">
        <ele>2205</ele>
        <time>2018-06-26T20:53:26Z</time>
      </trkpt>
      <trkpt lat="45.29499" lon="6.57162">
        <ele>2204</ele>
        <time>2018-06-26T20:54:26Z</time>
      </trkpt>
      <trkpt lat="45.29506" lon="6.57163">
        <ele>2203</ele>
        <time>2018-06-26T20:55:26Z</time>
      </trkpt>
      <trkpt lat="45.29519" lon="6.57161">
        <ele>2201</ele>
        <time>2018-06-26T20:56:26Z</time>
      </trkpt>
      <trkpt lat="45.29525" lon="6.57161">
        <ele>2201</ele>
        <time>2018-06-26T20:57:26Z</time>
      </trkpt>
      <trkpt lat="45.2953" lon="6.57164">
        <ele>2200</ele>
        <time>2018-06-26T20:58:26Z</time>
      </trkpt>
      <trkpt lat="45.29541" lon="6.57174">
        <ele>2205</ele>
        <time>2018-06-26T20:59:26Z</time>
      </trkpt>
      <trkpt lat="45.29548" lon="6.57172">
        <ele>2204</ele>
        <time>2018-06-26T21:00:26Z</time>
      </trkpt>
      <trkpt lat="45.29564" lon="6.57172">
        <ele>2203</ele>
        <time>2018-06-26T21:01:26Z</time>
      </trkpt>
      <trkpt lat="45.2957" lon="6.57194">
        <ele>2204</ele>
        <time>2018-06-26T21:02:26Z</time>
      </trkpt>
      <trkpt lat="45.296" lon="6.57345">
        <ele>2217</ele>
        <time>2018-06-26T21:03:26Z</time>
      </trkpt>
      <trkpt lat="45.29602" lon="6.57366">
        <ele>2218</ele>
        <time>2018-06-26T21:04:26Z</time>
      </trkpt>
      <trkpt lat="45.29603" lon="6.57381">
        <ele>2219</ele>
        <time>2018-06-26T21:05:26Z</time>
      </trkpt>
      <trkpt lat="45.29608" lon="6.57382">
        <ele>2220</ele>
        <time>2018-06-26T21:06:26Z</time>
      </trkpt>
      <trkpt lat="45.2962" lon="6.57388">
        <ele>2220</ele>
        <time>2018-06-26T21:07:26Z</time>
      </trkpt>
      <trkpt lat="45.29619" lon="6.57409">
        <ele>2221</ele>
        <time>2018-06-26T21:08:26Z</time>
      </trkpt>
      <trkpt lat="45.29626" lon="6.57468">
        <ele>2230</ele>
        <time>2018-06-26T21:09:26Z</time>
      </trkpt>
      <trkpt lat="45.29628" lon="6.57476">
        <ele>2230</ele>
        <time>2018-06-26T21:10:26Z</time>
      </trkpt>
      <trkpt lat="45.29632" lon="6.57508">
        <ele>2236</ele>
        <time>2018-06-26T21:11:26Z</time>
      </trkpt>
      <trkpt lat="45.2963" lon="6.57541">
        <ele>2237</ele>
        <time>2018-06-26T21:12:26Z</time>
      </trkpt>
      <trkpt lat="45.29628" lon="6.57571">
        <ele>2238</ele>
        <time>2018-06-26T21:13:26Z</time>
      </trkpt>
      <trkpt lat="45.29635" lon="6.57559">
        <ele>2238</ele>
        <time>2018-06-26T21:14:26Z</time>
      </trkpt>
      <trkpt lat="45.29647" lon="6.57536">
        <ele>2238</ele>
        <time>2018-06-26T21:15:26Z</time>
      </trkpt>
      <trkpt lat="45.2967" lon="6.57504">
        <ele>2239</ele>
        <time>2018-06-26T21:16:26Z</time>
      </trkpt>
      <trkpt lat="45.29686" lon="6.57483">
        <ele>2237</ele>
        <time>2018-06-26T21:17:26Z</time>
      </trkpt>
      <trkpt lat="45.29695" lon="6.57473">
        <ele>2237</ele>
        <time>2018-06-26T21:18:26Z</time>
      </trkpt>
      <trkpt lat="45.29705" lon="6.57475">
        <ele>2238</ele>
        <time>2018-06-26T21:19:26Z</time>
      </trkpt>
      <trkpt lat="45.29714" lon="6.57484">
        <ele>2239</ele>
        <time>2018-06-26T21:20:26Z</time>
      </trkpt>
      <trkpt lat="45.29717" lon="6.57495">
        <ele>2240</ele>
        <time>2018-06-26T21:21:26Z</time>
      </trkpt>
      <trkpt lat="45.29724" lon="6.57512">
        <ele>2246</ele>
        <time>2018-06-26T21:22:26Z</time>
      </trkpt>
      <trkpt lat="45.29752" lon="6.57584">
        <ele>2257</ele>
        <time>2018-06-26T21:23:26Z</time>
      </trkpt>
      <trkpt lat="45.29758" lon="6.57607">
        <ele>2263</ele>
        <time>2018-06-26T21:24:26Z</time>
      </trkpt>
      <trkpt lat="45.29765" lon="6.57632">
        <ele>2266</ele>
        <time>2018-06-26T21:25:26Z</time>
      </trkpt>
      <trkpt lat="45.29769" lon="6.57639">
        <ele>2267</ele>
        <time>2018-06-26T21:26:26Z</time>
      </trkpt>
      <trkpt lat="45.29776" lon="6.57646">
        <ele>2267</ele>
        <time>2018-06-26T21:27:26Z</time>
      </trkpt>
      <trkpt lat="45.298" lon="6.57661">
        <ele>2269</ele>
        <time>2018-06-26T21:28:26Z</time>
      </trkpt>
      <trkpt lat="45.29811" lon="6.57671">
        <ele>2278</ele>
        <time>2018-06-26T21:29:26Z</time>
      </trkpt>
      <trkpt lat="45.29829" lon="6.57691">
        <ele>2280</ele>
        <time>2018-06-26T21:30:26Z</time>
      </trkpt>
      <trkpt lat="45.29839" lon="6.577">
        <ele>2286</ele>
        <time>2018-06-26T21:31:26Z</time>
      </trkpt>
      <trkpt lat="45.29845" lon="6.57701">
        <ele>2286</ele>
        <time>2018-06-26T21:32:26Z</time>
      </trkpt>
      <trkpt lat="45.29854" lon="6.57697">
        <ele>2286</ele>
        <time>2018-06-26T21:33:26Z</time>
      </trkpt>
      <trkpt lat="45.29861" lon="6.57702">
        <ele>2287</ele>
        <time>2018-06-26T21:34:26Z</time>
      </trkpt>
      <trkpt lat="45.29872" lon="6.57708">
        <ele>2288</ele>
        <time>2018-06-26T21:35:26Z</time>
      </trkpt>
      <trkpt lat="45.29886" lon="6.57712">
        <ele>2289</ele>
        <time>2018-06-26T21:36:26Z</time>
      </trkpt>
      <trkpt lat="45.29899" lon="6.57715">
        <ele>2290</ele>
        <time>2018-06-26T21:37:26Z</time>
      </trkpt>
      <trkpt lat="45.2991" lon="6.57713">
        <ele>2290</ele>
        <time>2018-06-26T21:38:26Z</time>
      </trkpt>
      <trkpt lat="45.29919" lon="6.57709">
        <ele>2304</ele>
        <time>2018-06-26T21:39:26Z</time>
      </trkpt>
      <trkpt lat="45.29927" lon="6.57697">
        <ele>2303</ele>
        <time>2018-06-26T21:40:26Z</time>
      </trkpt>
      <trkpt lat="45.29936" lon="6.57678">
        <ele>2302</ele>
        <time>2018-06-26T21:41:26Z</time>
      </trkpt>
      <trkpt lat="45.29948" lon="6.57635">
        <ele>2302</ele>
        <time>2018-06-26T21:42:26Z</time>
      </trkpt>
      <trkpt lat="45.29957" lon="6.576">
        <ele>2304</ele>
        <time>2018-06-26T21:43:26Z</time>
      </trkpt>
      <trkpt lat="45.2997" lon="6.57549">
        <ele>2303</ele>
        <time>2018-06-26T21:44:26Z</time>
      </trkpt>
      <trkpt lat="45.29977" lon="6.57512">
        <ele>2305</ele>
        <time>2018-06-26T21:45:26Z</time>
      </trkpt>
      <trkpt lat="45.29995" lon="6.57439">
        <ele>2298</ele>
        <time>2018-06-26T21:46:26Z</time>
      </trkpt>
      <trkpt lat="45.30002" lon="6.57431">
        <ele>2316</ele>
        <time>2018-06-26T21:47:26Z</time>
      </trkpt>
      <trkpt lat="45.30007" lon="6.57425">
        <ele>2314</ele>
        <time>2018-06-26T21:48:26Z</time>
      </trkpt>
      <trkpt lat="45.30021" lon="6.57401">
        <ele>2310</ele>
        <time>2018-06-26T21:49:26Z</time>
      </trkpt>
      <trkpt lat="45.30046" lon="6.57371">
        <ele>2312</ele>
        <time>2018-06-26T21:50:26Z</time>
      </trkpt>
      <trkpt lat="45.30075" lon="6.57347">
        <ele>2314</ele>
        <time>2018-06-26T21:51:26Z</time>
      </trkpt>
      <trkpt lat="45.30092" lon="6.57334">
        <ele>2323</ele>
        <time>2018-06-26T21:52:26Z</time>
      </trkpt>
      <trkpt lat="45.30107" lon="6.57316">
        <ele>2322</ele>
        <time>2018-06-26T21:53:26Z</time>
      </trkpt>
      <trkpt lat="45.30122" lon="6.5729">
        <ele>2323</ele>
        <time>2018-06-26T21:54:26Z</time>
      </trkpt>
      <trkpt lat="45.30142" lon="6.57253">
        <ele>2325</ele>
        <time>2018-06-26T21:55:26Z</time>
      </trkpt>
      <trkpt lat="45.30161" lon="6.57225">
        <ele>2318</ele>
        <time>2018-06-26T21:56:26Z</time>
      </trkpt>
      <trkpt lat="45.30164" lon="6.57229">
        <ele>2319</ele>
        <time>2018-06-26T21:57:26Z</time>
      </trkpt>
      <trkpt lat="45.30163" lon="6.57251">
        <ele>2329</ele>
        <time>2018-06-26T21:58:26Z</time>
      </trkpt>
      <trkpt lat="45.30164" lon="6.57254">
        <ele>2329</ele>
        <time>2018-06-26T21:59:26Z</time>
      </trkpt>
      <trkpt lat="45.30166" lon="6.57256">
        <ele>2329</ele>
        <time>2018-06-26T22:00:26Z</time>
      </trkpt>
      <trkpt lat="45.30173" lon="6.57259">
        <ele>2338</ele>
        <time>2018-06-26T22:01:26Z</time>
      </trkpt>
      <trkpt lat="45.30175" lon="6.57258">
        <ele>2338</ele>
        <time>2018-06-26T22:02:26Z</time>
      </trkpt>
      <trkpt lat="45.30179" lon="6.57255">
        <ele>2339</ele>
        <time>2018-06-26T22:03:26Z</time>
      </trkpt>
      <trkpt lat="45.30182" lon="6.57254">
        <ele>2341</ele>
        <time>2018-06-26T22:04:26Z</time>
      </trkpt>
      <trkpt lat="45.30206" lon="6.57247">
        <ele>2337</ele>
        <time>2018-06-26T22:05:26Z</time>
      </trkpt>
      <trkpt lat="45.30213" lon="6.5725">
        <ele>2339</ele>
        <time>2018-06-26T22:06:26Z</time>
      </trkpt>
      <trkpt lat="45.30233" lon="6.57226">
        <ele>2342</ele>
        <time>2018-06-26T22:07:26Z</time>
      </trkpt>
      <trkpt lat="45.30244" lon="6.5722">
        <ele>2342</ele>
        <time>2018-06-26T22:08:26Z</time>
      </trkpt>
      <trkpt lat="45.30248" lon="6.57252">
        <ele>2358</ele>
        <time>2018-06-26T22:09:26Z</time>
      </trkpt>
      <trkpt lat="45.30253" lon="6.57249">
        <ele>2358</ele>
        <time>2018-06-26T22:10:26Z</time>
      </trkpt>
      <trkpt lat="45.30261" lon="6.57247">
        <ele>2360</ele>
        <time>2018-06-26T22:11:26Z</time>
      </trkpt>
      <trkpt lat="45.3027" lon="6.57245">
        <ele>2361</ele>
        <time>2018-06-26T22:12:26Z</time>
      </trkpt>
      <trkpt lat="45.30272" lon="6.57248">
        <ele>2361</ele>
        <time>2018-06-26T22:13:26Z</time>
      </trkpt>
      <trkpt lat="45.30275" lon="6.57252">
        <ele>2373</ele>
        <time>2018-06-26T22:14:26Z</time>
      </trkpt>
      <trkpt lat="45.30276" lon="6.57256">
        <ele>2373</ele>
        <time>2018-06-26T22:15:26Z</time>
      </trkpt>
      <trkpt lat="45.30275" lon="6.57263">
        <ele>2374</ele>
        <time>2018-06-26T22:16:26Z</time>
      </trkpt>
      <trkpt lat="45.30274" lon="6.57272">
        <ele>2375</ele>
        <time>2018-06-26T22:17:26Z</time>
      </trkpt>
      <trkpt lat="45.30278" lon="6.57276">
        <ele>2377</ele>
        <time>2018-06-26T22:18:26Z</time>
      </trkpt>
      <trkpt lat="45.30285" lon="6.57279">
        <ele>2379</ele>
        <time>2018-06-26T22:19:26Z</time>
      </trkpt>
      <trkpt lat="45.30288" lon="6.57287">
        <ele>2380</ele>
        <time>2018-06-26T22:20:26Z</time>
      </trkpt>
      <trkpt lat="45.30297" lon="6.57297">
        <ele>2383</ele>
        <time>2018-06-26T22:21:26Z</time>
      </trkpt>
      <trkpt lat="45.30302" lon="6.57298">
        <ele>2384</ele>
        <time>2018-06-26T22:22:26Z</time>
      </trkpt>
      <trkpt lat="45.30307" lon="6.57302">
        <ele>2385</ele>
        <time>2018-06-26T22:23:26Z</time>
      </trkpt>
      <trkpt lat="45.30311" lon="6.57302">
        <ele>2385</ele>
        <time>2018-06-26T22:24:26Z</time>
      </trkpt>
      <trkpt lat="45.30321" lon="6.57301">
        <ele>2387</ele>
        <time>2018-06-26T22:25:26Z</time>
      </trkpt>
      <trkpt lat="45.30326" lon="6.57299">
        <ele>2387</ele>
        <time>2018-06-26T22:26:26Z</time>
      </trkpt>
      <trkpt lat="45.30332" lon="6.57293">
        <ele>2386</ele>
        <time>2018-06-26T22:27:26Z</time>
      </trkpt>
      <trkpt lat="45.30335" lon="6.57292">
        <ele>2399</ele>
        <time>2018-06-26T22:28:26Z</time>
      </trkpt>
      <trkpt lat="45.30338" lon="6.57293">
        <ele>2399</ele>
        <time>2018-06-26T22:29:26Z</time>
      </trkpt>
      <trkpt lat="45.30341" lon="6.57298">
        <ele>2400</ele>
        <time>2018-06-26T22:30:26Z</time>
      </trkpt>
      <trkpt lat="45.30342" lon="6.57306">
        <ele>2401</ele>
        <time>2018-06-26T22:31:26Z</time>
      </trkpt>
      <trkpt lat="45.30347" lon="6.57307">
        <ele>2401</ele>
        <time>2018-06-26T22:32:26Z</time>
      </trkpt>
      <trkpt lat="45.30354" lon="6.57314">
        <ele>2402</ele>
        <time>2018-06-26T22:33:26Z</time>
      </trkpt>
      <trkpt lat="45.30367" lon="6.57325">
        <ele>2403</ele>
        <time>2018-06-26T22:34:26Z</time>
      </trkpt>
      <trkpt lat="45.30384" lon="6.57329">
        <ele>2406</ele>
        <time>2018-06-26T22:35:26Z</time>
      </trkpt>
      <trkpt lat="45.30418" lon="6.57337">
        <ele>2417</ele>
        <time>2018-06-26T22:36:26Z</time>
      </trkpt>
      <trkpt lat="45.30441" lon="6.5734">
        <ele>2424</ele>
        <time>2018-06-26T22:37:26Z</time>
      </trkpt>
      <trkpt lat="45.30463" lon="6.57345">
        <ele>2427</ele>
        <time>2018-06-26T22:38:26Z</time>
      </trkpt>
      <trkpt lat="45.30475" lon="6.5735">
        <ele>2429</ele>
        <time>2018-06-26T22:39:26Z</time>
      </trkpt>
      <trkpt lat="45.30478" lon="6.57353">
        <ele>2429</ele>
        <time>2018-06-26T22:40:26Z</time>
      </trkpt>
      <trkpt lat="45.30479" lon="6.57363">
        <ele>2430</ele>
        <time>2018-06-26T22:41:26Z</time>
      </trkpt>
      <trkpt lat="45.30484" lon="6.57365">
        <ele>2430</ele>
        <time>2018-06-26T22:42:26Z</time>
      </trkpt>
      <trkpt lat="45.30505" lon="6.5738">
        <ele>2444</ele>
        <time>2018-06-26T22:43:26Z</time>
      </trkpt>
      <trkpt lat="45.30514" lon="6.57394">
        <ele>2446</ele>
        <time>2018-06-26T22:44:26Z</time>
      </trkpt>
      <trkpt lat="45.30524" lon="6.57408">
        <ele>2447</ele>
        <time>2018-06-26T22:45:26Z</time>
      </trkpt>
      <trkpt lat="45.30527" lon="6.57415">
        <ele>2448</ele>
        <time>2018-06-26T22:46:26Z</time>
      </trkpt>
      <trkpt lat="45.30531" lon="6.57417">
        <ele>2458</ele>
        <time>2018-06-26T22:47:26Z</time>
      </trkpt>
      <trkpt lat="45.30553" lon="6.57417">
        <ele>2463</ele>
        <time>2018-06-26T22:48:26Z</time>
      </trkpt>
      <trkpt lat="45.30558" lon="6.57418">
        <ele>2464</ele>
        <time>2018-06-26T22:49:26Z</time>
      </trkpt>
      <trkpt lat="45.30561" lon="6.57422">
        <ele>2464</ele>
        <time>2018-06-26T22:50:26Z</time>
      </trkpt>
      <trkpt lat="45.30577" lon="6.57459">
        <ele>2468</ele>
        <time>2018-06-26T22:51:26Z</time>
      </trkpt>
      <trkpt lat="45.30586" lon="6.57489">
        <ele>2487</ele>
        <time>2018-06-26T22:52:26Z</time>
      </trkpt>
      <trkpt lat="45.30594" lon="6.57515">
        <ele>2496</ele>
        <time>2018-06-26T22:53:26Z</time>
      </trkpt>
      <trkpt lat="45.30599" lon="6.57542">
        <ele>2504</ele>
        <time>2018-06-26T22:54:26Z</time>
      </trkpt>
      <trkpt lat="45.30602" lon="6.5755">
        <ele>2505</ele>
        <time>2018-06-26T22:55:26Z</time>
      </trkpt>
      <trkpt lat="45.30606" lon="6.57558">
        <ele>2506</ele>
        <time>2018-06-26T22:56:26Z</time>
      </trkpt>
      <trkpt lat="45.30606" lon="6.5757">
        <ele>2506</ele>
        <time>2018-06-26T22:57:26Z</time>
      </trkpt>
      <trkpt lat="45.30611" lon="6.57599">
        <ele>2516</ele>
        <time>2018-06-26T22:58:26Z</time>
      </trkpt>
      <trkpt lat="45.30609" lon="6.57609">
        <ele>2516</ele>
        <time>2018-06-26T22:59:26Z</time>
      </trkpt>
      <trkpt lat="45.3061" lon="6.57614">
        <ele>2517</ele>
        <time>2018-06-26T23:00:26Z</time>
      </trkpt>
      <trkpt lat="45.30613" lon="6.57626">
        <ele>2519</ele>
        <time>2018-06-26T23:01:26Z</time>
      </trkpt>
      <trkpt lat="45.30617" lon="6.57628">
        <ele>2520</ele>
        <time>2018-06-26T23:02:26Z</time>
      </trkpt>
      <trkpt lat="45.30619" lon="6.57627">
        <ele>2520</ele>
        <time>2018-06-26T23:03:26Z</time>
      </trkpt>
      <trkpt lat="45.30621" lon="6.57623">
        <ele>2520</ele>
        <time>2018-06-26T23:04:26Z</time>
      </trkpt>
      <trkpt lat="45.30624" lon="6.57624">
        <ele>2521</ele>
        <time>2018-06-26T23:05:26Z</time>
      </trkpt>
      <trkpt lat="45.30626" lon="6.57635">
        <ele>2522</ele>
        <time>2018-06-26T23:06:26Z</time>
      </trkpt>
      <trkpt lat="45.30632" lon="6.5765">
        <ele>2524</ele>
        <time>2018-06-26T23:07:26Z</time>
      </trkpt>
      <trkpt lat="45.30641" lon="6.57653">
        <ele>2526</ele>
        <time>2018-06-26T23:08:26Z</time>
      </trkpt>
      <trkpt lat="45.30651" lon="6.57663">
        <ele>2529</ele>
        <time>2018-06-26T23:09:26Z</time>
      </trkpt>
      <trkpt lat="45.30659" lon="6.57674">
        <ele>2535</ele>
        <time>2018-06-26T23:10:26Z</time>
      </trkpt>
      <trkpt lat="45.30666" lon="6.57686">
        <ele>2535</ele>
        <time>2018-06-26T23:11:26Z</time>
      </trkpt>
      <trkpt lat="45.30683" lon="6.57709">
        <ele>2547</ele>
        <time>2018-06-26T23:12:26Z</time>
      </trkpt>
      <trkpt lat="45.30698" lon="6.57717">
        <ele>2548</ele>
        <time>2018-06-26T23:13:26Z</time>
      </trkpt>
      <trkpt lat="45.30711" lon="6.5772">
        <ele>2550</ele>
        <time>2018-06-26T23:14:26Z</time>
      </trkpt>
      <trkpt lat="45.30724" lon="6.57718">
        <ele>2551</ele>
        <time>2018-06-26T23:15:26Z</time>
      </trkpt>
      <trkpt lat="45.30737" lon="6.57712">
        <ele>2552</ele>
        <time>2018-06-26T23:16:26Z</time>
      </trkpt>
      <trkpt lat="45.30773" lon="6.57698">
        <ele>2558</ele>
        <time>2018-06-26T23:17:26Z</time>
      </trkpt>
      <trkpt lat="45.30783" lon="6.57697">
        <ele>2558</ele>
        <time>2018-06-26T23:18:26Z</time>
      </trkpt>
      <trkpt lat="45.30796" lon="6.57694">
        <ele>2558</ele>
        <time>2018-06-26T23:19:26Z</time>
      </trkpt>
      <trkpt lat="45.308" lon="6.57692">
        <ele>2558</ele>
        <time>2018-06-26T23:20:26Z</time>
      </trkpt>
      <trkpt lat="45.30805" lon="6.57688">
        <ele>2558</ele>
        <time>2018-06-26T23:21:26Z</time>
      </trkpt>
      <trkpt lat="45.30808" lon="6.57683">
        <ele>2558</ele>
        <time>2018-06-26T23:22:26Z</time>
      </trkpt>
      <trkpt lat="45.3081" lon="6.57677">
        <ele>2558</ele>
        <time>2018-06-26T23:23:26Z</time>
      </trkpt>
      <trkpt lat="45.3083" lon="6.57614">
        <ele>2557</ele>
        <time>2018-06-26T23:24:26Z</time>
      </trkpt>
      <trkpt lat="45.30837" lon="6.5757">
        <ele>2565</ele>
        <time>2018-06-26T23:25:26Z</time>
      </trkpt>
      <trkpt lat="45.30839" lon="6.57549">
        <ele>2566</ele>
        <time>2018-06-26T23:26:26Z</time>
      </trkpt>
      <trkpt lat="45.30839" lon="6.57532">
        <ele>2566</ele>
        <time>2018-06-26T23:27:26Z</time>
      </trkpt>
      <trkpt lat="45.30838" lon="6.57528">
        <ele>2565</ele>
        <time>2018-06-26T23:28:26Z</time>
      </trkpt>
      <trkpt lat="45.30833" lon="6.57518">
        <ele>2558</ele>
        <time>2018-06-26T23:29:26Z</time>
      </trkpt>
      <trkpt lat="45.30831" lon="6.57509">
        <ele>2558</ele>
        <time>2018-06-26T23:30:26Z</time>
      </trkpt>
      <trkpt lat="45.30829" lon="6.57505">
        <ele>2558</ele>
        <time>2018-06-26T23:31:26Z</time>
      </trkpt>
      <trkpt lat="45.3083" lon="6.57504">
        <ele>2558</ele>
        <time>2018-06-26T23:32:26Z</time>
      </trkpt>
      <trkpt lat="45.30837" lon="6.57501">
        <ele>2565</ele>
        <time>2018-06-26T23:33:26Z</time>
      </trkpt>
      <trkpt lat="45.3084" lon="6.57501">
        <ele>2566</ele>
        <time>2018-06-26T23:34:26Z</time>
      </trkpt>
      <trkpt lat="45.30842" lon="6.57502">
        <ele>2566</ele>
        <time>2018-06-26T23:35:26Z</time>
      </trkpt>
      <trkpt lat="45.30844" lon="6.57504">
        <ele>2566</ele>
        <time>2018-06-26T23:36:26Z</time>
      </trkpt>
      <trkpt lat="45.30847" lon="6.57508">
        <ele>2567</ele>
        <time>2018-06-26T23:37:26Z</time>
      </trkpt>
      <trkpt lat="45.30848" lon="6.57508">
        <ele>2567</ele>
        <time>2018-06-26T23:38:26Z</time>
      </trkpt>
      <trkpt lat="45.3085" lon="6.5751">
        <ele>2567</ele>
        <time>2018-06-26T23:39:26Z</time>
      </trkpt>
      <trkpt lat="45.30851" lon="6.57512">
        <ele>2567</ele>
        <time>2018-06-26T23:40:26Z</time>
      </trkpt>
      <trkpt lat="45.30858" lon="6.57523">
        <ele>2568</ele>
        <time>2018-06-26T23:41:26Z</time>
      </trkpt>
      <trkpt lat="45.30864" lon="6.5753">
        <ele>2570</ele>
        <time>2018-06-26T23:42:26Z</time>
      </trkpt>
      <trkpt lat="45.30868" lon="6.57536">
        <ele>2570</ele>
        <time>2018-06-26T23:43:26Z</time>
      </trkpt>
      <trkpt lat="45.30875" lon="6.57549">
        <ele>2572</ele>
        <time>2018-06-26T23:44:26Z</time>
      </trkpt>
      <trkpt lat="45.30877" lon="6.57551">
        <ele>2573</ele>
        <time>2018-06-26T23:45:26Z</time>
      </trkpt>
      <trkpt lat="45.30881" lon="6.57554">
        <ele>2574</ele>
        <time>2018-06-26T23:46:26Z</time>
      </trkpt>
      <trkpt lat="45.30885" lon="6.57562">
        <ele>2575</ele>
        <time>2018-06-26T23:47:26Z</time>
      </trkpt>
      <trkpt lat="45.30886" lon="6.57566">
        <ele>2576</ele>
        <time>2018-06-26T23:48:26Z</time>
      </trkpt>
      <trkpt lat="45.30891" lon="6.57582">
        <ele>2578</ele>
        <time>2018-06-26T23:49:26Z</time>
      </trkpt>
      <trkpt lat="45.30892" lon="6.57593">
        <ele>2580</ele>
        <time>2018-06-26T23:50:26Z</time>
      </trkpt>
      <trkpt lat="45.30894" lon="6.57612">
        <ele>2582</ele>
        <time>2018-06-26T23:51:26Z</time>
      </trkpt>
      <trkpt lat="45.30894" lon="6.57625">
        <ele>2584</ele>
        <time>2018-06-26T23:52:26Z</time>
      </trkpt>
      <trkpt lat="45.30896" lon="6.57633">
        <ele>2585</ele>
        <time>2018-06-26T23:53:26Z</time>
      </trkpt>
      <trkpt lat="45.30897" lon="6.57641">
        <ele>2586</ele>
        <time>2018-06-26T23:54:26Z</time>
      </trkpt>
      <trkpt lat="45.30896" lon="6.57649">
        <ele>2587</ele>
        <time>2018-06-26T23:55:26Z</time>
      </trkpt>
      <trkpt lat="45.30899" lon="6.57681">
        <ele>2590</ele>
        <time>2018-06-26T23:56:26Z</time>
      </trkpt>
      <trkpt lat="45.30901" lon="6.57686">
        <ele>2590</ele>
        <time>2018-06-26T23:57:26Z</time>
      </trkpt>
      <trkpt lat="45.30906" lon="6.57704">
        <ele>2592</ele>
        <time>2018-06-26T23:58:26Z</time>
      </trkpt>
      <trkpt lat="45.30911" lon="6.57716">
        <ele>2594</ele>
        <time>2018-06-26T23:59:26Z</time>
      </trkpt>
      <trkpt lat="45.30919" lon="6.57736">
        <ele>2597</ele>
        <time>2018-06-27T00:00:26Z</time>
      </trkpt>
      <trkpt lat="45.30921" lon="6.57739">
        <ele>2598</ele>
        <time>2018-06-27T00:01:26Z</time>
      </trkpt>
      <trkpt lat="45.3093" lon="6.57747">
        <ele>2602</ele>
        <time>2018-06-27T00:02:26Z</time>
      </trkpt>
      <trkpt lat="45.30932" lon="6.5775">
        <ele>2602</ele>
        <time>2018-06-27T00:03:26Z</time>
      </trkpt>
      <trkpt lat="45.30937" lon="6.57753">
        <ele>2604</ele>
        <time>2018-06-27T00:04:26Z</time>
      </trkpt>
      <trkpt lat="45.30941" lon="6.57754">
        <ele>2606</ele>
        <time>2018-06-27T00:05:26Z</time>
      </trkpt>
      <trkpt lat="45.30946" lon="6.57754">
        <ele>2608</ele>
        <time>2018-06-27T00:06:26Z</time>
      </trkpt>
      <trkpt lat="45.3095" lon="6.57756">
        <ele>2609</ele>
        <time>2018-06-27T00:07:26Z</time>
      </trkpt>
      <trkpt lat="45.30958" lon="6.57758">
        <ele>2612</ele>
        <time>2018-06-27T00:08:26Z</time>
      </trkpt>
      <trkpt lat="45.30967" lon="6.57768">
        <ele>2615</ele>
        <time>2018-06-27T00:09:26Z</time>
      </trkpt>
      <trkpt lat="45.30968" lon="6.57768">
        <ele>2615</ele>
        <time>2018-06-27T00:10:26Z</time>
      </trkpt>
      <trkpt lat="45.30965" lon="6.57756">
        <ele>2616</ele>
        <time>2018-06-27T00:11:26Z</time>
      </trkpt>
      <trkpt lat="45.30965" lon="6.5775">
        <ele>2616</ele>
        <time>2018-06-27T00:12:26Z</time>
      </trkpt>
      <trkpt lat="45.30966" lon="6.57748">
        <ele>2617</ele>
        <time>2018-06-27T00:13:26Z</time>
      </trkpt>
      <trkpt lat="45.30967" lon="6.57748">
        <ele>2617</ele>
        <time>2018-06-27T00:14:26Z</time>
      </trkpt>
      <trkpt lat="45.30968" lon="6.57749">
        <ele>2618</ele>
        <time>2018-06-27T00:15:26Z</time>
      </trkpt>
      <trkpt lat="45.30972" lon="6.57753">
        <ele>2619</ele>
        <time>2018-06-27T00:16:26Z</time>
      </trkpt>
      <trkpt lat="45.30976" lon="6.57754">
        <ele>2620</ele>
        <time>2018-06-27T00:17:26Z</time>
      </trkpt>
      <trkpt lat="45.30987" lon="6.57759">
        <ele>2624</ele>
        <time>2018-06-27T00:18:26Z</time>
      </trkpt>
      <trkpt lat="45.30988" lon="6.57762">
        <ele>2624</ele>
        <time>2018-06-27T00:19:26Z</time>
      </trkpt>
      <trkpt lat="45.30998" lon="6.57767">
        <ele>2627</ele>
        <time>2018-06-27T00:20:26Z</time>
      </trkpt>
      <trkpt lat="45.30999" lon="6.57765">
        <ele>2628</ele>
        <time>2018-06-27T00:21:26Z</time>
      </trkpt>
      <trkpt lat="45.31" lon="6.57762">
        <ele>2629</ele>
        <time>2018-06-27T00:22:26Z</time>
      </trkpt>
      <trkpt lat="45.30999" lon="6.57758">
        <ele>2629</ele>
        <time>2018-06-27T00:23:26Z</time>
      </trkpt>
      <trkpt lat="45.30996" lon="6.57741">
        <ele>2630</ele>
        <time>2018-06-27T00:24:26Z</time>
      </trkpt>
      <trkpt lat="45.30995" lon="6.5774">
        <ele>2629</ele>
        <time>2018-06-27T00:25:26Z</time>
      </trkpt>
      <trkpt lat="45.30992" lon="6.57731">
        <ele>2628</ele>
        <time>2018-06-27T00:26:26Z</time>
      </trkpt>
      <trkpt lat="45.30989" lon="6.57728">
        <ele>2627</ele>
        <time>2018-06-27T00:27:26Z</time>
      </trkpt>
      <trkpt lat="45.30985" lon="6.57721">
        <ele>2626</ele>
        <time>2018-06-27T00:28:26Z</time>
      </trkpt>
      <trkpt lat="45.30986" lon="6.57721">
        <ele>2626</ele>
        <time>2018-06-27T00:29:26Z</time>
      </trkpt>
      <trkpt lat="45.3099" lon="6.57725">
        <ele>2628</ele>
        <time>2018-06-27T00:30:26Z</time>
      </trkpt>
      <trkpt lat="45.30993" lon="6.57727">
        <ele>2629</ele>
        <time>2018-06-27T00:31:26Z</time>
      </trkpt>
      <trkpt lat="45.30997" lon="6.57729">
        <ele>2631</ele>
        <time>2018-06-27T00:32:26Z</time>
      </trkpt>
      <trkpt lat="45.30997" lon="6.57728">
        <ele>2631</ele>
        <time>2018-06-27T00:33:26Z</time>
      </trkpt>
      <trkpt lat="45.30993" lon="6.57718">
        <ele>2629</ele>
        <time>2018-06-27T00:34:26Z</time>
      </trkpt>
      <trkpt lat="45.30989" lon="6.57713">
        <ele>2628</ele>
        <time>2018-06-27T00:35:26Z</time>
      </trkpt>
      <trkpt lat="45.30989" lon="6.57712">
        <ele>2628</ele>
        <time>2018-06-27T00:36:26Z</time>
      </trkpt>
      <trkpt lat="45.3099" lon="6.57712">
        <ele>2628</ele>
        <time>2018-06-27T00:37:26Z</time>
      </trkpt>
      <trkpt lat="45.31" lon="6.5772">
        <ele>2632</ele>
        <time>2018-06-27T00:38:26Z</time>
      </trkpt>
      <trkpt lat="45.30997" lon="6.57712">
        <ele>2631</ele>
        <time>2018-06-27T00:39:26Z</time>
      </trkpt>
      <trkpt lat="45.30993" lon="6.57706">
        <ele>2630</ele>
        <time>2018-06-27T00:40:26Z</time>
      </trkpt>
      <trkpt lat="45.31004" lon="6.57712">
        <ele>2635</ele>
        <time>2018-06-27T00:41:26Z</time>
      </trkpt>
      <trkpt lat="45.31005" lon="6.57713">
        <ele>2635</ele>
        <time>2018-06-27T00:42:26Z</time>
      </trkpt>
      <trkpt lat="45.31005" lon="6.57712">
        <ele>2635</ele>
        <time>2018-06-27T00:43:26Z</time>
      </trkpt>
      <trkpt lat="45.30997" lon="6.57697">
        <ele>2632</ele>
        <time>2018-06-27T00:44:26Z</time>
      </trkpt>
      <trkpt lat="45.30998" lon="6.57697">
        <ele>2633</ele>
        <time>2018-06-27T00:45:26Z</time>
      </trkpt>
      <trkpt lat="45.31013" lon="6.57702">
        <ele>2640</ele>
        <time>2018-06-27T00:46:26Z</time>
      </trkpt>
      <trkpt lat="45.31015" lon="6.57702">
        <ele>2641</ele>
        <time>2018-06-27T00:47:26Z</time>
      </trkpt>
      <trkpt lat="45.31017" lon="6.57701">
        <ele>2642</ele>
        <time>2018-06-27T00:48:26Z</time>
      </trkpt>
      <trkpt lat="45.31019" lon="6.57702">
        <ele>2643</ele>
        <time>2018-06-27T00:49:26Z</time>
      </trkpt>
      <trkpt lat="45.3102" lon="6.57703">
        <ele>2643</ele>
        <time>2018-06-27T00:50:26Z</time>
      </trkpt>
      <trkpt lat="45.31027" lon="6.57705">
        <ele>2647</ele>
        <time>2018-06-27T00:51:26Z</time>
      </trkpt>
      <trkpt lat="45.31027" lon="6.57704">
        <ele>2647</ele>
        <time>2018-06-27T00:52:26Z</time>
      </trkpt>
      <trkpt lat="45.31026" lon="6.577">
        <ele>2647</ele>
        <time>2018-06-27T00:53:26Z</time>
      </trkpt>
      <trkpt lat="45.31024" lon="6.57698">
        <ele>2646</ele>
        <time>2018-06-27T00:54:26Z</time>
      </trkpt>
      <trkpt lat="45.31024" lon="6.57697">
        <ele>2646</ele>
        <time>2018-06-27T00:55:26Z</time>
      </trkpt>
      <trkpt lat="45.31027" lon="6.57697">
        <ele>2647</ele>
        <time>2018-06-27T00:56:26Z</time>
      </trkpt>
      <trkpt lat="45.31029" lon="6.57698">
        <ele>2648</ele>
        <time>2018-06-27T00:57:26Z</time>
      </trkpt>
      <trkpt lat="45.31038" lon="6.57703">
        <ele>2653</ele>
        <time>2018-06-27T00:58:26Z</time>
      </trkpt>
      <trkpt lat="45.31038" lon="6.57702">
        <ele>2653</ele>
        <time>2018-06-27T00:59:26Z</time>
      </trkpt>
      <trkpt lat="45.31038" lon="6.57697">
        <ele>2653</ele>
        <time>2018-06-27T01:00:26Z</time>
      </trkpt>
      <trkpt lat="45.31039" lon="6.57695">
        <ele>2653</ele>
        <time>2018-06-27T01:01:26Z</time>
      </trkpt>
      <trkpt lat="45.31042" lon="6.5769">
        <ele>2655</ele>
        <time>2018-06-27T01:02:26Z</time>
      </trkpt>
      <trkpt lat="45.31043" lon="6.57686">
        <ele>2656</ele>
        <time>2018-06-27T01:03:26Z</time>
      </trkpt>
      <trkpt lat="45.31048" lon="6.57669">
        <ele>2659</ele>
        <time>2018-06-27T01:04:26Z</time>
      </trkpt>
      <trkpt lat="45.3105" lon="6.57665">
        <ele>2659</ele>
        <time>2018-06-27T01:05:26Z</time>
      </trkpt>
      <trkpt lat="45.31051" lon="6.57663">
        <ele>2659</ele>
        <time>2018-06-27T01:06:26Z</time>
      </trkpt>
      <trkpt lat="45.31054" lon="6.57663">
        <ele>2660</ele>
        <time>2018-06-27T01:07:26Z</time>
      </trkpt>
      <trkpt lat="45.31059" lon="6.57657">
        <ele>2661</ele>
        <time>2018-06-27T01:08:26Z</time>
      </trkpt>
      <trkpt lat="45.31068" lon="6.57642">
        <ele>2661</ele>
        <time>2018-06-27T01:09:26Z</time>
      </trkpt>
      <trkpt lat="45.3107" lon="6.5764">
        <ele>2661</ele>
        <time>2018-06-27T01:10:26Z</time>
      </trkpt>
      <trkpt lat="45.31073" lon="6.57638">
        <ele>2662</ele>
        <time>2018-06-27T01:11:26Z</time>
      </trkpt>
      <trkpt lat="45.31074" lon="6.57635">
        <ele>2661</ele>
        <time>2018-06-27T01:12:26Z</time>
      </trkpt>
      <trkpt lat="45.31083" lon="6.57625">
        <ele>2662</ele>
        <time>2018-06-27T01:13:26Z</time>
      </trkpt>
      <trkpt lat="45.31083" lon="6.57627">
        <ele>2663</ele>
        <time>2018-06-27T01:14:26Z</time>
      </trkpt>
      <trkpt lat="45.31084" lon="6.57628">
        <ele>2663</ele>
        <time>2018-06-27T01:15:26Z</time>
      </trkpt>
      <trkpt lat="45.31083" lon="6.5763">
        <ele>2664</ele>
        <time>2018-06-27T01:16:26Z</time>
      </trkpt>
      <trkpt lat="45.31082" lon="6.57633">
        <ele>2664</ele>
        <time>2018-06-27T01:17:26Z</time>
      </trkpt>
      <trkpt lat="45.31082" lon="6.57636">
        <ele>2665</ele>
        <time>2018-06-27T01:18:26Z</time>
      </trkpt>
      <trkpt lat="45.31081" lon="6.57648">
        <ele>2669</ele>
        <time>2018-06-27T01:19:26Z</time>
      </trkpt>
      <trkpt lat="45.3108" lon="6.57649">
        <ele>2668</ele>
        <time>2018-06-27T01:20:26Z</time>
      </trkpt>
      <trkpt lat="45.31079" lon="6.57652">
        <ele>2669</ele>
        <time>2018-06-27T01:21:26Z</time>
      </trkpt>
      <trkpt lat="45.31081" lon="6.57653">
        <ele>2670</ele>
        <time>2018-06-27T01:22:26Z</time>
      </trkpt>
      <trkpt lat="45.31083" lon="6.57652">
        <ele>2671</ele>
        <time>2018-06-27T01:23:26Z</time>
      </trkpt>
      <trkpt lat="45.31083" lon="6.57653">
        <ele>2671</ele>
        <time>2018-06-27T01:24:26Z</time>
      </trkpt>
      <trkpt lat="45.3108" lon="6.5766">
        <ele>2672</ele>
        <time>2018-06-27T01:25:26Z</time>
      </trkpt>
      <trkpt lat="45.31079" lon="6.57664">
        <ele>2673</ele>
        <time>2018-06-27T01:26:26Z</time>
      </trkpt>
      <trkpt lat="45.3108" lon="6.57665">
        <ele>2674</ele>
        <time>2018-06-27T01:27:26Z</time>
      </trkpt>
      <trkpt lat="45.31081" lon="6.57665">
        <ele>2674</ele>
        <time>2018-06-27T01:28:26Z</time>
      </trkpt>
      <trkpt lat="45.31082" lon="6.57664">
        <ele>2674</ele>
        <time>2018-06-27T01:29:26Z</time>
      </trkpt>
      <trkpt lat="45.31085" lon="6.57661">
        <ele>2674</ele>
        <time>2018-06-27T01:30:26Z</time>
      </trkpt>
      <trkpt lat="45.31087" lon="6.57661">
        <ele>2675</ele>
        <time>2018-06-27T01:31:26Z</time>
      </trkpt>
      <trkpt lat="45.31087" lon="6.57663">
        <ele>2676</ele>
        <time>2018-06-27T01:32:26Z</time>
      </trkpt>
      <trkpt lat="45.31086" lon="6.57668">
        <ele>2677</ele>
        <time>2018-06-27T01:33:26Z</time>
      </trkpt>
      <trkpt lat="45.31087" lon="6.57669">
        <ele>2677</ele>
        <time>2018-06-27T01:34:26Z</time>
      </trkpt>
      <trkpt lat="45.31088" lon="6.5767">
        <ele>2677</ele>
        <time>2018-06-27T01:35:26Z</time>
      </trkpt>
      <trkpt lat="45.3109" lon="6.57666">
        <ele>2677</ele>
        <time>2018-06-27T01:36:26Z</time>
      </trkpt>
      <trkpt lat="45.31091" lon="6.57666">
        <ele>2677</ele>
        <time>2018-06-27T01:37:26Z</time>
      </trkpt>
      <trkpt lat="45.31092" lon="6.57667">
        <ele>2678</ele>
        <time>2018-06-27T01:38:26Z</time>
      </trkpt>
      <trkpt lat="45.31091" lon="6.57669">
        <ele>2678</ele>
        <time>2018-06-27T01:39:26Z</time>
      </trkpt>
      <trkpt lat="45.3109" lon="6.57673">
        <ele>2677</ele>
        <time>2018-06-27T01:40:26Z</time>
      </trkpt>
      <trkpt lat="45.31091" lon="6.57674">
        <ele>2678</ele>
        <time>2018-06-27T01:41:26Z</time>
      </trkpt>
      <trkpt lat="45.31092" lon="6.57674">
        <ele>2678</ele>
        <time>2018-06-27T01:42:26Z</time>
      </trkpt>
      <trkpt lat="45.31099" lon="6.57664">
        <ele>2678</ele>
        <time>2018-06-27T01:43:26Z</time>
      </trkpt>
      <trkpt lat="45.31101" lon="6.57665">
        <ele>2679</ele>
        <time>2018-06-27T01:44:26Z</time>
      </trkpt>
      <trkpt lat="45.31101" lon="6.57669">
        <ele>2680</ele>
        <time>2018-06-27T01:45:26Z</time>
      </trkpt>
      <trkpt lat="45.31092" lon="6.57694">
        <ele>2678</ele>
        <time>2018-06-27T01:46:26Z</time>
      </trkpt>
      <trkpt lat="45.31091" lon="6.57699">
        <ele>2678</ele>
        <time>2018-06-27T01:47:26Z</time>
      </trkpt>
      <trkpt lat="45.31091" lon="6.57705">
        <ele>2678</ele>
        <time>2018-06-27T01:48:26Z</time>
      </trkpt>
      <trkpt lat="45.31092" lon="6.57706">
        <ele>2678</ele>
        <time>2018-06-27T01:49:26Z</time>
      </trkpt>
      <trkpt lat="45.31093" lon="6.57705">
        <ele>2679</ele>
        <time>2018-06-27T01:50:26Z</time>
      </trkpt>
      <trkpt lat="45.31093" lon="6.57704">
        <ele>2679</ele>
        <time>2018-06-27T01:51:26Z</time>
      </trkpt>
      <trkpt lat="45.31094" lon="6.577">
        <ele>2679</ele>
        <time>2018-06-27T01:52:26Z</time>
      </trkpt>
      <trkpt lat="45.31095" lon="6.577">
        <ele>2679</ele>
        <time>2018-06-27T01:53:26Z</time>
      </trkpt>
      <trkpt lat="45.31096" lon="6.577">
        <ele>2679</ele>
        <time>2018-06-27T01:54:26Z</time>
      </trkpt>
      <trkpt lat="45.31097" lon="6.57701">
        <ele>2680</ele>
        <time>2018-06-27T01:55:26Z</time>
      </trkpt>
      <trkpt lat="45.31096" lon="6.57705">
        <ele>2680</ele>
        <time>2018-06-27T01:56:26Z</time>
      </trkpt>
      <trkpt lat="45.31097" lon="6.57706">
        <ele>2680</ele>
        <time>2018-06-27T01:57:26Z</time>
      </trkpt>
      <trkpt lat="45.31099" lon="6.57708">
        <ele>2681</ele>
        <time>2018-06-27T01:58:26Z</time>
      </trkpt>
      <trkpt lat="45.31101" lon="6.57708">
        <ele>2681</ele>
        <time>2018-06-27T01:59:26Z</time>
      </trkpt>
      <trkpt lat="45.31111" lon="6.5771">
        <ele>2685</ele>
        <time>2018-06-27T02:00:26Z</time>
      </trkpt>
      <trkpt lat="45.31112" lon="6.57709">
        <ele>2685</ele>
        <time>2018-06-27T02:01:26Z</time>
      </trkpt>
      <trkpt lat="45.31113" lon="6.57707">
        <ele>2685</ele>
        <time>2018-06-27T02:02:26Z</time>
      </trkpt>
      <trkpt lat="45.31113" lon="6.57704">
        <ele>2685</ele>
        <time>2018-06-27T02:03:26Z</time>
      </trkpt>
      <trkpt lat="45.31113" lon="6.57699">
        <ele>2685</ele>
        <time>2018-06-27T02:04:26Z</time>
      </trkpt>
      <trkpt lat="45.31114" lon="6.57698">
        <ele>2685</ele>
        <time>2018-06-27T02:05:26Z</time>
      </trkpt>
      <trkpt lat="45.31118" lon="6.57697">
        <ele>2686</ele>
        <time>2018-06-27T02:06:26Z</time>
      </trkpt>
      <trkpt lat="45.31119" lon="6.57698">
        <ele>2686</ele>
        <time>2018-06-27T02:07:26Z</time>
      </trkpt>
      <trkpt lat="45.31117" lon="6.57705">
        <ele>2686</ele>
        <time>2018-06-27T02:08:26Z</time>
      </trkpt>
      <trkpt lat="45.31126" lon="6.57724">
        <ele>2691</ele>
        <time>2018-06-27T02:09:26Z</time>
      </trkpt>
      <trkpt lat="45.31126" lon="6.57723">
        <ele>2691</ele>
        <time>2018-06-27T02:10:26Z</time>
      </trkpt>
      <trkpt lat="45.31125" lon="6.57714">
        <ele>2690</ele>
        <time>2018-06-27T02:11:26Z</time>
      </trkpt>
      <trkpt lat="45.31126" lon="6.57713">
        <ele>2690</ele>
        <time>2018-06-27T02:12:26Z</time>
      </trkpt>
      <trkpt lat="45.31127" lon="6.57713">
        <ele>2690</ele>
        <time>2018-06-27T02:13:26Z</time>
      </trkpt>
      <trkpt lat="45.31128" lon="6.57715">
        <ele>2691</ele>
        <time>2018-06-27T02:14:26Z</time>
      </trkpt>
      <trkpt lat="45.3113" lon="6.57721">
        <ele>2692</ele>
        <time>2018-06-27T02:15:26Z</time>
      </trkpt>
      <trkpt lat="45.31132" lon="6.57724">
        <ele>2693</ele>
        <time>2018-06-27T02:16:26Z</time>
      </trkpt>
      <trkpt lat="45.31136" lon="6.57729">
        <ele>2696</ele>
        <time>2018-06-27T02:17:26Z</time>
      </trkpt>
      <trkpt lat="45.31139" lon="6.57734">
        <ele>2697</ele>
        <time>2018-06-27T02:18:26Z</time>
      </trkpt>
      <trkpt lat="45.31152" lon="6.57756">
        <ele>2705</ele>
        <time>2018-06-27T02:19:26Z</time>
      </trkpt>
      <trkpt lat="45.31153" lon="6.57762">
        <ele>2704</ele>
        <time>2018-06-27T02:20:26Z</time>
      </trkpt>
      <trkpt lat="45.31155" lon="6.57766">
        <ele>2705</ele>
        <time>2018-06-27T02:21:26Z</time>
      </trkpt>
      <trkpt lat="45.31157" lon="6.57769">
        <ele>2705</ele>
        <time>2018-06-27T02:22:26Z</time>
      </trkpt>
      <trkpt lat="45.31159" lon="6.5777">
        <ele>2706</ele>
        <time>2018-06-27T02:23:26Z</time>
      </trkpt>
      <trkpt lat="45.31168" lon="6.5778">
        <ele>2709</ele>
        <time>2018-06-27T02:24:26Z</time>
      </trkpt>
      <trkpt lat="45.31173" lon="6.57786">
        <ele>2709</ele>
        <time>2018-06-27T02:25:26Z</time>
      </trkpt>
      <trkpt lat="45.31177" lon="6.57793">
        <ele>2709</ele>
        <time>2018-06-27T02:26:26Z</time>
      </trkpt>
      <trkpt lat="45.3118" lon="6.57799">
        <ele>2709</ele>
        <time>2018-06-27T02:27:26Z</time>
      </trkpt>
      <trkpt lat="45.31183" lon="6.57813">
        <ele>2709</ele>
        <time>2018-06-27T02:28:26Z</time>
      </trkpt>
      <trkpt lat="45.31184" lon="6.57816">
        <ele>2709</ele>
        <time>2018-06-27T02:29:26Z</time>
      </trkpt>
      <trkpt lat="45.3119" lon="6.57834">
        <ele>2710</ele>
        <time>2018-06-27T02:30:26Z</time>
      </trkpt>
      <trkpt lat="45.31191" lon="6.57844">
        <ele>2711</ele>
        <time>2018-06-27T02:31:26Z</time>
      </trkpt>
      <trkpt lat="45.31196" lon="6.57869">
        <ele>2714</ele>
        <time>2018-06-27T02:32:26Z</time>
      </trkpt>
      <trkpt lat="45.31199" lon="6.57873">
        <ele>2715</ele>
        <time>2018-06-27T02:33:26Z</time>
      </trkpt>
      <trkpt lat="45.31205" lon="6.57881">
        <ele>2718</ele>
        <time>2018-06-27T02:34:26Z</time>
      </trkpt>
      <trkpt lat="45.31207" lon="6.57885">
        <ele>2719</ele>
        <time>2018-06-27T02:35:26Z</time>
      </trkpt>
      <trkpt lat="45.31213" lon="6.57901">
        <ele>2722</ele>
        <time>2018-06-27T02:36:26Z</time>
      </trkpt>
      <trkpt lat="45.31222" lon="6.5792">
        <ele>2728</ele>
        <time>2018-06-27T02:37:26Z</time>
      </trkpt>
      <trkpt lat="45.31223" lon="6.57926">
        <ele>2729</ele>
        <time>2018-06-27T02:38:26Z</time>
      </trkpt>
      <trkpt lat="45.3123" lon="6.57949">
        <ele>2735</ele>
        <time>2018-06-27T02:39:26Z</time>
      </trkpt>
      <trkpt lat="45.31232" lon="6.57953">
        <ele>2737</ele>
        <time>2018-06-27T02:40:26Z</time>
      </trkpt>
      <trkpt lat="45.31235" lon="6.57961">
        <ele>2739</ele>
        <time>2018-06-27T02:41:26Z</time>
      </trkpt>
      <trkpt lat="45.31236" lon="6.57966">
        <ele>2741</ele>
        <time>2018-06-27T02:42:26Z</time>
      </trkpt>
      <trkpt lat="45.31238" lon="6.57972">
        <ele>2742</ele>
        <time>2018-06-27T02:43:26Z</time>
      </trkpt>
      <trkpt lat="45.3124" lon="6.57972">
        <ele>2743</ele>
        <time>2018-06-27T02:44:26Z</time>
      </trkpt>
      <trkpt lat="45.31241" lon="6.57971">
        <ele>2744</ele>
        <time>2018-06-27T02:45:26Z</time>
      </trkpt>
      <trkpt lat="45.31241" lon="6.57968">
        <ele>2743</ele>
        <time>2018-06-27T02:46:26Z</time>
      </trkpt>
      <trkpt lat="45.31243" lon="6.57968">
        <ele>2744</ele>
        <time>2018-06-27T02:47:26Z</time>
      </trkpt>
      <trkpt lat="45.31245" lon="6.57971">
        <ele>2745</ele>
        <time>2018-06-27T02:48:26Z</time>
      </trkpt>
      <trkpt lat="45.31246" lon="6.57978">
        <ele>2747</ele>
        <time>2018-06-27T02:49:26Z</time>
      </trkpt>
      <trkpt lat="45.31248" lon="6.57994">
        <ele>2750</ele>
        <time>2018-06-27T02:50:26Z</time>
      </trkpt>
      <trkpt lat="45.31251" lon="6.57996">
        <ele>2752</ele>
        <time>2018-06-27T02:51:26Z</time>
      </trkpt>
      <trkpt lat="45.31252" lon="6.57996">
        <ele>2752</ele>
        <time>2018-06-27T02:52:26Z</time>
      </trkpt>
      <trkpt lat="45.31254" lon="6.57993">
        <ele>2752</ele>
        <time>2018-06-27T02:53:26Z</time>
      </trkpt>
      <trkpt lat="45.31255" lon="6.57989">
        <ele>2751</ele>
        <time>2018-06-27T02:54:26Z</time>
      </trkpt>
      <trkpt lat="45.31257" lon="6.57982">
        <ele>2751</ele>
        <time>2018-06-27T02:55:26Z</time>
      </trkpt>
      <trkpt lat="45.31258" lon="6.57984">
        <ele>2751</ele>
        <time>2018-06-27T02:56:26Z</time>
      </trkpt>
      <trkpt lat="45.31259" lon="6.57986">
        <ele>2752</ele>
        <time>2018-06-27T02:57:26Z</time>
      </trkpt>
      <trkpt lat="45.31259" lon="6.57989">
        <ele>2752</ele>
        <time>2018-06-27T02:58:26Z</time>
      </trkpt>
      <trkpt lat="45.31262" lon="6.58019">
        <ele>2758</ele>
        <time>2018-06-27T02:59:26Z</time>
      </trkpt>
      <trkpt lat="45.31264" lon="6.58017">
        <ele>2758</ele>
        <time>2018-06-27T03:00:26Z</time>
      </trkpt>
      <trkpt lat="45.31267" lon="6.58009">
        <ele>2757</ele>
        <time>2018-06-27T03:01:26Z</time>
      </trkpt>
      <trkpt lat="45.31268" lon="6.58005">
        <ele>2757</ele>
        <time>2018-06-27T03:02:26Z</time>
      </trkpt>
      <trkpt lat="45.31272" lon="6.57989">
        <ele>2754</ele>
        <time>2018-06-27T03:03:26Z</time>
      </trkpt>
      <trkpt lat="45.31273" lon="6.57988">
        <ele>2754</ele>
        <time>2018-06-27T03:04:26Z</time>
      </trkpt>
      <trkpt lat="45.31277" lon="6.57978">
        <ele>2753</ele>
        <time>2018-06-27T03:05:26Z</time>
      </trkpt>
      <trkpt lat="45.31278" lon="6.57978">
        <ele>2753</ele>
        <time>2018-06-27T03:06:26Z</time>
      </trkpt>
      <trkpt lat="45.3128" lon="6.5798">
        <ele>2754</ele>
        <time>2018-06-27T03:07:26Z</time>
      </trkpt>
      <trkpt lat="45.3128" lon="6.57984">
        <ele>2755</ele>
        <time>2018-06-27T03:08:26Z</time>
      </trkpt>
      <trkpt lat="45.31282" lon="6.57993">
        <ele>2757</ele>
        <time>2018-06-27T03:09:26Z</time>
      </trkpt>
      <trkpt lat="45.31282" lon="6.57996">
        <ele>2758</ele>
        <time>2018-06-27T03:10:26Z</time>
      </trkpt>
      <trkpt lat="45.31282" lon="6.58001">
        <ele>2759</ele>
        <time>2018-06-27T03:11:26Z</time>
      </trkpt>
      <trkpt lat="45.31283" lon="6.58">
        <ele>2759</ele>
        <time>2018-06-27T03:12:26Z</time>
      </trkpt>
      <trkpt lat="45.31287" lon="6.57994">
        <ele>2758</ele>
        <time>2018-06-27T03:13:26Z</time>
      </trkpt>
      <trkpt lat="45.31288" lon="6.57995">
        <ele>2759</ele>
        <time>2018-06-27T03:14:26Z</time>
      </trkpt>
      <trkpt lat="45.31292" lon="6.58005">
        <ele>2761</ele>
        <time>2018-06-27T03:15:26Z</time>
      </trkpt>
      <trkpt lat="45.31293" lon="6.58005">
        <ele>2762</ele>
        <time>2018-06-27T03:16:26Z</time>
      </trkpt>
      <trkpt lat="45.31295" lon="6.57999">
        <ele>2761</ele>
        <time>2018-06-27T03:17:26Z</time>
      </trkpt>
      <trkpt lat="45.31295" lon="6.57992">
        <ele>2759</ele>
        <time>2018-06-27T03:18:26Z</time>
      </trkpt>
      <trkpt lat="45.31297" lon="6.5799">
        <ele>2759</ele>
        <time>2018-06-27T03:19:26Z</time>
      </trkpt>
      <trkpt lat="45.313" lon="6.57988">
        <ele>2759</ele>
        <time>2018-06-27T03:20:26Z</time>
      </trkpt>
      <trkpt lat="45.31303" lon="6.57988">
        <ele>2760</ele>
        <time>2018-06-27T03:21:26Z</time>
      </trkpt>
      <trkpt lat="45.31314" lon="6.57996">
        <ele>2764</ele>
        <time>2018-06-27T03:22:26Z</time>
      </trkpt>
      <trkpt lat="45.31319" lon="6.57997">
        <ele>2765</ele>
        <time>2018-06-27T03:23:26Z</time>
      </trkpt>
      <trkpt lat="45.31325" lon="6.57999">
        <ele>2767</ele>
        <time>2018-06-27T03:24:26Z</time>
      </trkpt>
      <trkpt lat="45.31329" lon="6.58006">
        <ele>2769</ele>
        <time>2018-06-27T03:25:26Z</time>
      </trkpt>
      <trkpt lat="45.31335" lon="6.58012">
        <ele>2771</ele>
        <time>2018-06-27T03:26:26Z</time>
      </trkpt>
      <trkpt lat="45.31339" lon="6.5802">
        <ele>2772</ele>
        <time>2018-06-27T03:27:26Z</time>
      </trkpt>
      <trkpt lat="45.3134" lon="6.58026">
        <ele>2773</ele>
        <time>2018-06-27T03:28:26Z</time>
      </trkpt>
      <trkpt lat="45.31337" lon="6.58032">
        <ele>2774</ele>
        <time>2018-06-27T03:29:26Z</time>
      </trkpt>
      <trkpt lat="45.31333" lon="6.5804">
        <ele>2775</ele>
        <time>2018-06-27T03:30:26Z</time>
      </trkpt>
      <trkpt lat="45.31331" lon="6.58056">
        <ele>2777</ele>
        <time>2018-06-27T03:31:26Z</time>
      </trkpt>
      <trkpt lat="45.31332" lon="6.58064">
        <ele>2779</ele>
        <time>2018-06-27T03:32:26Z</time>
      </trkpt>
      <trkpt lat="45.31337" lon="6.5808">
        <ele>2781</ele>
        <time>2018-06-27T03:33:26Z</time>
      </trkpt>
      <trkpt lat="45.31337" lon="6.58087">
        <ele>2782</ele>
        <time>2018-06-27T03:34:26Z</time>
      </trkpt>
      <trkpt lat="45.31338" lon="6.58101">
        <ele>2781</ele>
        <time>2018-06-27T03:35:26Z</time>
      </trkpt>
      <trkpt lat="45.3134" lon="6.58104">
        <ele>2781</ele>
        <time>2018-06-27T03:36:26Z</time>
      </trkpt>
      <trkpt lat="45.31342" lon="6.58104">
        <ele>2781</ele>
        <time>2018-06-27T03:37:26Z</time>
      </trkpt>
      <trkpt lat="45.31345" lon="6.58101">
        <ele>2781</ele>
        <time>2018-06-27T03:38:26Z</time>
      </trkpt>
      <trkpt lat="45.31348" lon="6.58096">
        <ele>2781</ele>
        <time>2018-06-27T03:39:26Z</time>
      </trkpt>
      <trkpt lat="45.31348" lon="6.58094">
        <ele>2781</ele>
        <time>2018-06-27T03:40:26Z</time>
      </trkpt>
      <trkpt lat="45.31349" lon="6.58089">
        <ele>2781</ele>
        <time>2018-06-27T03:41:26Z</time>
      </trkpt>
      <trkpt lat="45.3135" lon="6.58092">
        <ele>2781</ele>
        <time>2018-06-27T03:42:26Z</time>
      </trkpt>
      <trkpt lat="45.31356" lon="6.581">
        <ele>2781</ele>
        <time>2018-06-27T03:43:26Z</time>
      </trkpt>
      <trkpt lat="45.31356" lon="6.58104">
        <ele>2781</ele>
        <time>2018-06-27T03:44:26Z</time>
      </trkpt>
      <trkpt lat="45.31355" lon="6.58116">
        <ele>2780</ele>
        <time>2018-06-27T03:45:26Z</time>
      </trkpt>
      <trkpt lat="45.31364" lon="6.58113">
        <ele>2780</ele>
        <time>2018-06-27T03:46:26Z</time>
      </trkpt>
      <trkpt lat="45.31374" lon="6.58111">
        <ele>2780</ele>
        <time>2018-06-27T03:47:26Z</time>
      </trkpt>
      <trkpt lat="45.31382" lon="6.58113">
        <ele>2780</ele>
        <time>2018-06-27T03:48:26Z</time>
      </trkpt>
      <trkpt lat="45.31389" lon="6.58113">
        <ele>2779</ele>
        <time>2018-06-27T03:49:26Z</time>
      </trkpt>
      <trkpt lat="45.314" lon="6.58116">
        <ele>2779</ele>
        <time>2018-06-27T03:50:26Z</time>
      </trkpt>
      <trkpt lat="45.31404" lon="6.58123">
        <ele>2779</ele>
        <time>2018-06-27T03:51:26Z</time>
      </trkpt>
      <trkpt lat="45.3141" lon="6.58128">
        <ele>2778</ele>
        <time>2018-06-27T03:52:26Z</time>
      </trkpt>
      <trkpt lat="45.31416" lon="6.58131">
        <ele>2778</ele>
        <time>2018-06-27T03:53:26Z</time>
      </trkpt>
      <trkpt lat="45.31424" lon="6.5813">
        <ele>2778</ele>
        <time>2018-06-27T03:54:26Z</time>
      </trkpt>
      <trkpt lat="45.31435" lon="6.58132">
        <ele>2777</ele>
        <time>2018-06-27T03:55:26Z</time>
      </trkpt>
      <trkpt lat="45.3144" lon="6.58131">
        <ele>2777</ele>
        <time>2018-06-27T03:56:26Z</time>
      </trkpt>
      <trkpt lat="45.31447" lon="6.58131">
        <ele>2776</ele>
        <time>2018-06-27T03:57:26Z</time>
      </trkpt>
      <trkpt lat="45.31449" lon="6.58133">
        <ele>2776</ele>
        <time>2018-06-27T03:58:26Z</time>
      </trkpt>
      <trkpt lat="45.3145" lon="6.58139">
        <ele>2775</ele>
        <time>2018-06-27T03:59:26Z</time>
      </trkpt>
      <trkpt lat="45.31449" lon="6.58143">
        <ele>2775</ele>
        <time>2018-06-27T04:00:26Z</time>
      </trkpt>
      <trkpt lat="45.31448" lon="6.58144">
        <ele>2775</ele>
        <time>2018-06-27T04:01:26Z</time>
      </trkpt>
      <trkpt lat="45.31437" lon="6.58174">
        <ele>2772</ele>
        <time>2018-06-27T04:02:26Z</time>
      </trkpt>
      <trkpt lat="45.31437" lon="6.58178">
        <ele>2772</ele>
        <time>2018-06-27T04:03:26Z</time>
      </trkpt>
      <trkpt lat="45.31438" lon="6.58181">
        <ele>2771</ele>
        <time>2018-06-27T04:04:26Z</time>
      </trkpt>
      <trkpt lat="45.31444" lon="6.58183">
        <ele>2769</ele>
        <time>2018-06-27T04:05:26Z</time>
      </trkpt>
      <trkpt lat="45.31454" lon="6.5818">
        <ele>2768</ele>
        <time>2018-06-27T04:06:26Z</time>
      </trkpt>
      <trkpt lat="45.31459" lon="6.5818">
        <ele>2767</ele>
        <time>2018-06-27T04:07:26Z</time>
      </trkpt>
      <trkpt lat="45.31461" lon="6.58181">
        <ele>2766</ele>
        <time>2018-06-27T04:08:26Z</time>
      </trkpt>
      <trkpt lat="45.31465" lon="6.58183">
        <ele>2765</ele>
        <time>2018-06-27T04:09:26Z</time>
      </trkpt>
      <trkpt lat="45.31468" lon="6.58186">
        <ele>2763</ele>
        <time>2018-06-27T04:10:26Z</time>
      </trkpt>
      <trkpt lat="45.31471" lon="6.58188">
        <ele>2762</ele>
        <time>2018-06-27T04:11:26Z</time>
      </trkpt>
      <trkpt lat="45.31477" lon="6.58189">
        <ele>2760</ele>
        <time>2018-06-27T04:12:26Z</time>
      </trkpt>
      <trkpt lat="45.31477" lon="6.58189">
        <ele>2760</ele>
        <time>2018-06-27T04:13:26Z</time>
      </trkpt>
      <trkpt lat="45.31475" lon="6.58193">
        <ele>2759</ele>
        <time>2018-06-27T04:14:26Z</time>
      </trkpt>
      <trkpt lat="45.31477" lon="6.58194">
        <ele>2759</ele>
        <time>2018-06-27T04:15:26Z</time>
      </trkpt>
      <trkpt lat="45.31478" lon="6.58194">
        <ele>2758</ele>
        <time>2018-06-27T04:16:26Z</time>
      </trkpt>
      <trkpt lat="45.31483" lon="6.58194">
        <ele>2757</ele>
        <time>2018-06-27T04:17:26Z</time>
      </trkpt>
      <trkpt lat="45.31485" lon="6.58195">
        <ele>2756</ele>
        <time>2018-06-27T04:18:26Z</time>
      </trkpt>
      <trkpt lat="45.31488" lon="6.58197">
        <ele>2755</ele>
        <time>2018-06-27T04:19:26Z</time>
      </trkpt>
      <trkpt lat="45.3149" lon="6.58197">
        <ele>2754</ele>
        <time>2018-06-27T04:20:26Z</time>
      </trkpt>
      <trkpt lat="45.31494" lon="6.58195">
        <ele>2754</ele>
        <time>2018-06-27T04:21:26Z</time>
      </trkpt>
      <trkpt lat="45.31494" lon="6.58196">
        <ele>2753</ele>
        <time>2018-06-27T04:22:26Z</time>
      </trkpt>
      <trkpt lat="45.31489" lon="6.58216">
        <ele>2748</ele>
        <time>2018-06-27T04:23:26Z</time>
      </trkpt>
      <trkpt lat="45.31491" lon="6.58216">
        <ele>2747</ele>
        <time>2018-06-27T04:24:26Z</time>
      </trkpt>
      <trkpt lat="45.31495" lon="6.58216">
        <ele>2746</ele>
        <time>2018-06-27T04:25:26Z</time>
      </trkpt>
      <trkpt lat="45.31497" lon="6.58217">
        <ele>2745</ele>
        <time>2018-06-27T04:26:26Z</time>
      </trkpt>
      <trkpt lat="45.31498" lon="6.5822">
        <ele>2743</ele>
        <time>2018-06-27T04:27:26Z</time>
      </trkpt>
      <trkpt lat="45.315" lon="6.58228">
        <ele>2739</ele>
        <time>2018-06-27T04:28:26Z</time>
      </trkpt>
      <trkpt lat="45.315" lon="6.58235">
        <ele>2737</ele>
        <time>2018-06-27T04:29:26Z</time>
      </trkpt>
      <trkpt lat="45.31499" lon="6.58243">
        <ele>2734</ele>
        <time>2018-06-27T04:30:26Z</time>
      </trkpt>
      <trkpt lat="45.31499" lon="6.58249">
        <ele>2732</ele>
        <time>2018-06-27T04:31:26Z</time>
      </trkpt>
      <trkpt lat="45.31497" lon="6.58262">
        <ele>2729</ele>
        <time>2018-06-27T04:32:26Z</time>
      </trkpt>
      <trkpt lat="45.31497" lon="6.58271">
        <ele>2727</ele>
        <time>2018-06-27T04:33:26Z</time>
      </trkpt>
      <trkpt lat="45.31496" lon="6.58275">
        <ele>2727</ele>
        <time>2018-06-27T04:34:26Z</time>
      </trkpt>
      <trkpt lat="45.31489" lon="6.58329">
        <ele>2718</ele>
        <time>2018-06-27T04:35:26Z</time>
      </trkpt>
      <trkpt lat="45.31489" lon="6.58336">
        <ele>2717</ele>
        <time>2018-06-27T04:36:26Z</time>
      </trkpt>
      <trkpt lat="45.31489" lon="6.58337">
        <ele>2717</ele>
        <time>2018-06-27T04:37:26Z</time>
      </trkpt>
      <trkpt lat="45.31494" lon="6.58343">
        <ele>2714</ele>
        <time>2018-06-27T04:38:26Z</time>
      </trkpt>
      <trkpt lat="45.315" lon="6.58343">
        <ele>2710</ele>
        <time>2018-06-27T04:39:26Z</time>
      </trkpt>
      <trkpt lat="45.31509" lon="6.5834">
        <ele>2707</ele>
        <time>2018-06-27T04:40:26Z</time>
      </trkpt>
      <trkpt lat="45.31525" lon="6.58334">
        <ele>2700</ele>
        <time>2018-06-27T04:41:26Z</time>
      </trkpt>
      <trkpt lat="45.31532" lon="6.58336">
        <ele>2698</ele>
        <time>2018-06-27T04:42:26Z</time>
      </trkpt>
      <trkpt lat="45.31533" lon="6.58339">
        <ele>2697</ele>
        <time>2018-06-27T04:43:26Z</time>
      </trkpt>
      <trkpt lat="45.31531" lon="6.58352">
        <ele>2698</ele>
        <time>2018-06-27T04:44:26Z</time>
      </trkpt>
      <trkpt lat="45.31527" lon="6.58366">
        <ele>2699</ele>
        <time>2018-06-27T04:45:26Z</time>
      </trkpt>
      <trkpt lat="45.31526" lon="6.5838">
        <ele>2699</ele>
        <time>2018-06-27T04:46:26Z</time>
      </trkpt>
      <trkpt lat="45.31525" lon="6.58396">
        <ele>2699</ele>
        <time>2018-06-27T04:47:26Z</time>
      </trkpt>
      <trkpt lat="45.31528" lon="6.58415">
        <ele>2698</ele>
        <time>2018-06-27T04:48:26Z</time>
      </trkpt>
      <trkpt lat="45.3153" lon="6.58418">
        <ele>2697</ele>
        <time>2018-06-27T04:49:26Z</time>
      </trkpt>
      <trkpt lat="45.31532" lon="6.5842">
        <ele>2696</ele>
        <time>2018-06-27T04:50:26Z</time>
      </trkpt>
      <trkpt lat="45.31542" lon="6.58426">
        <ele>2692</ele>
        <time>2018-06-27T04:51:26Z</time>
      </trkpt>
      <trkpt lat="45.31547" lon="6.5843">
        <ele>2690</ele>
        <time>2018-06-27T04:52:26Z</time>
      </trkpt>
      <trkpt lat="45.31561" lon="6.58444">
        <ele>2683</ele>
        <time>2018-06-27T04:53:26Z</time>
      </trkpt>
      <trkpt lat="45.31563" lon="6.58445">
        <ele>2682</ele>
        <time>2018-06-27T04:54:26Z</time>
      </trkpt>
      <trkpt lat="45.31568" lon="6.58448">
        <ele>2680</ele>
        <time>2018-06-27T04:55:26Z</time>
      </trkpt>
      <trkpt lat="45.31581" lon="6.58451">
        <ele>2674</ele>
        <time>2018-06-27T04:56:26Z</time>
      </trkpt>
      <trkpt lat="45.31585" lon="6.58451">
        <ele>2672</ele>
        <time>2018-06-27T04:57:26Z</time>
      </trkpt>
      <trkpt lat="45.31593" lon="6.58449">
        <ele>2669</ele>
        <time>2018-06-27T04:58:26Z</time>
      </trkpt>
      <trkpt lat="45.31598" lon="6.58448">
        <ele>2667</ele>
        <time>2018-06-27T04:59:26Z</time>
      </trkpt>
      <trkpt lat="45.31613" lon="6.58442">
        <ele>2661</ele>
        <time>2018-06-27T05:00:26Z</time>
      </trkpt>
      <trkpt lat="45.31615" lon="6.58443">
        <ele>2660</ele>
        <time>2018-06-27T05:01:26Z</time>
      </trkpt>
      <trkpt lat="45.3162" lon="6.58445">
        <ele>2658</ele>
        <time>2018-06-27T05:02:26Z</time>
      </trkpt>
      <trkpt lat="45.31627" lon="6.58456">
        <ele>2656</ele>
        <time>2018-06-27T05:03:26Z</time>
      </trkpt>
      <trkpt lat="45.31637" lon="6.58465">
        <ele>2651</ele>
        <time>2018-06-27T05:04:26Z</time>
      </trkpt>
      <trkpt lat="45.31641" lon="6.58466">
        <ele>2650</ele>
        <time>2018-06-27T05:05:26Z</time>
      </trkpt>
      <trkpt lat="45.31659" lon="6.58476">
        <ele>2643</ele>
        <time>2018-06-27T05:06:26Z</time>
      </trkpt>
      <trkpt lat="45.31666" lon="6.58478">
        <ele>2640</ele>
        <time>2018-06-27T05:07:26Z</time>
      </trkpt>
      <trkpt lat="45.31678" lon="6.58484">
        <ele>2639</ele>
        <time>2018-06-27T05:08:26Z</time>
      </trkpt>
      <trkpt lat="45.3168" lon="6.58486">
        <ele>2638</ele>
        <time>2018-06-27T05:09:26Z</time>
      </trkpt>
      <trkpt lat="45.31685" lon="6.58487">
        <ele>2638</ele>
        <time>2018-06-27T05:10:26Z</time>
      </trkpt>
      <trkpt lat="45.317" lon="6.58493">
        <ele>2635</ele>
        <time>2018-06-27T05:11:26Z</time>
      </trkpt>
      <trkpt lat="45.31705" lon="6.58492">
        <ele>2635</ele>
        <time>2018-06-27T05:12:26Z</time>
      </trkpt>
      <trkpt lat="45.31709" lon="6.58492">
        <ele>2634</ele>
        <time>2018-06-27T05:13:26Z</time>
      </trkpt>
      <trkpt lat="45.31713" lon="6.58489">
        <ele>2634</ele>
        <time>2018-06-27T05:14:26Z</time>
      </trkpt>
      <trkpt lat="45.31717" lon="6.58487">
        <ele>2633</ele>
        <time>2018-06-27T05:15:26Z</time>
      </trkpt>
      <trkpt lat="45.31722" lon="6.58487">
        <ele>2633</ele>
        <time>2018-06-27T05:16:26Z</time>
      </trkpt>
      <trkpt lat="45.31736" lon="6.58482">
        <ele>2631</ele>
        <time>2018-06-27T05:17:26Z</time>
      </trkpt>
      <trkpt lat="45.3174" lon="6.58483">
        <ele>2631</ele>
        <time>2018-06-27T05:18:26Z</time>
      </trkpt>
      <trkpt lat="45.31747" lon="6.58485">
        <ele>2630</ele>
        <time>2018-06-27T05:19:26Z</time>
      </trkpt>
      <trkpt lat="45.31751" lon="6.58488">
        <ele>2629</ele>
        <time>2018-06-27T05:20:26Z</time>
      </trkpt>
      <trkpt lat="45.31754" lon="6.58493">
        <ele>2628</ele>
        <time>2018-06-27T05:21:26Z</time>
      </trkpt>
      <trkpt lat="45.31757" lon="6.58493">
        <ele>2627</ele>
        <time>2018-06-27T05:22:26Z</time>
      </trkpt>
      <trkpt lat="45.3176" lon="6.58495">
        <ele>2626</ele>
        <time>2018-06-27T05:23:26Z</time>
      </trkpt>
      <trkpt lat="45.3176" lon="6.58497">
        <ele>2626</ele>
        <time>2018-06-27T05:24:26Z</time>
      </trkpt>
      <trkpt lat="45.31762" lon="6.58508">
        <ele>2625</ele>
        <time>2018-06-27T05:25:26Z</time>
      </trkpt>
      <trkpt lat="45.31766" lon="6.58521">
        <ele>2623</ele>
        <time>2018-06-27T05:26:26Z</time>
      </trkpt>
      <trkpt lat="45.31768" lon="6.58524">
        <ele>2622</ele>
        <time>2018-06-27T05:27:26Z</time>
      </trkpt>
      <trkpt lat="45.31776" lon="6.58534">
        <ele>2619</ele>
        <time>2018-06-27T05:28:26Z</time>
      </trkpt>
      <trkpt lat="45.31778" lon="6.58535">
        <ele>2619</ele>
        <time>2018-06-27T05:29:26Z</time>
      </trkpt>
      <trkpt lat="45.31783" lon="6.58539">
        <ele>2618</ele>
        <time>2018-06-27T05:30:26Z</time>
      </trkpt>
      <trkpt lat="45.31784" lon="6.58543">
        <ele>2617</ele>
        <time>2018-06-27T05:31:26Z</time>
      </trkpt>
      <trkpt lat="45.3179" lon="6.58553">
        <ele>2615</ele>
        <time>2018-06-27T05:32:26Z</time>
      </trkpt>
      <trkpt lat="45.31795" lon="6.58557">
        <ele>2614</ele>
        <time>2018-06-27T05:33:26Z</time>
      </trkpt>
      <trkpt lat="45.31796" lon="6.58559">
        <ele>2614</ele>
        <time>2018-06-27T05:34:26Z</time>
      </trkpt>
      <trkpt lat="45.31798" lon="6.58566">
        <ele>2613</ele>
        <time>2018-06-27T05:35:26Z</time>
      </trkpt>
      <trkpt lat="45.31801" lon="6.58568">
        <ele>2612</ele>
        <time>2018-06-27T05:36:26Z</time>
      </trkpt>
      <trkpt lat="45.31804" lon="6.58576">
        <ele>2611</ele>
        <time>2018-06-27T05:37:26Z</time>
      </trkpt>
      <trkpt lat="45.31807" lon="6.5858">
        <ele>2610</ele>
        <time>2018-06-27T05:38:26Z</time>
      </trkpt>
      <trkpt lat="45.31818" lon="6.58589">
        <ele>2607</ele>
        <time>2018-06-27T05:39:26Z</time>
      </trkpt>
      <trkpt lat="45.31825" lon="6.5859">
        <ele>2606</ele>
        <time>2018-06-27T05:40:26Z</time>
      </trkpt>
      <trkpt lat="45.31834" lon="6.58594">
        <ele>2604</ele>
        <time>2018-06-27T05:41:26Z</time>
      </trkpt>
      <trkpt lat="45.31844" lon="6.58595">
        <ele>2602</ele>
        <time>2018-06-27T05:42:26Z</time>
      </trkpt>
      <trkpt lat="45.31858" lon="6.58594">
        <ele>2599</ele>
        <time>2018-06-27T05:43:26Z</time>
      </trkpt>
      <trkpt lat="45.31861" lon="6.58597">
        <ele>2598</ele>
        <time>2018-06-27T05:44:26Z</time>
      </trkpt>
      <trkpt lat="45.31875" lon="6.586">
        <ele>2595</ele>
        <time>2018-06-27T05:45:26Z</time>
      </trkpt>
      <trkpt lat="45.31878" lon="6.58602">
        <ele>2594</ele>
        <time>2018-06-27T05:46:26Z</time>
      </trkpt>
      <trkpt lat="45.31883" lon="6.58604">
        <ele>2593</ele>
        <time>2018-06-27T05:47:26Z</time>
      </trkpt>
      <trkpt lat="45.31887" lon="6.58604">
        <ele>2592</ele>
        <time>2018-06-27T05:48:26Z</time>
      </trkpt>
      <trkpt lat="45.31893" lon="6.58603">
        <ele>2591</ele>
        <time>2018-06-27T05:49:26Z</time>
      </trkpt>
      <trkpt lat="45.31891" lon="6.58606">
        <ele>2591</ele>
        <time>2018-06-27T05:50:26Z</time>
      </trkpt>
      <trkpt lat="45.31889" lon="6.58608">
        <ele>2591</ele>
        <time>2018-06-27T05:51:26Z</time>
      </trkpt>
      <trkpt lat="45.3189" lon="6.58611">
        <ele>2591</ele>
        <time>2018-06-27T05:52:26Z</time>
      </trkpt>
      <trkpt lat="45.31892" lon="6.58615">
        <ele>2590</ele>
        <time>2018-06-27T05:53:26Z</time>
      </trkpt>
      <trkpt lat="45.31904" lon="6.58641">
        <ele>2586</ele>
        <time>2018-06-27T05:54:26Z</time>
      </trkpt>
      <trkpt lat="45.31907" lon="6.58651">
        <ele>2585</ele>
        <time>2018-06-27T05:55:26Z</time>
      </trkpt>
      <trkpt lat="45.3191" lon="6.58671">
        <ele>2583</ele>
        <time>2018-06-27T05:56:26Z</time>
      </trkpt>
      <trkpt lat="45.31917" lon="6.58697">
        <ele>2577</ele>
        <time>2018-06-27T05:57:26Z</time>
      </trkpt>
      <trkpt lat="45.31919" lon="6.58709">
        <ele>2575</ele>
        <time>2018-06-27T05:58:26Z</time>
      </trkpt>
      <trkpt lat="45.31919" lon="6.58722">
        <ele>2573</ele>
        <time>2018-06-27T05:59:26Z</time>
      </trkpt>
      <trkpt lat="45.31915" lon="6.58737">
        <ele>2571</ele>
        <time>2018-06-27T06:00:26Z</time>
      </trkpt>
      <trkpt lat="45.31884" lon="6.58843">
        <ele>2554</ele>
        <time>2018-06-27T06:01:26Z</time>
      </trkpt>
      <trkpt lat="45.31879" lon="6.5887">
        <ele>2554</ele>
        <time>2018-06-27T06:02:26Z</time>
      </trkpt>
      <trkpt lat="45.31875" lon="6.58903">
        <ele>2552</ele>
        <time>2018-06-27T06:03:26Z</time>
      </trkpt>
      <trkpt lat="45.31872" lon="6.58918">
        <ele>2549</ele>
        <time>2018-06-27T06:04:26Z</time>
      </trkpt>
      <trkpt lat="45.31871" lon="6.58931">
        <ele>2549</ele>
        <time>2018-06-27T06:05:26Z</time>
      </trkpt>
      <trkpt lat="45.31873" lon="6.58946">
        <ele>2549</ele>
        <time>2018-06-27T06:06:26Z</time>
      </trkpt>
      <trkpt lat="45.3189" lon="6.58947">
        <ele>2548</ele>
        <time>2018-06-27T06:07:26Z</time>
      </trkpt>
      <trkpt lat="45.31897" lon="6.58951">
        <ele>2547</ele>
        <time>2018-06-27T06:08:26Z</time>
      </trkpt>
      <trkpt lat="45.31914" lon="6.58964">
        <ele>2547</ele>
        <time>2018-06-27T06:09:26Z</time>
      </trkpt>
      <trkpt lat="45.31932" lon="6.58977">
        <ele>2541</ele>
        <time>2018-06-27T06:10:26Z</time>
      </trkpt>
      <trkpt lat="45.31942" lon="6.58988">
        <ele>2540</ele>
        <time>2018-06-27T06:11:26Z</time>
      </trkpt>
      <trkpt lat="45.31974" lon="6.59024">
        <ele>2527</ele>
        <time>2018-06-27T06:12:26Z</time>
      </trkpt>
      <trkpt lat="45.31982" lon="6.59037">
        <ele>2525</ele>
        <time>2018-06-27T06:13:26Z</time>
      </trkpt>
      <trkpt lat="45.31988" lon="6.59049">
        <ele>2523</ele>
        <time>2018-06-27T06:14:26Z</time>
      </trkpt>
      <trkpt lat="45.31994" lon="6.59069">
        <ele>2518</ele>
        <time>2018-06-27T06:15:26Z</time>
      </trkpt>
      <trkpt lat="45.32011" lon="6.59115">
        <ele>2496</ele>
        <time>2018-06-27T06:16:26Z</time>
      </trkpt>
      <trkpt lat="45.32021" lon="6.59148">
        <ele>2495</ele>
        <time>2018-06-27T06:17:26Z</time>
      </trkpt>
      <trkpt lat="45.32035" lon="6.59185">
        <ele>2489</ele>
        <time>2018-06-27T06:18:26Z</time>
      </trkpt>
      <trkpt lat="45.32032" lon="6.59189">
        <ele>2490</ele>
        <time>2018-06-27T06:19:26Z</time>
      </trkpt>
      <trkpt lat="45.32028" lon="6.592">
        <ele>2490</ele>
        <time>2018-06-27T06:20:26Z</time>
      </trkpt>
      <trkpt lat="45.32027" lon="6.59207">
        <ele>2490</ele>
        <time>2018-06-27T06:21:26Z</time>
      </trkpt>
      <trkpt lat="45.32024" lon="6.5922">
        <ele>2492</ele>
        <time>2018-06-27T06:22:26Z</time>
      </trkpt>
      <trkpt lat="45.32024" lon="6.59226">
        <ele>2492</ele>
        <time>2018-06-27T06:23:26Z</time>
      </trkpt>
      <trkpt lat="45.32022" lon="6.59246">
        <ele>2495</ele>
        <time>2018-06-27T06:24:26Z</time>
      </trkpt>
      <trkpt lat="45.32021" lon="6.5925">
        <ele>2495</ele>
        <time>2018-06-27T06:25:26Z</time>
      </trkpt>
      <trkpt lat="45.32018" lon="6.59268">
        <ele>2494</ele>
        <time>2018-06-27T06:26:26Z</time>
      </trkpt>
      <trkpt lat="45.32017" lon="6.59271">
        <ele>2494</ele>
        <time>2018-06-27T06:27:26Z</time>
      </trkpt>
      <trkpt lat="45.32012" lon="6.59278">
        <ele>2494</ele>
        <time>2018-06-27T06:28:26Z</time>
      </trkpt>
      <trkpt lat="45.32009" lon="6.59279">
        <ele>2494</ele>
        <time>2018-06-27T06:29:26Z</time>
      </trkpt>
      <trkpt lat="45.32008" lon="6.5928">
        <ele>2494</ele>
        <time>2018-06-27T06:30:26Z</time>
      </trkpt>
      <trkpt lat="45.32006" lon="6.59283">
        <ele>2494</ele>
        <time>2018-06-27T06:31:26Z</time>
      </trkpt>
      <trkpt lat="45.32005" lon="6.59288">
        <ele>2493</ele>
        <time>2018-06-27T06:32:26Z</time>
      </trkpt>
      <trkpt lat="45.32004" lon="6.59289">
        <ele>2494</ele>
        <time>2018-06-27T06:33:26Z</time>
      </trkpt>
      <trkpt lat="45.32003" lon="6.59294">
        <ele>2493</ele>
        <time>2018-06-27T06:34:26Z</time>
      </trkpt>
      <trkpt lat="45.32001" lon="6.59321">
        <ele>2499</ele>
        <time>2018-06-27T06:35:26Z</time>
      </trkpt>
      <trkpt lat="45.32" lon="6.59322">
        <ele>2499</ele>
        <time>2018-06-27T06:36:26Z</time>
      </trkpt>
      <trkpt lat="45.31997" lon="6.59318">
        <ele>2514</ele>
        <time>2018-06-27T06:37:26Z</time>
      </trkpt>
      <trkpt lat="45.31995" lon="6.59317">
        <ele>2514</ele>
        <time>2018-06-27T06:38:26Z</time>
      </trkpt>
      <trkpt lat="45.31989" lon="6.59312">
        <ele>2516</ele>
        <time>2018-06-27T06:39:26Z</time>
      </trkpt>
      <trkpt lat="45.31986" lon="6.59306">
        <ele>2517</ele>
        <time>2018-06-27T06:40:26Z</time>
      </trkpt>
      <trkpt lat="45.31985" lon="6.59307">
        <ele>2518</ele>
        <time>2018-06-27T06:41:26Z</time>
      </trkpt>
      <trkpt lat="45.3198" lon="6.59329">
        <ele>2517</ele>
        <time>2018-06-27T06:42:26Z</time>
      </trkpt>
      <trkpt lat="45.31979" lon="6.5933">
        <ele>2517</ele>
        <time>2018-06-27T06:43:26Z</time>
      </trkpt>
      <trkpt lat="45.31976" lon="6.59324">
        <ele>2518</ele>
        <time>2018-06-27T06:44:26Z</time>
      </trkpt>
      <trkpt lat="45.31976" lon="6.5932">
        <ele>2519</ele>
        <time>2018-06-27T06:45:26Z</time>
      </trkpt>
      <trkpt lat="45.31975" lon="6.5932">
        <ele>2519</ele>
        <time>2018-06-27T06:46:26Z</time>
      </trkpt>
      <trkpt lat="45.31974" lon="6.59323">
        <ele>2519</ele>
        <time>2018-06-27T06:47:26Z</time>
      </trkpt>
      <trkpt lat="45.3197" lon="6.59335">
        <ele>2520</ele>
        <time>2018-06-27T06:48:26Z</time>
      </trkpt>
      <trkpt lat="45.31968" lon="6.59337">
        <ele>2520</ele>
        <time>2018-06-27T06:49:26Z</time>
      </trkpt>
      <trkpt lat="45.31967" lon="6.5934">
        <ele>2521</ele>
        <time>2018-06-27T06:50:26Z</time>
      </trkpt>
      <trkpt lat="45.31967" lon="6.59343">
        <ele>2521</ele>
        <time>2018-06-27T06:51:26Z</time>
      </trkpt>
      <trkpt lat="45.31965" lon="6.59346">
        <ele>2521</ele>
        <time>2018-06-27T06:52:26Z</time>
      </trkpt>
      <trkpt lat="45.31962" lon="6.59357">
        <ele>2522</ele>
        <time>2018-06-27T06:53:26Z</time>
      </trkpt>
      <trkpt lat="45.3196" lon="6.59361">
        <ele>2522</ele>
        <time>2018-06-27T06:54:26Z</time>
      </trkpt>
      <trkpt lat="45.31958" lon="6.59363">
        <ele>2522</ele>
        <time>2018-06-27T06:55:26Z</time>
      </trkpt>
      <trkpt lat="45.31958" lon="6.59367">
        <ele>2522</ele>
        <time>2018-06-27T06:56:26Z</time>
      </trkpt>
      <trkpt lat="45.31956" lon="6.59373">
        <ele>2522</ele>
        <time>2018-06-27T06:57:26Z</time>
      </trkpt>
      <trkpt lat="45.31954" lon="6.59376">
        <ele>2522</ele>
        <time>2018-06-27T06:58:26Z</time>
      </trkpt>
      <trkpt lat="45.31945" lon="6.59388">
        <ele>2523</ele>
        <time>2018-06-27T06:59:26Z</time>
      </trkpt>
      <trkpt lat="45.31941" lon="6.59401">
        <ele>2524</ele>
        <time>2018-06-27T07:00:26Z</time>
      </trkpt>
      <trkpt lat="45.31939" lon="6.59404">
        <ele>2524</ele>
        <time>2018-06-27T07:01:26Z</time>
      </trkpt>
      <trkpt lat="45.31933" lon="6.5941">
        <ele>2526</ele>
        <time>2018-06-27T07:02:26Z</time>
      </trkpt>
      <trkpt lat="45.31929" lon="6.59412">
        <ele>2528</ele>
        <time>2018-06-27T07:03:26Z</time>
      </trkpt>
      <trkpt lat="45.31927" lon="6.59416">
        <ele>2529</ele>
        <time>2018-06-27T07:04:26Z</time>
      </trkpt>
      <trkpt lat="45.31915" lon="6.59434">
        <ele>2529</ele>
        <time>2018-06-27T07:05:26Z</time>
      </trkpt>
      <trkpt lat="45.31914" lon="6.59438">
        <ele>2529</ele>
        <time>2018-06-27T07:06:26Z</time>
      </trkpt>
      <trkpt lat="45.3191" lon="6.59447">
        <ele>2527</ele>
        <time>2018-06-27T07:07:26Z</time>
      </trkpt>
      <trkpt lat="45.31906" lon="6.5945">
        <ele>2526</ele>
        <time>2018-06-27T07:08:26Z</time>
      </trkpt>
      <trkpt lat="45.31897" lon="6.5946">
        <ele>2524</ele>
        <time>2018-06-27T07:09:26Z</time>
      </trkpt>
      <trkpt lat="45.31896" lon="6.59463">
        <ele>2524</ele>
        <time>2018-06-27T07:10:26Z</time>
      </trkpt>
      <trkpt lat="45.31894" lon="6.59467">
        <ele>2523</ele>
        <time>2018-06-27T07:11:26Z</time>
      </trkpt>
      <trkpt lat="45.31894" lon="6.59471">
        <ele>2523</ele>
        <time>2018-06-27T07:12:26Z</time>
      </trkpt>
      <trkpt lat="45.31892" lon="6.59478">
        <ele>2522</ele>
        <time>2018-06-27T07:13:26Z</time>
      </trkpt>
      <trkpt lat="45.31889" lon="6.5948">
        <ele>2522</ele>
        <time>2018-06-27T07:14:26Z</time>
      </trkpt>
      <trkpt lat="45.31885" lon="6.59483">
        <ele>2522</ele>
        <time>2018-06-27T07:15:26Z</time>
      </trkpt>
      <trkpt lat="45.31884" lon="6.59487">
        <ele>2521</ele>
        <time>2018-06-27T07:16:26Z</time>
      </trkpt>
      <trkpt lat="45.31881" lon="6.59502">
        <ele>2524</ele>
        <time>2018-06-27T07:17:26Z</time>
      </trkpt>
      <trkpt lat="45.31879" lon="6.59506">
        <ele>2525</ele>
        <time>2018-06-27T07:18:26Z</time>
      </trkpt>
      <trkpt lat="45.31873" lon="6.59514">
        <ele>2526</ele>
        <time>2018-06-27T07:19:26Z</time>
      </trkpt>
      <trkpt lat="45.31871" lon="6.5952">
        <ele>2527</ele>
        <time>2018-06-27T07:20:26Z</time>
      </trkpt>
      <trkpt lat="45.31868" lon="6.59528">
        <ele>2529</ele>
        <time>2018-06-27T07:21:26Z</time>
      </trkpt>
      <trkpt lat="45.31868" lon="6.59531">
        <ele>2529</ele>
        <time>2018-06-27T07:22:26Z</time>
      </trkpt>
      <trkpt lat="45.31869" lon="6.59533">
        <ele>2529</ele>
        <time>2018-06-27T07:23:26Z</time>
      </trkpt>
      <trkpt lat="45.31868" lon="6.59536">
        <ele>2529</ele>
        <time>2018-06-27T07:24:26Z</time>
      </trkpt>
      <trkpt lat="45.31867" lon="6.5954">
        <ele>2530</ele>
        <time>2018-06-27T07:25:26Z</time>
      </trkpt>
      <trkpt lat="45.31867" lon="6.59542">
        <ele>2530</ele>
        <time>2018-06-27T07:26:26Z</time>
      </trkpt>
      <trkpt lat="45.31867" lon="6.59548">
        <ele>2531</ele>
        <time>2018-06-27T07:27:26Z</time>
      </trkpt>
      <trkpt lat="45.31868" lon="6.59551">
        <ele>2531</ele>
        <time>2018-06-27T07:28:26Z</time>
      </trkpt>
      <trkpt lat="45.31867" lon="6.59552">
        <ele>2532</ele>
        <time>2018-06-27T07:29:26Z</time>
      </trkpt>
      <trkpt lat="45.31866" lon="6.59553">
        <ele>2532</ele>
        <time>2018-06-27T07:30:26Z</time>
      </trkpt>
      <trkpt lat="45.31866" lon="6.59555">
        <ele>2532</ele>
        <time>2018-06-27T07:31:26Z</time>
      </trkpt>
      <trkpt lat="45.31867" lon="6.59558">
        <ele>2533</ele>
        <time>2018-06-27T07:32:26Z</time>
      </trkpt>
      <trkpt lat="45.31866" lon="6.5956">
        <ele>2533</ele>
        <time>2018-06-27T07:33:26Z</time>
      </trkpt>
      <trkpt lat="45.31866" lon="6.59574">
        <ele>2535</ele>
        <time>2018-06-27T07:34:26Z</time>
      </trkpt>
      <trkpt lat="45.31868" lon="6.59594">
        <ele>2537</ele>
        <time>2018-06-27T07:35:26Z</time>
      </trkpt>
      <trkpt lat="45.31868" lon="6.59601">
        <ele>2537</ele>
        <time>2018-06-27T07:36:26Z</time>
      </trkpt>
      <trkpt lat="45.31868" lon="6.59628">
        <ele>2536</ele>
        <time>2018-06-27T07:37:26Z</time>
      </trkpt>
      <trkpt lat="45.31867" lon="6.59635">
        <ele>2537</ele>
        <time>2018-06-27T07:38:26Z</time>
      </trkpt>
      <trkpt lat="45.31866" lon="6.59659">
        <ele>2538</ele>
        <time>2018-06-27T07:39:26Z</time>
      </trkpt>
      <trkpt lat="45.31867" lon="6.59664">
        <ele>2537</ele>
        <time>2018-06-27T07:40:26Z</time>
      </trkpt>
      <trkpt lat="45.31869" lon="6.59689">
        <ele>2539</ele>
        <time>2018-06-27T07:41:26Z</time>
      </trkpt>
      <trkpt lat="45.31871" lon="6.59695">
        <ele>2538</ele>
        <time>2018-06-27T07:42:26Z</time>
      </trkpt>
      <trkpt lat="45.31878" lon="6.59702">
        <ele>2537</ele>
        <time>2018-06-27T07:43:26Z</time>
      </trkpt>
      <trkpt lat="45.31879" lon="6.59704">
        <ele>2537</ele>
        <time>2018-06-27T07:44:26Z</time>
      </trkpt>
      <trkpt lat="45.31879" lon="6.59707">
        <ele>2537</ele>
        <time>2018-06-27T07:45:26Z</time>
      </trkpt>
      <trkpt lat="45.31877" lon="6.59713">
        <ele>2538</ele>
        <time>2018-06-27T07:46:26Z</time>
      </trkpt>
      <trkpt lat="45.31876" lon="6.59713">
        <ele>2538</ele>
        <time>2018-06-27T07:47:26Z</time>
      </trkpt>
      <trkpt lat="45.31875" lon="6.59715">
        <ele>2538</ele>
        <time>2018-06-27T07:48:26Z</time>
      </trkpt>
      <trkpt lat="45.31876" lon="6.59716">
        <ele>2538</ele>
        <time>2018-06-27T07:49:26Z</time>
      </trkpt>
      <trkpt lat="45.31877" lon="6.59722">
        <ele>2538</ele>
        <time>2018-06-27T07:50:26Z</time>
      </trkpt>
      <trkpt lat="45.31876" lon="6.59731">
        <ele>2538</ele>
        <time>2018-06-27T07:51:26Z</time>
      </trkpt>
      <trkpt lat="45.31877" lon="6.59735">
        <ele>2538</ele>
        <time>2018-06-27T07:52:26Z</time>
      </trkpt>
      <trkpt lat="45.31878" lon="6.59744">
        <ele>2538</ele>
        <time>2018-06-27T07:53:26Z</time>
      </trkpt>
      <trkpt lat="45.31877" lon="6.59748">
        <ele>2538</ele>
        <time>2018-06-27T07:54:26Z</time>
      </trkpt>
      <trkpt lat="45.31879" lon="6.59751">
        <ele>2540</ele>
        <time>2018-06-27T07:55:26Z</time>
      </trkpt>
      <trkpt lat="45.31881" lon="6.59757">
        <ele>2539</ele>
        <time>2018-06-27T07:56:26Z</time>
      </trkpt>
      <trkpt lat="45.3188" lon="6.59759">
        <ele>2539</ele>
        <time>2018-06-27T07:57:26Z</time>
      </trkpt>
      <trkpt lat="45.31882" lon="6.59775">
        <ele>2539</ele>
        <time>2018-06-27T07:58:26Z</time>
      </trkpt>
      <trkpt lat="45.31884" lon="6.5978">
        <ele>2539</ele>
        <time>2018-06-27T07:59:26Z</time>
      </trkpt>
      <trkpt lat="45.31886" lon="6.59791">
        <ele>2539</ele>
        <time>2018-06-27T08:00:26Z</time>
      </trkpt>
      <trkpt lat="45.31889" lon="6.598">
        <ele>2539</ele>
        <time>2018-06-27T08:01:26Z</time>
      </trkpt>
      <trkpt lat="45.31892" lon="6.59806">
        <ele>2539</ele>
        <time>2018-06-27T08:02:26Z</time>
      </trkpt>
      <trkpt lat="45.31893" lon="6.59821">
        <ele>2540</ele>
        <time>2018-06-27T08:03:26Z</time>
      </trkpt>
      <trkpt lat="45.31895" lon="6.59824">
        <ele>2540</ele>
        <time>2018-06-27T08:04:26Z</time>
      </trkpt>
      <trkpt lat="45.31899" lon="6.59839">
        <ele>2543</ele>
        <time>2018-06-27T08:05:26Z</time>
      </trkpt>
      <trkpt lat="45.31903" lon="6.59846">
        <ele>2543</ele>
        <time>2018-06-27T08:06:26Z</time>
      </trkpt>
      <trkpt lat="45.31904" lon="6.59848">
        <ele>2544</ele>
        <time>2018-06-27T08:07:26Z</time>
      </trkpt>
      <trkpt lat="45.31903" lon="6.59854">
        <ele>2545</ele>
        <time>2018-06-27T08:08:26Z</time>
      </trkpt>
      <trkpt lat="45.31904" lon="6.59859">
        <ele>2546</ele>
        <time>2018-06-27T08:09:26Z</time>
      </trkpt>
      <trkpt lat="45.31907" lon="6.59866">
        <ele>2547</ele>
        <time>2018-06-27T08:10:26Z</time>
      </trkpt>
      <trkpt lat="45.31909" lon="6.59879">
        <ele>2549</ele>
        <time>2018-06-27T08:11:26Z</time>
      </trkpt>
      <trkpt lat="45.31911" lon="6.59883">
        <ele>2550</ele>
        <time>2018-06-27T08:12:26Z</time>
      </trkpt>
      <trkpt lat="45.31912" lon="6.59885">
        <ele>2551</ele>
        <time>2018-06-27T08:13:26Z</time>
      </trkpt>
      <trkpt lat="45.31912" lon="6.59888">
        <ele>2551</ele>
        <time>2018-06-27T08:14:26Z</time>
      </trkpt>
      <trkpt lat="45.31911" lon="6.59896">
        <ele>2553</ele>
        <time>2018-06-27T08:15:26Z</time>
      </trkpt>
      <trkpt lat="45.3191" lon="6.59898">
        <ele>2553</ele>
        <time>2018-06-27T08:16:26Z</time>
      </trkpt>
      <trkpt lat="45.31907" lon="6.59905">
        <ele>2554</ele>
        <time>2018-06-27T08:17:26Z</time>
      </trkpt>
      <trkpt lat="45.31907" lon="6.59908">
        <ele>2554</ele>
        <time>2018-06-27T08:18:26Z</time>
      </trkpt>
      <trkpt lat="45.31906" lon="6.59918">
        <ele>2557</ele>
        <time>2018-06-27T08:19:26Z</time>
      </trkpt>
      <trkpt lat="45.31904" lon="6.59926">
        <ele>2557</ele>
        <time>2018-06-27T08:20:26Z</time>
      </trkpt>
      <trkpt lat="45.31904" lon="6.59928">
        <ele>2557</ele>
        <time>2018-06-27T08:21:26Z</time>
      </trkpt>
      <trkpt lat="45.31905" lon="6.59929">
        <ele>2557</ele>
        <time>2018-06-27T08:22:26Z</time>
      </trkpt>
      <trkpt lat="45.31904" lon="6.59931">
        <ele>2557</ele>
        <time>2018-06-27T08:23:26Z</time>
      </trkpt>
      <trkpt lat="45.31901" lon="6.59938">
        <ele>2557</ele>
        <time>2018-06-27T08:24:26Z</time>
      </trkpt>
      <trkpt lat="45.319" lon="6.59944">
        <ele>2557</ele>
        <time>2018-06-27T08:25:26Z</time>
      </trkpt>
      <trkpt lat="45.31901" lon="6.59951">
        <ele>2557</ele>
        <time>2018-06-27T08:26:26Z</time>
      </trkpt>
      <trkpt lat="45.31903" lon="6.59953">
        <ele>2557</ele>
        <time>2018-06-27T08:27:26Z</time>
      </trkpt>
      <trkpt lat="45.31912" lon="6.59999">
        <ele>2557</ele>
        <time>2018-06-27T08:28:26Z</time>
      </trkpt>
      <trkpt lat="45.31934" lon="6.60041">
        <ele>2538</ele>
        <time>2018-06-27T08:29:26Z</time>
      </trkpt>
      <trkpt lat="45.31988" lon="6.60073">
        <ele>2538</ele>
        <time>2018-06-27T08:30:26Z</time>
      </trkpt>
      <trkpt lat="45.32026" lon="6.60073">
        <ele>2535</ele>
        <time>2018-06-27T08:31:26Z</time>
      </trkpt>
      <trkpt lat="45.32053" lon="6.60053">
        <ele>2534</ele>
        <time>2018-06-27T08:32:26Z</time>
      </trkpt>
      <trkpt lat="45.32086" lon="6.60139">
        <ele>2546</ele>
        <time>2018-06-27T08:33:26Z</time>
      </trkpt>
      <trkpt lat="45.32121" lon="6.6014">
        <ele>2544</ele>
        <time>2018-06-27T08:34:26Z</time>
      </trkpt>
      <trkpt lat="45.32147" lon="6.6015">
        <ele>2544</ele>
        <time>2018-06-27T08:35:26Z</time>
      </trkpt>
      <trkpt lat="45.32182" lon="6.60149">
        <ele>2544</ele>
        <time>2018-06-27T08:36:26Z</time>
      </trkpt>
      <trkpt lat="45.32203" lon="6.60154">
        <ele>2545</ele>
        <time>2018-06-27T08:37:26Z</time>
      </trkpt>
      <trkpt lat="45.32216" lon="6.60144">
        <ele>2545</ele>
        <time>2018-06-27T08:38:26Z</time>
      </trkpt>
      <trkpt lat="45.32234" lon="6.60172">
        <ele>2551</ele>
        <time>2018-06-27T08:39:26Z</time>
      </trkpt>
      <trkpt lat="45.32262" lon="6.60181">
        <ele>2551</ele>
        <time>2018-06-27T08:40:26Z</time>
      </trkpt>
      <trkpt lat="45.323" lon="6.60159">
        <ele>2550</ele>
        <time>2018-06-27T08:41:26Z</time>
      </trkpt>
      <trkpt lat="45.32322" lon="6.6014">
        <ele>2550</ele>
        <time>2018-06-27T08:42:26Z</time>
      </trkpt>
      <trkpt lat="45.32386" lon="6.60164">
        <ele>2551</ele>
        <time>2018-06-27T08:43:26Z</time>
      </trkpt>
      <trkpt lat="45.32426" lon="6.60119">
        <ele>2553</ele>
        <time>2018-06-27T08:44:26Z</time>
      </trkpt>
      <trkpt lat="45.32449" lon="6.60112">
        <ele>2553</ele>
        <time>2018-06-27T08:45:26Z</time>
      </trkpt>
      <trkpt lat="45.32463" lon="6.60075">
        <ele>2548</ele>
        <time>2018-06-27T08:46:26Z</time>
      </trkpt>
      <trkpt lat="45.32507" lon="6.60034">
        <ele>2552</ele>
        <time>2018-06-27T08:47:26Z</time>
      </trkpt>
      <trkpt lat="45.32551" lon="6.59991">
        <ele>2546</ele>
        <time>2018-06-27T08:48:26Z</time>
      </trkpt>
      <trkpt lat="45.32576" lon="6.59982">
        <ele>2546</ele>
        <time>2018-06-27T08:49:26Z</time>
      </trkpt>
      <trkpt lat="45.32618" lon="6.59965">
        <ele>2552</ele>
        <time>2018-06-27T08:50:26Z</time>
      </trkpt>
      <trkpt lat="45.32655" lon="6.59939">
        <ele>2552</ele>
        <time>2018-06-27T08:51:26Z</time>
      </trkpt>
      <trkpt lat="45.32682" lon="6.59886">
        <ele>2556</ele>
        <time>2018-06-27T08:52:26Z</time>
      </trkpt>
      <trkpt lat="45.32743" lon="6.59881">
        <ele>2556</ele>
        <time>2018-06-27T08:53:26Z</time>
      </trkpt>
      <trkpt lat="45.32779" lon="6.59835">
        <ele>2588</ele>
        <time>2018-06-27T08:54:26Z</time>
      </trkpt>
      <trkpt lat="45.32835" lon="6.59847">
        <ele>2600</ele>
        <time>2018-06-27T08:55:26Z</time>
      </trkpt>
      <trkpt lat="45.32886" lon="6.59885">
        <ele>2604</ele>
        <time>2018-06-27T08:56:26Z</time>
      </trkpt>
      <trkpt lat="45.32948" lon="6.59904">
        <ele>2599</ele>
        <time>2018-06-27T08:57:26Z</time>
      </trkpt>
      <trkpt lat="45.3295" lon="6.5987">
        <ele>2589</ele>
        <time>2018-06-27T08:58:26Z</time>
      </trkpt>
      <trkpt lat="45.32999" lon="6.59865">
        <ele>2580</ele>
        <time>2018-06-27T08:59:26Z</time>
      </trkpt>
      <trkpt lat="45.32963" lon="6.59778">
        <ele>2556</ele>
        <time>2018-06-27T09:00:26Z</time>
      </trkpt>
      <trkpt lat="45.33028" lon="6.59759">
        <ele>2548</ele>
        <time>2018-06-27T09:01:26Z</time>
      </trkpt>
      <trkpt lat="45.33088" lon="6.59756">
        <ele>2536</ele>
        <time>2018-06-27T09:02:26Z</time>
      </trkpt>
      <trkpt lat="45.33105" lon="6.59802">
        <ele>2537</ele>
        <time>2018-06-27T09:03:26Z</time>
      </trkpt>
      <trkpt lat="45.33159" lon="6.59843">
        <ele>2539</ele>
        <time>2018-06-27T09:04:26Z</time>
      </trkpt>
      <trkpt lat="45.33205" lon="6.59853">
        <ele>2525</ele>
        <time>2018-06-27T09:05:26Z</time>
      </trkpt>
      <trkpt lat="45.33254" lon="6.59865">
        <ele>2507</ele>
        <time>2018-06-27T09:06:26Z</time>
      </trkpt>
      <trkpt lat="45.33275" lon="6.59934">
        <ele>2529</ele>
        <time>2018-06-27T09:07:26Z</time>
      </trkpt>
      <trkpt lat="45.33297" lon="6.59964">
        <ele>2528</ele>
        <time>2018-06-27T09:08:26Z</time>
      </trkpt>
      <trkpt lat="45.33346" lon="6.59982">
        <ele>2511</ele>
        <time>2018-06-27T09:09:26Z</time>
      </trkpt>
      <trkpt lat="45.33407" lon="6.60039">
        <ele>2524</ele>
        <time>2018-06-27T09:10:26Z</time>
      </trkpt>
      <trkpt lat="45.33431" lon="6.60069">
        <ele>2515</ele>
        <time>2018-06-27T09:11:26Z</time>
      </trkpt>
      <trkpt lat="45.33446" lon="6.60119">
        <ele>2527</ele>
        <time>2018-06-27T09:12:26Z</time>
      </trkpt>
      <trkpt lat="45.3347" lon="6.60203">
        <ele>2533</ele>
        <time>2018-06-27T09:13:26Z</time>
      </trkpt>
      <trkpt lat="45.33493" lon="6.6023">
        <ele>2533</ele>
        <time>2018-06-27T09:14:26Z</time>
      </trkpt>
      <trkpt lat="45.33487" lon="6.60281">
        <ele>2537</ele>
        <time>2018-06-27T09:15:26Z</time>
      </trkpt>
      <trkpt lat="45.33503" lon="6.6031">
        <ele>2528</ele>
        <time>2018-06-27T09:16:26Z</time>
      </trkpt>
      <trkpt lat="45.33497" lon="6.60338">
        <ele>2544</ele>
        <time>2018-06-27T09:17:26Z</time>
      </trkpt>
      <trkpt lat="45.33477" lon="6.60378">
        <ele>2541</ele>
        <time>2018-06-27T09:18:26Z</time>
      </trkpt>
      <trkpt lat="45.33455" lon="6.60427">
        <ele>2537</ele>
        <time>2018-06-27T09:19:26Z</time>
      </trkpt>
      <trkpt lat="45.33447" lon="6.6049">
        <ele>2536</ele>
        <time>2018-06-27T09:20:26Z</time>
      </trkpt>
      <trkpt lat="45.33436" lon="6.60547">
        <ele>2536</ele>
        <time>2018-06-27T09:21:26Z</time>
      </trkpt>
      <trkpt lat="45.33449" lon="6.60592">
        <ele>2537</ele>
        <time>2018-06-27T09:22:26Z</time>
      </trkpt>
      <trkpt lat="45.33468" lon="6.6066">
        <ele>2539</ele>
        <time>2018-06-27T09:23:26Z</time>
      </trkpt>
      <trkpt lat="45.33483" lon="6.60713">
        <ele>2543</ele>
        <time>2018-06-27T09:24:26Z</time>
      </trkpt>
      <trkpt lat="45.33508" lon="6.60698">
        <ele>2537</ele>
        <time>2018-06-27T09:25:26Z</time>
      </trkpt>
      <trkpt lat="45.33533" lon="6.60681">
        <ele>2535</ele>
        <time>2018-06-27T09:26:26Z</time>
      </trkpt>
      <trkpt lat="45.3354" lon="6.60708">
        <ele>2535</ele>
        <time>2018-06-27T09:27:26Z</time>
      </trkpt>
      <trkpt lat="45.33571" lon="6.60725">
        <ele>2532</ele>
        <time>2018-06-27T09:28:26Z</time>
      </trkpt>
      <trkpt lat="45.3359" lon="6.60716">
        <ele>2523</ele>
        <time>2018-06-27T09:29:26Z</time>
      </trkpt>
      <trkpt lat="45.33624" lon="6.60682">
        <ele>2519</ele>
        <time>2018-06-27T09:30:26Z</time>
      </trkpt>
      <trkpt lat="45.33672" lon="6.60651">
        <ele>2499</ele>
        <time>2018-06-27T09:31:26Z</time>
      </trkpt>
      <trkpt lat="45.33692" lon="6.60642">
        <ele>2491</ele>
        <time>2018-06-27T09:32:26Z</time>
      </trkpt>
      <trkpt lat="45.33706" lon="6.60677">
        <ele>2498</ele>
        <time>2018-06-27T09:33:26Z</time>
      </trkpt>
      <trkpt lat="45.33712" lon="6.60612">
        <ele>2484</ele>
        <time>2018-06-27T09:34:26Z</time>
      </trkpt>
      <trkpt lat="45.33736" lon="6.60586">
        <ele>2476</ele>
        <time>2018-06-27T09:35:26Z</time>
      </trkpt>
      <trkpt lat="45.33754" lon="6.60555">
        <ele>2455</ele>
        <time>2018-06-27T09:36:26Z</time>
      </trkpt>
      <trkpt lat="45.3379" lon="6.60541">
        <ele>2447</ele>
        <time>2018-06-27T09:37:26Z</time>
      </trkpt>
      <trkpt lat="45.33828" lon="6.60556">
        <ele>2444</ele>
        <time>2018-06-27T09:38:26Z</time>
      </trkpt>
      <trkpt lat="45.33833" lon="6.60571">
        <ele>2445</ele>
        <time>2018-06-27T09:39:26Z</time>
      </trkpt>
      <trkpt lat="45.33845" lon="6.60574">
        <ele>2431</ele>
        <time>2018-06-27T09:40:26Z</time>
      </trkpt>
      <trkpt lat="45.3388" lon="6.60602">
        <ele>2426</ele>
        <time>2018-06-27T09:41:26Z</time>
      </trkpt>
      <trkpt lat="45.33947" lon="6.60587">
        <ele>2405</ele>
        <time>2018-06-27T09:42:26Z</time>
      </trkpt>
      <trkpt lat="45.34011" lon="6.60591">
        <ele>2394</ele>
        <time>2018-06-27T09:43:26Z</time>
      </trkpt>
      <trkpt lat="45.34057" lon="6.60601">
        <ele>2389</ele>
        <time>2018-06-27T09:44:26Z</time>
      </trkpt>
      <trkpt lat="45.34068" lon="6.60638">
        <ele>2388</ele>
        <time>2018-06-27T09:45:26Z</time>
      </trkpt>
      <trkpt lat="45.34133" lon="6.60675">
        <ele>2378</ele>
        <time>2018-06-27T09:46:26Z</time>
      </trkpt>
      <trkpt lat="45.34175" lon="6.60756">
        <ele>2357</ele>
        <time>2018-06-27T09:47:26Z</time>
      </trkpt>
      <trkpt lat="45.34189" lon="6.60782">
        <ele>2350</ele>
        <time>2018-06-27T09:48:26Z</time>
      </trkpt>
      <trkpt lat="45.34216" lon="6.60822">
        <ele>2342</ele>
        <time>2018-06-27T09:49:26Z</time>
      </trkpt>
      <trkpt lat="45.34214" lon="6.60852">
        <ele>2322</ele>
        <time>2018-06-27T09:50:26Z</time>
      </trkpt>
      <trkpt lat="45.34227" lon="6.60857">
        <ele>2321</ele>
        <time>2018-06-27T09:51:26Z</time>
      </trkpt>
      <trkpt lat="45.34225" lon="6.60879">
        <ele>2317</ele>
        <time>2018-06-27T09:52:26Z</time>
      </trkpt>
      <trkpt lat="45.34233" lon="6.6092">
        <ele>2300</ele>
        <time>2018-06-27T09:53:26Z</time>
      </trkpt>
      <trkpt lat="45.3428" lon="6.60953">
        <ele>2283</ele>
        <time>2018-06-27T09:54:26Z</time>
      </trkpt>
      <trkpt lat="45.34342" lon="6.61015">
        <ele>2257</ele>
        <time>2018-06-27T09:55:26Z</time>
      </trkpt>
      <trkpt lat="45.34415" lon="6.61065">
        <ele>2239</ele>
        <time>2018-06-27T09:56:26Z</time>
      </trkpt>
      <trkpt lat="45.3454" lon="6.61188">
        <ele>2149</ele>
        <time>2018-06-27T09:57:26Z</time>
      </trkpt>
      <trkpt lat="45.3456" lon="6.61215">
        <ele>2143</ele>
        <time>2018-06-27T09:58:26Z</time>
      </trkpt>
      <trkpt lat="45.34567" lon="6.61244">
        <ele>2134</ele>
        <time>2018-06-27T09:59:26Z</time>
      </trkpt>
      <trkpt lat="45.34603" lon="6.61278">
        <ele>2105</ele>
        <time>2018-06-27T10:00:26Z</time>
      </trkpt>
      <trkpt lat="45.34592" lon="6.61331">
        <ele>2102</ele>
        <time>2018-06-27T10:01:26Z</time>
      </trkpt>
      <trkpt lat="45.34627" lon="6.61348">
        <ele>2078</ele>
        <time>2018-06-27T10:02:26Z</time>
      </trkpt>
      <trkpt lat="45.34699" lon="6.61348">
        <ele>2057</ele>
        <time>2018-06-27T10:03:26Z</time>
      </trkpt>
      <trkpt lat="45.34785" lon="6.61379">
        <ele>2037</ele>
        <time>2018-06-27T10:04:26Z</time>
      </trkpt>
      <trkpt lat="45.34864" lon="6.6141">
        <ele>2023</ele>
        <time>2018-06-27T10:05:26Z</time>
      </trkpt>
      <trkpt lat="45.34925" lon="6.61406">
        <ele>2014</ele>
        <time>2018-06-27T10:06:26Z</time>
      </trkpt>
      <trkpt lat="45.34988" lon="6.61489">
        <ele>2010</ele>
        <time>2018-06-27T10:07:26Z</time>
      </trkpt>
      <trkpt lat="45.34961" lon="6.61514">
        <ele>2011</ele>
        <time>2018-06-27T10:08:26Z</time>
      </trkpt>
      <trkpt lat="45.34928" lon="6.61518">
        <ele>2012</ele>
        <time>2018-06-27T10:09:26Z</time>
      </trkpt>
      <trkpt lat="45.34911" lon="6.61556">
        <ele>2013</ele>
        <time>2018-06-27T10:10:26Z</time>
      </trkpt>
      <trkpt lat="45.34876" lon="6.61581">
        <ele>2014</ele>
        <time>2018-06-27T10:11:26Z</time>
      </trkpt>
      <trkpt lat="45.34815" lon="6.61607">
        <ele>2017</ele>
        <time>2018-06-27T10:12:26Z</time>
      </trkpt>
      <trkpt lat="45.34772" lon="6.61637">
        <ele>2018</ele>
        <time>2018-06-27T10:13:26Z</time>
      </trkpt>
      <trkpt lat="45.34744" lon="6.61676">
        <ele>2019</ele>
        <time>2018-06-27T10:14:26Z</time>
      </trkpt>
      <trkpt lat="45.34703" lon="6.61712">
        <ele>2020</ele>
        <time>2018-06-27T10:15:26Z</time>
      </trkpt>
      <trkpt lat="45.34662" lon="6.6177">
        <ele>2023</ele>
        <time>2018-06-27T10:16:26Z</time>
      </trkpt>
      <trkpt lat="45.34578" lon="6.61838">
        <ele>2026</ele>
        <time>2018-06-27T10:17:26Z</time>
      </trkpt>
      <trkpt lat="45.34547" lon="6.61926">
        <ele>2030</ele>
        <time>2018-06-27T10:18:26Z</time>
      </trkpt>
      <trkpt lat="45.34496" lon="6.62023">
        <ele>2037</ele>
        <time>2018-06-27T10:19:26Z</time>
      </trkpt>
      <trkpt lat="45.34444" lon="6.62118">
        <ele>2040</ele>
        <time>2018-06-27T10:20:26Z</time>
      </trkpt>
      <trkpt lat="45.34411" lon="6.62194">
        <ele>2048</ele>
        <time>2018-06-27T10:21:26Z</time>
      </trkpt>
      <trkpt lat="45.3438" lon="6.62302">
        <ele>2054</ele>
        <time>2018-06-27T10:22:26Z</time>
      </trkpt>
      <trkpt lat="45.3436" lon="6.6242">
        <ele>2068</ele>
        <time>2018-06-27T10:23:26Z</time>
      </trkpt>
      <trkpt lat="45.34352" lon="6.62535">
        <ele>2083</ele>
        <time>2018-06-27T10:24:26Z</time>
      </trkpt>
      <trkpt lat="45.3433" lon="6.62538">
        <ele>2098</ele>
        <time>2018-06-27T10:25:26Z</time>
      </trkpt>
      <trkpt lat="45.34351" lon="6.62599">
        <ele>2094</ele>
        <time>2018-06-27T10:26:26Z</time>
      </trkpt>
      <trkpt lat="45.34319" lon="6.62599">
        <ele>2101</ele>
        <time>2018-06-27T10:27:26Z</time>
      </trkpt>
      <trkpt lat="45.3433" lon="6.62629">
        <ele>2104</ele>
        <time>2018-06-27T10:28:26Z</time>
      </trkpt>
      <trkpt lat="45.34294" lon="6.62645">
        <ele>2110</ele>
        <time>2018-06-27T10:29:26Z</time>
      </trkpt>
      <trkpt lat="45.3429" lon="6.62673">
        <ele>2112</ele>
        <time>2018-06-27T10:30:26Z</time>
      </trkpt>
      <trkpt lat="45.34254" lon="6.62718">
        <ele>2115</ele>
        <time>2018-06-27T10:31:26Z</time>
      </trkpt>
      <trkpt lat="45.34217" lon="6.6282">
        <ele>2125</ele>
        <time>2018-06-27T10:32:26Z</time>
      </trkpt>
      <trkpt lat="45.34196" lon="6.6289">
        <ele>2125</ele>
        <time>2018-06-27T10:33:26Z</time>
      </trkpt>
      <trkpt lat="45.34156" lon="6.62987">
        <ele>2133</ele>
        <time>2018-06-27T10:34:26Z</time>
      </trkpt>
      <trkpt lat="45.34116" lon="6.63043">
        <ele>2133</ele>
        <time>2018-06-27T10:35:26Z</time>
      </trkpt>
      <trkpt lat="45.34088" lon="6.63045">
        <ele>2135</ele>
        <time>2018-06-27T10:36:26Z</time>
      </trkpt>
      <trkpt lat="45.34061" lon="6.6308">
        <ele>2143</ele>
        <time>2018-06-27T10:37:26Z</time>
      </trkpt>
      <trkpt lat="45.34031" lon="6.63125">
        <ele>2134</ele>
        <time>2018-06-27T10:38:26Z</time>
      </trkpt>
      <trkpt lat="45.33979" lon="6.63139">
        <ele>2140</ele>
        <time>2018-06-27T10:39:26Z</time>
      </trkpt>
      <trkpt lat="45.33925" lon="6.63147">
        <ele>2140</ele>
        <time>2018-06-27T10:40:26Z</time>
      </trkpt>
      <trkpt lat="45.33883" lon="6.63164">
        <ele>2142</ele>
        <time>2018-06-27T10:41:26Z</time>
      </trkpt>
      <trkpt lat="45.33863" lon="6.63182">
        <ele>2129</ele>
        <time>2018-06-27T10:42:26Z</time>
      </trkpt>
      <trkpt lat="45.33791" lon="6.63251">
        <ele>2127</ele>
        <time>2018-06-27T10:43:26Z</time>
      </trkpt>
      <trkpt lat="45.33794" lon="6.63266">
        <ele>2127</ele>
        <time>2018-06-27T10:44:26Z</time>
      </trkpt>
      <trkpt lat="45.33754" lon="6.63299">
        <ele>2127</ele>
        <time>2018-06-27T10:45:26Z</time>
      </trkpt>
      <trkpt lat="45.33763" lon="6.63321">
        <ele>2127</ele>
        <time>2018-06-27T10:46:26Z</time>
      </trkpt>
      <trkpt lat="45.33742" lon="6.63353">
        <ele>2127</ele>
        <time>2018-06-27T10:47:26Z</time>
      </trkpt>
      <trkpt lat="45.33723" lon="6.63422">
        <ele>2134</ele>
        <time>2018-06-27T10:48:26Z</time>
      </trkpt>
      <trkpt lat="45.33655" lon="6.63496">
        <ele>2136</ele>
        <time>2018-06-27T10:49:26Z</time>
      </trkpt>
      <trkpt lat="45.33609" lon="6.63501">
        <ele>2146</ele>
        <time>2018-06-27T10:50:26Z</time>
      </trkpt>
      <trkpt lat="45.33588" lon="6.63567">
        <ele>2156</ele>
        <time>2018-06-27T10:51:26Z</time>
      </trkpt>
      <trkpt lat="45.33549" lon="6.63583">
        <ele>2156</ele>
        <time>2018-06-27T10:52:26Z</time>
      </trkpt>
      <trkpt lat="45.3353" lon="6.63621">
        <ele>2172</ele>
        <time>2018-06-27T10:53:26Z</time>
      </trkpt>
      <trkpt lat="45.33495" lon="6.63628">
        <ele>2173</ele>
        <time>2018-06-27T10:54:26Z</time>
      </trkpt>
      <trkpt lat="45.33451" lon="6.6367">
        <ele>2196</ele>
        <time>2018-06-27T10:55:26Z</time>
      </trkpt>
      <trkpt lat="45.33486" lon="6.6368">
        <ele>2192</ele>
        <time>2018-06-27T10:56:26Z</time>
      </trkpt>
      <trkpt lat="45.3344" lon="6.63708">
        <ele>2203</ele>
        <time>2018-06-27T10:57:26Z</time>
      </trkpt>
      <trkpt lat="45.33465" lon="6.6374">
        <ele>2205</ele>
        <time>2018-06-27T10:58:26Z</time>
      </trkpt>
      <trkpt lat="45.33427" lon="6.63785">
        <ele>2228</ele>
        <time>2018-06-27T10:59:26Z</time>
      </trkpt>
      <trkpt lat="45.33391" lon="6.6383">
        <ele>2244</ele>
        <time>2018-06-27T11:00:26Z</time>
      </trkpt>
      <trkpt lat="45.33381" lon="6.63857">
        <ele>2261</ele>
        <time>2018-06-27T11:01:26Z</time>
      </trkpt>
      <trkpt lat="45.33347" lon="6.63881">
        <ele>2270</ele>
        <time>2018-06-27T11:02:26Z</time>
      </trkpt>
      <trkpt lat="45.33312" lon="6.63881">
        <ele>2288</ele>
        <time>2018-06-27T11:03:26Z</time>
      </trkpt>
      <trkpt lat="45.33337" lon="6.63931">
        <ele>2287</ele>
        <time>2018-06-27T11:04:26Z</time>
      </trkpt>
      <trkpt lat="45.33367" lon="6.6395">
        <ele>2283</ele>
        <time>2018-06-27T11:05:26Z</time>
      </trkpt>
      <trkpt lat="45.3336" lon="6.63991">
        <ele>2290</ele>
        <time>2018-06-27T11:06:26Z</time>
      </trkpt>
      <trkpt lat="45.3337" lon="6.64039">
        <ele>2302</ele>
        <time>2018-06-27T11:07:26Z</time>
      </trkpt>
      <trkpt lat="45.33346" lon="6.64066">
        <ele>2314</ele>
        <time>2018-06-27T11:08:26Z</time>
      </trkpt>
      <trkpt lat="45.33329" lon="6.64067">
        <ele>2331</ele>
        <time>2018-06-27T11:09:26Z</time>
      </trkpt>
      <trkpt lat="45.33343" lon="6.64093">
        <ele>2324</ele>
        <time>2018-06-27T11:10:26Z</time>
      </trkpt>
      <trkpt lat="45.33319" lon="6.64122">
        <ele>2340</ele>
        <time>2018-06-27T11:11:26Z</time>
      </trkpt>
      <trkpt lat="45.33296" lon="6.64216">
        <ele>2343</ele>
        <time>2018-06-27T11:12:26Z</time>
      </trkpt>
      <trkpt lat="45.33282" lon="6.64315">
        <ele>2345</ele>
        <time>2018-06-27T11:13:26Z</time>
      </trkpt>
      <trkpt lat="45.33252" lon="6.64427">
        <ele>2349</ele>
        <time>2018-06-27T11:14:26Z</time>
      </trkpt>
      <trkpt lat="45.33236" lon="6.6449">
        <ele>2354</ele>
        <time>2018-06-27T11:15:26Z</time>
      </trkpt>
      <trkpt lat="45.3322" lon="6.64555">
        <ele>2359</ele>
        <time>2018-06-27T11:16:26Z</time>
      </trkpt>
      <trkpt lat="45.33203" lon="6.64612">
        <ele>2361</ele>
        <time>2018-06-27T11:17:26Z</time>
      </trkpt>
      <trkpt lat="45.3317" lon="6.64699">
        <ele>2360</ele>
        <time>2018-06-27T11:18:26Z</time>
      </trkpt>
      <trkpt lat="45.33189" lon="6.64728">
        <ele>2359</ele>
        <time>2018-06-27T11:19:26Z</time>
      </trkpt>
      <trkpt lat="45.33234" lon="6.64714">
        <ele>2361</ele>
        <time>2018-06-27T11:20:26Z</time>
      </trkpt>
      <trkpt lat="45.33254" lon="6.64663">
        <ele>2365</ele>
        <time>2018-06-27T11:21:26Z</time>
      </trkpt>
      <trkpt lat="45.33268" lon="6.64673">
        <ele>2372</ele>
        <time>2018-06-27T11:22:26Z</time>
      </trkpt>
      <trkpt lat="45.33281" lon="6.64635">
        <ele>2372</ele>
        <time>2018-06-27T11:23:26Z</time>
      </trkpt>
      <trkpt lat="45.33325" lon="6.64624">
        <ele>2378</ele>
        <time>2018-06-27T11:24:26Z</time>
      </trkpt>
      <trkpt lat="45.33366" lon="6.64572">
        <ele>2387</ele>
        <time>2018-06-27T11:25:26Z</time>
      </trkpt>
      <trkpt lat="45.33372" lon="6.64609">
        <ele>2399</ele>
        <time>2018-06-27T11:26:26Z</time>
      </trkpt>
      <trkpt lat="45.33393" lon="6.64592">
        <ele>2402</ele>
        <time>2018-06-27T11:27:26Z</time>
      </trkpt>
      <trkpt lat="45.33387" lon="6.64631">
        <ele>2403</ele>
        <time>2018-06-27T11:28:26Z</time>
      </trkpt>
      <trkpt lat="45.33391" lon="6.64658">
        <ele>2407</ele>
        <time>2018-06-27T11:29:26Z</time>
      </trkpt>
      <trkpt lat="45.33424" lon="6.64655">
        <ele>2423</ele>
        <time>2018-06-27T11:30:26Z</time>
      </trkpt>
      <trkpt lat="45.33404" lon="6.64741">
        <ele>2431</ele>
        <time>2018-06-27T11:31:26Z</time>
      </trkpt>
      <trkpt lat="45.33396" lon="6.64839">
        <ele>2449</ele>
        <time>2018-06-27T11:32:26Z</time>
      </trkpt>
      <trkpt lat="45.33402" lon="6.64887">
        <ele>2453</ele>
        <time>2018-06-27T11:33:26Z</time>
      </trkpt>
      <trkpt lat="45.33394" lon="6.64958">
        <ele>2466</ele>
        <time>2018-06-27T11:34:26Z</time>
      </trkpt>
      <trkpt lat="45.33421" lon="6.64977">
        <ele>2494</ele>
        <time>2018-06-27T11:35:26Z</time>
      </trkpt>
      <trkpt lat="45.33421" lon="6.65081">
        <ele>2506</ele>
        <time>2018-06-27T11:36:26Z</time>
      </trkpt>
      <trkpt lat="45.33415" lon="6.65108">
        <ele>2500</ele>
        <time>2018-06-27T11:37:26Z</time>
      </trkpt>
      <trkpt lat="45.3339" lon="6.65194">
        <ele>2513</ele>
        <time>2018-06-27T11:38:26Z</time>
      </trkpt>
      <trkpt lat="45.33397" lon="6.65333">
        <ele>2528</ele>
        <time>2018-06-27T11:39:26Z</time>
      </trkpt>
      <trkpt lat="45.33434" lon="6.65381">
        <ele>2523</ele>
        <time>2018-06-27T11:40:26Z</time>
      </trkpt>
      <trkpt lat="45.33458" lon="6.65388">
        <ele>2521</ele>
        <time>2018-06-27T11:41:26Z</time>
      </trkpt>
      <trkpt lat="45.33467" lon="6.65412">
        <ele>2519</ele>
        <time>2018-06-27T11:42:26Z</time>
      </trkpt>
      <trkpt lat="45.33458" lon="6.65451">
        <ele>2512</ele>
        <time>2018-06-27T11:43:26Z</time>
      </trkpt>
      <trkpt lat="45.33469" lon="6.65485">
        <ele>2508</ele>
        <time>2018-06-27T11:44:26Z</time>
      </trkpt>
      <trkpt lat="45.33455" lon="6.65519">
        <ele>2508</ele>
        <time>2018-06-27T11:45:26Z</time>
      </trkpt>
      <trkpt lat="45.33478" lon="6.65542">
        <ele>2505</ele>
        <time>2018-06-27T11:46:26Z</time>
      </trkpt>
      <trkpt lat="45.33503" lon="6.65592">
        <ele>2494</ele>
        <time>2018-06-27T11:47:26Z</time>
      </trkpt>
      <trkpt lat="45.33522" lon="6.65601">
        <ele>2490</ele>
        <time>2018-06-27T11:48:26Z</time>
      </trkpt>
      <trkpt lat="45.33547" lon="6.65674">
        <ele>2500</ele>
        <time>2018-06-27T11:49:26Z</time>
      </trkpt>
      <trkpt lat="45.33589" lon="6.6569">
        <ele>2489</ele>
        <time>2018-06-27T11:50:26Z</time>
      </trkpt>
      <trkpt lat="45.33567" lon="6.65612">
        <ele>2481</ele>
        <time>2018-06-27T11:51:26Z</time>
      </trkpt>
      <trkpt lat="45.3361" lon="6.65614">
        <ele>2467</ele>
        <time>2018-06-27T11:52:26Z</time>
      </trkpt>
      <trkpt lat="45.33602" lon="6.65588">
        <ele>2465</ele>
        <time>2018-06-27T11:53:26Z</time>
      </trkpt>
      <trkpt lat="45.33614" lon="6.65588">
        <ele>2464</ele>
        <time>2018-06-27T11:54:26Z</time>
      </trkpt>
      <trkpt lat="45.33623" lon="6.65563">
        <ele>2452</ele>
        <time>2018-06-27T11:55:26Z</time>
      </trkpt>
      <trkpt lat="45.33641" lon="6.65528">
        <ele>2447</ele>
        <time>2018-06-27T11:56:26Z</time>
      </trkpt>
      <trkpt lat="45.33671" lon="6.65502">
        <ele>2435</ele>
        <time>2018-06-27T11:57:26Z</time>
      </trkpt>
      <trkpt lat="45.33696" lon="6.65451">
        <ele>2437</ele>
        <time>2018-06-27T11:58:26Z</time>
      </trkpt>
      <trkpt lat="45.33786" lon="6.65394">
        <ele>2431</ele>
        <time>2018-06-27T11:59:26Z</time>
      </trkpt>
      <trkpt lat="45.33886" lon="6.65316">
        <ele>2425</ele>
        <time>2018-06-27T12:00:26Z</time>
      </trkpt>
      <trkpt lat="45.33927" lon="6.65301">
        <ele>2421</ele>
        <time>2018-06-27T12:01:26Z</time>
      </trkpt>
      <trkpt lat="45.33963" lon="6.65283">
        <ele>2419</ele>
        <time>2018-06-27T12:02:26Z</time>
      </trkpt>
      <trkpt lat="45.3402" lon="6.65271">
        <ele>2410</ele>
        <time>2018-06-27T12:03:26Z</time>
      </trkpt>
      <trkpt lat="45.34085" lon="6.65217">
        <ele>2393</ele>
        <time>2018-06-27T12:04:26Z</time>
      </trkpt>
      <trkpt lat="45.3413" lon="6.65191">
        <ele>2390</ele>
        <time>2018-06-27T12:05:26Z</time>
      </trkpt>
      <trkpt lat="45.34191" lon="6.6515">
        <ele>2386</ele>
        <time>2018-06-27T12:06:26Z</time>
      </trkpt>
      <trkpt lat="45.34252" lon="6.65187">
        <ele>2382</ele>
        <time>2018-06-27T12:07:26Z</time>
      </trkpt>
      <trkpt lat="45.34316" lon="6.6517">
        <ele>2380</ele>
        <time>2018-06-27T12:08:26Z</time>
      </trkpt>
      <trkpt lat="45.34382" lon="6.65143">
        <ele>2374</ele>
        <time>2018-06-27T12:09:26Z</time>
      </trkpt>
      <trkpt lat="45.34419" lon="6.6513">
        <ele>2363</ele>
        <time>2018-06-27T12:10:26Z</time>
      </trkpt>
      <trkpt lat="45.34449" lon="6.6506">
        <ele>2361</ele>
        <time>2018-06-27T12:11:26Z</time>
      </trkpt>
      <trkpt lat="45.34477" lon="6.65044">
        <ele>2360</ele>
        <time>2018-06-27T12:12:26Z</time>
      </trkpt>
      <trkpt lat="45.34531" lon="6.65058">
        <ele>2354</ele>
        <time>2018-06-27T12:13:26Z</time>
      </trkpt>
      <trkpt lat="45.3459" lon="6.65063">
        <ele>2351</ele>
        <time>2018-06-27T12:14:26Z</time>
      </trkpt>
      <trkpt lat="45.34605" lon="6.65081">
        <ele>2350</ele>
        <time>2018-06-27T12:15:26Z</time>
      </trkpt>
      <trkpt lat="45.34621" lon="6.65067">
        <ele>2351</ele>
        <time>2018-06-27T12:16:26Z</time>
      </trkpt>
      <trkpt lat="45.34672" lon="6.65071">
        <ele>2344</ele>
        <time>2018-06-27T12:17:26Z</time>
      </trkpt>
      <trkpt lat="45.34684" lon="6.65072">
        <ele>2344</ele>
        <time>2018-06-27T12:18:26Z</time>
      </trkpt>
      <trkpt lat="45.34726" lon="6.65113">
        <ele>2335</ele>
        <time>2018-06-27T12:19:26Z</time>
      </trkpt>
      <trkpt lat="45.34782" lon="6.65123">
        <ele>2328</ele>
        <time>2018-06-27T12:20:26Z</time>
      </trkpt>
      <trkpt lat="45.34802" lon="6.65095">
        <ele>2329</ele>
        <time>2018-06-27T12:21:26Z</time>
      </trkpt>
      <trkpt lat="45.34827" lon="6.65109">
        <ele>2328</ele>
        <time>2018-06-27T12:22:26Z</time>
      </trkpt>
      <trkpt lat="45.3485" lon="6.65176">
        <ele>2319</ele>
        <time>2018-06-27T12:23:26Z</time>
      </trkpt>
      <trkpt lat="45.34867" lon="6.6513">
        <ele>2319</ele>
        <time>2018-06-27T12:24:26Z</time>
      </trkpt>
      <trkpt lat="45.34884" lon="6.6517">
        <ele>2314</ele>
        <time>2018-06-27T12:25:26Z</time>
      </trkpt>
      <trkpt lat="45.34913" lon="6.65169">
        <ele>2308</ele>
        <time>2018-06-27T12:26:26Z</time>
      </trkpt>
      <trkpt lat="45.3495" lon="6.65227">
        <ele>2299</ele>
        <time>2018-06-27T12:27:26Z</time>
      </trkpt>
      <trkpt lat="45.34984" lon="6.65202">
        <ele>2295</ele>
        <time>2018-06-27T12:28:26Z</time>
      </trkpt>
      <trkpt lat="45.35003" lon="6.65204">
        <ele>2291</ele>
        <time>2018-06-27T12:29:26Z</time>
      </trkpt>
      <trkpt lat="45.3501" lon="6.65183">
        <ele>2291</ele>
        <time>2018-06-27T12:30:26Z</time>
      </trkpt>
      <trkpt lat="45.35049" lon="6.65187">
        <ele>2294</ele>
        <time>2018-06-27T12:31:26Z</time>
      </trkpt>
      <trkpt lat="45.35052" lon="6.65204">
        <ele>2293</ele>
        <time>2018-06-27T12:32:26Z</time>
      </trkpt>
      <trkpt lat="45.35111" lon="6.65227">
        <ele>2300</ele>
        <time>2018-06-27T12:33:26Z</time>
      </trkpt>
      <trkpt lat="45.35149" lon="6.65209">
        <ele>2304</ele>
        <time>2018-06-27T12:34:26Z</time>
      </trkpt>
      <trkpt lat="45.352" lon="6.65196">
        <ele>2312</ele>
        <time>2018-06-27T12:35:26Z</time>
      </trkpt>
      <trkpt lat="45.35251" lon="6.65203">
        <ele>2320</ele>
        <time>2018-06-27T12:36:26Z</time>
      </trkpt>
      <trkpt lat="45.35318" lon="6.65169">
        <ele>2330</ele>
        <time>2018-06-27T12:37:26Z</time>
      </trkpt>
      <trkpt lat="45.35346" lon="6.65219">
        <ele>2339</ele>
        <time>2018-06-27T12:38:26Z</time>
      </trkpt>
      <trkpt lat="45.35353" lon="6.6519">
        <ele>2341</ele>
        <time>2018-06-27T12:39:26Z</time>
      </trkpt>
      <trkpt lat="45.35378" lon="6.65209">
        <ele>2345</ele>
        <time>2018-06-27T12:40:26Z</time>
      </trkpt>
      <trkpt lat="45.35386" lon="6.65163">
        <ele>2356</ele>
        <time>2018-06-27T12:41:26Z</time>
      </trkpt>
      <trkpt lat="45.35405" lon="6.65186">
        <ele>2352</ele>
        <time>2018-06-27T12:42:26Z</time>
      </trkpt>
      <trkpt lat="45.35414" lon="6.65141">
        <ele>2360</ele>
        <time>2018-06-27T12:43:26Z</time>
      </trkpt>
      <trkpt lat="45.35423" lon="6.65069">
        <ele>2387</ele>
        <time>2018-06-27T12:44:26Z</time>
      </trkpt>
      <trkpt lat="45.35438" lon="6.65051">
        <ele>2395</ele>
        <time>2018-06-27T12:45:26Z</time>
      </trkpt>
      <trkpt lat="45.35457" lon="6.65132">
        <ele>2385</ele>
        <time>2018-06-27T12:46:26Z</time>
      </trkpt>
      <trkpt lat="45.3546" lon="6.65171">
        <ele>2374</ele>
        <time>2018-06-27T12:47:26Z</time>
      </trkpt>
      <trkpt lat="45.35478" lon="6.65202">
        <ele>2374</ele>
        <time>2018-06-27T12:48:26Z</time>
      </trkpt>
      <trkpt lat="45.35505" lon="6.65204">
        <ele>2388</ele>
        <time>2018-06-27T12:49:26Z</time>
      </trkpt>
      <trkpt lat="45.35523" lon="6.65179">
        <ele>2392</ele>
        <time>2018-06-27T12:50:26Z</time>
      </trkpt>
      <trkpt lat="45.35576" lon="6.65202">
        <ele>2394</ele>
        <time>2018-06-27T12:51:26Z</time>
      </trkpt>
      <trkpt lat="45.35616" lon="6.65254">
        <ele>2383</ele>
        <time>2018-06-27T12:52:26Z</time>
      </trkpt>
      <trkpt lat="45.35649" lon="6.65285">
        <ele>2384</ele>
        <time>2018-06-27T12:53:26Z</time>
      </trkpt>
      <trkpt lat="45.35679" lon="6.65272">
        <ele>2399</ele>
        <time>2018-06-27T12:54:26Z</time>
      </trkpt>
      <trkpt lat="45.35713" lon="6.65281">
        <ele>2401</ele>
        <time>2018-06-27T12:55:26Z</time>
      </trkpt>
      <trkpt lat="45.35754" lon="6.65245">
        <ele>2411</ele>
        <time>2018-06-27T12:56:26Z</time>
      </trkpt>
      <trkpt lat="45.35766" lon="6.65211">
        <ele>2411</ele>
        <time>2018-06-27T12:57:26Z</time>
      </trkpt>
      <trkpt lat="45.35806" lon="6.65176">
        <ele>2410</ele>
        <time>2018-06-27T12:58:26Z</time>
      </trkpt>
      <trkpt lat="45.35826" lon="6.65152">
        <ele>2407</ele>
        <time>2018-06-27T12:59:26Z</time>
      </trkpt>
      <trkpt lat="45.35858" lon="6.65171">
        <ele>2408</ele>
        <time>2018-06-27T13:00:26Z</time>
      </trkpt>
      <trkpt lat="45.35882" lon="6.65157">
        <ele>2403</ele>
        <time>2018-06-27T13:01:26Z</time>
      </trkpt>
      <trkpt lat="45.3591" lon="6.65171">
        <ele>2405</ele>
        <time>2018-06-27T13:02:26Z</time>
      </trkpt>
      <trkpt lat="45.3591" lon="6.65141">
        <ele>2402</ele>
        <time>2018-06-27T13:03:26Z</time>
      </trkpt>
      <trkpt lat="45.35937" lon="6.65138">
        <ele>2401</ele>
        <time>2018-06-27T13:04:26Z</time>
      </trkpt>
      <trkpt lat="45.35946" lon="6.65159">
        <ele>2402</ele>
        <time>2018-06-27T13:05:26Z</time>
      </trkpt>
      <trkpt lat="45.35958" lon="6.65161">
        <ele>2402</ele>
        <time>2018-06-27T13:06:26Z</time>
      </trkpt>
      <trkpt lat="45.3597" lon="6.65257">
        <ele>2404</ele>
        <time>2018-06-27T13:07:26Z</time>
      </trkpt>
      <trkpt lat="45.35973" lon="6.6532">
        <ele>2401</ele>
        <time>2018-06-27T13:08:26Z</time>
      </trkpt>
      <trkpt lat="45.35991" lon="6.65342">
        <ele>2390</ele>
        <time>2018-06-27T13:09:26Z</time>
      </trkpt>
      <trkpt lat="45.35981" lon="6.65376">
        <ele>2382</ele>
        <time>2018-06-27T13:10:26Z</time>
      </trkpt>
      <trkpt lat="45.35925" lon="6.65423">
        <ele>2365</ele>
        <time>2018-06-27T13:11:26Z</time>
      </trkpt>
      <trkpt lat="45.35965" lon="6.65455">
        <ele>2357</ele>
        <time>2018-06-27T13:12:26Z</time>
      </trkpt>
      <trkpt lat="45.35967" lon="6.65481">
        <ele>2353</ele>
        <time>2018-06-27T13:13:26Z</time>
      </trkpt>
      <trkpt lat="45.3601" lon="6.65534">
        <ele>2340</ele>
        <time>2018-06-27T13:14:26Z</time>
      </trkpt>
      <trkpt lat="45.36066" lon="6.6555">
        <ele>2339</ele>
        <time>2018-06-27T13:15:26Z</time>
      </trkpt>
      <trkpt lat="45.36103" lon="6.65576">
        <ele>2339</ele>
        <time>2018-06-27T13:16:26Z</time>
      </trkpt>
      <trkpt lat="45.36103" lon="6.65613">
        <ele>2327</ele>
        <time>2018-06-27T13:17:26Z</time>
      </trkpt>
      <trkpt lat="45.36141" lon="6.65654">
        <ele>2322</ele>
        <time>2018-06-27T13:18:26Z</time>
      </trkpt>
      <trkpt lat="45.36139" lon="6.65712">
        <ele>2310</ele>
        <time>2018-06-27T13:19:26Z</time>
      </trkpt>
      <trkpt lat="45.36127" lon="6.65744">
        <ele>2308</ele>
        <time>2018-06-27T13:20:26Z</time>
      </trkpt>
      <trkpt lat="45.36127" lon="6.65778">
        <ele>2299</ele>
        <time>2018-06-27T13:21:26Z</time>
      </trkpt>
      <trkpt lat="45.36112" lon="6.658">
        <ele>2297</ele>
        <time>2018-06-27T13:22:26Z</time>
      </trkpt>
      <trkpt lat="45.361" lon="6.65833">
        <ele>2293</ele>
        <time>2018-06-27T13:23:26Z</time>
      </trkpt>
      <trkpt lat="45.36082" lon="6.65865">
        <ele>2290</ele>
        <time>2018-06-27T13:24:26Z</time>
      </trkpt>
      <trkpt lat="45.36083" lon="6.65911">
        <ele>2283</ele>
        <time>2018-06-27T13:25:26Z</time>
      </trkpt>
      <trkpt lat="45.36105" lon="6.65951">
        <ele>2279</ele>
        <time>2018-06-27T13:26:26Z</time>
      </trkpt>
      <trkpt lat="45.36108" lon="6.66022">
        <ele>2272</ele>
        <time>2018-06-27T13:27:26Z</time>
      </trkpt>
      <trkpt lat="45.36124" lon="6.66076">
        <ele>2267</ele>
        <time>2018-06-27T13:28:26Z</time>
      </trkpt>
      <trkpt lat="45.361" lon="6.66152">
        <ele>2260</ele>
        <time>2018-06-27T13:29:26Z</time>
      </trkpt>
      <trkpt lat="45.36162" lon="6.66244">
        <ele>2249</ele>
        <time>2018-06-27T13:30:26Z</time>
      </trkpt>
      <trkpt lat="45.36103" lon="6.66304">
        <ele>2239</ele>
        <time>2018-06-27T13:31:26Z</time>
      </trkpt>
      <trkpt lat="45.36039" lon="6.66261">
        <ele>2231</ele>
        <time>2018-06-27T13:32:26Z</time>
      </trkpt>
      <trkpt lat="45.35987" lon="6.66221">
        <ele>2230</ele>
        <time>2018-06-27T13:33:26Z</time>
      </trkpt>
      <trkpt lat="45.35961" lon="6.66215">
        <ele>2228</ele>
        <time>2018-06-27T13:34:26Z</time>
      </trkpt>
      <trkpt lat="45.35966" lon="6.6629">
        <ele>2214</ele>
        <time>2018-06-27T13:35:26Z</time>
      </trkpt>
      <trkpt lat="45.35999" lon="6.66401">
        <ele>2201</ele>
        <time>2018-06-27T13:36:26Z</time>
      </trkpt>
      <trkpt lat="45.36036" lon="6.66418">
        <ele>2197</ele>
        <time>2018-06-27T13:37:26Z</time>
      </trkpt>
      <trkpt lat="45.3606" lon="6.66481">
        <ele>2192</ele>
        <time>2018-06-27T13:38:26Z</time>
      </trkpt>
      <trkpt lat="45.36044" lon="6.66479">
        <ele>2193</ele>
        <time>2018-06-27T13:39:26Z</time>
      </trkpt>
      <trkpt lat="45.36044" lon="6.66565">
        <ele>2179</ele>
        <time>2018-06-27T13:40:26Z</time>
      </trkpt>
      <trkpt lat="45.36042" lon="6.66595">
        <ele>2175</ele>
        <time>2018-06-27T13:41:26Z</time>
      </trkpt>
      <trkpt lat="45.35988" lon="6.66606">
        <ele>2182</ele>
        <time>2018-06-27T13:42:26Z</time>
      </trkpt>
      <trkpt lat="45.35929" lon="6.66625">
        <ele>2184</ele>
        <time>2018-06-27T13:43:26Z</time>
      </trkpt>
      <trkpt lat="45.35886" lon="6.66608">
        <ele>2194</ele>
        <time>2018-06-27T13:44:26Z</time>
      </trkpt>
      <trkpt lat="45.35862" lon="6.66642">
        <ele>2196</ele>
        <time>2018-06-27T13:45:26Z</time>
      </trkpt>
      <trkpt lat="45.35889" lon="6.66704">
        <ele>2202</ele>
        <time>2018-06-27T13:46:26Z</time>
      </trkpt>
      <trkpt lat="45.35925" lon="6.66775">
        <ele>2209</ele>
        <time>2018-06-27T13:47:26Z</time>
      </trkpt>
      <trkpt lat="45.35935" lon="6.66848">
        <ele>2226</ele>
        <time>2018-06-27T13:48:26Z</time>
      </trkpt>
      <trkpt lat="45.35938" lon="6.66879">
        <ele>2229</ele>
        <time>2018-06-27T13:49:26Z</time>
      </trkpt>
      <trkpt lat="45.35896" lon="6.66912">
        <ele>2233</ele>
        <time>2018-06-27T13:50:26Z</time>
      </trkpt>
      <trkpt lat="45.35875" lon="6.66982">
        <ele>2244</ele>
        <time>2018-06-27T13:51:26Z</time>
      </trkpt>
      <trkpt lat="45.35881" lon="6.67057">
        <ele>2257</ele>
        <time>2018-06-27T13:52:26Z</time>
      </trkpt>
      <trkpt lat="45.35932" lon="6.67158">
        <ele>2270</ele>
        <time>2018-06-27T13:53:26Z</time>
      </trkpt>
      <trkpt lat="45.35919" lon="6.67212">
        <ele>2286</ele>
        <time>2018-06-27T13:54:26Z</time>
      </trkpt>
      <trkpt lat="45.35984" lon="6.67204">
        <ele>2290</ele>
        <time>2018-06-27T13:55:26Z</time>
      </trkpt>
      <trkpt lat="45.36022" lon="6.67147">
        <ele>2287</ele>
        <time>2018-06-27T13:56:26Z</time>
      </trkpt>
      <trkpt lat="45.36051" lon="6.67139">
        <ele>2289</ele>
        <time>2018-06-27T13:57:26Z</time>
      </trkpt>
      <trkpt lat="45.36091" lon="6.67125">
        <ele>2298</ele>
        <time>2018-06-27T13:58:26Z</time>
      </trkpt>
      <trkpt lat="45.36143" lon="6.67163">
        <ele>2305</ele>
        <time>2018-06-27T13:59:26Z</time>
      </trkpt>
      <trkpt lat="45.36158" lon="6.67124">
        <ele>2301</ele>
        <time>2018-06-27T14:00:26Z</time>
      </trkpt>
      <trkpt lat="45.36216" lon="6.67116">
        <ele>2309</ele>
        <time>2018-06-27T14:01:26Z</time>
      </trkpt>
      <trkpt lat="45.36241" lon="6.671">
        <ele>2307</ele>
        <time>2018-06-27T14:02:26Z</time>
      </trkpt>
      <trkpt lat="45.36253" lon="6.67121">
        <ele>2320</ele>
        <time>2018-06-27T14:03:26Z</time>
      </trkpt>
      <trkpt lat="45.36223" lon="6.67174">
        <ele>2328</ele>
        <time>2018-06-27T14:04:26Z</time>
      </trkpt>
      <trkpt lat="45.36186" lon="6.67188">
        <ele>2325</ele>
        <time>2018-06-27T14:05:26Z</time>
      </trkpt>
      <trkpt lat="45.36174" lon="6.6729">
        <ele>2350</ele>
        <time>2018-06-27T14:06:26Z</time>
      </trkpt>
      <trkpt lat="45.36134" lon="6.6738">
        <ele>2356</ele>
        <time>2018-06-27T14:07:26Z</time>
      </trkpt>
      <trkpt lat="45.36122" lon="6.67333">
        <ele>2341</ele>
        <time>2018-06-27T14:08:26Z</time>
      </trkpt>
      <trkpt lat="45.36107" lon="6.67319">
        <ele>2339</ele>
        <time>2018-06-27T14:09:26Z</time>
      </trkpt>
      <trkpt lat="45.36086" lon="6.67362">
        <ele>2351</ele>
        <time>2018-06-27T14:10:26Z</time>
      </trkpt>
      <trkpt lat="45.36032" lon="6.67432">
        <ele>2356</ele>
        <time>2018-06-27T14:11:26Z</time>
      </trkpt>
      <trkpt lat="45.35984" lon="6.67524">
        <ele>2370</ele>
        <time>2018-06-27T14:12:26Z</time>
      </trkpt>
      <trkpt lat="45.3595" lon="6.67504">
        <ele>2368</ele>
        <time>2018-06-27T14:13:26Z</time>
      </trkpt>
      <trkpt lat="45.35925" lon="6.67538">
        <ele>2370</ele>
        <time>2018-06-27T14:14:26Z</time>
      </trkpt>
      <trkpt lat="45.3595" lon="6.67594">
        <ele>2382</ele>
        <time>2018-06-27T14:15:26Z</time>
      </trkpt>
      <trkpt lat="45.35877" lon="6.6767">
        <ele>2389</ele>
        <time>2018-06-27T14:16:26Z</time>
      </trkpt>
      <trkpt lat="45.35879" lon="6.67828">
        <ele>2404</ele>
        <time>2018-06-27T14:17:26Z</time>
      </trkpt>
      <trkpt lat="45.35872" lon="6.67887">
        <ele>2419</ele>
        <time>2018-06-27T14:18:26Z</time>
      </trkpt>
      <trkpt lat="45.35877" lon="6.67942">
        <ele>2434</ele>
        <time>2018-06-27T14:19:26Z</time>
      </trkpt>
      <trkpt lat="45.35844" lon="6.67971">
        <ele>2439</ele>
        <time>2018-06-27T14:20:26Z</time>
      </trkpt>
      <trkpt lat="45.35789" lon="6.67979">
        <ele>2447</ele>
        <time>2018-06-27T14:21:26Z</time>
      </trkpt>
      <trkpt lat="45.35739" lon="6.68028">
        <ele>2463</ele>
        <time>2018-06-27T14:22:26Z</time>
      </trkpt>
      <trkpt lat="45.35657" lon="6.68105">
        <ele>2480</ele>
        <time>2018-06-27T14:23:26Z</time>
      </trkpt>
      <trkpt lat="45.35604" lon="6.68127">
        <ele>2485</ele>
        <time>2018-06-27T14:24:26Z</time>
      </trkpt>
      <trkpt lat="45.35585" lon="6.68146">
        <ele>2488</ele>
        <time>2018-06-27T14:25:26Z</time>
      </trkpt>
      <trkpt lat="45.35542" lon="6.68152">
        <ele>2478</ele>
        <time>2018-06-27T14:26:26Z</time>
      </trkpt>
      <trkpt lat="45.35538" lon="6.68178">
        <ele>2495</ele>
        <time>2018-06-27T14:27:26Z</time>
      </trkpt>
      <trkpt lat="45.35489" lon="6.682">
        <ele>2491</ele>
        <time>2018-06-27T14:28:26Z</time>
      </trkpt>
      <trkpt lat="45.35422" lon="6.68241">
        <ele>2507</ele>
        <time>2018-06-27T14:29:26Z</time>
      </trkpt>
      <trkpt lat="45.35404" lon="6.68251">
        <ele>2519</ele>
        <time>2018-06-27T14:30:26Z</time>
      </trkpt>
      <trkpt lat="45.35377" lon="6.68241">
        <ele>2498</ele>
        <time>2018-06-27T14:31:26Z</time>
      </trkpt>
      <trkpt lat="45.35327" lon="6.6829">
        <ele>2514</ele>
        <time>2018-06-27T14:32:26Z</time>
      </trkpt>
      <trkpt lat="45.3535" lon="6.68384">
        <ele>2526</ele>
        <time>2018-06-27T14:33:26Z</time>
      </trkpt>
      <trkpt lat="45.35351" lon="6.6844">
        <ele>2518</ele>
        <time>2018-06-27T14:34:26Z</time>
      </trkpt>
      <trkpt lat="45.3535" lon="6.68466">
        <ele>2517</ele>
        <time>2018-06-27T14:35:26Z</time>
      </trkpt>
      <trkpt lat="45.35351" lon="6.68499">
        <ele>2511</ele>
        <time>2018-06-27T14:36:26Z</time>
      </trkpt>
      <trkpt lat="45.35321" lon="6.68465">
        <ele>2487</ele>
        <time>2018-06-27T14:37:26Z</time>
      </trkpt>
      <trkpt lat="45.35315" lon="6.68426">
        <ele>2492</ele>
        <time>2018-06-27T14:38:26Z</time>
      </trkpt>
      <trkpt lat="45.35303" lon="6.68486">
        <ele>2484</ele>
        <time>2018-06-27T14:39:26Z</time>
      </trkpt>
      <trkpt lat="45.3529" lon="6.68491">
        <ele>2479</ele>
        <time>2018-06-27T14:40:26Z</time>
      </trkpt>
      <trkpt lat="45.35294" lon="6.68513">
        <ele>2479</ele>
        <time>2018-06-27T14:41:26Z</time>
      </trkpt>
      <trkpt lat="45.35226" lon="6.68553">
        <ele>2449</ele>
        <time>2018-06-27T14:42:26Z</time>
      </trkpt>
      <trkpt lat="45.35193" lon="6.68612">
        <ele>2439</ele>
        <time>2018-06-27T14:43:26Z</time>
      </trkpt>
      <trkpt lat="45.35135" lon="6.68656">
        <ele>2418</ele>
        <time>2018-06-27T14:44:26Z</time>
      </trkpt>
      <trkpt lat="45.35127" lon="6.68689">
        <ele>2409</ele>
        <time>2018-06-27T14:45:26Z</time>
      </trkpt>
      <trkpt lat="45.35136" lon="6.68714">
        <ele>2407</ele>
        <time>2018-06-27T14:46:26Z</time>
      </trkpt>
      <trkpt lat="45.35112" lon="6.6872">
        <ele>2404</ele>
        <time>2018-06-27T14:47:26Z</time>
      </trkpt>
      <trkpt lat="45.35094" lon="6.68719">
        <ele>2402</ele>
        <time>2018-06-27T14:48:26Z</time>
      </trkpt>
      <trkpt lat="45.35056" lon="6.68765">
        <ele>2385</ele>
        <time>2018-06-27T14:49:26Z</time>
      </trkpt>
      <trkpt lat="45.35038" lon="6.68796">
        <ele>2383</ele>
        <time>2018-06-27T14:50:26Z</time>
      </trkpt>
      <trkpt lat="45.35015" lon="6.68848">
        <ele>2369</ele>
        <time>2018-06-27T14:51:26Z</time>
      </trkpt>
      <trkpt lat="45.3503" lon="6.689">
        <ele>2361</ele>
        <time>2018-06-27T14:52:26Z</time>
      </trkpt>
      <trkpt lat="45.34991" lon="6.68865">
        <ele>2353</ele>
        <time>2018-06-27T14:53:26Z</time>
      </trkpt>
      <trkpt lat="45.34959" lon="6.68853">
        <ele>2348</ele>
        <time>2018-06-27T14:54:26Z</time>
      </trkpt>
      <trkpt lat="45.3493" lon="6.68821">
        <ele>2355</ele>
        <time>2018-06-27T14:55:26Z</time>
      </trkpt>
      <trkpt lat="45.34898" lon="6.68812">
        <ele>2343</ele>
        <time>2018-06-27T14:56:26Z</time>
      </trkpt>
      <trkpt lat="45.34918" lon="6.68834">
        <ele>2342</ele>
        <time>2018-06-27T14:57:26Z</time>
      </trkpt>
      <trkpt lat="45.3487" lon="6.68831">
        <ele>2337</ele>
        <time>2018-06-27T14:58:26Z</time>
      </trkpt>
      <trkpt lat="45.34854" lon="6.68853">
        <ele>2320</ele>
        <time>2018-06-27T14:59:26Z</time>
      </trkpt>
      <trkpt lat="45.34812" lon="6.68852">
        <ele>2303</ele>
        <time>2018-06-27T15:00:26Z</time>
      </trkpt>
      <trkpt lat="45.34803" lon="6.68876">
        <ele>2297</ele>
        <time>2018-06-27T15:01:26Z</time>
      </trkpt>
      <trkpt lat="45.34832" lon="6.68912">
        <ele>2297</ele>
        <time>2018-06-27T15:02:26Z</time>
      </trkpt>
      <trkpt lat="45.34852" lon="6.68908">
        <ele>2310</ele>
        <time>2018-06-27T15:03:26Z</time>
      </trkpt>
      <trkpt lat="45.34855" lon="6.68925">
        <ele>2296</ele>
        <time>2018-06-27T15:04:26Z</time>
      </trkpt>
      <trkpt lat="45.34877" lon="6.68937">
        <ele>2297</ele>
        <time>2018-06-27T15:05:26Z</time>
      </trkpt>
      <trkpt lat="45.34858" lon="6.68956">
        <ele>2292</ele>
        <time>2018-06-27T15:06:26Z</time>
      </trkpt>
      <trkpt lat="45.34839" lon="6.68951">
        <ele>2291</ele>
        <time>2018-06-27T15:07:26Z</time>
      </trkpt>
      <trkpt lat="45.34852" lon="6.68978">
        <ele>2285</ele>
        <time>2018-06-27T15:08:26Z</time>
      </trkpt>
      <trkpt lat="45.34794" lon="6.68952">
        <ele>2267</ele>
        <time>2018-06-27T15:09:26Z</time>
      </trkpt>
      <trkpt lat="45.34734" lon="6.68928">
        <ele>2250</ele>
        <time>2018-06-27T15:10:26Z</time>
      </trkpt>
      <trkpt lat="45.347" lon="6.68898">
        <ele>2256</ele>
        <time>2018-06-27T15:11:26Z</time>
      </trkpt>
      <trkpt lat="45.34729" lon="6.6897">
        <ele>2237</ele>
        <time>2018-06-27T15:12:26Z</time>
      </trkpt>
      <trkpt lat="45.34738" lon="6.69005">
        <ele>2224</ele>
        <time>2018-06-27T15:13:26Z</time>
      </trkpt>
      <trkpt lat="45.34788" lon="6.69044">
        <ele>2231</ele>
        <time>2018-06-27T15:14:26Z</time>
      </trkpt>
      <trkpt lat="45.34815" lon="6.69121">
        <ele>2201</ele>
        <time>2018-06-27T15:15:26Z</time>
      </trkpt>
      <trkpt lat="45.34803" lon="6.69125">
        <ele>2199</ele>
        <time>2018-06-27T15:16:26Z</time>
      </trkpt>
      <trkpt lat="45.34771" lon="6.69094">
        <ele>2202</ele>
        <time>2018-06-27T15:17:26Z</time>
      </trkpt>
      <trkpt lat="45.34751" lon="6.69097">
        <ele>2202</ele>
        <time>2018-06-27T15:18:26Z</time>
      </trkpt>
      <trkpt lat="45.34721" lon="6.6908">
        <ele>2205</ele>
        <time>2018-06-27T15:19:26Z</time>
      </trkpt>
      <trkpt lat="45.34673" lon="6.691">
        <ele>2179</ele>
        <time>2018-06-27T15:20:26Z</time>
      </trkpt>
      <trkpt lat="45.34647" lon="6.69073">
        <ele>2179</ele>
        <time>2018-06-27T15:21:26Z</time>
      </trkpt>
      <trkpt lat="45.34619" lon="6.69062">
        <ele>2173</ele>
        <time>2018-06-27T15:22:26Z</time>
      </trkpt>
      <trkpt lat="45.3457" lon="6.68989">
        <ele>2170</ele>
        <time>2018-06-27T15:23:26Z</time>
      </trkpt>
      <trkpt lat="45.34508" lon="6.68953">
        <ele>2162</ele>
        <time>2018-06-27T15:24:26Z</time>
      </trkpt>
      <trkpt lat="45.34447" lon="6.68922">
        <ele>2134</ele>
        <time>2018-06-27T15:25:26Z</time>
      </trkpt>
      <trkpt lat="45.3438" lon="6.68905">
        <ele>2116</ele>
        <time>2018-06-27T15:26:26Z</time>
      </trkpt>
      <trkpt lat="45.34389" lon="6.68862">
        <ele>2124</ele>
        <time>2018-06-27T15:27:26Z</time>
      </trkpt>
      <trkpt lat="45.34334" lon="6.68809">
        <ele>2131</ele>
        <time>2018-06-27T15:28:26Z</time>
      </trkpt>
      <trkpt lat="45.34284" lon="6.68771">
        <ele>2110</ele>
        <time>2018-06-27T15:29:26Z</time>
      </trkpt>
      <trkpt lat="45.34211" lon="6.68735">
        <ele>2109</ele>
        <time>2018-06-27T15:30:26Z</time>
      </trkpt>
      <trkpt lat="45.34131" lon="6.68721">
        <ele>2088</ele>
        <time>2018-06-27T15:31:26Z</time>
      </trkpt>
      <trkpt lat="45.34054" lon="6.68715">
        <ele>2068</ele>
        <time>2018-06-27T15:32:26Z</time>
      </trkpt>
      <trkpt lat="45.33974" lon="6.68699">
        <ele>2051</ele>
        <time>2018-06-27T15:33:26Z</time>
      </trkpt>
      <trkpt lat="45.33867" lon="6.68637">
        <ele>2051</ele>
        <time>2018-06-27T15:34:26Z</time>
      </trkpt>
      <trkpt lat="45.33756" lon="6.6867">
        <ele>2019</ele>
        <time>2018-06-27T15:35:26Z</time>
      </trkpt>
      <trkpt lat="45.3373" lon="6.68681">
        <ele>2012</ele>
        <time>2018-06-27T15:36:26Z</time>
      </trkpt>
      <trkpt lat="45.33637" lon="6.68707">
        <ele>2002</ele>
        <time>2018-06-27T15:37:26Z</time>
      </trkpt>
      <trkpt lat="45.33576" lon="6.68732">
        <ele>1984</ele>
        <time>2018-06-27T15:38:26Z</time>
      </trkpt>
      <trkpt lat="45.336" lon="6.68762">
        <ele>1972</ele>
        <time>2018-06-27T15:39:26Z</time>
      </trkpt>
      <trkpt lat="45.3357" lon="6.68774">
        <ele>1960</ele>
        <time>2018-06-27T15:40:26Z</time>
      </trkpt>
      <trkpt lat="45.33541" lon="6.68741">
        <ele>1982</ele>
        <time>2018-06-27T15:41:26Z</time>
      </trkpt>
      <trkpt lat="45.3348" lon="6.68759">
        <ele>1953</ele>
        <time>2018-06-27T15:42:26Z</time>
      </trkpt>
      <trkpt lat="45.33432" lon="6.68822">
        <ele>1939</ele>
        <time>2018-06-27T15:43:26Z</time>
      </trkpt>
      <trkpt lat="45.3342" lon="6.68846">
        <ele>1922</ele>
        <time>2018-06-27T15:44:26Z</time>
      </trkpt>
      <trkpt lat="45.33336" lon="6.68841">
        <ele>1924</ele>
        <time>2018-06-27T15:45:26Z</time>
      </trkpt>
      <trkpt lat="45.33281" lon="6.689">
        <ele>1910</ele>
        <time>2018-06-27T15:46:26Z</time>
      </trkpt>
      <trkpt lat="45.3322" lon="6.68928">
        <ele>1894</ele>
        <time>2018-06-27T15:47:26Z</time>
      </trkpt>
      <trkpt lat="45.33169" lon="6.69">
        <ele>1883</ele>
        <time>2018-06-27T15:48:26Z</time>
      </trkpt>
      <trkpt lat="45.33124" lon="6.69005">
        <ele>1883</ele>
        <time>2018-06-27T15:49:26Z</time>
      </trkpt>
      <trkpt lat="45.33054" lon="6.69006">
        <ele>1891</ele>
        <time>2018-06-27T15:50:26Z</time>
      </trkpt>
      <trkpt lat="45.33008" lon="6.69003">
        <ele>1896</ele>
        <time>2018-06-27T15:51:26Z</time>
      </trkpt>
      <trkpt lat="45.32915" lon="6.68994">
        <ele>1910</ele>
        <time>2018-06-27T15:52:26Z</time>
      </trkpt>
      <trkpt lat="45.32853" lon="6.68989">
        <ele>1917</ele>
        <time>2018-06-27T15:53:26Z</time>
      </trkpt>
      <trkpt lat="45.328" lon="6.68968">
        <ele>1921</ele>
        <time>2018-06-27T15:54:26Z</time>
      </trkpt>
      <trkpt lat="45.32766" lon="6.69021">
        <ele>1917</ele>
        <time>2018-06-27T15:55:26Z</time>
      </trkpt>
      <trkpt lat="45.32753" lon="6.6908">
        <ele>1917</ele>
        <time>2018-06-27T15:56:26Z</time>
      </trkpt>
      <trkpt lat="45.3271" lon="6.69123">
        <ele>1911</ele>
        <time>2018-06-27T15:57:26Z</time>
      </trkpt>
      <trkpt lat="45.32678" lon="6.69222">
        <ele>1899</ele>
        <time>2018-06-27T15:58:26Z</time>
      </trkpt>
      <trkpt lat="45.32754" lon="6.69286">
        <ele>1890</ele>
        <time>2018-06-27T15:59:26Z</time>
      </trkpt>
      <trkpt lat="45.32781" lon="6.69246">
        <ele>1895</ele>
        <time>2018-06-27T16:00:26Z</time>
      </trkpt>
      <trkpt lat="45.32797" lon="6.69266">
        <ele>1890</ele>
        <time>2018-06-27T16:01:26Z</time>
      </trkpt>
      <trkpt lat="45.32793" lon="6.69292">
        <ele>1890</ele>
        <time>2018-06-27T16:02:26Z</time>
      </trkpt>
      <trkpt lat="45.32822" lon="6.69279">
        <ele>1890</ele>
        <time>2018-06-27T16:03:26Z</time>
      </trkpt>
      <trkpt lat="45.32857" lon="6.69322">
        <ele>1896</ele>
        <time>2018-06-27T16:04:26Z</time>
      </trkpt>
      <trkpt lat="45.32874" lon="6.69416">
        <ele>1905</ele>
        <time>2018-06-27T16:05:26Z</time>
      </trkpt>
      <trkpt lat="45.32882" lon="6.69489">
        <ele>1920</ele>
        <time>2018-06-27T16:06:26Z</time>
      </trkpt>
      <trkpt lat="45.32948" lon="6.69489">
        <ele>1926</ele>
        <time>2018-06-27T16:07:26Z</time>
      </trkpt>
      <trkpt lat="45.32999" lon="6.69462">
        <ele>1926</ele>
        <time>2018-06-27T16:08:26Z</time>
      </trkpt>
      <trkpt lat="45.33101" lon="6.69453">
        <ele>1949</ele>
        <time>2018-06-27T16:09:26Z</time>
      </trkpt>
      <trkpt lat="45.33051" lon="6.6953">
        <ele>1965</ele>
        <time>2018-06-27T16:10:26Z</time>
      </trkpt>
      <trkpt lat="45.33104" lon="6.69546">
        <ele>1978</ele>
        <time>2018-06-27T16:11:26Z</time>
      </trkpt>
      <trkpt lat="45.33164" lon="6.6956">
        <ele>1984</ele>
        <time>2018-06-27T16:12:26Z</time>
      </trkpt>
      <trkpt lat="45.33199" lon="6.69566">
        <ele>1986</ele>
        <time>2018-06-27T16:13:26Z</time>
      </trkpt>
      <trkpt lat="45.33235" lon="6.69617">
        <ele>2005</ele>
        <time>2018-06-27T16:14:26Z</time>
      </trkpt>
      <trkpt lat="45.33184" lon="6.69646">
        <ele>2011</ele>
        <time>2018-06-27T16:15:26Z</time>
      </trkpt>
      <trkpt lat="45.33176" lon="6.69741">
        <ele>2032</ele>
        <time>2018-06-27T16:16:26Z</time>
      </trkpt>
      <trkpt lat="45.33155" lon="6.69779">
        <ele>2042</ele>
        <time>2018-06-27T16:17:26Z</time>
      </trkpt>
      <trkpt lat="45.33104" lon="6.69788">
        <ele>2044</ele>
        <time>2018-06-27T16:18:26Z</time>
      </trkpt>
      <trkpt lat="45.33052" lon="6.69861">
        <ele>2063</ele>
        <time>2018-06-27T16:19:26Z</time>
      </trkpt>
      <trkpt lat="45.33072" lon="6.6991">
        <ele>2069</ele>
        <time>2018-06-27T16:20:26Z</time>
      </trkpt>
      <trkpt lat="45.33104" lon="6.69932">
        <ele>2074</ele>
        <time>2018-06-27T16:21:26Z</time>
      </trkpt>
      <trkpt lat="45.33133" lon="6.69985">
        <ele>2077</ele>
        <time>2018-06-27T16:22:26Z</time>
      </trkpt>
      <trkpt lat="45.33161" lon="6.70026">
        <ele>2085</ele>
        <time>2018-06-27T16:23:26Z</time>
      </trkpt>
      <trkpt lat="45.33134" lon="6.70072">
        <ele>2089</ele>
        <time>2018-06-27T16:24:26Z</time>
      </trkpt>
      <trkpt lat="45.33165" lon="6.70151">
        <ele>2109</ele>
        <time>2018-06-27T16:25:26Z</time>
      </trkpt>
      <trkpt lat="45.3324" lon="6.70148">
        <ele>2109</ele>
        <time>2018-06-27T16:26:26Z</time>
      </trkpt>
      <trkpt lat="45.33301" lon="6.70193">
        <ele>2123</ele>
        <time>2018-06-27T16:27:26Z</time>
      </trkpt>
      <trkpt lat="45.33324" lon="6.70249">
        <ele>2133</ele>
        <time>2018-06-27T16:28:26Z</time>
      </trkpt>
      <trkpt lat="45.33385" lon="6.70304">
        <ele>2143</ele>
        <time>2018-06-27T16:29:26Z</time>
      </trkpt>
      <trkpt lat="45.33403" lon="6.70341">
        <ele>2158</ele>
        <time>2018-06-27T16:30:26Z</time>
      </trkpt>
      <trkpt lat="45.3342" lon="6.70368">
        <ele>2158</ele>
        <time>2018-06-27T16:31:26Z</time>
      </trkpt>
      <trkpt lat="45.33446" lon="6.70453">
        <ele>2179</ele>
        <time>2018-06-27T16:32:26Z</time>
      </trkpt>
      <trkpt lat="45.33494" lon="6.70501">
        <ele>2188</ele>
        <time>2018-06-27T16:33:26Z</time>
      </trkpt>
      <trkpt lat="45.33551" lon="6.70598">
        <ele>2208</ele>
        <time>2018-06-27T16:34:26Z</time>
      </trkpt>
      <trkpt lat="45.33616" lon="6.70665">
        <ele>2198</ele>
        <time>2018-06-27T16:35:26Z</time>
      </trkpt>
      <trkpt lat="45.33677" lon="6.70659">
        <ele>2186</ele>
        <time>2018-06-27T16:36:26Z</time>
      </trkpt>
      <trkpt lat="45.33695" lon="6.70674">
        <ele>2193</ele>
        <time>2018-06-27T16:37:26Z</time>
      </trkpt>
      <trkpt lat="45.33761" lon="6.70649">
        <ele>2176</ele>
        <time>2018-06-27T16:38:26Z</time>
      </trkpt>
      <trkpt lat="45.33835" lon="6.70702">
        <ele>2166</ele>
        <time>2018-06-27T16:39:26Z</time>
      </trkpt>
      <trkpt lat="45.33908" lon="6.70755">
        <ele>2165</ele>
        <time>2018-06-27T16:40:26Z</time>
      </trkpt>
      <trkpt lat="45.33952" lon="6.70799">
        <ele>2156</ele>
        <time>2018-06-27T16:41:26Z</time>
      </trkpt>
      <trkpt lat="45.33969" lon="6.70832">
        <ele>2156</ele>
        <time>2018-06-27T16:42:26Z</time>
      </trkpt>
      <trkpt lat="45.34034" lon="6.70879">
        <ele>2144</ele>
        <time>2018-06-27T16:43:26Z</time>
      </trkpt>
      <trkpt lat="45.34046" lon="6.70906">
        <ele>2142</ele>
        <time>2018-06-27T16:44:26Z</time>
      </trkpt>
      <trkpt lat="45.34039" lon="6.70941">
        <ele>2152</ele>
        <time>2018-06-27T16:45:26Z</time>
      </trkpt>
      <trkpt lat="45.34075" lon="6.71032">
        <ele>2153</ele>
        <time>2018-06-27T16:46:26Z</time>
      </trkpt>
      <trkpt lat="45.34087" lon="6.71092">
        <ele>2145</ele>
        <time>2018-06-27T16:47:26Z</time>
      </trkpt>
      <trkpt lat="45.34145" lon="6.71166">
        <ele>2139</ele>
        <time>2018-06-27T16:48:26Z</time>
      </trkpt>
      <trkpt lat="45.34214" lon="6.71225">
        <ele>2146</ele>
        <time>2018-06-27T16:49:26Z</time>
      </trkpt>
      <trkpt lat="45.34261" lon="6.71269">
        <ele>2152</ele>
        <time>2018-06-27T16:50:26Z</time>
      </trkpt>
      <trkpt lat="45.34283" lon="6.71263">
        <ele>2151</ele>
        <time>2018-06-27T16:51:26Z</time>
      </trkpt>
      <trkpt lat="45.34297" lon="6.71318">
        <ele>2155</ele>
        <time>2018-06-27T16:52:26Z</time>
      </trkpt>
      <trkpt lat="45.34285" lon="6.71369">
        <ele>2162</ele>
        <time>2018-06-27T16:53:26Z</time>
      </trkpt>
      <trkpt lat="45.34257" lon="6.71395">
        <ele>2167</ele>
        <time>2018-06-27T16:54:26Z</time>
      </trkpt>
      <trkpt lat="45.34253" lon="6.71447">
        <ele>2161</ele>
        <time>2018-06-27T16:55:26Z</time>
      </trkpt>
      <trkpt lat="45.34234" lon="6.71513">
        <ele>2178</ele>
        <time>2018-06-27T16:56:26Z</time>
      </trkpt>
      <trkpt lat="45.34222" lon="6.71563">
        <ele>2179</ele>
        <time>2018-06-27T16:57:26Z</time>
      </trkpt>
      <trkpt lat="45.342" lon="6.71654">
        <ele>2176</ele>
        <time>2018-06-27T16:58:26Z</time>
      </trkpt>
      <trkpt lat="45.34197" lon="6.7172">
        <ele>2171</ele>
        <time>2018-06-27T16:59:26Z</time>
      </trkpt>
      <trkpt lat="45.34167" lon="6.71794">
        <ele>2171</ele>
        <time>2018-06-27T17:00:26Z</time>
      </trkpt>
      <trkpt lat="45.34145" lon="6.71846">
        <ele>2188</ele>
        <time>2018-06-27T17:01:26Z</time>
      </trkpt>
      <trkpt lat="45.34137" lon="6.71864">
        <ele>2191</ele>
        <time>2018-06-27T17:02:26Z</time>
      </trkpt>
      <trkpt lat="45.34154" lon="6.71919">
        <ele>2189</ele>
        <time>2018-06-27T17:03:26Z</time>
      </trkpt>
      <trkpt lat="45.34156" lon="6.71979">
        <ele>2197</ele>
        <time>2018-06-27T17:04:26Z</time>
      </trkpt>
      <trkpt lat="45.34191" lon="6.72019">
        <ele>2197</ele>
        <time>2018-06-27T17:05:26Z</time>
      </trkpt>
      <trkpt lat="45.3422" lon="6.71993">
        <ele>2186</ele>
        <time>2018-06-27T17:06:26Z</time>
      </trkpt>
      <trkpt lat="45.34259" lon="6.72007">
        <ele>2194</ele>
        <time>2018-06-27T17:07:26Z</time>
      </trkpt>
      <trkpt lat="45.34295" lon="6.72011">
        <ele>2199</ele>
        <time>2018-06-27T17:08:26Z</time>
      </trkpt>
      <trkpt lat="45.34288" lon="6.72054">
        <ele>2204</ele>
        <time>2018-06-27T17:09:26Z</time>
      </trkpt>
      <trkpt lat="45.34282" lon="6.72101">
        <ele>2221</ele>
        <time>2018-06-27T17:10:26Z</time>
      </trkpt>
      <trkpt lat="45.34336" lon="6.72085">
        <ele>2227</ele>
        <time>2018-06-27T17:11:26Z</time>
      </trkpt>
      <trkpt lat="45.34314" lon="6.7219">
        <ele>2251</ele>
        <time>2018-06-27T17:12:26Z</time>
      </trkpt>
      <trkpt lat="45.34306" lon="6.72246">
        <ele>2259</ele>
        <time>2018-06-27T17:13:26Z</time>
      </trkpt>
      <trkpt lat="45.34295" lon="6.72264">
        <ele>2272</ele>
        <time>2018-06-27T17:14:26Z</time>
      </trkpt>
      <trkpt lat="45.34299" lon="6.72298">
        <ele>2277</ele>
        <time>2018-06-27T17:15:26Z</time>
      </trkpt>
      <trkpt lat="45.343" lon="6.7234">
        <ele>2298</ele>
        <time>2018-06-27T17:16:26Z</time>
      </trkpt>
      <trkpt lat="45.343" lon="6.7238">
        <ele>2302</ele>
        <time>2018-06-27T17:17:26Z</time>
      </trkpt>
      <trkpt lat="45.34304" lon="6.72422">
        <ele>2321</ele>
        <time>2018-06-27T17:18:26Z</time>
      </trkpt>
      <trkpt lat="45.34315" lon="6.72501">
        <ele>2343</ele>
        <time>2018-06-27T17:19:26Z</time>
      </trkpt>
      <trkpt lat="45.34354" lon="6.72434">
        <ele>2347</ele>
        <time>2018-06-27T17:20:26Z</time>
      </trkpt>
      <trkpt lat="45.34371" lon="6.72466">
        <ele>2356</ele>
        <time>2018-06-27T17:21:26Z</time>
      </trkpt>
      <trkpt lat="45.34421" lon="6.72436">
        <ele>2386</ele>
        <time>2018-06-27T17:22:26Z</time>
      </trkpt>
      <trkpt lat="45.34426" lon="6.72497">
        <ele>2391</ele>
        <time>2018-06-27T17:23:26Z</time>
      </trkpt>
      <trkpt lat="45.34465" lon="6.72463">
        <ele>2402</ele>
        <time>2018-06-27T17:24:26Z</time>
      </trkpt>
      <trkpt lat="45.34494" lon="6.7241">
        <ele>2402</ele>
        <time>2018-06-27T17:25:26Z</time>
      </trkpt>
      <trkpt lat="45.34526" lon="6.7234">
        <ele>2418</ele>
        <time>2018-06-27T17:26:26Z</time>
      </trkpt>
      <trkpt lat="45.34554" lon="6.72337">
        <ele>2429</ele>
        <time>2018-06-27T17:27:26Z</time>
      </trkpt>
      <trkpt lat="45.34585" lon="6.72298">
        <ele>2437</ele>
        <time>2018-06-27T17:28:26Z</time>
      </trkpt>
      <trkpt lat="45.34586" lon="6.72343">
        <ele>2450</ele>
        <time>2018-06-27T17:29:26Z</time>
      </trkpt>
      <trkpt lat="45.34648" lon="6.72267">
        <ele>2444</ele>
        <time>2018-06-27T17:30:26Z</time>
      </trkpt>
      <trkpt lat="45.34653" lon="6.72298">
        <ele>2450</ele>
        <time>2018-06-27T17:31:26Z</time>
      </trkpt>
      <trkpt lat="45.34669" lon="6.72286">
        <ele>2472</ele>
        <time>2018-06-27T17:32:26Z</time>
      </trkpt>
      <trkpt lat="45.3467" lon="6.72324">
        <ele>2477</ele>
        <time>2018-06-27T17:33:26Z</time>
      </trkpt>
      <trkpt lat="45.34697" lon="6.72293">
        <ele>2479</ele>
        <time>2018-06-27T17:34:26Z</time>
      </trkpt>
      <trkpt lat="45.34702" lon="6.72318">
        <ele>2483</ele>
        <time>2018-06-27T17:35:26Z</time>
      </trkpt>
      <trkpt lat="45.34769" lon="6.72277">
        <ele>2514</ele>
        <time>2018-06-27T17:36:26Z</time>
      </trkpt>
      <trkpt lat="45.34853" lon="6.7223">
        <ele>2518</ele>
        <time>2018-06-27T17:37:26Z</time>
      </trkpt>
      <trkpt lat="45.3488" lon="6.72208">
        <ele>2512</ele>
        <time>2018-06-27T17:38:26Z</time>
      </trkpt>
      <trkpt lat="45.34893" lon="6.72216">
        <ele>2513</ele>
        <time>2018-06-27T17:39:26Z</time>
      </trkpt>
      <trkpt lat="45.34932" lon="6.72176">
        <ele>2520</ele>
        <time>2018-06-27T17:40:26Z</time>
      </trkpt>
      <trkpt lat="45.34981" lon="6.72186">
        <ele>2533</ele>
        <time>2018-06-27T17:41:26Z</time>
      </trkpt>
      <trkpt lat="45.34989" lon="6.72166">
        <ele>2529</ele>
        <time>2018-06-27T17:42:26Z</time>
      </trkpt>
      <trkpt lat="45.3505" lon="6.72163">
        <ele>2525</ele>
        <time>2018-06-27T17:43:26Z</time>
      </trkpt>
      <trkpt lat="45.35119" lon="6.72145">
        <ele>2531</ele>
        <time>2018-06-27T17:44:26Z</time>
      </trkpt>
      <trkpt lat="45.35187" lon="6.72173">
        <ele>2549</ele>
        <time>2018-06-27T17:45:26Z</time>
      </trkpt>
      <trkpt lat="45.3527" lon="6.72242">
        <ele>2547</ele>
        <time>2018-06-27T17:46:26Z</time>
      </trkpt>
      <trkpt lat="45.35326" lon="6.72298">
        <ele>2548</ele>
        <time>2018-06-27T17:47:26Z</time>
      </trkpt>
      <trkpt lat="45.35339" lon="6.72277">
        <ele>2545</ele>
        <time>2018-06-27T17:48:26Z</time>
      </trkpt>
      <trkpt lat="45.35418" lon="6.7226">
        <ele>2549</ele>
        <time>2018-06-27T17:49:26Z</time>
      </trkpt>
      <trkpt lat="45.35467" lon="6.72328">
        <ele>2549</ele>
        <time>2018-06-27T17:50:26Z</time>
      </trkpt>
      <trkpt lat="45.35512" lon="6.72422">
        <ele>2552</ele>
        <time>2018-06-27T17:51:26Z</time>
      </trkpt>
      <trkpt lat="45.35551" lon="6.7244">
        <ele>2548</ele>
        <time>2018-06-27T17:52:26Z</time>
      </trkpt>
      <trkpt lat="45.35545" lon="6.72456">
        <ele>2547</ele>
        <time>2018-06-27T17:53:26Z</time>
      </trkpt>
      <trkpt lat="45.35565" lon="6.7246">
        <ele>2545</ele>
        <time>2018-06-27T17:54:26Z</time>
      </trkpt>
      <trkpt lat="45.35551" lon="6.72487">
        <ele>2542</ele>
        <time>2018-06-27T17:55:26Z</time>
      </trkpt>
      <trkpt lat="45.35646" lon="6.72539">
        <ele>2520</ele>
        <time>2018-06-27T17:56:26Z</time>
      </trkpt>
      <trkpt lat="45.35696" lon="6.72623">
        <ele>2494</ele>
        <time>2018-06-27T17:57:26Z</time>
      </trkpt>
      <trkpt lat="45.35773" lon="6.72662">
        <ele>2498</ele>
        <time>2018-06-27T17:58:26Z</time>
      </trkpt>
      <trkpt lat="45.35801" lon="6.72709">
        <ele>2497</ele>
        <time>2018-06-27T17:59:26Z</time>
      </trkpt>
      <trkpt lat="45.35798" lon="6.72736">
        <ele>2497</ele>
        <time>2018-06-27T18:00:26Z</time>
      </trkpt>
      <trkpt lat="45.35818" lon="6.72736">
        <ele>2500</ele>
        <time>2018-06-27T18:01:26Z</time>
      </trkpt>
      <trkpt lat="45.35822" lon="6.72762">
        <ele>2501</ele>
        <time>2018-06-27T18:02:26Z</time>
      </trkpt>
      <trkpt lat="45.35873" lon="6.72753">
        <ele>2513</ele>
        <time>2018-06-27T18:03:26Z</time>
      </trkpt>
      <trkpt lat="45.35883" lon="6.72714">
        <ele>2508</ele>
        <time>2018-06-27T18:04:26Z</time>
      </trkpt>
      <trkpt lat="45.35952" lon="6.72748">
        <ele>2500</ele>
        <time>2018-06-27T18:05:26Z</time>
      </trkpt>
      <trkpt lat="45.36039" lon="6.72788">
        <ele>2489</ele>
        <time>2018-06-27T18:06:26Z</time>
      </trkpt>
      <trkpt lat="45.36101" lon="6.72811">
        <ele>2468</ele>
        <time>2018-06-27T18:07:26Z</time>
      </trkpt>
      <trkpt lat="45.3614" lon="6.72923">
        <ele>2492</ele>
        <time>2018-06-27T18:08:26Z</time>
      </trkpt>
      <trkpt lat="45.36177" lon="6.73003">
        <ele>2467</ele>
        <time>2018-06-27T18:09:26Z</time>
      </trkpt>
      <trkpt lat="45.36221" lon="6.7307">
        <ele>2428</ele>
        <time>2018-06-27T18:10:26Z</time>
      </trkpt>
      <trkpt lat="45.36222" lon="6.73161">
        <ele>2428</ele>
        <time>2018-06-27T18:11:26Z</time>
      </trkpt>
      <trkpt lat="45.36244" lon="6.73263">
        <ele>2431</ele>
        <time>2018-06-27T18:12:26Z</time>
      </trkpt>
      <trkpt lat="45.36273" lon="6.73336">
        <ele>2407</ele>
        <time>2018-06-27T18:13:26Z</time>
      </trkpt>
      <trkpt lat="45.36309" lon="6.73255">
        <ele>2389</ele>
        <time>2018-06-27T18:14:26Z</time>
      </trkpt>
      <trkpt lat="45.36369" lon="6.73348">
        <ele>2380</ele>
        <time>2018-06-27T18:15:26Z</time>
      </trkpt>
      <trkpt lat="45.3641" lon="6.73314">
        <ele>2366</ele>
        <time>2018-06-27T18:16:26Z</time>
      </trkpt>
      <trkpt lat="45.36421" lon="6.73277">
        <ele>2350</ele>
        <time>2018-06-27T18:17:26Z</time>
      </trkpt>
      <trkpt lat="45.36477" lon="6.73256">
        <ele>2342</ele>
        <time>2018-06-27T18:18:26Z</time>
      </trkpt>
      <trkpt lat="45.36515" lon="6.73282">
        <ele>2343</ele>
        <time>2018-06-27T18:19:26Z</time>
      </trkpt>
      <trkpt lat="45.36524" lon="6.73247">
        <ele>2325</ele>
        <time>2018-06-27T18:20:26Z</time>
      </trkpt>
      <trkpt lat="45.36554" lon="6.7324">
        <ele>2324</ele>
        <time>2018-06-27T18:21:26Z</time>
      </trkpt>
      <trkpt lat="45.36579" lon="6.73155">
        <ele>2295</ele>
        <time>2018-06-27T18:22:26Z</time>
      </trkpt>
      <trkpt lat="45.36599" lon="6.73111">
        <ele>2271</ele>
        <time>2018-06-27T18:23:26Z</time>
      </trkpt>
      <trkpt lat="45.36657" lon="6.73122">
        <ele>2266</ele>
        <time>2018-06-27T18:24:26Z</time>
      </trkpt>
      <trkpt lat="45.36672" lon="6.73172">
        <ele>2270</ele>
        <time>2018-06-27T18:25:26Z</time>
      </trkpt>
      <trkpt lat="45.3669" lon="6.73195">
        <ele>2260</ele>
        <time>2018-06-27T18:26:26Z</time>
      </trkpt>
      <trkpt lat="45.36697" lon="6.73283">
        <ele>2268</ele>
        <time>2018-06-27T18:27:26Z</time>
      </trkpt>
      <trkpt lat="45.36681" lon="6.73343">
        <ele>2286</ele>
        <time>2018-06-27T18:28:26Z</time>
      </trkpt>
      <trkpt lat="45.36686" lon="6.73372">
        <ele>2274</ele>
        <time>2018-06-27T18:29:26Z</time>
      </trkpt>
      <trkpt lat="45.36669" lon="6.73463">
        <ele>2261</ele>
        <time>2018-06-27T18:30:26Z</time>
      </trkpt>
      <trkpt lat="45.3669" lon="6.73455">
        <ele>2259</ele>
        <time>2018-06-27T18:31:26Z</time>
      </trkpt>
      <trkpt lat="45.36695" lon="6.73482">
        <ele>2254</ele>
        <time>2018-06-27T18:32:26Z</time>
      </trkpt>
      <trkpt lat="45.36716" lon="6.73487">
        <ele>2249</ele>
        <time>2018-06-27T18:33:26Z</time>
      </trkpt>
      <trkpt lat="45.36728" lon="6.73547">
        <ele>2245</ele>
        <time>2018-06-27T18:34:26Z</time>
      </trkpt>
      <trkpt lat="45.3675" lon="6.73536">
        <ele>2243</ele>
        <time>2018-06-27T18:35:26Z</time>
      </trkpt>
      <trkpt lat="45.3682" lon="6.73568">
        <ele>2217</ele>
        <time>2018-06-27T18:36:26Z</time>
      </trkpt>
      <trkpt lat="45.36837" lon="6.73601">
        <ele>2214</ele>
        <time>2018-06-27T18:37:26Z</time>
      </trkpt>
      <trkpt lat="45.36882" lon="6.73578">
        <ele>2195</ele>
        <time>2018-06-27T18:38:26Z</time>
      </trkpt>
      <trkpt lat="45.36918" lon="6.73626">
        <ele>2190</ele>
        <time>2018-06-27T18:39:26Z</time>
      </trkpt>
      <trkpt lat="45.36954" lon="6.73736">
        <ele>2199</ele>
        <time>2018-06-27T18:40:26Z</time>
      </trkpt>
      <trkpt lat="45.36981" lon="6.73918">
        <ele>2202</ele>
        <time>2018-06-27T18:41:26Z</time>
      </trkpt>
      <trkpt lat="45.36992" lon="6.74027">
        <ele>2209</ele>
        <time>2018-06-27T18:42:26Z</time>
      </trkpt>
      <trkpt lat="45.3699" lon="6.74103">
        <ele>2216</ele>
        <time>2018-06-27T18:43:26Z</time>
      </trkpt>
      <trkpt lat="45.36994" lon="6.74186">
        <ele>2224</ele>
        <time>2018-06-27T18:44:26Z</time>
      </trkpt>
      <trkpt lat="45.37046" lon="6.74406">
        <ele>2242</ele>
        <time>2018-06-27T18:45:26Z</time>
      </trkpt>
      <trkpt lat="45.37061" lon="6.74467">
        <ele>2243</ele>
        <time>2018-06-27T18:46:26Z</time>
      </trkpt>
      <trkpt lat="45.37037" lon="6.74596">
        <ele>2256</ele>
        <time>2018-06-27T18:47:26Z</time>
      </trkpt>
      <trkpt lat="45.3702" lon="6.74665">
        <ele>2258</ele>
        <time>2018-06-27T18:48:26Z</time>
      </trkpt>
      <trkpt lat="45.37027" lon="6.7468">
        <ele>2269</ele>
        <time>2018-06-27T18:49:26Z</time>
      </trkpt>
      <trkpt lat="45.37013" lon="6.74706">
        <ele>2273</ele>
        <time>2018-06-27T18:50:26Z</time>
      </trkpt>
      <trkpt lat="45.37018" lon="6.74775">
        <ele>2299</ele>
        <time>2018-06-27T18:51:26Z</time>
      </trkpt>
      <trkpt lat="45.37003" lon="6.74843">
        <ele>2321</ele>
        <time>2018-06-27T18:52:26Z</time>
      </trkpt>
      <trkpt lat="45.37008" lon="6.74864">
        <ele>2329</ele>
        <time>2018-06-27T18:53:26Z</time>
      </trkpt>
      <trkpt lat="45.37027" lon="6.74869">
        <ele>2332</ele>
        <time>2018-06-27T18:54:26Z</time>
      </trkpt>
      <trkpt lat="45.37022" lon="6.74939">
        <ele>2358</ele>
        <time>2018-06-27T18:55:26Z</time>
      </trkpt>
      <trkpt lat="45.37044" lon="6.74924">
        <ele>2360</ele>
        <time>2018-06-27T18:56:26Z</time>
      </trkpt>
      <trkpt lat="45.37044" lon="6.74972">
        <ele>2367</ele>
        <time>2018-06-27T18:57:26Z</time>
      </trkpt>
      <trkpt lat="45.37056" lon="6.74956">
        <ele>2366</ele>
        <time>2018-06-27T18:58:26Z</time>
      </trkpt>
      <trkpt lat="45.37069" lon="6.74991">
        <ele>2378</ele>
        <time>2018-06-27T18:59:26Z</time>
      </trkpt>
      <trkpt lat="45.37046" lon="6.75037">
        <ele>2395</ele>
        <time>2018-06-27T19:00:26Z</time>
      </trkpt>
      <trkpt lat="45.37012" lon="6.7506">
        <ele>2397</ele>
        <time>2018-06-27T19:01:26Z</time>
      </trkpt>
      <trkpt lat="45.37032" lon="6.75092">
        <ele>2423</ele>
        <time>2018-06-27T19:02:26Z</time>
      </trkpt>
      <trkpt lat="45.37027" lon="6.75137">
        <ele>2435</ele>
        <time>2018-06-27T19:03:26Z</time>
      </trkpt>
      <trkpt lat="45.37054" lon="6.75131">
        <ele>2434</ele>
        <time>2018-06-27T19:04:26Z</time>
      </trkpt>
      <trkpt lat="45.37087" lon="6.75161">
        <ele>2448</ele>
        <time>2018-06-27T19:05:26Z</time>
      </trkpt>
      <trkpt lat="45.37104" lon="6.75147">
        <ele>2438</ele>
        <time>2018-06-27T19:06:26Z</time>
      </trkpt>
      <trkpt lat="45.37128" lon="6.75171">
        <ele>2450</ele>
        <time>2018-06-27T19:07:26Z</time>
      </trkpt>
      <trkpt lat="45.37182" lon="6.75229">
        <ele>2446</ele>
        <time>2018-06-27T19:08:26Z</time>
      </trkpt>
      <trkpt lat="45.37194" lon="6.75233">
        <ele>2446</ele>
        <time>2018-06-27T19:09:26Z</time>
      </trkpt>
      <trkpt lat="45.37189" lon="6.75267">
        <ele>2455</ele>
        <time>2018-06-27T19:10:26Z</time>
      </trkpt>
      <trkpt lat="45.37203" lon="6.75312">
        <ele>2459</ele>
        <time>2018-06-27T19:11:26Z</time>
      </trkpt>
      <trkpt lat="45.37207" lon="6.75346">
        <ele>2417</ele>
        <time>2018-06-27T19:12:26Z</time>
      </trkpt>
      <trkpt lat="45.37237" lon="6.75352">
        <ele>2417</ele>
        <time>2018-06-27T19:13:26Z</time>
      </trkpt>
      <trkpt lat="45.3724" lon="6.75379">
        <ele>2384</ele>
        <time>2018-06-27T19:14:26Z</time>
      </trkpt>
      <trkpt lat="45.37224" lon="6.75429">
        <ele>2314</ele>
        <time>2018-06-27T19:15:26Z</time>
      </trkpt>
      <trkpt lat="45.37215" lon="6.7546">
        <ele>2315</ele>
        <time>2018-06-27T19:16:26Z</time>
      </trkpt>
      <trkpt lat="45.37259" lon="6.7551">
        <ele>2297</ele>
        <time>2018-06-27T19:17:26Z</time>
      </trkpt>
      <trkpt lat="45.37325" lon="6.75528">
        <ele>2292</ele>
        <time>2018-06-27T19:18:26Z</time>
      </trkpt>
      <trkpt lat="45.37367" lon="6.75505">
        <ele>2283</ele>
        <time>2018-06-27T19:19:26Z</time>
      </trkpt>
      <trkpt lat="45.37382" lon="6.75475">
        <ele>2283</ele>
        <time>2018-06-27T19:20:26Z</time>
      </trkpt>
      <trkpt lat="45.37427" lon="6.75429">
        <ele>2263</ele>
        <time>2018-06-27T19:21:26Z</time>
      </trkpt>
      <trkpt lat="45.37447" lon="6.75453">
        <ele>2251</ele>
        <time>2018-06-27T19:22:26Z</time>
      </trkpt>
      <trkpt lat="45.37466" lon="6.75429">
        <ele>2233</ele>
        <time>2018-06-27T19:23:26Z</time>
      </trkpt>
      <trkpt lat="45.37483" lon="6.7543">
        <ele>2215</ele>
        <time>2018-06-27T19:24:26Z</time>
      </trkpt>
      <trkpt lat="45.37495" lon="6.75455">
        <ele>2235</ele>
        <time>2018-06-27T19:25:26Z</time>
      </trkpt>
      <trkpt lat="45.37507" lon="6.75416">
        <ele>2148</ele>
        <time>2018-06-27T19:26:26Z</time>
      </trkpt>
      <trkpt lat="45.37533" lon="6.75446">
        <ele>2154</ele>
        <time>2018-06-27T19:27:26Z</time>
      </trkpt>
      <trkpt lat="45.3757" lon="6.75432">
        <ele>2119</ele>
        <time>2018-06-27T19:28:26Z</time>
      </trkpt>
      <trkpt lat="45.37585" lon="6.75386">
        <ele>2084</ele>
        <time>2018-06-27T19:29:26Z</time>
      </trkpt>
      <trkpt lat="45.37597" lon="6.75304">
        <ele>2076</ele>
        <time>2018-06-27T19:30:26Z</time>
      </trkpt>
      <trkpt lat="45.37626" lon="6.75371">
        <ele>2084</ele>
        <time>2018-06-27T19:31:26Z</time>
      </trkpt>
      <trkpt lat="45.3764" lon="6.75352">
        <ele>2083</ele>
        <time>2018-06-27T19:32:26Z</time>
      </trkpt>
      <trkpt lat="45.3765" lon="6.75386">
        <ele>2084</ele>
        <time>2018-06-27T19:33:26Z</time>
      </trkpt>
      <trkpt lat="45.37661" lon="6.75404">
        <ele>2086</ele>
        <time>2018-06-27T19:34:26Z</time>
      </trkpt>
      <trkpt lat="45.37686" lon="6.75505">
        <ele>2104</ele>
        <time>2018-06-27T19:35:26Z</time>
      </trkpt>
      <trkpt lat="45.37717" lon="6.75495">
        <ele>2075</ele>
        <time>2018-06-27T19:36:26Z</time>
      </trkpt>
      <trkpt lat="45.37732" lon="6.75506">
        <ele>2097</ele>
        <time>2018-06-27T19:37:26Z</time>
      </trkpt>
      <trkpt lat="45.37754" lon="6.75493">
        <ele>2065</ele>
        <time>2018-06-27T19:38:26Z</time>
      </trkpt>
      <trkpt lat="45.37804" lon="6.75539">
        <ele>2076</ele>
        <time>2018-06-27T19:39:26Z</time>
      </trkpt>
      <trkpt lat="45.37805" lon="6.7552">
        <ele>2070</ele>
        <time>2018-06-27T19:40:26Z</time>
      </trkpt>
      <trkpt lat="45.37817" lon="6.75526">
        <ele>2068</ele>
        <time>2018-06-27T19:41:26Z</time>
      </trkpt>
      <trkpt lat="45.37818" lon="6.75512">
        <ele>2061</ele>
        <time>2018-06-27T19:42:26Z</time>
      </trkpt>
      <trkpt lat="45.37831" lon="6.75524">
        <ele>2063</ele>
        <time>2018-06-27T19:43:26Z</time>
      </trkpt>
      <trkpt lat="45.37829" lon="6.75507">
        <ele>2051</ele>
        <time>2018-06-27T19:44:26Z</time>
      </trkpt>
      <trkpt lat="45.37848" lon="6.75517">
        <ele>2030</ele>
        <time>2018-06-27T19:45:26Z</time>
      </trkpt>
      <trkpt lat="45.37863" lon="6.75483">
        <ele>2003</ele>
        <time>2018-06-27T19:46:26Z</time>
      </trkpt>
      <trkpt lat="45.37884" lon="6.75509">
        <ele>2013</ele>
        <time>2018-06-27T19:47:26Z</time>
      </trkpt>
      <trkpt lat="45.37918" lon="6.7549">
        <ele>1968</ele>
        <time>2018-06-27T19:48:26Z</time>
      </trkpt>
      <trkpt lat="45.37919" lon="6.75444">
        <ele>1948</ele>
        <time>2018-06-27T19:49:26Z</time>
      </trkpt>
      <trkpt lat="45.37964" lon="6.7546">
        <ele>1943</ele>
        <time>2018-06-27T19:50:26Z</time>
      </trkpt>
      <trkpt lat="45.3796" lon="6.75438">
        <ele>1940</ele>
        <time>2018-06-27T19:51:26Z</time>
      </trkpt>
      <trkpt lat="45.37983" lon="6.75438">
        <ele>1934</ele>
        <time>2018-06-27T19:52:26Z</time>
      </trkpt>
      <trkpt lat="45.37982" lon="6.75414">
        <ele>1913</ele>
        <time>2018-06-27T19:53:26Z</time>
      </trkpt>
      <trkpt lat="45.38006" lon="6.75435">
        <ele>1918</ele>
        <time>2018-06-27T19:54:26Z</time>
      </trkpt>
      <trkpt lat="45.38018" lon="6.754">
        <ele>1898</ele>
        <time>2018-06-27T19:55:26Z</time>
      </trkpt>
      <trkpt lat="45.38033" lon="6.75368">
        <ele>1889</ele>
        <time>2018-06-27T19:56:26Z</time>
      </trkpt>
      <trkpt lat="45.38049" lon="6.75342">
        <ele>1883</ele>
        <time>2018-06-27T19:57:26Z</time>
      </trkpt>
      <trkpt lat="45.38057" lon="6.75358">
        <ele>1884</ele>
        <time>2018-06-27T19:58:26Z</time>
      </trkpt>
      <trkpt lat="45.38099" lon="6.75387">
        <ele>1877</ele>
        <time>2018-06-27T19:59:26Z</time>
      </trkpt>
      <trkpt lat="45.38111" lon="6.75479">
        <ele>1907</ele>
        <time>2018-06-27T20:00:26Z</time>
      </trkpt>
      <trkpt lat="45.38133" lon="6.75515">
        <ele>1923</ele>
        <time>2018-06-27T20:01:26Z</time>
      </trkpt>
      <trkpt lat="45.3813" lon="6.75571">
        <ele>1933</ele>
        <time>2018-06-27T20:02:26Z</time>
      </trkpt>
      <trkpt lat="45.38141" lon="6.75583">
        <ele>1931</ele>
        <time>2018-06-27T20:03:26Z</time>
      </trkpt>
      <trkpt lat="45.38143" lon="6.75605">
        <ele>1952</ele>
        <time>2018-06-27T20:04:26Z</time>
      </trkpt>
      <trkpt lat="45.38153" lon="6.75633">
        <ele>1956</ele>
        <time>2018-06-27T20:05:26Z</time>
      </trkpt>
      <trkpt lat="45.38158" lon="6.75649">
        <ele>1957</ele>
        <time>2018-06-27T20:06:26Z</time>
      </trkpt>
      <trkpt lat="45.38176" lon="6.75682">
        <ele>1959</ele>
        <time>2018-06-27T20:07:26Z</time>
      </trkpt>
      <trkpt lat="45.3818" lon="6.75729">
        <ele>1970</ele>
        <time>2018-06-27T20:08:26Z</time>
      </trkpt>
      <trkpt lat="45.382" lon="6.75776">
        <ele>1987</ele>
        <time>2018-06-27T20:09:26Z</time>
      </trkpt>
      <trkpt lat="45.38224" lon="6.7582">
        <ele>1990</ele>
        <time>2018-06-27T20:10:26Z</time>
      </trkpt>
      <trkpt lat="45.38237" lon="6.75822">
        <ele>1989</ele>
        <time>2018-06-27T20:11:26Z</time>
      </trkpt>
      <trkpt lat="45.38274" lon="6.75857">
        <ele>2003</ele>
        <time>2018-06-27T20:12:26Z</time>
      </trkpt>
      <trkpt lat="45.38331" lon="6.7579">
        <ele>1995</ele>
        <time>2018-06-27T20:13:26Z</time>
      </trkpt>
      <trkpt lat="45.38342" lon="6.75822">
        <ele>2008</ele>
        <time>2018-06-27T20:14:26Z</time>
      </trkpt>
      <trkpt lat="45.38376" lon="6.75808">
        <ele>2011</ele>
        <time>2018-06-27T20:15:26Z</time>
      </trkpt>
      <trkpt lat="45.38379" lon="6.75873">
        <ele>2019</ele>
        <time>2018-06-27T20:16:26Z</time>
      </trkpt>
      <trkpt lat="45.38403" lon="6.75925">
        <ele>2032</ele>
        <time>2018-06-27T20:17:26Z</time>
      </trkpt>
      <trkpt lat="45.3844" lon="6.76001">
        <ele>2051</ele>
        <time>2018-06-27T20:18:26Z</time>
      </trkpt>
      <trkpt lat="45.38474" lon="6.76057">
        <ele>2057</ele>
        <time>2018-06-27T20:19:26Z</time>
      </trkpt>
      <trkpt lat="45.38493" lon="6.76095">
        <ele>2065</ele>
        <time>2018-06-27T20:20:26Z</time>
      </trkpt>
      <trkpt lat="45.38526" lon="6.76093">
        <ele>2082</ele>
        <time>2018-06-27T20:21:26Z</time>
      </trkpt>
      <trkpt lat="45.38531" lon="6.7614">
        <ele>2086</ele>
        <time>2018-06-27T20:22:26Z</time>
      </trkpt>
      <trkpt lat="45.38578" lon="6.76204">
        <ele>2095</ele>
        <time>2018-06-27T20:23:26Z</time>
      </trkpt>
      <trkpt lat="45.38657" lon="6.76326">
        <ele>2119</ele>
        <time>2018-06-27T20:24:26Z</time>
      </trkpt>
      <trkpt lat="45.38689" lon="6.76392">
        <ele>2134</ele>
        <time>2018-06-27T20:25:26Z</time>
      </trkpt>
      <trkpt lat="45.38715" lon="6.76454">
        <ele>2144</ele>
        <time>2018-06-27T20:26:26Z</time>
      </trkpt>
      <trkpt lat="45.38754" lon="6.76454">
        <ele>2151</ele>
        <time>2018-06-27T20:27:26Z</time>
      </trkpt>
      <trkpt lat="45.38789" lon="6.76464">
        <ele>2154</ele>
        <time>2018-06-27T20:28:26Z</time>
      </trkpt>
      <trkpt lat="45.38832" lon="6.76507">
        <ele>2160</ele>
        <time>2018-06-27T20:29:26Z</time>
      </trkpt>
      <trkpt lat="45.38841" lon="6.76585">
        <ele>2174</ele>
        <time>2018-06-27T20:30:26Z</time>
      </trkpt>
      <trkpt lat="45.38844" lon="6.76669">
        <ele>2188</ele>
        <time>2018-06-27T20:31:26Z</time>
      </trkpt>
      <trkpt lat="45.38845" lon="6.76723">
        <ele>2195</ele>
        <time>2018-06-27T20:32:26Z</time>
      </trkpt>
      <trkpt lat="45.38828" lon="6.76773">
        <ele>2190</ele>
        <time>2018-06-27T20:33:26Z</time>
      </trkpt>
      <trkpt lat="45.38817" lon="6.76847">
        <ele>2206</ele>
        <time>2018-06-27T20:34:26Z</time>
      </trkpt>
      <trkpt lat="45.38842" lon="6.76854">
        <ele>2207</ele>
        <time>2018-06-27T20:35:26Z</time>
      </trkpt>
      <trkpt lat="45.38853" lon="6.76845">
        <ele>2207</ele>
        <time>2018-06-27T20:36:26Z</time>
      </trkpt>
      <trkpt lat="45.38862" lon="6.76881">
        <ele>2213</ele>
        <time>2018-06-27T20:37:26Z</time>
      </trkpt>
      <trkpt lat="45.38919" lon="6.76932">
        <ele>2230</ele>
        <time>2018-06-27T20:38:26Z</time>
      </trkpt>
      <trkpt lat="45.3895" lon="6.76995">
        <ele>2237</ele>
        <time>2018-06-27T20:39:26Z</time>
      </trkpt>
      <trkpt lat="45.38973" lon="6.77071">
        <ele>2239</ele>
        <time>2018-06-27T20:40:26Z</time>
      </trkpt>
      <trkpt lat="45.38972" lon="6.77123">
        <ele>2249</ele>
        <time>2018-06-27T20:41:26Z</time>
      </trkpt>
      <trkpt lat="45.38983" lon="6.77123">
        <ele>2249</ele>
        <time>2018-06-27T20:42:26Z</time>
      </trkpt>
      <trkpt lat="45.3902" lon="6.77232">
        <ele>2288</ele>
        <time>2018-06-27T20:43:26Z</time>
      </trkpt>
      <trkpt lat="45.39026" lon="6.77277">
        <ele>2309</ele>
        <time>2018-06-27T20:44:26Z</time>
      </trkpt>
      <trkpt lat="45.3895" lon="6.77275">
        <ele>2309</ele>
        <time>2018-06-27T20:45:26Z</time>
      </trkpt>
      <trkpt lat="45.38966" lon="6.77342">
        <ele>2336</ele>
        <time>2018-06-27T20:46:26Z</time>
      </trkpt>
      <trkpt lat="45.38988" lon="6.77377">
        <ele>2338</ele>
        <time>2018-06-27T20:47:26Z</time>
      </trkpt>
      <trkpt lat="45.38981" lon="6.77394">
        <ele>2341</ele>
        <time>2018-06-27T20:48:26Z</time>
      </trkpt>
      <trkpt lat="45.38996" lon="6.77416">
        <ele>2341</ele>
        <time>2018-06-27T20:49:26Z</time>
      </trkpt>
      <trkpt lat="45.3897" lon="6.77481">
        <ele>2368</ele>
        <time>2018-06-27T20:50:26Z</time>
      </trkpt>
      <trkpt lat="45.3895" lon="6.77524">
        <ele>2389</ele>
        <time>2018-06-27T20:51:26Z</time>
      </trkpt>
      <trkpt lat="45.38962" lon="6.77622">
        <ele>2405</ele>
        <time>2018-06-27T20:52:26Z</time>
      </trkpt>
      <trkpt lat="45.38957" lon="6.77661">
        <ele>2408</ele>
        <time>2018-06-27T20:53:26Z</time>
      </trkpt>
      <trkpt lat="45.3894" lon="6.77717">
        <ele>2422</ele>
        <time>2018-06-27T20:54:26Z</time>
      </trkpt>
      <trkpt lat="45.38924" lon="6.77709">
        <ele>2422</ele>
        <time>2018-06-27T20:55:26Z</time>
      </trkpt>
      <trkpt lat="45.38917" lon="6.77764">
        <ele>2432</ele>
        <time>2018-06-27T20:56:26Z</time>
      </trkpt>
      <trkpt lat="45.38923" lon="6.77804">
        <ele>2438</ele>
        <time>2018-06-27T20:57:26Z</time>
      </trkpt>
      <trkpt lat="45.38922" lon="6.77867">
        <ele>2449</ele>
        <time>2018-06-27T20:58:26Z</time>
      </trkpt>
      <trkpt lat="45.38918" lon="6.77912">
        <ele>2450</ele>
        <time>2018-06-27T20:59:26Z</time>
      </trkpt>
      <trkpt lat="45.38928" lon="6.77948">
        <ele>2457</ele>
        <time>2018-06-27T21:00:26Z</time>
      </trkpt>
      <trkpt lat="45.38915" lon="6.7799">
        <ele>2454</ele>
        <time>2018-06-27T21:01:26Z</time>
      </trkpt>
      <trkpt lat="45.38923" lon="6.78027">
        <ele>2461</ele>
        <time>2018-06-27T21:02:26Z</time>
      </trkpt>
      <trkpt lat="45.38914" lon="6.78068">
        <ele>2461</ele>
        <time>2018-06-27T21:03:26Z</time>
      </trkpt>
      <trkpt lat="45.38933" lon="6.78151">
        <ele>2467</ele>
        <time>2018-06-27T21:04:26Z</time>
      </trkpt>
      <trkpt lat="45.3896" lon="6.78207">
        <ele>2476</ele>
        <time>2018-06-27T21:05:26Z</time>
      </trkpt>
      <trkpt lat="45.38957" lon="6.78254">
        <ele>2483</ele>
        <time>2018-06-27T21:06:26Z</time>
      </trkpt>
      <trkpt lat="45.38974" lon="6.78311">
        <ele>2483</ele>
        <time>2018-06-27T21:07:26Z</time>
      </trkpt>
      <trkpt lat="45.38998" lon="6.78367">
        <ele>2484</ele>
        <time>2018-06-27T21:08:26Z</time>
      </trkpt>
      <trkpt lat="45.38998" lon="6.78446">
        <ele>2483</ele>
        <time>2018-06-27T21:09:26Z</time>
      </trkpt>
      <trkpt lat="45.39014" lon="6.78592">
        <ele>2475</ele>
        <time>2018-06-27T21:10:26Z</time>
      </trkpt>
      <trkpt lat="45.39021" lon="6.78646">
        <ele>2476</ele>
        <time>2018-06-27T21:11:26Z</time>
      </trkpt>
      <trkpt lat="45.39006" lon="6.78673">
        <ele>2482</ele>
        <time>2018-06-27T21:12:26Z</time>
      </trkpt>
      <trkpt lat="45.39008" lon="6.78744">
        <ele>2493</ele>
        <time>2018-06-27T21:13:26Z</time>
      </trkpt>
      <trkpt lat="45.39024" lon="6.78775">
        <ele>2500</ele>
        <time>2018-06-27T21:14:26Z</time>
      </trkpt>
      <trkpt lat="45.39024" lon="6.78798">
        <ele>2502</ele>
        <time>2018-06-27T21:15:26Z</time>
      </trkpt>
      <trkpt lat="45.39043" lon="6.78823">
        <ele>2503</ele>
        <time>2018-06-27T21:16:26Z</time>
      </trkpt>
      <trkpt lat="45.39062" lon="6.7891">
        <ele>2510</ele>
        <time>2018-06-27T21:17:26Z</time>
      </trkpt>
      <trkpt lat="45.39133" lon="6.78966">
        <ele>2511</ele>
        <time>2018-06-27T21:18:26Z</time>
      </trkpt>
      <trkpt lat="45.39161" lon="6.79014">
        <ele>2512</ele>
        <time>2018-06-27T21:19:26Z</time>
      </trkpt>
      <trkpt lat="45.39231" lon="6.79097">
        <ele>2513</ele>
        <time>2018-06-27T21:20:26Z</time>
      </trkpt>
      <trkpt lat="45.39295" lon="6.79079">
        <ele>2510</ele>
        <time>2018-06-27T21:21:26Z</time>
      </trkpt>
      <trkpt lat="45.39349" lon="6.7904">
        <ele>2501</ele>
        <time>2018-06-27T21:22:26Z</time>
      </trkpt>
      <trkpt lat="45.3938" lon="6.78984">
        <ele>2503</ele>
        <time>2018-06-27T21:23:26Z</time>
      </trkpt>
      <trkpt lat="45.39413" lon="6.78935">
        <ele>2504</ele>
        <time>2018-06-27T21:24:26Z</time>
      </trkpt>
      <trkpt lat="45.39471" lon="6.78937">
        <ele>2501</ele>
        <time>2018-06-27T21:25:26Z</time>
      </trkpt>
      <trkpt lat="45.39519" lon="6.78957">
        <ele>2491</ele>
        <time>2018-06-27T21:26:26Z</time>
      </trkpt>
      <trkpt lat="45.39598" lon="6.7889">
        <ele>2496</ele>
        <time>2018-06-27T21:27:26Z</time>
      </trkpt>
      <trkpt lat="45.39638" lon="6.7891">
        <ele>2491</ele>
        <time>2018-06-27T21:28:26Z</time>
      </trkpt>
      <trkpt lat="45.39714" lon="6.78894">
        <ele>2479</ele>
        <time>2018-06-27T21:29:26Z</time>
      </trkpt>
      <trkpt lat="45.39719" lon="6.78863">
        <ele>2480</ele>
        <time>2018-06-27T21:30:26Z</time>
      </trkpt>
      <trkpt lat="45.39775" lon="6.78839">
        <ele>2473</ele>
        <time>2018-06-27T21:31:26Z</time>
      </trkpt>
      <trkpt lat="45.39798" lon="6.78794">
        <ele>2476</ele>
        <time>2018-06-27T21:32:26Z</time>
      </trkpt>
      <trkpt lat="45.39841" lon="6.788">
        <ele>2480</ele>
        <time>2018-06-27T21:33:26Z</time>
      </trkpt>
      <trkpt lat="45.39881" lon="6.78719">
        <ele>2479</ele>
        <time>2018-06-27T21:34:26Z</time>
      </trkpt>
      <trkpt lat="45.39906" lon="6.78594">
        <ele>2465</ele>
        <time>2018-06-27T21:35:26Z</time>
      </trkpt>
      <trkpt lat="45.39913" lon="6.78468">
        <ele>2442</ele>
        <time>2018-06-27T21:36:26Z</time>
      </trkpt>
      <trkpt lat="45.39902" lon="6.78448">
        <ele>2439</ele>
        <time>2018-06-27T21:37:26Z</time>
      </trkpt>
      <trkpt lat="45.39914" lon="6.78371">
        <ele>2424</ele>
        <time>2018-06-27T21:38:26Z</time>
      </trkpt>
      <trkpt lat="45.39928" lon="6.78189">
        <ele>2403</ele>
        <time>2018-06-27T21:39:26Z</time>
      </trkpt>
      <trkpt lat="45.39948" lon="6.78003">
        <ele>2371</ele>
        <time>2018-06-27T21:40:26Z</time>
      </trkpt>
      <trkpt lat="45.39971" lon="6.77875">
        <ele>2354</ele>
        <time>2018-06-27T21:41:26Z</time>
      </trkpt>
      <trkpt lat="45.39928" lon="6.77853">
        <ele>2349</ele>
        <time>2018-06-27T21:42:26Z</time>
      </trkpt>
      <trkpt lat="45.39919" lon="6.77822">
        <ele>2345</ele>
        <time>2018-06-27T21:43:26Z</time>
      </trkpt>
      <trkpt lat="45.39957" lon="6.77707">
        <ele>2353</ele>
        <time>2018-06-27T21:44:26Z</time>
      </trkpt>
      <trkpt lat="45.39894" lon="6.77579">
        <ele>2354</ele>
        <time>2018-06-27T21:45:26Z</time>
      </trkpt>
      <trkpt lat="45.39859" lon="6.77531">
        <ele>2351</ele>
        <time>2018-06-27T21:46:26Z</time>
      </trkpt>
      <trkpt lat="45.39842" lon="6.77477">
        <ele>2362</ele>
        <time>2018-06-27T21:47:26Z</time>
      </trkpt>
      <trkpt lat="45.39842" lon="6.77434">
        <ele>2366</ele>
        <time>2018-06-27T21:48:26Z</time>
      </trkpt>
      <trkpt lat="45.39844" lon="6.7736">
        <ele>2380</ele>
        <time>2018-06-27T21:49:26Z</time>
      </trkpt>
      <trkpt lat="45.39848" lon="6.77309">
        <ele>2382</ele>
        <time>2018-06-27T21:50:26Z</time>
      </trkpt>
      <trkpt lat="45.39837" lon="6.77261">
        <ele>2374</ele>
        <time>2018-06-27T21:51:26Z</time>
      </trkpt>
      <trkpt lat="45.39898" lon="6.77174">
        <ele>2390</ele>
        <time>2018-06-27T21:52:26Z</time>
      </trkpt>
      <trkpt lat="45.39929" lon="6.7706">
        <ele>2397</ele>
        <time>2018-06-27T21:53:26Z</time>
      </trkpt>
      <trkpt lat="45.3995" lon="6.76988">
        <ele>2395</ele>
        <time>2018-06-27T21:54:26Z</time>
      </trkpt>
      <trkpt lat="45.39991" lon="6.76929">
        <ele>2403</ele>
        <time>2018-06-27T21:55:26Z</time>
      </trkpt>
      <trkpt lat="45.40036" lon="6.76853">
        <ele>2411</ele>
        <time>2018-06-27T21:56:26Z</time>
      </trkpt>
      <trkpt lat="45.40058" lon="6.76837">
        <ele>2416</ele>
        <time>2018-06-27T21:57:26Z</time>
      </trkpt>
      <trkpt lat="45.40081" lon="6.76757">
        <ele>2424</ele>
        <time>2018-06-27T21:58:26Z</time>
      </trkpt>
      <trkpt lat="45.40064" lon="6.7671">
        <ele>2415</ele>
        <time>2018-06-27T21:59:26Z</time>
      </trkpt>
      <trkpt lat="45.40082" lon="6.76692">
        <ele>2419</ele>
        <time>2018-06-27T22:00:26Z</time>
      </trkpt>
      <trkpt lat="45.40087" lon="6.7662">
        <ele>2459</ele>
        <time>2018-06-27T22:01:26Z</time>
      </trkpt>
      <trkpt lat="45.40053" lon="6.76514">
        <ele>2442</ele>
        <time>2018-06-27T22:02:26Z</time>
      </trkpt>
      <trkpt lat="45.40045" lon="6.76384">
        <ele>2477</ele>
        <time>2018-06-27T22:03:26Z</time>
      </trkpt>
      <trkpt lat="45.4001" lon="6.76369">
        <ele>2469</ele>
        <time>2018-06-27T22:04:26Z</time>
      </trkpt>
      <trkpt lat="45.40026" lon="6.76212">
        <ele>2480</ele>
        <time>2018-06-27T22:05:26Z</time>
      </trkpt>
      <trkpt lat="45.40021" lon="6.76165">
        <ele>2494</ele>
        <time>2018-06-27T22:06:26Z</time>
      </trkpt>
      <trkpt lat="45.40034" lon="6.76151">
        <ele>2500</ele>
        <time>2018-06-27T22:07:26Z</time>
      </trkpt>
      <trkpt lat="45.40014" lon="6.76088">
        <ele>2522</ele>
        <time>2018-06-27T22:08:26Z</time>
      </trkpt>
      <trkpt lat="45.40005" lon="6.76046">
        <ele>2540</ele>
        <time>2018-06-27T22:09:26Z</time>
      </trkpt>
      <trkpt lat="45.39989" lon="6.76012">
        <ele>2539</ele>
        <time>2018-06-27T22:10:26Z</time>
      </trkpt>
      <trkpt lat="45.39982" lon="6.75952">
        <ele>2539</ele>
        <time>2018-06-27T22:11:26Z</time>
      </trkpt>
      <trkpt lat="45.39948" lon="6.75931">
        <ele>2536</ele>
        <time>2018-06-27T22:12:26Z</time>
      </trkpt>
      <trkpt lat="45.39948" lon="6.75897">
        <ele>2539</ele>
        <time>2018-06-27T22:13:26Z</time>
      </trkpt>
      <trkpt lat="45.39905" lon="6.75866">
        <ele>2519</ele>
        <time>2018-06-27T22:14:26Z</time>
      </trkpt>
      <trkpt lat="45.39856" lon="6.75882">
        <ele>2508</ele>
        <time>2018-06-27T22:15:26Z</time>
      </trkpt>
      <trkpt lat="45.39835" lon="6.75853">
        <ele>2515</ele>
        <time>2018-06-27T22:16:26Z</time>
      </trkpt>
      <trkpt lat="45.39801" lon="6.75846">
        <ele>2486</ele>
        <time>2018-06-27T22:17:26Z</time>
      </trkpt>
      <trkpt lat="45.39779" lon="6.75786">
        <ele>2501</ele>
        <time>2018-06-27T22:18:26Z</time>
      </trkpt>
      <trkpt lat="45.39787" lon="6.75747">
        <ele>2500</ele>
        <time>2018-06-27T22:19:26Z</time>
      </trkpt>
      <trkpt lat="45.39749" lon="6.75669">
        <ele>2479</ele>
        <time>2018-06-27T22:20:26Z</time>
      </trkpt>
      <trkpt lat="45.39751" lon="6.75633">
        <ele>2469</ele>
        <time>2018-06-27T22:21:26Z</time>
      </trkpt>
      <trkpt lat="45.39751" lon="6.75581">
        <ele>2443</ele>
        <time>2018-06-27T22:22:26Z</time>
      </trkpt>
      <trkpt lat="45.39746" lon="6.75548">
        <ele>2434</ele>
        <time>2018-06-27T22:23:26Z</time>
      </trkpt>
      <trkpt lat="45.39746" lon="6.75514">
        <ele>2418</ele>
        <time>2018-06-27T22:24:26Z</time>
      </trkpt>
      <trkpt lat="45.39745" lon="6.75487">
        <ele>2403</ele>
        <time>2018-06-27T22:25:26Z</time>
      </trkpt>
      <trkpt lat="45.39751" lon="6.75444">
        <ele>2390</ele>
        <time>2018-06-27T22:26:26Z</time>
      </trkpt>
      <trkpt lat="45.39763" lon="6.75361">
        <ele>2375</ele>
        <time>2018-06-27T22:27:26Z</time>
      </trkpt>
      <trkpt lat="45.39732" lon="6.75296">
        <ele>2366</ele>
        <time>2018-06-27T22:28:26Z</time>
      </trkpt>
      <trkpt lat="45.39694" lon="6.75258">
        <ele>2363</ele>
        <time>2018-06-27T22:29:26Z</time>
      </trkpt>
      <trkpt lat="45.39648" lon="6.75146">
        <ele>2347</ele>
        <time>2018-06-27T22:30:26Z</time>
      </trkpt>
      <trkpt lat="45.39601" lon="6.7512">
        <ele>2344</ele>
        <time>2018-06-27T22:31:26Z</time>
      </trkpt>
      <trkpt lat="45.39534" lon="6.75058">
        <ele>2344</ele>
        <time>2018-06-27T22:32:26Z</time>
      </trkpt>
      <trkpt lat="45.39497" lon="6.74977">
        <ele>2339</ele>
        <time>2018-06-27T22:33:26Z</time>
      </trkpt>
      <trkpt lat="45.39534" lon="6.74961">
        <ele>2346</ele>
        <time>2018-06-27T22:34:26Z</time>
      </trkpt>
      <trkpt lat="45.3954" lon="6.74949">
        <ele>2347</ele>
        <time>2018-06-27T22:35:26Z</time>
      </trkpt>
      <trkpt lat="45.39566" lon="6.74924">
        <ele>2354</ele>
        <time>2018-06-27T22:36:26Z</time>
      </trkpt>
      <trkpt lat="45.39589" lon="6.74885">
        <ele>2376</ele>
        <time>2018-06-27T22:37:26Z</time>
      </trkpt>
      <trkpt lat="45.39621" lon="6.74895">
        <ele>2382</ele>
        <time>2018-06-27T22:38:26Z</time>
      </trkpt>
      <trkpt lat="45.39673" lon="6.74952">
        <ele>2396</ele>
        <time>2018-06-27T22:39:26Z</time>
      </trkpt>
      <trkpt lat="45.39711" lon="6.7497">
        <ele>2402</ele>
        <time>2018-06-27T22:40:26Z</time>
      </trkpt>
      <trkpt lat="45.39748" lon="6.74982">
        <ele>2407</ele>
        <time>2018-06-27T22:41:26Z</time>
      </trkpt>
      <trkpt lat="45.39788" lon="6.74986">
        <ele>2442</ele>
        <time>2018-06-27T22:42:26Z</time>
      </trkpt>
      <trkpt lat="45.39742" lon="6.74895">
        <ele>2442</ele>
        <time>2018-06-27T22:43:26Z</time>
      </trkpt>
      <trkpt lat="45.39774" lon="6.74915">
        <ele>2475</ele>
        <time>2018-06-27T22:44:26Z</time>
      </trkpt>
      <trkpt lat="45.39779" lon="6.74842">
        <ele>2497</ele>
        <time>2018-06-27T22:45:26Z</time>
      </trkpt>
      <trkpt lat="45.39784" lon="6.74823">
        <ele>2517</ele>
        <time>2018-06-27T22:46:26Z</time>
      </trkpt>
      <trkpt lat="45.39734" lon="6.7478">
        <ele>2491</ele>
        <time>2018-06-27T22:47:26Z</time>
      </trkpt>
      <trkpt lat="45.39735" lon="6.74747">
        <ele>2517</ele>
        <time>2018-06-27T22:48:26Z</time>
      </trkpt>
      <trkpt lat="45.39732" lon="6.74701">
        <ele>2498</ele>
        <time>2018-06-27T22:49:26Z</time>
      </trkpt>
      <trkpt lat="45.39718" lon="6.74685">
        <ele>2493</ele>
        <time>2018-06-27T22:50:26Z</time>
      </trkpt>
      <trkpt lat="45.39732" lon="6.74644">
        <ele>2494</ele>
        <time>2018-06-27T22:51:26Z</time>
      </trkpt>
      <trkpt lat="45.39729" lon="6.74572">
        <ele>2487</ele>
        <time>2018-06-27T22:52:26Z</time>
      </trkpt>
      <trkpt lat="45.39773" lon="6.74525">
        <ele>2480</ele>
        <time>2018-06-27T22:53:26Z</time>
      </trkpt>
      <trkpt lat="45.39822" lon="6.74531">
        <ele>2508</ele>
        <time>2018-06-27T22:54:26Z</time>
      </trkpt>
      <trkpt lat="45.39835" lon="6.74498">
        <ele>2530</ele>
        <time>2018-06-27T22:55:26Z</time>
      </trkpt>
      <trkpt lat="45.39878" lon="6.74469">
        <ele>2476</ele>
        <time>2018-06-27T22:56:26Z</time>
      </trkpt>
      <trkpt lat="45.39883" lon="6.74442">
        <ele>2458</ele>
        <time>2018-06-27T22:57:26Z</time>
      </trkpt>
      <trkpt lat="45.39907" lon="6.74402">
        <ele>2460</ele>
        <time>2018-06-27T22:58:26Z</time>
      </trkpt>
      <trkpt lat="45.39913" lon="6.74337">
        <ele>2511</ele>
        <time>2018-06-27T22:59:26Z</time>
      </trkpt>
      <trkpt lat="45.39979" lon="6.74228">
        <ele>2534</ele>
        <time>2018-06-27T23:00:26Z</time>
      </trkpt>
      <trkpt lat="45.39979" lon="6.7414">
        <ele>2545</ele>
        <time>2018-06-27T23:01:26Z</time>
      </trkpt>
      <trkpt lat="45.40003" lon="6.74116">
        <ele>2549</ele>
        <time>2018-06-27T23:02:26Z</time>
      </trkpt>
      <trkpt lat="45.40036" lon="6.74122">
        <ele>2549</ele>
        <time>2018-06-27T23:03:26Z</time>
      </trkpt>
      <trkpt lat="45.4007" lon="6.74078">
        <ele>2544</ele>
        <time>2018-06-27T23:04:26Z</time>
      </trkpt>
      <trkpt lat="45.40101" lon="6.74082">
        <ele>2538</ele>
        <time>2018-06-27T23:05:26Z</time>
      </trkpt>
      <trkpt lat="45.40135" lon="6.74053">
        <ele>2527</ele>
        <time>2018-06-27T23:06:26Z</time>
      </trkpt>
      <trkpt lat="45.40149" lon="6.74009">
        <ele>2514</ele>
        <time>2018-06-27T23:07:26Z</time>
      </trkpt>
      <trkpt lat="45.40202" lon="6.73987">
        <ele>2511</ele>
        <time>2018-06-27T23:08:26Z</time>
      </trkpt>
      <trkpt lat="45.40247" lon="6.7397">
        <ele>2517</ele>
        <time>2018-06-27T23:09:26Z</time>
      </trkpt>
      <trkpt lat="45.40275" lon="6.73947">
        <ele>2525</ele>
        <time>2018-06-27T23:10:26Z</time>
      </trkpt>
      <trkpt lat="45.40277" lon="6.73967">
        <ele>2524</ele>
        <time>2018-06-27T23:11:26Z</time>
      </trkpt>
      <trkpt lat="45.40315" lon="6.73968">
        <ele>2523</ele>
        <time>2018-06-27T23:12:26Z</time>
      </trkpt>
      <trkpt lat="45.40368" lon="6.73981">
        <ele>2515</ele>
        <time>2018-06-27T23:13:26Z</time>
      </trkpt>
      <trkpt lat="45.40364" lon="6.73993">
        <ele>2516</ele>
        <time>2018-06-27T23:14:26Z</time>
      </trkpt>
      <trkpt lat="45.40385" lon="6.73999">
        <ele>2513</ele>
        <time>2018-06-27T23:15:26Z</time>
      </trkpt>
      <trkpt lat="45.40442" lon="6.74012">
        <ele>2486</ele>
        <time>2018-06-27T23:16:26Z</time>
      </trkpt>
      <trkpt lat="45.40508" lon="6.74031">
        <ele>2461</ele>
        <time>2018-06-27T23:17:26Z</time>
      </trkpt>
      <trkpt lat="45.40565" lon="6.74014">
        <ele>2453</ele>
        <time>2018-06-27T23:18:26Z</time>
      </trkpt>
      <trkpt lat="45.40591" lon="6.73964">
        <ele>2411</ele>
        <time>2018-06-27T23:19:26Z</time>
      </trkpt>
      <trkpt lat="45.4064" lon="6.73929">
        <ele>2397</ele>
        <time>2018-06-27T23:20:26Z</time>
      </trkpt>
      <trkpt lat="45.40683" lon="6.7399">
        <ele>2411</ele>
        <time>2018-06-27T23:21:26Z</time>
      </trkpt>
      <trkpt lat="45.40716" lon="6.74">
        <ele>2429</ele>
        <time>2018-06-27T23:22:26Z</time>
      </trkpt>
      <trkpt lat="45.40767" lon="6.73986">
        <ele>2411</ele>
        <time>2018-06-27T23:23:26Z</time>
      </trkpt>
      <trkpt lat="45.40804" lon="6.74025">
        <ele>2430</ele>
        <time>2018-06-27T23:24:26Z</time>
      </trkpt>
      <trkpt lat="45.40881" lon="6.74037">
        <ele>2429</ele>
        <time>2018-06-27T23:25:26Z</time>
      </trkpt>
      <trkpt lat="45.40897" lon="6.74055">
        <ele>2434</ele>
        <time>2018-06-27T23:26:26Z</time>
      </trkpt>
      <trkpt lat="45.40868" lon="6.74075">
        <ele>2437</ele>
        <time>2018-06-27T23:27:26Z</time>
      </trkpt>
      <trkpt lat="45.40924" lon="6.74103">
        <ele>2463</ele>
        <time>2018-06-27T23:28:26Z</time>
      </trkpt>
      <trkpt lat="45.40924" lon="6.74123">
        <ele>2470</ele>
        <time>2018-06-27T23:29:26Z</time>
      </trkpt>
      <trkpt lat="45.40962" lon="6.74139">
        <ele>2475</ele>
        <time>2018-06-27T23:30:26Z</time>
      </trkpt>
      <trkpt lat="45.40983" lon="6.74138">
        <ele>2477</ele>
        <time>2018-06-27T23:31:26Z</time>
      </trkpt>
      <trkpt lat="45.41027" lon="6.74156">
        <ele>2482</ele>
        <time>2018-06-27T23:32:26Z</time>
      </trkpt>
      <trkpt lat="45.4102" lon="6.74175">
        <ele>2497</ele>
        <time>2018-06-27T23:33:26Z</time>
      </trkpt>
      <trkpt lat="45.41035" lon="6.74206">
        <ele>2501</ele>
        <time>2018-06-27T23:34:26Z</time>
      </trkpt>
      <trkpt lat="45.41066" lon="6.74213">
        <ele>2502</ele>
        <time>2018-06-27T23:35:26Z</time>
      </trkpt>
      <trkpt lat="45.41086" lon="6.74234">
        <ele>2504</ele>
        <time>2018-06-27T23:36:26Z</time>
      </trkpt>
      <trkpt lat="45.41117" lon="6.74315">
        <ele>2520</ele>
        <time>2018-06-27T23:37:26Z</time>
      </trkpt>
      <trkpt lat="45.41142" lon="6.74362">
        <ele>2537</ele>
        <time>2018-06-27T23:38:26Z</time>
      </trkpt>
      <trkpt lat="45.41166" lon="6.74342">
        <ele>2531</ele>
        <time>2018-06-27T23:39:26Z</time>
      </trkpt>
      <trkpt lat="45.41183" lon="6.74344">
        <ele>2536</ele>
        <time>2018-06-27T23:40:26Z</time>
      </trkpt>
      <trkpt lat="45.4121" lon="6.7435">
        <ele>2540</ele>
        <time>2018-06-27T23:41:26Z</time>
      </trkpt>
      <trkpt lat="45.41221" lon="6.74335">
        <ele>2539</ele>
        <time>2018-06-27T23:42:26Z</time>
      </trkpt>
      <trkpt lat="45.41279" lon="6.74381">
        <ele>2549</ele>
        <time>2018-06-27T23:43:26Z</time>
      </trkpt>
      <trkpt lat="45.41316" lon="6.74326">
        <ele>2536</ele>
        <time>2018-06-27T23:44:26Z</time>
      </trkpt>
      <trkpt lat="45.41334" lon="6.7434">
        <ele>2546</ele>
        <time>2018-06-27T23:45:26Z</time>
      </trkpt>
      <trkpt lat="45.41354" lon="6.74297">
        <ele>2539</ele>
        <time>2018-06-27T23:46:26Z</time>
      </trkpt>
      <trkpt lat="45.41369" lon="6.74322">
        <ele>2542</ele>
        <time>2018-06-27T23:47:26Z</time>
      </trkpt>
      <trkpt lat="45.41387" lon="6.74313">
        <ele>2543</ele>
        <time>2018-06-27T23:48:26Z</time>
      </trkpt>
      <trkpt lat="45.41398" lon="6.7427">
        <ele>2538</ele>
        <time>2018-06-27T23:49:26Z</time>
      </trkpt>
      <trkpt lat="45.41447" lon="6.74264">
        <ele>2543</ele>
        <time>2018-06-27T23:50:26Z</time>
      </trkpt>
      <trkpt lat="45.4148" lon="6.74246">
        <ele>2540</ele>
        <time>2018-06-27T23:51:26Z</time>
      </trkpt>
      <trkpt lat="45.41505" lon="6.74247">
        <ele>2547</ele>
        <time>2018-06-27T23:52:26Z</time>
      </trkpt>
      <trkpt lat="45.41529" lon="6.74234">
        <ele>2546</ele>
        <time>2018-06-27T23:53:26Z</time>
      </trkpt>
      <trkpt lat="45.41538" lon="6.74167">
        <ele>2546</ele>
        <time>2018-06-27T23:54:26Z</time>
      </trkpt>
      <trkpt lat="45.41568" lon="6.74126">
        <ele>2544</ele>
        <time>2018-06-27T23:55:26Z</time>
      </trkpt>
      <trkpt lat="45.41588" lon="6.74057">
        <ele>2543</ele>
        <time>2018-06-27T23:56:26Z</time>
      </trkpt>
      <trkpt lat="45.41585" lon="6.73999">
        <ele>2530</ele>
        <time>2018-06-27T23:57:26Z</time>
      </trkpt>
      <trkpt lat="45.41604" lon="6.73923">
        <ele>2523</ele>
        <time>2018-06-27T23:58:26Z</time>
      </trkpt>
      <trkpt lat="45.4164" lon="6.73904">
        <ele>2519</ele>
        <time>2018-06-27T23:59:26Z</time>
      </trkpt>
      <trkpt lat="45.41649" lon="6.73845">
        <ele>2515</ele>
        <time>2018-06-28T00:00:26Z</time>
      </trkpt>
      <trkpt lat="45.4166" lon="6.73808">
        <ele>2507</ele>
        <time>2018-06-28T00:01:26Z</time>
      </trkpt>
      <trkpt lat="45.41632" lon="6.7376">
        <ele>2500</ele>
        <time>2018-06-28T00:02:26Z</time>
      </trkpt>
      <trkpt lat="45.4163" lon="6.73732">
        <ele>2488</ele>
        <time>2018-06-28T00:03:26Z</time>
      </trkpt>
      <trkpt lat="45.4162" lon="6.73731">
        <ele>2486</ele>
        <time>2018-06-28T00:04:26Z</time>
      </trkpt>
      <trkpt lat="45.4163" lon="6.73668">
        <ele>2482</ele>
        <time>2018-06-28T00:05:26Z</time>
      </trkpt>
      <trkpt lat="45.41614" lon="6.73657">
        <ele>2468</ele>
        <time>2018-06-28T00:06:26Z</time>
      </trkpt>
      <trkpt lat="45.41604" lon="6.73605">
        <ele>2461</ele>
        <time>2018-06-28T00:07:26Z</time>
      </trkpt>
      <trkpt lat="45.41615" lon="6.73571">
        <ele>2448</ele>
        <time>2018-06-28T00:08:26Z</time>
      </trkpt>
      <trkpt lat="45.41605" lon="6.73532">
        <ele>2443</ele>
        <time>2018-06-28T00:09:26Z</time>
      </trkpt>
      <trkpt lat="45.4159" lon="6.73493">
        <ele>2429</ele>
        <time>2018-06-28T00:10:26Z</time>
      </trkpt>
      <trkpt lat="45.41578" lon="6.73491">
        <ele>2425</ele>
        <time>2018-06-28T00:11:26Z</time>
      </trkpt>
      <trkpt lat="45.41594" lon="6.73472">
        <ele>2422</ele>
        <time>2018-06-28T00:12:26Z</time>
      </trkpt>
      <trkpt lat="45.41618" lon="6.73451">
        <ele>2417</ele>
        <time>2018-06-28T00:13:26Z</time>
      </trkpt>
      <trkpt lat="45.41631" lon="6.73429">
        <ele>2413</ele>
        <time>2018-06-28T00:14:26Z</time>
      </trkpt>
      <trkpt lat="45.41639" lon="6.73403">
        <ele>2395</ele>
        <time>2018-06-28T00:15:26Z</time>
      </trkpt>
      <trkpt lat="45.41635" lon="6.7338">
        <ele>2393</ele>
        <time>2018-06-28T00:16:26Z</time>
      </trkpt>
      <trkpt lat="45.41645" lon="6.73357">
        <ele>2391</ele>
        <time>2018-06-28T00:17:26Z</time>
      </trkpt>
      <trkpt lat="45.41644" lon="6.73335">
        <ele>2389</ele>
        <time>2018-06-28T00:18:26Z</time>
      </trkpt>
      <trkpt lat="45.41653" lon="6.7338">
        <ele>2393</ele>
        <time>2018-06-28T00:19:26Z</time>
      </trkpt>
      <trkpt lat="45.41673" lon="6.73389">
        <ele>2382</ele>
        <time>2018-06-28T00:20:26Z</time>
      </trkpt>
      <trkpt lat="45.41687" lon="6.73398">
        <ele>2381</ele>
        <time>2018-06-28T00:21:26Z</time>
      </trkpt>
      <trkpt lat="45.41691" lon="6.73377">
        <ele>2376</ele>
        <time>2018-06-28T00:22:26Z</time>
      </trkpt>
      <trkpt lat="45.41717" lon="6.7339">
        <ele>2372</ele>
        <time>2018-06-28T00:23:26Z</time>
      </trkpt>
      <trkpt lat="45.41723" lon="6.73381">
        <ele>2369</ele>
        <time>2018-06-28T00:24:26Z</time>
      </trkpt>
      <trkpt lat="45.41753" lon="6.73397">
        <ele>2356</ele>
        <time>2018-06-28T00:25:26Z</time>
      </trkpt>
      <trkpt lat="45.41776" lon="6.73389">
        <ele>2349</ele>
        <time>2018-06-28T00:26:26Z</time>
      </trkpt>
      <trkpt lat="45.41763" lon="6.73377">
        <ele>2347</ele>
        <time>2018-06-28T00:27:26Z</time>
      </trkpt>
      <trkpt lat="45.4179" lon="6.73367">
        <ele>2342</ele>
        <time>2018-06-28T00:28:26Z</time>
      </trkpt>
      <trkpt lat="45.41793" lon="6.7332">
        <ele>2316</ele>
        <time>2018-06-28T00:29:26Z</time>
      </trkpt>
      <trkpt lat="45.41785" lon="6.7325">
        <ele>2302</ele>
        <time>2018-06-28T00:30:26Z</time>
      </trkpt>
      <trkpt lat="45.41796" lon="6.73236">
        <ele>2300</ele>
        <time>2018-06-28T00:31:26Z</time>
      </trkpt>
      <trkpt lat="45.4181" lon="6.73221">
        <ele>2298</ele>
        <time>2018-06-28T00:32:26Z</time>
      </trkpt>
      <trkpt lat="45.41838" lon="6.73234">
        <ele>2280</ele>
        <time>2018-06-28T00:33:26Z</time>
      </trkpt>
      <trkpt lat="45.41841" lon="6.73188">
        <ele>2275</ele>
        <time>2018-06-28T00:34:26Z</time>
      </trkpt>
      <trkpt lat="45.41832" lon="6.73161">
        <ele>2284</ele>
        <time>2018-06-28T00:35:26Z</time>
      </trkpt>
      <trkpt lat="45.41854" lon="6.73131">
        <ele>2255</ele>
        <time>2018-06-28T00:36:26Z</time>
      </trkpt>
      <trkpt lat="45.41857" lon="6.73117">
        <ele>2252</ele>
        <time>2018-06-28T00:37:26Z</time>
      </trkpt>
      <trkpt lat="45.41861" lon="6.73098">
        <ele>2249</ele>
        <time>2018-06-28T00:38:26Z</time>
      </trkpt>
      <trkpt lat="45.41891" lon="6.7308">
        <ele>2224</ele>
        <time>2018-06-28T00:39:26Z</time>
      </trkpt>
      <trkpt lat="45.41889" lon="6.73037">
        <ele>2217</ele>
        <time>2018-06-28T00:40:26Z</time>
      </trkpt>
      <trkpt lat="45.41909" lon="6.73063">
        <ele>2221</ele>
        <time>2018-06-28T00:41:26Z</time>
      </trkpt>
      <trkpt lat="45.4191" lon="6.73037">
        <ele>2215</ele>
        <time>2018-06-28T00:42:26Z</time>
      </trkpt>
      <trkpt lat="45.4192" lon="6.73028">
        <ele>2194</ele>
        <time>2018-06-28T00:43:26Z</time>
      </trkpt>
      <trkpt lat="45.41907" lon="6.72963">
        <ele>2187</ele>
        <time>2018-06-28T00:44:26Z</time>
      </trkpt>
      <trkpt lat="45.41942" lon="6.72991">
        <ele>2174</ele>
        <time>2018-06-28T00:45:26Z</time>
      </trkpt>
      <trkpt lat="45.41969" lon="6.72996">
        <ele>2165</ele>
        <time>2018-06-28T00:46:26Z</time>
      </trkpt>
      <trkpt lat="45.42" lon="6.72989">
        <ele>2149</ele>
        <time>2018-06-28T00:47:26Z</time>
      </trkpt>
      <trkpt lat="45.41986" lon="6.72943">
        <ele>2155</ele>
        <time>2018-06-28T00:48:26Z</time>
      </trkpt>
      <trkpt lat="45.42008" lon="6.72944">
        <ele>2137</ele>
        <time>2018-06-28T00:49:26Z</time>
      </trkpt>
      <trkpt lat="45.42007" lon="6.72883">
        <ele>2119</ele>
        <time>2018-06-28T00:50:26Z</time>
      </trkpt>
      <trkpt lat="45.42024" lon="6.72874">
        <ele>2115</ele>
        <time>2018-06-28T00:51:26Z</time>
      </trkpt>
      <trkpt lat="45.42037" lon="6.7285">
        <ele>2111</ele>
        <time>2018-06-28T00:52:26Z</time>
      </trkpt>
      <trkpt lat="45.42038" lon="6.72887">
        <ele>2114</ele>
        <time>2018-06-28T00:53:26Z</time>
      </trkpt>
      <trkpt lat="45.4206" lon="6.72894">
        <ele>2111</ele>
        <time>2018-06-28T00:54:26Z</time>
      </trkpt>
      <trkpt lat="45.4206" lon="6.72862">
        <ele>2107</ele>
        <time>2018-06-28T00:55:26Z</time>
      </trkpt>
      <trkpt lat="45.42084" lon="6.72903">
        <ele>2108</ele>
        <time>2018-06-28T00:56:26Z</time>
      </trkpt>
      <trkpt lat="45.42103" lon="6.72877">
        <ele>2104</ele>
        <time>2018-06-28T00:57:26Z</time>
      </trkpt>
      <trkpt lat="45.42114" lon="6.72873">
        <ele>2104</ele>
        <time>2018-06-28T00:58:26Z</time>
      </trkpt>
      <trkpt lat="45.42173" lon="6.7273">
        <ele>2054</ele>
        <time>2018-06-28T00:59:26Z</time>
      </trkpt>
      <trkpt lat="45.42197" lon="6.72669">
        <ele>2042</ele>
        <time>2018-06-28T01:00:26Z</time>
      </trkpt>
      <trkpt lat="45.42235" lon="6.72656">
        <ele>2025</ele>
        <time>2018-06-28T01:01:26Z</time>
      </trkpt>
      <trkpt lat="45.42254" lon="6.72615">
        <ele>2004</ele>
        <time>2018-06-28T01:02:26Z</time>
      </trkpt>
      <trkpt lat="45.42215" lon="6.72621">
        <ele>2014</ele>
        <time>2018-06-28T01:03:26Z</time>
      </trkpt>
      <trkpt lat="45.42151" lon="6.72577">
        <ele>1992</ele>
        <time>2018-06-28T01:04:26Z</time>
      </trkpt>
      <trkpt lat="45.42171" lon="6.72554">
        <ele>1984</ele>
        <time>2018-06-28T01:05:26Z</time>
      </trkpt>
      <trkpt lat="45.42179" lon="6.72529">
        <ele>1977</ele>
        <time>2018-06-28T01:06:26Z</time>
      </trkpt>
      <trkpt lat="45.42206" lon="6.72522">
        <ele>1976</ele>
        <time>2018-06-28T01:07:26Z</time>
      </trkpt>
      <trkpt lat="45.42188" lon="6.72485">
        <ele>1954</ele>
        <time>2018-06-28T01:08:26Z</time>
      </trkpt>
      <trkpt lat="45.42197" lon="6.7248">
        <ele>1951</ele>
        <time>2018-06-28T01:09:26Z</time>
      </trkpt>
      <trkpt lat="45.42197" lon="6.72411">
        <ele>1925</ele>
        <time>2018-06-28T01:10:26Z</time>
      </trkpt>
      <trkpt lat="45.42248" lon="6.72471">
        <ele>1947</ele>
        <time>2018-06-28T01:11:26Z</time>
      </trkpt>
      <trkpt lat="45.42282" lon="6.72474">
        <ele>1941</ele>
        <time>2018-06-28T01:12:26Z</time>
      </trkpt>
      <trkpt lat="45.42291" lon="6.72489">
        <ele>1943</ele>
        <time>2018-06-28T01:13:26Z</time>
      </trkpt>
      <trkpt lat="45.42305" lon="6.72479">
        <ele>1942</ele>
        <time>2018-06-28T01:14:26Z</time>
      </trkpt>
      <trkpt lat="45.4231" lon="6.72448">
        <ele>1937</ele>
        <time>2018-06-28T01:15:26Z</time>
      </trkpt>
      <trkpt lat="45.4232" lon="6.72414">
        <ele>1922</ele>
        <time>2018-06-28T01:16:26Z</time>
      </trkpt>
      <trkpt lat="45.42343" lon="6.72401">
        <ele>1930</ele>
        <time>2018-06-28T01:17:26Z</time>
      </trkpt>
      <trkpt lat="45.42365" lon="6.72376">
        <ele>1931</ele>
        <time>2018-06-28T01:18:26Z</time>
      </trkpt>
      <trkpt lat="45.42393" lon="6.72345">
        <ele>1934</ele>
        <time>2018-06-28T01:19:26Z</time>
      </trkpt>
      <trkpt lat="45.42426" lon="6.72295">
        <ele>1946</ele>
        <time>2018-06-28T01:20:26Z</time>
      </trkpt>
      <trkpt lat="45.42452" lon="6.72251">
        <ele>1946</ele>
        <time>2018-06-28T01:21:26Z</time>
      </trkpt>
      <trkpt lat="45.42496" lon="6.72195">
        <ele>1942</ele>
        <time>2018-06-28T01:22:26Z</time>
      </trkpt>
      <trkpt lat="45.42511" lon="6.72056">
        <ele>1947</ele>
        <time>2018-06-28T01:23:26Z</time>
      </trkpt>
      <trkpt lat="45.42526" lon="6.72027">
        <ele>1947</ele>
        <time>2018-06-28T01:24:26Z</time>
      </trkpt>
      <trkpt lat="45.42522" lon="6.71987">
        <ele>1932</ele>
        <time>2018-06-28T01:25:26Z</time>
      </trkpt>
      <trkpt lat="45.42534" lon="6.71953">
        <ele>1930</ele>
        <time>2018-06-28T01:26:26Z</time>
      </trkpt>
      <trkpt lat="45.42518" lon="6.71938">
        <ele>1925</ele>
        <time>2018-06-28T01:27:26Z</time>
      </trkpt>
      <trkpt lat="45.42571" lon="6.71915">
        <ele>1921</ele>
        <time>2018-06-28T01:28:26Z</time>
      </trkpt>
      <trkpt lat="45.42612" lon="6.71855">
        <ele>1918</ele>
        <time>2018-06-28T01:29:26Z</time>
      </trkpt>
      <trkpt lat="45.4259" lon="6.71844">
        <ele>1909</ele>
        <time>2018-06-28T01:30:26Z</time>
      </trkpt>
      <trkpt lat="45.42654" lon="6.71769">
        <ele>1884</ele>
        <time>2018-06-28T01:31:26Z</time>
      </trkpt>
      <trkpt lat="45.42782" lon="6.71703">
        <ele>1867</ele>
        <time>2018-06-28T01:32:26Z</time>
      </trkpt>
      <trkpt lat="45.42861" lon="6.71635">
        <ele>1867</ele>
        <time>2018-06-28T01:33:26Z</time>
      </trkpt>
      <trkpt lat="45.42895" lon="6.71531">
        <ele>1836</ele>
        <time>2018-06-28T01:34:26Z</time>
      </trkpt>
      <trkpt lat="45.42906" lon="6.71509">
        <ele>1835</ele>
        <time>2018-06-28T01:35:26Z</time>
      </trkpt>
      <trkpt lat="45.42933" lon="6.71473">
        <ele>1834</ele>
        <time>2018-06-28T01:36:26Z</time>
      </trkpt>
      <trkpt lat="45.42936" lon="6.71458">
        <ele>1831</ele>
        <time>2018-06-28T01:37:26Z</time>
      </trkpt>
      <trkpt lat="45.42982" lon="6.71365">
        <ele>1802</ele>
        <time>2018-06-28T01:38:26Z</time>
      </trkpt>
      <trkpt lat="45.4302" lon="6.71311">
        <ele>1787</ele>
        <time>2018-06-28T01:39:26Z</time>
      </trkpt>
      <trkpt lat="45.4307" lon="6.71249">
        <ele>1765</ele>
        <time>2018-06-28T01:40:26Z</time>
      </trkpt>
      <trkpt lat="45.43067" lon="6.71225">
        <ele>1758</ele>
        <time>2018-06-28T01:41:26Z</time>
      </trkpt>
      <trkpt lat="45.43084" lon="6.71217">
        <ele>1764</ele>
        <time>2018-06-28T01:42:26Z</time>
      </trkpt>
      <trkpt lat="45.43107" lon="6.71207">
        <ele>1763</ele>
        <time>2018-06-28T01:43:26Z</time>
      </trkpt>
      <trkpt lat="45.43133" lon="6.71179">
        <ele>1760</ele>
        <time>2018-06-28T01:44:26Z</time>
      </trkpt>
      <trkpt lat="45.43139" lon="6.71133">
        <ele>1737</ele>
        <time>2018-06-28T01:45:26Z</time>
      </trkpt>
      <trkpt lat="45.43173" lon="6.71127">
        <ele>1748</ele>
        <time>2018-06-28T01:46:26Z</time>
      </trkpt>
      <trkpt lat="45.43179" lon="6.71086">
        <ele>1736</ele>
        <time>2018-06-28T01:47:26Z</time>
      </trkpt>
      <trkpt lat="45.43206" lon="6.71076">
        <ele>1728</ele>
        <time>2018-06-28T01:48:26Z</time>
      </trkpt>
      <trkpt lat="45.43243" lon="6.7113">
        <ele>1756</ele>
        <time>2018-06-28T01:49:26Z</time>
      </trkpt>
      <trkpt lat="45.4331" lon="6.71064">
        <ele>1744</ele>
        <time>2018-06-28T01:50:26Z</time>
      </trkpt>
      <trkpt lat="45.43429" lon="6.7106">
        <ele>1753</ele>
        <time>2018-06-28T01:51:26Z</time>
      </trkpt>
      <trkpt lat="45.43504" lon="6.71076">
        <ele>1749</ele>
        <time>2018-06-28T01:52:26Z</time>
      </trkpt>
      <trkpt lat="45.43607" lon="6.71121">
        <ele>1760</ele>
        <time>2018-06-28T01:53:26Z</time>
      </trkpt>
      <trkpt lat="45.43638" lon="6.71098">
        <ele>1758</ele>
        <time>2018-06-28T01:54:26Z</time>
      </trkpt>
      <trkpt lat="45.43677" lon="6.71078">
        <ele>1758</ele>
        <time>2018-06-28T01:55:26Z</time>
      </trkpt>
      <trkpt lat="45.43711" lon="6.71051">
        <ele>1766</ele>
        <time>2018-06-28T01:56:26Z</time>
      </trkpt>
      <trkpt lat="45.43724" lon="6.71024">
        <ele>1767</ele>
        <time>2018-06-28T01:57:26Z</time>
      </trkpt>
      <trkpt lat="45.43755" lon="6.71003">
        <ele>1784</ele>
        <time>2018-06-28T01:58:26Z</time>
      </trkpt>
      <trkpt lat="45.43789" lon="6.70891">
        <ele>1800</ele>
        <time>2018-06-28T01:59:26Z</time>
      </trkpt>
      <trkpt lat="45.43804" lon="6.70894">
        <ele>1807</ele>
        <time>2018-06-28T02:00:26Z</time>
      </trkpt>
      <trkpt lat="45.43834" lon="6.70921">
        <ele>1839</ele>
        <time>2018-06-28T02:01:26Z</time>
      </trkpt>
      <trkpt lat="45.43885" lon="6.70909">
        <ele>1868</ele>
        <time>2018-06-28T02:02:26Z</time>
      </trkpt>
      <trkpt lat="45.43891" lon="6.70876">
        <ele>1867</ele>
        <time>2018-06-28T02:03:26Z</time>
      </trkpt>
      <trkpt lat="45.43899" lon="6.70906">
        <ele>1876</ele>
        <time>2018-06-28T02:04:26Z</time>
      </trkpt>
      <trkpt lat="45.43917" lon="6.70871">
        <ele>1899</ele>
        <time>2018-06-28T02:05:26Z</time>
      </trkpt>
      <trkpt lat="45.43937" lon="6.70907">
        <ele>1902</ele>
        <time>2018-06-28T02:06:26Z</time>
      </trkpt>
      <trkpt lat="45.43952" lon="6.7092">
        <ele>1911</ele>
        <time>2018-06-28T02:07:26Z</time>
      </trkpt>
      <trkpt lat="45.43967" lon="6.70932">
        <ele>1915</ele>
        <time>2018-06-28T02:08:26Z</time>
      </trkpt>
      <trkpt lat="45.4397" lon="6.7096">
        <ele>1917</ele>
        <time>2018-06-28T02:09:26Z</time>
      </trkpt>
      <trkpt lat="45.4398" lon="6.70979">
        <ele>1921</ele>
        <time>2018-06-28T02:10:26Z</time>
      </trkpt>
      <trkpt lat="45.44009" lon="6.70999">
        <ele>1930</ele>
        <time>2018-06-28T02:11:26Z</time>
      </trkpt>
      <trkpt lat="45.44059" lon="6.71">
        <ele>1921</ele>
        <time>2018-06-28T02:12:26Z</time>
      </trkpt>
      <trkpt lat="45.44086" lon="6.7103">
        <ele>1920</ele>
        <time>2018-06-28T02:13:26Z</time>
      </trkpt>
      <trkpt lat="45.4412" lon="6.71066">
        <ele>1919</ele>
        <time>2018-06-28T02:14:26Z</time>
      </trkpt>
      <trkpt lat="45.44144" lon="6.71047">
        <ele>1913</ele>
        <time>2018-06-28T02:15:26Z</time>
      </trkpt>
      <trkpt lat="45.44169" lon="6.71106">
        <ele>1895</ele>
        <time>2018-06-28T02:16:26Z</time>
      </trkpt>
      <trkpt lat="45.4424" lon="6.71201">
        <ele>1888</ele>
        <time>2018-06-28T02:17:26Z</time>
      </trkpt>
      <trkpt lat="45.44281" lon="6.71274">
        <ele>1868</ele>
        <time>2018-06-28T02:18:26Z</time>
      </trkpt>
      <trkpt lat="45.44328" lon="6.71303">
        <ele>1860</ele>
        <time>2018-06-28T02:19:26Z</time>
      </trkpt>
      <trkpt lat="45.44355" lon="6.71351">
        <ele>1851</ele>
        <time>2018-06-28T02:20:26Z</time>
      </trkpt>
      <trkpt lat="45.444" lon="6.71369">
        <ele>1845</ele>
        <time>2018-06-28T02:21:26Z</time>
      </trkpt>
      <trkpt lat="45.44435" lon="6.71378">
        <ele>1832</ele>
        <time>2018-06-28T02:22:26Z</time>
      </trkpt>
      <trkpt lat="45.44461" lon="6.71363">
        <ele>1828</ele>
        <time>2018-06-28T02:23:26Z</time>
      </trkpt>
      <trkpt lat="45.44458" lon="6.71346">
        <ele>1825</ele>
        <time>2018-06-28T02:24:26Z</time>
      </trkpt>
      <trkpt lat="45.44489" lon="6.71348">
        <ele>1820</ele>
        <time>2018-06-28T02:25:26Z</time>
      </trkpt>
      <trkpt lat="45.44503" lon="6.71322">
        <ele>1798</ele>
        <time>2018-06-28T02:26:26Z</time>
      </trkpt>
      <trkpt lat="45.44484" lon="6.71304">
        <ele>1801</ele>
        <time>2018-06-28T02:27:26Z</time>
      </trkpt>
      <trkpt lat="45.44535" lon="6.713">
        <ele>1783</ele>
        <time>2018-06-28T02:28:26Z</time>
      </trkpt>
      <trkpt lat="45.44523" lon="6.71255">
        <ele>1777</ele>
        <time>2018-06-28T02:29:26Z</time>
      </trkpt>
      <trkpt lat="45.44543" lon="6.71251">
        <ele>1774</ele>
        <time>2018-06-28T02:30:26Z</time>
      </trkpt>
      <trkpt lat="45.44527" lon="6.71215">
        <ele>1756</ele>
        <time>2018-06-28T02:31:26Z</time>
      </trkpt>
      <trkpt lat="45.44533" lon="6.712">
        <ele>1753</ele>
        <time>2018-06-28T02:32:26Z</time>
      </trkpt>
      <trkpt lat="45.44545" lon="6.71191">
        <ele>1751</ele>
        <time>2018-06-28T02:33:26Z</time>
      </trkpt>
      <trkpt lat="45.44554" lon="6.71175">
        <ele>1747</ele>
        <time>2018-06-28T02:34:26Z</time>
      </trkpt>
      <trkpt lat="45.44571" lon="6.71169">
        <ele>1740</ele>
        <time>2018-06-28T02:35:26Z</time>
      </trkpt>
      <trkpt lat="45.44581" lon="6.71149">
        <ele>1733</ele>
        <time>2018-06-28T02:36:26Z</time>
      </trkpt>
      <trkpt lat="45.4459" lon="6.71163">
        <ele>1726</ele>
        <time>2018-06-28T02:37:26Z</time>
      </trkpt>
      <trkpt lat="45.44641" lon="6.7115">
        <ele>1710</ele>
        <time>2018-06-28T02:38:26Z</time>
      </trkpt>
      <trkpt lat="45.44647" lon="6.71116">
        <ele>1706</ele>
        <time>2018-06-28T02:39:26Z</time>
      </trkpt>
      <trkpt lat="45.44665" lon="6.71056">
        <ele>1695</ele>
        <time>2018-06-28T02:40:26Z</time>
      </trkpt>
      <trkpt lat="45.44679" lon="6.71039">
        <ele>1681</ele>
        <time>2018-06-28T02:41:26Z</time>
      </trkpt>
      <trkpt lat="45.44705" lon="6.71035">
        <ele>1679</ele>
        <time>2018-06-28T02:42:26Z</time>
      </trkpt>
      <trkpt lat="45.44712" lon="6.71097">
        <ele>1685</ele>
        <time>2018-06-28T02:43:26Z</time>
      </trkpt>
      <trkpt lat="45.44751" lon="6.71135">
        <ele>1669</ele>
        <time>2018-06-28T02:44:26Z</time>
      </trkpt>
      <trkpt lat="45.44762" lon="6.71157">
        <ele>1672</ele>
        <time>2018-06-28T02:45:26Z</time>
      </trkpt>
      <trkpt lat="45.44795" lon="6.71165">
        <ele>1663</ele>
        <time>2018-06-28T02:46:26Z</time>
      </trkpt>
      <trkpt lat="45.4479" lon="6.71209">
        <ele>1669</ele>
        <time>2018-06-28T02:47:26Z</time>
      </trkpt>
      <trkpt lat="45.44844" lon="6.71251">
        <ele>1649</ele>
        <time>2018-06-28T02:48:26Z</time>
      </trkpt>
      <trkpt lat="45.44912" lon="6.7132">
        <ele>1632</ele>
        <time>2018-06-28T02:49:26Z</time>
      </trkpt>
      <trkpt lat="45.44932" lon="6.71357">
        <ele>1621</ele>
        <time>2018-06-28T02:50:26Z</time>
      </trkpt>
      <trkpt lat="45.44979" lon="6.71385">
        <ele>1613</ele>
        <time>2018-06-28T02:51:26Z</time>
      </trkpt>
      <trkpt lat="45.4497" lon="6.71346">
        <ele>1609</ele>
        <time>2018-06-28T02:52:26Z</time>
      </trkpt>
      <trkpt lat="45.44957" lon="6.7132">
        <ele>1601</ele>
        <time>2018-06-28T02:53:26Z</time>
      </trkpt>
      <trkpt lat="45.4501" lon="6.71352">
        <ele>1579</ele>
        <time>2018-06-28T02:54:26Z</time>
      </trkpt>
      <trkpt lat="45.45037" lon="6.71428">
        <ele>1592</ele>
        <time>2018-06-28T02:55:26Z</time>
      </trkpt>
      <trkpt lat="45.45066" lon="6.71457">
        <ele>1587</ele>
        <time>2018-06-28T02:56:26Z</time>
      </trkpt>
      <trkpt lat="45.45104" lon="6.71469">
        <ele>1572</ele>
        <time>2018-06-28T02:57:26Z</time>
      </trkpt>
      <trkpt lat="45.45167" lon="6.71426">
        <ele>1550</ele>
        <time>2018-06-28T02:58:26Z</time>
      </trkpt>
      <trkpt lat="45.45234" lon="6.71398">
        <ele>1529</ele>
        <time>2018-06-28T02:59:26Z</time>
      </trkpt>
      <trkpt lat="45.45301" lon="6.71403">
        <ele>1514</ele>
        <time>2018-06-28T03:00:26Z</time>
      </trkpt>
      <trkpt lat="45.45326" lon="6.71423">
        <ele>1529</ele>
        <time>2018-06-28T03:01:26Z</time>
      </trkpt>
      <trkpt lat="45.45364" lon="6.71421">
        <ele>1531</ele>
        <time>2018-06-28T03:02:26Z</time>
      </trkpt>
      <trkpt lat="45.45442" lon="6.71434">
        <ele>1527</ele>
        <time>2018-06-28T03:03:26Z</time>
      </trkpt>
      <trkpt lat="45.45466" lon="6.71429">
        <ele>1526</ele>
        <time>2018-06-28T03:04:26Z</time>
      </trkpt>
      <trkpt lat="45.45539" lon="6.71445">
        <ele>1517</ele>
        <time>2018-06-28T03:05:26Z</time>
      </trkpt>
      <trkpt lat="45.45571" lon="6.71458">
        <ele>1518</ele>
        <time>2018-06-28T03:06:26Z</time>
      </trkpt>
      <trkpt lat="45.45626" lon="6.71453">
        <ele>1488</ele>
        <time>2018-06-28T03:07:26Z</time>
      </trkpt>
      <trkpt lat="45.45658" lon="6.71503">
        <ele>1506</ele>
        <time>2018-06-28T03:08:26Z</time>
      </trkpt>
      <trkpt lat="45.4568" lon="6.71565">
        <ele>1501</ele>
        <time>2018-06-28T03:09:26Z</time>
      </trkpt>
      <trkpt lat="45.45694" lon="6.71634">
        <ele>1520</ele>
        <time>2018-06-28T03:10:26Z</time>
      </trkpt>
      <trkpt lat="45.45714" lon="6.71647">
        <ele>1513</ele>
        <time>2018-06-28T03:11:26Z</time>
      </trkpt>
      <trkpt lat="45.45719" lon="6.71628">
        <ele>1508</ele>
        <time>2018-06-28T03:12:26Z</time>
      </trkpt>
      <trkpt lat="45.45737" lon="6.71651">
        <ele>1502</ele>
        <time>2018-06-28T03:13:26Z</time>
      </trkpt>
      <trkpt lat="45.45757" lon="6.71727">
        <ele>1493</ele>
        <time>2018-06-28T03:14:26Z</time>
      </trkpt>
      <trkpt lat="45.45786" lon="6.71806">
        <ele>1492</ele>
        <time>2018-06-28T03:15:26Z</time>
      </trkpt>
      <trkpt lat="45.4579" lon="6.71851">
        <ele>1493</ele>
        <time>2018-06-28T03:16:26Z</time>
      </trkpt>
      <trkpt lat="45.45814" lon="6.71879">
        <ele>1484</ele>
        <time>2018-06-28T03:17:26Z</time>
      </trkpt>
      <trkpt lat="45.45817" lon="6.71956">
        <ele>1480</ele>
        <time>2018-06-28T03:18:26Z</time>
      </trkpt>
      <trkpt lat="45.45823" lon="6.72001">
        <ele>1463</ele>
        <time>2018-06-28T03:19:26Z</time>
      </trkpt>
      <trkpt lat="45.45826" lon="6.72032">
        <ele>1472</ele>
        <time>2018-06-28T03:20:26Z</time>
      </trkpt>
      <trkpt lat="45.45814" lon="6.72062">
        <ele>1472</ele>
        <time>2018-06-28T03:21:26Z</time>
      </trkpt>
      <trkpt lat="45.45817" lon="6.72122">
        <ele>1471</ele>
        <time>2018-06-28T03:22:26Z</time>
      </trkpt>
      <trkpt lat="45.4582" lon="6.7219">
        <ele>1468</ele>
        <time>2018-06-28T03:23:26Z</time>
      </trkpt>
      <trkpt lat="45.45834" lon="6.72255">
        <ele>1451</ele>
        <time>2018-06-28T03:24:26Z</time>
      </trkpt>
      <trkpt lat="45.45842" lon="6.72309">
        <ele>1450</ele>
        <time>2018-06-28T03:25:26Z</time>
      </trkpt>
      <trkpt lat="45.45853" lon="6.72327">
        <ele>1450</ele>
        <time>2018-06-28T03:26:26Z</time>
      </trkpt>
      <trkpt lat="45.45852" lon="6.7238">
        <ele>1450</ele>
        <time>2018-06-28T03:27:26Z</time>
      </trkpt>
      <trkpt lat="45.45852" lon="6.72443">
        <ele>1452</ele>
        <time>2018-06-28T03:28:26Z</time>
      </trkpt>
      <trkpt lat="45.45854" lon="6.725">
        <ele>1455</ele>
        <time>2018-06-28T03:29:26Z</time>
      </trkpt>
      <trkpt lat="45.45875" lon="6.72546">
        <ele>1455</ele>
        <time>2018-06-28T03:30:26Z</time>
      </trkpt>
      <trkpt lat="45.45872" lon="6.726">
        <ele>1455</ele>
        <time>2018-06-28T03:31:26Z</time>
      </trkpt>
      <trkpt lat="45.45846" lon="6.72652">
        <ele>1456</ele>
        <time>2018-06-28T03:32:26Z</time>
      </trkpt>
      <trkpt lat="45.45835" lon="6.72744">
        <ele>1455</ele>
        <time>2018-06-28T03:33:26Z</time>
      </trkpt>
      <trkpt lat="45.45828" lon="6.72784">
        <ele>1470</ele>
        <time>2018-06-28T03:34:26Z</time>
      </trkpt>
      <trkpt lat="45.45832" lon="6.72866">
        <ele>1471</ele>
        <time>2018-06-28T03:35:26Z</time>
      </trkpt>
      <trkpt lat="45.45842" lon="6.72934">
        <ele>1457</ele>
        <time>2018-06-28T03:36:26Z</time>
      </trkpt>
      <trkpt lat="45.45855" lon="6.72995">
        <ele>1460</ele>
        <time>2018-06-28T03:37:26Z</time>
      </trkpt>
      <trkpt lat="45.45872" lon="6.73048">
        <ele>1461</ele>
        <time>2018-06-28T03:38:26Z</time>
      </trkpt>
      <trkpt lat="45.45915" lon="6.73039">
        <ele>1458</ele>
        <time>2018-06-28T03:39:26Z</time>
      </trkpt>
      <trkpt lat="45.45927" lon="6.73069">
        <ele>1455</ele>
        <time>2018-06-28T03:40:26Z</time>
      </trkpt>
      <trkpt lat="45.45927" lon="6.73155">
        <ele>1455</ele>
        <time>2018-06-28T03:41:26Z</time>
      </trkpt>
      <trkpt lat="45.4593" lon="6.73241">
        <ele>1455</ele>
        <time>2018-06-28T03:42:26Z</time>
      </trkpt>
      <trkpt lat="45.45936" lon="6.73297">
        <ele>1457</ele>
        <time>2018-06-28T03:43:26Z</time>
      </trkpt>
      <trkpt lat="45.45939" lon="6.73367">
        <ele>1458</ele>
        <time>2018-06-28T03:44:26Z</time>
      </trkpt>
      <trkpt lat="45.45955" lon="6.73411">
        <ele>1458</ele>
        <time>2018-06-28T03:45:26Z</time>
      </trkpt>
      <trkpt lat="45.45974" lon="6.73485">
        <ele>1458</ele>
        <time>2018-06-28T03:46:26Z</time>
      </trkpt>
      <trkpt lat="45.45966" lon="6.73562">
        <ele>1457</ele>
        <time>2018-06-28T03:47:26Z</time>
      </trkpt>
      <trkpt lat="45.45972" lon="6.73642">
        <ele>1459</ele>
        <time>2018-06-28T03:48:26Z</time>
      </trkpt>
      <trkpt lat="45.45978" lon="6.73784">
        <ele>1463</ele>
        <time>2018-06-28T03:49:26Z</time>
      </trkpt>
      <trkpt lat="45.45972" lon="6.7388">
        <ele>1464</ele>
        <time>2018-06-28T03:50:26Z</time>
      </trkpt>
      <trkpt lat="45.46008" lon="6.73955">
        <ele>1466</ele>
        <time>2018-06-28T03:51:26Z</time>
      </trkpt>
      <trkpt lat="45.46058" lon="6.73978">
        <ele>1466</ele>
        <time>2018-06-28T03:52:26Z</time>
      </trkpt>
      <trkpt lat="45.45956" lon="6.74287">
        <ele>1469</ele>
        <time>2018-06-28T03:53:26Z</time>
      </trkpt>
      <trkpt lat="45.45898" lon="6.74431">
        <ele>1469</ele>
        <time>2018-06-28T03:54:26Z</time>
      </trkpt>
      <trkpt lat="45.45801" lon="6.74437">
        <ele>1481</ele>
        <time>2018-06-28T03:55:26Z</time>
      </trkpt>
      <trkpt lat="45.4578" lon="6.7448">
        <ele>1483</ele>
        <time>2018-06-28T03:56:26Z</time>
      </trkpt>
      <trkpt lat="45.45765" lon="6.74545">
        <ele>1479</ele>
        <time>2018-06-28T03:57:26Z</time>
      </trkpt>
      <trkpt lat="45.4575" lon="6.74605">
        <ele>1478</ele>
        <time>2018-06-28T03:58:26Z</time>
      </trkpt>
      <trkpt lat="45.45717" lon="6.74673">
        <ele>1490</ele>
        <time>2018-06-28T03:59:26Z</time>
      </trkpt>
      <trkpt lat="45.45665" lon="6.7476">
        <ele>1499</ele>
        <time>2018-06-28T04:00:26Z</time>
      </trkpt>
      <trkpt lat="45.45618" lon="6.74861">
        <ele>1496</ele>
        <time>2018-06-28T04:01:26Z</time>
      </trkpt>
      <trkpt lat="45.45589" lon="6.74929">
        <ele>1491</ele>
        <time>2018-06-28T04:02:26Z</time>
      </trkpt>
      <trkpt lat="45.45556" lon="6.75083">
        <ele>1491</ele>
        <time>2018-06-28T04:03:26Z</time>
      </trkpt>
      <trkpt lat="45.45527" lon="6.75182">
        <ele>1496</ele>
        <time>2018-06-28T04:04:26Z</time>
      </trkpt>
      <trkpt lat="45.45515" lon="6.75373">
        <ele>1492</ele>
        <time>2018-06-28T04:05:26Z</time>
      </trkpt>
      <trkpt lat="45.45518" lon="6.75543">
        <ele>1499</ele>
        <time>2018-06-28T04:06:26Z</time>
      </trkpt>
      <trkpt lat="45.45515" lon="6.75736">
        <ele>1510</ele>
        <time>2018-06-28T04:07:26Z</time>
      </trkpt>
      <trkpt lat="45.45502" lon="6.75868">
        <ele>1518</ele>
        <time>2018-06-28T04:08:26Z</time>
      </trkpt>
      <trkpt lat="45.45473" lon="6.75958">
        <ele>1519</ele>
        <time>2018-06-28T04:09:26Z</time>
      </trkpt>
      <trkpt lat="45.45403" lon="6.76019">
        <ele>1518</ele>
        <time>2018-06-28T04:10:26Z</time>
      </trkpt>
      <trkpt lat="45.4536" lon="6.76037">
        <ele>1520</ele>
        <time>2018-06-28T04:11:26Z</time>
      </trkpt>
      <trkpt lat="45.45313" lon="6.76093">
        <ele>1531</ele>
        <time>2018-06-28T04:12:26Z</time>
      </trkpt>
      <trkpt lat="45.45277" lon="6.762">
        <ele>1539</ele>
        <time>2018-06-28T04:13:26Z</time>
      </trkpt>
      <trkpt lat="45.45267" lon="6.76364">
        <ele>1547</ele>
        <time>2018-06-28T04:14:26Z</time>
      </trkpt>
      <trkpt lat="45.45286" lon="6.76488">
        <ele>1552</ele>
        <time>2018-06-28T04:15:26Z</time>
      </trkpt>
      <trkpt lat="45.45286" lon="6.76618">
        <ele>1556</ele>
        <time>2018-06-28T04:16:26Z</time>
      </trkpt>
      <trkpt lat="45.45256" lon="6.76802">
        <ele>1555</ele>
        <time>2018-06-28T04:17:26Z</time>
      </trkpt>
      <trkpt lat="45.45217" lon="6.77012">
        <ele>1563</ele>
        <time>2018-06-28T04:18:26Z</time>
      </trkpt>
      <trkpt lat="45.45194" lon="6.77093">
        <ele>1564</ele>
        <time>2018-06-28T04:19:26Z</time>
      </trkpt>
      <trkpt lat="45.45156" lon="6.77178">
        <ele>1567</ele>
        <time>2018-06-28T04:20:26Z</time>
      </trkpt>
      <trkpt lat="45.45136" lon="6.77232">
        <ele>1567</ele>
        <time>2018-06-28T04:21:26Z</time>
      </trkpt>
      <trkpt lat="45.4507" lon="6.77315">
        <ele>1573</ele>
        <time>2018-06-28T04:22:26Z</time>
      </trkpt>
      <trkpt lat="45.45054" lon="6.77362">
        <ele>1567</ele>
        <time>2018-06-28T04:23:26Z</time>
      </trkpt>
      <trkpt lat="45.45049" lon="6.77492">
        <ele>1560</ele>
        <time>2018-06-28T04:24:26Z</time>
      </trkpt>
      <trkpt lat="45.45003" lon="6.77629">
        <ele>1560</ele>
        <time>2018-06-28T04:25:26Z</time>
      </trkpt>
      <trkpt lat="45.44965" lon="6.77775">
        <ele>1562</ele>
        <time>2018-06-28T04:26:26Z</time>
      </trkpt>
      <trkpt lat="45.44935" lon="6.7782">
        <ele>1562</ele>
        <time>2018-06-28T04:27:26Z</time>
      </trkpt>
      <trkpt lat="45.44874" lon="6.77865">
        <ele>1562</ele>
        <time>2018-06-28T04:28:26Z</time>
      </trkpt>
      <trkpt lat="45.44863" lon="6.77941">
        <ele>1567</ele>
        <time>2018-06-28T04:29:26Z</time>
      </trkpt>
      <trkpt lat="45.44856" lon="6.78002">
        <ele>1572</ele>
        <time>2018-06-28T04:30:26Z</time>
      </trkpt>
      <trkpt lat="45.4486" lon="6.78053">
        <ele>1574</ele>
        <time>2018-06-28T04:31:26Z</time>
      </trkpt>
      <trkpt lat="45.44821" lon="6.78112">
        <ele>1573</ele>
        <time>2018-06-28T04:32:26Z</time>
      </trkpt>
      <trkpt lat="45.44783" lon="6.78154">
        <ele>1574</ele>
        <time>2018-06-28T04:33:26Z</time>
      </trkpt>
      <trkpt lat="45.4475" lon="6.78183">
        <ele>1577</ele>
        <time>2018-06-28T04:34:26Z</time>
      </trkpt>
      <trkpt lat="45.44732" lon="6.78197">
        <ele>1579</ele>
        <time>2018-06-28T04:35:26Z</time>
      </trkpt>
      <trkpt lat="45.447" lon="6.78222">
        <ele>1581</ele>
        <time>2018-06-28T04:36:26Z</time>
      </trkpt>
      <trkpt lat="45.44644" lon="6.78273">
        <ele>1588</ele>
        <time>2018-06-28T04:37:26Z</time>
      </trkpt>
      <trkpt lat="45.44601" lon="6.7834">
        <ele>1597</ele>
        <time>2018-06-28T04:38:26Z</time>
      </trkpt>
      <trkpt lat="45.44537" lon="6.78406">
        <ele>1600</ele>
        <time>2018-06-28T04:39:26Z</time>
      </trkpt>
      <trkpt lat="45.44468" lon="6.78439">
        <ele>1613</ele>
        <time>2018-06-28T04:40:26Z</time>
      </trkpt>
      <trkpt lat="45.44396" lon="6.78484">
        <ele>1623</ele>
        <time>2018-06-28T04:41:26Z</time>
      </trkpt>
      <trkpt lat="45.44354" lon="6.785">
        <ele>1632</ele>
        <time>2018-06-28T04:42:26Z</time>
      </trkpt>
      <trkpt lat="45.44306" lon="6.78533">
        <ele>1634</ele>
        <time>2018-06-28T04:43:26Z</time>
      </trkpt>
      <trkpt lat="45.44294" lon="6.78581">
        <ele>1639</ele>
        <time>2018-06-28T04:44:26Z</time>
      </trkpt>
      <trkpt lat="45.44239" lon="6.78625">
        <ele>1649</ele>
        <time>2018-06-28T04:45:26Z</time>
      </trkpt>
      <trkpt lat="45.44178" lon="6.7867">
        <ele>1657</ele>
        <time>2018-06-28T04:46:26Z</time>
      </trkpt>
      <trkpt lat="45.44131" lon="6.78695">
        <ele>1659</ele>
        <time>2018-06-28T04:47:26Z</time>
      </trkpt>
      <trkpt lat="45.44102" lon="6.78711">
        <ele>1660</ele>
        <time>2018-06-28T04:48:26Z</time>
      </trkpt>
      <trkpt lat="45.44064" lon="6.78764">
        <ele>1668</ele>
        <time>2018-06-28T04:49:26Z</time>
      </trkpt>
      <trkpt lat="45.44003" lon="6.78785">
        <ele>1670</ele>
        <time>2018-06-28T04:50:26Z</time>
      </trkpt>
      <trkpt lat="45.43958" lon="6.78805">
        <ele>1670</ele>
        <time>2018-06-28T04:51:26Z</time>
      </trkpt>
      <trkpt lat="45.43927" lon="6.78854">
        <ele>1682</ele>
        <time>2018-06-28T04:52:26Z</time>
      </trkpt>
      <trkpt lat="45.43904" lon="6.78901">
        <ele>1684</ele>
        <time>2018-06-28T04:53:26Z</time>
      </trkpt>
      <trkpt lat="45.43864" lon="6.78975">
        <ele>1697</ele>
        <time>2018-06-28T04:54:26Z</time>
      </trkpt>
      <trkpt lat="45.43861" lon="6.79052">
        <ele>1715</ele>
        <time>2018-06-28T04:55:26Z</time>
      </trkpt>
      <trkpt lat="45.43878" lon="6.79063">
        <ele>1718</ele>
        <time>2018-06-28T04:56:26Z</time>
      </trkpt>
      <trkpt lat="45.43887" lon="6.79096">
        <ele>1734</ele>
        <time>2018-06-28T04:57:26Z</time>
      </trkpt>
      <trkpt lat="45.43904" lon="6.79125">
        <ele>1739</ele>
        <time>2018-06-28T04:58:26Z</time>
      </trkpt>
      <trkpt lat="45.43942" lon="6.79197">
        <ele>1787</ele>
        <time>2018-06-28T04:59:26Z</time>
      </trkpt>
      <trkpt lat="45.43936" lon="6.79221">
        <ele>1791</ele>
        <time>2018-06-28T05:00:26Z</time>
      </trkpt>
      <trkpt lat="45.43904" lon="6.79238">
        <ele>1781</ele>
        <time>2018-06-28T05:01:26Z</time>
      </trkpt>
      <trkpt lat="45.43855" lon="6.79268">
        <ele>1798</ele>
        <time>2018-06-28T05:02:26Z</time>
      </trkpt>
      <trkpt lat="45.43849" lon="6.79283">
        <ele>1803</ele>
        <time>2018-06-28T05:03:26Z</time>
      </trkpt>
      <trkpt lat="45.43853" lon="6.79296">
        <ele>1808</ele>
        <time>2018-06-28T05:04:26Z</time>
      </trkpt>
      <trkpt lat="45.43832" lon="6.79347">
        <ele>1827</ele>
        <time>2018-06-28T05:05:26Z</time>
      </trkpt>
      <trkpt lat="45.43769" lon="6.79411">
        <ele>1831</ele>
        <time>2018-06-28T05:06:26Z</time>
      </trkpt>
      <trkpt lat="45.43762" lon="6.79441">
        <ele>1852</ele>
        <time>2018-06-28T05:07:26Z</time>
      </trkpt>
      <trkpt lat="45.43737" lon="6.79493">
        <ele>1847</ele>
        <time>2018-06-28T05:08:26Z</time>
      </trkpt>
      <trkpt lat="45.43703" lon="6.79567">
        <ele>1862</ele>
        <time>2018-06-28T05:09:26Z</time>
      </trkpt>
      <trkpt lat="45.43692" lon="6.79604">
        <ele>1881</ele>
        <time>2018-06-28T05:10:26Z</time>
      </trkpt>
      <trkpt lat="45.4367" lon="6.79611">
        <ele>1878</ele>
        <time>2018-06-28T05:11:26Z</time>
      </trkpt>
      <trkpt lat="45.43644" lon="6.79661">
        <ele>1868</ele>
        <time>2018-06-28T05:12:26Z</time>
      </trkpt>
      <trkpt lat="45.43606" lon="6.79704">
        <ele>1878</ele>
        <time>2018-06-28T05:13:26Z</time>
      </trkpt>
      <trkpt lat="45.4358" lon="6.79763">
        <ele>1878</ele>
        <time>2018-06-28T05:14:26Z</time>
      </trkpt>
      <trkpt lat="45.4353" lon="6.79842">
        <ele>1888</ele>
        <time>2018-06-28T05:15:26Z</time>
      </trkpt>
      <trkpt lat="45.4352" lon="6.79886">
        <ele>1890</ele>
        <time>2018-06-28T05:16:26Z</time>
      </trkpt>
      <trkpt lat="45.43531" lon="6.79962">
        <ele>1900</ele>
        <time>2018-06-28T05:17:26Z</time>
      </trkpt>
      <trkpt lat="45.43509" lon="6.80007">
        <ele>1894</ele>
        <time>2018-06-28T05:18:26Z</time>
      </trkpt>
      <trkpt lat="45.43497" lon="6.80039">
        <ele>1886</ele>
        <time>2018-06-28T05:19:26Z</time>
      </trkpt>
      <trkpt lat="45.43483" lon="6.8008">
        <ele>1890</ele>
        <time>2018-06-28T05:20:26Z</time>
      </trkpt>
      <trkpt lat="45.43471" lon="6.80122">
        <ele>1893</ele>
        <time>2018-06-28T05:21:26Z</time>
      </trkpt>
      <trkpt lat="45.43474" lon="6.80148">
        <ele>1895</ele>
        <time>2018-06-28T05:22:26Z</time>
      </trkpt>
      <trkpt lat="45.43448" lon="6.80254">
        <ele>1911</ele>
        <time>2018-06-28T05:23:26Z</time>
      </trkpt>
      <trkpt lat="45.43417" lon="6.80292">
        <ele>1913</ele>
        <time>2018-06-28T05:24:26Z</time>
      </trkpt>
      <trkpt lat="45.4339" lon="6.80361">
        <ele>1911</ele>
        <time>2018-06-28T05:25:26Z</time>
      </trkpt>
      <trkpt lat="45.43381" lon="6.80402">
        <ele>1913</ele>
        <time>2018-06-28T05:26:26Z</time>
      </trkpt>
      <trkpt lat="45.43375" lon="6.80467">
        <ele>1923</ele>
        <time>2018-06-28T05:27:26Z</time>
      </trkpt>
      <trkpt lat="45.43391" lon="6.80488">
        <ele>1928</ele>
        <time>2018-06-28T05:28:26Z</time>
      </trkpt>
      <trkpt lat="45.43368" lon="6.806">
        <ele>1941</ele>
        <time>2018-06-28T05:29:26Z</time>
      </trkpt>
      <trkpt lat="45.43364" lon="6.80679">
        <ele>1955</ele>
        <time>2018-06-28T05:30:26Z</time>
      </trkpt>
      <trkpt lat="45.43322" lon="6.80757">
        <ele>1950</ele>
        <time>2018-06-28T05:31:26Z</time>
      </trkpt>
      <trkpt lat="45.43312" lon="6.8079">
        <ele>1950</ele>
        <time>2018-06-28T05:32:26Z</time>
      </trkpt>
      <trkpt lat="45.43318" lon="6.80839">
        <ele>1971</ele>
        <time>2018-06-28T05:33:26Z</time>
      </trkpt>
      <trkpt lat="45.43308" lon="6.80887">
        <ele>1974</ele>
        <time>2018-06-28T05:34:26Z</time>
      </trkpt>
      <trkpt lat="45.43275" lon="6.80945">
        <ele>1988</ele>
        <time>2018-06-28T05:35:26Z</time>
      </trkpt>
      <trkpt lat="45.43245" lon="6.81019">
        <ele>1984</ele>
        <time>2018-06-28T05:36:26Z</time>
      </trkpt>
      <trkpt lat="45.43225" lon="6.81069">
        <ele>1987</ele>
        <time>2018-06-28T05:37:26Z</time>
      </trkpt>
      <trkpt lat="45.43211" lon="6.81128">
        <ele>1994</ele>
        <time>2018-06-28T05:38:26Z</time>
      </trkpt>
      <trkpt lat="45.43196" lon="6.81197">
        <ele>2001</ele>
        <time>2018-06-28T05:39:26Z</time>
      </trkpt>
      <trkpt lat="45.43188" lon="6.81268">
        <ele>2007</ele>
        <time>2018-06-28T05:40:26Z</time>
      </trkpt>
      <trkpt lat="45.43187" lon="6.81324">
        <ele>2010</ele>
        <time>2018-06-28T05:41:26Z</time>
      </trkpt>
      <trkpt lat="45.43226" lon="6.81379">
        <ele>2026</ele>
        <time>2018-06-28T05:42:26Z</time>
      </trkpt>
      <trkpt lat="45.43232" lon="6.81418">
        <ele>2037</ele>
        <time>2018-06-28T05:43:26Z</time>
      </trkpt>
      <trkpt lat="45.43247" lon="6.81506">
        <ele>2047</ele>
        <time>2018-06-28T05:44:26Z</time>
      </trkpt>
      <trkpt lat="45.43247" lon="6.81559">
        <ele>2048</ele>
        <time>2018-06-28T05:45:26Z</time>
      </trkpt>
      <trkpt lat="45.43273" lon="6.81638">
        <ele>2061</ele>
        <time>2018-06-28T05:46:26Z</time>
      </trkpt>
      <trkpt lat="45.43277" lon="6.81597">
        <ele>2063</ele>
        <time>2018-06-28T05:47:26Z</time>
      </trkpt>
      <trkpt lat="45.43298" lon="6.81603">
        <ele>2067</ele>
        <time>2018-06-28T05:48:26Z</time>
      </trkpt>
      <trkpt lat="45.43309" lon="6.81578">
        <ele>2072</ele>
        <time>2018-06-28T05:49:26Z</time>
      </trkpt>
      <trkpt lat="45.43326" lon="6.81529">
        <ele>2071</ele>
        <time>2018-06-28T05:50:26Z</time>
      </trkpt>
      <trkpt lat="45.43345" lon="6.81493">
        <ele>2083</ele>
        <time>2018-06-28T05:51:26Z</time>
      </trkpt>
      <trkpt lat="45.43372" lon="6.81497">
        <ele>2089</ele>
        <time>2018-06-28T05:52:26Z</time>
      </trkpt>
      <trkpt lat="45.43413" lon="6.81468">
        <ele>2094</ele>
        <time>2018-06-28T05:53:26Z</time>
      </trkpt>
      <trkpt lat="45.43447" lon="6.81433">
        <ele>2119</ele>
        <time>2018-06-28T05:54:26Z</time>
      </trkpt>
      <trkpt lat="45.43459" lon="6.81373">
        <ele>2126</ele>
        <time>2018-06-28T05:55:26Z</time>
      </trkpt>
      <trkpt lat="45.43464" lon="6.81356">
        <ele>2128</ele>
        <time>2018-06-28T05:56:26Z</time>
      </trkpt>
      <trkpt lat="45.43478" lon="6.81279">
        <ele>2135</ele>
        <time>2018-06-28T05:57:26Z</time>
      </trkpt>
      <trkpt lat="45.43486" lon="6.81242">
        <ele>2140</ele>
        <time>2018-06-28T05:58:26Z</time>
      </trkpt>
      <trkpt lat="45.43491" lon="6.81186">
        <ele>2136</ele>
        <time>2018-06-28T05:59:26Z</time>
      </trkpt>
      <trkpt lat="45.43501" lon="6.81191">
        <ele>2152</ele>
        <time>2018-06-28T06:00:26Z</time>
      </trkpt>
      <trkpt lat="45.43515" lon="6.81189">
        <ele>2153</ele>
        <time>2018-06-28T06:01:26Z</time>
      </trkpt>
      <trkpt lat="45.4352" lon="6.81233">
        <ele>2156</ele>
        <time>2018-06-28T06:02:26Z</time>
      </trkpt>
      <trkpt lat="45.43562" lon="6.81219">
        <ele>2161</ele>
        <time>2018-06-28T06:03:26Z</time>
      </trkpt>
      <trkpt lat="45.43544" lon="6.81265">
        <ele>2167</ele>
        <time>2018-06-28T06:04:26Z</time>
      </trkpt>
      <trkpt lat="45.4357" lon="6.81267">
        <ele>2172</ele>
        <time>2018-06-28T06:05:26Z</time>
      </trkpt>
      <trkpt lat="45.43562" lon="6.81292">
        <ele>2172</ele>
        <time>2018-06-28T06:06:26Z</time>
      </trkpt>
      <trkpt lat="45.43566" lon="6.81307">
        <ele>2175</ele>
        <time>2018-06-28T06:07:26Z</time>
      </trkpt>
      <trkpt lat="45.43597" lon="6.81306">
        <ele>2195</ele>
        <time>2018-06-28T06:08:26Z</time>
      </trkpt>
      <trkpt lat="45.43582" lon="6.81356">
        <ele>2182</ele>
        <time>2018-06-28T06:09:26Z</time>
      </trkpt>
      <trkpt lat="45.43622" lon="6.81395">
        <ele>2206</ele>
        <time>2018-06-28T06:10:26Z</time>
      </trkpt>
      <trkpt lat="45.43626" lon="6.81444">
        <ele>2207</ele>
        <time>2018-06-28T06:11:26Z</time>
      </trkpt>
      <trkpt lat="45.43651" lon="6.81543">
        <ele>2212</ele>
        <time>2018-06-28T06:12:26Z</time>
      </trkpt>
      <trkpt lat="45.4368" lon="6.81585">
        <ele>2226</ele>
        <time>2018-06-28T06:13:26Z</time>
      </trkpt>
      <trkpt lat="45.43731" lon="6.81653">
        <ele>2238</ele>
        <time>2018-06-28T06:14:26Z</time>
      </trkpt>
      <trkpt lat="45.43726" lon="6.81708">
        <ele>2238</ele>
        <time>2018-06-28T06:15:26Z</time>
      </trkpt>
      <trkpt lat="45.43784" lon="6.81751">
        <ele>2249</ele>
        <time>2018-06-28T06:16:26Z</time>
      </trkpt>
      <trkpt lat="45.43828" lon="6.81839">
        <ele>2251</ele>
        <time>2018-06-28T06:17:26Z</time>
      </trkpt>
      <trkpt lat="45.43889" lon="6.8186">
        <ele>2263</ele>
        <time>2018-06-28T06:18:26Z</time>
      </trkpt>
      <trkpt lat="45.43898" lon="6.8193">
        <ele>2263</ele>
        <time>2018-06-28T06:19:26Z</time>
      </trkpt>
      <trkpt lat="45.43924" lon="6.81987">
        <ele>2271</ele>
        <time>2018-06-28T06:20:26Z</time>
      </trkpt>
      <trkpt lat="45.43939" lon="6.82069">
        <ele>2274</ele>
        <time>2018-06-28T06:21:26Z</time>
      </trkpt>
      <trkpt lat="45.43985" lon="6.82134">
        <ele>2280</ele>
        <time>2018-06-28T06:22:26Z</time>
      </trkpt>
      <trkpt lat="45.43984" lon="6.82192">
        <ele>2281</ele>
        <time>2018-06-28T06:23:26Z</time>
      </trkpt>
      <trkpt lat="45.44025" lon="6.823">
        <ele>2293</ele>
        <time>2018-06-28T06:24:26Z</time>
      </trkpt>
      <trkpt lat="45.44034" lon="6.82357">
        <ele>2294</ele>
        <time>2018-06-28T06:25:26Z</time>
      </trkpt>
      <trkpt lat="45.44053" lon="6.82359">
        <ele>2296</ele>
        <time>2018-06-28T06:26:26Z</time>
      </trkpt>
      <trkpt lat="45.44072" lon="6.82456">
        <ele>2298</ele>
        <time>2018-06-28T06:27:26Z</time>
      </trkpt>
      <trkpt lat="45.44075" lon="6.82547">
        <ele>2297</ele>
        <time>2018-06-28T06:28:26Z</time>
      </trkpt>
      <trkpt lat="45.44096" lon="6.82593">
        <ele>2306</ele>
        <time>2018-06-28T06:29:26Z</time>
      </trkpt>
      <trkpt lat="45.44103" lon="6.82647">
        <ele>2306</ele>
        <time>2018-06-28T06:30:26Z</time>
      </trkpt>
      <trkpt lat="45.44112" lon="6.82741">
        <ele>2309</ele>
        <time>2018-06-28T06:31:26Z</time>
      </trkpt>
      <trkpt lat="45.44131" lon="6.82753">
        <ele>2313</ele>
        <time>2018-06-28T06:32:26Z</time>
      </trkpt>
      <trkpt lat="45.4412" lon="6.82814">
        <ele>2311</ele>
        <time>2018-06-28T06:33:26Z</time>
      </trkpt>
      <trkpt lat="45.44126" lon="6.82858">
        <ele>2312</ele>
        <time>2018-06-28T06:34:26Z</time>
      </trkpt>
      <trkpt lat="45.44183" lon="6.8296">
        <ele>2331</ele>
        <time>2018-06-28T06:35:26Z</time>
      </trkpt>
      <trkpt lat="45.44191" lon="6.83039">
        <ele>2333</ele>
        <time>2018-06-28T06:36:26Z</time>
      </trkpt>
      <trkpt lat="45.44179" lon="6.83142">
        <ele>2333</ele>
        <time>2018-06-28T06:37:26Z</time>
      </trkpt>
      <trkpt lat="45.44198" lon="6.83221">
        <ele>2333</ele>
        <time>2018-06-28T06:38:26Z</time>
      </trkpt>
      <trkpt lat="45.44224" lon="6.83292">
        <ele>2332</ele>
        <time>2018-06-28T06:39:26Z</time>
      </trkpt>
      <trkpt lat="45.44239" lon="6.83382">
        <ele>2329</ele>
        <time>2018-06-28T06:40:26Z</time>
      </trkpt>
      <trkpt lat="45.44261" lon="6.83482">
        <ele>2335</ele>
        <time>2018-06-28T06:41:26Z</time>
      </trkpt>
      <trkpt lat="45.44306" lon="6.835">
        <ele>2337</ele>
        <time>2018-06-28T06:42:26Z</time>
      </trkpt>
      <trkpt lat="45.44363" lon="6.83536">
        <ele>2352</ele>
        <time>2018-06-28T06:43:26Z</time>
      </trkpt>
      <trkpt lat="45.44383" lon="6.83586">
        <ele>2361</ele>
        <time>2018-06-28T06:44:26Z</time>
      </trkpt>
      <trkpt lat="45.44378" lon="6.83633">
        <ele>2361</ele>
        <time>2018-06-28T06:45:26Z</time>
      </trkpt>
      <trkpt lat="45.44388" lon="6.83677">
        <ele>2367</ele>
        <time>2018-06-28T06:46:26Z</time>
      </trkpt>
      <trkpt lat="45.44417" lon="6.83682">
        <ele>2383</ele>
        <time>2018-06-28T06:47:26Z</time>
      </trkpt>
      <trkpt lat="45.44421" lon="6.83715">
        <ele>2386</ele>
        <time>2018-06-28T06:48:26Z</time>
      </trkpt>
      <trkpt lat="45.4445" lon="6.83776">
        <ele>2390</ele>
        <time>2018-06-28T06:49:26Z</time>
      </trkpt>
      <trkpt lat="45.44461" lon="6.83884">
        <ele>2394</ele>
        <time>2018-06-28T06:50:26Z</time>
      </trkpt>
      <trkpt lat="45.44485" lon="6.83964">
        <ele>2399</ele>
        <time>2018-06-28T06:51:26Z</time>
      </trkpt>
      <trkpt lat="45.44519" lon="6.84063">
        <ele>2412</ele>
        <time>2018-06-28T06:52:26Z</time>
      </trkpt>
      <trkpt lat="45.44522" lon="6.84108">
        <ele>2413</ele>
        <time>2018-06-28T06:53:26Z</time>
      </trkpt>
      <trkpt lat="45.44545" lon="6.84161">
        <ele>2418</ele>
        <time>2018-06-28T06:54:26Z</time>
      </trkpt>
      <trkpt lat="45.44541" lon="6.84186">
        <ele>2419</ele>
        <time>2018-06-28T06:55:26Z</time>
      </trkpt>
      <trkpt lat="45.44531" lon="6.84196">
        <ele>2418</ele>
        <time>2018-06-28T06:56:26Z</time>
      </trkpt>
      <trkpt lat="45.44537" lon="6.84297">
        <ele>2424</ele>
        <time>2018-06-28T06:57:26Z</time>
      </trkpt>
      <trkpt lat="45.44532" lon="6.84319">
        <ele>2424</ele>
        <time>2018-06-28T06:58:26Z</time>
      </trkpt>
      <trkpt lat="45.44528" lon="6.84398">
        <ele>2432</ele>
        <time>2018-06-28T06:59:26Z</time>
      </trkpt>
      <trkpt lat="45.44558" lon="6.8443">
        <ele>2441</ele>
        <time>2018-06-28T07:00:26Z</time>
      </trkpt>
      <trkpt lat="45.44555" lon="6.84485">
        <ele>2444</ele>
        <time>2018-06-28T07:01:26Z</time>
      </trkpt>
      <trkpt lat="45.44546" lon="6.84526">
        <ele>2453</ele>
        <time>2018-06-28T07:02:26Z</time>
      </trkpt>
      <trkpt lat="45.44549" lon="6.84623">
        <ele>2466</ele>
        <time>2018-06-28T07:03:26Z</time>
      </trkpt>
      <trkpt lat="45.44522" lon="6.84673">
        <ele>2473</ele>
        <time>2018-06-28T07:04:26Z</time>
      </trkpt>
      <trkpt lat="45.44533" lon="6.84724">
        <ele>2476</ele>
        <time>2018-06-28T07:05:26Z</time>
      </trkpt>
      <trkpt lat="45.44578" lon="6.84797">
        <ele>2479</ele>
        <time>2018-06-28T07:06:26Z</time>
      </trkpt>
      <trkpt lat="45.44592" lon="6.84809">
        <ele>2488</ele>
        <time>2018-06-28T07:07:26Z</time>
      </trkpt>
      <trkpt lat="45.44645" lon="6.84872">
        <ele>2485</ele>
        <time>2018-06-28T07:08:26Z</time>
      </trkpt>
      <trkpt lat="45.44691" lon="6.84922">
        <ele>2482</ele>
        <time>2018-06-28T07:09:26Z</time>
      </trkpt>
      <trkpt lat="45.44753" lon="6.84946">
        <ele>2486</ele>
        <time>2018-06-28T07:10:26Z</time>
      </trkpt>
      <trkpt lat="45.44806" lon="6.85035">
        <ele>2485</ele>
        <time>2018-06-28T07:11:26Z</time>
      </trkpt>
      <trkpt lat="45.44851" lon="6.85136">
        <ele>2497</ele>
        <time>2018-06-28T07:12:26Z</time>
      </trkpt>
      <trkpt lat="45.4486" lon="6.85174">
        <ele>2501</ele>
        <time>2018-06-28T07:13:26Z</time>
      </trkpt>
      <trkpt lat="45.44905" lon="6.85228">
        <ele>2509</ele>
        <time>2018-06-28T07:14:26Z</time>
      </trkpt>
      <trkpt lat="45.45015" lon="6.8535">
        <ele>2537</ele>
        <time>2018-06-28T07:15:26Z</time>
      </trkpt>
      <trkpt lat="45.45059" lon="6.8536">
        <ele>2540</ele>
        <time>2018-06-28T07:16:26Z</time>
      </trkpt>
      <trkpt lat="45.45117" lon="6.85445">
        <ele>2552</ele>
        <time>2018-06-28T07:17:26Z</time>
      </trkpt>
      <trkpt lat="45.45133" lon="6.85445">
        <ele>2552</ele>
        <time>2018-06-28T07:18:26Z</time>
      </trkpt>
      <trkpt lat="45.45208" lon="6.85524">
        <ele>2594</ele>
        <time>2018-06-28T07:19:26Z</time>
      </trkpt>
      <trkpt lat="45.45232" lon="6.85551">
        <ele>2600</ele>
        <time>2018-06-28T07:20:26Z</time>
      </trkpt>
      <trkpt lat="45.45269" lon="6.8558">
        <ele>2611</ele>
        <time>2018-06-28T07:21:26Z</time>
      </trkpt>
      <trkpt lat="45.4529" lon="6.85656">
        <ele>2626</ele>
        <time>2018-06-28T07:22:26Z</time>
      </trkpt>
      <trkpt lat="45.45303" lon="6.85664">
        <ele>2631</ele>
        <time>2018-06-28T07:23:26Z</time>
      </trkpt>
      <trkpt lat="45.45329" lon="6.85743">
        <ele>2637</ele>
        <time>2018-06-28T07:24:26Z</time>
      </trkpt>
      <trkpt lat="45.45344" lon="6.85768">
        <ele>2639</ele>
        <time>2018-06-28T07:25:26Z</time>
      </trkpt>
      <trkpt lat="45.45375" lon="6.85783">
        <ele>2642</ele>
        <time>2018-06-28T07:26:26Z</time>
      </trkpt>
      <trkpt lat="45.45389" lon="6.85802">
        <ele>2644</ele>
        <time>2018-06-28T07:27:26Z</time>
      </trkpt>
      <trkpt lat="45.45425" lon="6.85817">
        <ele>2646</ele>
        <time>2018-06-28T07:28:26Z</time>
      </trkpt>
      <trkpt lat="45.45447" lon="6.85856">
        <ele>2646</ele>
        <time>2018-06-28T07:29:26Z</time>
      </trkpt>
      <trkpt lat="45.45442" lon="6.85891">
        <ele>2652</ele>
        <time>2018-06-28T07:30:26Z</time>
      </trkpt>
      <trkpt lat="45.45471" lon="6.85959">
        <ele>2653</ele>
        <time>2018-06-28T07:31:26Z</time>
      </trkpt>
      <trkpt lat="45.45481" lon="6.86003">
        <ele>2654</ele>
        <time>2018-06-28T07:32:26Z</time>
      </trkpt>
      <trkpt lat="45.4548" lon="6.86064">
        <ele>2658</ele>
        <time>2018-06-28T07:33:26Z</time>
      </trkpt>
      <trkpt lat="45.45523" lon="6.86142">
        <ele>2651</ele>
        <time>2018-06-28T07:34:26Z</time>
      </trkpt>
      <trkpt lat="45.45557" lon="6.86246">
        <ele>2653</ele>
        <time>2018-06-28T07:35:26Z</time>
      </trkpt>
      <trkpt lat="45.4559" lon="6.86334">
        <ele>2651</ele>
        <time>2018-06-28T07:36:26Z</time>
      </trkpt>
      <trkpt lat="45.45625" lon="6.86359">
        <ele>2654</ele>
        <time>2018-06-28T07:37:26Z</time>
      </trkpt>
      <trkpt lat="45.45593" lon="6.86522">
        <ele>2647</ele>
        <time>2018-06-28T07:38:26Z</time>
      </trkpt>
      <trkpt lat="45.45598" lon="6.86633">
        <ele>2641</ele>
        <time>2018-06-28T07:39:26Z</time>
      </trkpt>
      <trkpt lat="45.45569" lon="6.86715">
        <ele>2631</ele>
        <time>2018-06-28T07:40:26Z</time>
      </trkpt>
      <trkpt lat="45.45553" lon="6.8682">
        <ele>2616</ele>
        <time>2018-06-28T07:41:26Z</time>
      </trkpt>
      <trkpt lat="45.45577" lon="6.86857">
        <ele>2612</ele>
        <time>2018-06-28T07:42:26Z</time>
      </trkpt>
      <trkpt lat="45.45593" lon="6.86908">
        <ele>2606</ele>
        <time>2018-06-28T07:43:26Z</time>
      </trkpt>
      <trkpt lat="45.45574" lon="6.86949">
        <ele>2593</ele>
        <time>2018-06-28T07:44:26Z</time>
      </trkpt>
      <trkpt lat="45.45598" lon="6.87013">
        <ele>2586</ele>
        <time>2018-06-28T07:45:26Z</time>
      </trkpt>
      <trkpt lat="45.45596" lon="6.87131">
        <ele>2577</ele>
        <time>2018-06-28T07:46:26Z</time>
      </trkpt>
      <trkpt lat="45.45542" lon="6.87211">
        <ele>2557</ele>
        <time>2018-06-28T07:47:26Z</time>
      </trkpt>
      <trkpt lat="45.45518" lon="6.87288">
        <ele>2553</ele>
        <time>2018-06-28T07:48:26Z</time>
      </trkpt>
      <trkpt lat="45.45495" lon="6.87408">
        <ele>2543</ele>
        <time>2018-06-28T07:49:26Z</time>
      </trkpt>
      <trkpt lat="45.4547" lon="6.87483">
        <ele>2538</ele>
        <time>2018-06-28T07:50:26Z</time>
      </trkpt>
      <trkpt lat="45.4547" lon="6.87648">
        <ele>2526</ele>
        <time>2018-06-28T07:51:26Z</time>
      </trkpt>
      <trkpt lat="45.45506" lon="6.87758">
        <ele>2525</ele>
        <time>2018-06-28T07:52:26Z</time>
      </trkpt>
      <trkpt lat="45.45542" lon="6.87872">
        <ele>2514</ele>
        <time>2018-06-28T07:53:26Z</time>
      </trkpt>
      <trkpt lat="45.45556" lon="6.87893">
        <ele>2514</ele>
        <time>2018-06-28T07:54:26Z</time>
      </trkpt>
      <trkpt lat="45.45527" lon="6.88011">
        <ele>2493</ele>
        <time>2018-06-28T07:55:26Z</time>
      </trkpt>
      <trkpt lat="45.45498" lon="6.88125">
        <ele>2471</ele>
        <time>2018-06-28T07:56:26Z</time>
      </trkpt>
      <trkpt lat="45.45541" lon="6.88264">
        <ele>2472</ele>
        <time>2018-06-28T07:57:26Z</time>
      </trkpt>
      <trkpt lat="45.45556" lon="6.88399">
        <ele>2461</ele>
        <time>2018-06-28T07:58:26Z</time>
      </trkpt>
      <trkpt lat="45.45553" lon="6.88483">
        <ele>2450</ele>
        <time>2018-06-28T07:59:26Z</time>
      </trkpt>
      <trkpt lat="45.45554" lon="6.88588">
        <ele>2432</ele>
        <time>2018-06-28T08:00:26Z</time>
      </trkpt>
      <trkpt lat="45.45574" lon="6.88743">
        <ele>2412</ele>
        <time>2018-06-28T08:01:26Z</time>
      </trkpt>
      <trkpt lat="45.45626" lon="6.88839">
        <ele>2384</ele>
        <time>2018-06-28T08:02:26Z</time>
      </trkpt>
      <trkpt lat="45.45729" lon="6.88966">
        <ele>2366</ele>
        <time>2018-06-28T08:03:26Z</time>
      </trkpt>
      <trkpt lat="45.45783" lon="6.89047">
        <ele>2347</ele>
        <time>2018-06-28T08:04:26Z</time>
      </trkpt>
      <trkpt lat="45.45839" lon="6.89161">
        <ele>2319</ele>
        <time>2018-06-28T08:05:26Z</time>
      </trkpt>
      <trkpt lat="45.45935" lon="6.89217">
        <ele>2301</ele>
        <time>2018-06-28T08:06:26Z</time>
      </trkpt>
      <trkpt lat="45.46018" lon="6.89268">
        <ele>2280</ele>
        <time>2018-06-28T08:07:26Z</time>
      </trkpt>
      <trkpt lat="45.46097" lon="6.89294">
        <ele>2274</ele>
        <time>2018-06-28T08:08:26Z</time>
      </trkpt>
      <trkpt lat="45.46159" lon="6.89344">
        <ele>2252</ele>
        <time>2018-06-28T08:09:26Z</time>
      </trkpt>
      <trkpt lat="45.46205" lon="6.89324">
        <ele>2266</ele>
        <time>2018-06-28T08:10:26Z</time>
      </trkpt>
      <trkpt lat="45.46265" lon="6.89352">
        <ele>2241</ele>
        <time>2018-06-28T08:11:26Z</time>
      </trkpt>
      <trkpt lat="45.46334" lon="6.89333">
        <ele>2245</ele>
        <time>2018-06-28T08:12:26Z</time>
      </trkpt>
      <trkpt lat="45.46321" lon="6.8944">
        <ele>2213</ele>
        <time>2018-06-28T08:13:26Z</time>
      </trkpt>
      <trkpt lat="45.46384" lon="6.8949">
        <ele>2210</ele>
        <time>2018-06-28T08:14:26Z</time>
      </trkpt>
      <trkpt lat="45.46444" lon="6.89569">
        <ele>2191</ele>
        <time>2018-06-28T08:15:26Z</time>
      </trkpt>
      <trkpt lat="45.46464" lon="6.89604">
        <ele>2178</ele>
        <time>2018-06-28T08:16:26Z</time>
      </trkpt>
      <trkpt lat="45.4657" lon="6.89704">
        <ele>2158</ele>
        <time>2018-06-28T08:17:26Z</time>
      </trkpt>
      <trkpt lat="45.46545" lon="6.89738">
        <ele>2152</ele>
        <time>2018-06-28T08:18:26Z</time>
      </trkpt>
      <trkpt lat="45.46507" lon="6.89774">
        <ele>2130</ele>
        <time>2018-06-28T08:19:26Z</time>
      </trkpt>
      <trkpt lat="45.46526" lon="6.89806">
        <ele>2123</ele>
        <time>2018-06-28T08:20:26Z</time>
      </trkpt>
      <trkpt lat="45.4659" lon="6.89833">
        <ele>2122</ele>
        <time>2018-06-28T08:21:26Z</time>
      </trkpt>
      <trkpt lat="45.46608" lon="6.89871">
        <ele>2113</ele>
        <time>2018-06-28T08:22:26Z</time>
      </trkpt>
      <trkpt lat="45.46615" lon="6.89956">
        <ele>2098</ele>
        <time>2018-06-28T08:23:26Z</time>
      </trkpt>
      <trkpt lat="45.46621" lon="6.90012">
        <ele>2091</ele>
        <time>2018-06-28T08:24:26Z</time>
      </trkpt>
      <trkpt lat="45.46681" lon="6.90124">
        <ele>2095</ele>
        <time>2018-06-28T08:25:26Z</time>
      </trkpt>
      <trkpt lat="45.46746" lon="6.90236">
        <ele>2096</ele>
        <time>2018-06-28T08:26:26Z</time>
      </trkpt>
      <trkpt lat="45.46771" lon="6.90335">
        <ele>2098</ele>
        <time>2018-06-28T08:27:26Z</time>
      </trkpt>
      <trkpt lat="45.46789" lon="6.90413">
        <ele>2099</ele>
        <time>2018-06-28T08:28:26Z</time>
      </trkpt>
      <trkpt lat="45.46818" lon="6.90476">
        <ele>2099</ele>
        <time>2018-06-28T08:29:26Z</time>
      </trkpt>
      <trkpt lat="45.46826" lon="6.90537">
        <ele>2095</ele>
        <time>2018-06-28T08:30:26Z</time>
      </trkpt>
      <trkpt lat="45.46854" lon="6.9061">
        <ele>2094</ele>
        <time>2018-06-28T08:31:26Z</time>
      </trkpt>
      <trkpt lat="45.46886" lon="6.90645">
        <ele>2094</ele>
        <time>2018-06-28T08:32:26Z</time>
      </trkpt>
      <trkpt lat="45.46955" lon="6.90673">
        <ele>2093</ele>
        <time>2018-06-28T08:33:26Z</time>
      </trkpt>
      <trkpt lat="45.46996" lon="6.90726">
        <ele>2091</ele>
        <time>2018-06-28T08:34:26Z</time>
      </trkpt>
      <trkpt lat="45.47036" lon="6.90775">
        <ele>2090</ele>
        <time>2018-06-28T08:35:26Z</time>
      </trkpt>
      <trkpt lat="45.47113" lon="6.90881">
        <ele>2081</ele>
        <time>2018-06-28T08:36:26Z</time>
      </trkpt>
      <trkpt lat="45.47216" lon="6.9099">
        <ele>2069</ele>
        <time>2018-06-28T08:37:26Z</time>
      </trkpt>
      <trkpt lat="45.47307" lon="6.91057">
        <ele>2058</ele>
        <time>2018-06-28T08:38:26Z</time>
      </trkpt>
      <trkpt lat="45.47394" lon="6.91134">
        <ele>2055</ele>
        <time>2018-06-28T08:39:26Z</time>
      </trkpt>
      <trkpt lat="45.47382" lon="6.91144">
        <ele>2053</ele>
        <time>2018-06-28T08:40:26Z</time>
      </trkpt>
      <trkpt lat="45.47328" lon="6.91102">
        <ele>2049</ele>
        <time>2018-06-28T08:41:26Z</time>
      </trkpt>
      <trkpt lat="45.47331" lon="6.91138">
        <ele>2045</ele>
        <time>2018-06-28T08:42:26Z</time>
      </trkpt>
      <trkpt lat="45.47333" lon="6.91168">
        <ele>2039</ele>
        <time>2018-06-28T08:43:26Z</time>
      </trkpt>
      <trkpt lat="45.47396" lon="6.9123">
        <ele>2038</ele>
        <time>2018-06-28T08:44:26Z</time>
      </trkpt>
      <trkpt lat="45.47418" lon="6.91286">
        <ele>2035</ele>
        <time>2018-06-28T08:45:26Z</time>
      </trkpt>
      <trkpt lat="45.47425" lon="6.91369">
        <ele>2018</ele>
        <time>2018-06-28T08:46:26Z</time>
      </trkpt>
      <trkpt lat="45.47452" lon="6.91422">
        <ele>2008</ele>
        <time>2018-06-28T08:47:26Z</time>
      </trkpt>
      <trkpt lat="45.47461" lon="6.91501">
        <ele>1997</ele>
        <time>2018-06-28T08:48:26Z</time>
      </trkpt>
      <trkpt lat="45.47433" lon="6.915">
        <ele>1996</ele>
        <time>2018-06-28T08:49:26Z</time>
      </trkpt>
      <trkpt lat="45.47373" lon="6.91598">
        <ele>2004</ele>
        <time>2018-06-28T08:50:26Z</time>
      </trkpt>
      <trkpt lat="45.47377" lon="6.91706">
        <ele>1993</ele>
        <time>2018-06-28T08:51:26Z</time>
      </trkpt>
      <trkpt lat="45.47355" lon="6.91785">
        <ele>1990</ele>
        <time>2018-06-28T08:52:26Z</time>
      </trkpt>
      <trkpt lat="45.4735" lon="6.91873">
        <ele>1983</ele>
        <time>2018-06-28T08:53:26Z</time>
      </trkpt>
      <trkpt lat="45.47318" lon="6.91938">
        <ele>2000</ele>
        <time>2018-06-28T08:54:26Z</time>
      </trkpt>
      <trkpt lat="45.47316" lon="6.91989">
        <ele>1997</ele>
        <time>2018-06-28T08:55:26Z</time>
      </trkpt>
      <trkpt lat="45.47328" lon="6.92019">
        <ele>1992</ele>
        <time>2018-06-28T08:56:26Z</time>
      </trkpt>
      <trkpt lat="45.47332" lon="6.92086">
        <ele>1980</ele>
        <time>2018-06-28T08:57:26Z</time>
      </trkpt>
      <trkpt lat="45.47355" lon="6.92193">
        <ele>1958</ele>
        <time>2018-06-28T08:58:26Z</time>
      </trkpt>
      <trkpt lat="45.4732" lon="6.92249">
        <ele>1980</ele>
        <time>2018-06-28T08:59:26Z</time>
      </trkpt>
      <trkpt lat="45.47309" lon="6.92212">
        <ele>1988</ele>
        <time>2018-06-28T09:00:26Z</time>
      </trkpt>
      <trkpt lat="45.47302" lon="6.92267">
        <ele>1987</ele>
        <time>2018-06-28T09:01:26Z</time>
      </trkpt>
      <trkpt lat="45.47291" lon="6.92336">
        <ele>1993</ele>
        <time>2018-06-28T09:02:26Z</time>
      </trkpt>
      <trkpt lat="45.47325" lon="6.92424">
        <ele>1983</ele>
        <time>2018-06-28T09:03:26Z</time>
      </trkpt>
      <trkpt lat="45.47344" lon="6.9254">
        <ele>1971</ele>
        <time>2018-06-28T09:04:26Z</time>
      </trkpt>
      <trkpt lat="45.4733" lon="6.92568">
        <ele>2001</ele>
        <time>2018-06-28T09:05:26Z</time>
      </trkpt>
      <trkpt lat="45.47348" lon="6.92654">
        <ele>1980</ele>
        <time>2018-06-28T09:06:26Z</time>
      </trkpt>
      <trkpt lat="45.4735" lon="6.92724">
        <ele>1978</ele>
        <time>2018-06-28T09:07:26Z</time>
      </trkpt>
      <trkpt lat="45.47339" lon="6.92759">
        <ele>1987</ele>
        <time>2018-06-28T09:08:26Z</time>
      </trkpt>
      <trkpt lat="45.47338" lon="6.92798">
        <ele>1982</ele>
        <time>2018-06-28T09:09:26Z</time>
      </trkpt>
      <trkpt lat="45.47364" lon="6.92821">
        <ele>1979</ele>
        <time>2018-06-28T09:10:26Z</time>
      </trkpt>
      <trkpt lat="45.47368" lon="6.92861">
        <ele>1982</ele>
        <time>2018-06-28T09:11:26Z</time>
      </trkpt>
      <trkpt lat="45.47388" lon="6.92923">
        <ele>1981</ele>
        <time>2018-06-28T09:12:26Z</time>
      </trkpt>
      <trkpt lat="45.47413" lon="6.92969">
        <ele>1978</ele>
        <time>2018-06-28T09:13:26Z</time>
      </trkpt>
      <trkpt lat="45.47392" lon="6.93076">
        <ele>1971</ele>
        <time>2018-06-28T09:14:26Z</time>
      </trkpt>
      <trkpt lat="45.47395" lon="6.93105">
        <ele>1963</ele>
        <time>2018-06-28T09:15:26Z</time>
      </trkpt>
      <trkpt lat="45.4738" lon="6.93177">
        <ele>1954</ele>
        <time>2018-06-28T09:16:26Z</time>
      </trkpt>
      <trkpt lat="45.47363" lon="6.93192">
        <ele>1959</ele>
        <time>2018-06-28T09:17:26Z</time>
      </trkpt>
      <trkpt lat="45.47368" lon="6.93249">
        <ele>1955</ele>
        <time>2018-06-28T09:18:26Z</time>
      </trkpt>
      <trkpt lat="45.47355" lon="6.93332">
        <ele>1951</ele>
        <time>2018-06-28T09:19:26Z</time>
      </trkpt>
      <trkpt lat="45.47382" lon="6.93439">
        <ele>1935</ele>
        <time>2018-06-28T09:20:26Z</time>
      </trkpt>
      <trkpt lat="45.47397" lon="6.93502">
        <ele>1926</ele>
        <time>2018-06-28T09:21:26Z</time>
      </trkpt>
      <trkpt lat="45.47391" lon="6.93609">
        <ele>1923</ele>
        <time>2018-06-28T09:22:26Z</time>
      </trkpt>
      <trkpt lat="45.47379" lon="6.93707">
        <ele>1912</ele>
        <time>2018-06-28T09:23:26Z</time>
      </trkpt>
      <trkpt lat="45.47349" lon="6.93783">
        <ele>1902</ele>
        <time>2018-06-28T09:24:26Z</time>
      </trkpt>
      <trkpt lat="45.47315" lon="6.93868">
        <ele>1917</ele>
        <time>2018-06-28T09:25:26Z</time>
      </trkpt>
      <trkpt lat="45.47294" lon="6.93914">
        <ele>1917</ele>
        <time>2018-06-28T09:26:26Z</time>
      </trkpt>
      <trkpt lat="45.4727" lon="6.93982">
        <ele>1903</ele>
        <time>2018-06-28T09:27:26Z</time>
      </trkpt>
      <trkpt lat="45.47245" lon="6.94033">
        <ele>1914</ele>
        <time>2018-06-28T09:28:26Z</time>
      </trkpt>
      <trkpt lat="45.47237" lon="6.94091">
        <ele>1896</ele>
        <time>2018-06-28T09:29:26Z</time>
      </trkpt>
      <trkpt lat="45.47222" lon="6.94163">
        <ele>1892</ele>
        <time>2018-06-28T09:30:26Z</time>
      </trkpt>
      <trkpt lat="45.47211" lon="6.94237">
        <ele>1882</ele>
        <time>2018-06-28T09:31:26Z</time>
      </trkpt>
      <trkpt lat="45.47195" lon="6.94353">
        <ele>1864</ele>
        <time>2018-06-28T09:32:26Z</time>
      </trkpt>
      <trkpt lat="45.47203" lon="6.94421">
        <ele>1849</ele>
        <time>2018-06-28T09:33:26Z</time>
      </trkpt>
      <trkpt lat="45.4717" lon="6.94472">
        <ele>1849</ele>
        <time>2018-06-28T09:34:26Z</time>
      </trkpt>
      <trkpt lat="45.47155" lon="6.94515">
        <ele>1854</ele>
        <time>2018-06-28T09:35:26Z</time>
      </trkpt>
      <trkpt lat="45.47143" lon="6.94526">
        <ele>1856</ele>
        <time>2018-06-28T09:36:26Z</time>
      </trkpt>
      <trkpt lat="45.47145" lon="6.94588">
        <ele>1846</ele>
        <time>2018-06-28T09:37:26Z</time>
      </trkpt>
      <trkpt lat="45.47169" lon="6.94635">
        <ele>1833</ele>
        <time>2018-06-28T09:38:26Z</time>
      </trkpt>
      <trkpt lat="45.47177" lon="6.94671">
        <ele>1832</ele>
        <time>2018-06-28T09:39:26Z</time>
      </trkpt>
      <trkpt lat="45.47178" lon="6.94701">
        <ele>1828</ele>
        <time>2018-06-28T09:40:26Z</time>
      </trkpt>
      <trkpt lat="45.47188" lon="6.94771">
        <ele>1824</ele>
        <time>2018-06-28T09:41:26Z</time>
      </trkpt>
      <trkpt lat="45.4722" lon="6.9482">
        <ele>1814</ele>
        <time>2018-06-28T09:42:26Z</time>
      </trkpt>
      <trkpt lat="45.47244" lon="6.94885">
        <ele>1803</ele>
        <time>2018-06-28T09:43:26Z</time>
      </trkpt>
      <trkpt lat="45.47221" lon="6.94954">
        <ele>1805</ele>
        <time>2018-06-28T09:44:26Z</time>
      </trkpt>
      <trkpt lat="45.47211" lon="6.95055">
        <ele>1801</ele>
        <time>2018-06-28T09:45:26Z</time>
      </trkpt>
      <trkpt lat="45.47199" lon="6.95097">
        <ele>1801</ele>
        <time>2018-06-28T09:46:26Z</time>
      </trkpt>
      <trkpt lat="45.4717" lon="6.95143">
        <ele>1802</ele>
        <time>2018-06-28T09:47:26Z</time>
      </trkpt>
      <trkpt lat="45.47149" lon="6.95233">
        <ele>1813</ele>
        <time>2018-06-28T09:48:26Z</time>
      </trkpt>
      <trkpt lat="45.4711" lon="6.95312">
        <ele>1814</ele>
        <time>2018-06-28T09:49:26Z</time>
      </trkpt>
      <trkpt lat="45.47075" lon="6.95379">
        <ele>1835</ele>
        <time>2018-06-28T09:50:26Z</time>
      </trkpt>
      <trkpt lat="45.47006" lon="6.95463">
        <ele>1830</ele>
        <time>2018-06-28T09:51:26Z</time>
      </trkpt>
      <trkpt lat="45.46986" lon="6.95529">
        <ele>1838</ele>
        <time>2018-06-28T09:52:26Z</time>
      </trkpt>
      <trkpt lat="45.46965" lon="6.95561">
        <ele>1840</ele>
        <time>2018-06-28T09:53:26Z</time>
      </trkpt>
      <trkpt lat="45.46964" lon="6.95584">
        <ele>1811</ele>
        <time>2018-06-28T09:54:26Z</time>
      </trkpt>
      <trkpt lat="45.46927" lon="6.95615">
        <ele>1821</ele>
        <time>2018-06-28T09:55:26Z</time>
      </trkpt>
      <trkpt lat="45.46896" lon="6.95688">
        <ele>1817</ele>
        <time>2018-06-28T09:56:26Z</time>
      </trkpt>
      <trkpt lat="45.46853" lon="6.95739">
        <ele>1809</ele>
        <time>2018-06-28T09:57:26Z</time>
      </trkpt>
      <trkpt lat="45.46809" lon="6.95778">
        <ele>1794</ele>
        <time>2018-06-28T09:58:26Z</time>
      </trkpt>
      <trkpt lat="45.46769" lon="6.95814">
        <ele>1793</ele>
        <time>2018-06-28T09:59:26Z</time>
      </trkpt>
      <trkpt lat="45.46735" lon="6.95809">
        <ele>1795</ele>
        <time>2018-06-28T10:00:26Z</time>
      </trkpt>
      <trkpt lat="45.46689" lon="6.95851">
        <ele>1793</ele>
        <time>2018-06-28T10:01:26Z</time>
      </trkpt>
      <trkpt lat="45.46646" lon="6.95899">
        <ele>1800</ele>
        <time>2018-06-28T10:02:26Z</time>
      </trkpt>
      <trkpt lat="45.46606" lon="6.95941">
        <ele>1803</ele>
        <time>2018-06-28T10:03:26Z</time>
      </trkpt>
      <trkpt lat="45.4657" lon="6.95968">
        <ele>1814</ele>
        <time>2018-06-28T10:04:26Z</time>
      </trkpt>
      <trkpt lat="45.46513" lon="6.96047">
        <ele>1808</ele>
        <time>2018-06-28T10:05:26Z</time>
      </trkpt>
      <trkpt lat="45.4648" lon="6.96095">
        <ele>1807</ele>
        <time>2018-06-28T10:06:26Z</time>
      </trkpt>
      <trkpt lat="45.46421" lon="6.96138">
        <ele>1809</ele>
        <time>2018-06-28T10:07:26Z</time>
      </trkpt>
      <trkpt lat="45.46399" lon="6.96177">
        <ele>1811</ele>
        <time>2018-06-28T10:08:26Z</time>
      </trkpt>
      <trkpt lat="45.46374" lon="6.96229">
        <ele>1812</ele>
        <time>2018-06-28T10:09:26Z</time>
      </trkpt>
      <trkpt lat="45.46358" lon="6.96266">
        <ele>1808</ele>
        <time>2018-06-28T10:10:26Z</time>
      </trkpt>
      <trkpt lat="45.46322" lon="6.9632">
        <ele>1806</ele>
        <time>2018-06-28T10:11:26Z</time>
      </trkpt>
      <trkpt lat="45.46276" lon="6.96357">
        <ele>1805</ele>
        <time>2018-06-28T10:12:26Z</time>
      </trkpt>
      <trkpt lat="45.46258" lon="6.96374">
        <ele>1804</ele>
        <time>2018-06-28T10:13:26Z</time>
      </trkpt>
      <trkpt lat="45.46265" lon="6.96417">
        <ele>1805</ele>
        <time>2018-06-28T10:14:26Z</time>
      </trkpt>
      <trkpt lat="45.46232" lon="6.96444">
        <ele>1802</ele>
        <time>2018-06-28T10:15:26Z</time>
      </trkpt>
      <trkpt lat="45.46222" lon="6.9647">
        <ele>1803</ele>
        <time>2018-06-28T10:16:26Z</time>
      </trkpt>
      <trkpt lat="45.4616" lon="6.96532">
        <ele>1804</ele>
        <time>2018-06-28T10:17:26Z</time>
      </trkpt>
      <trkpt lat="45.46173" lon="6.96573">
        <ele>1807</ele>
        <time>2018-06-28T10:18:26Z</time>
      </trkpt>
      <trkpt lat="45.46195" lon="6.96624">
        <ele>1814</ele>
        <time>2018-06-28T10:19:26Z</time>
      </trkpt>
      <trkpt lat="45.46154" lon="6.96637">
        <ele>1809</ele>
        <time>2018-06-28T10:20:26Z</time>
      </trkpt>
      <trkpt lat="45.46133" lon="6.96632">
        <ele>1808</ele>
        <time>2018-06-28T10:21:26Z</time>
      </trkpt>
      <trkpt lat="45.461" lon="6.96657">
        <ele>1807</ele>
        <time>2018-06-28T10:22:26Z</time>
      </trkpt>
      <trkpt lat="45.46077" lon="6.96703">
        <ele>1807</ele>
        <time>2018-06-28T10:23:26Z</time>
      </trkpt>
      <trkpt lat="45.46054" lon="6.96724">
        <ele>1807</ele>
        <time>2018-06-28T10:24:26Z</time>
      </trkpt>
      <trkpt lat="45.46027" lon="6.96769">
        <ele>1812</ele>
        <time>2018-06-28T10:25:26Z</time>
      </trkpt>
      <trkpt lat="45.46027" lon="6.96814">
        <ele>1815</ele>
        <time>2018-06-28T10:26:26Z</time>
      </trkpt>
      <trkpt lat="45.46061" lon="6.96892">
        <ele>1828</ele>
        <time>2018-06-28T10:27:26Z</time>
      </trkpt>
      <trkpt lat="45.46055" lon="6.96917">
        <ele>1836</ele>
        <time>2018-06-28T10:28:26Z</time>
      </trkpt>
      <trkpt lat="45.46072" lon="6.9697">
        <ele>1840</ele>
        <time>2018-06-28T10:29:26Z</time>
      </trkpt>
      <trkpt lat="45.46039" lon="6.97007">
        <ele>1847</ele>
        <time>2018-06-28T10:30:26Z</time>
      </trkpt>
      <trkpt lat="45.46005" lon="6.97042">
        <ele>1847</ele>
        <time>2018-06-28T10:31:26Z</time>
      </trkpt>
      <trkpt lat="45.45976" lon="6.97083">
        <ele>1843</ele>
        <time>2018-06-28T10:32:26Z</time>
      </trkpt>
      <trkpt lat="45.45974" lon="6.97098">
        <ele>1851</ele>
        <time>2018-06-28T10:33:26Z</time>
      </trkpt>
      <trkpt lat="45.45962" lon="6.97107">
        <ele>1851</ele>
        <time>2018-06-28T10:34:26Z</time>
      </trkpt>
      <trkpt lat="45.4592" lon="6.97139">
        <ele>1852</ele>
        <time>2018-06-28T10:35:26Z</time>
      </trkpt>
      <trkpt lat="45.45909" lon="6.97108">
        <ele>1842</ele>
        <time>2018-06-28T10:36:26Z</time>
      </trkpt>
      <trkpt lat="45.45872" lon="6.97125">
        <ele>1841</ele>
        <time>2018-06-28T10:37:26Z</time>
      </trkpt>
      <trkpt lat="45.45835" lon="6.9718">
        <ele>1846</ele>
        <time>2018-06-28T10:38:26Z</time>
      </trkpt>
      <trkpt lat="45.45813" lon="6.97244">
        <ele>1842</ele>
        <time>2018-06-28T10:39:26Z</time>
      </trkpt>
      <trkpt lat="45.45754" lon="6.97268">
        <ele>1839</ele>
        <time>2018-06-28T10:40:26Z</time>
      </trkpt>
      <trkpt lat="45.45706" lon="6.97269">
        <ele>1835</ele>
        <time>2018-06-28T10:41:26Z</time>
      </trkpt>
      <trkpt lat="45.45696" lon="6.97291">
        <ele>1836</ele>
        <time>2018-06-28T10:42:26Z</time>
      </trkpt>
      <trkpt lat="45.45668" lon="6.9736">
        <ele>1849</ele>
        <time>2018-06-28T10:43:26Z</time>
      </trkpt>
      <trkpt lat="45.45661" lon="6.97424">
        <ele>1859</ele>
        <time>2018-06-28T10:44:26Z</time>
      </trkpt>
      <trkpt lat="45.45652" lon="6.97527">
        <ele>1878</ele>
        <time>2018-06-28T10:45:26Z</time>
      </trkpt>
      <trkpt lat="45.45693" lon="6.97512">
        <ele>1890</ele>
        <time>2018-06-28T10:46:26Z</time>
      </trkpt>
      <trkpt lat="45.45742" lon="6.97511">
        <ele>1895</ele>
        <time>2018-06-28T10:47:26Z</time>
      </trkpt>
      <trkpt lat="45.45802" lon="6.9752">
        <ele>1917</ele>
        <time>2018-06-28T10:48:26Z</time>
      </trkpt>
      <trkpt lat="45.45821" lon="6.97506">
        <ele>1917</ele>
        <time>2018-06-28T10:49:26Z</time>
      </trkpt>
      <trkpt lat="45.45852" lon="6.9755">
        <ele>1943</ele>
        <time>2018-06-28T10:50:26Z</time>
      </trkpt>
      <trkpt lat="45.45896" lon="6.97615">
        <ele>1980</ele>
        <time>2018-06-28T10:51:26Z</time>
      </trkpt>
      <trkpt lat="45.45884" lon="6.9765">
        <ele>1987</ele>
        <time>2018-06-28T10:52:26Z</time>
      </trkpt>
      <trkpt lat="45.45877" lon="6.97723">
        <ele>2018</ele>
        <time>2018-06-28T10:53:26Z</time>
      </trkpt>
      <trkpt lat="45.45914" lon="6.97688">
        <ele>2016</ele>
        <time>2018-06-28T10:54:26Z</time>
      </trkpt>
      <trkpt lat="45.45904" lon="6.97755">
        <ele>2047</ele>
        <time>2018-06-28T10:55:26Z</time>
      </trkpt>
      <trkpt lat="45.4593" lon="6.97725">
        <ele>2040</ele>
        <time>2018-06-28T10:56:26Z</time>
      </trkpt>
      <trkpt lat="45.4591" lon="6.97767">
        <ele>2048</ele>
        <time>2018-06-28T10:57:26Z</time>
      </trkpt>
      <trkpt lat="45.45936" lon="6.97753">
        <ele>2061</ele>
        <time>2018-06-28T10:58:26Z</time>
      </trkpt>
      <trkpt lat="45.45925" lon="6.97781">
        <ele>2067</ele>
        <time>2018-06-28T10:59:26Z</time>
      </trkpt>
      <trkpt lat="45.45944" lon="6.97764">
        <ele>2066</ele>
        <time>2018-06-28T11:00:26Z</time>
      </trkpt>
      <trkpt lat="45.45938" lon="6.97796">
        <ele>2073</ele>
        <time>2018-06-28T11:01:26Z</time>
      </trkpt>
      <trkpt lat="45.45956" lon="6.97776">
        <ele>2071</ele>
        <time>2018-06-28T11:02:26Z</time>
      </trkpt>
      <trkpt lat="45.45946" lon="6.97809">
        <ele>2077</ele>
        <time>2018-06-28T11:03:26Z</time>
      </trkpt>
      <trkpt lat="45.45967" lon="6.97784">
        <ele>2075</ele>
        <time>2018-06-28T11:04:26Z</time>
      </trkpt>
      <trkpt lat="45.45946" lon="6.97864">
        <ele>2107</ele>
        <time>2018-06-28T11:05:26Z</time>
      </trkpt>
      <trkpt lat="45.45982" lon="6.97816">
        <ele>2087</ele>
        <time>2018-06-28T11:06:26Z</time>
      </trkpt>
      <trkpt lat="45.45963" lon="6.97884">
        <ele>2114</ele>
        <time>2018-06-28T11:07:26Z</time>
      </trkpt>
      <trkpt lat="45.46011" lon="6.97852">
        <ele>2125</ele>
        <time>2018-06-28T11:08:26Z</time>
      </trkpt>
      <trkpt lat="45.45991" lon="6.97929">
        <ele>2144</ele>
        <time>2018-06-28T11:09:26Z</time>
      </trkpt>
      <trkpt lat="45.46043" lon="6.97878">
        <ele>2138</ele>
        <time>2018-06-28T11:10:26Z</time>
      </trkpt>
      <trkpt lat="45.46023" lon="6.97949">
        <ele>2167</ele>
        <time>2018-06-28T11:11:26Z</time>
      </trkpt>
      <trkpt lat="45.46077" lon="6.97884">
        <ele>2146</ele>
        <time>2018-06-28T11:12:26Z</time>
      </trkpt>
      <trkpt lat="45.46074" lon="6.97949">
        <ele>2175</ele>
        <time>2018-06-28T11:13:26Z</time>
      </trkpt>
      <trkpt lat="45.46047" lon="6.98017">
        <ele>2207</ele>
        <time>2018-06-28T11:14:26Z</time>
      </trkpt>
      <trkpt lat="45.4611" lon="6.97951">
        <ele>2193</ele>
        <time>2018-06-28T11:15:26Z</time>
      </trkpt>
      <trkpt lat="45.46114" lon="6.97985">
        <ele>2200</ele>
        <time>2018-06-28T11:16:26Z</time>
      </trkpt>
      <trkpt lat="45.461" lon="6.98033">
        <ele>2227</ele>
        <time>2018-06-28T11:17:26Z</time>
      </trkpt>
      <trkpt lat="45.46137" lon="6.97999">
        <ele>2205</ele>
        <time>2018-06-28T11:18:26Z</time>
      </trkpt>
      <trkpt lat="45.46137" lon="6.98026">
        <ele>2231</ele>
        <time>2018-06-28T11:19:26Z</time>
      </trkpt>
      <trkpt lat="45.46114" lon="6.98101">
        <ele>2266</ele>
        <time>2018-06-28T11:20:26Z</time>
      </trkpt>
      <trkpt lat="45.46152" lon="6.98081">
        <ele>2253</ele>
        <time>2018-06-28T11:21:26Z</time>
      </trkpt>
      <trkpt lat="45.46147" lon="6.98108">
        <ele>2273</ele>
        <time>2018-06-28T11:22:26Z</time>
      </trkpt>
      <trkpt lat="45.46115" lon="6.98171">
        <ele>2306</ele>
        <time>2018-06-28T11:23:26Z</time>
      </trkpt>
      <trkpt lat="45.46173" lon="6.98134">
        <ele>2293</ele>
        <time>2018-06-28T11:24:26Z</time>
      </trkpt>
      <trkpt lat="45.4612" lon="6.98193">
        <ele>2311</ele>
        <time>2018-06-28T11:25:26Z</time>
      </trkpt>
      <trkpt lat="45.46089" lon="6.9821">
        <ele>2312</ele>
        <time>2018-06-28T11:26:26Z</time>
      </trkpt>
      <trkpt lat="45.46005" lon="6.98248">
        <ele>2315</ele>
        <time>2018-06-28T11:27:26Z</time>
      </trkpt>
      <trkpt lat="45.46072" lon="6.98259">
        <ele>2326</ele>
        <time>2018-06-28T11:28:26Z</time>
      </trkpt>
      <trkpt lat="45.46127" lon="6.98234">
        <ele>2322</ele>
        <time>2018-06-28T11:29:26Z</time>
      </trkpt>
      <trkpt lat="45.46191" lon="6.98178">
        <ele>2323</ele>
        <time>2018-06-28T11:30:26Z</time>
      </trkpt>
      <trkpt lat="45.46178" lon="6.98227">
        <ele>2338</ele>
        <time>2018-06-28T11:31:26Z</time>
      </trkpt>
      <trkpt lat="45.46204" lon="6.9821">
        <ele>2333</ele>
        <time>2018-06-28T11:32:26Z</time>
      </trkpt>
      <trkpt lat="45.46182" lon="6.98253">
        <ele>2362</ele>
        <time>2018-06-28T11:33:26Z</time>
      </trkpt>
      <trkpt lat="45.46223" lon="6.98256">
        <ele>2371</ele>
        <time>2018-06-28T11:34:26Z</time>
      </trkpt>
      <trkpt lat="45.46175" lon="6.9835">
        <ele>2409</ele>
        <time>2018-06-28T11:35:26Z</time>
      </trkpt>
      <trkpt lat="45.46204" lon="6.98362">
        <ele>2419</ele>
        <time>2018-06-28T11:36:26Z</time>
      </trkpt>
      <trkpt lat="45.46225" lon="6.98354">
        <ele>2420</ele>
        <time>2018-06-28T11:37:26Z</time>
      </trkpt>
      <trkpt lat="45.46251" lon="6.984">
        <ele>2446</ele>
        <time>2018-06-28T11:38:26Z</time>
      </trkpt>
      <trkpt lat="45.46308" lon="6.98488">
        <ele>2490</ele>
        <time>2018-06-28T11:39:26Z</time>
      </trkpt>
      <trkpt lat="45.46346" lon="6.98495">
        <ele>2493</ele>
        <time>2018-06-28T11:40:26Z</time>
      </trkpt>
      <trkpt lat="45.4634" lon="6.98512">
        <ele>2512</ele>
        <time>2018-06-28T11:41:26Z</time>
      </trkpt>
      <trkpt lat="45.46365" lon="6.98539">
        <ele>2525</ele>
        <time>2018-06-28T11:42:26Z</time>
      </trkpt>
      <trkpt lat="45.46382" lon="6.98583">
        <ele>2534</ele>
        <time>2018-06-28T11:43:26Z</time>
      </trkpt>
      <trkpt lat="45.46403" lon="6.98586">
        <ele>2544</ele>
        <time>2018-06-28T11:44:26Z</time>
      </trkpt>
      <trkpt lat="45.46448" lon="6.98515">
        <ele>2527</ele>
        <time>2018-06-28T11:45:26Z</time>
      </trkpt>
      <trkpt lat="45.46491" lon="6.98471">
        <ele>2519</ele>
        <time>2018-06-28T11:46:26Z</time>
      </trkpt>
      <trkpt lat="45.46556" lon="6.98468">
        <ele>2540</ele>
        <time>2018-06-28T11:47:26Z</time>
      </trkpt>
      <trkpt lat="45.46611" lon="6.98424">
        <ele>2543</ele>
        <time>2018-06-28T11:48:26Z</time>
      </trkpt>
      <trkpt lat="45.46635" lon="6.98444">
        <ele>2547</ele>
        <time>2018-06-28T11:49:26Z</time>
      </trkpt>
      <trkpt lat="45.46653" lon="6.98468">
        <ele>2549</ele>
        <time>2018-06-28T11:50:26Z</time>
      </trkpt>
      <trkpt lat="45.46688" lon="6.98463">
        <ele>2570</ele>
        <time>2018-06-28T11:51:26Z</time>
      </trkpt>
      <trkpt lat="45.46702" lon="6.98492">
        <ele>2575</ele>
        <time>2018-06-28T11:52:26Z</time>
      </trkpt>
      <trkpt lat="45.46717" lon="6.98545">
        <ele>2586</ele>
        <time>2018-06-28T11:53:26Z</time>
      </trkpt>
      <trkpt lat="45.46761" lon="6.98633">
        <ele>2613</ele>
        <time>2018-06-28T11:54:26Z</time>
      </trkpt>
      <trkpt lat="45.46749" lon="6.98759">
        <ele>2628</ele>
        <time>2018-06-28T11:55:26Z</time>
      </trkpt>
      <trkpt lat="45.46824" lon="6.98802">
        <ele>2652</ele>
        <time>2018-06-28T11:56:26Z</time>
      </trkpt>
      <trkpt lat="45.46872" lon="6.98876">
        <ele>2653</ele>
        <time>2018-06-28T11:57:26Z</time>
      </trkpt>
      <trkpt lat="45.4692" lon="6.98862">
        <ele>2660</ele>
        <time>2018-06-28T11:58:26Z</time>
      </trkpt>
      <trkpt lat="45.46949" lon="6.98879">
        <ele>2662</ele>
        <time>2018-06-28T11:59:26Z</time>
      </trkpt>
      <trkpt lat="45.46949" lon="6.98916">
        <ele>2654</ele>
        <time>2018-06-28T12:00:26Z</time>
      </trkpt>
      <trkpt lat="45.46987" lon="6.98958">
        <ele>2654</ele>
        <time>2018-06-28T12:01:26Z</time>
      </trkpt>
      <trkpt lat="45.47024" lon="6.99001">
        <ele>2657</ele>
        <time>2018-06-28T12:02:26Z</time>
      </trkpt>
      <trkpt lat="45.47052" lon="6.98973">
        <ele>2669</ele>
        <time>2018-06-28T12:03:26Z</time>
      </trkpt>
      <trkpt lat="45.47117" lon="6.98973">
        <ele>2692</ele>
        <time>2018-06-28T12:04:26Z</time>
      </trkpt>
      <trkpt lat="45.47142" lon="6.98932">
        <ele>2708</ele>
        <time>2018-06-28T12:05:26Z</time>
      </trkpt>
      <trkpt lat="45.47164" lon="6.98906">
        <ele>2719</ele>
        <time>2018-06-28T12:06:26Z</time>
      </trkpt>
      <trkpt lat="45.47156" lon="6.98878">
        <ele>2721</ele>
        <time>2018-06-28T12:07:26Z</time>
      </trkpt>
      <trkpt lat="45.47182" lon="6.98828">
        <ele>2735</ele>
        <time>2018-06-28T12:08:26Z</time>
      </trkpt>
      <trkpt lat="45.47204" lon="6.98809">
        <ele>2744</ele>
        <time>2018-06-28T12:09:26Z</time>
      </trkpt>
      <trkpt lat="45.47221" lon="6.98809">
        <ele>2750</ele>
        <time>2018-06-28T12:10:26Z</time>
      </trkpt>
      <trkpt lat="45.47238" lon="6.98785">
        <ele>2757</ele>
        <time>2018-06-28T12:11:26Z</time>
      </trkpt>
      <trkpt lat="45.47254" lon="6.98779">
        <ele>2763</ele>
        <time>2018-06-28T12:12:26Z</time>
      </trkpt>
      <trkpt lat="45.47259" lon="6.9884">
        <ele>2763</ele>
        <time>2018-06-28T12:13:26Z</time>
      </trkpt>
      <trkpt lat="45.47281" lon="6.98856">
        <ele>2772</ele>
        <time>2018-06-28T12:14:26Z</time>
      </trkpt>
      <trkpt lat="45.47309" lon="6.98888">
        <ele>2785</ele>
        <time>2018-06-28T12:15:26Z</time>
      </trkpt>
      <trkpt lat="45.47307" lon="6.98949">
        <ele>2787</ele>
        <time>2018-06-28T12:16:26Z</time>
      </trkpt>
      <trkpt lat="45.47306" lon="6.99011">
        <ele>2789</ele>
        <time>2018-06-28T12:17:26Z</time>
      </trkpt>
      <trkpt lat="45.47289" lon="6.99038">
        <ele>2780</ele>
        <time>2018-06-28T12:18:26Z</time>
      </trkpt>
      <trkpt lat="45.47284" lon="6.99086">
        <ele>2777</ele>
        <time>2018-06-28T12:19:26Z</time>
      </trkpt>
      <trkpt lat="45.47267" lon="6.99145">
        <ele>2769</ele>
        <time>2018-06-28T12:20:26Z</time>
      </trkpt>
      <trkpt lat="45.47259" lon="6.99211">
        <ele>2763</ele>
        <time>2018-06-28T12:21:26Z</time>
      </trkpt>
      <trkpt lat="45.47271" lon="6.99258">
        <ele>2763</ele>
        <time>2018-06-28T12:22:26Z</time>
      </trkpt>
      <trkpt lat="45.47262" lon="6.99313">
        <ele>2762</ele>
        <time>2018-06-28T12:23:26Z</time>
      </trkpt>
      <trkpt lat="45.4724" lon="6.99357">
        <ele>2755</ele>
        <time>2018-06-28T12:24:26Z</time>
      </trkpt>
      <trkpt lat="45.47227" lon="6.99403">
        <ele>2745</ele>
        <time>2018-06-28T12:25:26Z</time>
      </trkpt>
      <trkpt lat="45.47234" lon="6.99444">
        <ele>2733</ele>
        <time>2018-06-28T12:26:26Z</time>
      </trkpt>
      <trkpt lat="45.47219" lon="6.99463">
        <ele>2728</ele>
        <time>2018-06-28T12:27:26Z</time>
      </trkpt>
      <trkpt lat="45.47261" lon="6.99466">
        <ele>2724</ele>
        <time>2018-06-28T12:28:26Z</time>
      </trkpt>
      <trkpt lat="45.47255" lon="6.99485">
        <ele>2717</ele>
        <time>2018-06-28T12:29:26Z</time>
      </trkpt>
      <trkpt lat="45.47289" lon="6.99486">
        <ele>2716</ele>
        <time>2018-06-28T12:30:26Z</time>
      </trkpt>
      <trkpt lat="45.47312" lon="6.99506">
        <ele>2707</ele>
        <time>2018-06-28T12:31:26Z</time>
      </trkpt>
      <trkpt lat="45.47328" lon="6.99592">
        <ele>2679</ele>
        <time>2018-06-28T12:32:26Z</time>
      </trkpt>
      <trkpt lat="45.47389" lon="6.99626">
        <ele>2671</ele>
        <time>2018-06-28T12:33:26Z</time>
      </trkpt>
      <trkpt lat="45.47384" lon="6.99664">
        <ele>2660</ele>
        <time>2018-06-28T12:34:26Z</time>
      </trkpt>
      <trkpt lat="45.47439" lon="6.99639">
        <ele>2664</ele>
        <time>2018-06-28T12:35:26Z</time>
      </trkpt>
      <trkpt lat="45.4741" lon="6.99685">
        <ele>2652</ele>
        <time>2018-06-28T12:36:26Z</time>
      </trkpt>
      <trkpt lat="45.47464" lon="6.99682">
        <ele>2647</ele>
        <time>2018-06-28T12:37:26Z</time>
      </trkpt>
      <trkpt lat="45.47503" lon="6.99718">
        <ele>2631</ele>
        <time>2018-06-28T12:38:26Z</time>
      </trkpt>
      <trkpt lat="45.47541" lon="6.99756">
        <ele>2620</ele>
        <time>2018-06-28T12:39:26Z</time>
      </trkpt>
      <trkpt lat="45.47582" lon="6.99803">
        <ele>2614</ele>
        <time>2018-06-28T12:40:26Z</time>
      </trkpt>
      <trkpt lat="45.47617" lon="6.9987">
        <ele>2602</ele>
        <time>2018-06-28T12:41:26Z</time>
      </trkpt>
      <trkpt lat="45.47627" lon="6.9989">
        <ele>2599</ele>
        <time>2018-06-28T12:42:26Z</time>
      </trkpt>
      <trkpt lat="45.47676" lon="6.99882">
        <ele>2592</ele>
        <time>2018-06-28T12:43:26Z</time>
      </trkpt>
      <trkpt lat="45.47716" lon="6.99844">
        <ele>2590</ele>
        <time>2018-06-28T12:44:26Z</time>
      </trkpt>
      <trkpt lat="45.47776" lon="6.99849">
        <ele>2584</ele>
        <time>2018-06-28T12:45:26Z</time>
      </trkpt>
      <trkpt lat="45.47869" lon="6.99906">
        <ele>2572</ele>
        <time>2018-06-28T12:46:26Z</time>
      </trkpt>
      <trkpt lat="45.47917" lon="6.99923">
        <ele>2538</ele>
        <time>2018-06-28T12:47:26Z</time>
      </trkpt>
      <trkpt lat="45.47971" lon="6.99894">
        <ele>2544</ele>
        <time>2018-06-28T12:48:26Z</time>
      </trkpt>
      <trkpt lat="45.47976" lon="6.99967">
        <ele>2536</ele>
        <time>2018-06-28T12:49:26Z</time>
      </trkpt>
      <trkpt lat="45.48031" lon="6.99931">
        <ele>2529</ele>
        <time>2018-06-28T12:50:26Z</time>
      </trkpt>
      <trkpt lat="45.48069" lon="7">
        <ele>2509</ele>
        <time>2018-06-28T12:51:26Z</time>
      </trkpt>
      <trkpt lat="45.4808" lon="7.00057">
        <ele>2505</ele>
        <time>2018-06-28T12:52:26Z</time>
      </trkpt>
      <trkpt lat="45.48132" lon="7.00037">
        <ele>2494</ele>
        <time>2018-06-28T12:53:26Z</time>
      </trkpt>
      <trkpt lat="45.48188" lon="7.00041">
        <ele>2486</ele>
        <time>2018-06-28T12:54:26Z</time>
      </trkpt>
      <trkpt lat="45.48259" lon="7.00046">
        <ele>2479</ele>
        <time>2018-06-28T12:55:26Z</time>
      </trkpt>
      <trkpt lat="45.48307" lon="7.00093">
        <ele>2472</ele>
        <time>2018-06-28T12:56:26Z</time>
      </trkpt>
      <trkpt lat="45.4838" lon="7.00069">
        <ele>2471</ele>
        <time>2018-06-28T12:57:26Z</time>
      </trkpt>
      <trkpt lat="45.48414" lon="6.99999">
        <ele>2468</ele>
        <time>2018-06-28T12:58:26Z</time>
      </trkpt>
      <trkpt lat="45.48426" lon="6.99982">
        <ele>2467</ele>
        <time>2018-06-28T12:59:26Z</time>
      </trkpt>
      <trkpt lat="45.48452" lon="6.99967">
        <ele>2467</ele>
        <time>2018-06-28T13:00:26Z</time>
      </trkpt>
      <trkpt lat="45.48476" lon="6.99937">
        <ele>2468</ele>
        <time>2018-06-28T13:01:26Z</time>
      </trkpt>
      <trkpt lat="45.4855" lon="6.99844">
        <ele>2461</ele>
        <time>2018-06-28T13:02:26Z</time>
      </trkpt>
      <trkpt lat="45.48597" lon="6.99758">
        <ele>2446</ele>
        <time>2018-06-28T13:03:26Z</time>
      </trkpt>
      <trkpt lat="45.486" lon="6.99714">
        <ele>2442</ele>
        <time>2018-06-28T13:04:26Z</time>
      </trkpt>
      <trkpt lat="45.48613" lon="6.99673">
        <ele>2441</ele>
        <time>2018-06-28T13:05:26Z</time>
      </trkpt>
      <trkpt lat="45.48626" lon="6.99562">
        <ele>2429</ele>
        <time>2018-06-28T13:06:26Z</time>
      </trkpt>
      <trkpt lat="45.48637" lon="6.99503">
        <ele>2424</ele>
        <time>2018-06-28T13:07:26Z</time>
      </trkpt>
      <trkpt lat="45.48658" lon="6.99444">
        <ele>2421</ele>
        <time>2018-06-28T13:08:26Z</time>
      </trkpt>
      <trkpt lat="45.48664" lon="6.99357">
        <ele>2418</ele>
        <time>2018-06-28T13:09:26Z</time>
      </trkpt>
      <trkpt lat="45.48704" lon="6.99227">
        <ele>2397</ele>
        <time>2018-06-28T13:10:26Z</time>
      </trkpt>
      <trkpt lat="45.48741" lon="6.9917">
        <ele>2388</ele>
        <time>2018-06-28T13:11:26Z</time>
      </trkpt>
      <trkpt lat="45.48752" lon="6.99122">
        <ele>2374</ele>
        <time>2018-06-28T13:12:26Z</time>
      </trkpt>
      <trkpt lat="45.48775" lon="6.99029">
        <ele>2373</ele>
        <time>2018-06-28T13:13:26Z</time>
      </trkpt>
      <trkpt lat="45.48817" lon="6.98949">
        <ele>2363</ele>
        <time>2018-06-28T13:14:26Z</time>
      </trkpt>
      <trkpt lat="45.48834" lon="6.98856">
        <ele>2345</ele>
        <time>2018-06-28T13:15:26Z</time>
      </trkpt>
      <trkpt lat="45.48828" lon="6.98787">
        <ele>2361</ele>
        <time>2018-06-28T13:16:26Z</time>
      </trkpt>
      <trkpt lat="45.48854" lon="6.9872">
        <ele>2345</ele>
        <time>2018-06-28T13:17:26Z</time>
      </trkpt>
      <trkpt lat="45.48843" lon="6.98541">
        <ele>2332</ele>
        <time>2018-06-28T13:18:26Z</time>
      </trkpt>
      <trkpt lat="45.48833" lon="6.98462">
        <ele>2332</ele>
        <time>2018-06-28T13:19:26Z</time>
      </trkpt>
      <trkpt lat="45.48815" lon="6.98413">
        <ele>2326</ele>
        <time>2018-06-28T13:20:26Z</time>
      </trkpt>
      <trkpt lat="45.48794" lon="6.98341">
        <ele>2327</ele>
        <time>2018-06-28T13:21:26Z</time>
      </trkpt>
      <trkpt lat="45.48786" lon="6.98283">
        <ele>2325</ele>
        <time>2018-06-28T13:22:26Z</time>
      </trkpt>
      <trkpt lat="45.48791" lon="6.98205">
        <ele>2325</ele>
        <time>2018-06-28T13:23:26Z</time>
      </trkpt>
      <trkpt lat="45.48782" lon="6.98052">
        <ele>2320</ele>
        <time>2018-06-28T13:24:26Z</time>
      </trkpt>
      <trkpt lat="45.48776" lon="6.97937">
        <ele>2318</ele>
        <time>2018-06-28T13:25:26Z</time>
      </trkpt>
      <trkpt lat="45.48765" lon="6.97808">
        <ele>2309</ele>
        <time>2018-06-28T13:26:26Z</time>
      </trkpt>
      <trkpt lat="45.48758" lon="6.97731">
        <ele>2309</ele>
        <time>2018-06-28T13:27:26Z</time>
      </trkpt>
      <trkpt lat="45.48752" lon="6.9765">
        <ele>2307</ele>
        <time>2018-06-28T13:28:26Z</time>
      </trkpt>
      <trkpt lat="45.48756" lon="6.97585">
        <ele>2305</ele>
        <time>2018-06-28T13:29:26Z</time>
      </trkpt>
      <trkpt lat="45.48755" lon="6.97488">
        <ele>2302</ele>
        <time>2018-06-28T13:30:26Z</time>
      </trkpt>
      <trkpt lat="45.48737" lon="6.97457">
        <ele>2307</ele>
        <time>2018-06-28T13:31:26Z</time>
      </trkpt>
      <trkpt lat="45.48701" lon="6.97423">
        <ele>2308</ele>
        <time>2018-06-28T13:32:26Z</time>
      </trkpt>
      <trkpt lat="45.48686" lon="6.9736">
        <ele>2301</ele>
        <time>2018-06-28T13:33:26Z</time>
      </trkpt>
      <trkpt lat="45.48663" lon="6.97315">
        <ele>2310</ele>
        <time>2018-06-28T13:34:26Z</time>
      </trkpt>
      <trkpt lat="45.48636" lon="6.97234">
        <ele>2308</ele>
        <time>2018-06-28T13:35:26Z</time>
      </trkpt>
      <trkpt lat="45.48635" lon="6.97172">
        <ele>2307</ele>
        <time>2018-06-28T13:36:26Z</time>
      </trkpt>
      <trkpt lat="45.48616" lon="6.97146">
        <ele>2307</ele>
        <time>2018-06-28T13:37:26Z</time>
      </trkpt>
      <trkpt lat="45.48596" lon="6.97081">
        <ele>2306</ele>
        <time>2018-06-28T13:38:26Z</time>
      </trkpt>
      <trkpt lat="45.48571" lon="6.9704">
        <ele>2313</ele>
        <time>2018-06-28T13:39:26Z</time>
      </trkpt>
      <trkpt lat="45.48549" lon="6.97017">
        <ele>2314</ele>
        <time>2018-06-28T13:40:26Z</time>
      </trkpt>
      <trkpt lat="45.48539" lon="6.96936">
        <ele>2302</ele>
        <time>2018-06-28T13:41:26Z</time>
      </trkpt>
      <trkpt lat="45.48548" lon="6.96888">
        <ele>2295</ele>
        <time>2018-06-28T13:42:26Z</time>
      </trkpt>
      <trkpt lat="45.48568" lon="6.96846">
        <ele>2291</ele>
        <time>2018-06-28T13:43:26Z</time>
      </trkpt>
      <trkpt lat="45.48553" lon="6.96799">
        <ele>2288</ele>
        <time>2018-06-28T13:44:26Z</time>
      </trkpt>
      <trkpt lat="45.48548" lon="6.96764">
        <ele>2287</ele>
        <time>2018-06-28T13:45:26Z</time>
      </trkpt>
      <trkpt lat="45.48581" lon="6.96729">
        <ele>2279</ele>
        <time>2018-06-28T13:46:26Z</time>
      </trkpt>
      <trkpt lat="45.48523" lon="6.96649">
        <ele>2264</ele>
        <time>2018-06-28T13:47:26Z</time>
      </trkpt>
      <trkpt lat="45.48486" lon="6.96652">
        <ele>2257</ele>
        <time>2018-06-28T13:48:26Z</time>
      </trkpt>
      <trkpt lat="45.48453" lon="6.96662">
        <ele>2253</ele>
        <time>2018-06-28T13:49:26Z</time>
      </trkpt>
      <trkpt lat="45.48418" lon="6.96682">
        <ele>2265</ele>
        <time>2018-06-28T13:50:26Z</time>
      </trkpt>
      <trkpt lat="45.48381" lon="6.96688">
        <ele>2269</ele>
        <time>2018-06-28T13:51:26Z</time>
      </trkpt>
      <trkpt lat="45.48359" lon="6.96667">
        <ele>2267</ele>
        <time>2018-06-28T13:52:26Z</time>
      </trkpt>
      <trkpt lat="45.48371" lon="6.96585">
        <ele>2245</ele>
        <time>2018-06-28T13:53:26Z</time>
      </trkpt>
      <trkpt lat="45.48323" lon="6.96526">
        <ele>2244</ele>
        <time>2018-06-28T13:54:26Z</time>
      </trkpt>
      <trkpt lat="45.4831" lon="6.96456">
        <ele>2232</ele>
        <time>2018-06-28T13:55:26Z</time>
      </trkpt>
      <trkpt lat="45.48287" lon="6.96385">
        <ele>2225</ele>
        <time>2018-06-28T13:56:26Z</time>
      </trkpt>
      <trkpt lat="45.4827" lon="6.96347">
        <ele>2225</ele>
        <time>2018-06-28T13:57:26Z</time>
      </trkpt>
      <trkpt lat="45.48273" lon="6.96294">
        <ele>2214</ele>
        <time>2018-06-28T13:58:26Z</time>
      </trkpt>
      <trkpt lat="45.48229" lon="6.96239">
        <ele>2219</ele>
        <time>2018-06-28T13:59:26Z</time>
      </trkpt>
      <trkpt lat="45.48216" lon="6.96162">
        <ele>2210</ele>
        <time>2018-06-28T14:00:26Z</time>
      </trkpt>
      <trkpt lat="45.4824" lon="6.96162">
        <ele>2204</ele>
        <time>2018-06-28T14:01:26Z</time>
      </trkpt>
      <trkpt lat="45.48256" lon="6.96198">
        <ele>2201</ele>
        <time>2018-06-28T14:02:26Z</time>
      </trkpt>
      <trkpt lat="45.48301" lon="6.96222">
        <ele>2198</ele>
        <time>2018-06-28T14:03:26Z</time>
      </trkpt>
      <trkpt lat="45.48333" lon="6.96313">
        <ele>2210</ele>
        <time>2018-06-28T14:04:26Z</time>
      </trkpt>
      <trkpt lat="45.48331" lon="6.96241">
        <ele>2196</ele>
        <time>2018-06-28T14:05:26Z</time>
      </trkpt>
      <trkpt lat="45.48332" lon="6.96212">
        <ele>2196</ele>
        <time>2018-06-28T14:06:26Z</time>
      </trkpt>
      <trkpt lat="45.4833" lon="6.96137">
        <ele>2183</ele>
        <time>2018-06-28T14:07:26Z</time>
      </trkpt>
      <trkpt lat="45.48381" lon="6.96169">
        <ele>2187</ele>
        <time>2018-06-28T14:08:26Z</time>
      </trkpt>
      <trkpt lat="45.48354" lon="6.96086">
        <ele>2173</ele>
        <time>2018-06-28T14:09:26Z</time>
      </trkpt>
      <trkpt lat="45.4832" lon="6.96074">
        <ele>2165</ele>
        <time>2018-06-28T14:10:26Z</time>
      </trkpt>
      <trkpt lat="45.48294" lon="6.9601">
        <ele>2161</ele>
        <time>2018-06-28T14:11:26Z</time>
      </trkpt>
      <trkpt lat="45.48288" lon="6.95948">
        <ele>2145</ele>
        <time>2018-06-28T14:12:26Z</time>
      </trkpt>
      <trkpt lat="45.48269" lon="6.95908">
        <ele>2138</ele>
        <time>2018-06-28T14:13:26Z</time>
      </trkpt>
      <trkpt lat="45.48275" lon="6.95864">
        <ele>2133</ele>
        <time>2018-06-28T14:14:26Z</time>
      </trkpt>
      <trkpt lat="45.48261" lon="6.95805">
        <ele>2126</ele>
        <time>2018-06-28T14:15:26Z</time>
      </trkpt>
      <trkpt lat="45.48265" lon="6.9571">
        <ele>2104</ele>
        <time>2018-06-28T14:16:26Z</time>
      </trkpt>
      <trkpt lat="45.48221" lon="6.95608">
        <ele>2103</ele>
        <time>2018-06-28T14:17:26Z</time>
      </trkpt>
      <trkpt lat="45.48188" lon="6.95526">
        <ele>2078</ele>
        <time>2018-06-28T14:18:26Z</time>
      </trkpt>
      <trkpt lat="45.48147" lon="6.95482">
        <ele>2061</ele>
        <time>2018-06-28T14:19:26Z</time>
      </trkpt>
      <trkpt lat="45.48146" lon="6.95456">
        <ele>2055</ele>
        <time>2018-06-28T14:20:26Z</time>
      </trkpt>
      <trkpt lat="45.48156" lon="6.95446">
        <ele>2053</ele>
        <time>2018-06-28T14:21:26Z</time>
      </trkpt>
      <trkpt lat="45.48142" lon="6.95429">
        <ele>2051</ele>
        <time>2018-06-28T14:22:26Z</time>
      </trkpt>
      <trkpt lat="45.48168" lon="6.95339">
        <ele>2022</ele>
        <time>2018-06-28T14:23:26Z</time>
      </trkpt>
      <trkpt lat="45.48177" lon="6.95298">
        <ele>2005</ele>
        <time>2018-06-28T14:24:26Z</time>
      </trkpt>
      <trkpt lat="45.48189" lon="6.95242">
        <ele>1990</ele>
        <time>2018-06-28T14:25:26Z</time>
      </trkpt>
      <trkpt lat="45.48199" lon="6.95203">
        <ele>1982</ele>
        <time>2018-06-28T14:26:26Z</time>
      </trkpt>
      <trkpt lat="45.48217" lon="6.95169">
        <ele>1978</ele>
        <time>2018-06-28T14:27:26Z</time>
      </trkpt>
      <trkpt lat="45.4824" lon="6.95116">
        <ele>1965</ele>
        <time>2018-06-28T14:28:26Z</time>
      </trkpt>
      <trkpt lat="45.48247" lon="6.95053">
        <ele>1953</ele>
        <time>2018-06-28T14:29:26Z</time>
      </trkpt>
      <trkpt lat="45.48249" lon="6.95006">
        <ele>1949</ele>
        <time>2018-06-28T14:30:26Z</time>
      </trkpt>
      <trkpt lat="45.48286" lon="6.94933">
        <ele>1932</ele>
        <time>2018-06-28T14:31:26Z</time>
      </trkpt>
      <trkpt lat="45.48301" lon="6.94849">
        <ele>1910</ele>
        <time>2018-06-28T14:32:26Z</time>
      </trkpt>
      <trkpt lat="45.48329" lon="6.94781">
        <ele>1889</ele>
        <time>2018-06-28T14:33:26Z</time>
      </trkpt>
      <trkpt lat="45.48333" lon="6.9476">
        <ele>1887</ele>
        <time>2018-06-28T14:34:26Z</time>
      </trkpt>
      <trkpt lat="45.48299" lon="6.94746">
        <ele>1871</ele>
        <time>2018-06-28T14:35:26Z</time>
      </trkpt>
      <trkpt lat="45.48329" lon="6.94704">
        <ele>1868</ele>
        <time>2018-06-28T14:36:26Z</time>
      </trkpt>
      <trkpt lat="45.48275" lon="6.94691">
        <ele>1862</ele>
        <time>2018-06-28T14:37:26Z</time>
      </trkpt>
      <trkpt lat="45.48303" lon="6.94655">
        <ele>1851</ele>
        <time>2018-06-28T14:38:26Z</time>
      </trkpt>
      <trkpt lat="45.48307" lon="6.94625">
        <ele>1847</ele>
        <time>2018-06-28T14:39:26Z</time>
      </trkpt>
      <trkpt lat="45.48348" lon="6.94619">
        <ele>1854</ele>
        <time>2018-06-28T14:40:26Z</time>
      </trkpt>
      <trkpt lat="45.48399" lon="6.94666">
        <ele>1867</ele>
        <time>2018-06-28T14:41:26Z</time>
      </trkpt>
      <trkpt lat="45.48442" lon="6.94637">
        <ele>1878</ele>
        <time>2018-06-28T14:42:26Z</time>
      </trkpt>
      <trkpt lat="45.48494" lon="6.94631">
        <ele>1887</ele>
        <time>2018-06-28T14:43:26Z</time>
      </trkpt>
      <trkpt lat="45.48533" lon="6.94594">
        <ele>1907</ele>
        <time>2018-06-28T14:44:26Z</time>
      </trkpt>
      <trkpt lat="45.48611" lon="6.94543">
        <ele>1907</ele>
        <time>2018-06-28T14:45:26Z</time>
      </trkpt>
      <trkpt lat="45.48686" lon="6.94517">
        <ele>1924</ele>
        <time>2018-06-28T14:46:26Z</time>
      </trkpt>
      <trkpt lat="45.48747" lon="6.94465">
        <ele>1906</ele>
        <time>2018-06-28T14:47:26Z</time>
      </trkpt>
      <trkpt lat="45.48774" lon="6.94437">
        <ele>1918</ele>
        <time>2018-06-28T14:48:26Z</time>
      </trkpt>
      <trkpt lat="45.48833" lon="6.94418">
        <ele>1916</ele>
        <time>2018-06-28T14:49:26Z</time>
      </trkpt>
      <trkpt lat="45.48837" lon="6.94459">
        <ele>1939</ele>
        <time>2018-06-28T14:50:26Z</time>
      </trkpt>
      <trkpt lat="45.48884" lon="6.94476">
        <ele>1946</ele>
        <time>2018-06-28T14:51:26Z</time>
      </trkpt>
      <trkpt lat="45.48915" lon="6.94499">
        <ele>1965</ele>
        <time>2018-06-28T14:52:26Z</time>
      </trkpt>
      <trkpt lat="45.48956" lon="6.94514">
        <ele>1988</ele>
        <time>2018-06-28T14:53:26Z</time>
      </trkpt>
      <trkpt lat="45.49049" lon="6.9449">
        <ele>1990</ele>
        <time>2018-06-28T14:54:26Z</time>
      </trkpt>
      <trkpt lat="45.4904" lon="6.94517">
        <ele>2013</ele>
        <time>2018-06-28T14:55:26Z</time>
      </trkpt>
      <trkpt lat="45.49089" lon="6.94487">
        <ele>2014</ele>
        <time>2018-06-28T14:56:26Z</time>
      </trkpt>
      <trkpt lat="45.49131" lon="6.94479">
        <ele>2021</ele>
        <time>2018-06-28T14:57:26Z</time>
      </trkpt>
      <trkpt lat="45.49103" lon="6.94525">
        <ele>2040</ele>
        <time>2018-06-28T14:58:26Z</time>
      </trkpt>
      <trkpt lat="45.49145" lon="6.94522">
        <ele>2050</ele>
        <time>2018-06-28T14:59:26Z</time>
      </trkpt>
      <trkpt lat="45.49184" lon="6.94508">
        <ele>2068</ele>
        <time>2018-06-28T15:00:26Z</time>
      </trkpt>
      <trkpt lat="45.49212" lon="6.94509">
        <ele>2079</ele>
        <time>2018-06-28T15:01:26Z</time>
      </trkpt>
      <trkpt lat="45.49259" lon="6.94491">
        <ele>2085</ele>
        <time>2018-06-28T15:02:26Z</time>
      </trkpt>
      <trkpt lat="45.49277" lon="6.94547">
        <ele>2108</ele>
        <time>2018-06-28T15:03:26Z</time>
      </trkpt>
      <trkpt lat="45.49326" lon="6.94514">
        <ele>2110</ele>
        <time>2018-06-28T15:04:26Z</time>
      </trkpt>
      <trkpt lat="45.49377" lon="6.94544">
        <ele>2133</ele>
        <time>2018-06-28T15:05:26Z</time>
      </trkpt>
      <trkpt lat="45.49411" lon="6.94529">
        <ele>2136</ele>
        <time>2018-06-28T15:06:26Z</time>
      </trkpt>
      <trkpt lat="45.49439" lon="6.94487">
        <ele>2146</ele>
        <time>2018-06-28T15:07:26Z</time>
      </trkpt>
      <trkpt lat="45.49461" lon="6.94512">
        <ele>2158</ele>
        <time>2018-06-28T15:08:26Z</time>
      </trkpt>
      <trkpt lat="45.49505" lon="6.94508">
        <ele>2177</ele>
        <time>2018-06-28T15:09:26Z</time>
      </trkpt>
      <trkpt lat="45.49525" lon="6.94552">
        <ele>2186</ele>
        <time>2018-06-28T15:10:26Z</time>
      </trkpt>
      <trkpt lat="45.49537" lon="6.94587">
        <ele>2188</ele>
        <time>2018-06-28T15:11:26Z</time>
      </trkpt>
      <trkpt lat="45.49555" lon="6.946">
        <ele>2193</ele>
        <time>2018-06-28T15:12:26Z</time>
      </trkpt>
      <trkpt lat="45.49593" lon="6.94649">
        <ele>2205</ele>
        <time>2018-06-28T15:13:26Z</time>
      </trkpt>
      <trkpt lat="45.49642" lon="6.94576">
        <ele>2215</ele>
        <time>2018-06-28T15:14:26Z</time>
      </trkpt>
      <trkpt lat="45.49671" lon="6.9455">
        <ele>2222</ele>
        <time>2018-06-28T15:15:26Z</time>
      </trkpt>
      <trkpt lat="45.49688" lon="6.94567">
        <ele>2222</ele>
        <time>2018-06-28T15:16:26Z</time>
      </trkpt>
      <trkpt lat="45.49723" lon="6.94525">
        <ele>2224</ele>
        <time>2018-06-28T15:17:26Z</time>
      </trkpt>
      <trkpt lat="45.49742" lon="6.94474">
        <ele>2219</ele>
        <time>2018-06-28T15:18:26Z</time>
      </trkpt>
      <trkpt lat="45.49753" lon="6.94462">
        <ele>2213</ele>
        <time>2018-06-28T15:19:26Z</time>
      </trkpt>
      <trkpt lat="45.49761" lon="6.94391">
        <ele>2197</ele>
        <time>2018-06-28T15:20:26Z</time>
      </trkpt>
      <trkpt lat="45.49781" lon="6.94371">
        <ele>2193</ele>
        <time>2018-06-28T15:21:26Z</time>
      </trkpt>
      <trkpt lat="45.49778" lon="6.94315">
        <ele>2182</ele>
        <time>2018-06-28T15:22:26Z</time>
      </trkpt>
      <trkpt lat="45.49812" lon="6.94338">
        <ele>2181</ele>
        <time>2018-06-28T15:23:26Z</time>
      </trkpt>
      <trkpt lat="45.49812" lon="6.94311">
        <ele>2172</ele>
        <time>2018-06-28T15:24:26Z</time>
      </trkpt>
      <trkpt lat="45.49824" lon="6.94308">
        <ele>2170</ele>
        <time>2018-06-28T15:25:26Z</time>
      </trkpt>
      <trkpt lat="45.49816" lon="6.94288">
        <ele>2169</ele>
        <time>2018-06-28T15:26:26Z</time>
      </trkpt>
      <trkpt lat="45.49834" lon="6.94283">
        <ele>2157</ele>
        <time>2018-06-28T15:27:26Z</time>
      </trkpt>
      <trkpt lat="45.49837" lon="6.94271">
        <ele>2155</ele>
        <time>2018-06-28T15:28:26Z</time>
      </trkpt>
      <trkpt lat="45.49849" lon="6.94277">
        <ele>2157</ele>
        <time>2018-06-28T15:29:26Z</time>
      </trkpt>
      <trkpt lat="45.49863" lon="6.94256">
        <ele>2156</ele>
        <time>2018-06-28T15:30:26Z</time>
      </trkpt>
      <trkpt lat="45.49896" lon="6.94244">
        <ele>2145</ele>
        <time>2018-06-28T15:31:26Z</time>
      </trkpt>
      <trkpt lat="45.49905" lon="6.94229">
        <ele>2143</ele>
        <time>2018-06-28T15:32:26Z</time>
      </trkpt>
      <trkpt lat="45.49956" lon="6.94162">
        <ele>2116</ele>
        <time>2018-06-28T15:33:26Z</time>
      </trkpt>
      <trkpt lat="45.5001" lon="6.94097">
        <ele>2114</ele>
        <time>2018-06-28T15:34:26Z</time>
      </trkpt>
      <trkpt lat="45.50042" lon="6.9405">
        <ele>2099</ele>
        <time>2018-06-28T15:35:26Z</time>
      </trkpt>
      <trkpt lat="45.50105" lon="6.94007">
        <ele>2108</ele>
        <time>2018-06-28T15:36:26Z</time>
      </trkpt>
      <trkpt lat="45.50166" lon="6.93969">
        <ele>2093</ele>
        <time>2018-06-28T15:37:26Z</time>
      </trkpt>
      <trkpt lat="45.50214" lon="6.93927">
        <ele>2109</ele>
        <time>2018-06-28T15:38:26Z</time>
      </trkpt>
      <trkpt lat="45.50245" lon="6.93883">
        <ele>2088</ele>
        <time>2018-06-28T15:39:26Z</time>
      </trkpt>
      <trkpt lat="45.50281" lon="6.93883">
        <ele>2109</ele>
        <time>2018-06-28T15:40:26Z</time>
      </trkpt>
      <trkpt lat="45.50322" lon="6.93834">
        <ele>2103</ele>
        <time>2018-06-28T15:41:26Z</time>
      </trkpt>
      <trkpt lat="45.50379" lon="6.93786">
        <ele>2105</ele>
        <time>2018-06-28T15:42:26Z</time>
      </trkpt>
      <trkpt lat="45.50378" lon="6.93742">
        <ele>2074</ele>
        <time>2018-06-28T15:43:26Z</time>
      </trkpt>
      <trkpt lat="45.50408" lon="6.93711">
        <ele>2074</ele>
        <time>2018-06-28T15:44:26Z</time>
      </trkpt>
      <trkpt lat="45.50413" lon="6.93666">
        <ele>2064</ele>
        <time>2018-06-28T15:45:26Z</time>
      </trkpt>
      <trkpt lat="45.50432" lon="6.93622">
        <ele>2064</ele>
        <time>2018-06-28T15:46:26Z</time>
      </trkpt>
      <trkpt lat="45.50496" lon="6.93509">
        <ele>2047</ele>
        <time>2018-06-28T15:47:26Z</time>
      </trkpt>
      <trkpt lat="45.50557" lon="6.93464">
        <ele>2041</ele>
        <time>2018-06-28T15:48:26Z</time>
      </trkpt>
      <trkpt lat="45.50587" lon="6.93418">
        <ele>2029</ele>
        <time>2018-06-28T15:49:26Z</time>
      </trkpt>
      <trkpt lat="45.50625" lon="6.93352">
        <ele>2017</ele>
        <time>2018-06-28T15:50:26Z</time>
      </trkpt>
      <trkpt lat="45.50675" lon="6.93306">
        <ele>2002</ele>
        <time>2018-06-28T15:51:26Z</time>
      </trkpt>
      <trkpt lat="45.5074" lon="6.9323">
        <ele>1984</ele>
        <time>2018-06-28T15:52:26Z</time>
      </trkpt>
      <trkpt lat="45.50774" lon="6.93203">
        <ele>1985</ele>
        <time>2018-06-28T15:53:26Z</time>
      </trkpt>
      <trkpt lat="45.50797" lon="6.93157">
        <ele>1974</ele>
        <time>2018-06-28T15:54:26Z</time>
      </trkpt>
      <trkpt lat="45.50849" lon="6.93121">
        <ele>1976</ele>
        <time>2018-06-28T15:55:26Z</time>
      </trkpt>
      <trkpt lat="45.50857" lon="6.93144">
        <ele>1977</ele>
        <time>2018-06-28T15:56:26Z</time>
      </trkpt>
      <trkpt lat="45.50903" lon="6.93103">
        <ele>1974</ele>
        <time>2018-06-28T15:57:26Z</time>
      </trkpt>
      <trkpt lat="45.50957" lon="6.93107">
        <ele>1984</ele>
        <time>2018-06-28T15:58:26Z</time>
      </trkpt>
      <trkpt lat="45.51" lon="6.93018">
        <ele>1959</ele>
        <time>2018-06-28T15:59:26Z</time>
      </trkpt>
      <trkpt lat="45.51058" lon="6.92959">
        <ele>1948</ele>
        <time>2018-06-28T16:00:26Z</time>
      </trkpt>
      <trkpt lat="45.51082" lon="6.92907">
        <ele>1932</ele>
        <time>2018-06-28T16:01:26Z</time>
      </trkpt>
      <trkpt lat="45.5111" lon="6.92881">
        <ele>1939</ele>
        <time>2018-06-28T16:02:26Z</time>
      </trkpt>
      <trkpt lat="45.51152" lon="6.92796">
        <ele>1909</ele>
        <time>2018-06-28T16:03:26Z</time>
      </trkpt>
      <trkpt lat="45.51203" lon="6.92734">
        <ele>1904</ele>
        <time>2018-06-28T16:04:26Z</time>
      </trkpt>
      <trkpt lat="45.51245" lon="6.92681">
        <ele>1900</ele>
        <time>2018-06-28T16:05:26Z</time>
      </trkpt>
      <trkpt lat="45.51285" lon="6.92598">
        <ele>1884</ele>
        <time>2018-06-28T16:06:26Z</time>
      </trkpt>
      <trkpt lat="45.51312" lon="6.92529">
        <ele>1851</ele>
        <time>2018-06-28T16:07:26Z</time>
      </trkpt>
      <trkpt lat="45.51337" lon="6.92497">
        <ele>1854</ele>
        <time>2018-06-28T16:08:26Z</time>
      </trkpt>
      <trkpt lat="45.51395" lon="6.92491">
        <ele>1867</ele>
        <time>2018-06-28T16:09:26Z</time>
      </trkpt>
      <trkpt lat="45.51436" lon="6.92511">
        <ele>1895</ele>
        <time>2018-06-28T16:10:26Z</time>
      </trkpt>
      <trkpt lat="45.51482" lon="6.92494">
        <ele>1885</ele>
        <time>2018-06-28T16:11:26Z</time>
      </trkpt>
      <trkpt lat="45.51546" lon="6.92516">
        <ele>1907</ele>
        <time>2018-06-28T16:12:26Z</time>
      </trkpt>
      <trkpt lat="45.51596" lon="6.92508">
        <ele>1912</ele>
        <time>2018-06-28T16:13:26Z</time>
      </trkpt>
      <trkpt lat="45.51633" lon="6.92504">
        <ele>1916</ele>
        <time>2018-06-28T16:14:26Z</time>
      </trkpt>
      <trkpt lat="45.51668" lon="6.92531">
        <ele>1928</ele>
        <time>2018-06-28T16:15:26Z</time>
      </trkpt>
      <trkpt lat="45.51693" lon="6.92523">
        <ele>1929</ele>
        <time>2018-06-28T16:16:26Z</time>
      </trkpt>
      <trkpt lat="45.51741" lon="6.92578">
        <ele>1946</ele>
        <time>2018-06-28T16:17:26Z</time>
      </trkpt>
      <trkpt lat="45.51773" lon="6.92589">
        <ele>1970</ele>
        <time>2018-06-28T16:18:26Z</time>
      </trkpt>
      <trkpt lat="45.51822" lon="6.92523">
        <ele>1956</ele>
        <time>2018-06-28T16:19:26Z</time>
      </trkpt>
      <trkpt lat="45.51862" lon="6.92497">
        <ele>1960</ele>
        <time>2018-06-28T16:20:26Z</time>
      </trkpt>
      <trkpt lat="45.51883" lon="6.92444">
        <ele>1959</ele>
        <time>2018-06-28T16:21:26Z</time>
      </trkpt>
      <trkpt lat="45.51932" lon="6.92393">
        <ele>1963</ele>
        <time>2018-06-28T16:22:26Z</time>
      </trkpt>
      <trkpt lat="45.51962" lon="6.92321">
        <ele>1942</ele>
        <time>2018-06-28T16:23:26Z</time>
      </trkpt>
      <trkpt lat="45.52025" lon="6.92296">
        <ele>1945</ele>
        <time>2018-06-28T16:24:26Z</time>
      </trkpt>
      <trkpt lat="45.52086" lon="6.92284">
        <ele>1934</ele>
        <time>2018-06-28T16:25:26Z</time>
      </trkpt>
      <trkpt lat="45.52131" lon="6.92296">
        <ele>1934</ele>
        <time>2018-06-28T16:26:26Z</time>
      </trkpt>
      <trkpt lat="45.52178" lon="6.92262">
        <ele>1919</ele>
        <time>2018-06-28T16:27:26Z</time>
      </trkpt>
      <trkpt lat="45.5224" lon="6.92238">
        <ele>1904</ele>
        <time>2018-06-28T16:28:26Z</time>
      </trkpt>
      <trkpt lat="45.52301" lon="6.92223">
        <ele>1901</ele>
        <time>2018-06-28T16:29:26Z</time>
      </trkpt>
      <trkpt lat="45.52353" lon="6.92168">
        <ele>1892</ele>
        <time>2018-06-28T16:30:26Z</time>
      </trkpt>
      <trkpt lat="45.52384" lon="6.9218">
        <ele>1897</ele>
        <time>2018-06-28T16:31:26Z</time>
      </trkpt>
      <trkpt lat="45.52407" lon="6.9217">
        <ele>1893</ele>
        <time>2018-06-28T16:32:26Z</time>
      </trkpt>
      <trkpt lat="45.52446" lon="6.92164">
        <ele>1895</ele>
        <time>2018-06-28T16:33:26Z</time>
      </trkpt>
      <trkpt lat="45.5247" lon="6.9212">
        <ele>1897</ele>
        <time>2018-06-28T16:34:26Z</time>
      </trkpt>
      <trkpt lat="45.52533" lon="6.9213">
        <ele>1915</ele>
        <time>2018-06-28T16:35:26Z</time>
      </trkpt>
      <trkpt lat="45.52566" lon="6.92167">
        <ele>1929</ele>
        <time>2018-06-28T16:36:26Z</time>
      </trkpt>
      <trkpt lat="45.52594" lon="6.92159">
        <ele>1923</ele>
        <time>2018-06-28T16:37:26Z</time>
      </trkpt>
      <trkpt lat="45.52628" lon="6.92176">
        <ele>1933</ele>
        <time>2018-06-28T16:38:26Z</time>
      </trkpt>
      <trkpt lat="45.52672" lon="6.92205">
        <ele>1932</ele>
        <time>2018-06-28T16:39:26Z</time>
      </trkpt>
      <trkpt lat="45.5272" lon="6.9223">
        <ele>1933</ele>
        <time>2018-06-28T16:40:26Z</time>
      </trkpt>
      <trkpt lat="45.52758" lon="6.92265">
        <ele>1939</ele>
        <time>2018-06-28T16:41:26Z</time>
      </trkpt>
      <trkpt lat="45.52789" lon="6.92293">
        <ele>1938</ele>
        <time>2018-06-28T16:42:26Z</time>
      </trkpt>
      <trkpt lat="45.52808" lon="6.92293">
        <ele>1935</ele>
        <time>2018-06-28T16:43:26Z</time>
      </trkpt>
      <trkpt lat="45.52849" lon="6.92309">
        <ele>1909</ele>
        <time>2018-06-28T16:44:26Z</time>
      </trkpt>
      <trkpt lat="45.52871" lon="6.92347">
        <ele>1913</ele>
        <time>2018-06-28T16:45:26Z</time>
      </trkpt>
      <trkpt lat="45.52889" lon="6.92402">
        <ele>1909</ele>
        <time>2018-06-28T16:46:26Z</time>
      </trkpt>
      <trkpt lat="45.52909" lon="6.92414">
        <ele>1897</ele>
        <time>2018-06-28T16:47:26Z</time>
      </trkpt>
      <trkpt lat="45.52925" lon="6.92464">
        <ele>1883</ele>
        <time>2018-06-28T16:48:26Z</time>
      </trkpt>
      <trkpt lat="45.52954" lon="6.92484">
        <ele>1878</ele>
        <time>2018-06-28T16:49:26Z</time>
      </trkpt>
      <trkpt lat="45.52988" lon="6.9252">
        <ele>1879</ele>
        <time>2018-06-28T16:50:26Z</time>
      </trkpt>
      <trkpt lat="45.53012" lon="6.92511">
        <ele>1864</ele>
        <time>2018-06-28T16:51:26Z</time>
      </trkpt>
      <trkpt lat="45.53016" lon="6.92493">
        <ele>1854</ele>
        <time>2018-06-28T16:52:26Z</time>
      </trkpt>
      <trkpt lat="45.53039" lon="6.92523">
        <ele>1867</ele>
        <time>2018-06-28T16:53:26Z</time>
      </trkpt>
      <trkpt lat="45.53053" lon="6.92461">
        <ele>1847</ele>
        <time>2018-06-28T16:54:26Z</time>
      </trkpt>
      <trkpt lat="45.53159" lon="6.92402">
        <ele>1837</ele>
        <time>2018-06-28T16:55:26Z</time>
      </trkpt>
      <trkpt lat="45.53221" lon="6.92388">
        <ele>1842</ele>
        <time>2018-06-28T16:56:26Z</time>
      </trkpt>
      <trkpt lat="45.53281" lon="6.9235">
        <ele>1841</ele>
        <time>2018-06-28T16:57:26Z</time>
      </trkpt>
      <trkpt lat="45.53356" lon="6.92356">
        <ele>1846</ele>
        <time>2018-06-28T16:58:26Z</time>
      </trkpt>
      <trkpt lat="45.53351" lon="6.92337">
        <ele>1843</ele>
        <time>2018-06-28T16:59:26Z</time>
      </trkpt>
      <trkpt lat="45.53382" lon="6.92324">
        <ele>1829</ele>
        <time>2018-06-28T17:00:26Z</time>
      </trkpt>
      <trkpt lat="45.53413" lon="6.92338">
        <ele>1840</ele>
        <time>2018-06-28T17:01:26Z</time>
      </trkpt>
      <trkpt lat="45.53441" lon="6.92359">
        <ele>1843</ele>
        <time>2018-06-28T17:02:26Z</time>
      </trkpt>
      <trkpt lat="45.53517" lon="6.92329">
        <ele>1821</ele>
        <time>2018-06-28T17:03:26Z</time>
      </trkpt>
      <trkpt lat="45.53568" lon="6.92302">
        <ele>1818</ele>
        <time>2018-06-28T17:04:26Z</time>
      </trkpt>
      <trkpt lat="45.53621" lon="6.92277">
        <ele>1819</ele>
        <time>2018-06-28T17:05:26Z</time>
      </trkpt>
      <trkpt lat="45.53695" lon="6.92259">
        <ele>1823</ele>
        <time>2018-06-28T17:06:26Z</time>
      </trkpt>
      <trkpt lat="45.53806" lon="6.92212">
        <ele>1811</ele>
        <time>2018-06-28T17:07:26Z</time>
      </trkpt>
      <trkpt lat="45.53858" lon="6.92159">
        <ele>1798</ele>
        <time>2018-06-28T17:08:26Z</time>
      </trkpt>
      <trkpt lat="45.53886" lon="6.92135">
        <ele>1797</ele>
        <time>2018-06-28T17:09:26Z</time>
      </trkpt>
      <trkpt lat="45.53907" lon="6.9213">
        <ele>1798</ele>
        <time>2018-06-28T17:10:26Z</time>
      </trkpt>
      <trkpt lat="45.53966" lon="6.92056">
        <ele>1789</ele>
        <time>2018-06-28T17:11:26Z</time>
      </trkpt>
      <trkpt lat="45.53997" lon="6.92009">
        <ele>1786</ele>
        <time>2018-06-28T17:12:26Z</time>
      </trkpt>
      <trkpt lat="45.54045" lon="6.91963">
        <ele>1781</ele>
        <time>2018-06-28T17:13:26Z</time>
      </trkpt>
      <trkpt lat="45.54087" lon="6.91936">
        <ele>1782</ele>
        <time>2018-06-28T17:14:26Z</time>
      </trkpt>
      <trkpt lat="45.54105" lon="6.91877">
        <ele>1771</ele>
        <time>2018-06-28T17:15:26Z</time>
      </trkpt>
      <trkpt lat="45.54144" lon="6.91839">
        <ele>1770</ele>
        <time>2018-06-28T17:16:26Z</time>
      </trkpt>
      <trkpt lat="45.54178" lon="6.91806">
        <ele>1758</ele>
        <time>2018-06-28T17:17:26Z</time>
      </trkpt>
      <trkpt lat="45.5419" lon="6.91784">
        <ele>1754</ele>
        <time>2018-06-28T17:18:26Z</time>
      </trkpt>
      <trkpt lat="45.54235" lon="6.91775">
        <ele>1750</ele>
        <time>2018-06-28T17:19:26Z</time>
      </trkpt>
      <trkpt lat="45.54263" lon="6.91803">
        <ele>1750</ele>
        <time>2018-06-28T17:20:26Z</time>
      </trkpt>
      <trkpt lat="45.54313" lon="6.91786">
        <ele>1745</ele>
        <time>2018-06-28T17:21:26Z</time>
      </trkpt>
      <trkpt lat="45.54357" lon="6.91778">
        <ele>1747</ele>
        <time>2018-06-28T17:22:26Z</time>
      </trkpt>
      <trkpt lat="45.54383" lon="6.91754">
        <ele>1746</ele>
        <time>2018-06-28T17:23:26Z</time>
      </trkpt>
      <trkpt lat="45.54412" lon="6.91756">
        <ele>1744</ele>
        <time>2018-06-28T17:24:26Z</time>
      </trkpt>
      <trkpt lat="45.54472" lon="6.91705">
        <ele>1742</ele>
        <time>2018-06-28T17:25:26Z</time>
      </trkpt>
      <trkpt lat="45.54518" lon="6.91631">
        <ele>1743</ele>
        <time>2018-06-28T17:26:26Z</time>
      </trkpt>
      <trkpt lat="45.54533" lon="6.91646">
        <ele>1746</ele>
        <time>2018-06-28T17:27:26Z</time>
      </trkpt>
      <trkpt lat="45.54565" lon="6.91639">
        <ele>1750</ele>
        <time>2018-06-28T17:28:26Z</time>
      </trkpt>
      <trkpt lat="45.546" lon="6.91604">
        <ele>1763</ele>
        <time>2018-06-28T17:29:26Z</time>
      </trkpt>
      <trkpt lat="45.546" lon="6.91566">
        <ele>1749</ele>
        <time>2018-06-28T17:30:26Z</time>
      </trkpt>
      <trkpt lat="45.54629" lon="6.91546">
        <ele>1751</ele>
        <time>2018-06-28T17:31:26Z</time>
      </trkpt>
      <trkpt lat="45.54654" lon="6.9156">
        <ele>1759</ele>
        <time>2018-06-28T17:32:26Z</time>
      </trkpt>
      <trkpt lat="45.54693" lon="6.91526">
        <ele>1774</ele>
        <time>2018-06-28T17:33:26Z</time>
      </trkpt>
      <trkpt lat="45.54722" lon="6.91501">
        <ele>1779</ele>
        <time>2018-06-28T17:34:26Z</time>
      </trkpt>
      <trkpt lat="45.54747" lon="6.91463">
        <ele>1764</ele>
        <time>2018-06-28T17:35:26Z</time>
      </trkpt>
      <trkpt lat="45.54798" lon="6.91423">
        <ele>1785</ele>
        <time>2018-06-28T17:36:26Z</time>
      </trkpt>
      <trkpt lat="45.54815" lon="6.91404">
        <ele>1775</ele>
        <time>2018-06-28T17:37:26Z</time>
      </trkpt>
      <trkpt lat="45.54849" lon="6.91384">
        <ele>1787</ele>
        <time>2018-06-28T17:38:26Z</time>
      </trkpt>
      <trkpt lat="45.54868" lon="6.91366">
        <ele>1785</ele>
        <time>2018-06-28T17:39:26Z</time>
      </trkpt>
      <trkpt lat="45.549" lon="6.91369">
        <ele>1789</ele>
        <time>2018-06-28T17:40:26Z</time>
      </trkpt>
      <trkpt lat="45.54942" lon="6.91356">
        <ele>1802</ele>
        <time>2018-06-28T17:41:26Z</time>
      </trkpt>
      <trkpt lat="45.54971" lon="6.91343">
        <ele>1804</ele>
        <time>2018-06-28T17:42:26Z</time>
      </trkpt>
      <trkpt lat="45.5501" lon="6.91372">
        <ele>1816</ele>
        <time>2018-06-28T17:43:26Z</time>
      </trkpt>
      <trkpt lat="45.55067" lon="6.9136">
        <ele>1813</ele>
        <time>2018-06-28T17:44:26Z</time>
      </trkpt>
      <trkpt lat="45.551" lon="6.91366">
        <ele>1816</ele>
        <time>2018-06-28T17:45:26Z</time>
      </trkpt>
      <trkpt lat="45.55145" lon="6.9135">
        <ele>1816</ele>
        <time>2018-06-28T17:46:26Z</time>
      </trkpt>
      <trkpt lat="45.55189" lon="6.9135">
        <ele>1818</ele>
        <time>2018-06-28T17:47:26Z</time>
      </trkpt>
      <trkpt lat="45.55208" lon="6.91315">
        <ele>1815</ele>
        <time>2018-06-28T17:48:26Z</time>
      </trkpt>
      <trkpt lat="45.55238" lon="6.91328">
        <ele>1816</ele>
        <time>2018-06-28T17:49:26Z</time>
      </trkpt>
      <trkpt lat="45.55257" lon="6.91378">
        <ele>1814</ele>
        <time>2018-06-28T17:50:26Z</time>
      </trkpt>
      <trkpt lat="45.55246" lon="6.91464">
        <ele>1829</ele>
        <time>2018-06-28T17:51:26Z</time>
      </trkpt>
      <trkpt lat="45.55274" lon="6.91563">
        <ele>1828</ele>
        <time>2018-06-28T17:52:26Z</time>
      </trkpt>
      <trkpt lat="45.55287" lon="6.91671">
        <ele>1841</ele>
        <time>2018-06-28T17:53:26Z</time>
      </trkpt>
      <trkpt lat="45.55301" lon="6.91719">
        <ele>1846</ele>
        <time>2018-06-28T17:54:26Z</time>
      </trkpt>
      <trkpt lat="45.55292" lon="6.91743">
        <ele>1846</ele>
        <time>2018-06-28T17:55:26Z</time>
      </trkpt>
      <trkpt lat="45.55295" lon="6.91792">
        <ele>1861</ele>
        <time>2018-06-28T17:56:26Z</time>
      </trkpt>
      <trkpt lat="45.55299" lon="6.91834">
        <ele>1876</ele>
        <time>2018-06-28T17:57:26Z</time>
      </trkpt>
      <trkpt lat="45.55325" lon="6.91842">
        <ele>1875</ele>
        <time>2018-06-28T17:58:26Z</time>
      </trkpt>
      <trkpt lat="45.55312" lon="6.91877">
        <ele>1879</ele>
        <time>2018-06-28T17:59:26Z</time>
      </trkpt>
      <trkpt lat="45.55328" lon="6.91941">
        <ele>1886</ele>
        <time>2018-06-28T18:00:26Z</time>
      </trkpt>
      <trkpt lat="45.55329" lon="6.91992">
        <ele>1883</ele>
        <time>2018-06-28T18:01:26Z</time>
      </trkpt>
      <trkpt lat="45.55342" lon="6.9202">
        <ele>1878</ele>
        <time>2018-06-28T18:02:26Z</time>
      </trkpt>
      <trkpt lat="45.55365" lon="6.9201">
        <ele>1877</ele>
        <time>2018-06-28T18:03:26Z</time>
      </trkpt>
      <trkpt lat="45.554" lon="6.91998">
        <ele>1877</ele>
        <time>2018-06-28T18:04:26Z</time>
      </trkpt>
      <trkpt lat="45.5543" lon="6.91972">
        <ele>1875</ele>
        <time>2018-06-28T18:05:26Z</time>
      </trkpt>
      <trkpt lat="45.55446" lon="6.91947">
        <ele>1875</ele>
        <time>2018-06-28T18:06:26Z</time>
      </trkpt>
      <trkpt lat="45.55474" lon="6.9193">
        <ele>1874</ele>
        <time>2018-06-28T18:07:26Z</time>
      </trkpt>
      <trkpt lat="45.55495" lon="6.91889">
        <ele>1876</ele>
        <time>2018-06-28T18:08:26Z</time>
      </trkpt>
      <trkpt lat="45.55537" lon="6.9174">
        <ele>1875</ele>
        <time>2018-06-28T18:09:26Z</time>
      </trkpt>
      <trkpt lat="45.55576" lon="6.91674">
        <ele>1866</ele>
        <time>2018-06-28T18:10:26Z</time>
      </trkpt>
      <trkpt lat="45.55631" lon="6.91598">
        <ele>1864</ele>
        <time>2018-06-28T18:11:26Z</time>
      </trkpt>
      <trkpt lat="45.55682" lon="6.91564">
        <ele>1860</ele>
        <time>2018-06-28T18:12:26Z</time>
      </trkpt>
      <trkpt lat="45.55717" lon="6.91513">
        <ele>1861</ele>
        <time>2018-06-28T18:13:26Z</time>
      </trkpt>
      <trkpt lat="45.55731" lon="6.91461">
        <ele>1860</ele>
        <time>2018-06-28T18:14:26Z</time>
      </trkpt>
      <trkpt lat="45.55769" lon="6.9139">
        <ele>1860</ele>
        <time>2018-06-28T18:15:26Z</time>
      </trkpt>
      <trkpt lat="45.55793" lon="6.91372">
        <ele>1863</ele>
        <time>2018-06-28T18:16:26Z</time>
      </trkpt>
      <trkpt lat="45.55807" lon="6.91317">
        <ele>1861</ele>
        <time>2018-06-28T18:17:26Z</time>
      </trkpt>
      <trkpt lat="45.55819" lon="6.91265">
        <ele>1859</ele>
        <time>2018-06-28T18:18:26Z</time>
      </trkpt>
      <trkpt lat="45.55846" lon="6.91258">
        <ele>1866</ele>
        <time>2018-06-28T18:19:26Z</time>
      </trkpt>
      <trkpt lat="45.55866" lon="6.913">
        <ele>1874</ele>
        <time>2018-06-28T18:20:26Z</time>
      </trkpt>
      <trkpt lat="45.55952" lon="6.9115">
        <ele>1868</ele>
        <time>2018-06-28T18:21:26Z</time>
      </trkpt>
      <trkpt lat="45.5599" lon="6.91074">
        <ele>1863</ele>
        <time>2018-06-28T18:22:26Z</time>
      </trkpt>
      <trkpt lat="45.56019" lon="6.91001">
        <ele>1870</ele>
        <time>2018-06-28T18:23:26Z</time>
      </trkpt>
      <trkpt lat="45.56046" lon="6.90954">
        <ele>1864</ele>
        <time>2018-06-28T18:24:26Z</time>
      </trkpt>
      <trkpt lat="45.56071" lon="6.90953">
        <ele>1867</ele>
        <time>2018-06-28T18:25:26Z</time>
      </trkpt>
      <trkpt lat="45.56109" lon="6.90926">
        <ele>1893</ele>
        <time>2018-06-28T18:26:26Z</time>
      </trkpt>
      <trkpt lat="45.56185" lon="6.90853">
        <ele>1911</ele>
        <time>2018-06-28T18:27:26Z</time>
      </trkpt>
      <trkpt lat="45.5625" lon="6.90791">
        <ele>1915</ele>
        <time>2018-06-28T18:28:26Z</time>
      </trkpt>
      <trkpt lat="45.56313" lon="6.90716">
        <ele>1920</ele>
        <time>2018-06-28T18:29:26Z</time>
      </trkpt>
      <trkpt lat="45.56373" lon="6.90659">
        <ele>1939</ele>
        <time>2018-06-28T18:30:26Z</time>
      </trkpt>
      <trkpt lat="45.56451" lon="6.90584">
        <ele>1963</ele>
        <time>2018-06-28T18:31:26Z</time>
      </trkpt>
      <trkpt lat="45.56542" lon="6.90552">
        <ele>1958</ele>
        <time>2018-06-28T18:32:26Z</time>
      </trkpt>
      <trkpt lat="45.56609" lon="6.90528">
        <ele>1973</ele>
        <time>2018-06-28T18:33:26Z</time>
      </trkpt>
      <trkpt lat="45.56676" lon="6.90431">
        <ele>1955</ele>
        <time>2018-06-28T18:34:26Z</time>
      </trkpt>
      <trkpt lat="45.56725" lon="6.9034">
        <ele>1943</ele>
        <time>2018-06-28T18:35:26Z</time>
      </trkpt>
      <trkpt lat="45.56744" lon="6.90259">
        <ele>1915</ele>
        <time>2018-06-28T18:36:26Z</time>
      </trkpt>
      <trkpt lat="45.56802" lon="6.90226">
        <ele>1908</ele>
        <time>2018-06-28T18:37:26Z</time>
      </trkpt>
      <trkpt lat="45.56839" lon="6.90206">
        <ele>1906</ele>
        <time>2018-06-28T18:38:26Z</time>
      </trkpt>
      <trkpt lat="45.56872" lon="6.90205">
        <ele>1904</ele>
        <time>2018-06-28T18:39:26Z</time>
      </trkpt>
      <trkpt lat="45.5691" lon="6.90266">
        <ele>1933</ele>
        <time>2018-06-28T18:40:26Z</time>
      </trkpt>
      <trkpt lat="45.56966" lon="6.90322">
        <ele>1937</ele>
        <time>2018-06-28T18:41:26Z</time>
      </trkpt>
      <trkpt lat="45.57009" lon="6.9034">
        <ele>1945</ele>
        <time>2018-06-28T18:42:26Z</time>
      </trkpt>
      <trkpt lat="45.5707" lon="6.90357">
        <ele>1947</ele>
        <time>2018-06-28T18:43:26Z</time>
      </trkpt>
      <trkpt lat="45.57148" lon="6.90395">
        <ele>1951</ele>
        <time>2018-06-28T18:44:26Z</time>
      </trkpt>
      <trkpt lat="45.57192" lon="6.90429">
        <ele>1961</ele>
        <time>2018-06-28T18:45:26Z</time>
      </trkpt>
      <trkpt lat="45.57269" lon="6.90451">
        <ele>1952</ele>
        <time>2018-06-28T18:46:26Z</time>
      </trkpt>
      <trkpt lat="45.57338" lon="6.90542">
        <ele>1960</ele>
        <time>2018-06-28T18:47:26Z</time>
      </trkpt>
      <trkpt lat="45.57411" lon="6.90651">
        <ele>1978</ele>
        <time>2018-06-28T18:48:26Z</time>
      </trkpt>
      <trkpt lat="45.57476" lon="6.90701">
        <ele>1974</ele>
        <time>2018-06-28T18:49:26Z</time>
      </trkpt>
      <trkpt lat="45.57534" lon="6.90751">
        <ele>1969</ele>
        <time>2018-06-28T18:50:26Z</time>
      </trkpt>
      <trkpt lat="45.57573" lon="6.908">
        <ele>1966</ele>
        <time>2018-06-28T18:51:26Z</time>
      </trkpt>
      <trkpt lat="45.57646" lon="6.90851">
        <ele>1950</ele>
        <time>2018-06-28T18:52:26Z</time>
      </trkpt>
      <trkpt lat="45.57722" lon="6.9085">
        <ele>1932</ele>
        <time>2018-06-28T18:53:26Z</time>
      </trkpt>
      <trkpt lat="45.57737" lon="6.90875">
        <ele>1933</ele>
        <time>2018-06-28T18:54:26Z</time>
      </trkpt>
      <trkpt lat="45.57749" lon="6.90888">
        <ele>1933</ele>
        <time>2018-06-28T18:55:26Z</time>
      </trkpt>
      <trkpt lat="45.57786" lon="6.90913">
        <ele>1929</ele>
        <time>2018-06-28T18:56:26Z</time>
      </trkpt>
      <trkpt lat="45.57861" lon="6.90944">
        <ele>1945</ele>
        <time>2018-06-28T18:57:26Z</time>
      </trkpt>
      <trkpt lat="45.57911" lon="6.91003">
        <ele>1960</ele>
        <time>2018-06-28T18:58:26Z</time>
      </trkpt>
      <trkpt lat="45.57957" lon="6.91027">
        <ele>1955</ele>
        <time>2018-06-28T18:59:26Z</time>
      </trkpt>
      <trkpt lat="45.57958" lon="6.91114">
        <ele>1972</ele>
        <time>2018-06-28T19:00:26Z</time>
      </trkpt>
      <trkpt lat="45.57977" lon="6.91191">
        <ele>1987</ele>
        <time>2018-06-28T19:01:26Z</time>
      </trkpt>
      <trkpt lat="45.58018" lon="6.91255">
        <ele>1997</ele>
        <time>2018-06-28T19:02:26Z</time>
      </trkpt>
      <trkpt lat="45.58015" lon="6.91317">
        <ele>2008</ele>
        <time>2018-06-28T19:03:26Z</time>
      </trkpt>
      <trkpt lat="45.58049" lon="6.91376">
        <ele>2020</ele>
        <time>2018-06-28T19:04:26Z</time>
      </trkpt>
      <trkpt lat="45.58066" lon="6.91438">
        <ele>2029</ele>
        <time>2018-06-28T19:05:26Z</time>
      </trkpt>
      <trkpt lat="45.58068" lon="6.91525">
        <ele>2039</ele>
        <time>2018-06-28T19:06:26Z</time>
      </trkpt>
      <trkpt lat="45.58096" lon="6.91566">
        <ele>2025</ele>
        <time>2018-06-28T19:07:26Z</time>
      </trkpt>
      <trkpt lat="45.58106" lon="6.91614">
        <ele>2034</ele>
        <time>2018-06-28T19:08:26Z</time>
      </trkpt>
      <trkpt lat="45.58127" lon="6.91642">
        <ele>2034</ele>
        <time>2018-06-28T19:09:26Z</time>
      </trkpt>
      <trkpt lat="45.58179" lon="6.91657">
        <ele>2022</ele>
        <time>2018-06-28T19:10:26Z</time>
      </trkpt>
      <trkpt lat="45.58198" lon="6.91716">
        <ele>2035</ele>
        <time>2018-06-28T19:11:26Z</time>
      </trkpt>
      <trkpt lat="45.58258" lon="6.91692">
        <ele>2021</ele>
        <time>2018-06-28T19:12:26Z</time>
      </trkpt>
      <trkpt lat="45.58296" lon="6.91663">
        <ele>2004</ele>
        <time>2018-06-28T19:13:26Z</time>
      </trkpt>
      <trkpt lat="45.58357" lon="6.91645">
        <ele>2014</ele>
        <time>2018-06-28T19:14:26Z</time>
      </trkpt>
      <trkpt lat="45.58398" lon="6.9152">
        <ele>1989</ele>
        <time>2018-06-28T19:15:26Z</time>
      </trkpt>
      <trkpt lat="45.58448" lon="6.91481">
        <ele>1989</ele>
        <time>2018-06-28T19:16:26Z</time>
      </trkpt>
      <trkpt lat="45.58511" lon="6.914">
        <ele>1980</ele>
        <time>2018-06-28T19:17:26Z</time>
      </trkpt>
      <trkpt lat="45.58565" lon="6.914">
        <ele>1977</ele>
        <time>2018-06-28T19:18:26Z</time>
      </trkpt>
      <trkpt lat="45.58621" lon="6.91438">
        <ele>1983</ele>
        <time>2018-06-28T19:19:26Z</time>
      </trkpt>
      <trkpt lat="45.58673" lon="6.91438">
        <ele>1971</ele>
        <time>2018-06-28T19:20:26Z</time>
      </trkpt>
      <trkpt lat="45.58697" lon="6.91405">
        <ele>1956</ele>
        <time>2018-06-28T19:21:26Z</time>
      </trkpt>
      <trkpt lat="45.58664" lon="6.91407">
        <ele>1962</ele>
        <time>2018-06-28T19:22:26Z</time>
      </trkpt>
      <trkpt lat="45.58633" lon="6.91372">
        <ele>1959</ele>
        <time>2018-06-28T19:23:26Z</time>
      </trkpt>
      <trkpt lat="45.58664" lon="6.91366">
        <ele>1954</ele>
        <time>2018-06-28T19:24:26Z</time>
      </trkpt>
      <trkpt lat="45.58711" lon="6.91319">
        <ele>1930</ele>
        <time>2018-06-28T19:25:26Z</time>
      </trkpt>
      <trkpt lat="45.5876" lon="6.91273">
        <ele>1931</ele>
        <time>2018-06-28T19:26:26Z</time>
      </trkpt>
      <trkpt lat="45.58775" lon="6.91238">
        <ele>1919</ele>
        <time>2018-06-28T19:27:26Z</time>
      </trkpt>
      <trkpt lat="45.58812" lon="6.912">
        <ele>1918</ele>
        <time>2018-06-28T19:28:26Z</time>
      </trkpt>
      <trkpt lat="45.58868" lon="6.91164">
        <ele>1912</ele>
        <time>2018-06-28T19:29:26Z</time>
      </trkpt>
      <trkpt lat="45.58918" lon="6.91203">
        <ele>1941</ele>
        <time>2018-06-28T19:30:26Z</time>
      </trkpt>
      <trkpt lat="45.58971" lon="6.91141">
        <ele>1926</ele>
        <time>2018-06-28T19:31:26Z</time>
      </trkpt>
      <trkpt lat="45.59001" lon="6.91042">
        <ele>1911</ele>
        <time>2018-06-28T19:32:26Z</time>
      </trkpt>
      <trkpt lat="45.59053" lon="6.90967">
        <ele>1889</ele>
        <time>2018-06-28T19:33:26Z</time>
      </trkpt>
      <trkpt lat="45.59094" lon="6.90892">
        <ele>1881</ele>
        <time>2018-06-28T19:34:26Z</time>
      </trkpt>
      <trkpt lat="45.5912" lon="6.90801">
        <ele>1866</ele>
        <time>2018-06-28T19:35:26Z</time>
      </trkpt>
      <trkpt lat="45.59163" lon="6.90677">
        <ele>1845</ele>
        <time>2018-06-28T19:36:26Z</time>
      </trkpt>
      <trkpt lat="45.59168" lon="6.90613">
        <ele>1829</ele>
        <time>2018-06-28T19:37:26Z</time>
      </trkpt>
      <trkpt lat="45.59215" lon="6.90569">
        <ele>1813</ele>
        <time>2018-06-28T19:38:26Z</time>
      </trkpt>
      <trkpt lat="45.5923" lon="6.90508">
        <ele>1807</ele>
        <time>2018-06-28T19:39:26Z</time>
      </trkpt>
      <trkpt lat="45.59195" lon="6.90528">
        <ele>1804</ele>
        <time>2018-06-28T19:40:26Z</time>
      </trkpt>
      <trkpt lat="45.59217" lon="6.90481">
        <ele>1785</ele>
        <time>2018-06-28T19:41:26Z</time>
      </trkpt>
      <trkpt lat="45.59284" lon="6.90446">
        <ele>1796</ele>
        <time>2018-06-28T19:42:26Z</time>
      </trkpt>
      <trkpt lat="45.59351" lon="6.90398">
        <ele>1787</ele>
        <time>2018-06-28T19:43:26Z</time>
      </trkpt>
      <trkpt lat="45.59401" lon="6.90358">
        <ele>1780</ele>
        <time>2018-06-28T19:44:26Z</time>
      </trkpt>
      <trkpt lat="45.59454" lon="6.9031">
        <ele>1761</ele>
        <time>2018-06-28T19:45:26Z</time>
      </trkpt>
      <trkpt lat="45.59544" lon="6.90264">
        <ele>1755</ele>
        <time>2018-06-28T19:46:26Z</time>
      </trkpt>
      <trkpt lat="45.59628" lon="6.90215">
        <ele>1726</ele>
        <time>2018-06-28T19:47:26Z</time>
      </trkpt>
      <trkpt lat="45.59696" lon="6.90182">
        <ele>1722</ele>
        <time>2018-06-28T19:48:26Z</time>
      </trkpt>
      <trkpt lat="45.59749" lon="6.9019">
        <ele>1724</ele>
        <time>2018-06-28T19:49:26Z</time>
      </trkpt>
      <trkpt lat="45.59788" lon="6.90202">
        <ele>1719</ele>
        <time>2018-06-28T19:50:26Z</time>
      </trkpt>
      <trkpt lat="45.59815" lon="6.90253">
        <ele>1719</ele>
        <time>2018-06-28T19:51:26Z</time>
      </trkpt>
      <trkpt lat="45.5982" lon="6.90341">
        <ele>1725</ele>
        <time>2018-06-28T19:52:26Z</time>
      </trkpt>
      <trkpt lat="45.59841" lon="6.90432">
        <ele>1722</ele>
        <time>2018-06-28T19:53:26Z</time>
      </trkpt>
      <trkpt lat="45.59863" lon="6.90463">
        <ele>1720</ele>
        <time>2018-06-28T19:54:26Z</time>
      </trkpt>
      <trkpt lat="45.59967" lon="6.90596">
        <ele>1715</ele>
        <time>2018-06-28T19:55:26Z</time>
      </trkpt>
      <trkpt lat="45.60006" lon="6.90699">
        <ele>1708</ele>
        <time>2018-06-28T19:56:26Z</time>
      </trkpt>
      <trkpt lat="45.60025" lon="6.90786">
        <ele>1724</ele>
        <time>2018-06-28T19:57:26Z</time>
      </trkpt>
      <trkpt lat="45.60054" lon="6.9086">
        <ele>1734</ele>
        <time>2018-06-28T19:58:26Z</time>
      </trkpt>
      <trkpt lat="45.60091" lon="6.9096">
        <ele>1712</ele>
        <time>2018-06-28T19:59:26Z</time>
      </trkpt>
      <trkpt lat="45.60089" lon="6.91073">
        <ele>1735</ele>
        <time>2018-06-28T20:00:26Z</time>
      </trkpt>
      <trkpt lat="45.60111" lon="6.91135">
        <ele>1726</ele>
        <time>2018-06-28T20:01:26Z</time>
      </trkpt>
      <trkpt lat="45.60145" lon="6.91367">
        <ele>1748</ele>
        <time>2018-06-28T20:02:26Z</time>
      </trkpt>
      <trkpt lat="45.60165" lon="6.91451">
        <ele>1750</ele>
        <time>2018-06-28T20:03:26Z</time>
      </trkpt>
      <trkpt lat="45.6015" lon="6.91519">
        <ele>1755</ele>
        <time>2018-06-28T20:04:26Z</time>
      </trkpt>
      <trkpt lat="45.60175" lon="6.91605">
        <ele>1746</ele>
        <time>2018-06-28T20:05:26Z</time>
      </trkpt>
      <trkpt lat="45.60197" lon="6.9169">
        <ele>1757</ele>
        <time>2018-06-28T20:06:26Z</time>
      </trkpt>
      <trkpt lat="45.60211" lon="6.91737">
        <ele>1759</ele>
        <time>2018-06-28T20:07:26Z</time>
      </trkpt>
      <trkpt lat="45.60234" lon="6.91759">
        <ele>1766</ele>
        <time>2018-06-28T20:08:26Z</time>
      </trkpt>
      <trkpt lat="45.60241" lon="6.918">
        <ele>1776</ele>
        <time>2018-06-28T20:09:26Z</time>
      </trkpt>
      <trkpt lat="45.60283" lon="6.91868">
        <ele>1777</ele>
        <time>2018-06-28T20:10:26Z</time>
      </trkpt>
      <trkpt lat="45.60301" lon="6.91957">
        <ele>1788</ele>
        <time>2018-06-28T20:11:26Z</time>
      </trkpt>
      <trkpt lat="45.60298" lon="6.92018">
        <ele>1793</ele>
        <time>2018-06-28T20:12:26Z</time>
      </trkpt>
      <trkpt lat="45.60273" lon="6.9205">
        <ele>1804</ele>
        <time>2018-06-28T20:13:26Z</time>
      </trkpt>
      <trkpt lat="45.60269" lon="6.92067">
        <ele>1809</ele>
        <time>2018-06-28T20:14:26Z</time>
      </trkpt>
      <trkpt lat="45.60279" lon="6.92112">
        <ele>1801</ele>
        <time>2018-06-28T20:15:26Z</time>
      </trkpt>
      <trkpt lat="45.60243" lon="6.92218">
        <ele>1837</ele>
        <time>2018-06-28T20:16:26Z</time>
      </trkpt>
      <trkpt lat="45.60206" lon="6.92321">
        <ele>1836</ele>
        <time>2018-06-28T20:17:26Z</time>
      </trkpt>
      <trkpt lat="45.60192" lon="6.92435">
        <ele>1837</ele>
        <time>2018-06-28T20:18:26Z</time>
      </trkpt>
      <trkpt lat="45.60178" lon="6.92514">
        <ele>1842</ele>
        <time>2018-06-28T20:19:26Z</time>
      </trkpt>
      <trkpt lat="45.60188" lon="6.9259">
        <ele>1841</ele>
        <time>2018-06-28T20:20:26Z</time>
      </trkpt>
      <trkpt lat="45.60199" lon="6.92737">
        <ele>1846</ele>
        <time>2018-06-28T20:21:26Z</time>
      </trkpt>
      <trkpt lat="45.6021" lon="6.92854">
        <ele>1860</ele>
        <time>2018-06-28T20:22:26Z</time>
      </trkpt>
      <trkpt lat="45.6021" lon="6.92947">
        <ele>1863</ele>
        <time>2018-06-28T20:23:26Z</time>
      </trkpt>
      <trkpt lat="45.60176" lon="6.93038">
        <ele>1866</ele>
        <time>2018-06-28T20:24:26Z</time>
      </trkpt>
      <trkpt lat="45.60174" lon="6.93129">
        <ele>1856</ele>
        <time>2018-06-28T20:25:26Z</time>
      </trkpt>
      <trkpt lat="45.60171" lon="6.93182">
        <ele>1853</ele>
        <time>2018-06-28T20:26:26Z</time>
      </trkpt>
      <trkpt lat="45.60151" lon="6.93227">
        <ele>1872</ele>
        <time>2018-06-28T20:27:26Z</time>
      </trkpt>
      <trkpt lat="45.60154" lon="6.93261">
        <ele>1863</ele>
        <time>2018-06-28T20:28:26Z</time>
      </trkpt>
      <trkpt lat="45.60125" lon="6.93314">
        <ele>1871</ele>
        <time>2018-06-28T20:29:26Z</time>
      </trkpt>
      <trkpt lat="45.60106" lon="6.93397">
        <ele>1869</ele>
        <time>2018-06-28T20:30:26Z</time>
      </trkpt>
      <trkpt lat="45.60095" lon="6.93469">
        <ele>1869</ele>
        <time>2018-06-28T20:31:26Z</time>
      </trkpt>
      <trkpt lat="45.60109" lon="6.93517">
        <ele>1872</ele>
        <time>2018-06-28T20:32:26Z</time>
      </trkpt>
      <trkpt lat="45.60139" lon="6.93564">
        <ele>1867</ele>
        <time>2018-06-28T20:33:26Z</time>
      </trkpt>
      <trkpt lat="45.60141" lon="6.9364">
        <ele>1879</ele>
        <time>2018-06-28T20:34:26Z</time>
      </trkpt>
      <trkpt lat="45.60144" lon="6.93701">
        <ele>1885</ele>
        <time>2018-06-28T20:35:26Z</time>
      </trkpt>
      <trkpt lat="45.60148" lon="6.9376">
        <ele>1886</ele>
        <time>2018-06-28T20:36:26Z</time>
      </trkpt>
      <trkpt lat="45.60136" lon="6.93804">
        <ele>1892</ele>
        <time>2018-06-28T20:37:26Z</time>
      </trkpt>
      <trkpt lat="45.6011" lon="6.93886">
        <ele>1899</ele>
        <time>2018-06-28T20:38:26Z</time>
      </trkpt>
      <trkpt lat="45.60091" lon="6.93983">
        <ele>1897</ele>
        <time>2018-06-28T20:39:26Z</time>
      </trkpt>
      <trkpt lat="45.60069" lon="6.94039">
        <ele>1914</ele>
        <time>2018-06-28T20:40:26Z</time>
      </trkpt>
      <trkpt lat="45.60056" lon="6.94088">
        <ele>1902</ele>
        <time>2018-06-28T20:41:26Z</time>
      </trkpt>
      <trkpt lat="45.60023" lon="6.94142">
        <ele>1906</ele>
        <time>2018-06-28T20:42:26Z</time>
      </trkpt>
      <trkpt lat="45.59991" lon="6.94218">
        <ele>1914</ele>
        <time>2018-06-28T20:43:26Z</time>
      </trkpt>
      <trkpt lat="45.59963" lon="6.9428">
        <ele>1906</ele>
        <time>2018-06-28T20:44:26Z</time>
      </trkpt>
      <trkpt lat="45.59929" lon="6.94332">
        <ele>1909</ele>
        <time>2018-06-28T20:45:26Z</time>
      </trkpt>
      <trkpt lat="45.59922" lon="6.94356">
        <ele>1903</ele>
        <time>2018-06-28T20:46:26Z</time>
      </trkpt>
      <trkpt lat="45.59898" lon="6.94379">
        <ele>1918</ele>
        <time>2018-06-28T20:47:26Z</time>
      </trkpt>
      <trkpt lat="45.59888" lon="6.94405">
        <ele>1917</ele>
        <time>2018-06-28T20:48:26Z</time>
      </trkpt>
      <trkpt lat="45.59885" lon="6.94441">
        <ele>1917</ele>
        <time>2018-06-28T20:49:26Z</time>
      </trkpt>
      <trkpt lat="45.59879" lon="6.94508">
        <ele>1921</ele>
        <time>2018-06-28T20:50:26Z</time>
      </trkpt>
      <trkpt lat="45.59876" lon="6.94532">
        <ele>1922</ele>
        <time>2018-06-28T20:51:26Z</time>
      </trkpt>
      <trkpt lat="45.59874" lon="6.94575">
        <ele>1922</ele>
        <time>2018-06-28T20:52:26Z</time>
      </trkpt>
      <trkpt lat="45.59862" lon="6.94606">
        <ele>1925</ele>
        <time>2018-06-28T20:53:26Z</time>
      </trkpt>
      <trkpt lat="45.59875" lon="6.94643">
        <ele>1924</ele>
        <time>2018-06-28T20:54:26Z</time>
      </trkpt>
      <trkpt lat="45.59911" lon="6.9467">
        <ele>1921</ele>
        <time>2018-06-28T20:55:26Z</time>
      </trkpt>
      <trkpt lat="45.59892" lon="6.94696">
        <ele>1926</ele>
        <time>2018-06-28T20:56:26Z</time>
      </trkpt>
      <trkpt lat="45.59896" lon="6.94752">
        <ele>1933</ele>
        <time>2018-06-28T20:57:26Z</time>
      </trkpt>
      <trkpt lat="45.59929" lon="6.94793">
        <ele>1932</ele>
        <time>2018-06-28T20:58:26Z</time>
      </trkpt>
      <trkpt lat="45.59929" lon="6.94816">
        <ele>1935</ele>
        <time>2018-06-28T20:59:26Z</time>
      </trkpt>
      <trkpt lat="45.59924" lon="6.94848">
        <ele>1945</ele>
        <time>2018-06-28T21:00:26Z</time>
      </trkpt>
      <trkpt lat="45.59943" lon="6.94871">
        <ele>1948</ele>
        <time>2018-06-28T21:01:26Z</time>
      </trkpt>
      <trkpt lat="45.59927" lon="6.94921">
        <ele>1961</ele>
        <time>2018-06-28T21:02:26Z</time>
      </trkpt>
      <trkpt lat="45.59929" lon="6.94957">
        <ele>1965</ele>
        <time>2018-06-28T21:03:26Z</time>
      </trkpt>
      <trkpt lat="45.59902" lon="6.94992">
        <ele>1972</ele>
        <time>2018-06-28T21:04:26Z</time>
      </trkpt>
      <trkpt lat="45.599" lon="6.95012">
        <ele>1979</ele>
        <time>2018-06-28T21:05:26Z</time>
      </trkpt>
      <trkpt lat="45.59877" lon="6.95062">
        <ele>1985</ele>
        <time>2018-06-28T21:06:26Z</time>
      </trkpt>
      <trkpt lat="45.59885" lon="6.95098">
        <ele>1993</ele>
        <time>2018-06-28T21:07:26Z</time>
      </trkpt>
      <trkpt lat="45.59924" lon="6.95116">
        <ele>1992</ele>
        <time>2018-06-28T21:08:26Z</time>
      </trkpt>
      <trkpt lat="45.59958" lon="6.9518">
        <ele>2000</ele>
        <time>2018-06-28T21:09:26Z</time>
      </trkpt>
      <trkpt lat="45.59996" lon="6.95218">
        <ele>2000</ele>
        <time>2018-06-28T21:10:26Z</time>
      </trkpt>
      <trkpt lat="45.60014" lon="6.95286">
        <ele>1997</ele>
        <time>2018-06-28T21:11:26Z</time>
      </trkpt>
      <trkpt lat="45.6003" lon="6.95306">
        <ele>1996</ele>
        <time>2018-06-28T21:12:26Z</time>
      </trkpt>
      <trkpt lat="45.60017" lon="6.95359">
        <ele>1998</ele>
        <time>2018-06-28T21:13:26Z</time>
      </trkpt>
      <trkpt lat="45.59992" lon="6.95392">
        <ele>2007</ele>
        <time>2018-06-28T21:14:26Z</time>
      </trkpt>
      <trkpt lat="45.59988" lon="6.95415">
        <ele>2004</ele>
        <time>2018-06-28T21:15:26Z</time>
      </trkpt>
      <trkpt lat="45.60024" lon="6.9547">
        <ele>1999</ele>
        <time>2018-06-28T21:16:26Z</time>
      </trkpt>
      <trkpt lat="45.60008" lon="6.95611">
        <ele>2011</ele>
        <time>2018-06-28T21:17:26Z</time>
      </trkpt>
      <trkpt lat="45.60013" lon="6.95653">
        <ele>2014</ele>
        <time>2018-06-28T21:18:26Z</time>
      </trkpt>
      <trkpt lat="45.60064" lon="6.95705">
        <ele>2018</ele>
        <time>2018-06-28T21:19:26Z</time>
      </trkpt>
      <trkpt lat="45.60074" lon="6.9576">
        <ele>2024</ele>
        <time>2018-06-28T21:20:26Z</time>
      </trkpt>
      <trkpt lat="45.60081" lon="6.9581">
        <ele>2030</ele>
        <time>2018-06-28T21:21:26Z</time>
      </trkpt>
      <trkpt lat="45.60098" lon="6.95849">
        <ele>2031</ele>
        <time>2018-06-28T21:22:26Z</time>
      </trkpt>
      <trkpt lat="45.60154" lon="6.95904">
        <ele>2035</ele>
        <time>2018-06-28T21:23:26Z</time>
      </trkpt>
      <trkpt lat="45.60186" lon="6.95893">
        <ele>2030</ele>
        <time>2018-06-28T21:24:26Z</time>
      </trkpt>
      <trkpt lat="45.6023" lon="6.95905">
        <ele>2027</ele>
        <time>2018-06-28T21:25:26Z</time>
      </trkpt>
      <trkpt lat="45.60283" lon="6.95862">
        <ele>2016</ele>
        <time>2018-06-28T21:26:26Z</time>
      </trkpt>
      <trkpt lat="45.60333" lon="6.95983">
        <ele>2019</ele>
        <time>2018-06-28T21:27:26Z</time>
      </trkpt>
      <trkpt lat="45.60388" lon="6.96101">
        <ele>2027</ele>
        <time>2018-06-28T21:28:26Z</time>
      </trkpt>
      <trkpt lat="45.6042" lon="6.96176">
        <ele>2026</ele>
        <time>2018-06-28T21:29:26Z</time>
      </trkpt>
      <trkpt lat="45.60434" lon="6.96234">
        <ele>2032</ele>
        <time>2018-06-28T21:30:26Z</time>
      </trkpt>
      <trkpt lat="45.60408" lon="6.963">
        <ele>2052</ele>
        <time>2018-06-28T21:31:26Z</time>
      </trkpt>
      <trkpt lat="45.60455" lon="6.96369">
        <ele>2059</ele>
        <time>2018-06-28T21:32:26Z</time>
      </trkpt>
      <trkpt lat="45.60603" lon="6.96414">
        <ele>2087</ele>
        <time>2018-06-28T21:33:26Z</time>
      </trkpt>
      <trkpt lat="45.60648" lon="6.96392">
        <ele>2092</ele>
        <time>2018-06-28T21:34:26Z</time>
      </trkpt>
      <trkpt lat="45.60696" lon="6.96386">
        <ele>2107</ele>
        <time>2018-06-28T21:35:26Z</time>
      </trkpt>
      <trkpt lat="45.60723" lon="6.96347">
        <ele>2107</ele>
        <time>2018-06-28T21:36:26Z</time>
      </trkpt>
      <trkpt lat="45.60782" lon="6.96317">
        <ele>2112</ele>
        <time>2018-06-28T21:37:26Z</time>
      </trkpt>
      <trkpt lat="45.6084" lon="6.96313">
        <ele>2134</ele>
        <time>2018-06-28T21:38:26Z</time>
      </trkpt>
      <trkpt lat="45.60872" lon="6.96313">
        <ele>2141</ele>
        <time>2018-06-28T21:39:26Z</time>
      </trkpt>
      <trkpt lat="45.609" lon="6.96266">
        <ele>2147</ele>
        <time>2018-06-28T21:40:26Z</time>
      </trkpt>
      <trkpt lat="45.60921" lon="6.96238">
        <ele>2168</ele>
        <time>2018-06-28T21:41:26Z</time>
      </trkpt>
      <trkpt lat="45.6096" lon="6.96201">
        <ele>2185</ele>
        <time>2018-06-28T21:42:26Z</time>
      </trkpt>
      <trkpt lat="45.61002" lon="6.96176">
        <ele>2218</ele>
        <time>2018-06-28T21:43:26Z</time>
      </trkpt>
      <trkpt lat="45.60992" lon="6.96283">
        <ele>2194</ele>
        <time>2018-06-28T21:44:26Z</time>
      </trkpt>
      <trkpt lat="45.6102" lon="6.96319">
        <ele>2221</ele>
        <time>2018-06-28T21:45:26Z</time>
      </trkpt>
      <trkpt lat="45.61079" lon="6.96309">
        <ele>2234</ele>
        <time>2018-06-28T21:46:26Z</time>
      </trkpt>
      <trkpt lat="45.61162" lon="6.96317">
        <ele>2265</ele>
        <time>2018-06-28T21:47:26Z</time>
      </trkpt>
      <trkpt lat="45.61198" lon="6.96253">
        <ele>2297</ele>
        <time>2018-06-28T21:48:26Z</time>
      </trkpt>
      <trkpt lat="45.61189" lon="6.96161">
        <ele>2321</ele>
        <time>2018-06-28T21:49:26Z</time>
      </trkpt>
      <trkpt lat="45.61201" lon="6.96129">
        <ele>2331</ele>
        <time>2018-06-28T21:50:26Z</time>
      </trkpt>
      <trkpt lat="45.61229" lon="6.96101">
        <ele>2344</ele>
        <time>2018-06-28T21:51:26Z</time>
      </trkpt>
      <trkpt lat="45.61279" lon="6.96171">
        <ele>2359</ele>
        <time>2018-06-28T21:52:26Z</time>
      </trkpt>
      <trkpt lat="45.61333" lon="6.96244">
        <ele>2371</ele>
        <time>2018-06-28T21:53:26Z</time>
      </trkpt>
      <trkpt lat="45.61376" lon="6.9636">
        <ele>2394</ele>
        <time>2018-06-28T21:54:26Z</time>
      </trkpt>
      <trkpt lat="45.61433" lon="6.96427">
        <ele>2432</ele>
        <time>2018-06-28T21:55:26Z</time>
      </trkpt>
      <trkpt lat="45.61478" lon="6.96431">
        <ele>2448</ele>
        <time>2018-06-28T21:56:26Z</time>
      </trkpt>
      <trkpt lat="45.61493" lon="6.96339">
        <ele>2454</ele>
        <time>2018-06-28T21:57:26Z</time>
      </trkpt>
      <trkpt lat="45.61541" lon="6.96352">
        <ele>2473</ele>
        <time>2018-06-28T21:58:26Z</time>
      </trkpt>
      <trkpt lat="45.61598" lon="6.9635">
        <ele>2491</ele>
        <time>2018-06-28T21:59:26Z</time>
      </trkpt>
      <trkpt lat="45.61648" lon="6.96375">
        <ele>2495</ele>
        <time>2018-06-28T22:00:26Z</time>
      </trkpt>
      <trkpt lat="45.61714" lon="6.96373">
        <ele>2513</ele>
        <time>2018-06-28T22:01:26Z</time>
      </trkpt>
      <trkpt lat="45.61729" lon="6.963">
        <ele>2524</ele>
        <time>2018-06-28T22:02:26Z</time>
      </trkpt>
      <trkpt lat="45.6172" lon="6.96225">
        <ele>2521</ele>
        <time>2018-06-28T22:03:26Z</time>
      </trkpt>
      <trkpt lat="45.61771" lon="6.96174">
        <ele>2496</ele>
        <time>2018-06-28T22:04:26Z</time>
      </trkpt>
      <trkpt lat="45.61796" lon="6.96105">
        <ele>2469</ele>
        <time>2018-06-28T22:05:26Z</time>
      </trkpt>
      <trkpt lat="45.61828" lon="6.96032">
        <ele>2455</ele>
        <time>2018-06-28T22:06:26Z</time>
      </trkpt>
      <trkpt lat="45.61841" lon="6.95987">
        <ele>2436</ele>
        <time>2018-06-28T22:07:26Z</time>
      </trkpt>
      <trkpt lat="45.61878" lon="6.95979">
        <ele>2419</ele>
        <time>2018-06-28T22:08:26Z</time>
      </trkpt>
      <trkpt lat="45.61883" lon="6.96004">
        <ele>2414</ele>
        <time>2018-06-28T22:09:26Z</time>
      </trkpt>
      <trkpt lat="45.61901" lon="6.95959">
        <ele>2413</ele>
        <time>2018-06-28T22:10:26Z</time>
      </trkpt>
      <trkpt lat="45.6191" lon="6.96003">
        <ele>2397</ele>
        <time>2018-06-28T22:11:26Z</time>
      </trkpt>
      <trkpt lat="45.61953" lon="6.95946">
        <ele>2378</ele>
        <time>2018-06-28T22:12:26Z</time>
      </trkpt>
      <trkpt lat="45.62001" lon="6.95871">
        <ele>2364</ele>
        <time>2018-06-28T22:13:26Z</time>
      </trkpt>
      <trkpt lat="45.62038" lon="6.95778">
        <ele>2362</ele>
        <time>2018-06-28T22:14:26Z</time>
      </trkpt>
      <trkpt lat="45.6206" lon="6.95718">
        <ele>2357</ele>
        <time>2018-06-28T22:15:26Z</time>
      </trkpt>
      <trkpt lat="45.62069" lon="6.95643">
        <ele>2350</ele>
        <time>2018-06-28T22:16:26Z</time>
      </trkpt>
      <trkpt lat="45.62062" lon="6.95577">
        <ele>2346</ele>
        <time>2018-06-28T22:17:26Z</time>
      </trkpt>
      <trkpt lat="45.62075" lon="6.95523">
        <ele>2345</ele>
        <time>2018-06-28T22:18:26Z</time>
      </trkpt>
      <trkpt lat="45.62101" lon="6.95445">
        <ele>2330</ele>
        <time>2018-06-28T22:19:26Z</time>
      </trkpt>
      <trkpt lat="45.62119" lon="6.95386">
        <ele>2317</ele>
        <time>2018-06-28T22:20:26Z</time>
      </trkpt>
      <trkpt lat="45.62143" lon="6.95331">
        <ele>2302</ele>
        <time>2018-06-28T22:21:26Z</time>
      </trkpt>
      <trkpt lat="45.62146" lon="6.95306">
        <ele>2300</ele>
        <time>2018-06-28T22:22:26Z</time>
      </trkpt>
      <trkpt lat="45.62163" lon="6.95293">
        <ele>2299</ele>
        <time>2018-06-28T22:23:26Z</time>
      </trkpt>
      <trkpt lat="45.6217" lon="6.95244">
        <ele>2286</ele>
        <time>2018-06-28T22:24:26Z</time>
      </trkpt>
      <trkpt lat="45.62181" lon="6.95219">
        <ele>2282</ele>
        <time>2018-06-28T22:25:26Z</time>
      </trkpt>
      <trkpt lat="45.62185" lon="6.95173">
        <ele>2278</ele>
        <time>2018-06-28T22:26:26Z</time>
      </trkpt>
      <trkpt lat="45.62203" lon="6.95136">
        <ele>2269</ele>
        <time>2018-06-28T22:27:26Z</time>
      </trkpt>
      <trkpt lat="45.62211" lon="6.95098">
        <ele>2266</ele>
        <time>2018-06-28T22:28:26Z</time>
      </trkpt>
      <trkpt lat="45.62224" lon="6.95079">
        <ele>2257</ele>
        <time>2018-06-28T22:29:26Z</time>
      </trkpt>
      <trkpt lat="45.62262" lon="6.9505">
        <ele>2242</ele>
        <time>2018-06-28T22:30:26Z</time>
      </trkpt>
      <trkpt lat="45.62297" lon="6.9501">
        <ele>2235</ele>
        <time>2018-06-28T22:31:26Z</time>
      </trkpt>
      <trkpt lat="45.62302" lon="6.94944">
        <ele>2225</ele>
        <time>2018-06-28T22:32:26Z</time>
      </trkpt>
      <trkpt lat="45.62293" lon="6.94924">
        <ele>2226</ele>
        <time>2018-06-28T22:33:26Z</time>
      </trkpt>
      <trkpt lat="45.62333" lon="6.94926">
        <ele>2218</ele>
        <time>2018-06-28T22:34:26Z</time>
      </trkpt>
      <trkpt lat="45.62369" lon="6.94943">
        <ele>2203</ele>
        <time>2018-06-28T22:35:26Z</time>
      </trkpt>
      <trkpt lat="45.62393" lon="6.9496">
        <ele>2200</ele>
        <time>2018-06-28T22:36:26Z</time>
      </trkpt>
      <trkpt lat="45.62412" lon="6.9496">
        <ele>2198</ele>
        <time>2018-06-28T22:37:26Z</time>
      </trkpt>
      <trkpt lat="45.62439" lon="6.94963">
        <ele>2178</ele>
        <time>2018-06-28T22:38:26Z</time>
      </trkpt>
      <trkpt lat="45.62445" lon="6.94923">
        <ele>2174</ele>
        <time>2018-06-28T22:39:26Z</time>
      </trkpt>
      <trkpt lat="45.6245" lon="6.94877">
        <ele>2156</ele>
        <time>2018-06-28T22:40:26Z</time>
      </trkpt>
      <trkpt lat="45.62483" lon="6.94877">
        <ele>2150</ele>
        <time>2018-06-28T22:41:26Z</time>
      </trkpt>
      <trkpt lat="45.62523" lon="6.94889">
        <ele>2129</ele>
        <time>2018-06-28T22:42:26Z</time>
      </trkpt>
      <trkpt lat="45.62527" lon="6.94857">
        <ele>2124</ele>
        <time>2018-06-28T22:43:26Z</time>
      </trkpt>
      <trkpt lat="45.62508" lon="6.94798">
        <ele>2108</ele>
        <time>2018-06-28T22:44:26Z</time>
      </trkpt>
      <trkpt lat="45.62498" lon="6.94751">
        <ele>2108</ele>
        <time>2018-06-28T22:45:26Z</time>
      </trkpt>
      <trkpt lat="45.62516" lon="6.94751">
        <ele>2103</ele>
        <time>2018-06-28T22:46:26Z</time>
      </trkpt>
      <trkpt lat="45.62531" lon="6.94713">
        <ele>2083</ele>
        <time>2018-06-28T22:47:26Z</time>
      </trkpt>
      <trkpt lat="45.62541" lon="6.94693">
        <ele>2079</ele>
        <time>2018-06-28T22:48:26Z</time>
      </trkpt>
      <trkpt lat="45.62532" lon="6.94654">
        <ele>2070</ele>
        <time>2018-06-28T22:49:26Z</time>
      </trkpt>
      <trkpt lat="45.62553" lon="6.94664">
        <ele>2065</ele>
        <time>2018-06-28T22:50:26Z</time>
      </trkpt>
      <trkpt lat="45.62566" lon="6.94638">
        <ele>2062</ele>
        <time>2018-06-28T22:51:26Z</time>
      </trkpt>
      <trkpt lat="45.62571" lon="6.9459">
        <ele>2053</ele>
        <time>2018-06-28T22:52:26Z</time>
      </trkpt>
      <trkpt lat="45.62577" lon="6.9452">
        <ele>2045</ele>
        <time>2018-06-28T22:53:26Z</time>
      </trkpt>
      <trkpt lat="45.62562" lon="6.94481">
        <ele>2039</ele>
        <time>2018-06-28T22:54:26Z</time>
      </trkpt>
      <trkpt lat="45.62596" lon="6.94468">
        <ele>2032</ele>
        <time>2018-06-28T22:55:26Z</time>
      </trkpt>
      <trkpt lat="45.62618" lon="6.94438">
        <ele>2032</ele>
        <time>2018-06-28T22:56:26Z</time>
      </trkpt>
      <trkpt lat="45.62632" lon="6.94438">
        <ele>2032</ele>
        <time>2018-06-28T22:57:26Z</time>
      </trkpt>
      <trkpt lat="45.62646" lon="6.944">
        <ele>2031</ele>
        <time>2018-06-28T22:58:26Z</time>
      </trkpt>
      <trkpt lat="45.62647" lon="6.94353">
        <ele>2032</ele>
        <time>2018-06-28T22:59:26Z</time>
      </trkpt>
      <trkpt lat="45.62652" lon="6.94292">
        <ele>2031</ele>
        <time>2018-06-28T23:00:26Z</time>
      </trkpt>
      <trkpt lat="45.62618" lon="6.9425">
        <ele>2031</ele>
        <time>2018-06-28T23:01:26Z</time>
      </trkpt>
      <trkpt lat="45.62569" lon="6.94217">
        <ele>2027</ele>
        <time>2018-06-28T23:02:26Z</time>
      </trkpt>
      <trkpt lat="45.62538" lon="6.94163">
        <ele>2029</ele>
        <time>2018-06-28T23:03:26Z</time>
      </trkpt>
      <trkpt lat="45.62481" lon="6.94109">
        <ele>2025</ele>
        <time>2018-06-28T23:04:26Z</time>
      </trkpt>
      <trkpt lat="45.62462" lon="6.94022">
        <ele>2026</ele>
        <time>2018-06-28T23:05:26Z</time>
      </trkpt>
      <trkpt lat="45.62413" lon="6.93919">
        <ele>2023</ele>
        <time>2018-06-28T23:06:26Z</time>
      </trkpt>
      <trkpt lat="45.62385" lon="6.93831">
        <ele>2024</ele>
        <time>2018-06-28T23:07:26Z</time>
      </trkpt>
      <trkpt lat="45.62353" lon="6.93786">
        <ele>2023</ele>
        <time>2018-06-28T23:08:26Z</time>
      </trkpt>
      <trkpt lat="45.62326" lon="6.93693">
        <ele>2023</ele>
        <time>2018-06-28T23:09:26Z</time>
      </trkpt>
      <trkpt lat="45.62323" lon="6.93664">
        <ele>2026</ele>
        <time>2018-06-28T23:10:26Z</time>
      </trkpt>
      <trkpt lat="45.62296" lon="6.93617">
        <ele>2026</ele>
        <time>2018-06-28T23:11:26Z</time>
      </trkpt>
      <trkpt lat="45.62313" lon="6.93602">
        <ele>2027</ele>
        <time>2018-06-28T23:12:26Z</time>
      </trkpt>
      <trkpt lat="45.62314" lon="6.93579">
        <ele>2027</ele>
        <time>2018-06-28T23:13:26Z</time>
      </trkpt>
      <trkpt lat="45.62344" lon="6.93576">
        <ele>2025</ele>
        <time>2018-06-28T23:14:26Z</time>
      </trkpt>
      <trkpt lat="45.62381" lon="6.93588">
        <ele>2030</ele>
        <time>2018-06-28T23:15:26Z</time>
      </trkpt>
      <trkpt lat="45.62404" lon="6.93584">
        <ele>2031</ele>
        <time>2018-06-28T23:16:26Z</time>
      </trkpt>
      <trkpt lat="45.62415" lon="6.93572">
        <ele>2026</ele>
        <time>2018-06-28T23:17:26Z</time>
      </trkpt>
      <trkpt lat="45.62448" lon="6.93567">
        <ele>2021</ele>
        <time>2018-06-28T23:18:26Z</time>
      </trkpt>
      <trkpt lat="45.62476" lon="6.93563">
        <ele>2021</ele>
        <time>2018-06-28T23:19:26Z</time>
      </trkpt>
      <trkpt lat="45.62491" lon="6.9355">
        <ele>2020</ele>
        <time>2018-06-28T23:20:26Z</time>
      </trkpt>
      <trkpt lat="45.62507" lon="6.93558">
        <ele>2030</ele>
        <time>2018-06-28T23:21:26Z</time>
      </trkpt>
      <trkpt lat="45.62509" lon="6.93529">
        <ele>2028</ele>
        <time>2018-06-28T23:22:26Z</time>
      </trkpt>
      <trkpt lat="45.62509" lon="6.93472">
        <ele>2023</ele>
        <time>2018-06-28T23:23:26Z</time>
      </trkpt>
      <trkpt lat="45.62469" lon="6.93434">
        <ele>2003</ele>
        <time>2018-06-28T23:24:26Z</time>
      </trkpt>
      <trkpt lat="45.6247" lon="6.93402">
        <ele>1998</ele>
        <time>2018-06-28T23:25:26Z</time>
      </trkpt>
      <trkpt lat="45.62458" lon="6.9337">
        <ele>1993</ele>
        <time>2018-06-28T23:26:26Z</time>
      </trkpt>
      <trkpt lat="45.62447" lon="6.93347">
        <ele>1989</ele>
        <time>2018-06-28T23:27:26Z</time>
      </trkpt>
      <trkpt lat="45.62452" lon="6.93299">
        <ele>1983</ele>
        <time>2018-06-28T23:28:26Z</time>
      </trkpt>
      <trkpt lat="45.62473" lon="6.93264">
        <ele>1984</ele>
        <time>2018-06-28T23:29:26Z</time>
      </trkpt>
      <trkpt lat="45.62485" lon="6.93232">
        <ele>1978</ele>
        <time>2018-06-28T23:30:26Z</time>
      </trkpt>
      <trkpt lat="45.62496" lon="6.93226">
        <ele>1978</ele>
        <time>2018-06-28T23:31:26Z</time>
      </trkpt>
      <trkpt lat="45.62505" lon="6.93198">
        <ele>1987</ele>
        <time>2018-06-28T23:32:26Z</time>
      </trkpt>
      <trkpt lat="45.62551" lon="6.93154">
        <ele>1987</ele>
        <time>2018-06-28T23:33:26Z</time>
      </trkpt>
      <trkpt lat="45.62551" lon="6.9311">
        <ele>1986</ele>
        <time>2018-06-28T23:34:26Z</time>
      </trkpt>
      <trkpt lat="45.62555" lon="6.93062">
        <ele>1980</ele>
        <time>2018-06-28T23:35:26Z</time>
      </trkpt>
      <trkpt lat="45.62557" lon="6.93007">
        <ele>1978</ele>
        <time>2018-06-28T23:36:26Z</time>
      </trkpt>
      <trkpt lat="45.62544" lon="6.92969">
        <ele>1966</ele>
        <time>2018-06-28T23:37:26Z</time>
      </trkpt>
      <trkpt lat="45.62551" lon="6.92933">
        <ele>1964</ele>
        <time>2018-06-28T23:38:26Z</time>
      </trkpt>
      <trkpt lat="45.6256" lon="6.92871">
        <ele>1956</ele>
        <time>2018-06-28T23:39:26Z</time>
      </trkpt>
      <trkpt lat="45.62573" lon="6.92821">
        <ele>1957</ele>
        <time>2018-06-28T23:40:26Z</time>
      </trkpt>
      <trkpt lat="45.6257" lon="6.92734">
        <ele>1956</ele>
        <time>2018-06-28T23:41:26Z</time>
      </trkpt>
      <trkpt lat="45.62567" lon="6.92658">
        <ele>1952</ele>
        <time>2018-06-28T23:42:26Z</time>
      </trkpt>
      <trkpt lat="45.62569" lon="6.92626">
        <ele>1949</ele>
        <time>2018-06-28T23:43:26Z</time>
      </trkpt>
      <trkpt lat="45.626" lon="6.92595">
        <ele>1966</ele>
        <time>2018-06-28T23:44:26Z</time>
      </trkpt>
      <trkpt lat="45.6262" lon="6.92551">
        <ele>1967</ele>
        <time>2018-06-28T23:45:26Z</time>
      </trkpt>
      <trkpt lat="45.62642" lon="6.92487">
        <ele>1963</ele>
        <time>2018-06-28T23:46:26Z</time>
      </trkpt>
      <trkpt lat="45.62664" lon="6.92428">
        <ele>1962</ele>
        <time>2018-06-28T23:47:26Z</time>
      </trkpt>
      <trkpt lat="45.6268" lon="6.92391">
        <ele>1978</ele>
        <time>2018-06-28T23:48:26Z</time>
      </trkpt>
      <trkpt lat="45.627" lon="6.92367">
        <ele>1982</ele>
        <time>2018-06-28T23:49:26Z</time>
      </trkpt>
      <trkpt lat="45.62704" lon="6.92311">
        <ele>1970</ele>
        <time>2018-06-28T23:50:26Z</time>
      </trkpt>
      <trkpt lat="45.62715" lon="6.92241">
        <ele>1953</ele>
        <time>2018-06-28T23:51:26Z</time>
      </trkpt>
      <trkpt lat="45.62796" lon="6.92188">
        <ele>1971</ele>
        <time>2018-06-28T23:52:26Z</time>
      </trkpt>
      <trkpt lat="45.62882" lon="6.92112">
        <ele>1966</ele>
        <time>2018-06-28T23:53:26Z</time>
      </trkpt>
      <trkpt lat="45.62937" lon="6.92054">
        <ele>1965</ele>
        <time>2018-06-28T23:54:26Z</time>
      </trkpt>
      <trkpt lat="45.63029" lon="6.92006">
        <ele>1981</ele>
        <time>2018-06-28T23:55:26Z</time>
      </trkpt>
      <trkpt lat="45.63105" lon="6.91979">
        <ele>1979</ele>
        <time>2018-06-28T23:56:26Z</time>
      </trkpt>
      <trkpt lat="45.63167" lon="6.91963">
        <ele>2000</ele>
        <time>2018-06-28T23:57:26Z</time>
      </trkpt>
      <trkpt lat="45.63265" lon="6.91901">
        <ele>1995</ele>
        <time>2018-06-28T23:58:26Z</time>
      </trkpt>
      <trkpt lat="45.63354" lon="6.91851">
        <ele>2011</ele>
        <time>2018-06-28T23:59:26Z</time>
      </trkpt>
      <trkpt lat="45.63407" lon="6.91815">
        <ele>2004</ele>
        <time>2018-06-29T00:00:26Z</time>
      </trkpt>
      <trkpt lat="45.63461" lon="6.91759">
        <ele>2033</ele>
        <time>2018-06-29T00:01:26Z</time>
      </trkpt>
      <trkpt lat="45.6348" lon="6.91724">
        <ele>2027</ele>
        <time>2018-06-29T00:02:26Z</time>
      </trkpt>
      <trkpt lat="45.63518" lon="6.91701">
        <ele>2060</ele>
        <time>2018-06-29T00:03:26Z</time>
      </trkpt>
      <trkpt lat="45.63522" lon="6.91646">
        <ele>2055</ele>
        <time>2018-06-29T00:04:26Z</time>
      </trkpt>
      <trkpt lat="45.63563" lon="6.91578">
        <ele>2079</ele>
        <time>2018-06-29T00:05:26Z</time>
      </trkpt>
      <trkpt lat="45.63567" lon="6.9149">
        <ele>2093</ele>
        <time>2018-06-29T00:06:26Z</time>
      </trkpt>
      <trkpt lat="45.63581" lon="6.91438">
        <ele>2099</ele>
        <time>2018-06-29T00:07:26Z</time>
      </trkpt>
      <trkpt lat="45.63603" lon="6.91449">
        <ele>2124</ele>
        <time>2018-06-29T00:08:26Z</time>
      </trkpt>
      <trkpt lat="45.63641" lon="6.91402">
        <ele>2141</ele>
        <time>2018-06-29T00:09:26Z</time>
      </trkpt>
      <trkpt lat="45.63654" lon="6.91331">
        <ele>2155</ele>
        <time>2018-06-29T00:10:26Z</time>
      </trkpt>
      <trkpt lat="45.63656" lon="6.91246">
        <ele>2176</ele>
        <time>2018-06-29T00:11:26Z</time>
      </trkpt>
      <trkpt lat="45.6364" lon="6.91214">
        <ele>2182</ele>
        <time>2018-06-29T00:12:26Z</time>
      </trkpt>
      <trkpt lat="45.63668" lon="6.91191">
        <ele>2197</ele>
        <time>2018-06-29T00:13:26Z</time>
      </trkpt>
      <trkpt lat="45.63661" lon="6.91129">
        <ele>2207</ele>
        <time>2018-06-29T00:14:26Z</time>
      </trkpt>
      <trkpt lat="45.63618" lon="6.91123">
        <ele>2207</ele>
        <time>2018-06-29T00:15:26Z</time>
      </trkpt>
      <trkpt lat="45.63597" lon="6.91058">
        <ele>2225</ele>
        <time>2018-06-29T00:16:26Z</time>
      </trkpt>
      <trkpt lat="45.63567" lon="6.9102">
        <ele>2220</ele>
        <time>2018-06-29T00:17:26Z</time>
      </trkpt>
      <trkpt lat="45.63588" lon="6.90976">
        <ele>2244</ele>
        <time>2018-06-29T00:18:26Z</time>
      </trkpt>
      <trkpt lat="45.63612" lon="6.90956">
        <ele>2251</ele>
        <time>2018-06-29T00:19:26Z</time>
      </trkpt>
      <trkpt lat="45.63654" lon="6.90973">
        <ele>2253</ele>
        <time>2018-06-29T00:20:26Z</time>
      </trkpt>
      <trkpt lat="45.63702" lon="6.90976">
        <ele>2272</ele>
        <time>2018-06-29T00:21:26Z</time>
      </trkpt>
      <trkpt lat="45.6371" lon="6.9091">
        <ele>2296</ele>
        <time>2018-06-29T00:22:26Z</time>
      </trkpt>
      <trkpt lat="45.63719" lon="6.90901">
        <ele>2299</ele>
        <time>2018-06-29T00:23:26Z</time>
      </trkpt>
      <trkpt lat="45.6372" lon="6.90857">
        <ele>2305</ele>
        <time>2018-06-29T00:24:26Z</time>
      </trkpt>
      <trkpt lat="45.63728" lon="6.90807">
        <ele>2323</ele>
        <time>2018-06-29T00:25:26Z</time>
      </trkpt>
      <trkpt lat="45.63727" lon="6.90789">
        <ele>2325</ele>
        <time>2018-06-29T00:26:26Z</time>
      </trkpt>
      <trkpt lat="45.6376" lon="6.908">
        <ele>2343</ele>
        <time>2018-06-29T00:27:26Z</time>
      </trkpt>
      <trkpt lat="45.63797" lon="6.90797">
        <ele>2350</ele>
        <time>2018-06-29T00:28:26Z</time>
      </trkpt>
      <trkpt lat="45.63832" lon="6.90821">
        <ele>2352</ele>
        <time>2018-06-29T00:29:26Z</time>
      </trkpt>
      <trkpt lat="45.63859" lon="6.90856">
        <ele>2353</ele>
        <time>2018-06-29T00:30:26Z</time>
      </trkpt>
      <trkpt lat="45.6389" lon="6.90872">
        <ele>2355</ele>
        <time>2018-06-29T00:31:26Z</time>
      </trkpt>
      <trkpt lat="45.63921" lon="6.90889">
        <ele>2367</ele>
        <time>2018-06-29T00:32:26Z</time>
      </trkpt>
      <trkpt lat="45.63981" lon="6.90895">
        <ele>2372</ele>
        <time>2018-06-29T00:33:26Z</time>
      </trkpt>
      <trkpt lat="45.64052" lon="6.90891">
        <ele>2378</ele>
        <time>2018-06-29T00:34:26Z</time>
      </trkpt>
      <trkpt lat="45.64092" lon="6.90907">
        <ele>2379</ele>
        <time>2018-06-29T00:35:26Z</time>
      </trkpt>
      <trkpt lat="45.64163" lon="6.90927">
        <ele>2384</ele>
        <time>2018-06-29T00:36:26Z</time>
      </trkpt>
      <trkpt lat="45.64184" lon="6.90929">
        <ele>2390</ele>
        <time>2018-06-29T00:37:26Z</time>
      </trkpt>
      <trkpt lat="45.6418" lon="6.90901">
        <ele>2394</ele>
        <time>2018-06-29T00:38:26Z</time>
      </trkpt>
      <trkpt lat="45.64222" lon="6.90883">
        <ele>2401</ele>
        <time>2018-06-29T00:39:26Z</time>
      </trkpt>
      <trkpt lat="45.64256" lon="6.90909">
        <ele>2409</ele>
        <time>2018-06-29T00:40:26Z</time>
      </trkpt>
      <trkpt lat="45.64262" lon="6.90869">
        <ele>2418</ele>
        <time>2018-06-29T00:41:26Z</time>
      </trkpt>
      <trkpt lat="45.64298" lon="6.90845">
        <ele>2424</ele>
        <time>2018-06-29T00:42:26Z</time>
      </trkpt>
      <trkpt lat="45.64306" lon="6.90784">
        <ele>2438</ele>
        <time>2018-06-29T00:43:26Z</time>
      </trkpt>
      <trkpt lat="45.64337" lon="6.90772">
        <ele>2455</ele>
        <time>2018-06-29T00:44:26Z</time>
      </trkpt>
      <trkpt lat="45.64392" lon="6.90772">
        <ele>2463</ele>
        <time>2018-06-29T00:45:26Z</time>
      </trkpt>
      <trkpt lat="45.64402" lon="6.90748">
        <ele>2477</ele>
        <time>2018-06-29T00:46:26Z</time>
      </trkpt>
      <trkpt lat="45.64433" lon="6.90704">
        <ele>2493</ele>
        <time>2018-06-29T00:47:26Z</time>
      </trkpt>
      <trkpt lat="45.64488" lon="6.90709">
        <ele>2499</ele>
        <time>2018-06-29T00:48:26Z</time>
      </trkpt>
      <trkpt lat="45.64512" lon="6.9068">
        <ele>2514</ele>
        <time>2018-06-29T00:49:26Z</time>
      </trkpt>
      <trkpt lat="45.64548" lon="6.90716">
        <ele>2513</ele>
        <time>2018-06-29T00:50:26Z</time>
      </trkpt>
      <trkpt lat="45.64599" lon="6.90743">
        <ele>2516</ele>
        <time>2018-06-29T00:51:26Z</time>
      </trkpt>
      <trkpt lat="45.64642" lon="6.90733">
        <ele>2519</ele>
        <time>2018-06-29T00:52:26Z</time>
      </trkpt>
      <trkpt lat="45.64678" lon="6.90715">
        <ele>2516</ele>
        <time>2018-06-29T00:53:26Z</time>
      </trkpt>
      <trkpt lat="45.64703" lon="6.90674">
        <ele>2513</ele>
        <time>2018-06-29T00:54:26Z</time>
      </trkpt>
      <trkpt lat="45.64667" lon="6.90589">
        <ele>2500</ele>
        <time>2018-06-29T00:55:26Z</time>
      </trkpt>
      <trkpt lat="45.64662" lon="6.90549">
        <ele>2498</ele>
        <time>2018-06-29T00:56:26Z</time>
      </trkpt>
      <trkpt lat="45.64666" lon="6.90484">
        <ele>2456</ele>
        <time>2018-06-29T00:57:26Z</time>
      </trkpt>
      <trkpt lat="45.64672" lon="6.90467">
        <ele>2417</ele>
        <time>2018-06-29T00:58:26Z</time>
      </trkpt>
      <trkpt lat="45.64654" lon="6.9046">
        <ele>2455</ele>
        <time>2018-06-29T00:59:26Z</time>
      </trkpt>
      <trkpt lat="45.64664" lon="6.90437">
        <ele>2440</ele>
        <time>2018-06-29T01:00:26Z</time>
      </trkpt>
      <trkpt lat="45.64641" lon="6.90434">
        <ele>2450</ele>
        <time>2018-06-29T01:01:26Z</time>
      </trkpt>
      <trkpt lat="45.64659" lon="6.90416">
        <ele>2412</ele>
        <time>2018-06-29T01:02:26Z</time>
      </trkpt>
      <trkpt lat="45.64628" lon="6.90388">
        <ele>2417</ele>
        <time>2018-06-29T01:03:26Z</time>
      </trkpt>
      <trkpt lat="45.64624" lon="6.90325">
        <ele>2364</ele>
        <time>2018-06-29T01:04:26Z</time>
      </trkpt>
      <trkpt lat="45.646" lon="6.90293">
        <ele>2359</ele>
        <time>2018-06-29T01:05:26Z</time>
      </trkpt>
      <trkpt lat="45.64594" lon="6.90259">
        <ele>2344</ele>
        <time>2018-06-29T01:06:26Z</time>
      </trkpt>
      <trkpt lat="45.64574" lon="6.90244">
        <ele>2342</ele>
        <time>2018-06-29T01:07:26Z</time>
      </trkpt>
      <trkpt lat="45.64618" lon="6.90231">
        <ele>2311</ele>
        <time>2018-06-29T01:08:26Z</time>
      </trkpt>
      <trkpt lat="45.6459" lon="6.90127">
        <ele>2275</ele>
        <time>2018-06-29T01:09:26Z</time>
      </trkpt>
      <trkpt lat="45.64605" lon="6.90121">
        <ele>2272</ele>
        <time>2018-06-29T01:10:26Z</time>
      </trkpt>
      <trkpt lat="45.64594" lon="6.90103">
        <ele>2269</ele>
        <time>2018-06-29T01:11:26Z</time>
      </trkpt>
      <trkpt lat="45.64616" lon="6.90103">
        <ele>2267</ele>
        <time>2018-06-29T01:12:26Z</time>
      </trkpt>
      <trkpt lat="45.64594" lon="6.90058">
        <ele>2248</ele>
        <time>2018-06-29T01:13:26Z</time>
      </trkpt>
      <trkpt lat="45.64617" lon="6.90049">
        <ele>2243</ele>
        <time>2018-06-29T01:14:26Z</time>
      </trkpt>
      <trkpt lat="45.64616" lon="6.90006">
        <ele>2237</ele>
        <time>2018-06-29T01:15:26Z</time>
      </trkpt>
      <trkpt lat="45.64646" lon="6.90009">
        <ele>2235</ele>
        <time>2018-06-29T01:16:26Z</time>
      </trkpt>
      <trkpt lat="45.64672" lon="6.89967">
        <ele>2228</ele>
        <time>2018-06-29T01:17:26Z</time>
      </trkpt>
      <trkpt lat="45.64676" lon="6.89939">
        <ele>2226</ele>
        <time>2018-06-29T01:18:26Z</time>
      </trkpt>
      <trkpt lat="45.64704" lon="6.89915">
        <ele>2219</ele>
        <time>2018-06-29T01:19:26Z</time>
      </trkpt>
      <trkpt lat="45.64706" lon="6.89868">
        <ele>2215</ele>
        <time>2018-06-29T01:20:26Z</time>
      </trkpt>
      <trkpt lat="45.64722" lon="6.89822">
        <ele>2200</ele>
        <time>2018-06-29T01:21:26Z</time>
      </trkpt>
      <trkpt lat="45.64731" lon="6.89788">
        <ele>2195</ele>
        <time>2018-06-29T01:22:26Z</time>
      </trkpt>
      <trkpt lat="45.64765" lon="6.89712">
        <ele>2183</ele>
        <time>2018-06-29T01:23:26Z</time>
      </trkpt>
      <trkpt lat="45.64779" lon="6.89657">
        <ele>2179</ele>
        <time>2018-06-29T01:24:26Z</time>
      </trkpt>
      <trkpt lat="45.64807" lon="6.89622">
        <ele>2183</ele>
        <time>2018-06-29T01:25:26Z</time>
      </trkpt>
      <trkpt lat="45.64803" lon="6.89551">
        <ele>2181</ele>
        <time>2018-06-29T01:26:26Z</time>
      </trkpt>
      <trkpt lat="45.64812" lon="6.89481">
        <ele>2183</ele>
        <time>2018-06-29T01:27:26Z</time>
      </trkpt>
      <trkpt lat="45.64817" lon="6.89434">
        <ele>2185</ele>
        <time>2018-06-29T01:28:26Z</time>
      </trkpt>
      <trkpt lat="45.64836" lon="6.89316">
        <ele>2204</ele>
        <time>2018-06-29T01:29:26Z</time>
      </trkpt>
      <trkpt lat="45.64843" lon="6.89281">
        <ele>2205</ele>
        <time>2018-06-29T01:30:26Z</time>
      </trkpt>
      <trkpt lat="45.64844" lon="6.89241">
        <ele>2200</ele>
        <time>2018-06-29T01:31:26Z</time>
      </trkpt>
      <trkpt lat="45.6487" lon="6.89211">
        <ele>2205</ele>
        <time>2018-06-29T01:32:26Z</time>
      </trkpt>
      <trkpt lat="45.6488" lon="6.89126">
        <ele>2201</ele>
        <time>2018-06-29T01:33:26Z</time>
      </trkpt>
      <trkpt lat="45.6489" lon="6.89041">
        <ele>2192</ele>
        <time>2018-06-29T01:34:26Z</time>
      </trkpt>
      <trkpt lat="45.64906" lon="6.88952">
        <ele>2171</ele>
        <time>2018-06-29T01:35:26Z</time>
      </trkpt>
      <trkpt lat="45.64951" lon="6.88939">
        <ele>2198</ele>
        <time>2018-06-29T01:36:26Z</time>
      </trkpt>
      <trkpt lat="45.64981" lon="6.88912">
        <ele>2191</ele>
        <time>2018-06-29T01:37:26Z</time>
      </trkpt>
      <trkpt lat="45.64982" lon="6.88876">
        <ele>2181</ele>
        <time>2018-06-29T01:38:26Z</time>
      </trkpt>
      <trkpt lat="45.65021" lon="6.88829">
        <ele>2185</ele>
        <time>2018-06-29T01:39:26Z</time>
      </trkpt>
      <trkpt lat="45.65078" lon="6.88783">
        <ele>2186</ele>
        <time>2018-06-29T01:40:26Z</time>
      </trkpt>
      <trkpt lat="45.65151" lon="6.8876">
        <ele>2206</ele>
        <time>2018-06-29T01:41:26Z</time>
      </trkpt>
      <trkpt lat="45.65211" lon="6.88756">
        <ele>2225</ele>
        <time>2018-06-29T01:42:26Z</time>
      </trkpt>
      <trkpt lat="45.65249" lon="6.88706">
        <ele>2197</ele>
        <time>2018-06-29T01:43:26Z</time>
      </trkpt>
      <trkpt lat="45.6525" lon="6.8865">
        <ele>2196</ele>
        <time>2018-06-29T01:44:26Z</time>
      </trkpt>
      <trkpt lat="45.65272" lon="6.88665">
        <ele>2200</ele>
        <time>2018-06-29T01:45:26Z</time>
      </trkpt>
      <trkpt lat="45.65307" lon="6.88642">
        <ele>2208</ele>
        <time>2018-06-29T01:46:26Z</time>
      </trkpt>
      <trkpt lat="45.65319" lon="6.88603">
        <ele>2208</ele>
        <time>2018-06-29T01:47:26Z</time>
      </trkpt>
      <trkpt lat="45.65308" lon="6.88563">
        <ele>2197</ele>
        <time>2018-06-29T01:48:26Z</time>
      </trkpt>
      <trkpt lat="45.65327" lon="6.88515">
        <ele>2200</ele>
        <time>2018-06-29T01:49:26Z</time>
      </trkpt>
      <trkpt lat="45.65341" lon="6.88465">
        <ele>2224</ele>
        <time>2018-06-29T01:50:26Z</time>
      </trkpt>
      <trkpt lat="45.65337" lon="6.88421">
        <ele>2215</ele>
        <time>2018-06-29T01:51:26Z</time>
      </trkpt>
      <trkpt lat="45.65343" lon="6.88367">
        <ele>2223</ele>
        <time>2018-06-29T01:52:26Z</time>
      </trkpt>
      <trkpt lat="45.65366" lon="6.88319">
        <ele>2226</ele>
        <time>2018-06-29T01:53:26Z</time>
      </trkpt>
      <trkpt lat="45.6536" lon="6.88228">
        <ele>2223</ele>
        <time>2018-06-29T01:54:26Z</time>
      </trkpt>
      <trkpt lat="45.65393" lon="6.88134">
        <ele>2231</ele>
        <time>2018-06-29T01:55:26Z</time>
      </trkpt>
      <trkpt lat="45.65398" lon="6.8809">
        <ele>2235</ele>
        <time>2018-06-29T01:56:26Z</time>
      </trkpt>
      <trkpt lat="45.65412" lon="6.88053">
        <ele>2235</ele>
        <time>2018-06-29T01:57:26Z</time>
      </trkpt>
      <trkpt lat="45.6541" lon="6.88035">
        <ele>2234</ele>
        <time>2018-06-29T01:58:26Z</time>
      </trkpt>
      <trkpt lat="45.65434" lon="6.88026">
        <ele>2257</ele>
        <time>2018-06-29T01:59:26Z</time>
      </trkpt>
      <trkpt lat="45.65458" lon="6.87962">
        <ele>2262</ele>
        <time>2018-06-29T02:00:26Z</time>
      </trkpt>
      <trkpt lat="45.65484" lon="6.87906">
        <ele>2271</ele>
        <time>2018-06-29T02:01:26Z</time>
      </trkpt>
      <trkpt lat="45.65493" lon="6.87838">
        <ele>2277</ele>
        <time>2018-06-29T02:02:26Z</time>
      </trkpt>
      <trkpt lat="45.65518" lon="6.87814">
        <ele>2295</ele>
        <time>2018-06-29T02:03:26Z</time>
      </trkpt>
      <trkpt lat="45.65515" lon="6.87771">
        <ele>2297</ele>
        <time>2018-06-29T02:04:26Z</time>
      </trkpt>
      <trkpt lat="45.65522" lon="6.87707">
        <ele>2303</ele>
        <time>2018-06-29T02:05:26Z</time>
      </trkpt>
      <trkpt lat="45.65542" lon="6.87683">
        <ele>2307</ele>
        <time>2018-06-29T02:06:26Z</time>
      </trkpt>
      <trkpt lat="45.65545" lon="6.87647">
        <ele>2312</ele>
        <time>2018-06-29T02:07:26Z</time>
      </trkpt>
      <trkpt lat="45.65571" lon="6.87654">
        <ele>2318</ele>
        <time>2018-06-29T02:08:26Z</time>
      </trkpt>
      <trkpt lat="45.6557" lon="6.87606">
        <ele>2318</ele>
        <time>2018-06-29T02:09:26Z</time>
      </trkpt>
      <trkpt lat="45.65594" lon="6.87589">
        <ele>2334</ele>
        <time>2018-06-29T02:10:26Z</time>
      </trkpt>
      <trkpt lat="45.65621" lon="6.87653">
        <ele>2342</ele>
        <time>2018-06-29T02:11:26Z</time>
      </trkpt>
      <trkpt lat="45.65641" lon="6.87707">
        <ele>2344</ele>
        <time>2018-06-29T02:12:26Z</time>
      </trkpt>
      <trkpt lat="45.65646" lon="6.87648">
        <ele>2349</ele>
        <time>2018-06-29T02:13:26Z</time>
      </trkpt>
      <trkpt lat="45.65655" lon="6.87597">
        <ele>2354</ele>
        <time>2018-06-29T02:14:26Z</time>
      </trkpt>
      <trkpt lat="45.65695" lon="6.87583">
        <ele>2368</ele>
        <time>2018-06-29T02:15:26Z</time>
      </trkpt>
      <trkpt lat="45.6573" lon="6.87583">
        <ele>2372</ele>
        <time>2018-06-29T02:16:26Z</time>
      </trkpt>
      <trkpt lat="45.65746" lon="6.87682">
        <ele>2367</ele>
        <time>2018-06-29T02:17:26Z</time>
      </trkpt>
      <trkpt lat="45.65765" lon="6.87742">
        <ele>2359</ele>
        <time>2018-06-29T02:18:26Z</time>
      </trkpt>
      <trkpt lat="45.65797" lon="6.87773">
        <ele>2349</ele>
        <time>2018-06-29T02:19:26Z</time>
      </trkpt>
      <trkpt lat="45.65801" lon="6.87679">
        <ele>2343</ele>
        <time>2018-06-29T02:20:26Z</time>
      </trkpt>
      <trkpt lat="45.65827" lon="6.877">
        <ele>2338</ele>
        <time>2018-06-29T02:21:26Z</time>
      </trkpt>
      <trkpt lat="45.65839" lon="6.87773">
        <ele>2308</ele>
        <time>2018-06-29T02:22:26Z</time>
      </trkpt>
      <trkpt lat="45.65845" lon="6.87862">
        <ele>2312</ele>
        <time>2018-06-29T02:23:26Z</time>
      </trkpt>
      <trkpt lat="45.65897" lon="6.87914">
        <ele>2293</ele>
        <time>2018-06-29T02:24:26Z</time>
      </trkpt>
      <trkpt lat="45.65931" lon="6.8788">
        <ele>2260</ele>
        <time>2018-06-29T02:25:26Z</time>
      </trkpt>
      <trkpt lat="45.65966" lon="6.87927">
        <ele>2265</ele>
        <time>2018-06-29T02:26:26Z</time>
      </trkpt>
      <trkpt lat="45.66002" lon="6.87941">
        <ele>2240</ele>
        <time>2018-06-29T02:27:26Z</time>
      </trkpt>
      <trkpt lat="45.66042" lon="6.87981">
        <ele>2239</ele>
        <time>2018-06-29T02:28:26Z</time>
      </trkpt>
      <trkpt lat="45.66091" lon="6.88021">
        <ele>2228</ele>
        <time>2018-06-29T02:29:26Z</time>
      </trkpt>
      <trkpt lat="45.66133" lon="6.8797">
        <ele>2223</ele>
        <time>2018-06-29T02:30:26Z</time>
      </trkpt>
      <trkpt lat="45.66174" lon="6.87961">
        <ele>2224</ele>
        <time>2018-06-29T02:31:26Z</time>
      </trkpt>
      <trkpt lat="45.6621" lon="6.87946">
        <ele>2223</ele>
        <time>2018-06-29T02:32:26Z</time>
      </trkpt>
      <trkpt lat="45.66222" lon="6.87899">
        <ele>2215</ele>
        <time>2018-06-29T02:33:26Z</time>
      </trkpt>
      <trkpt lat="45.66298" lon="6.87873">
        <ele>2212</ele>
        <time>2018-06-29T02:34:26Z</time>
      </trkpt>
      <trkpt lat="45.66375" lon="6.87847">
        <ele>2212</ele>
        <time>2018-06-29T02:35:26Z</time>
      </trkpt>
      <trkpt lat="45.66436" lon="6.878">
        <ele>2206</ele>
        <time>2018-06-29T02:36:26Z</time>
      </trkpt>
      <trkpt lat="45.66462" lon="6.87779">
        <ele>2207</ele>
        <time>2018-06-29T02:37:26Z</time>
      </trkpt>
      <trkpt lat="45.66503" lon="6.87686">
        <ele>2207</ele>
        <time>2018-06-29T02:38:26Z</time>
      </trkpt>
      <trkpt lat="45.66574" lon="6.8763">
        <ele>2205</ele>
        <time>2018-06-29T02:39:26Z</time>
      </trkpt>
      <trkpt lat="45.66617" lon="6.87615">
        <ele>2209</ele>
        <time>2018-06-29T02:40:26Z</time>
      </trkpt>
      <trkpt lat="45.66661" lon="6.87639">
        <ele>2211</ele>
        <time>2018-06-29T02:41:26Z</time>
      </trkpt>
      <trkpt lat="45.66784" lon="6.87588">
        <ele>2211</ele>
        <time>2018-06-29T02:42:26Z</time>
      </trkpt>
      <trkpt lat="45.66855" lon="6.8765">
        <ele>2207</ele>
        <time>2018-06-29T02:43:26Z</time>
      </trkpt>
      <trkpt lat="45.66973" lon="6.87688">
        <ele>2198</ele>
        <time>2018-06-29T02:44:26Z</time>
      </trkpt>
      <trkpt lat="45.67017" lon="6.87701">
        <ele>2181</ele>
        <time>2018-06-29T02:45:26Z</time>
      </trkpt>
      <trkpt lat="45.6705" lon="6.87712">
        <ele>2178</ele>
        <time>2018-06-29T02:46:26Z</time>
      </trkpt>
      <trkpt lat="45.67103" lon="6.8773">
        <ele>2165</ele>
        <time>2018-06-29T02:47:26Z</time>
      </trkpt>
      <trkpt lat="45.67095" lon="6.87706">
        <ele>2161</ele>
        <time>2018-06-29T02:48:26Z</time>
      </trkpt>
      <trkpt lat="45.67062" lon="6.87667">
        <ele>2168</ele>
        <time>2018-06-29T02:49:26Z</time>
      </trkpt>
      <trkpt lat="45.67031" lon="6.87602">
        <ele>2154</ele>
        <time>2018-06-29T02:50:26Z</time>
      </trkpt>
      <trkpt lat="45.66997" lon="6.8757">
        <ele>2151</ele>
        <time>2018-06-29T02:51:26Z</time>
      </trkpt>
      <trkpt lat="45.66999" lon="6.87527">
        <ele>2146</ele>
        <time>2018-06-29T02:52:26Z</time>
      </trkpt>
      <trkpt lat="45.6695" lon="6.87489">
        <ele>2137</ele>
        <time>2018-06-29T02:53:26Z</time>
      </trkpt>
      <trkpt lat="45.66935" lon="6.87458">
        <ele>2135</ele>
        <time>2018-06-29T02:54:26Z</time>
      </trkpt>
      <trkpt lat="45.66933" lon="6.87424">
        <ele>2131</ele>
        <time>2018-06-29T02:55:26Z</time>
      </trkpt>
      <trkpt lat="45.66901" lon="6.87396">
        <ele>2128</ele>
        <time>2018-06-29T02:56:26Z</time>
      </trkpt>
      <trkpt lat="45.6688" lon="6.87359">
        <ele>2127</ele>
        <time>2018-06-29T02:57:26Z</time>
      </trkpt>
      <trkpt lat="45.66858" lon="6.87329">
        <ele>2120</ele>
        <time>2018-06-29T02:58:26Z</time>
      </trkpt>
      <trkpt lat="45.66868" lon="6.87294">
        <ele>2118</ele>
        <time>2018-06-29T02:59:26Z</time>
      </trkpt>
      <trkpt lat="45.66871" lon="6.87269">
        <ele>2117</ele>
        <time>2018-06-29T03:00:26Z</time>
      </trkpt>
      <trkpt lat="45.66843" lon="6.8723">
        <ele>2109</ele>
        <time>2018-06-29T03:01:26Z</time>
      </trkpt>
      <trkpt lat="45.66861" lon="6.87226">
        <ele>2110</ele>
        <time>2018-06-29T03:02:26Z</time>
      </trkpt>
      <trkpt lat="45.6682" lon="6.87181">
        <ele>2099</ele>
        <time>2018-06-29T03:03:26Z</time>
      </trkpt>
      <trkpt lat="45.66785" lon="6.87152">
        <ele>2090</ele>
        <time>2018-06-29T03:04:26Z</time>
      </trkpt>
      <trkpt lat="45.66731" lon="6.87121">
        <ele>2080</ele>
        <time>2018-06-29T03:05:26Z</time>
      </trkpt>
      <trkpt lat="45.66678" lon="6.87097">
        <ele>2074</ele>
        <time>2018-06-29T03:06:26Z</time>
      </trkpt>
      <trkpt lat="45.66643" lon="6.87078">
        <ele>2066</ele>
        <time>2018-06-29T03:07:26Z</time>
      </trkpt>
      <trkpt lat="45.66613" lon="6.87053">
        <ele>2065</ele>
        <time>2018-06-29T03:08:26Z</time>
      </trkpt>
      <trkpt lat="45.66615" lon="6.86981">
        <ele>2053</ele>
        <time>2018-06-29T03:09:26Z</time>
      </trkpt>
      <trkpt lat="45.66608" lon="6.8695">
        <ele>2051</ele>
        <time>2018-06-29T03:10:26Z</time>
      </trkpt>
      <trkpt lat="45.66614" lon="6.86889">
        <ele>2047</ele>
        <time>2018-06-29T03:11:26Z</time>
      </trkpt>
      <trkpt lat="45.66609" lon="6.8685">
        <ele>2046</ele>
        <time>2018-06-29T03:12:26Z</time>
      </trkpt>
      <trkpt lat="45.66564" lon="6.86838">
        <ele>2042</ele>
        <time>2018-06-29T03:13:26Z</time>
      </trkpt>
      <trkpt lat="45.66526" lon="6.86825">
        <ele>2042</ele>
        <time>2018-06-29T03:14:26Z</time>
      </trkpt>
      <trkpt lat="45.66475" lon="6.86808">
        <ele>2036</ele>
        <time>2018-06-29T03:15:26Z</time>
      </trkpt>
      <trkpt lat="45.66437" lon="6.86762">
        <ele>2034</ele>
        <time>2018-06-29T03:16:26Z</time>
      </trkpt>
      <trkpt lat="45.66376" lon="6.86682">
        <ele>2025</ele>
        <time>2018-06-29T03:17:26Z</time>
      </trkpt>
      <trkpt lat="45.66354" lon="6.86636">
        <ele>2024</ele>
        <time>2018-06-29T03:18:26Z</time>
      </trkpt>
      <trkpt lat="45.66345" lon="6.86592">
        <ele>2022</ele>
        <time>2018-06-29T03:19:26Z</time>
      </trkpt>
      <trkpt lat="45.6629" lon="6.86533">
        <ele>2013</ele>
        <time>2018-06-29T03:20:26Z</time>
      </trkpt>
      <trkpt lat="45.66244" lon="6.86491">
        <ele>2002</ele>
        <time>2018-06-29T03:21:26Z</time>
      </trkpt>
      <trkpt lat="45.66201" lon="6.86419">
        <ele>1999</ele>
        <time>2018-06-29T03:22:26Z</time>
      </trkpt>
      <trkpt lat="45.66157" lon="6.86349">
        <ele>1990</ele>
        <time>2018-06-29T03:23:26Z</time>
      </trkpt>
      <trkpt lat="45.66141" lon="6.8629">
        <ele>1993</ele>
        <time>2018-06-29T03:24:26Z</time>
      </trkpt>
      <trkpt lat="45.66106" lon="6.86242">
        <ele>1994</ele>
        <time>2018-06-29T03:25:26Z</time>
      </trkpt>
      <trkpt lat="45.66076" lon="6.86066">
        <ele>1985</ele>
        <time>2018-06-29T03:26:26Z</time>
      </trkpt>
      <trkpt lat="45.66051" lon="6.85973">
        <ele>1984</ele>
        <time>2018-06-29T03:27:26Z</time>
      </trkpt>
      <trkpt lat="45.66008" lon="6.85884">
        <ele>1986</ele>
        <time>2018-06-29T03:28:26Z</time>
      </trkpt>
      <trkpt lat="45.65999" lon="6.85802">
        <ele>1970</ele>
        <time>2018-06-29T03:29:26Z</time>
      </trkpt>
      <trkpt lat="45.66026" lon="6.85755">
        <ele>1989</ele>
        <time>2018-06-29T03:30:26Z</time>
      </trkpt>
      <trkpt lat="45.66026" lon="6.85689">
        <ele>1984</ele>
        <time>2018-06-29T03:31:26Z</time>
      </trkpt>
      <trkpt lat="45.66064" lon="6.85642">
        <ele>1987</ele>
        <time>2018-06-29T03:32:26Z</time>
      </trkpt>
      <trkpt lat="45.66062" lon="6.85585">
        <ele>1987</ele>
        <time>2018-06-29T03:33:26Z</time>
      </trkpt>
      <trkpt lat="45.6606" lon="6.85542">
        <ele>1987</ele>
        <time>2018-06-29T03:34:26Z</time>
      </trkpt>
      <trkpt lat="45.66086" lon="6.85498">
        <ele>1996</ele>
        <time>2018-06-29T03:35:26Z</time>
      </trkpt>
      <trkpt lat="45.65998" lon="6.85389">
        <ele>1978</ele>
        <time>2018-06-29T03:36:26Z</time>
      </trkpt>
      <trkpt lat="45.65971" lon="6.85263">
        <ele>1975</ele>
        <time>2018-06-29T03:37:26Z</time>
      </trkpt>
      <trkpt lat="45.65899" lon="6.85157">
        <ele>1960</ele>
        <time>2018-06-29T03:38:26Z</time>
      </trkpt>
      <trkpt lat="45.65821" lon="6.84965">
        <ele>1940</ele>
        <time>2018-06-29T03:39:26Z</time>
      </trkpt>
      <trkpt lat="45.65826" lon="6.84944">
        <ele>1941</ele>
        <time>2018-06-29T03:40:26Z</time>
      </trkpt>
      <trkpt lat="45.658" lon="6.84882">
        <ele>1941</ele>
        <time>2018-06-29T03:41:26Z</time>
      </trkpt>
      <trkpt lat="45.65771" lon="6.84825">
        <ele>1939</ele>
        <time>2018-06-29T03:42:26Z</time>
      </trkpt>
      <trkpt lat="45.65712" lon="6.84722">
        <ele>1920</ele>
        <time>2018-06-29T03:43:26Z</time>
      </trkpt>
      <trkpt lat="45.65655" lon="6.84585">
        <ele>1901</ele>
        <time>2018-06-29T03:44:26Z</time>
      </trkpt>
      <trkpt lat="45.65634" lon="6.84536">
        <ele>1897</ele>
        <time>2018-06-29T03:45:26Z</time>
      </trkpt>
      <trkpt lat="45.65644" lon="6.84482">
        <ele>1910</ele>
        <time>2018-06-29T03:46:26Z</time>
      </trkpt>
      <trkpt lat="45.6561" lon="6.84473">
        <ele>1903</ele>
        <time>2018-06-29T03:47:26Z</time>
      </trkpt>
      <trkpt lat="45.65571" lon="6.84393">
        <ele>1893</ele>
        <time>2018-06-29T03:48:26Z</time>
      </trkpt>
      <trkpt lat="45.65452" lon="6.84276">
        <ele>1880</ele>
        <time>2018-06-29T03:49:26Z</time>
      </trkpt>
      <trkpt lat="45.65407" lon="6.84242">
        <ele>1875</ele>
        <time>2018-06-29T03:50:26Z</time>
      </trkpt>
      <trkpt lat="45.65325" lon="6.84215">
        <ele>1856</ele>
        <time>2018-06-29T03:51:26Z</time>
      </trkpt>
      <trkpt lat="45.65248" lon="6.8418">
        <ele>1844</ele>
        <time>2018-06-29T03:52:26Z</time>
      </trkpt>
      <trkpt lat="45.6517" lon="6.84124">
        <ele>1849</ele>
        <time>2018-06-29T03:53:26Z</time>
      </trkpt>
      <trkpt lat="45.65132" lon="6.84014">
        <ele>1841</ele>
        <time>2018-06-29T03:54:26Z</time>
      </trkpt>
      <trkpt lat="45.65094" lon="6.83962">
        <ele>1844</ele>
        <time>2018-06-29T03:55:26Z</time>
      </trkpt>
      <trkpt lat="45.65027" lon="6.8391">
        <ele>1820</ele>
        <time>2018-06-29T03:56:26Z</time>
      </trkpt>
      <trkpt lat="45.64978" lon="6.83856">
        <ele>1797</ele>
        <time>2018-06-29T03:57:26Z</time>
      </trkpt>
      <trkpt lat="45.64905" lon="6.83773">
        <ele>1775</ele>
        <time>2018-06-29T03:58:26Z</time>
      </trkpt>
      <trkpt lat="45.64838" lon="6.83704">
        <ele>1772</ele>
        <time>2018-06-29T03:59:26Z</time>
      </trkpt>
      <trkpt lat="45.64783" lon="6.83592">
        <ele>1734</ele>
        <time>2018-06-29T04:00:26Z</time>
      </trkpt>
      <trkpt lat="45.64732" lon="6.83444">
        <ele>1702</ele>
        <time>2018-06-29T04:01:26Z</time>
      </trkpt>
      <trkpt lat="45.64697" lon="6.83448">
        <ele>1690</ele>
        <time>2018-06-29T04:02:26Z</time>
      </trkpt>
      <trkpt lat="45.64709" lon="6.83365">
        <ele>1691</ele>
        <time>2018-06-29T04:03:26Z</time>
      </trkpt>
      <trkpt lat="45.64715" lon="6.83302">
        <ele>1678</ele>
        <time>2018-06-29T04:04:26Z</time>
      </trkpt>
      <trkpt lat="45.64747" lon="6.83226">
        <ele>1677</ele>
        <time>2018-06-29T04:05:26Z</time>
      </trkpt>
      <trkpt lat="45.64711" lon="6.83165">
        <ele>1668</ele>
        <time>2018-06-29T04:06:26Z</time>
      </trkpt>
      <trkpt lat="45.64717" lon="6.83031">
        <ele>1666</ele>
        <time>2018-06-29T04:07:26Z</time>
      </trkpt>
      <trkpt lat="45.64678" lon="6.82912">
        <ele>1658</ele>
        <time>2018-06-29T04:08:26Z</time>
      </trkpt>
      <trkpt lat="45.64649" lon="6.82845">
        <ele>1635</ele>
        <time>2018-06-29T04:09:26Z</time>
      </trkpt>
      <trkpt lat="45.64645" lon="6.82741">
        <ele>1633</ele>
        <time>2018-06-29T04:10:26Z</time>
      </trkpt>
      <trkpt lat="45.64634" lon="6.82697">
        <ele>1625</ele>
        <time>2018-06-29T04:11:26Z</time>
      </trkpt>
      <trkpt lat="45.64648" lon="6.82611">
        <ele>1621</ele>
        <time>2018-06-29T04:12:26Z</time>
      </trkpt>
      <trkpt lat="45.64605" lon="6.82455">
        <ele>1608</ele>
        <time>2018-06-29T04:13:26Z</time>
      </trkpt>
      <trkpt lat="45.64562" lon="6.82421">
        <ele>1592</ele>
        <time>2018-06-29T04:14:26Z</time>
      </trkpt>
      <trkpt lat="45.64491" lon="6.82367">
        <ele>1568</ele>
        <time>2018-06-29T04:15:26Z</time>
      </trkpt>
      <trkpt lat="45.64438" lon="6.82282">
        <ele>1564</ele>
        <time>2018-06-29T04:16:26Z</time>
      </trkpt>
      <trkpt lat="45.64358" lon="6.82156">
        <ele>1541</ele>
        <time>2018-06-29T04:17:26Z</time>
      </trkpt>
      <trkpt lat="45.64312" lon="6.82086">
        <ele>1518</ele>
        <time>2018-06-29T04:18:26Z</time>
      </trkpt>
      <trkpt lat="45.64263" lon="6.81957">
        <ele>1503</ele>
        <time>2018-06-29T04:19:26Z</time>
      </trkpt>
      <trkpt lat="45.64258" lon="6.81921">
        <ele>1499</ele>
        <time>2018-06-29T04:20:26Z</time>
      </trkpt>
      <trkpt lat="45.64218" lon="6.8182">
        <ele>1485</ele>
        <time>2018-06-29T04:21:26Z</time>
      </trkpt>
      <trkpt lat="45.64202" lon="6.8182">
        <ele>1481</ele>
        <time>2018-06-29T04:22:26Z</time>
      </trkpt>
      <trkpt lat="45.64161" lon="6.81667">
        <ele>1479</ele>
        <time>2018-06-29T04:23:26Z</time>
      </trkpt>
      <trkpt lat="45.64122" lon="6.81629">
        <ele>1479</ele>
        <time>2018-06-29T04:24:26Z</time>
      </trkpt>
      <trkpt lat="45.64069" lon="6.81598">
        <ele>1460</ele>
        <time>2018-06-29T04:25:26Z</time>
      </trkpt>
      <trkpt lat="45.64086" lon="6.81638">
        <ele>1470</ele>
        <time>2018-06-29T04:26:26Z</time>
      </trkpt>
      <trkpt lat="45.64028" lon="6.81615">
        <ele>1444</ele>
        <time>2018-06-29T04:27:26Z</time>
      </trkpt>
      <trkpt lat="45.63979" lon="6.81586">
        <ele>1423</ele>
        <time>2018-06-29T04:28:26Z</time>
      </trkpt>
      <trkpt lat="45.63937" lon="6.81571">
        <ele>1430</ele>
        <time>2018-06-29T04:29:26Z</time>
      </trkpt>
      <trkpt lat="45.63963" lon="6.81649">
        <ele>1405</ele>
        <time>2018-06-29T04:30:26Z</time>
      </trkpt>
      <trkpt lat="45.63853" lon="6.81578">
        <ele>1386</ele>
        <time>2018-06-29T04:31:26Z</time>
      </trkpt>
      <trkpt lat="45.638" lon="6.81593">
        <ele>1338</ele>
        <time>2018-06-29T04:32:26Z</time>
      </trkpt>
      <trkpt lat="45.6383" lon="6.81739">
        <ele>1319</ele>
        <time>2018-06-29T04:33:26Z</time>
      </trkpt>
      <trkpt lat="45.63835" lon="6.81759">
        <ele>1326</ele>
        <time>2018-06-29T04:34:26Z</time>
      </trkpt>
      <trkpt lat="45.63797" lon="6.81766">
        <ele>1305</ele>
        <time>2018-06-29T04:35:26Z</time>
      </trkpt>
      <trkpt lat="45.63752" lon="6.81701">
        <ele>1307</ele>
        <time>2018-06-29T04:36:26Z</time>
      </trkpt>
      <trkpt lat="45.63729" lon="6.81696">
        <ele>1287</ele>
        <time>2018-06-29T04:37:26Z</time>
      </trkpt>
      <trkpt lat="45.63702" lon="6.81727">
        <ele>1280</ele>
        <time>2018-06-29T04:38:26Z</time>
      </trkpt>
      <trkpt lat="45.63672" lon="6.81714">
        <ele>1277</ele>
        <time>2018-06-29T04:39:26Z</time>
      </trkpt>
      <trkpt lat="45.63659" lon="6.81701">
        <ele>1251</ele>
        <time>2018-06-29T04:40:26Z</time>
      </trkpt>
      <trkpt lat="45.63661" lon="6.81616">
        <ele>1262</ele>
        <time>2018-06-29T04:41:26Z</time>
      </trkpt>
      <trkpt lat="45.636" lon="6.8154">
        <ele>1270</ele>
        <time>2018-06-29T04:42:26Z</time>
      </trkpt>
      <trkpt lat="45.63574" lon="6.81529">
        <ele>1244</ele>
        <time>2018-06-29T04:43:26Z</time>
      </trkpt>
      <trkpt lat="45.63542" lon="6.81538">
        <ele>1233</ele>
        <time>2018-06-29T04:44:26Z</time>
      </trkpt>
      <trkpt lat="45.63495" lon="6.81508">
        <ele>1213</ele>
        <time>2018-06-29T04:45:26Z</time>
      </trkpt>
      <trkpt lat="45.63457" lon="6.81465">
        <ele>1206</ele>
        <time>2018-06-29T04:46:26Z</time>
      </trkpt>
      <trkpt lat="45.63461" lon="6.81501">
        <ele>1192</ele>
        <time>2018-06-29T04:47:26Z</time>
      </trkpt>
      <trkpt lat="45.63423" lon="6.81444">
        <ele>1198</ele>
        <time>2018-06-29T04:48:26Z</time>
      </trkpt>
      <trkpt lat="45.63396" lon="6.81374">
        <ele>1172</ele>
        <time>2018-06-29T04:49:26Z</time>
      </trkpt>
      <trkpt lat="45.63384" lon="6.81312">
        <ele>1179</ele>
        <time>2018-06-29T04:50:26Z</time>
      </trkpt>
      <trkpt lat="45.6339" lon="6.81206">
        <ele>1182</ele>
        <time>2018-06-29T04:51:26Z</time>
      </trkpt>
      <trkpt lat="45.63393" lon="6.81104">
        <ele>1184</ele>
        <time>2018-06-29T04:52:26Z</time>
      </trkpt>
      <trkpt lat="45.63389" lon="6.81083">
        <ele>1185</ele>
        <time>2018-06-29T04:53:26Z</time>
      </trkpt>
      <trkpt lat="45.63371" lon="6.811">
        <ele>1174</ele>
        <time>2018-06-29T04:54:26Z</time>
      </trkpt>
      <trkpt lat="45.6335" lon="6.81042">
        <ele>1168</ele>
        <time>2018-06-29T04:55:26Z</time>
      </trkpt>
      <trkpt lat="45.63339" lon="6.81146">
        <ele>1161</ele>
        <time>2018-06-29T04:56:26Z</time>
      </trkpt>
      <trkpt lat="45.63305" lon="6.81085">
        <ele>1129</ele>
        <time>2018-06-29T04:57:26Z</time>
      </trkpt>
      <trkpt lat="45.63294" lon="6.80988">
        <ele>1137</ele>
        <time>2018-06-29T04:58:26Z</time>
      </trkpt>
      <trkpt lat="45.63252" lon="6.8094">
        <ele>1135</ele>
        <time>2018-06-29T04:59:26Z</time>
      </trkpt>
      <trkpt lat="45.63222" lon="6.80905">
        <ele>1121</ele>
        <time>2018-06-29T05:00:26Z</time>
      </trkpt>
      <trkpt lat="45.63174" lon="6.80845">
        <ele>1108</ele>
        <time>2018-06-29T05:01:26Z</time>
      </trkpt>
      <trkpt lat="45.63124" lon="6.80773">
        <ele>1083</ele>
        <time>2018-06-29T05:02:26Z</time>
      </trkpt>
      <trkpt lat="45.63098" lon="6.80767">
        <ele>1074</ele>
        <time>2018-06-29T05:03:26Z</time>
      </trkpt>
      <trkpt lat="45.63054" lon="6.80718">
        <ele>1050</ele>
        <time>2018-06-29T05:04:26Z</time>
      </trkpt>
      <trkpt lat="45.63084" lon="6.80677">
        <ele>1075</ele>
        <time>2018-06-29T05:05:26Z</time>
      </trkpt>
      <trkpt lat="45.63041" lon="6.80667">
        <ele>1049</ele>
        <time>2018-06-29T05:06:26Z</time>
      </trkpt>
      <trkpt lat="45.63022" lon="6.80644">
        <ele>1049</ele>
        <time>2018-06-29T05:07:26Z</time>
      </trkpt>
      <trkpt lat="45.63005" lon="6.80616">
        <ele>1048</ele>
        <time>2018-06-29T05:08:26Z</time>
      </trkpt>
      <trkpt lat="45.62972" lon="6.806">
        <ele>1023</ele>
        <time>2018-06-29T05:09:26Z</time>
      </trkpt>
      <trkpt lat="45.62957" lon="6.80546">
        <ele>1018</ele>
        <time>2018-06-29T05:10:26Z</time>
      </trkpt>
      <trkpt lat="45.62963" lon="6.80513">
        <ele>1020</ele>
        <time>2018-06-29T05:11:26Z</time>
      </trkpt>
      <trkpt lat="45.62948" lon="6.80447">
        <ele>1020</ele>
        <time>2018-06-29T05:12:26Z</time>
      </trkpt>
      <trkpt lat="45.62927" lon="6.80385">
        <ele>1020</ele>
        <time>2018-06-29T05:13:26Z</time>
      </trkpt>
      <trkpt lat="45.62921" lon="6.80347">
        <ele>1016</ele>
        <time>2018-06-29T05:14:26Z</time>
      </trkpt>
      <trkpt lat="45.62915" lon="6.80279">
        <ele>996</ele>
        <time>2018-06-29T05:15:26Z</time>
      </trkpt>
      <trkpt lat="45.62868" lon="6.8026">
        <ele>986</ele>
        <time>2018-06-29T05:16:26Z</time>
      </trkpt>
      <trkpt lat="45.62847" lon="6.80237">
        <ele>982</ele>
        <time>2018-06-29T05:17:26Z</time>
      </trkpt>
      <trkpt lat="45.62845" lon="6.80179">
        <ele>983</ele>
        <time>2018-06-29T05:18:26Z</time>
      </trkpt>
      <trkpt lat="45.62819" lon="6.80117">
        <ele>963</ele>
        <time>2018-06-29T05:19:26Z</time>
      </trkpt>
      <trkpt lat="45.62787" lon="6.80051">
        <ele>957</ele>
        <time>2018-06-29T05:20:26Z</time>
      </trkpt>
      <trkpt lat="45.62778" lon="6.79991">
        <ele>955</ele>
        <time>2018-06-29T05:21:26Z</time>
      </trkpt>
      <trkpt lat="45.62756" lon="6.79943">
        <ele>951</ele>
        <time>2018-06-29T05:22:26Z</time>
      </trkpt>
      <trkpt lat="45.6276" lon="6.799">
        <ele>952</ele>
        <time>2018-06-29T05:23:26Z</time>
      </trkpt>
      <trkpt lat="45.62734" lon="6.79849">
        <ele>928</ele>
        <time>2018-06-29T05:24:26Z</time>
      </trkpt>
      <trkpt lat="45.62721" lon="6.79798">
        <ele>926</ele>
        <time>2018-06-29T05:25:26Z</time>
      </trkpt>
      <trkpt lat="45.62687" lon="6.79725">
        <ele>921</ele>
        <time>2018-06-29T05:26:26Z</time>
      </trkpt>
      <trkpt lat="45.62666" lon="6.79676">
        <ele>901</ele>
        <time>2018-06-29T05:27:26Z</time>
      </trkpt>
      <trkpt lat="45.62648" lon="6.79611">
        <ele>896</ele>
        <time>2018-06-29T05:28:26Z</time>
      </trkpt>
      <trkpt lat="45.62626" lon="6.79526">
        <ele>891</ele>
        <time>2018-06-29T05:29:26Z</time>
      </trkpt>
      <trkpt lat="45.62613" lon="6.79448">
        <ele>886</ele>
        <time>2018-06-29T05:30:26Z</time>
      </trkpt>
      <trkpt lat="45.62603" lon="6.7944">
        <ele>883</ele>
        <time>2018-06-29T05:31:26Z</time>
      </trkpt>
      <trkpt lat="45.62592" lon="6.79436">
        <ele>880</ele>
        <time>2018-06-29T05:32:26Z</time>
      </trkpt>
      <trkpt lat="45.62594" lon="6.7941">
        <ele>874</ele>
        <time>2018-06-29T05:33:26Z</time>
      </trkpt>
      <trkpt lat="45.62589" lon="6.79398">
        <ele>875</ele>
        <time>2018-06-29T05:34:26Z</time>
      </trkpt>
      <trkpt lat="45.62606" lon="6.79364">
        <ele>876</ele>
        <time>2018-06-29T05:35:26Z</time>
      </trkpt>
      <trkpt lat="45.62622" lon="6.79284">
        <ele>871</ele>
        <time>2018-06-29T05:36:26Z</time>
      </trkpt>
      <trkpt lat="45.6264" lon="6.79189">
        <ele>865</ele>
        <time>2018-06-29T05:37:26Z</time>
      </trkpt>
      <trkpt lat="45.62629" lon="6.79118">
        <ele>856</ele>
        <time>2018-06-29T05:38:26Z</time>
      </trkpt>
      <trkpt lat="45.62638" lon="6.79055">
        <ele>849</ele>
        <time>2018-06-29T05:39:26Z</time>
      </trkpt>
      <trkpt lat="45.62611" lon="6.78982">
        <ele>841</ele>
        <time>2018-06-29T05:40:26Z</time>
      </trkpt>
      <trkpt lat="45.62579" lon="6.78918">
        <ele>834</ele>
        <time>2018-06-29T05:41:26Z</time>
      </trkpt>
      <trkpt lat="45.62583" lon="6.78873">
        <ele>832</ele>
        <time>2018-06-29T05:42:26Z</time>
      </trkpt>
      <trkpt lat="45.62591" lon="6.78845">
        <ele>834</ele>
        <time>2018-06-29T05:43:26Z</time>
      </trkpt>
      <trkpt lat="45.6257" lon="6.78772">
        <ele>830</ele>
        <time>2018-06-29T05:44:26Z</time>
      </trkpt>
      <trkpt lat="45.62529" lon="6.78739">
        <ele>830</ele>
        <time>2018-06-29T05:45:26Z</time>
      </trkpt>
      <trkpt lat="45.62433" lon="6.78672">
        <ele>826</ele>
        <time>2018-06-29T05:46:26Z</time>
      </trkpt>
      <trkpt lat="45.62384" lon="6.78647">
        <ele>823</ele>
        <time>2018-06-29T05:47:26Z</time>
      </trkpt>
      <trkpt lat="45.62331" lon="6.78612">
        <ele>820</ele>
        <time>2018-06-29T05:48:26Z</time>
      </trkpt>
      <trkpt lat="45.62296" lon="6.78595">
        <ele>820</ele>
        <time>2018-06-29T05:49:26Z</time>
      </trkpt>
      <trkpt lat="45.62242" lon="6.78569">
        <ele>819</ele>
        <time>2018-06-29T05:50:26Z</time>
      </trkpt>
      <trkpt lat="45.62203" lon="6.78548">
        <ele>818</ele>
        <time>2018-06-29T05:51:26Z</time>
      </trkpt>
      <trkpt lat="45.6217" lon="6.78536">
        <ele>817</ele>
        <time>2018-06-29T05:52:26Z</time>
      </trkpt>
      <trkpt lat="45.62107" lon="6.78531">
        <ele>815</ele>
        <time>2018-06-29T05:53:26Z</time>
      </trkpt>
      <trkpt lat="45.62074" lon="6.78523">
        <ele>814</ele>
        <time>2018-06-29T05:54:26Z</time>
      </trkpt>
      <trkpt lat="45.62057" lon="6.78502">
        <ele>813</ele>
        <time>2018-06-29T05:55:26Z</time>
      </trkpt>
      <trkpt lat="45.62039" lon="6.78437">
        <ele>812</ele>
        <time>2018-06-29T05:56:26Z</time>
      </trkpt>
      <trkpt lat="45.62027" lon="6.78356">
        <ele>811</ele>
        <time>2018-06-29T05:57:26Z</time>
      </trkpt>
      <trkpt lat="45.62016" lon="6.78305">
        <ele>811</ele>
        <time>2018-06-29T05:58:26Z</time>
      </trkpt>
      <trkpt lat="45.61973" lon="6.78265">
        <ele>813</ele>
        <time>2018-06-29T05:59:26Z</time>
      </trkpt>
      <trkpt lat="45.6196" lon="6.78229">
        <ele>814</ele>
        <time>2018-06-29T06:00:26Z</time>
      </trkpt>
      <trkpt lat="45.61953" lon="6.7818">
        <ele>814</ele>
        <time>2018-06-29T06:01:26Z</time>
      </trkpt>
      <trkpt lat="45.61935" lon="6.78138">
        <ele>815</ele>
        <time>2018-06-29T06:02:26Z</time>
      </trkpt>
      <trkpt lat="45.6189" lon="6.78081">
        <ele>817</ele>
        <time>2018-06-29T06:03:26Z</time>
      </trkpt>
      <trkpt lat="45.61846" lon="6.78022">
        <ele>816</ele>
        <time>2018-06-29T06:04:26Z</time>
      </trkpt>
      <trkpt lat="45.61803" lon="6.77973">
        <ele>812</ele>
        <time>2018-06-29T06:05:26Z</time>
      </trkpt>
      <trkpt lat="45.61818" lon="6.77873">
        <ele>810</ele>
        <time>2018-06-29T06:06:26Z</time>
      </trkpt>
      <trkpt lat="45.61824" lon="6.77809">
        <ele>810</ele>
        <time>2018-06-29T06:07:26Z</time>
      </trkpt>
      <trkpt lat="45.61836" lon="6.77721">
        <ele>812</ele>
        <time>2018-06-29T06:08:26Z</time>
      </trkpt>
      <trkpt lat="45.61842" lon="6.77672">
        <ele>810</ele>
        <time>2018-06-29T06:09:26Z</time>
      </trkpt>
      <trkpt lat="45.61854" lon="6.77588">
        <ele>810</ele>
        <time>2018-06-29T06:10:26Z</time>
      </trkpt>
      <trkpt lat="45.61882" lon="6.77538">
        <ele>811</ele>
        <time>2018-06-29T06:11:26Z</time>
      </trkpt>
      <trkpt lat="45.61896" lon="6.77432">
        <ele>809</ele>
        <time>2018-06-29T06:12:26Z</time>
      </trkpt>
      <trkpt lat="45.61899" lon="6.77373">
        <ele>808</ele>
        <time>2018-06-29T06:13:26Z</time>
      </trkpt>
      <trkpt lat="45.61915" lon="6.77294">
        <ele>809</ele>
        <time>2018-06-29T06:14:26Z</time>
      </trkpt>
      <trkpt lat="45.61903" lon="6.77276">
        <ele>810</ele>
        <time>2018-06-29T06:15:26Z</time>
      </trkpt>
      <trkpt lat="45.61931" lon="6.77237">
        <ele>811</ele>
        <time>2018-06-29T06:16:26Z</time>
      </trkpt>
      <trkpt lat="45.61986" lon="6.77192">
        <ele>812</ele>
        <time>2018-06-29T06:17:26Z</time>
      </trkpt>
      <trkpt lat="45.62016" lon="6.77167">
        <ele>812</ele>
        <time>2018-06-29T06:18:26Z</time>
      </trkpt>
      <trkpt lat="45.62031" lon="6.77126">
        <ele>814</ele>
        <time>2018-06-29T06:19:26Z</time>
      </trkpt>
      <trkpt lat="45.62022" lon="6.77105">
        <ele>815</ele>
        <time>2018-06-29T06:20:26Z</time>
      </trkpt>
      <trkpt lat="45.61992" lon="6.77094">
        <ele>815</ele>
        <time>2018-06-29T06:21:26Z</time>
      </trkpt>
      <trkpt lat="45.61944" lon="6.7709">
        <ele>815</ele>
        <time>2018-06-29T06:22:26Z</time>
      </trkpt>
      <trkpt lat="45.61871" lon="6.77091">
        <ele>816</ele>
        <time>2018-06-29T06:23:26Z</time>
      </trkpt>
    </trkseg>
  </trk>
</gpx>